<?xml version='1.0' encoding='UTF-8'?><gpx version="1.1" creator="JPX - https://github.com/jenetics/jpx" xmlns="http://www.topografix.com/GPX/1/1"><trk><trkseg><trkpt lat="44.42691963917408" lon="8.924310205647737"><ele>200.00000000000003</ele><time>2026-03-22T08:23:45.377Z</time></trkpt><trkpt lat="44.42684272394282" lon="8.924356855245247"><ele>200.0</ele><time>2026-03-22T08:23:51.979Z</time></trkpt><trkpt lat="44.42680817840312" lon="8.924268914464959"><ele>200.0</ele><time>2026-03-22T08:23:55.984Z</time></trkpt><trkpt lat="44.42680047224209" lon="8.924119295773298"><ele>200.0</ele><time>2026-03-22T08:23:56.985Z</time></trkpt><trkpt lat="44.42672875873298" lon="8.924039240426769"><ele>200.00000000000003</ele><time>2026-03-22T08:23:57.986Z</time></trkpt><trkpt lat="44.42666701024333" lon="8.92399963308261"><ele>200.0</ele><time>2026-03-22T08:23:59.988Z</time></trkpt><trkpt lat="44.42659990446463" lon="8.923944067586412"><ele>195.4</ele><time>2026-03-22T08:24:00.989Z</time></trkpt><trkpt lat="44.42652515687168" lon="8.923897069660146"><ele>190.8</ele><time>2026-03-22T08:24:01.989Z</time></trkpt><trkpt lat="44.426478044708944" lon="8.9238082015021"><ele>186.2</ele><time>2026-03-22T08:24:02.99Z</time></trkpt><trkpt lat="44.42639620774714" lon="8.923676336234797"><ele>181.6</ele><time>2026-03-22T08:24:04.992Z</time></trkpt><trkpt lat="44.42632324321992" lon="8.923554933036291"><ele>177.0</ele><time>2026-03-22T08:24:06.993Z</time></trkpt><trkpt lat="44.426279265664355" lon="8.923439072572014"><ele>172.83333333333334</ele><time>2026-03-22T08:24:08.994Z</time></trkpt><trkpt lat="44.42629292806442" lon="8.92335112337913"><ele>168.66666666666666</ele><time>2026-03-22T08:24:09.994Z</time></trkpt><trkpt lat="44.426281795325124" lon="8.923228632370327"><ele>164.5</ele><time>2026-03-22T08:24:11.995Z</time></trkpt><trkpt lat="44.42628242475924" lon="8.923099004662252"><ele>160.33333333333331</ele><time>2026-03-22T08:24:13.996Z</time></trkpt><trkpt lat="44.426262633111044" lon="8.923008385082381"><ele>156.16666666666666</ele><time>2026-03-22T08:24:14.996Z</time></trkpt><trkpt lat="44.42619705773938" lon="8.92286231879673"><ele>152.0</ele><time>2026-03-22T08:24:16.997Z</time></trkpt><trkpt lat="44.42612783013579" lon="8.922713320441153"><ele>152.0</ele><time>2026-03-22T08:24:18.997Z</time></trkpt><trkpt lat="44.426090382766766" lon="8.922640484144473"><ele>152.0</ele><time>2026-03-22T08:24:19.997Z</time></trkpt><trkpt lat="44.42603148433944" lon="8.922569580648965"><ele>152.0</ele><time>2026-03-22T08:24:20.998Z</time></trkpt><trkpt lat="44.42601399614029" lon="8.922482039836568"><ele>152.0</ele><time>2026-03-22T08:24:21.998Z</time></trkpt><trkpt lat="44.42593809085596" lon="8.922382054357257"><ele>152.0</ele><time>2026-03-22T08:24:23.998Z</time></trkpt><trkpt lat="44.42589279552624" lon="8.92231750635542"><ele>152.0</ele><time>2026-03-22T08:24:24.998Z</time></trkpt><trkpt lat="44.4258240584415" lon="8.922207749170674"><ele>151.4</ele><time>2026-03-22T08:24:26.999Z</time></trkpt><trkpt lat="44.42578259359602" lon="8.922137480246622"><ele>150.79999999999998</ele><time>2026-03-22T08:24:27.999Z</time></trkpt><trkpt lat="44.42570310431881" lon="8.922004600296782"><ele>150.2</ele><time>2026-03-22T08:24:29.999Z</time></trkpt><trkpt lat="44.42562953614048" lon="8.921887847067804"><ele>149.6</ele><time>2026-03-22T08:24:31.999Z</time></trkpt><trkpt lat="44.4255260771571" lon="8.921787521393501"><ele>149.0</ele><time>2026-03-22T08:24:34Z</time></trkpt><trkpt lat="44.42546344202045" lon="8.92173735154963"><ele>149.0</ele><time>2026-03-22T08:24:38Z</time></trkpt><trkpt lat="44.42542060352234" lon="8.92183844044939"><ele>149.0</ele><time>2026-03-22T08:24:39Z</time></trkpt><trkpt lat="44.425503260536225" lon="8.922024183630013"><ele>149.0</ele><time>2026-03-22T08:24:44Z</time></trkpt><trkpt lat="44.42557646711944" lon="8.92210710606105"><ele>149.0</ele><time>2026-03-22T08:24:46.001Z</time></trkpt><trkpt lat="44.425627216445" lon="8.922175289498558"><ele>149.0</ele><time>2026-03-22T08:24:47.001Z</time></trkpt><trkpt lat="44.42568014496675" lon="8.922239267130779"><ele>149.6</ele><time>2026-03-22T08:24:48.001Z</time></trkpt><trkpt lat="44.425745353734726" lon="8.922322471315965"><ele>150.2</ele><time>2026-03-22T08:24:49.001Z</time></trkpt><trkpt lat="44.42579014868165" lon="8.922411778368003"><ele>150.79999999999998</ele><time>2026-03-22T08:24:50.001Z</time></trkpt><trkpt lat="44.42588882997498" lon="8.922532362289443"><ele>151.4</ele><time>2026-03-22T08:24:52.001Z</time></trkpt><trkpt lat="44.42597661078859" lon="8.92262449813582"><ele>152.0</ele><time>2026-03-22T08:24:54.001Z</time></trkpt><trkpt lat="44.42601301750385" lon="8.922742406376758"><ele>152.0</ele><time>2026-03-22T08:24:56.001Z</time></trkpt><trkpt lat="44.42600126744069" lon="8.922844094728056"><ele>152.0</ele><time>2026-03-22T08:24:58.001Z</time></trkpt><trkpt lat="44.425865970111204" lon="8.922892657645967"><ele>152.0</ele><time>2026-03-22T08:25:00.001Z</time></trkpt><trkpt lat="44.425772497876075" lon="8.922840801636937"><ele>152.0</ele><time>2026-03-22T08:25:03.001Z</time></trkpt><trkpt lat="44.42571464403083" lon="8.922743624794576"><ele>152.0</ele><time>2026-03-22T08:25:04.001Z</time></trkpt><trkpt lat="44.425662036199206" lon="8.922599743932993"><ele>151.5</ele><time>2026-03-22T08:25:06.001Z</time></trkpt><trkpt lat="44.42560932267654" lon="8.922541211679558"><ele>151.0</ele><time>2026-03-22T08:25:07.001Z</time></trkpt><trkpt lat="44.42555014817851" lon="8.922460488141413"><ele>150.5</ele><time>2026-03-22T08:25:09.001Z</time></trkpt><trkpt lat="44.42547825212046" lon="8.922449492152598"><ele>150.0</ele><time>2026-03-22T08:25:10.001Z</time></trkpt><trkpt lat="44.42543299589822" lon="8.922314162886375"><ele>149.5</ele><time>2026-03-22T08:25:11.001Z</time></trkpt><trkpt lat="44.42535032852297" lon="8.922297962298968"><ele>149.0</ele><time>2026-03-22T08:25:12.001Z</time></trkpt><trkpt lat="44.42528720757563" lon="8.922267338681172"><ele>149.0</ele><time>2026-03-22T08:25:13.001Z</time></trkpt><trkpt lat="44.42527509373355" lon="8.92210524674079"><ele>149.0</ele><time>2026-03-22T08:25:14.001Z</time></trkpt><trkpt lat="44.42521705250018" lon="8.92207029056227"><ele>149.0</ele><time>2026-03-22T08:25:15.001Z</time></trkpt><trkpt lat="44.425127055020866" lon="8.92198945472055"><ele>149.0</ele><time>2026-03-22T08:25:17.002Z</time></trkpt><trkpt lat="44.42507717907877" lon="8.921899476159988"><ele>149.0</ele><time>2026-03-22T08:25:19.002Z</time></trkpt><trkpt lat="44.42501618128022" lon="8.921794439279461"><ele>147.83333333333331</ele><time>2026-03-22T08:25:21.002Z</time></trkpt><trkpt lat="44.424970656418246" lon="8.921718795433566"><ele>146.66666666666666</ele><time>2026-03-22T08:25:30.002Z</time></trkpt><trkpt lat="44.424929758476914" lon="8.921650839646803"><ele>145.5</ele><time>2026-03-22T08:25:32.002Z</time></trkpt><trkpt lat="44.42488410811936" lon="8.921574987236095"><ele>144.33333333333334</ele><time>2026-03-22T08:25:34.002Z</time></trkpt><trkpt lat="44.424774086166195" lon="8.921540325301454"><ele>143.16666666666669</ele><time>2026-03-22T08:25:36.002Z</time></trkpt><trkpt lat="44.42470947166366" lon="8.9215185476761"><ele>142.0</ele><time>2026-03-22T08:25:37.002Z</time></trkpt><trkpt lat="44.42464465930295" lon="8.921477407239493"><ele>142.0</ele><time>2026-03-22T08:25:38.002Z</time></trkpt><trkpt lat="44.4245837502789" lon="8.921420863471193"><ele>142.0</ele><time>2026-03-22T08:25:39.002Z</time></trkpt><trkpt lat="44.42453007065373" lon="8.921358841610665"><ele>142.0</ele><time>2026-03-22T08:25:40.002Z</time></trkpt><trkpt lat="44.424472532839935" lon="8.921293553906537"><ele>142.0</ele><time>2026-03-22T08:25:41.002Z</time></trkpt><trkpt lat="44.424418987790894" lon="8.921241323016657"><ele>142.0</ele><time>2026-03-22T08:25:42.002Z</time></trkpt><trkpt lat="44.424347833010465" lon="8.921173590427108"><ele>142.0</ele><time>2026-03-22T08:25:43.002Z</time></trkpt><trkpt lat="44.42427506600754" lon="8.92109147837119"><ele>142.0</ele><time>2026-03-22T08:25:44.002Z</time></trkpt><trkpt lat="44.42419808476701" lon="8.921008541809753"><ele>142.0</ele><time>2026-03-22T08:25:45.002Z</time></trkpt><trkpt lat="44.42411913621717" lon="8.92094535137831"><ele>142.0</ele><time>2026-03-22T08:25:46.002Z</time></trkpt><trkpt lat="44.42404927726112" lon="8.92087016284289"><ele>142.0</ele><time>2026-03-22T08:25:47.002Z</time></trkpt><trkpt lat="44.423993900681275" lon="8.920809141097557"><ele>142.0</ele><time>2026-03-22T08:25:48.002Z</time></trkpt><trkpt lat="44.42393480137113" lon="8.920760338744362"><ele>142.0</ele><time>2026-03-22T08:25:49.002Z</time></trkpt><trkpt lat="44.42387766273459" lon="8.920717194936502"><ele>141.33333333333334</ele><time>2026-03-22T08:25:50.002Z</time></trkpt><trkpt lat="44.423802541315666" lon="8.920681230224362"><ele>140.66666666666669</ele><time>2026-03-22T08:25:51.002Z</time></trkpt><trkpt lat="44.42373348067277" lon="8.920654017483688"><ele>140.0</ele><time>2026-03-22T08:25:52.002Z</time></trkpt><trkpt lat="44.42365107863956" lon="8.920602708183711"><ele>139.33333333333334</ele><time>2026-03-22T08:25:53.002Z</time></trkpt><trkpt lat="44.423571672436566" lon="8.920548672470249"><ele>138.66666666666666</ele><time>2026-03-22T08:25:54.002Z</time></trkpt><trkpt lat="44.423524306324275" lon="8.920467122587372"><ele>138.0</ele><time>2026-03-22T08:25:55.002Z</time></trkpt><trkpt lat="44.423472287452654" lon="8.920393756949528"><ele>138.0</ele><time>2026-03-22T08:25:56.002Z</time></trkpt><trkpt lat="44.42341839935278" lon="8.92030115441044"><ele>138.0</ele><time>2026-03-22T08:25:57.001Z</time></trkpt><trkpt lat="44.42336248766692" lon="8.920204150817222"><ele>138.0</ele><time>2026-03-22T08:25:58.001Z</time></trkpt><trkpt lat="44.42330513392926" lon="8.920117325312201"><ele>138.0</ele><time>2026-03-22T08:25:59.001Z</time></trkpt><trkpt lat="44.42324561319713" lon="8.920047221965046"><ele>138.0</ele><time>2026-03-22T08:26:00.001Z</time></trkpt><trkpt lat="44.423185675438866" lon="8.919992050924769"><ele>138.0</ele><time>2026-03-22T08:26:01.001Z</time></trkpt><trkpt lat="44.42310014969059" lon="8.919974512974763"><ele>138.33333333333334</ele><time>2026-03-22T08:26:02.001Z</time></trkpt><trkpt lat="44.42302380603724" lon="8.919950840096066"><ele>138.66666666666666</ele><time>2026-03-22T08:26:03.001Z</time></trkpt><trkpt lat="44.4229459177003" lon="8.919929644477433"><ele>139.0</ele><time>2026-03-22T08:26:04.001Z</time></trkpt><trkpt lat="44.422861456526974" lon="8.919971749127166"><ele>139.33333333333331</ele><time>2026-03-22T08:26:05.001Z</time></trkpt><trkpt lat="44.42278936182557" lon="8.919976945785804"><ele>139.66666666666666</ele><time>2026-03-22T08:26:06.001Z</time></trkpt><trkpt lat="44.42271728432104" lon="8.920044201937994"><ele>140.0</ele><time>2026-03-22T08:26:07.001Z</time></trkpt><trkpt lat="44.42264324795379" lon="8.920091822475664"><ele>140.0</ele><time>2026-03-22T08:26:08.001Z</time></trkpt><trkpt lat="44.422559459102025" lon="8.920130672187113"><ele>140.0</ele><time>2026-03-22T08:26:09.001Z</time></trkpt><trkpt lat="44.4224698834927" lon="8.92017983580856"><ele>140.0</ele><time>2026-03-22T08:26:10.001Z</time></trkpt><trkpt lat="44.42238802531182" lon="8.920207299509737"><ele>140.0</ele><time>2026-03-22T08:26:11.001Z</time></trkpt><trkpt lat="44.42231030764091" lon="8.92024630051843"><ele>140.0</ele><time>2026-03-22T08:26:12.001Z</time></trkpt><trkpt lat="44.42221776324916" lon="8.920289331433242"><ele>140.0</ele><time>2026-03-22T08:26:13.001Z</time></trkpt><trkpt lat="44.42212056559486" lon="8.920331142779858"><ele>136.4</ele><time>2026-03-22T08:26:14.001Z</time></trkpt><trkpt lat="44.42201608499553" lon="8.92037221137489"><ele>132.8</ele><time>2026-03-22T08:26:15.001Z</time></trkpt><trkpt lat="44.42191855259945" lon="8.920399485161079"><ele>129.2</ele><time>2026-03-22T08:26:16.001Z</time></trkpt><trkpt lat="44.421815228562" lon="8.920414580241111"><ele>125.6</ele><time>2026-03-22T08:26:17.001Z</time></trkpt><trkpt lat="44.421724324277754" lon="8.920435107054743"><ele>122.0</ele><time>2026-03-22T08:26:18.001Z</time></trkpt><trkpt lat="44.42159915652087" lon="8.920511495604728"><ele>121.99999999999999</ele><time>2026-03-22T08:26:20.001Z</time></trkpt><trkpt lat="44.42155478106495" lon="8.92058341362852"><ele>122.0</ele><time>2026-03-22T08:26:21.001Z</time></trkpt><trkpt lat="44.42149613364503" lon="8.920629904872236"><ele>122.0</ele><time>2026-03-22T08:26:22Z</time></trkpt><trkpt lat="44.42143041090912" lon="8.920756465710848"><ele>122.0</ele><time>2026-03-22T08:26:24Z</time></trkpt><trkpt lat="44.4213954988914" lon="8.920920503171335"><ele>121.99999999999999</ele><time>2026-03-22T08:26:26Z</time></trkpt><trkpt lat="44.42140598178223" lon="8.921012514099663"><ele>122.0</ele><time>2026-03-22T08:26:27Z</time></trkpt><trkpt lat="44.42141583283183" lon="8.92112669612489"><ele>122.99999999999999</ele><time>2026-03-22T08:26:28Z</time></trkpt><trkpt lat="44.42142590041868" lon="8.921235027232722"><ele>124.0</ele><time>2026-03-22T08:26:29Z</time></trkpt><trkpt lat="44.42143226813543" lon="8.921346314931053"><ele>125.0</ele><time>2026-03-22T08:26:30Z</time></trkpt><trkpt lat="44.42145284760382" lon="8.921487495809355"><ele>126.0</ele><time>2026-03-22T08:26:31Z</time></trkpt><trkpt lat="44.42146479499016" lon="8.921603444777789"><ele>126.99999999999999</ele><time>2026-03-22T08:26:32Z</time></trkpt><trkpt lat="44.42147337443212" lon="8.921729106154341"><ele>128.0</ele><time>2026-03-22T08:26:33Z</time></trkpt><trkpt lat="44.42147664288175" lon="8.921841338173579"><ele>128.33333333333331</ele><time>2026-03-22T08:26:34Z</time></trkpt><trkpt lat="44.42147155967331" lon="8.921950436370716"><ele>128.66666666666666</ele><time>2026-03-22T08:26:35Z</time></trkpt><trkpt lat="44.42145383361375" lon="8.922039750353312"><ele>129.0</ele><time>2026-03-22T08:26:36Z</time></trkpt><trkpt lat="44.42141415894152" lon="8.92211847641146"><ele>129.33333333333334</ele><time>2026-03-22T08:26:37Z</time></trkpt><trkpt lat="44.421360968662725" lon="8.922218314122635"><ele>129.66666666666669</ele><time>2026-03-22T08:26:39Z</time></trkpt><trkpt lat="44.42126511202082" lon="8.922303876137997"><ele>130.0</ele><time>2026-03-22T08:26:41Z</time></trkpt><trkpt lat="44.421124907470784" lon="8.922341500274797"><ele>127.50000000000001</ele><time>2026-03-22T08:26:43Z</time></trkpt><trkpt lat="44.421043601453505" lon="8.922346030377717"><ele>125.0</ele><time>2026-03-22T08:26:44Z</time></trkpt><trkpt lat="44.42095858158476" lon="8.922326469551964"><ele>122.5</ele><time>2026-03-22T08:26:45Z</time></trkpt><trkpt lat="44.42086985787981" lon="8.922335617563514"><ele>120.0</ele><time>2026-03-22T08:26:46Z</time></trkpt><trkpt lat="44.420794507072706" lon="8.922359202759306"><ele>117.50000000000001</ele><time>2026-03-22T08:26:47Z</time></trkpt><trkpt lat="44.42072826810959" lon="8.922382997454047"><ele>115.0</ele><time>2026-03-22T08:26:48Z</time></trkpt><trkpt lat="44.42065256071066" lon="8.922475406699713"><ele>115.8</ele><time>2026-03-22T08:26:49Z</time></trkpt><trkpt lat="44.42059189445313" lon="8.922566735357147"><ele>116.6</ele><time>2026-03-22T08:26:50Z</time></trkpt><trkpt lat="44.420553432023574" lon="8.922650971957804"><ele>117.4</ele><time>2026-03-22T08:26:51Z</time></trkpt><trkpt lat="44.42051823548507" lon="8.922781560976238"><ele>118.2</ele><time>2026-03-22T08:26:53Z</time></trkpt><trkpt lat="44.420505748082974" lon="8.922945805296145"><ele>119.0</ele><time>2026-03-22T08:26:55Z</time></trkpt><trkpt lat="44.420519786407766" lon="8.923094817434626"><ele>119.0</ele><time>2026-03-22T08:26:57Z</time></trkpt><trkpt lat="44.42056618472929" lon="8.923253009918213"><ele>119.0</ele><time>2026-03-22T08:26:59Z</time></trkpt><trkpt lat="44.42059555207908" lon="8.923345971165999"><ele>119.0</ele><time>2026-03-22T08:27:00.001Z</time></trkpt><trkpt lat="44.420635002621964" lon="8.923434261680777"><ele>119.0</ele><time>2026-03-22T08:27:01.001Z</time></trkpt><trkpt lat="44.420676922669" lon="8.923545447572373"><ele>119.0</ele><time>2026-03-22T08:27:02.001Z</time></trkpt><trkpt lat="44.42072402670561" lon="8.923664703601013"><ele>118.2</ele><time>2026-03-22T08:27:03.001Z</time></trkpt><trkpt lat="44.42076167250731" lon="8.923763768668612"><ele>117.4</ele><time>2026-03-22T08:27:04.001Z</time></trkpt><trkpt lat="44.42083237463278" lon="8.923958187548077"><ele>116.6</ele><time>2026-03-22T08:27:06.001Z</time></trkpt><trkpt lat="44.42087402435258" lon="8.924072472704784"><ele>115.8</ele><time>2026-03-22T08:27:07.001Z</time></trkpt><trkpt lat="44.42090636742625" lon="8.924167772852547"><ele>115.0</ele><time>2026-03-22T08:27:08.001Z</time></trkpt><trkpt lat="44.42093064830259" lon="8.924273365577882"><ele>113.83333333333334</ele><time>2026-03-22T08:27:09.001Z</time></trkpt><trkpt lat="44.42097683112492" lon="8.924364833075744"><ele>112.66666666666667</ele><time>2026-03-22T08:27:10.001Z</time></trkpt><trkpt lat="44.42103733601698" lon="8.924447089135974"><ele>111.5</ele><time>2026-03-22T08:27:11.001Z</time></trkpt><trkpt lat="44.42108976143749" lon="8.924539249282063"><ele>110.33333333333334</ele><time>2026-03-22T08:27:12.001Z</time></trkpt><trkpt lat="44.42114267454017" lon="8.924635664935781"><ele>109.16666666666667</ele><time>2026-03-22T08:27:13.001Z</time></trkpt><trkpt lat="44.421195443968905" lon="8.924716418798656"><ele>108.0</ele><time>2026-03-22T08:27:14.001Z</time></trkpt><trkpt lat="44.42124391445617" lon="8.924798335113813"><ele>108.0</ele><time>2026-03-22T08:27:15.001Z</time></trkpt><trkpt lat="44.42131349055735" lon="8.924820299808392"><ele>108.0</ele><time>2026-03-22T08:27:16.001Z</time></trkpt><trkpt lat="44.42138817542338" lon="8.924890557810532"><ele>108.0</ele><time>2026-03-22T08:27:17.001Z</time></trkpt><trkpt lat="44.42146030368019" lon="8.924982999033986"><ele>108.0</ele><time>2026-03-22T08:27:18.001Z</time></trkpt><trkpt lat="44.42151264405872" lon="8.925064749675913"><ele>108.0</ele><time>2026-03-22T08:27:19.001Z</time></trkpt><trkpt lat="44.42157579481146" lon="8.92516163707163"><ele>108.0</ele><time>2026-03-22T08:27:20.001Z</time></trkpt><trkpt lat="44.42164478263058" lon="8.925215146485776"><ele>108.66666666666667</ele><time>2026-03-22T08:27:21.001Z</time></trkpt><trkpt lat="44.42170534602971" lon="8.925281786553"><ele>109.33333333333334</ele><time>2026-03-22T08:27:22.001Z</time></trkpt><trkpt lat="44.42177682040285" lon="8.925344310475717"><ele>110.0</ele><time>2026-03-22T08:27:23.001Z</time></trkpt><trkpt lat="44.42185671155121" lon="8.925396375240844"><ele>110.66666666666667</ele><time>2026-03-22T08:27:24.001Z</time></trkpt><trkpt lat="44.42194075372247" lon="8.925457785854539"><ele>111.33333333333334</ele><time>2026-03-22T08:27:25.001Z</time></trkpt><trkpt lat="44.42202125198567" lon="8.925519659715636"><ele>112.0</ele><time>2026-03-22T08:27:26.001Z</time></trkpt><trkpt lat="44.42209156325592" lon="8.925578343790049"><ele>114.8</ele><time>2026-03-22T08:27:27.001Z</time></trkpt><trkpt lat="44.42216104576229" lon="8.925633443999766"><ele>117.6</ele><time>2026-03-22T08:27:28.001Z</time></trkpt><trkpt lat="44.42224157630717" lon="8.925749010366152"><ele>120.39999999999999</ele><time>2026-03-22T08:27:30.001Z</time></trkpt><trkpt lat="44.42222660457428" lon="8.92589258678002"><ele>123.19999999999999</ele><time>2026-03-22T08:27:32.001Z</time></trkpt><trkpt lat="44.42220174463838" lon="8.92601522144647"><ele>126.0</ele><time>2026-03-22T08:27:34.001Z</time></trkpt><trkpt lat="44.42215085841781" lon="8.926089580764168"><ele>127.0</ele><time>2026-03-22T08:27:35.001Z</time></trkpt><trkpt lat="44.4220423121413" lon="8.926042178148657"><ele>128.0</ele><time>2026-03-22T08:27:37.001Z</time></trkpt><trkpt lat="44.4219793114895" lon="8.926008689330507"><ele>129.0</ele><time>2026-03-22T08:27:38.001Z</time></trkpt><trkpt lat="44.42190993992895" lon="8.925990123959004"><ele>130.0</ele><time>2026-03-22T08:27:39.001Z</time></trkpt><trkpt lat="44.421826391134324" lon="8.925961418123899"><ele>131.0</ele><time>2026-03-22T08:27:40.001Z</time></trkpt><trkpt lat="44.42174777248587" lon="8.925926865867863"><ele>132.0</ele><time>2026-03-22T08:27:41.001Z</time></trkpt><trkpt lat="44.42167608606628" lon="8.925893328030858"><ele>129.14285714285714</ele><time>2026-03-22T08:27:42.001Z</time></trkpt><trkpt lat="44.42160580463182" lon="8.925863423174876"><ele>126.28571428571429</ele><time>2026-03-22T08:27:43.001Z</time></trkpt><trkpt lat="44.42153454009407" lon="8.925814115353962"><ele>123.42857142857143</ele><time>2026-03-22T08:27:44.001Z</time></trkpt><trkpt lat="44.42146173626837" lon="8.925790638155226"><ele>120.57142857142857</ele><time>2026-03-22T08:27:45.001Z</time></trkpt><trkpt lat="44.42138593086742" lon="8.925776158413893"><ele>117.71428571428572</ele><time>2026-03-22T08:27:46.001Z</time></trkpt><trkpt lat="44.42131461122338" lon="8.925752040414078"><ele>114.85714285714286</ele><time>2026-03-22T08:27:47.001Z</time></trkpt><trkpt lat="44.421245082052586" lon="8.925734219702028"><ele>112.0</ele><time>2026-03-22T08:27:48.001Z</time></trkpt><trkpt lat="44.421169665416826" lon="8.925726882644069"><ele>111.16666666666667</ele><time>2026-03-22T08:27:49.001Z</time></trkpt><trkpt lat="44.421046006492375" lon="8.925673522437018"><ele>110.33333333333334</ele><time>2026-03-22T08:27:51.001Z</time></trkpt><trkpt lat="44.420987325110175" lon="8.925631352436726"><ele>109.5</ele><time>2026-03-22T08:27:52.001Z</time></trkpt><trkpt lat="44.420924683450075" lon="8.925603665511817"><ele>108.66666666666666</ele><time>2026-03-22T08:27:53.001Z</time></trkpt><trkpt lat="44.420859911946025" lon="8.925575037218728"><ele>107.83333333333333</ele><time>2026-03-22T08:27:54.001Z</time></trkpt><trkpt lat="44.420798780958286" lon="8.925548017998414"><ele>107.0</ele><time>2026-03-22T08:27:55.001Z</time></trkpt><trkpt lat="44.42072949082553" lon="8.925535411571806"><ele>107.0</ele><time>2026-03-22T08:27:56.001Z</time></trkpt><trkpt lat="44.42067496197364" lon="8.925476784666635"><ele>107.0</ele><time>2026-03-22T08:27:57.001Z</time></trkpt><trkpt lat="44.42058182584808" lon="8.925389940788829"><ele>107.0</ele><time>2026-03-22T08:27:59.001Z</time></trkpt><trkpt lat="44.420468265969404" lon="8.925582719278266"><ele>107.0</ele><time>2026-03-22T08:28:00.001Z</time></trkpt><trkpt lat="44.420334608076196" lon="8.925500672304384"><ele>107.33333333333333</ele><time>2026-03-22T08:28:02Z</time></trkpt><trkpt lat="44.42029655003054" lon="8.925427422239915"><ele>107.66666666666666</ele><time>2026-03-22T08:28:03Z</time></trkpt><trkpt lat="44.42023006437264" lon="8.925401732225827"><ele>108.0</ele><time>2026-03-22T08:28:04Z</time></trkpt><trkpt lat="44.42013283969059" lon="8.925416976746162"><ele>108.33333333333334</ele><time>2026-03-22T08:28:05Z</time></trkpt><trkpt lat="44.42005255340365" lon="8.92536272644055"><ele>108.66666666666667</ele><time>2026-03-22T08:28:06Z</time></trkpt><trkpt lat="44.4199860957922" lon="8.925301934922809"><ele>109.0</ele><time>2026-03-22T08:28:07Z</time></trkpt><trkpt lat="44.41991649387766" lon="8.925256733686709"><ele>109.0</ele><time>2026-03-22T08:28:08Z</time></trkpt><trkpt lat="44.419814327096596" lon="8.92520175446322"><ele>109.0</ele><time>2026-03-22T08:28:09Z</time></trkpt><trkpt lat="44.41973105987943" lon="8.92514148401207"><ele>109.0</ele><time>2026-03-22T08:28:10Z</time></trkpt><trkpt lat="44.41962771556313" lon="8.92507340486224"><ele>109.0</ele><time>2026-03-22T08:28:11Z</time></trkpt><trkpt lat="44.41953716372562" lon="8.925018103097628"><ele>109.0</ele><time>2026-03-22T08:28:12Z</time></trkpt><trkpt lat="44.41944833519702" lon="8.924964690587974"><ele>106.6</ele><time>2026-03-22T08:28:13Z</time></trkpt><trkpt lat="44.41934706818324" lon="8.924899743530993"><ele>104.2</ele><time>2026-03-22T08:28:14Z</time></trkpt><trkpt lat="44.41926219501711" lon="8.924845725584468"><ele>101.8</ele><time>2026-03-22T08:28:15Z</time></trkpt><trkpt lat="44.41917136003326" lon="8.92480275392799"><ele>99.39999999999999</ele><time>2026-03-22T08:28:16Z</time></trkpt><trkpt lat="44.41908772518505" lon="8.924746058556083"><ele>97.0</ele><time>2026-03-22T08:28:17Z</time></trkpt><trkpt lat="44.41901348184166" lon="8.924697837709806"><ele>97.00000000000001</ele><time>2026-03-22T08:28:18Z</time></trkpt><trkpt lat="44.41894205393405" lon="8.924660766887383"><ele>97.0</ele><time>2026-03-22T08:28:19Z</time></trkpt><trkpt lat="44.41886287102022" lon="8.924632846793221"><ele>97.0</ele><time>2026-03-22T08:28:21Z</time></trkpt><trkpt lat="44.418788837926215" lon="8.924666969508271"><ele>97.0</ele><time>2026-03-22T08:28:23Z</time></trkpt><trkpt lat="44.41870709143794" lon="8.92481007664395"><ele>97.00000000000001</ele><time>2026-03-22T08:28:25Z</time></trkpt><trkpt lat="44.41867236327288" lon="8.924904163776903"><ele>97.0</ele><time>2026-03-22T08:28:26Z</time></trkpt><trkpt lat="44.41864989416675" lon="8.924998779589261"><ele>97.0</ele><time>2026-03-22T08:28:27Z</time></trkpt><trkpt lat="44.418607064141185" lon="8.925173663798041"><ele>97.0</ele><time>2026-03-22T08:28:29Z</time></trkpt><trkpt lat="44.41861425016268" lon="8.925285761092402"><ele>97.0</ele><time>2026-03-22T08:28:30Z</time></trkpt><trkpt lat="44.41860586315272" lon="8.925405406028336"><ele>97.0</ele><time>2026-03-22T08:28:31Z</time></trkpt><trkpt lat="44.4185954027385" lon="8.925526157086745"><ele>97.0</ele><time>2026-03-22T08:28:32Z</time></trkpt><trkpt lat="44.418583702794024" lon="8.925657794979683"><ele>97.0</ele><time>2026-03-22T08:28:33Z</time></trkpt><trkpt lat="44.418560113563785" lon="8.925773431422218"><ele>97.0</ele><time>2026-03-22T08:28:34Z</time></trkpt><trkpt lat="44.41854727703332" lon="8.925920024359899"><ele>97.0</ele><time>2026-03-22T08:28:35Z</time></trkpt><trkpt lat="44.41851183803811" lon="8.926069187943945"><ele>97.0</ele><time>2026-03-22T08:28:36Z</time></trkpt><trkpt lat="44.41850411433163" lon="8.926213626037494"><ele>97.0</ele><time>2026-03-22T08:28:37Z</time></trkpt><trkpt lat="44.41848026567983" lon="8.926345097459524"><ele>96.66666666666667</ele><time>2026-03-22T08:28:38Z</time></trkpt><trkpt lat="44.418457058956506" lon="8.926463680440976"><ele>96.33333333333334</ele><time>2026-03-22T08:28:39Z</time></trkpt><trkpt lat="44.418427592087646" lon="8.926582329621187"><ele>96.0</ele><time>2026-03-22T08:28:40Z</time></trkpt><trkpt lat="44.41841441409006" lon="8.92669677724503"><ele>95.66666666666667</ele><time>2026-03-22T08:28:41Z</time></trkpt><trkpt lat="44.4184038486296" lon="8.926798171122655"><ele>95.33333333333334</ele><time>2026-03-22T08:28:42Z</time></trkpt><trkpt lat="44.418386522600905" lon="8.926915223761473"><ele>95.0</ele><time>2026-03-22T08:28:43Z</time></trkpt><trkpt lat="44.41831491675359" lon="8.927064233028418"><ele>95.0</ele><time>2026-03-22T08:28:44Z</time></trkpt><trkpt lat="44.41831303907501" lon="8.92719702059187"><ele>95.0</ele><time>2026-03-22T08:28:45Z</time></trkpt><trkpt lat="44.41831085954065" lon="8.92730104644342"><ele>95.0</ele><time>2026-03-22T08:28:46Z</time></trkpt><trkpt lat="44.418289257454575" lon="8.927391180069883"><ele>95.0</ele><time>2026-03-22T08:28:47Z</time></trkpt><trkpt lat="44.41828714153826" lon="8.927481561266282"><ele>95.0</ele><time>2026-03-22T08:28:48Z</time></trkpt><trkpt lat="44.41833178058188" lon="8.927650703810565"><ele>95.0</ele><time>2026-03-22T08:28:50Z</time></trkpt><trkpt lat="44.41837009080207" lon="8.927728837823768"><ele>96.5</ele><time>2026-03-22T08:28:51Z</time></trkpt><trkpt lat="44.41847104511433" lon="8.927828975081816"><ele>98.0</ele><time>2026-03-22T08:28:53Z</time></trkpt><trkpt lat="44.4185310697975" lon="8.927858340535607"><ele>99.5</ele><time>2026-03-22T08:28:54Z</time></trkpt><trkpt lat="44.41860737266454" lon="8.927893845615227"><ele>101.0</ele><time>2026-03-22T08:28:55Z</time></trkpt><trkpt lat="44.41868851326319" lon="8.927936768731339"><ele>102.49999999999999</ele><time>2026-03-22T08:28:56Z</time></trkpt><trkpt lat="44.41877336600069" lon="8.927979140790686"><ele>104.0</ele><time>2026-03-22T08:28:57Z</time></trkpt><trkpt lat="44.41886574630208" lon="8.928028221342299"><ele>104.0</ele><time>2026-03-22T08:28:58Z</time></trkpt><trkpt lat="44.418963170392296" lon="8.92809355145837"><ele>104.0</ele><time>2026-03-22T08:28:59Z</time></trkpt><trkpt lat="44.41907051215176" lon="8.928132738717673"><ele>104.0</ele><time>2026-03-22T08:29:00Z</time></trkpt><trkpt lat="44.419148431514266" lon="8.928190139448725"><ele>104.0</ele><time>2026-03-22T08:29:01Z</time></trkpt><trkpt lat="44.41924972694091" lon="8.928229427696296"><ele>104.0</ele><time>2026-03-22T08:29:02Z</time></trkpt><trkpt lat="44.41933885172357" lon="8.928269463148832"><ele>104.0</ele><time>2026-03-22T08:29:03Z</time></trkpt><trkpt lat="44.41942434569145" lon="8.92832899361528"><ele>104.0</ele><time>2026-03-22T08:29:04Z</time></trkpt><trkpt lat="44.41952406012983" lon="8.928381733849632"><ele>104.0</ele><time>2026-03-22T08:29:05Z</time></trkpt><trkpt lat="44.419625512090185" lon="8.92840719935842"><ele>104.0</ele><time>2026-03-22T08:29:06Z</time></trkpt><trkpt lat="44.41973397089167" lon="8.928455026479654"><ele>104.0</ele><time>2026-03-22T08:29:07Z</time></trkpt><trkpt lat="44.41982998738356" lon="8.928526627478606"><ele>103.0</ele><time>2026-03-22T08:29:08Z</time></trkpt><trkpt lat="44.4199120355931" lon="8.928585568403907"><ele>102.0</ele><time>2026-03-22T08:29:09Z</time></trkpt><trkpt lat="44.41999191649944" lon="8.928632758890162"><ele>101.0</ele><time>2026-03-22T08:29:10Z</time></trkpt><trkpt lat="44.42010680729583" lon="8.928711981430693"><ele>100.0</ele><time>2026-03-22T08:29:11Z</time></trkpt><trkpt lat="44.420162130997355" lon="8.928786720454186"><ele>99.0</ele><time>2026-03-22T08:29:12Z</time></trkpt><trkpt lat="44.42026197445283" lon="8.928918236974503"><ele>99.0</ele><time>2026-03-22T08:29:14Z</time></trkpt><trkpt lat="44.420304062116564" lon="8.929017794618122"><ele>99.0</ele><time>2026-03-22T08:29:15Z</time></trkpt><trkpt lat="44.42034719971439" lon="8.929103004440643"><ele>99.0</ele><time>2026-03-22T08:29:16Z</time></trkpt><trkpt lat="44.42038543643214" lon="8.929237261749277"><ele>99.0</ele><time>2026-03-22T08:29:17Z</time></trkpt><trkpt lat="44.42041582278514" lon="8.929346028180523"><ele>99.0</ele><time>2026-03-22T08:29:18Z</time></trkpt><trkpt lat="44.42044810819132" lon="8.929432275577588"><ele>99.0</ele><time>2026-03-22T08:29:19Z</time></trkpt><trkpt lat="44.42050893964859" lon="8.929542597625153"><ele>102.2</ele><time>2026-03-22T08:29:21Z</time></trkpt><trkpt lat="44.42058232786058" lon="8.929632289618512"><ele>105.4</ele><time>2026-03-22T08:29:26Z</time></trkpt><trkpt lat="44.420648970530195" lon="8.929693762695669"><ele>108.6</ele><time>2026-03-22T08:29:28.001Z</time></trkpt><trkpt lat="44.420742514726996" lon="8.92974177775881"><ele>111.8</ele><time>2026-03-22T08:29:30.001Z</time></trkpt><trkpt lat="44.42081513379172" lon="8.92978440686767"><ele>115.0</ele><time>2026-03-22T08:29:31.001Z</time></trkpt><trkpt lat="44.42090075338602" lon="8.929857260326717"><ele>115.0</ele><time>2026-03-22T08:29:33.001Z</time></trkpt><trkpt lat="44.420973428105256" lon="8.929963075947592"><ele>115.0</ele><time>2026-03-22T08:29:35.001Z</time></trkpt><trkpt lat="44.4209514383117" lon="8.930088706053727"><ele>115.0</ele><time>2026-03-22T08:29:37.001Z</time></trkpt><trkpt lat="44.420749782840296" lon="8.930238577857361"><ele>115.0</ele><time>2026-03-22T08:29:39.001Z</time></trkpt><trkpt lat="44.42063005148622" lon="8.930190074771025"><ele>114.4</ele><time>2026-03-22T08:29:44.001Z</time></trkpt><trkpt lat="44.42056053899477" lon="8.930162623311132"><ele>113.8</ele><time>2026-03-22T08:29:45.001Z</time></trkpt><trkpt lat="44.42045063953115" lon="8.930150965470506"><ele>113.19999999999999</ele><time>2026-03-22T08:29:47.001Z</time></trkpt><trkpt lat="44.42032801684149" lon="8.930168539398009"><ele>112.6</ele><time>2026-03-22T08:29:49.001Z</time></trkpt><trkpt lat="44.420236705221626" lon="8.930222942631861"><ele>112.0</ele><time>2026-03-22T08:29:51.001Z</time></trkpt><trkpt lat="44.42009947361026" lon="8.930395947211256"><ele>112.00000000000001</ele><time>2026-03-22T08:29:53.001Z</time></trkpt><trkpt lat="44.420041633471904" lon="8.930528424080176"><ele>112.0</ele><time>2026-03-22T08:29:54.001Z</time></trkpt><trkpt lat="44.41998477756817" lon="8.93063105816808"><ele>112.0</ele><time>2026-03-22T08:29:55.001Z</time></trkpt><trkpt lat="44.419941633472966" lon="8.930715483003516"><ele>112.0</ele><time>2026-03-22T08:29:56.001Z</time></trkpt><trkpt lat="44.41989199549022" lon="8.930783196584926"><ele>112.00000000000001</ele><time>2026-03-22T08:29:57.001Z</time></trkpt><trkpt lat="44.4198225355937" lon="8.93086882834958"><ele>112.0</ele><time>2026-03-22T08:29:59.001Z</time></trkpt><trkpt lat="44.419737676239784" lon="8.930870516786479"><ele>113.83333333333334</ele><time>2026-03-22T08:30:07.001Z</time></trkpt><trkpt lat="44.41966769671499" lon="8.930909977395146"><ele>115.66666666666667</ele><time>2026-03-22T08:30:08Z</time></trkpt><trkpt lat="44.419589064417714" lon="8.930959931525832"><ele>117.5</ele><time>2026-03-22T08:30:09Z</time></trkpt><trkpt lat="44.41950878189948" lon="8.9310142275627"><ele>119.33333333333334</ele><time>2026-03-22T08:30:10Z</time></trkpt><trkpt lat="44.419425489030886" lon="8.931071374860055"><ele>121.16666666666667</ele><time>2026-03-22T08:30:11Z</time></trkpt><trkpt lat="44.41933867727454" lon="8.931103412316956"><ele>123.0</ele><time>2026-03-22T08:30:12Z</time></trkpt><trkpt lat="44.419245118919605" lon="8.931147758391202"><ele>123.0</ele><time>2026-03-22T08:30:13Z</time></trkpt><trkpt lat="44.419142502828976" lon="8.931207237685058"><ele>123.00000000000001</ele><time>2026-03-22T08:30:14Z</time></trkpt><trkpt lat="44.41906225942311" lon="8.93124567873608"><ele>123.00000000000001</ele><time>2026-03-22T08:30:15Z</time></trkpt><trkpt lat="44.418992495498685" lon="8.931289428543758"><ele>123.0</ele><time>2026-03-22T08:30:16Z</time></trkpt><trkpt lat="44.41887772564832" lon="8.931333399899934"><ele>123.0</ele><time>2026-03-22T08:30:18Z</time></trkpt><trkpt lat="44.41881032381847" lon="8.93134963098034"><ele>121.4</ele><time>2026-03-22T08:30:19Z</time></trkpt><trkpt lat="44.41871240398775" lon="8.931394884484346"><ele>119.80000000000001</ele><time>2026-03-22T08:30:20Z</time></trkpt><trkpt lat="44.4186253470435" lon="8.93143664560994"><ele>118.2</ele><time>2026-03-22T08:30:21Z</time></trkpt><trkpt lat="44.418539532985555" lon="8.931464041390107"><ele>116.6</ele><time>2026-03-22T08:30:22Z</time></trkpt><trkpt lat="44.41844455804207" lon="8.931496796780051"><ele>115.0</ele><time>2026-03-22T08:30:23Z</time></trkpt><trkpt lat="44.4183532017587" lon="8.931526554413962"><ele>115.00000000000001</ele><time>2026-03-22T08:30:24Z</time></trkpt><trkpt lat="44.418264487776874" lon="8.931545346168036"><ele>115.0</ele><time>2026-03-22T08:30:25Z</time></trkpt><trkpt lat="44.418195686324246" lon="8.931570471253064"><ele>115.0</ele><time>2026-03-22T08:30:26Z</time></trkpt><trkpt lat="44.418125853056175" lon="8.931596474859138"><ele>115.0</ele><time>2026-03-22T08:30:27Z</time></trkpt><trkpt lat="44.4180585403374" lon="8.931632693189062"><ele>115.00000000000001</ele><time>2026-03-22T08:30:28Z</time></trkpt><trkpt lat="44.417979458668725" lon="8.93169544504143"><ele>115.0</ele><time>2026-03-22T08:30:30Z</time></trkpt><trkpt lat="44.41799522029894" lon="8.931817397527912"><ele>114.33333333333334</ele><time>2026-03-22T08:30:31Z</time></trkpt><trkpt lat="44.41799627544969" lon="8.931905798821031"><ele>113.66666666666667</ele><time>2026-03-22T08:30:32Z</time></trkpt><trkpt lat="44.417988809756594" lon="8.93200402472914"><ele>113.0</ele><time>2026-03-22T08:30:33Z</time></trkpt><trkpt lat="44.41797605781464" lon="8.932141132978147"><ele>112.33333333333334</ele><time>2026-03-22T08:30:34Z</time></trkpt><trkpt lat="44.417973812582844" lon="8.932256179780413"><ele>111.66666666666667</ele><time>2026-03-22T08:30:35Z</time></trkpt><trkpt lat="44.41798299930458" lon="8.932352795929482"><ele>111.0</ele><time>2026-03-22T08:30:36Z</time></trkpt><trkpt lat="44.41799164681228" lon="8.93244637144263"><ele>108.0</ele><time>2026-03-22T08:30:37Z</time></trkpt><trkpt lat="44.41799893628647" lon="8.932588782678042"><ele>105.0</ele><time>2026-03-22T08:30:39Z</time></trkpt><trkpt lat="44.4180703189171" lon="8.932656148480126"><ele>102.0</ele><time>2026-03-22T08:30:40Z</time></trkpt><trkpt lat="44.418135227212275" lon="8.932742653949468"><ele>99.0</ele><time>2026-03-22T08:30:41Z</time></trkpt><trkpt lat="44.41817315964774" lon="8.932844850386369"><ele>96.0</ele><time>2026-03-22T08:30:42Z</time></trkpt><trkpt lat="44.41823535042901" lon="8.932962278282897"><ele>96.0</ele><time>2026-03-22T08:30:43Z</time></trkpt><trkpt lat="44.41828550938048" lon="8.933057320433129"><ele>96.0</ele><time>2026-03-22T08:30:44Z</time></trkpt><trkpt lat="44.41834329957107" lon="8.933166726934108"><ele>96.0</ele><time>2026-03-22T08:30:45Z</time></trkpt><trkpt lat="44.418402174839656" lon="8.933277598666876"><ele>96.0</ele><time>2026-03-22T08:30:46Z</time></trkpt><trkpt lat="44.41845790158" lon="8.933382541205123"><ele>96.0</ele><time>2026-03-22T08:30:47Z</time></trkpt><trkpt lat="44.41853105789396" lon="8.933483223658476"><ele>96.5</ele><time>2026-03-22T08:30:48Z</time></trkpt><trkpt lat="44.41857816497864" lon="8.933613478691655"><ele>97.0</ele><time>2026-03-22T08:30:49Z</time></trkpt><trkpt lat="44.41862539308462" lon="8.93370109510135"><ele>97.5</ele><time>2026-03-22T08:30:50Z</time></trkpt><trkpt lat="44.41866301299191" lon="8.933779430445862"><ele>98.0</ele><time>2026-03-22T08:30:51Z</time></trkpt><trkpt lat="44.418676767069385" lon="8.933936671840447"><ele>98.5</ele><time>2026-03-22T08:30:53Z</time></trkpt><trkpt lat="44.4186585773586" lon="8.934034132292378"><ele>99.0</ele><time>2026-03-22T08:30:54Z</time></trkpt><trkpt lat="44.41861497917656" lon="8.934184526647982"><ele>99.0</ele><time>2026-03-22T08:30:56Z</time></trkpt><trkpt lat="44.418524984979506" lon="8.934295343679903"><ele>99.0</ele><time>2026-03-22T08:30:58Z</time></trkpt><trkpt lat="44.41841495853261" lon="8.934331958834361"><ele>99.0</ele><time>2026-03-22T08:31:00Z</time></trkpt><trkpt lat="44.41830800634315" lon="8.934284873510023"><ele>99.0</ele><time>2026-03-22T08:31:02Z</time></trkpt><trkpt lat="44.41823957948699" lon="8.934299513951947"><ele>99.0</ele><time>2026-03-22T08:31:03Z</time></trkpt><trkpt lat="44.41816351506118" lon="8.934189625465166"><ele>99.0</ele><time>2026-03-22T08:31:04Z</time></trkpt><trkpt lat="44.418096176609914" lon="8.93414090620293"><ele>99.0</ele><time>2026-03-22T08:31:05Z</time></trkpt><trkpt lat="44.41801205841281" lon="8.93407763071736"><ele>99.0</ele><time>2026-03-22T08:31:06Z</time></trkpt><trkpt lat="44.41793779995289" lon="8.933991485353324"><ele>99.0</ele><time>2026-03-22T08:31:07Z</time></trkpt><trkpt lat="44.41781540804074" lon="8.933894392760307"><ele>99.0</ele><time>2026-03-22T08:31:08Z</time></trkpt><trkpt lat="44.417710363724176" lon="8.933798018222198"><ele>102.75</ele><time>2026-03-22T08:31:09Z</time></trkpt><trkpt lat="44.41758599708195" lon="8.933633944438116"><ele>106.5</ele><time>2026-03-22T08:31:11Z</time></trkpt><trkpt lat="44.41747619745264" lon="8.93355713805775"><ele>110.25</ele><time>2026-03-22T08:31:12Z</time></trkpt><trkpt lat="44.41738351259554" lon="8.933508561843462"><ele>114.0</ele><time>2026-03-22T08:31:13Z</time></trkpt><trkpt lat="44.41729487648516" lon="8.933447499182678"><ele>111.6</ele><time>2026-03-22T08:31:14Z</time></trkpt><trkpt lat="44.41722321330027" lon="8.933382223260276"><ele>109.2</ele><time>2026-03-22T08:31:15Z</time></trkpt><trkpt lat="44.41714917228021" lon="8.933336517257429"><ele>106.8</ele><time>2026-03-22T08:31:16Z</time></trkpt><trkpt lat="44.41707745301664" lon="8.933249199193346"><ele>104.39999999999999</ele><time>2026-03-22T08:31:17Z</time></trkpt><trkpt lat="44.416989608504885" lon="8.933168839987825"><ele>102.0</ele><time>2026-03-22T08:31:18Z</time></trkpt><trkpt lat="44.416892852404196" lon="8.933079890974549"><ele>102.0</ele><time>2026-03-22T08:31:19Z</time></trkpt><trkpt lat="44.4168008269845" lon="8.932996599229094"><ele>102.0</ele><time>2026-03-22T08:31:20Z</time></trkpt><trkpt lat="44.41670330023983" lon="8.93291555413746"><ele>102.0</ele><time>2026-03-22T08:31:21Z</time></trkpt><trkpt lat="44.41662894567808" lon="8.932861456792706"><ele>102.0</ele><time>2026-03-22T08:31:22Z</time></trkpt><trkpt lat="44.4165590568978" lon="8.932823317484608"><ele>102.0</ele><time>2026-03-22T08:31:23Z</time></trkpt><trkpt lat="44.41648494193405" lon="8.932790340708838"><ele>102.0</ele><time>2026-03-22T08:31:24Z</time></trkpt><trkpt lat="44.41640054949607" lon="8.93276390349343"><ele>102.0</ele><time>2026-03-22T08:31:25Z</time></trkpt><trkpt lat="44.41631849854646" lon="8.93274972683816"><ele>102.0</ele><time>2026-03-22T08:31:26Z</time></trkpt><trkpt lat="44.41624507281497" lon="8.932744969899721"><ele>102.0</ele><time>2026-03-22T08:31:27Z</time></trkpt><trkpt lat="44.41617718248907" lon="8.932746276726254"><ele>102.0</ele><time>2026-03-22T08:31:28Z</time></trkpt><trkpt lat="44.416071329211576" lon="8.932761297084808"><ele>102.0</ele><time>2026-03-22T08:31:30Z</time></trkpt><trkpt lat="44.41600475081666" lon="8.932776179642218"><ele>101.0</ele><time>2026-03-22T08:31:31Z</time></trkpt><trkpt lat="44.41589747690619" lon="8.932803998435897"><ele>100.0</ele><time>2026-03-22T08:31:33Z</time></trkpt><trkpt lat="44.41581379708203" lon="8.932825371683027"><ele>99.0</ele><time>2026-03-22T08:31:35Z</time></trkpt><trkpt lat="44.41571618117523" lon="8.93285074753016"><ele>98.0</ele><time>2026-03-22T08:31:37Z</time></trkpt><trkpt lat="44.41561846083016" lon="8.932877358221063"><ele>97.0</ele><time>2026-03-22T08:31:39Z</time></trkpt><trkpt lat="44.41549628867538" lon="8.932929659342355"><ele>95.8</ele><time>2026-03-22T08:31:41Z</time></trkpt><trkpt lat="44.415423531872875" lon="8.932928996299792"><ele>94.6</ele><time>2026-03-22T08:31:42Z</time></trkpt><trkpt lat="44.41531689063225" lon="8.93295692981209"><ele>93.39999999999999</ele><time>2026-03-22T08:31:44Z</time></trkpt><trkpt lat="44.415198096762126" lon="8.932988120018871"><ele>92.19999999999999</ele><time>2026-03-22T08:31:46Z</time></trkpt><trkpt lat="44.415102008358126" lon="8.933011108888403"><ele>91.0</ele><time>2026-03-22T08:31:48Z</time></trkpt><trkpt lat="44.41501750056967" lon="8.933028076790517"><ele>91.0</ele><time>2026-03-22T08:31:50Z</time></trkpt><trkpt lat="44.41493104606403" lon="8.933047863760144"><ele>91.0</ele><time>2026-03-22T08:31:52.001Z</time></trkpt><trkpt lat="44.414852504078304" lon="8.933072571003972"><ele>91.0</ele><time>2026-03-22T08:31:54.001Z</time></trkpt><trkpt lat="44.41476709691416" lon="8.933109242604727"><ele>91.0</ele><time>2026-03-22T08:31:57.001Z</time></trkpt><trkpt lat="44.41467621031985" lon="8.93313281801059"><ele>91.0</ele><time>2026-03-22T08:31:59.001Z</time></trkpt><trkpt lat="44.41457838939566" lon="8.933159185633203"><ele>91.0</ele><time>2026-03-22T08:32:01.001Z</time></trkpt><trkpt lat="44.41451375242411" lon="8.933291798432402"><ele>89.66666666666666</ele><time>2026-03-22T08:32:03.001Z</time></trkpt><trkpt lat="44.41448184186647" lon="8.933371651014998"><ele>88.33333333333333</ele><time>2026-03-22T08:32:04.001Z</time></trkpt><trkpt lat="44.41444978482056" lon="8.933508670543784"><ele>87.0</ele><time>2026-03-22T08:32:06.001Z</time></trkpt><trkpt lat="44.41443422597509" lon="8.933601478337751"><ele>85.66666666666667</ele><time>2026-03-22T08:32:07.001Z</time></trkpt><trkpt lat="44.41443180054218" lon="8.933699298079542"><ele>84.33333333333334</ele><time>2026-03-22T08:32:08.001Z</time></trkpt><trkpt lat="44.41445042540989" lon="8.933842833501549"><ele>83.0</ele><time>2026-03-22T08:32:10.001Z</time></trkpt><trkpt lat="44.414502135589444" lon="8.933960087570517"><ele>83.25</ele><time>2026-03-22T08:32:12.001Z</time></trkpt><trkpt lat="44.41456729652611" lon="8.934007164229701"><ele>83.5</ele><time>2026-03-22T08:32:14Z</time></trkpt><trkpt lat="44.41475968292624" lon="8.934119993895985"><ele>83.75</ele><time>2026-03-22T08:32:24Z</time></trkpt><trkpt lat="44.41483748402533" lon="8.934180383029767"><ele>84.0</ele><time>2026-03-22T08:32:25Z</time></trkpt><trkpt lat="44.41492968714513" lon="8.934218010635576"><ele>82.4</ele><time>2026-03-22T08:32:26Z</time></trkpt><trkpt lat="44.415000802724805" lon="8.934282092916146"><ele>80.80000000000001</ele><time>2026-03-22T08:32:27Z</time></trkpt><trkpt lat="44.41511549160699" lon="8.93435433201727"><ele>79.19999999999999</ele><time>2026-03-22T08:32:28Z</time></trkpt><trkpt lat="44.41520665815084" lon="8.93441147019427"><ele>77.6</ele><time>2026-03-22T08:32:29Z</time></trkpt><trkpt lat="44.41529731442876" lon="8.934468231259231"><ele>76.0</ele><time>2026-03-22T08:32:30Z</time></trkpt><trkpt lat="44.41538278170487" lon="8.934501319002942"><ele>76.0</ele><time>2026-03-22T08:32:31Z</time></trkpt><trkpt lat="44.41548155134578" lon="8.934569964073647"><ele>76.0</ele><time>2026-03-22T08:32:32Z</time></trkpt><trkpt lat="44.415594462389606" lon="8.934653508838737"><ele>76.0</ele><time>2026-03-22T08:32:33Z</time></trkpt><trkpt lat="44.41568629389641" lon="8.934691782612928"><ele>76.0</ele><time>2026-03-22T08:32:34Z</time></trkpt><trkpt lat="44.415736078254646" lon="8.934752823010893"><ele>76.0</ele><time>2026-03-22T08:32:35Z</time></trkpt><trkpt lat="44.415803995860834" lon="8.934776213197022"><ele>77.66666666666666</ele><time>2026-03-22T08:32:36Z</time></trkpt><trkpt lat="44.41585904298645" lon="8.934827223277289"><ele>79.33333333333333</ele><time>2026-03-22T08:32:37Z</time></trkpt><trkpt lat="44.415902575613146" lon="8.934909499158449"><ele>81.0</ele><time>2026-03-22T08:32:38Z</time></trkpt><trkpt lat="44.415922430544356" lon="8.934995525589333"><ele>82.66666666666667</ele><time>2026-03-22T08:32:39Z</time></trkpt><trkpt lat="44.41592371254875" lon="8.935122436820686"><ele>84.33333333333334</ele><time>2026-03-22T08:32:40Z</time></trkpt><trkpt lat="44.41591539347881" lon="8.93523945597469"><ele>86.0</ele><time>2026-03-22T08:32:41Z</time></trkpt><trkpt lat="44.41589702866058" lon="8.935369622485986"><ele>86.0</ele><time>2026-03-22T08:32:42Z</time></trkpt><trkpt lat="44.41587411139531" lon="8.93547020813816"><ele>86.0</ele><time>2026-03-22T08:32:43Z</time></trkpt><trkpt lat="44.41585190923949" lon="8.935556333244739"><ele>86.0</ele><time>2026-03-22T08:32:44Z</time></trkpt><trkpt lat="44.41583042526071" lon="8.935675156469905"><ele>86.0</ele><time>2026-03-22T08:32:46Z</time></trkpt><trkpt lat="44.41573123361748" lon="8.935677924825471"><ele>86.0</ele><time>2026-03-22T08:32:47Z</time></trkpt><trkpt lat="44.41566176171531" lon="8.93569872915794"><ele>86.0</ele><time>2026-03-22T08:32:48Z</time></trkpt><trkpt lat="44.41557442844015" lon="8.935715869297235"><ele>85.6</ele><time>2026-03-22T08:32:49Z</time></trkpt><trkpt lat="44.41548014456889" lon="8.935744737426075"><ele>85.19999999999999</ele><time>2026-03-22T08:32:50Z</time></trkpt><trkpt lat="44.41539330516935" lon="8.935769760207972"><ele>84.80000000000001</ele><time>2026-03-22T08:32:51Z</time></trkpt><trkpt lat="44.41530790259734" lon="8.935778602972748"><ele>84.4</ele><time>2026-03-22T08:32:52Z</time></trkpt><trkpt lat="44.4152232322306" lon="8.935815706800794"><ele>84.0</ele><time>2026-03-22T08:32:53Z</time></trkpt><trkpt lat="44.41512758180584" lon="8.935865475363556"><ele>85.83333333333333</ele><time>2026-03-22T08:32:54Z</time></trkpt><trkpt lat="44.41503738678012" lon="8.935891980018223"><ele>87.66666666666667</ele><time>2026-03-22T08:32:55Z</time></trkpt><trkpt lat="44.41495995966413" lon="8.935904933389303"><ele>89.5</ele><time>2026-03-22T08:32:56Z</time></trkpt><trkpt lat="44.41488583896662" lon="8.935923542624293"><ele>91.33333333333334</ele><time>2026-03-22T08:32:57Z</time></trkpt><trkpt lat="44.41481042286241" lon="8.935952903803319"><ele>93.16666666666667</ele><time>2026-03-22T08:32:58Z</time></trkpt><trkpt lat="44.41471779949487" lon="8.935964824628282"><ele>95.0</ele><time>2026-03-22T08:32:59Z</time></trkpt><trkpt lat="44.41465576409319" lon="8.93598726919628"><ele>93.33333333333334</ele><time>2026-03-22T08:33:00Z</time></trkpt><trkpt lat="44.41459181022407" lon="8.936058709283909"><ele>91.66666666666667</ele><time>2026-03-22T08:33:02Z</time></trkpt><trkpt lat="44.41452884918665" lon="8.936192476040784"><ele>90.0</ele><time>2026-03-22T08:33:04Z</time></trkpt><trkpt lat="44.41454142108886" lon="8.936293289938927"><ele>88.33333333333333</ele><time>2026-03-22T08:33:06Z</time></trkpt><trkpt lat="44.4145489450246" lon="8.936400836513071"><ele>86.66666666666666</ele><time>2026-03-22T08:33:08Z</time></trkpt><trkpt lat="44.414566875153426" lon="8.936511767689016"><ele>85.0</ele><time>2026-03-22T08:33:10Z</time></trkpt><trkpt lat="44.41458088741997" lon="8.936599567839831"><ele>84.16666666666666</ele><time>2026-03-22T08:33:13Z</time></trkpt><trkpt lat="44.414600854821636" lon="8.936725892209765"><ele>83.33333333333333</ele><time>2026-03-22T08:33:17Z</time></trkpt><trkpt lat="44.414621996099804" lon="8.93681931767961"><ele>82.5</ele><time>2026-03-22T08:33:19Z</time></trkpt><trkpt lat="44.414589688736974" lon="8.936921731229685"><ele>81.66666666666667</ele><time>2026-03-22T08:33:21Z</time></trkpt><trkpt lat="44.4145487534603" lon="8.937081308796925"><ele>80.83333333333334</ele><time>2026-03-22T08:33:23Z</time></trkpt><trkpt lat="44.41453875689054" lon="8.937176000029984"><ele>80.0</ele><time>2026-03-22T08:33:24Z</time></trkpt><trkpt lat="44.414540219223724" lon="8.93727162446844"><ele>80.0</ele><time>2026-03-22T08:33:25Z</time></trkpt><trkpt lat="44.41454059712476" lon="8.937366323029718"><ele>80.0</ele><time>2026-03-22T08:33:26Z</time></trkpt><trkpt lat="44.41453713032136" lon="8.937466398044835"><ele>80.0</ele><time>2026-03-22T08:33:27Z</time></trkpt><trkpt lat="44.414512341434786" lon="8.937607606890099"><ele>80.0</ele><time>2026-03-22T08:33:29Z</time></trkpt><trkpt lat="44.41443067160069" lon="8.937682790204851"><ele>80.0</ele><time>2026-03-22T08:33:31Z</time></trkpt><trkpt lat="44.414296744923675" lon="8.937754426515728"><ele>81.0</ele><time>2026-03-22T08:33:33Z</time></trkpt><trkpt lat="44.41422882411468" lon="8.937748582596106"><ele>82.0</ele><time>2026-03-22T08:33:34Z</time></trkpt><trkpt lat="44.41407623179372" lon="8.937666643419346"><ele>83.0</ele><time>2026-03-22T08:33:36Z</time></trkpt><trkpt lat="44.414003201877904" lon="8.937626421423897"><ele>84.0</ele><time>2026-03-22T08:33:37Z</time></trkpt><trkpt lat="44.41389077789496" lon="8.937585607787945"><ele>85.0</ele><time>2026-03-22T08:33:39Z</time></trkpt><trkpt lat="44.4138051444659" lon="8.93755573595333"><ele>82.8</ele><time>2026-03-22T08:33:40Z</time></trkpt><trkpt lat="44.413716905560854" lon="8.937535394114812"><ele>80.6</ele><time>2026-03-22T08:33:41Z</time></trkpt><trkpt lat="44.41360001882563" lon="8.93747249016337"><ele>78.4</ele><time>2026-03-22T08:33:43Z</time></trkpt><trkpt lat="44.41352609263547" lon="8.937422102009483"><ele>76.2</ele><time>2026-03-22T08:33:44Z</time></trkpt><trkpt lat="44.41344994637706" lon="8.937373401587507"><ele>74.0</ele><time>2026-03-22T08:33:45Z</time></trkpt><trkpt lat="44.41337468438876" lon="8.937310017803787"><ele>74.0</ele><time>2026-03-22T08:33:46Z</time></trkpt><trkpt lat="44.4132467778226" lon="8.937218007237473"><ele>74.0</ele><time>2026-03-22T08:33:48Z</time></trkpt><trkpt lat="44.413176210986556" lon="8.9371947222871"><ele>74.0</ele><time>2026-03-22T08:33:49Z</time></trkpt><trkpt lat="44.41306565792984" lon="8.93714338504294"><ele>74.0</ele><time>2026-03-22T08:33:51Z</time></trkpt><trkpt lat="44.41298137093136" lon="8.937104974985274"><ele>74.0</ele><time>2026-03-22T08:33:52Z</time></trkpt><trkpt lat="44.41288265735238" lon="8.937025966222501"><ele>72.66666666666667</ele><time>2026-03-22T08:33:54Z</time></trkpt><trkpt lat="44.41279890211883" lon="8.936992601518556"><ele>71.33333333333334</ele><time>2026-03-22T08:33:56Z</time></trkpt><trkpt lat="44.41269761175731" lon="8.936975528704881"><ele>70.0</ele><time>2026-03-22T08:33:58Z</time></trkpt><trkpt lat="44.41261345091807" lon="8.93697593842564"><ele>68.66666666666667</ele><time>2026-03-22T08:33:59Z</time></trkpt><trkpt lat="44.41253928231925" lon="8.936981714605194"><ele>67.33333333333333</ele><time>2026-03-22T08:34:00Z</time></trkpt><trkpt lat="44.41245016622941" lon="8.937002958081756"><ele>66.0</ele><time>2026-03-22T08:34:02Z</time></trkpt><trkpt lat="44.412376588812876" lon="8.936990408965357"><ele>66.0</ele><time>2026-03-22T08:34:04Z</time></trkpt><trkpt lat="44.41223922923974" lon="8.93698915899309"><ele>66.0</ele><time>2026-03-22T08:34:06Z</time></trkpt><trkpt lat="44.41216135161298" lon="8.936981711029329"><ele>66.0</ele><time>2026-03-22T08:34:07Z</time></trkpt><trkpt lat="44.41209646616153" lon="8.936970540907794"><ele>66.0</ele><time>2026-03-22T08:34:08Z</time></trkpt><trkpt lat="44.41203211822772" lon="8.936998958992358"><ele>66.0</ele><time>2026-03-22T08:34:09Z</time></trkpt><trkpt lat="44.41192627007307" lon="8.937025501735246"><ele>65.0</ele><time>2026-03-22T08:34:11.001Z</time></trkpt><trkpt lat="44.411851216787696" lon="8.93709066795331"><ele>63.99999999999999</ele><time>2026-03-22T08:34:13.001Z</time></trkpt><trkpt lat="44.411751847587404" lon="8.937145977348585"><ele>62.99999999999999</ele><time>2026-03-22T08:34:15.001Z</time></trkpt><trkpt lat="44.41168375544485" lon="8.937182844349861"><ele>62.0</ele><time>2026-03-22T08:34:16.001Z</time></trkpt><trkpt lat="44.41161510246218" lon="8.937250780105703"><ele>61.0</ele><time>2026-03-22T08:34:17.001Z</time></trkpt><trkpt lat="44.41153390483118" lon="8.937343163300776"><ele>61.0</ele><time>2026-03-22T08:34:18.001Z</time></trkpt><trkpt lat="44.4114463454332" lon="8.937422007628596"><ele>60.99999999999999</ele><time>2026-03-22T08:34:19.001Z</time></trkpt><trkpt lat="44.41136506275885" lon="8.937495201840369"><ele>60.99999999999999</ele><time>2026-03-22T08:34:20Z</time></trkpt><trkpt lat="44.41129398119521" lon="8.937568109229346"><ele>61.0</ele><time>2026-03-22T08:34:21Z</time></trkpt><trkpt lat="44.41121657568227" lon="8.937645674920864"><ele>61.0</ele><time>2026-03-22T08:34:22Z</time></trkpt><trkpt lat="44.41114604126902" lon="8.937657839197486"><ele>58.49999999999999</ele><time>2026-03-22T08:34:23Z</time></trkpt><trkpt lat="44.41107574484804" lon="8.937713732053616"><ele>56.0</ele><time>2026-03-22T08:34:24Z</time></trkpt><trkpt lat="44.41101757896574" lon="8.93776433694445"><ele>53.5</ele><time>2026-03-22T08:34:25Z</time></trkpt><trkpt lat="44.41094783913141" lon="8.937784106664397"><ele>51.0</ele><time>2026-03-22T08:34:26Z</time></trkpt><trkpt lat="44.41086389634632" lon="8.937889303728463"><ele>48.5</ele><time>2026-03-22T08:34:28Z</time></trkpt><trkpt lat="44.410756068772024" lon="8.93791934360821"><ele>46.0</ele><time>2026-03-22T08:34:30Z</time></trkpt><trkpt lat="44.4106575944579" lon="8.937906949328825"><ele>46.0</ele><time>2026-03-22T08:34:32Z</time></trkpt><trkpt lat="44.410593722648755" lon="8.937851715102735"><ele>46.0</ele><time>2026-03-22T08:34:34Z</time></trkpt><trkpt lat="44.410528781768036" lon="8.937862909633916"><ele>46.0</ele><time>2026-03-22T08:34:37Z</time></trkpt><trkpt lat="44.410483350122206" lon="8.93793593780138"><ele>46.0</ele><time>2026-03-22T08:35:46Z</time></trkpt><trkpt lat="44.41042472094858" lon="8.938011545356188"><ele>46.0</ele><time>2026-03-22T08:35:52Z</time></trkpt><trkpt lat="44.41035069465967" lon="8.938068253501257"><ele>46.0</ele><time>2026-03-22T08:35:54Z</time></trkpt><trkpt lat="44.410268313184844" lon="8.938098092633295"><ele>45.4</ele><time>2026-03-22T08:35:56Z</time></trkpt><trkpt lat="44.410148680240326" lon="8.938045174694306"><ele>44.8</ele><time>2026-03-22T08:35:58Z</time></trkpt><trkpt lat="44.41007884242736" lon="8.938011585785468"><ele>44.199999999999996</ele><time>2026-03-22T08:35:59Z</time></trkpt><trkpt lat="44.41003372648736" lon="8.937922035427723"><ele>43.599999999999994</ele><time>2026-03-22T08:36:00Z</time></trkpt><trkpt lat="44.409912902308164" lon="8.937970534739765"><ele>43.0</ele><time>2026-03-22T08:36:02Z</time></trkpt><trkpt lat="44.40984992645349" lon="8.938102210622603"><ele>43.0</ele><time>2026-03-22T08:36:04Z</time></trkpt><trkpt lat="44.40984981040168" lon="8.93820591788692"><ele>43.0</ele><time>2026-03-22T08:36:05Z</time></trkpt><trkpt lat="44.409895800133235" lon="8.938300390640002"><ele>43.0</ele><time>2026-03-22T08:36:06.001Z</time></trkpt><trkpt lat="44.40992719430003" lon="8.938383514957232"><ele>43.0</ele><time>2026-03-22T08:36:07.001Z</time></trkpt><trkpt lat="44.40996856818142" lon="8.938467294990907"><ele>43.0</ele><time>2026-03-22T08:36:08.001Z</time></trkpt><trkpt lat="44.41001380521368" lon="8.938553560982736"><ele>43.0</ele><time>2026-03-22T08:36:09.001Z</time></trkpt><trkpt lat="44.41007458650728" lon="8.938727023885269"><ele>43.0</ele><time>2026-03-22T08:36:11.001Z</time></trkpt><trkpt lat="44.41008547573139" lon="8.93885354173821"><ele>43.0</ele><time>2026-03-22T08:36:12.001Z</time></trkpt><trkpt lat="44.410077497629985" lon="8.938966743140062"><ele>43.0</ele><time>2026-03-22T08:36:13.001Z</time></trkpt><trkpt lat="44.410067244032945" lon="8.939068113616495"><ele>43.0</ele><time>2026-03-22T08:36:14.001Z</time></trkpt><trkpt lat="44.4100582691448" lon="8.93918761490892"><ele>43.0</ele><time>2026-03-22T08:36:15.001Z</time></trkpt><trkpt lat="44.41004928046846" lon="8.939309631490428"><ele>43.0</ele><time>2026-03-22T08:36:16.001Z</time></trkpt><trkpt lat="44.410031507490196" lon="8.93944507022962"><ele>43.0</ele><time>2026-03-22T08:36:17.001Z</time></trkpt><trkpt lat="44.40999368749864" lon="8.939567210312726"><ele>43.0</ele><time>2026-03-22T08:36:18.001Z</time></trkpt><trkpt lat="44.409964674930855" lon="8.93970369270601"><ele>43.0</ele><time>2026-03-22T08:36:19.001Z</time></trkpt><trkpt lat="44.409930889140036" lon="8.939844941401091"><ele>43.0</ele><time>2026-03-22T08:36:20.001Z</time></trkpt><trkpt lat="44.409896961657374" lon="8.939988800421432"><ele>43.0</ele><time>2026-03-22T08:36:21.001Z</time></trkpt><trkpt lat="44.40987611634942" lon="8.940123228946403"><ele>43.0</ele><time>2026-03-22T08:36:22.001Z</time></trkpt><trkpt lat="44.40985279953999" lon="8.940264502383702"><ele>43.0</ele><time>2026-03-22T08:36:23.001Z</time></trkpt><trkpt lat="44.409818530354805" lon="8.940391036905648"><ele>43.0</ele><time>2026-03-22T08:36:24.001Z</time></trkpt><trkpt lat="44.40978944367664" lon="8.940514316441456"><ele>43.0</ele><time>2026-03-22T08:36:25.001Z</time></trkpt><trkpt lat="44.4097531160201" lon="8.94062735822931"><ele>43.0</ele><time>2026-03-22T08:36:26Z</time></trkpt><trkpt lat="44.40976519138105" lon="8.9407539832846"><ele>43.0</ele><time>2026-03-22T08:36:27Z</time></trkpt><trkpt lat="44.409742172219026" lon="8.940861494981334"><ele>43.0</ele><time>2026-03-22T08:36:28Z</time></trkpt><trkpt lat="44.40971401530503" lon="8.94098496607141"><ele>43.0</ele><time>2026-03-22T08:36:29Z</time></trkpt><trkpt lat="44.40968419386207" lon="8.941110151833668"><ele>43.0</ele><time>2026-03-22T08:36:30Z</time></trkpt><trkpt lat="44.40964579443667" lon="8.941216125866026"><ele>43.0</ele><time>2026-03-22T08:36:31Z</time></trkpt><trkpt lat="44.40962270846743" lon="8.941334859436763"><ele>43.0</ele><time>2026-03-22T08:36:32Z</time></trkpt><trkpt lat="44.409618985319085" lon="8.941455157373007"><ele>40.66666666666667</ele><time>2026-03-22T08:36:33Z</time></trkpt><trkpt lat="44.40958896885767" lon="8.941587603780805"><ele>38.333333333333336</ele><time>2026-03-22T08:36:34Z</time></trkpt><trkpt lat="44.409551330375606" lon="8.941700151953578"><ele>36.0</ele><time>2026-03-22T08:36:35Z</time></trkpt><trkpt lat="44.409521091771516" lon="8.941804094201448"><ele>33.666666666666664</ele><time>2026-03-22T08:36:36Z</time></trkpt><trkpt lat="44.409492735501615" lon="8.941904438245238"><ele>31.333333333333332</ele><time>2026-03-22T08:36:37Z</time></trkpt><trkpt lat="44.409455251967024" lon="8.942009839232904"><ele>29.0</ele><time>2026-03-22T08:36:38Z</time></trkpt><trkpt lat="44.40942364624274" lon="8.94211566811977"><ele>28.2</ele><time>2026-03-22T08:36:39Z</time></trkpt><trkpt lat="44.40939666223623" lon="8.94224439447266"><ele>27.4</ele><time>2026-03-22T08:36:40Z</time></trkpt><trkpt lat="44.40936245449567" lon="8.942375472019672"><ele>26.6</ele><time>2026-03-22T08:36:41Z</time></trkpt><trkpt lat="44.40933316221061" lon="8.942492072314046"><ele>25.8</ele><time>2026-03-22T08:36:42Z</time></trkpt><trkpt lat="44.40931220108998" lon="8.942622642441286"><ele>25.0</ele><time>2026-03-22T08:36:43Z</time></trkpt><trkpt lat="44.40928924742584" lon="8.942725756435555"><ele>25.000000000000004</ele><time>2026-03-22T08:36:44Z</time></trkpt><trkpt lat="44.409268481911404" lon="8.942833309895246"><ele>25.0</ele><time>2026-03-22T08:36:45Z</time></trkpt><trkpt lat="44.40923067594779" lon="8.942907562100082"><ele>25.0</ele><time>2026-03-22T08:36:46Z</time></trkpt><trkpt lat="44.409204158685924" lon="8.943012666942339"><ele>25.0</ele><time>2026-03-22T08:36:47Z</time></trkpt><trkpt lat="44.40917634279063" lon="8.943109229231116"><ele>25.000000000000004</ele><time>2026-03-22T08:36:48Z</time></trkpt><trkpt lat="44.40914163689491" lon="8.943260165182915"><ele>25.0</ele><time>2026-03-22T08:36:50Z</time></trkpt><trkpt lat="44.409111277509375" lon="8.943380325381833"><ele>23.8</ele><time>2026-03-22T08:36:52Z</time></trkpt><trkpt lat="44.40907315254192" lon="8.943475034564232"><ele>22.6</ele><time>2026-03-22T08:36:55Z</time></trkpt><trkpt lat="44.40896094292957" lon="8.943731116737736"><ele>21.4</ele><time>2026-03-22T08:37:28Z</time></trkpt><trkpt lat="44.408928114973435" lon="8.943823163549142"><ele>20.2</ele><time>2026-03-22T08:37:29Z</time></trkpt><trkpt lat="44.40889772892417" lon="8.94392716268961"><ele>19.0</ele><time>2026-03-22T08:37:30Z</time></trkpt><trkpt lat="44.40891725008269" lon="8.944063731650875"><ele>19.0</ele><time>2026-03-22T08:37:31Z</time></trkpt><trkpt lat="44.408882653492064" lon="8.944164112901863"><ele>19.0</ele><time>2026-03-22T08:37:32Z</time></trkpt><trkpt lat="44.408844226039605" lon="8.944281674766065"><ele>19.0</ele><time>2026-03-22T08:37:33Z</time></trkpt><trkpt lat="44.408796981490575" lon="8.944372322325965"><ele>19.0</ele><time>2026-03-22T08:37:34Z</time></trkpt><trkpt lat="44.40867851729684" lon="8.94441096827099"><ele>19.0</ele><time>2026-03-22T08:37:35Z</time></trkpt><trkpt lat="44.408587669605424" lon="8.944475781467023"><ele>18.0</ele><time>2026-03-22T08:37:36Z</time></trkpt><trkpt lat="44.40849982415098" lon="8.94453641106243"><ele>17.0</ele><time>2026-03-22T08:37:37Z</time></trkpt><trkpt lat="44.40840516290272" lon="8.944602669201323"><ele>15.999999999999998</ele><time>2026-03-22T08:37:38Z</time></trkpt><trkpt lat="44.40833238194089" lon="8.944653599463017"><ele>15.0</ele><time>2026-03-22T08:37:39Z</time></trkpt><trkpt lat="44.40823564407994" lon="8.944721950033129"><ele>14.0</ele><time>2026-03-22T08:37:40Z</time></trkpt><trkpt lat="44.40814234793426" lon="8.944787883084024"><ele>14.000000000000002</ele><time>2026-03-22T08:37:41Z</time></trkpt><trkpt lat="44.40806109753511" lon="8.944845303329773"><ele>14.0</ele><time>2026-03-22T08:37:42Z</time></trkpt><trkpt lat="44.40799055266627" lon="8.944894641921596"><ele>14.0</ele><time>2026-03-22T08:37:43Z</time></trkpt><trkpt lat="44.40792838011727" lon="8.944937899693755"><ele>14.0</ele><time>2026-03-22T08:37:44Z</time></trkpt><trkpt lat="44.407867621892365" lon="8.944963052198402"><ele>14.000000000000002</ele><time>2026-03-22T08:37:45Z</time></trkpt><trkpt lat="44.40780831602468" lon="8.945000634978793"><ele>14.0</ele><time>2026-03-22T08:37:46Z</time></trkpt><trkpt lat="44.40771879360605" lon="8.945074730680334"><ele>13.666666666666668</ele><time>2026-03-22T08:37:48Z</time></trkpt><trkpt lat="44.407650540880724" lon="8.945137284841268"><ele>13.333333333333334</ele><time>2026-03-22T08:37:50Z</time></trkpt><trkpt lat="44.40758297271276" lon="8.945137183381918"><ele>13.0</ele><time>2026-03-22T08:38:05Z</time></trkpt><trkpt lat="44.40749098444459" lon="8.945179451138793"><ele>12.666666666666668</ele><time>2026-03-22T08:38:12Z</time></trkpt><trkpt lat="44.40740058579509" lon="8.945226413662182"><ele>12.333333333333334</ele><time>2026-03-22T08:38:14Z</time></trkpt><trkpt lat="44.40734653461237" lon="8.945309823781331"><ele>12.0</ele><time>2026-03-22T08:38:15Z</time></trkpt><trkpt lat="44.407236765445894" lon="8.94538514432276"><ele>12.0</ele><time>2026-03-22T08:38:17Z</time></trkpt><trkpt lat="44.4071782444132" lon="8.945424774627218"><ele>12.0</ele><time>2026-03-22T08:38:18Z</time></trkpt><trkpt lat="44.40709222912716" lon="8.945507842150704"><ele>12.0</ele><time>2026-03-22T08:38:20Z</time></trkpt><trkpt lat="44.40701516608071" lon="8.94556275398638"><ele>12.0</ele><time>2026-03-22T08:38:22Z</time></trkpt><trkpt lat="44.40694564810901" lon="8.945610054196578"><ele>12.0</ele><time>2026-03-22T08:38:24Z</time></trkpt><trkpt lat="44.40674182265996" lon="8.945640413566197"><ele>12.0</ele><time>2026-03-22T08:39:03Z</time></trkpt><trkpt lat="44.40667636797443" lon="8.945724193111536"><ele>12.0</ele><time>2026-03-22T08:39:04Z</time></trkpt><trkpt lat="44.406612103632426" lon="8.945809455550027"><ele>12.0</ele><time>2026-03-22T08:39:05Z</time></trkpt><trkpt lat="44.40654787267709" lon="8.945890992311941"><ele>12.0</ele><time>2026-03-22T08:39:06Z</time></trkpt><trkpt lat="44.406492373599846" lon="8.945965056285509"><ele>12.0</ele><time>2026-03-22T08:39:07Z</time></trkpt><trkpt lat="44.40643025127654" lon="8.946046634786681"><ele>12.0</ele><time>2026-03-22T08:39:08Z</time></trkpt><trkpt lat="44.40637188663097" lon="8.946121368130534"><ele>11.333333333333334</ele><time>2026-03-22T08:39:09Z</time></trkpt><trkpt lat="44.406322648750034" lon="8.946194212771132"><ele>10.666666666666666</ele><time>2026-03-22T08:39:10Z</time></trkpt><trkpt lat="44.40627202678454" lon="8.946269538174615"><ele>10.0</ele><time>2026-03-22T08:39:11Z</time></trkpt><trkpt lat="44.40622561193672" lon="8.946344042129548"><ele>9.333333333333332</ele><time>2026-03-22T08:39:12Z</time></trkpt><trkpt lat="44.406182039805756" lon="8.946419125911417"><ele>8.666666666666666</ele><time>2026-03-22T08:39:13Z</time></trkpt><trkpt lat="44.40614263183182" lon="8.946494779260389"><ele>8.0</ele><time>2026-03-22T08:39:14Z</time></trkpt><trkpt lat="44.4060779690797" lon="8.946643385546729"><ele>8.142857142857142</ele><time>2026-03-22T08:39:16Z</time></trkpt><trkpt lat="44.40604500217853" lon="8.94672819935416"><ele>8.285714285714285</ele><time>2026-03-22T08:39:17Z</time></trkpt><trkpt lat="44.406013115792135" lon="8.946829789548572"><ele>8.428571428571429</ele><time>2026-03-22T08:39:18Z</time></trkpt><trkpt lat="44.40598189287571" lon="8.946933882227512"><ele>8.571428571428571</ele><time>2026-03-22T08:39:19Z</time></trkpt><trkpt lat="44.40595165086049" lon="8.947020827385607"><ele>8.714285714285715</ele><time>2026-03-22T08:39:20Z</time></trkpt><trkpt lat="44.40591993180901" lon="8.947098137064819"><ele>8.857142857142858</ele><time>2026-03-22T08:39:21Z</time></trkpt><trkpt lat="44.40587961519331" lon="8.947175504222955"><ele>9.0</ele><time>2026-03-22T08:39:22Z</time></trkpt><trkpt lat="44.40582928049506" lon="8.947309873803881"><ele>9.0</ele><time>2026-03-22T08:39:24Z</time></trkpt><trkpt lat="44.40579068680547" lon="8.947402873342853"><ele>9.0</ele><time>2026-03-22T08:39:26Z</time></trkpt><trkpt lat="44.405706951815155" lon="8.947489461246482"><ele>9.0</ele><time>2026-03-22T08:39:29Z</time></trkpt><trkpt lat="44.40562398928892" lon="8.947618266484483"><ele>9.0</ele><time>2026-03-22T08:39:31Z</time></trkpt><trkpt lat="44.40555248189823" lon="8.947718063284524"><ele>9.0</ele><time>2026-03-22T08:39:32Z</time></trkpt><trkpt lat="44.405507312527654" lon="8.947814086027668"><ele>9.166666666666666</ele><time>2026-03-22T08:39:33Z</time></trkpt><trkpt lat="44.405454228513584" lon="8.947901609742601"><ele>9.333333333333334</ele><time>2026-03-22T08:39:34Z</time></trkpt><trkpt lat="44.405399343766845" lon="8.947998567261566"><ele>9.5</ele><time>2026-03-22T08:39:35Z</time></trkpt><trkpt lat="44.405355987217035" lon="8.948100310213357"><ele>9.666666666666668</ele><time>2026-03-22T08:39:36Z</time></trkpt><trkpt lat="44.405323585319415" lon="8.94819833725257"><ele>9.833333333333334</ele><time>2026-03-22T08:39:37Z</time></trkpt><trkpt lat="44.40529212426758" lon="8.948302024795831"><ele>10.0</ele><time>2026-03-22T08:39:38Z</time></trkpt><trkpt lat="44.40526390017726" lon="8.948420783797228"><ele>10.6</ele><time>2026-03-22T08:39:39Z</time></trkpt><trkpt lat="44.40523388738303" lon="8.948528435910607"><ele>11.2</ele><time>2026-03-22T08:39:40Z</time></trkpt><trkpt lat="44.405198521422044" lon="8.948654595932028"><ele>11.8</ele><time>2026-03-22T08:39:41Z</time></trkpt><trkpt lat="44.405166383557685" lon="8.948780939399136"><ele>12.4</ele><time>2026-03-22T08:39:42Z</time></trkpt><trkpt lat="44.40513881057122" lon="8.948908437934586"><ele>13.0</ele><time>2026-03-22T08:39:43Z</time></trkpt><trkpt lat="44.40511897870906" lon="8.949033657034885"><ele>13.0</ele><time>2026-03-22T08:39:44Z</time></trkpt><trkpt lat="44.40507914555888" lon="8.94914292344005"><ele>13.0</ele><time>2026-03-22T08:39:45Z</time></trkpt><trkpt lat="44.40504990874846" lon="8.949260164519375"><ele>13.0</ele><time>2026-03-22T08:39:46Z</time></trkpt><trkpt lat="44.40500880702359" lon="8.949386674861769"><ele>13.0</ele><time>2026-03-22T08:39:47Z</time></trkpt><trkpt lat="44.40497219969819" lon="8.949529444297252"><ele>13.0</ele><time>2026-03-22T08:39:48Z</time></trkpt><trkpt lat="44.40493493164754" lon="8.949662428953873"><ele>12.4</ele><time>2026-03-22T08:39:49Z</time></trkpt><trkpt lat="44.404899270007554" lon="8.949791808146978"><ele>11.8</ele><time>2026-03-22T08:39:50Z</time></trkpt><trkpt lat="44.404872740558226" lon="8.949912161642608"><ele>11.2</ele><time>2026-03-22T08:39:51Z</time></trkpt><trkpt lat="44.40483678435099" lon="8.950028974508795"><ele>10.6</ele><time>2026-03-22T08:39:52Z</time></trkpt><trkpt lat="44.4048164712092" lon="8.950161714173055"><ele>10.0</ele><time>2026-03-22T08:39:53Z</time></trkpt><trkpt lat="44.4047679488225" lon="8.950266878578562"><ele>10.0</ele><time>2026-03-22T08:39:54Z</time></trkpt><trkpt lat="44.404738074229094" lon="8.950386001098838"><ele>10.0</ele><time>2026-03-22T08:39:55Z</time></trkpt><trkpt lat="44.404710142580356" lon="8.950499071632853"><ele>10.0</ele><time>2026-03-22T08:39:56Z</time></trkpt><trkpt lat="44.40470997358583" lon="8.950645002726699"><ele>10.0</ele><time>2026-03-22T08:39:57Z</time></trkpt><trkpt lat="44.40467038481237" lon="8.950744076241415"><ele>10.0</ele><time>2026-03-22T08:39:58Z</time></trkpt><trkpt lat="44.4046455092647" lon="8.950853627490417"><ele>10.0</ele><time>2026-03-22T08:39:59Z</time></trkpt><trkpt lat="44.40461269328304" lon="8.950946630436306"><ele>10.833333333333334</ele><time>2026-03-22T08:40:00Z</time></trkpt><trkpt lat="44.40458340847422" lon="8.951031537581994"><ele>11.666666666666668</ele><time>2026-03-22T08:40:01Z</time></trkpt><trkpt lat="44.40455668000472" lon="8.951183340322787"><ele>12.5</ele><time>2026-03-22T08:40:03Z</time></trkpt><trkpt lat="44.40452863217914" lon="8.951342316722698"><ele>13.333333333333334</ele><time>2026-03-22T08:40:05Z</time></trkpt><trkpt lat="44.404497426281274" lon="8.951435936054951"><ele>14.166666666666666</ele><time>2026-03-22T08:40:07Z</time></trkpt><trkpt lat="44.40444364573191" lon="8.951483407389876"><ele>15.0</ele><time>2026-03-22T08:40:43Z</time></trkpt><trkpt lat="44.40435836966531" lon="8.951442911471048"><ele>15.0</ele><time>2026-03-22T08:40:55Z</time></trkpt><trkpt lat="44.404345940120685" lon="8.951543034187916"><ele>15.0</ele><time>2026-03-22T08:40:59Z</time></trkpt><trkpt lat="44.40433630933509" lon="8.951698391380525"><ele>15.0</ele><time>2026-03-22T08:41:01Z</time></trkpt><trkpt lat="44.404338604372" lon="8.951905456269527"><ele>15.0</ele><time>2026-03-22T08:41:03Z</time></trkpt><trkpt lat="44.404295241344336" lon="8.952078656864847"><ele>15.0</ele><time>2026-03-22T08:41:05Z</time></trkpt><trkpt lat="44.40427006112501" lon="8.952179242385203"><ele>15.0</ele><time>2026-03-22T08:41:06Z</time></trkpt><trkpt lat="44.4042454791973" lon="8.952277437758113"><ele>15.0</ele><time>2026-03-22T08:41:07Z</time></trkpt><trkpt lat="44.40421817028199" lon="8.952389607337667"><ele>15.0</ele><time>2026-03-22T08:41:08Z</time></trkpt><trkpt lat="44.40419162683337" lon="8.952499751998028"><ele>15.0</ele><time>2026-03-22T08:41:09Z</time></trkpt><trkpt lat="44.40416366934691" lon="8.952615340180987"><ele>15.0</ele><time>2026-03-22T08:41:10Z</time></trkpt><trkpt lat="44.40413464750908" lon="8.952735286324739"><ele>15.0</ele><time>2026-03-22T08:41:11Z</time></trkpt><trkpt lat="44.40410411123472" lon="8.952861491772506"><ele>15.0</ele><time>2026-03-22T08:41:12Z</time></trkpt><trkpt lat="44.40407638301152" lon="8.952976091210918"><ele>15.0</ele><time>2026-03-22T08:41:13Z</time></trkpt><trkpt lat="44.404033739761786" lon="8.953110030504956"><ele>15.0</ele><time>2026-03-22T08:41:14Z</time></trkpt><trkpt lat="44.40400906216388" lon="8.953258753772998"><ele>15.0</ele><time>2026-03-22T08:41:15Z</time></trkpt><trkpt lat="44.40397885500913" lon="8.9533865427305"><ele>15.4</ele><time>2026-03-22T08:41:16Z</time></trkpt><trkpt lat="44.40394431840272" lon="8.953522400639502"><ele>15.8</ele><time>2026-03-22T08:41:17Z</time></trkpt><trkpt lat="44.403911115706016" lon="8.95364674961146"><ele>16.2</ele><time>2026-03-22T08:41:18Z</time></trkpt><trkpt lat="44.403891626473815" lon="8.95376859725828"><ele>16.6</ele><time>2026-03-22T08:41:19Z</time></trkpt><trkpt lat="44.40386666941655" lon="8.95389382057024"><ele>17.0</ele><time>2026-03-22T08:41:20Z</time></trkpt><trkpt lat="44.4038445890126" lon="8.953999406660682"><ele>17.0</ele><time>2026-03-22T08:41:21Z</time></trkpt><trkpt lat="44.40383782568562" lon="8.954096464046714"><ele>17.0</ele><time>2026-03-22T08:41:22Z</time></trkpt><trkpt lat="44.403854096838835" lon="8.954190815808444"><ele>17.0</ele><time>2026-03-22T08:41:23Z</time></trkpt><trkpt lat="44.403878844223804" lon="8.954287843758168"><ele>17.0</ele><time>2026-03-22T08:41:24Z</time></trkpt><trkpt lat="44.403899613888655" lon="8.954401548239446"><ele>17.0</ele><time>2026-03-22T08:41:25Z</time></trkpt><trkpt lat="44.403919751744404" lon="8.954523094012503"><ele>17.0</ele><time>2026-03-22T08:41:26Z</time></trkpt><trkpt lat="44.40393261291593" lon="8.954658979143119"><ele>17.166666666666668</ele><time>2026-03-22T08:41:27Z</time></trkpt><trkpt lat="44.40390245258336" lon="8.954775115508516"><ele>17.333333333333336</ele><time>2026-03-22T08:41:28Z</time></trkpt><trkpt lat="44.40389349943927" lon="8.954889858843588"><ele>17.5</ele><time>2026-03-22T08:41:29Z</time></trkpt><trkpt lat="44.40386877590033" lon="8.95499533453408"><ele>17.666666666666668</ele><time>2026-03-22T08:41:30Z</time></trkpt><trkpt lat="44.403848754312776" lon="8.955116029771611"><ele>17.833333333333332</ele><time>2026-03-22T08:41:31Z</time></trkpt><trkpt lat="44.40381823164705" lon="8.9552473101826"><ele>18.0</ele><time>2026-03-22T08:41:32Z</time></trkpt><trkpt lat="44.40378376018734" lon="8.955377147136021"><ele>18.5</ele><time>2026-03-22T08:41:33Z</time></trkpt><trkpt lat="44.40375582090219" lon="8.955505086164639"><ele>19.0</ele><time>2026-03-22T08:41:34Z</time></trkpt><trkpt lat="44.40372636284606" lon="8.955619606093272"><ele>19.5</ele><time>2026-03-22T08:41:35Z</time></trkpt><trkpt lat="44.40368860055957" lon="8.955710877856923"><ele>20.0</ele><time>2026-03-22T08:41:36Z</time></trkpt><trkpt lat="44.403700654190885" lon="8.955801610644206"><ele>20.5</ele><time>2026-03-22T08:41:37Z</time></trkpt><trkpt lat="44.40367127043705" lon="8.955909035705574"><ele>21.0</ele><time>2026-03-22T08:41:38Z</time></trkpt><trkpt lat="44.403627132553495" lon="8.955986393318476"><ele>21.6</ele><time>2026-03-22T08:41:39Z</time></trkpt><trkpt lat="44.403583008920094" lon="8.956058948780523"><ele>22.200000000000003</ele><time>2026-03-22T08:41:40Z</time></trkpt><trkpt lat="44.40369424438667" lon="8.956233440212744"><ele>22.799999999999997</ele><time>2026-03-22T08:41:43Z</time></trkpt><trkpt lat="44.40375196504749" lon="8.956333038238181"><ele>23.4</ele><time>2026-03-22T08:41:44Z</time></trkpt><trkpt lat="44.40381860856686" lon="8.956426006967284"><ele>24.0</ele><time>2026-03-22T08:41:45Z</time></trkpt><trkpt lat="44.4038926444027" lon="8.956557800636743"><ele>24.0</ele><time>2026-03-22T08:41:46Z</time></trkpt><trkpt lat="44.40396923917523" lon="8.956672744671298"><ele>24.0</ele><time>2026-03-22T08:41:47Z</time></trkpt><trkpt lat="44.4040297879607" lon="8.956798389148004"><ele>24.0</ele><time>2026-03-22T08:41:48Z</time></trkpt><trkpt lat="44.404093091509836" lon="8.956910616697284"><ele>24.0</ele><time>2026-03-22T08:41:49Z</time></trkpt><trkpt lat="44.40419502305801" lon="8.957019747629356"><ele>26.0</ele><time>2026-03-22T08:41:50Z</time></trkpt><trkpt lat="44.40427574491442" lon="8.957151250161433"><ele>28.0</ele><time>2026-03-22T08:41:51Z</time></trkpt><trkpt lat="44.40436097591593" lon="8.957280326692906"><ele>30.0</ele><time>2026-03-22T08:41:52Z</time></trkpt><trkpt lat="44.40443725322128" lon="8.957381954125792"><ele>32.0</ele><time>2026-03-22T08:41:53Z</time></trkpt><trkpt lat="44.40450681623234" lon="8.957491815148718"><ele>32.5</ele><time>2026-03-22T08:41:54Z</time></trkpt><trkpt lat="44.40456249600245" lon="8.957587838160881"><ele>33.0</ele><time>2026-03-22T08:41:55Z</time></trkpt><trkpt lat="44.404613616365964" lon="8.957689375613667"><ele>33.5</ele><time>2026-03-22T08:41:56Z</time></trkpt><trkpt lat="44.404632994839965" lon="8.957807288036673"><ele>34.0</ele><time>2026-03-22T08:41:57Z</time></trkpt><trkpt lat="44.40464846975917" lon="8.95790771687435"><ele>34.5</ele><time>2026-03-22T08:41:58Z</time></trkpt><trkpt lat="44.404646959484076" lon="8.958010120456057"><ele>35.0</ele><time>2026-03-22T08:41:59Z</time></trkpt><trkpt lat="44.404640521409064" lon="8.958142709871966"><ele>35.0</ele><time>2026-03-22T08:42:00Z</time></trkpt><trkpt lat="44.40463091108128" lon="8.958282865897653"><ele>35.0</ele><time>2026-03-22T08:42:01Z</time></trkpt><trkpt lat="44.40462523236182" lon="8.95842069280749"><ele>35.0</ele><time>2026-03-22T08:42:02Z</time></trkpt><trkpt lat="44.40461707201173" lon="8.95857547913929"><ele>35.0</ele><time>2026-03-22T08:42:03Z</time></trkpt><trkpt lat="44.404620789033885" lon="8.95874564651219"><ele>35.0</ele><time>2026-03-22T08:42:04Z</time></trkpt><trkpt lat="44.40461291338388" lon="8.95890908618246"><ele>35.25</ele><time>2026-03-22T08:42:05Z</time></trkpt><trkpt lat="44.40460879889801" lon="8.95908712544715"><ele>35.5</ele><time>2026-03-22T08:42:06Z</time></trkpt><trkpt lat="44.40460184141498" lon="8.959242857489816"><ele>35.75</ele><time>2026-03-22T08:42:07Z</time></trkpt><trkpt lat="44.40459867259629" lon="8.959398823248227"><ele>36.0</ele><time>2026-03-22T08:42:08Z</time></trkpt><trkpt lat="44.40459406434129" lon="8.959546060040092"><ele>36.25</ele><time>2026-03-22T08:42:09Z</time></trkpt><trkpt lat="44.40459190117222" lon="8.959698001476733"><ele>36.5</ele><time>2026-03-22T08:42:10Z</time></trkpt><trkpt lat="44.404589163099665" lon="8.959851356331017"><ele>36.75</ele><time>2026-03-22T08:42:11Z</time></trkpt><trkpt lat="44.40458017578576" lon="8.96001375525758"><ele>37.0</ele><time>2026-03-22T08:42:12Z</time></trkpt><trkpt lat="44.40457173163403" lon="8.960184286409511"><ele>39.5</ele><time>2026-03-22T08:42:13Z</time></trkpt><trkpt lat="44.404572579109605" lon="8.960372397705541"><ele>42.0</ele><time>2026-03-22T08:42:14Z</time></trkpt><trkpt lat="44.40456886876498" lon="8.960559975491462"><ele>44.5</ele><time>2026-03-22T08:42:15Z</time></trkpt><trkpt lat="44.40456466035268" lon="8.960730166516642"><ele>47.0</ele><time>2026-03-22T08:42:16Z</time></trkpt><trkpt lat="44.40456061102145" lon="8.96089220715687"><ele>47.400000000000006</ele><time>2026-03-22T08:42:17Z</time></trkpt><trkpt lat="44.40455334450836" lon="8.961025695943041"><ele>47.800000000000004</ele><time>2026-03-22T08:42:18Z</time></trkpt><trkpt lat="44.4045538479207" lon="8.961173069943737"><ele>48.2</ele><time>2026-03-22T08:42:19Z</time></trkpt><trkpt lat="44.404553886621116" lon="8.961318889401403"><ele>48.6</ele><time>2026-03-22T08:42:20Z</time></trkpt><trkpt lat="44.4045474146436" lon="8.961455128814283"><ele>49.0</ele><time>2026-03-22T08:42:21Z</time></trkpt><trkpt lat="44.404547245490186" lon="8.96160215291993"><ele>48.800000000000004</ele><time>2026-03-22T08:42:22Z</time></trkpt><trkpt lat="44.40454542029614" lon="8.961742493030968"><ele>48.6</ele><time>2026-03-22T08:42:23Z</time></trkpt><trkpt lat="44.40454215118437" lon="8.96188962107274"><ele>48.4</ele><time>2026-03-22T08:42:24Z</time></trkpt><trkpt lat="44.40452730585879" lon="8.962027045326654"><ele>48.2</ele><time>2026-03-22T08:42:25Z</time></trkpt><trkpt lat="44.40452433040319" lon="8.962166493823535"><ele>48.0</ele><time>2026-03-22T08:42:26Z</time></trkpt><trkpt lat="44.40452154897423" lon="8.962304175285896"><ele>48.0</ele><time>2026-03-22T08:42:27Z</time></trkpt><trkpt lat="44.404519188299616" lon="8.962444476715142"><ele>48.0</ele><time>2026-03-22T08:42:28Z</time></trkpt><trkpt lat="44.404518392786564" lon="8.962578157856274"><ele>48.0</ele><time>2026-03-22T08:42:29Z</time></trkpt><trkpt lat="44.404515813276895" lon="8.962707728417303"><ele>48.0</ele><time>2026-03-22T08:42:30Z</time></trkpt><trkpt lat="44.40451466599118" lon="8.962832812056945"><ele>48.0</ele><time>2026-03-22T08:42:31Z</time></trkpt><trkpt lat="44.404509727781374" lon="8.962964368742997"><ele>48.4</ele><time>2026-03-22T08:42:32Z</time></trkpt><trkpt lat="44.40450434065335" lon="8.9630942527047"><ele>48.8</ele><time>2026-03-22T08:42:33Z</time></trkpt><trkpt lat="44.40450606715348" lon="8.963226037366793"><ele>49.2</ele><time>2026-03-22T08:42:34Z</time></trkpt><trkpt lat="44.4044995470404" lon="8.96335366134837"><ele>49.6</ele><time>2026-03-22T08:42:35Z</time></trkpt><trkpt lat="44.40449752721039" lon="8.963484121340267"><ele>50.0</ele><time>2026-03-22T08:42:36Z</time></trkpt><trkpt lat="44.404494743148966" lon="8.963596734150512"><ele>50.00000000000001</ele><time>2026-03-22T08:42:37Z</time></trkpt><trkpt lat="44.404494654764015" lon="8.963704771142973"><ele>50.0</ele><time>2026-03-22T08:42:38Z</time></trkpt><trkpt lat="44.404494575060596" lon="8.963805954845247"><ele>50.0</ele><time>2026-03-22T08:42:39Z</time></trkpt><trkpt lat="44.40449226784065" lon="8.96389478824745"><ele>50.0</ele><time>2026-03-22T08:42:40Z</time></trkpt><trkpt lat="44.40449043906747" lon="8.964040939024677"><ele>50.00000000000001</ele><time>2026-03-22T08:42:42Z</time></trkpt><trkpt lat="44.40449765041958" lon="8.964146660632604"><ele>50.0</ele><time>2026-03-22T08:42:44Z</time></trkpt><trkpt lat="44.40448805460888" lon="8.964247180748158"><ele>51.0</ele><time>2026-03-22T08:42:58Z</time></trkpt><trkpt lat="44.40448421106522" lon="8.964366436369087"><ele>52.0</ele><time>2026-03-22T08:43:00Z</time></trkpt><trkpt lat="44.40448817838297" lon="8.964519855531437"><ele>53.0</ele><time>2026-03-22T08:43:02Z</time></trkpt><trkpt lat="44.40451202405477" lon="8.964674810297119"><ele>54.0</ele><time>2026-03-22T08:43:04Z</time></trkpt><trkpt lat="44.404519991765085" lon="8.964773501765018"><ele>55.0</ele><time>2026-03-22T08:43:05Z</time></trkpt><trkpt lat="44.40449983958725" lon="8.964869849491766"><ele>54.99999999999999</ele><time>2026-03-22T08:43:06Z</time></trkpt><trkpt lat="44.404494322210084" lon="8.964996057933071"><ele>55.0</ele><time>2026-03-22T08:43:07Z</time></trkpt><trkpt lat="44.404471411530615" lon="8.965106484983323"><ele>55.0</ele><time>2026-03-22T08:43:08Z</time></trkpt><trkpt lat="44.40448934602203" lon="8.965219645384245"><ele>55.0</ele><time>2026-03-22T08:43:09Z</time></trkpt><trkpt lat="44.40449092054229" lon="8.965340049097055"><ele>54.99999999999999</ele><time>2026-03-22T08:43:10Z</time></trkpt><trkpt lat="44.40449791089034" lon="8.965461388729572"><ele>55.0</ele><time>2026-03-22T08:43:11Z</time></trkpt><trkpt lat="44.404508568056656" lon="8.965577279582458"><ele>55.2</ele><time>2026-03-22T08:43:12Z</time></trkpt><trkpt lat="44.40452840261525" lon="8.9657074827196"><ele>55.4</ele><time>2026-03-22T08:43:13Z</time></trkpt><trkpt lat="44.404547380642036" lon="8.965831923524789"><ele>55.599999999999994</ele><time>2026-03-22T08:43:14Z</time></trkpt><trkpt lat="44.40457559391805" lon="8.96597120898622"><ele>55.8</ele><time>2026-03-22T08:43:15Z</time></trkpt><trkpt lat="44.404602909683696" lon="8.966079067491831"><ele>56.0</ele><time>2026-03-22T08:43:16Z</time></trkpt><trkpt lat="44.4046399709859" lon="8.96621292487528"><ele>55.599999999999994</ele><time>2026-03-22T08:43:17Z</time></trkpt><trkpt lat="44.40467663845413" lon="8.966355889006202"><ele>55.199999999999996</ele><time>2026-03-22T08:43:18Z</time></trkpt><trkpt lat="44.404705339256836" lon="8.966485636199103"><ele>54.800000000000004</ele><time>2026-03-22T08:43:19Z</time></trkpt><trkpt lat="44.404737482121156" lon="8.96661713408396"><ele>54.400000000000006</ele><time>2026-03-22T08:43:20Z</time></trkpt><trkpt lat="44.404765183826136" lon="8.966755078827397"><ele>54.0</ele><time>2026-03-22T08:43:21Z</time></trkpt><trkpt lat="44.40479358916509" lon="8.966891874005888"><ele>54.0</ele><time>2026-03-22T08:43:22Z</time></trkpt><trkpt lat="44.40481930209473" lon="8.967019715124772"><ele>54.00000000000001</ele><time>2026-03-22T08:43:23Z</time></trkpt><trkpt lat="44.40482878876696" lon="8.96714088885601"><ele>54.00000000000001</ele><time>2026-03-22T08:43:24Z</time></trkpt><trkpt lat="44.40483487524911" lon="8.967267412964256"><ele>54.0</ele><time>2026-03-22T08:43:25Z</time></trkpt><trkpt lat="44.40485887858989" lon="8.96738299031979"><ele>54.0</ele><time>2026-03-22T08:43:26Z</time></trkpt><trkpt lat="44.40487880064633" lon="8.967510938398313"><ele>54.400000000000006</ele><time>2026-03-22T08:43:27Z</time></trkpt><trkpt lat="44.404835310948656" lon="8.967649903175817"><ele>54.800000000000004</ele><time>2026-03-22T08:43:28Z</time></trkpt><trkpt lat="44.404829090207556" lon="8.96779768709428"><ele>55.199999999999996</ele><time>2026-03-22T08:43:29Z</time></trkpt><trkpt lat="44.404843548532455" lon="8.967950133706099"><ele>55.599999999999994</ele><time>2026-03-22T08:43:30Z</time></trkpt><trkpt lat="44.40483626661795" lon="8.968077659494206"><ele>56.0</ele><time>2026-03-22T08:43:31Z</time></trkpt><trkpt lat="44.40484003577654" lon="8.968203919409845"><ele>56.0</ele><time>2026-03-22T08:43:32Z</time></trkpt><trkpt lat="44.4048574570334" lon="8.96833660306876"><ele>55.99999999999999</ele><time>2026-03-22T08:43:33Z</time></trkpt><trkpt lat="44.4048733610101" lon="8.968469301437466"><ele>55.99999999999999</ele><time>2026-03-22T08:43:34Z</time></trkpt><trkpt lat="44.40491706071488" lon="8.968607269808565"><ele>56.0</ele><time>2026-03-22T08:43:35Z</time></trkpt><trkpt lat="44.404939643349024" lon="8.968739325556264"><ele>56.0</ele><time>2026-03-22T08:43:36Z</time></trkpt><trkpt lat="44.404985622411616" lon="8.9688570420556"><ele>58.4</ele><time>2026-03-22T08:43:37Z</time></trkpt><trkpt lat="44.40500511726368" lon="8.969007785975613"><ele>60.8</ele><time>2026-03-22T08:43:38Z</time></trkpt><trkpt lat="44.405056997991856" lon="8.969133525410403"><ele>63.199999999999996</ele><time>2026-03-22T08:43:39Z</time></trkpt><trkpt lat="44.40508439728848" lon="8.96927449089914"><ele>65.6</ele><time>2026-03-22T08:43:40Z</time></trkpt><trkpt lat="44.40511964210073" lon="8.969398121018768"><ele>68.0</ele><time>2026-03-22T08:43:41Z</time></trkpt><trkpt lat="44.4051519105687" lon="8.969526319333063"><ele>68.8</ele><time>2026-03-22T08:43:42Z</time></trkpt><trkpt lat="44.40520258800706" lon="8.96965357223157"><ele>69.6</ele><time>2026-03-22T08:43:43Z</time></trkpt><trkpt lat="44.40525987995372" lon="8.969780413730254"><ele>70.4</ele><time>2026-03-22T08:43:44Z</time></trkpt><trkpt lat="44.40529647789042" lon="8.969906977281108"><ele>71.2</ele><time>2026-03-22T08:43:45Z</time></trkpt><trkpt lat="44.405327821385825" lon="8.97003190458999"><ele>72.0</ele><time>2026-03-22T08:43:46Z</time></trkpt><trkpt lat="44.40536044598743" lon="8.97015134426493"><ele>72.0</ele><time>2026-03-22T08:43:47Z</time></trkpt><trkpt lat="44.40540444177088" lon="8.970277788465424"><ele>72.0</ele><time>2026-03-22T08:43:48Z</time></trkpt><trkpt lat="44.40545329937291" lon="8.97039991088756"><ele>72.0</ele><time>2026-03-22T08:43:49Z</time></trkpt><trkpt lat="44.40547281262672" lon="8.97048936973662"><ele>72.0</ele><time>2026-03-22T08:43:50Z</time></trkpt><trkpt lat="44.40552683771145" lon="8.970571036165492"><ele>72.0</ele><time>2026-03-22T08:43:51Z</time></trkpt><trkpt lat="44.40558733707938" lon="8.970663944488305"><ele>72.0</ele><time>2026-03-22T08:43:52Z</time></trkpt><trkpt lat="44.40564990227919" lon="8.970758493235627"><ele>72.2</ele><time>2026-03-22T08:43:53Z</time></trkpt><trkpt lat="44.40571302050134" lon="8.970825782439286"><ele>72.4</ele><time>2026-03-22T08:43:54Z</time></trkpt><trkpt lat="44.40578562577585" lon="8.970902980639849"><ele>72.6</ele><time>2026-03-22T08:43:55Z</time></trkpt><trkpt lat="44.405870760970046" lon="8.970979676940615"><ele>72.8</ele><time>2026-03-22T08:43:56Z</time></trkpt><trkpt lat="44.40595531667871" lon="8.971064353151563"><ele>73.0</ele><time>2026-03-22T08:43:57Z</time></trkpt><trkpt lat="44.40603776978116" lon="8.971163185588342"><ele>73.0</ele><time>2026-03-22T08:43:58Z</time></trkpt><trkpt lat="44.406110027008204" lon="8.971243698499803"><ele>73.0</ele><time>2026-03-22T08:43:59Z</time></trkpt><trkpt lat="44.406175146037704" lon="8.971324417232585"><ele>73.0</ele><time>2026-03-22T08:44:00Z</time></trkpt><trkpt lat="44.40622269176895" lon="8.971403759697804"><ele>73.0</ele><time>2026-03-22T08:44:01Z</time></trkpt><trkpt lat="44.40626957379439" lon="8.97148380978637"><ele>73.0</ele><time>2026-03-22T08:44:02Z</time></trkpt><trkpt lat="44.40629225054195" lon="8.971578870239886"><ele>73.0</ele><time>2026-03-22T08:44:03Z</time></trkpt><trkpt lat="44.406309588049915" lon="8.971677914978493"><ele>75.2</ele><time>2026-03-22T08:44:04Z</time></trkpt><trkpt lat="44.406315565109914" lon="8.971804113539097"><ele>77.4</ele><time>2026-03-22T08:44:05Z</time></trkpt><trkpt lat="44.40629115748179" lon="8.971937703502638"><ele>79.60000000000001</ele><time>2026-03-22T08:44:06Z</time></trkpt><trkpt lat="44.4063036922856" lon="8.972071271709288"><ele>81.8</ele><time>2026-03-22T08:44:07Z</time></trkpt><trkpt lat="44.40630006989052" lon="8.972214142294385"><ele>84.0</ele><time>2026-03-22T08:44:08Z</time></trkpt><trkpt lat="44.40629631966212" lon="8.972335019909346"><ele>84.0</ele><time>2026-03-22T08:44:09Z</time></trkpt><trkpt lat="44.4062899271514" lon="8.97248485116072"><ele>84.0</ele><time>2026-03-22T08:44:10Z</time></trkpt><trkpt lat="44.406265887332985" lon="8.97262376383717"><ele>84.0</ele><time>2026-03-22T08:44:11Z</time></trkpt><trkpt lat="44.40625936459755" lon="8.972767186379947"><ele>84.0</ele><time>2026-03-22T08:44:12Z</time></trkpt><trkpt lat="44.40627557325274" lon="8.972912555437329"><ele>84.0</ele><time>2026-03-22T08:44:13Z</time></trkpt><trkpt lat="44.406269760237095" lon="8.973061539773314"><ele>84.0</ele><time>2026-03-22T08:44:14Z</time></trkpt><trkpt lat="44.40626388071518" lon="8.973199903364838"><ele>84.0</ele><time>2026-03-22T08:44:15Z</time></trkpt><trkpt lat="44.40625970100389" lon="8.973331302123226"><ele>84.0</ele><time>2026-03-22T08:44:16Z</time></trkpt><trkpt lat="44.406243264683994" lon="8.973477411836296"><ele>84.0</ele><time>2026-03-22T08:44:17Z</time></trkpt><trkpt lat="44.40623022488088" lon="8.973599501295451"><ele>84.0</ele><time>2026-03-22T08:44:18Z</time></trkpt><trkpt lat="44.406224721758285" lon="8.973730089773756"><ele>83.83333333333333</ele><time>2026-03-22T08:44:19Z</time></trkpt><trkpt lat="44.40621590415686" lon="8.97385505212409"><ele>83.66666666666667</ele><time>2026-03-22T08:44:20Z</time></trkpt><trkpt lat="44.40620864478078" lon="8.973958263221805"><ele>83.5</ele><time>2026-03-22T08:44:21Z</time></trkpt><trkpt lat="44.406199858353666" lon="8.974062549230664"><ele>83.33333333333334</ele><time>2026-03-22T08:44:22Z</time></trkpt><trkpt lat="44.40615602390616" lon="8.974152309895148"><ele>83.16666666666667</ele><time>2026-03-22T08:44:23Z</time></trkpt><trkpt lat="44.40612248635906" lon="8.974229958170994"><ele>83.0</ele><time>2026-03-22T08:44:24Z</time></trkpt><trkpt lat="44.40605765555735" lon="8.974347177484725"><ele>82.83333333333334</ele><time>2026-03-22T08:44:26Z</time></trkpt><trkpt lat="44.40598738015535" lon="8.97445512390522"><ele>82.66666666666667</ele><time>2026-03-22T08:44:29Z</time></trkpt><trkpt lat="44.40590004295261" lon="8.974564600881799"><ele>82.5</ele><time>2026-03-22T08:44:31Z</time></trkpt><trkpt lat="44.40585837486425" lon="8.974646363745146"><ele>82.33333333333333</ele><time>2026-03-22T08:44:32Z</time></trkpt><trkpt lat="44.40581041396112" lon="8.974715897524094"><ele>82.16666666666666</ele><time>2026-03-22T08:44:33Z</time></trkpt><trkpt lat="44.40578185673617" lon="8.974798509584014"><ele>82.0</ele><time>2026-03-22T08:44:34Z</time></trkpt><trkpt lat="44.40572196402523" lon="8.974873680607898"><ele>82.0</ele><time>2026-03-22T08:44:35Z</time></trkpt><trkpt lat="44.40568180001526" lon="8.974955770775082"><ele>82.0</ele><time>2026-03-22T08:44:36Z</time></trkpt><trkpt lat="44.40562156609337" lon="8.975061290102621"><ele>82.0</ele><time>2026-03-22T08:44:37Z</time></trkpt><trkpt lat="44.40556297029468" lon="8.975162846511168"><ele>82.0</ele><time>2026-03-22T08:44:38Z</time></trkpt><trkpt lat="44.405519696120415" lon="8.975247321319893"><ele>82.0</ele><time>2026-03-22T08:44:39Z</time></trkpt><trkpt lat="44.405472609022375" lon="8.975320173246924"><ele>82.0</ele><time>2026-03-22T08:44:40Z</time></trkpt><trkpt lat="44.405435214174126" lon="8.975393984112733"><ele>82.19999999999999</ele><time>2026-03-22T08:44:41Z</time></trkpt><trkpt lat="44.405384163112515" lon="8.975481808054464"><ele>82.4</ele><time>2026-03-22T08:44:43Z</time></trkpt><trkpt lat="44.40534208767561" lon="8.975558819985894"><ele>82.6</ele><time>2026-03-22T08:44:45Z</time></trkpt><trkpt lat="44.40531295828069" lon="8.975646576651561"><ele>82.80000000000001</ele><time>2026-03-22T08:44:47Z</time></trkpt><trkpt lat="44.405267785165584" lon="8.975717010773234"><ele>83.0</ele><time>2026-03-22T08:44:49Z</time></trkpt><trkpt lat="44.405414767113655" lon="8.975875606490392"><ele>83.0</ele><time>2026-03-22T08:44:53Z</time></trkpt><trkpt lat="44.405478624234775" lon="8.975923598255994"><ele>83.0</ele><time>2026-03-22T08:44:54Z</time></trkpt><trkpt lat="44.40558632440831" lon="8.975998258741768"><ele>83.0</ele><time>2026-03-22T08:44:56Z</time></trkpt><trkpt lat="44.40565033618309" lon="8.976040488749733"><ele>83.0</ele><time>2026-03-22T08:44:57Z</time></trkpt><trkpt lat="44.405713703586684" lon="8.97608307059616"><ele>83.0</ele><time>2026-03-22T08:44:58Z</time></trkpt><trkpt lat="44.40580763366436" lon="8.976146319051844"><ele>83.0</ele><time>2026-03-22T08:45:00Z</time></trkpt><trkpt lat="44.4058529536245" lon="8.976215076382372"><ele>82.4</ele><time>2026-03-22T08:45:04Z</time></trkpt><trkpt lat="44.40601440213486" lon="8.976321596982242"><ele>81.80000000000001</ele><time>2026-03-22T08:45:11Z</time></trkpt><trkpt lat="44.4060780132991" lon="8.97638211256265"><ele>81.2</ele><time>2026-03-22T08:45:12Z</time></trkpt><trkpt lat="44.406146279574756" lon="8.976428377698692"><ele>80.6</ele><time>2026-03-22T08:45:13Z</time></trkpt><trkpt lat="44.406210544875755" lon="8.97654623074377"><ele>80.0</ele><time>2026-03-22T08:45:14Z</time></trkpt><trkpt lat="44.40627615679948" lon="8.97663215736807"><ele>79.0</ele><time>2026-03-22T08:45:15Z</time></trkpt><trkpt lat="44.40634863798709" lon="8.976699476766422"><ele>78.0</ele><time>2026-03-22T08:45:16Z</time></trkpt><trkpt lat="44.406415798640076" lon="8.976759888757393"><ele>77.0</ele><time>2026-03-22T08:45:17Z</time></trkpt><trkpt lat="44.4064627488232" lon="8.976823957065612"><ele>76.0</ele><time>2026-03-22T08:45:18Z</time></trkpt><trkpt lat="44.40652606398641" lon="8.976873178645198"><ele>75.0</ele><time>2026-03-22T08:45:19Z</time></trkpt><trkpt lat="44.406610014200375" lon="8.97692613626865"><ele>74.0</ele><time>2026-03-22T08:45:20Z</time></trkpt><trkpt lat="44.40669506597872" lon="8.976924327236915"><ele>74.0</ele><time>2026-03-22T08:45:21Z</time></trkpt><trkpt lat="44.406785714241764" lon="8.976970591251156"><ele>74.0</ele><time>2026-03-22T08:45:22Z</time></trkpt><trkpt lat="44.406867856748946" lon="8.976992356068363"><ele>74.0</ele><time>2026-03-22T08:45:23Z</time></trkpt><trkpt lat="44.406978941210504" lon="8.97700783473969"><ele>74.0</ele><time>2026-03-22T08:45:24Z</time></trkpt><trkpt lat="44.40707781665045" lon="8.977023029601908"><ele>74.0</ele><time>2026-03-22T08:45:25Z</time></trkpt><trkpt lat="44.407183233941325" lon="8.97704105178166"><ele>74.0</ele><time>2026-03-22T08:45:26Z</time></trkpt><trkpt lat="44.40728175983782" lon="8.977051522695225"><ele>74.0</ele><time>2026-03-22T08:45:27Z</time></trkpt><trkpt lat="44.407383686185156" lon="8.977078894248596"><ele>74.0</ele><time>2026-03-22T08:45:28Z</time></trkpt><trkpt lat="44.40746815312269" lon="8.977096238355166"><ele>74.0</ele><time>2026-03-22T08:45:29Z</time></trkpt><trkpt lat="44.40756738940337" lon="8.977110195953745"><ele>74.0</ele><time>2026-03-22T08:45:30Z</time></trkpt><trkpt lat="44.40767376893134" lon="8.97710237865494"><ele>74.0</ele><time>2026-03-22T08:45:31Z</time></trkpt><trkpt lat="44.40777114098423" lon="8.977100085572427"><ele>74.0</ele><time>2026-03-22T08:45:32Z</time></trkpt><trkpt lat="44.407848703094686" lon="8.977111794531488"><ele>74.0</ele><time>2026-03-22T08:45:33Z</time></trkpt><trkpt lat="44.407942987125594" lon="8.97712779851847"><ele>74.0</ele><time>2026-03-22T08:45:34Z</time></trkpt><trkpt lat="44.40801052926127" lon="8.977108283129253"><ele>74.0</ele><time>2026-03-22T08:45:35Z</time></trkpt><trkpt lat="44.40809990443788" lon="8.9771158483908"><ele>74.0</ele><time>2026-03-22T08:45:37Z</time></trkpt><trkpt lat="44.40820220372717" lon="8.977124923339787"><ele>73.60000000000001</ele><time>2026-03-22T08:45:39Z</time></trkpt><trkpt lat="44.40827396186314" lon="8.977153598797017"><ele>73.2</ele><time>2026-03-22T08:45:41Z</time></trkpt><trkpt lat="44.40827361702706" lon="8.977452681796699"><ele>72.80000000000001</ele><time>2026-03-22T08:45:42Z</time></trkpt><trkpt lat="44.40828608450967" lon="8.977559767645953"><ele>72.4</ele><time>2026-03-22T08:45:43Z</time></trkpt><trkpt lat="44.40830608837825" lon="8.977668760673716"><ele>72.0</ele><time>2026-03-22T08:45:44Z</time></trkpt><trkpt lat="44.40833562496962" lon="8.977787468437372"><ele>72.0</ele><time>2026-03-22T08:45:45Z</time></trkpt><trkpt lat="44.40837470838366" lon="8.977905538877772"><ele>72.0</ele><time>2026-03-22T08:45:46Z</time></trkpt><trkpt lat="44.40841503564554" lon="8.978010694176884"><ele>72.0</ele><time>2026-03-22T08:45:47Z</time></trkpt><trkpt lat="44.40844871528523" lon="8.978103348992807"><ele>72.0</ele><time>2026-03-22T08:45:48Z</time></trkpt><trkpt lat="44.408467952853165" lon="8.978191400188871"><ele>72.0</ele><time>2026-03-22T08:45:49Z</time></trkpt><trkpt lat="44.40846792520067" lon="8.978300634348509"><ele>72.0</ele><time>2026-03-22T08:45:50Z</time></trkpt><trkpt lat="44.408452674078255" lon="8.978387197920918"><ele>73.5</ele><time>2026-03-22T08:45:51Z</time></trkpt><trkpt lat="44.408432670600135" lon="8.978480139551616"><ele>75.0</ele><time>2026-03-22T08:45:52Z</time></trkpt><trkpt lat="44.40839507291748" lon="8.978577062550182"><ele>76.5</ele><time>2026-03-22T08:45:53Z</time></trkpt><trkpt lat="44.408354498726894" lon="8.978646847423978"><ele>78.0</ele><time>2026-03-22T08:45:54Z</time></trkpt><trkpt lat="44.408305065556696" lon="8.978705001687405"><ele>79.5</ele><time>2026-03-22T08:45:55Z</time></trkpt><trkpt lat="44.40818406063366" lon="8.978768342216148"><ele>81.0</ele><time>2026-03-22T08:45:57Z</time></trkpt><trkpt lat="44.40810317675139" lon="8.978811411165305"><ele>81.0</ele><time>2026-03-22T08:45:58Z</time></trkpt><trkpt lat="44.40802033799862" lon="8.978861269857209"><ele>81.0</ele><time>2026-03-22T08:45:59Z</time></trkpt><trkpt lat="44.40793775559947" lon="8.97892438308187"><ele>81.0</ele><time>2026-03-22T08:46:00Z</time></trkpt><trkpt lat="44.40786432721876" lon="8.978993306351123"><ele>81.0</ele><time>2026-03-22T08:46:01Z</time></trkpt><trkpt lat="44.407805380117736" lon="8.979078239315317"><ele>81.0</ele><time>2026-03-22T08:46:02Z</time></trkpt><trkpt lat="44.40774340073418" lon="8.979159989653981"><ele>81.0</ele><time>2026-03-22T08:46:03Z</time></trkpt><trkpt lat="44.40769239791578" lon="8.979266001265886"><ele>79.5</ele><time>2026-03-22T08:46:04Z</time></trkpt><trkpt lat="44.40763270169185" lon="8.979359565083026"><ele>78.0</ele><time>2026-03-22T08:46:05Z</time></trkpt><trkpt lat="44.40760660141895" lon="8.979466168158872"><ele>76.5</ele><time>2026-03-22T08:46:06Z</time></trkpt><trkpt lat="44.40756648183906" lon="8.979556167639814"><ele>75.0</ele><time>2026-03-22T08:46:07Z</time></trkpt><trkpt lat="44.407538648278255" lon="8.979650405836507"><ele>73.5</ele><time>2026-03-22T08:46:08Z</time></trkpt><trkpt lat="44.407513621206675" lon="8.979757062923063"><ele>72.0</ele><time>2026-03-22T08:46:09Z</time></trkpt><trkpt lat="44.40749467126457" lon="8.979874528180254"><ele>72.0</ele><time>2026-03-22T08:46:10Z</time></trkpt><trkpt lat="44.407487123024964" lon="8.979987237962886"><ele>72.0</ele><time>2026-03-22T08:46:11Z</time></trkpt><trkpt lat="44.40748435385616" lon="8.980097065941973"><ele>72.0</ele><time>2026-03-22T08:46:12Z</time></trkpt><trkpt lat="44.40747603382589" lon="8.980198654352584"><ele>72.0</ele><time>2026-03-22T08:46:13Z</time></trkpt><trkpt lat="44.40738101673683" lon="8.98033236125281"><ele>72.0</ele><time>2026-03-22T08:46:15Z</time></trkpt><trkpt lat="44.40732592006354" lon="8.980412230185795"><ele>72.0</ele><time>2026-03-22T08:46:17Z</time></trkpt><trkpt lat="44.40724984579782" lon="8.980435620649766"><ele>71.83333333333333</ele><time>2026-03-22T08:46:19Z</time></trkpt><trkpt lat="44.40715000303704" lon="8.98035425400655"><ele>71.66666666666667</ele><time>2026-03-22T08:46:20Z</time></trkpt><trkpt lat="44.40708659721829" lon="8.980350504336784"><ele>71.5</ele><time>2026-03-22T08:46:21Z</time></trkpt><trkpt lat="44.40699993431841" lon="8.98034570584904"><ele>71.33333333333334</ele><time>2026-03-22T08:46:23Z</time></trkpt><trkpt lat="44.40692546556514" lon="8.980358783907308"><ele>71.16666666666667</ele><time>2026-03-22T08:46:25Z</time></trkpt><trkpt lat="44.406875162081256" lon="8.980414042900184"><ele>71.0</ele><time>2026-03-22T08:46:26Z</time></trkpt><trkpt lat="44.40680917191331" lon="8.980495528943496"><ele>71.0</ele><time>2026-03-22T08:46:28Z</time></trkpt><trkpt lat="44.406765433155925" lon="8.980560174938736"><ele>71.0</ele><time>2026-03-22T08:46:33Z</time></trkpt><trkpt lat="44.40668085112508" lon="8.980536910470265"><ele>71.0</ele><time>2026-03-22T08:46:49Z</time></trkpt><trkpt lat="44.406542729224554" lon="8.980502133459186"><ele>71.0</ele><time>2026-03-22T08:47:16Z</time></trkpt><trkpt lat="44.40649443698864" lon="8.980571941613103"><ele>71.0</ele><time>2026-03-22T08:47:21Z</time></trkpt><trkpt lat="44.40643131445953" lon="8.98066744211973"><ele>71.0</ele><time>2026-03-22T08:47:24Z</time></trkpt><trkpt lat="44.40636161935465" lon="8.980763274185874"><ele>71.0</ele><time>2026-03-22T08:47:26Z</time></trkpt><trkpt lat="44.406311330638125" lon="8.980827740109222"><ele>71.0</ele><time>2026-03-22T08:47:27Z</time></trkpt><trkpt lat="44.406216034410996" lon="8.980875530683976"><ele>71.0</ele><time>2026-03-22T08:47:28Z</time></trkpt><trkpt lat="44.40621729374739" lon="8.98103398184031"><ele>71.0</ele><time>2026-03-22T08:47:29Z</time></trkpt><trkpt lat="44.406167007973195" lon="8.981097814283972"><ele>71.0</ele><time>2026-03-22T08:47:30Z</time></trkpt><trkpt lat="44.406116985710476" lon="8.98116768105427"><ele>70.0</ele><time>2026-03-22T08:47:31Z</time></trkpt><trkpt lat="44.40607370152259" lon="8.981236711889165"><ele>69.0</ele><time>2026-03-22T08:47:32Z</time></trkpt><trkpt lat="44.406014817487986" lon="8.9813306809844"><ele>68.0</ele><time>2026-03-22T08:47:33Z</time></trkpt><trkpt lat="44.40595735695598" lon="8.981423714974875"><ele>67.0</ele><time>2026-03-22T08:47:34Z</time></trkpt><trkpt lat="44.40588913693541" lon="8.981508289570584"><ele>66.0</ele><time>2026-03-22T08:47:35Z</time></trkpt><trkpt lat="44.40583946685094" lon="8.981614573687251"><ele>65.0</ele><time>2026-03-22T08:47:36Z</time></trkpt><trkpt lat="44.40576078259962" lon="8.981707474239359"><ele>63.8</ele><time>2026-03-22T08:47:37Z</time></trkpt><trkpt lat="44.40570021381754" lon="8.98181703593446"><ele>62.6</ele><time>2026-03-22T08:47:38Z</time></trkpt><trkpt lat="44.405641468899894" lon="8.981930279333103"><ele>61.400000000000006</ele><time>2026-03-22T08:47:39Z</time></trkpt><trkpt lat="44.405584480767416" lon="8.982029789098853"><ele>60.2</ele><time>2026-03-22T08:47:40Z</time></trkpt><trkpt lat="44.405530935386636" lon="8.982121296827808"><ele>59.0</ele><time>2026-03-22T08:47:41Z</time></trkpt><trkpt lat="44.40546855797317" lon="8.982218601922208"><ele>59.0</ele><time>2026-03-22T08:47:42Z</time></trkpt><trkpt lat="44.40541749272233" lon="8.982325187271742"><ele>59.00000000000001</ele><time>2026-03-22T08:47:43Z</time></trkpt><trkpt lat="44.40536175538006" lon="8.982413053714382"><ele>59.00000000000001</ele><time>2026-03-22T08:47:44Z</time></trkpt><trkpt lat="44.405297981890314" lon="8.982517547869561"><ele>59.0</ele><time>2026-03-22T08:47:45Z</time></trkpt><trkpt lat="44.40524389549998" lon="8.982630787290402"><ele>59.0</ele><time>2026-03-22T08:47:46Z</time></trkpt><trkpt lat="44.40518558389146" lon="8.982726566772884"><ele>61.00000000000001</ele><time>2026-03-22T08:47:47Z</time></trkpt><trkpt lat="44.405130671145926" lon="8.98283429585137"><ele>63.0</ele><time>2026-03-22T08:47:48Z</time></trkpt><trkpt lat="44.4050694080087" lon="8.982917722172902"><ele>65.0</ele><time>2026-03-22T08:47:49Z</time></trkpt><trkpt lat="44.40502042500019" lon="8.983009097668825"><ele>67.0</ele><time>2026-03-22T08:47:50Z</time></trkpt><trkpt lat="44.40498216924893" lon="8.98312125736201"><ele>69.0</ele><time>2026-03-22T08:47:51Z</time></trkpt><trkpt lat="44.40494226955401" lon="8.983201740744608"><ele>71.0</ele><time>2026-03-22T08:47:52Z</time></trkpt><trkpt lat="44.404903439870736" lon="8.983291627855191"><ele>71.0</ele><time>2026-03-22T08:47:53Z</time></trkpt><trkpt lat="44.40484540363763" lon="8.983346757611416"><ele>71.0</ele><time>2026-03-22T08:47:54Z</time></trkpt><trkpt lat="44.40470849960071" lon="8.983430118112691"><ele>71.0</ele><time>2026-03-22T08:47:56Z</time></trkpt><trkpt lat="44.40460090550832" lon="8.98350418613115"><ele>71.0</ele><time>2026-03-22T08:47:58Z</time></trkpt><trkpt lat="44.40453294964761" lon="8.983574917542231"><ele>71.0</ele><time>2026-03-22T08:47:59Z</time></trkpt><trkpt lat="44.404469568310475" lon="8.983657985352147"><ele>68.0</ele><time>2026-03-22T08:48:00Z</time></trkpt><trkpt lat="44.4043960056358" lon="8.983743699193104"><ele>65.0</ele><time>2026-03-22T08:48:01Z</time></trkpt><trkpt lat="44.40432597644528" lon="8.983815021347072"><ele>61.99999999999999</ele><time>2026-03-22T08:48:02Z</time></trkpt><trkpt lat="44.40430557517855" lon="8.98397661818427"><ele>59.0</ele><time>2026-03-22T08:48:04Z</time></trkpt><trkpt lat="44.40428672106318" lon="8.984078671853828"><ele>56.0</ele><time>2026-03-22T08:48:05Z</time></trkpt><trkpt lat="44.40427385345594" lon="8.984257676180567"><ele>54.8</ele><time>2026-03-22T08:48:07Z</time></trkpt><trkpt lat="44.40433369377442" lon="8.984404120690876"><ele>53.599999999999994</ele><time>2026-03-22T08:48:09Z</time></trkpt><trkpt lat="44.40436638559911" lon="8.984556738218773"><ele>52.4</ele><time>2026-03-22T08:48:11Z</time></trkpt><trkpt lat="44.40439040475972" lon="8.984705583228012"><ele>51.2</ele><time>2026-03-22T08:48:13Z</time></trkpt><trkpt lat="44.40444808719679" lon="8.984785838311321"><ele>50.0</ele><time>2026-03-22T08:48:15Z</time></trkpt><trkpt lat="44.404412142698774" lon="8.984868841550682"><ele>50.00000000000001</ele><time>2026-03-22T08:49:24Z</time></trkpt><trkpt lat="44.40445492730655" lon="8.984981087617879"><ele>50.0</ele><time>2026-03-22T08:49:27Z</time></trkpt><trkpt lat="44.40449385963813" lon="8.985064090430576"><ele>50.0</ele><time>2026-03-22T08:49:29Z</time></trkpt><trkpt lat="44.40452000321411" lon="8.985155379515763"><ele>50.0</ele><time>2026-03-22T08:49:31Z</time></trkpt><trkpt lat="44.40453199077714" lon="8.98527929286203"><ele>50.00000000000001</ele><time>2026-03-22T08:49:33Z</time></trkpt><trkpt lat="44.40457872240471" lon="8.985428942706145"><ele>50.0</ele><time>2026-03-22T08:49:35Z</time></trkpt><trkpt lat="44.40467399328801" lon="8.98556307473123"><ele>50.333333333333336</ele><time>2026-03-22T08:49:37Z</time></trkpt><trkpt lat="44.4047305841939" lon="8.985620155688196"><ele>50.66666666666667</ele><time>2026-03-22T08:49:38Z</time></trkpt><trkpt lat="44.404800021105274" lon="8.985688719508937"><ele>51.0</ele><time>2026-03-22T08:49:39Z</time></trkpt><trkpt lat="44.404878784173974" lon="8.985762654695398"><ele>51.33333333333333</ele><time>2026-03-22T08:49:40Z</time></trkpt><trkpt lat="44.40495822940938" lon="8.98583381796001"><ele>51.666666666666664</ele><time>2026-03-22T08:49:41Z</time></trkpt><trkpt lat="44.405038485858434" lon="8.985905745967838"><ele>52.0</ele><time>2026-03-22T08:49:42Z</time></trkpt><trkpt lat="44.405123884098025" lon="8.985975983697276"><ele>49.6</ele><time>2026-03-22T08:49:43Z</time></trkpt><trkpt lat="44.40521029219135" lon="8.986043092924907"><ele>47.2</ele><time>2026-03-22T08:49:44Z</time></trkpt><trkpt lat="44.40529476314239" lon="8.986116819493146"><ele>44.8</ele><time>2026-03-22T08:49:45Z</time></trkpt><trkpt lat="44.40538065544437" lon="8.986162721663554"><ele>42.4</ele><time>2026-03-22T08:49:46Z</time></trkpt><trkpt lat="44.40547176810989" lon="8.986225328661858"><ele>40.0</ele><time>2026-03-22T08:49:47Z</time></trkpt><trkpt lat="44.405548145202765" lon="8.986291514993136"><ele>40.0</ele><time>2026-03-22T08:49:48Z</time></trkpt><trkpt lat="44.405657239633" lon="8.986345519426235"><ele>40.0</ele><time>2026-03-22T08:49:49Z</time></trkpt><trkpt lat="44.405756251226855" lon="8.986404349834274"><ele>40.0</ele><time>2026-03-22T08:49:50Z</time></trkpt><trkpt lat="44.40585705513801" lon="8.986460554787808"><ele>40.0</ele><time>2026-03-22T08:49:51Z</time></trkpt><trkpt lat="44.40595428570991" lon="8.986523647870047"><ele>40.0</ele><time>2026-03-22T08:49:52Z</time></trkpt><trkpt lat="44.40604725208087" lon="8.986584671186307"><ele>40.0</ele><time>2026-03-22T08:49:53Z</time></trkpt><trkpt lat="44.40614382355113" lon="8.986645573333993"><ele>40.0</ele><time>2026-03-22T08:49:54Z</time></trkpt><trkpt lat="44.40623561138695" lon="8.986705605064659"><ele>40.0</ele><time>2026-03-22T08:49:55Z</time></trkpt><trkpt lat="44.40632255353085" lon="8.986765566200683"><ele>40.0</ele><time>2026-03-22T08:49:56Z</time></trkpt><trkpt lat="44.40640331854883" lon="8.986822568506927"><ele>40.0</ele><time>2026-03-22T08:49:57Z</time></trkpt><trkpt lat="44.40649638483145" lon="8.986881297694982"><ele>38.833333333333336</ele><time>2026-03-22T08:49:58Z</time></trkpt><trkpt lat="44.40657969607989" lon="8.98692751510042"><ele>37.66666666666667</ele><time>2026-03-22T08:49:59Z</time></trkpt><trkpt lat="44.40665142073387" lon="8.986976009874265"><ele>36.5</ele><time>2026-03-22T08:50:00Z</time></trkpt><trkpt lat="44.40671547792615" lon="8.987026977696381"><ele>35.333333333333336</ele><time>2026-03-22T08:50:01Z</time></trkpt><trkpt lat="44.40677120631378" lon="8.987097928006612"><ele>34.166666666666664</ele><time>2026-03-22T08:50:02Z</time></trkpt><trkpt lat="44.406824675288476" lon="8.987147850244794"><ele>33.0</ele><time>2026-03-22T08:50:03Z</time></trkpt><trkpt lat="44.40689760919913" lon="8.987183411373094"><ele>33.0</ele><time>2026-03-22T08:50:04Z</time></trkpt><trkpt lat="44.40695187527903" lon="8.987240260644425"><ele>33.0</ele><time>2026-03-22T08:50:05Z</time></trkpt><trkpt lat="44.407017687129986" lon="8.9872957782881"><ele>33.0</ele><time>2026-03-22T08:50:06Z</time></trkpt><trkpt lat="44.40712734403476" lon="8.987289292053733"><ele>33.0</ele><time>2026-03-22T08:50:07Z</time></trkpt><trkpt lat="44.407211848273036" lon="8.987338821037701"><ele>33.0</ele><time>2026-03-22T08:50:08Z</time></trkpt><trkpt lat="44.40729697607857" lon="8.987368233817774"><ele>33.0</ele><time>2026-03-22T08:50:09Z</time></trkpt><trkpt lat="44.40738723056912" lon="8.987399543552646"><ele>33.0</ele><time>2026-03-22T08:50:10Z</time></trkpt><trkpt lat="44.40747944935236" lon="8.987429498144897"><ele>33.0</ele><time>2026-03-22T08:50:11Z</time></trkpt><trkpt lat="44.4075609479466" lon="8.987455970583351"><ele>33.0</ele><time>2026-03-22T08:50:12Z</time></trkpt><trkpt lat="44.40765230559074" lon="8.98748255312855"><ele>33.0</ele><time>2026-03-22T08:50:13Z</time></trkpt><trkpt lat="44.40774976632234" lon="8.98750521609761"><ele>33.0</ele><time>2026-03-22T08:50:14Z</time></trkpt><trkpt lat="44.407886248393446" lon="8.98753874995892"><ele>33.0</ele><time>2026-03-22T08:50:16Z</time></trkpt><trkpt lat="44.407963867302485" lon="8.987568298417129"><ele>33.0</ele><time>2026-03-22T08:50:17Z</time></trkpt><trkpt lat="44.40804826045947" lon="8.987617860723887"><ele>33.0</ele><time>2026-03-22T08:50:18Z</time></trkpt><trkpt lat="44.408114146831934" lon="8.98768549543064"><ele>33.0</ele><time>2026-03-22T08:50:19Z</time></trkpt><trkpt lat="44.40819555943074" lon="8.987769177120358"><ele>33.0</ele><time>2026-03-22T08:50:20Z</time></trkpt><trkpt lat="44.40826668580704" lon="8.987845229831512"><ele>33.0</ele><time>2026-03-22T08:50:21Z</time></trkpt><trkpt lat="44.40833560955677" lon="8.987919964200097"><ele>34.4</ele><time>2026-03-22T08:50:22Z</time></trkpt><trkpt lat="44.408395806026476" lon="8.987987098534779"><ele>35.8</ele><time>2026-03-22T08:50:23Z</time></trkpt><trkpt lat="44.408453021737344" lon="8.988050908434559"><ele>37.2</ele><time>2026-03-22T08:50:24Z</time></trkpt><trkpt lat="44.40853749602557" lon="8.988147516814637"><ele>38.6</ele><time>2026-03-22T08:50:26Z</time></trkpt><trkpt lat="44.40856785436147" lon="8.98823449401422"><ele>40.0</ele><time>2026-03-22T08:50:28Z</time></trkpt><trkpt lat="44.408517406805586" lon="8.988398027845705"><ele>40.0</ele><time>2026-03-22T08:50:30Z</time></trkpt><trkpt lat="44.408507459756414" lon="8.98850848325392"><ele>40.0</ele><time>2026-03-22T08:50:31Z</time></trkpt><trkpt lat="44.40849535551096" lon="8.98864289397996"><ele>40.0</ele><time>2026-03-22T08:50:32Z</time></trkpt><trkpt lat="44.40848426085369" lon="8.988778929714785"><ele>40.0</ele><time>2026-03-22T08:50:33Z</time></trkpt><trkpt lat="44.4084748126275" lon="8.98889146936721"><ele>40.0</ele><time>2026-03-22T08:50:34Z</time></trkpt><trkpt lat="44.40846440392332" lon="8.989020557313108"><ele>40.0</ele><time>2026-03-22T08:50:35Z</time></trkpt><trkpt lat="44.40845314709151" lon="8.989156657404894"><ele>40.833333333333336</ele><time>2026-03-22T08:50:36Z</time></trkpt><trkpt lat="44.408441718447115" lon="8.989289651720036"><ele>41.66666666666667</ele><time>2026-03-22T08:50:37Z</time></trkpt><trkpt lat="44.408431775372236" lon="8.989405358413926"><ele>42.5</ele><time>2026-03-22T08:50:38Z</time></trkpt><trkpt lat="44.408421526331146" lon="8.989526878313805"><ele>43.333333333333336</ele><time>2026-03-22T08:50:39Z</time></trkpt><trkpt lat="44.408430141904425" lon="8.989633876739257"><ele>44.166666666666664</ele><time>2026-03-22T08:50:40Z</time></trkpt><trkpt lat="44.40840652207535" lon="8.989733772236299"><ele>45.0</ele><time>2026-03-22T08:50:41Z</time></trkpt><trkpt lat="44.408384254756655" lon="8.989826671574159"><ele>45.0</ele><time>2026-03-22T08:50:42Z</time></trkpt><trkpt lat="44.40836564832396" lon="8.989953897513177"><ele>45.0</ele><time>2026-03-22T08:50:44Z</time></trkpt><trkpt lat="44.408284787097486" lon="8.990035356620622"><ele>45.0</ele><time>2026-03-22T08:50:46Z</time></trkpt><trkpt lat="44.408217429879464" lon="8.98994594017664"><ele>45.0</ele><time>2026-03-22T08:50:49Z</time></trkpt><trkpt lat="44.40812347000369" lon="8.989904650017982"><ele>45.0</ele><time>2026-03-22T08:50:51Z</time></trkpt><trkpt lat="44.40801567140722" lon="8.98985151656536"><ele>48.0</ele><time>2026-03-22T08:50:52Z</time></trkpt><trkpt lat="44.40797708815721" lon="8.98977306875855"><ele>51.0</ele><time>2026-03-22T08:50:53Z</time></trkpt><trkpt lat="44.40793431141917" lon="8.989686093938282"><ele>54.0</ele><time>2026-03-22T08:50:54Z</time></trkpt><trkpt lat="44.407901517820704" lon="8.989601633944183"><ele>57.0</ele><time>2026-03-22T08:50:55Z</time></trkpt><trkpt lat="44.407814355251745" lon="8.989459195012532"><ele>60.0</ele><time>2026-03-22T08:50:57Z</time></trkpt><trkpt lat="44.40776062829054" lon="8.989355519359044"><ele>63.0</ele><time>2026-03-22T08:50:59Z</time></trkpt><trkpt lat="44.407692204743014" lon="8.98932461582217"><ele>63.0</ele><time>2026-03-22T08:51:02Z</time></trkpt><trkpt lat="44.40761322110701" lon="8.98926280227535"><ele>63.0</ele><time>2026-03-22T08:51:05Z</time></trkpt><trkpt lat="44.40747862772475" lon="8.989199050100254"><ele>63.0</ele><time>2026-03-22T08:51:07.001Z</time></trkpt><trkpt lat="44.40741300750984" lon="8.989166824312333"><ele>63.0</ele><time>2026-03-22T08:51:08Z</time></trkpt><trkpt lat="44.40733908194094" lon="8.98915568033283"><ele>63.0</ele><time>2026-03-22T08:51:09Z</time></trkpt><trkpt lat="44.40721187768189" lon="8.98917545045539"><ele>64.83333333333333</ele><time>2026-03-22T08:51:11Z</time></trkpt><trkpt lat="44.40714538182615" lon="8.989195012567384"><ele>66.66666666666667</ele><time>2026-03-22T08:51:12Z</time></trkpt><trkpt lat="44.407058242205565" lon="8.989248494911456"><ele>68.5</ele><time>2026-03-22T08:51:13Z</time></trkpt><trkpt lat="44.406995045280865" lon="8.989284347050825"><ele>70.33333333333334</ele><time>2026-03-22T08:51:14Z</time></trkpt><trkpt lat="44.4069177496634" lon="8.989286891361608"><ele>72.16666666666667</ele><time>2026-03-22T08:51:15Z</time></trkpt><trkpt lat="44.40684297795889" lon="8.989290180505135"><ele>74.0</ele><time>2026-03-22T08:51:16Z</time></trkpt><trkpt lat="44.406817998951816" lon="8.989072078777037"><ele>68.2</ele><time>2026-03-22T08:51:18Z</time></trkpt><trkpt lat="44.40674045542881" lon="8.989017892960915"><ele>62.400000000000006</ele><time>2026-03-22T08:51:19Z</time></trkpt><trkpt lat="44.40663989586985" lon="8.989103305252433"><ele>56.6</ele><time>2026-03-22T08:51:20Z</time></trkpt><trkpt lat="44.40653542500292" lon="8.989150653268238"><ele>50.8</ele><time>2026-03-22T08:51:21Z</time></trkpt><trkpt lat="44.40645876681943" lon="8.989131953219681"><ele>45.0</ele><time>2026-03-22T08:51:22Z</time></trkpt><trkpt lat="44.40637858004352" lon="8.989129236118718"><ele>46.333333333333336</ele><time>2026-03-22T08:51:23Z</time></trkpt><trkpt lat="44.40629810502373" lon="8.98911672430009"><ele>47.66666666666667</ele><time>2026-03-22T08:51:24Z</time></trkpt><trkpt lat="44.40621536034852" lon="8.989089371670936"><ele>49.0</ele><time>2026-03-22T08:51:25Z</time></trkpt><trkpt lat="44.40612120197358" lon="8.989075838324274"><ele>50.333333333333336</ele><time>2026-03-22T08:51:26Z</time></trkpt><trkpt lat="44.40603249828627" lon="8.98906211724817"><ele>51.66666666666667</ele><time>2026-03-22T08:51:27Z</time></trkpt><trkpt lat="44.405946135524175" lon="8.989062924677716"><ele>53.0</ele><time>2026-03-22T08:51:28Z</time></trkpt><trkpt lat="44.40585499784265" lon="8.989064281646595"><ele>53.0</ele><time>2026-03-22T08:51:29Z</time></trkpt><trkpt lat="44.40576940596848" lon="8.989050214801514"><ele>53.0</ele><time>2026-03-22T08:51:30Z</time></trkpt><trkpt lat="44.405689901286074" lon="8.989057262642184"><ele>53.0</ele><time>2026-03-22T08:51:31Z</time></trkpt><trkpt lat="44.40561717465084" lon="8.989044017644527"><ele>53.0</ele><time>2026-03-22T08:51:32Z</time></trkpt><trkpt lat="44.40553384868235" lon="8.98905404705341"><ele>53.0</ele><time>2026-03-22T08:51:33Z</time></trkpt><trkpt lat="44.40541244952493" lon="8.989140751099818"><ele>52.0</ele><time>2026-03-22T08:51:35Z</time></trkpt><trkpt lat="44.40531156845695" lon="8.98915845987282"><ele>51.0</ele><time>2026-03-22T08:51:37Z</time></trkpt><trkpt lat="44.40524026115204" lon="8.98925858105782"><ele>50.0</ele><time>2026-03-22T08:51:38Z</time></trkpt><trkpt lat="44.40515642272072" lon="8.98931725024708"><ele>49.0</ele><time>2026-03-22T08:51:39Z</time></trkpt><trkpt lat="44.40508592780036" lon="8.989351677045804"><ele>48.0</ele><time>2026-03-22T08:51:40Z</time></trkpt><trkpt lat="44.40502859901393" lon="8.989442668653977"><ele>50.333333333333336</ele><time>2026-03-22T08:51:42Z</time></trkpt><trkpt lat="44.40498223172449" lon="8.989539628688988"><ele>52.66666666666667</ele><time>2026-03-22T08:51:44Z</time></trkpt><trkpt lat="44.404947227409814" lon="8.98962865664797"><ele>55.0</ele><time>2026-03-22T08:51:45Z</time></trkpt><trkpt lat="44.40490633918725" lon="8.989742399503408"><ele>57.333333333333336</ele><time>2026-03-22T08:51:46Z</time></trkpt><trkpt lat="44.404871301216275" lon="8.989837009589518"><ele>59.66666666666667</ele><time>2026-03-22T08:51:47Z</time></trkpt><trkpt lat="44.404833465112596" lon="8.989939175608843"><ele>62.0</ele><time>2026-03-22T08:51:48Z</time></trkpt><trkpt lat="44.404796071844764" lon="8.990040145638085"><ele>64.83333333333334</ele><time>2026-03-22T08:51:49Z</time></trkpt><trkpt lat="44.40475679666669" lon="8.990145250616767"><ele>67.66666666666667</ele><time>2026-03-22T08:51:50Z</time></trkpt><trkpt lat="44.40471818013242" lon="8.990247833825924"><ele>70.5</ele><time>2026-03-22T08:51:51Z</time></trkpt><trkpt lat="44.40469404555671" lon="8.990350867713953"><ele>73.33333333333333</ele><time>2026-03-22T08:51:52Z</time></trkpt><trkpt lat="44.40465291118639" lon="8.990425150347603"><ele>76.16666666666666</ele><time>2026-03-22T08:51:53Z</time></trkpt><trkpt lat="44.40456822913129" lon="8.990522949384362"><ele>79.0</ele><time>2026-03-22T08:51:55Z</time></trkpt><trkpt lat="44.404506752713" lon="8.99046905576296"><ele>79.2</ele><time>2026-03-22T08:51:58Z</time></trkpt><trkpt lat="44.40440850727011" lon="8.990434398048912"><ele>79.4</ele><time>2026-03-22T08:52:00Z</time></trkpt><trkpt lat="44.40431353605083" lon="8.990333706549857"><ele>79.6</ele><time>2026-03-22T08:52:02Z</time></trkpt><trkpt lat="44.40427189889963" lon="8.990265326653542"><ele>79.8</ele><time>2026-03-22T08:52:03Z</time></trkpt><trkpt lat="44.40420568109215" lon="8.990142127258652"><ele>80.0</ele><time>2026-03-22T08:52:05Z</time></trkpt><trkpt lat="44.40418775627582" lon="8.990051448287108"><ele>77.0</ele><time>2026-03-22T08:52:06Z</time></trkpt><trkpt lat="44.40415714544514" lon="8.98996368060289"><ele>74.0</ele><time>2026-03-22T08:52:07Z</time></trkpt><trkpt lat="44.404116792844896" lon="8.989876959804185"><ele>71.0</ele><time>2026-03-22T08:52:08Z</time></trkpt><trkpt lat="44.40406906667496" lon="8.989804438601082"><ele>68.0</ele><time>2026-03-22T08:52:09Z</time></trkpt><trkpt lat="44.40398424152917" lon="8.989698243912693"><ele>65.0</ele><time>2026-03-22T08:52:11Z</time></trkpt><trkpt lat="44.40384687846612" lon="8.989627890811011"><ele>67.85714285714286</ele><time>2026-03-22T08:52:13Z</time></trkpt><trkpt lat="44.403776344048254" lon="8.989586985454682"><ele>70.71428571428572</ele><time>2026-03-22T08:52:14Z</time></trkpt><trkpt lat="44.40370603748128" lon="8.989555495107842"><ele>73.57142857142858</ele><time>2026-03-22T08:52:15Z</time></trkpt><trkpt lat="44.403642210408655" lon="8.98950493409636"><ele>76.42857142857143</ele><time>2026-03-22T08:52:16Z</time></trkpt><trkpt lat="44.40358344172599" lon="8.98944958858165"><ele>79.28571428571428</ele><time>2026-03-22T08:52:17Z</time></trkpt><trkpt lat="44.40353601655349" lon="8.989382824645254"><ele>82.14285714285715</ele><time>2026-03-22T08:52:18Z</time></trkpt><trkpt lat="44.403484343534224" lon="8.989323000042617"><ele>85.0</ele><time>2026-03-22T08:52:19Z</time></trkpt><trkpt lat="44.403394600458604" lon="8.989251420630605"><ele>85.0</ele><time>2026-03-22T08:52:21Z</time></trkpt><trkpt lat="44.403328495170754" lon="8.989209679883496"><ele>85.0</ele><time>2026-03-22T08:52:22Z</time></trkpt><trkpt lat="44.40325158956688" lon="8.989137022410137"><ele>85.0</ele><time>2026-03-22T08:52:23Z</time></trkpt><trkpt lat="44.403173111225556" lon="8.989092620708751"><ele>85.0</ele><time>2026-03-22T08:52:24Z</time></trkpt><trkpt lat="44.40310281888698" lon="8.989053046245978"><ele>85.0</ele><time>2026-03-22T08:52:25Z</time></trkpt><trkpt lat="44.4030247925246" lon="8.989045328916355"><ele>85.0</ele><time>2026-03-22T08:52:26Z</time></trkpt><trkpt lat="44.402965385399206" lon="8.989011679023813"><ele>86.66666666666666</ele><time>2026-03-22T08:52:27Z</time></trkpt><trkpt lat="44.402890308414015" lon="8.988977022974959"><ele>88.33333333333333</ele><time>2026-03-22T08:52:28Z</time></trkpt><trkpt lat="44.40281399025338" lon="8.988992232784366"><ele>90.0</ele><time>2026-03-22T08:52:29Z</time></trkpt><trkpt lat="44.402753034340336" lon="8.988951256475744"><ele>91.66666666666667</ele><time>2026-03-22T08:52:30Z</time></trkpt><trkpt lat="44.402691773955006" lon="8.98905828625327"><ele>93.33333333333334</ele><time>2026-03-22T08:52:31Z</time></trkpt><trkpt lat="44.40263821960568" lon="8.989116122932103"><ele>95.0</ele><time>2026-03-22T08:52:32Z</time></trkpt><trkpt lat="44.402577548738705" lon="8.989183710748446"><ele>95.0</ele><time>2026-03-22T08:52:33Z</time></trkpt><trkpt lat="44.402506784459064" lon="8.989241942008448"><ele>95.0</ele><time>2026-03-22T08:52:34Z</time></trkpt><trkpt lat="44.402449877665994" lon="8.98932809696605"><ele>95.0</ele><time>2026-03-22T08:52:35Z</time></trkpt><trkpt lat="44.40237922942259" lon="8.989388182470236"><ele>95.0</ele><time>2026-03-22T08:52:36Z</time></trkpt><trkpt lat="44.40230115983882" lon="8.989448111863796"><ele>95.0</ele><time>2026-03-22T08:52:37Z</time></trkpt><trkpt lat="44.40222168660208" lon="8.989472010043823"><ele>95.0</ele><time>2026-03-22T08:52:38Z</time></trkpt><trkpt lat="44.40214203836302" lon="8.989495834619651"><ele>94.66666666666667</ele><time>2026-03-22T08:52:39Z</time></trkpt><trkpt lat="44.40206544184353" lon="8.98952692144085"><ele>94.33333333333334</ele><time>2026-03-22T08:52:40Z</time></trkpt><trkpt lat="44.401994556153014" lon="8.98956661565171"><ele>94.0</ele><time>2026-03-22T08:52:41Z</time></trkpt><trkpt lat="44.40191443208973" lon="8.989564435112142"><ele>93.66666666666667</ele><time>2026-03-22T08:52:42Z</time></trkpt><trkpt lat="44.40184702302222" lon="8.989554868937436"><ele>93.33333333333333</ele><time>2026-03-22T08:52:43Z</time></trkpt><trkpt lat="44.40178090911427" lon="8.989543058734565"><ele>93.0</ele><time>2026-03-22T08:52:44Z</time></trkpt><trkpt lat="44.40169384412827" lon="8.989523157299585"><ele>93.0</ele><time>2026-03-22T08:52:45Z</time></trkpt><trkpt lat="44.40160752505878" lon="8.989515130664367"><ele>93.0</ele><time>2026-03-22T08:52:46Z</time></trkpt><trkpt lat="44.401533804145274" lon="8.989495663134676"><ele>93.0</ele><time>2026-03-22T08:52:47Z</time></trkpt><trkpt lat="44.40144441730109" lon="8.989489429573428"><ele>93.0</ele><time>2026-03-22T08:52:48Z</time></trkpt><trkpt lat="44.401334266268506" lon="8.989485257342967"><ele>93.0</ele><time>2026-03-22T08:52:50Z</time></trkpt><trkpt lat="44.40124724350644" lon="8.989560209365175"><ele>90.0</ele><time>2026-03-22T08:52:52Z</time></trkpt><trkpt lat="44.40119014119559" lon="8.989628364110684"><ele>87.0</ele><time>2026-03-22T08:52:53Z</time></trkpt><trkpt lat="44.401145899950855" lon="8.989698906453361"><ele>84.0</ele><time>2026-03-22T08:52:54Z</time></trkpt><trkpt lat="44.40110174818645" lon="8.989782788088137"><ele>81.0</ele><time>2026-03-22T08:52:55Z</time></trkpt><trkpt lat="44.40101969722112" lon="8.989906545008882"><ele>78.0</ele><time>2026-03-22T08:52:57Z</time></trkpt><trkpt lat="44.401002687234026" lon="8.99006823011445"><ele>78.0</ele><time>2026-03-22T08:52:59Z</time></trkpt><trkpt lat="44.401040528410974" lon="8.990206015249495"><ele>78.0</ele><time>2026-03-22T08:53:01Z</time></trkpt><trkpt lat="44.401123039387365" lon="8.990351515163884"><ele>78.0</ele><time>2026-03-22T08:53:03Z</time></trkpt><trkpt lat="44.40117228406376" lon="8.990416104753457"><ele>78.0</ele><time>2026-03-22T08:53:04Z</time></trkpt><trkpt lat="44.40121215442236" lon="8.9905404135391"><ele>78.0</ele><time>2026-03-22T08:53:06.001Z</time></trkpt><trkpt lat="44.40119774615079" lon="8.990683541288838"><ele>78.66666666666667</ele><time>2026-03-22T08:53:08.001Z</time></trkpt><trkpt lat="44.401162769284355" lon="8.990865283354145"><ele>79.33333333333333</ele><time>2026-03-22T08:53:10.001Z</time></trkpt><trkpt lat="44.40113435404454" lon="8.990956618469474"><ele>80.0</ele><time>2026-03-22T08:53:11.001Z</time></trkpt><trkpt lat="44.401128190345716" lon="8.991048184163324"><ele>80.66666666666666</ele><time>2026-03-22T08:53:12.001Z</time></trkpt><trkpt lat="44.40113889903367" lon="8.99116992881648"><ele>81.33333333333333</ele><time>2026-03-22T08:53:13.001Z</time></trkpt><trkpt lat="44.401159286378885" lon="8.991283988823884"><ele>82.0</ele><time>2026-03-22T08:53:14Z</time></trkpt><trkpt lat="44.40116664597784" lon="8.991379925901189"><ele>82.0</ele><time>2026-03-22T08:53:15Z</time></trkpt><trkpt lat="44.40117641510938" lon="8.991481168924526"><ele>82.0</ele><time>2026-03-22T08:53:16Z</time></trkpt><trkpt lat="44.4011788095021" lon="8.99158177718117"><ele>82.0</ele><time>2026-03-22T08:53:17Z</time></trkpt><trkpt lat="44.40121944753841" lon="8.991704855220526"><ele>82.0</ele><time>2026-03-22T08:53:19Z</time></trkpt><trkpt lat="44.401299794298325" lon="8.991834213917917"><ele>82.0</ele><time>2026-03-22T08:53:21Z</time></trkpt><trkpt lat="44.40135462305811" lon="8.991885040078857"><ele>82.0</ele><time>2026-03-22T08:53:22Z</time></trkpt><trkpt lat="44.40141203361336" lon="8.99193561858937"><ele>85.66666666666666</ele><time>2026-03-22T08:53:23Z</time></trkpt><trkpt lat="44.40146697875722" lon="8.991983708057353"><ele>89.33333333333333</ele><time>2026-03-22T08:53:24Z</time></trkpt><trkpt lat="44.401522513158646" lon="8.992032544935793"><ele>93.0</ele><time>2026-03-22T08:53:25Z</time></trkpt><trkpt lat="44.40155020705922" lon="8.992138026416246"><ele>96.66666666666666</ele><time>2026-03-22T08:53:27Z</time></trkpt><trkpt lat="44.4015338999432" lon="8.992284797389377"><ele>100.33333333333333</ele><time>2026-03-22T08:53:29Z</time></trkpt><trkpt lat="44.40149019690894" lon="8.9923632921537"><ele>104.0</ele><time>2026-03-22T08:53:30Z</time></trkpt><trkpt lat="44.40147070662952" lon="8.992459291786954"><ele>102.2</ele><time>2026-03-22T08:53:31Z</time></trkpt><trkpt lat="44.40142756520454" lon="8.992544528271447"><ele>100.4</ele><time>2026-03-22T08:53:32Z</time></trkpt><trkpt lat="44.40141070072265" lon="8.992645608317181"><ele>98.6</ele><time>2026-03-22T08:53:33Z</time></trkpt><trkpt lat="44.40138379926438" lon="8.9927392372016"><ele>96.8</ele><time>2026-03-22T08:53:34Z</time></trkpt><trkpt lat="44.40133011975612" lon="8.992890325197502"><ele>95.0</ele><time>2026-03-22T08:53:36Z</time></trkpt><trkpt lat="44.40138106676156" lon="8.993053472984851"><ele>95.0</ele><time>2026-03-22T08:53:38Z</time></trkpt><trkpt lat="44.401458264479984" lon="8.99314097142905"><ele>95.0</ele><time>2026-03-22T08:53:40Z</time></trkpt><trkpt lat="44.40156740011175" lon="8.993196478137708"><ele>95.0</ele><time>2026-03-22T08:53:42Z</time></trkpt><trkpt lat="44.40163981377026" lon="8.99318419003804"><ele>95.0</ele><time>2026-03-22T08:53:43Z</time></trkpt><trkpt lat="44.40171051965761" lon="8.99318081898957"><ele>95.0</ele><time>2026-03-22T08:53:44Z</time></trkpt><trkpt lat="44.40182689669439" lon="8.993175373580545"><ele>95.0</ele><time>2026-03-22T08:53:46Z</time></trkpt><trkpt lat="44.401889499632645" lon="8.993186907012475"><ele>95.0</ele><time>2026-03-22T08:53:47Z</time></trkpt><trkpt lat="44.40195740177883" lon="8.993165610813827"><ele>95.0</ele><time>2026-03-22T08:53:48Z</time></trkpt><trkpt lat="44.40203119366423" lon="8.993189841038292"><ele>95.0</ele><time>2026-03-22T08:53:49Z</time></trkpt><trkpt lat="44.4020980476568" lon="8.993198316458829"><ele>95.0</ele><time>2026-03-22T08:53:50Z</time></trkpt><trkpt lat="44.40220204190194" lon="8.993222690420138"><ele>95.0</ele><time>2026-03-22T08:53:52Z</time></trkpt><trkpt lat="44.4022994683683" lon="8.993276300590066"><ele>95.8</ele><time>2026-03-22T08:53:54Z</time></trkpt><trkpt lat="44.40241535598271" lon="8.993337775183175"><ele>96.6</ele><time>2026-03-22T08:53:56Z</time></trkpt><trkpt lat="44.40251504842469" lon="8.993425107395614"><ele>97.4</ele><time>2026-03-22T08:53:58Z</time></trkpt><trkpt lat="44.402584077627544" lon="8.993469884772653"><ele>98.2</ele><time>2026-03-22T08:53:59Z</time></trkpt><trkpt lat="44.4026490656048" lon="8.993507667223879"><ele>99.0</ele><time>2026-03-22T08:54:00Z</time></trkpt><trkpt lat="44.40271067991545" lon="8.993559363144264"><ele>99.0</ele><time>2026-03-22T08:54:01Z</time></trkpt><trkpt lat="44.40277935129777" lon="8.993599254469439"><ele>99.0</ele><time>2026-03-22T08:54:02Z</time></trkpt><trkpt lat="44.40284135447099" lon="8.99365651891769"><ele>99.0</ele><time>2026-03-22T08:54:03Z</time></trkpt><trkpt lat="44.40290405316697" lon="8.993724679962613"><ele>99.0</ele><time>2026-03-22T08:54:04Z</time></trkpt><trkpt lat="44.40296117902588" lon="8.993811765189507"><ele>99.0</ele><time>2026-03-22T08:54:05Z</time></trkpt><trkpt lat="44.4030136595131" lon="8.993908607816659"><ele>99.0</ele><time>2026-03-22T08:54:06Z</time></trkpt><trkpt lat="44.40307147034985" lon="8.993998418895915"><ele>103.33333333333333</ele><time>2026-03-22T08:54:07Z</time></trkpt><trkpt lat="44.40311164256369" lon="8.994097172357101"><ele>107.66666666666666</ele><time>2026-03-22T08:54:08Z</time></trkpt><trkpt lat="44.40315807613386" lon="8.994183717435375"><ele>112.0</ele><time>2026-03-22T08:54:09Z</time></trkpt><trkpt lat="44.403210244485585" lon="8.994255239590323"><ele>116.33333333333333</ele><time>2026-03-22T08:54:10Z</time></trkpt><trkpt lat="44.403243256525045" lon="8.994362754329044"><ele>120.66666666666666</ele><time>2026-03-22T08:54:11Z</time></trkpt><trkpt lat="44.403265444578196" lon="8.994459999865347"><ele>125.0</ele><time>2026-03-22T08:54:12Z</time></trkpt><trkpt lat="44.40327243970705" lon="8.994614285941818"><ele>125.0</ele><time>2026-03-22T08:54:14Z</time></trkpt><trkpt lat="44.403258183014984" lon="8.994745227071716"><ele>125.0</ele><time>2026-03-22T08:54:16Z</time></trkpt><trkpt lat="44.40319737645049" lon="8.994856252136971"><ele>125.0</ele><time>2026-03-22T08:54:18Z</time></trkpt><trkpt lat="44.403093801678104" lon="8.994905832758974"><ele>125.0</ele><time>2026-03-22T08:54:20Z</time></trkpt><trkpt lat="44.40296764856152" lon="8.994917974959849"><ele>125.0</ele><time>2026-03-22T08:54:22Z</time></trkpt><trkpt lat="44.402899476747706" lon="8.994925896013596"><ele>124.33333333333333</ele><time>2026-03-22T08:54:23Z</time></trkpt><trkpt lat="44.40282004289308" lon="8.994939615848056"><ele>123.66666666666666</ele><time>2026-03-22T08:54:24Z</time></trkpt><trkpt lat="44.402734827216634" lon="8.994961678923751"><ele>123.0</ele><time>2026-03-22T08:54:25Z</time></trkpt><trkpt lat="44.402674456092605" lon="8.994987065816103"><ele>122.33333333333334</ele><time>2026-03-22T08:54:26Z</time></trkpt><trkpt lat="44.40261150677915" lon="8.995027810518044"><ele>121.66666666666667</ele><time>2026-03-22T08:54:27Z</time></trkpt><trkpt lat="44.40254969485289" lon="8.995088958125175"><ele>121.0</ele><time>2026-03-22T08:54:28Z</time></trkpt><trkpt lat="44.40249305562009" lon="8.995157217610224"><ele>121.00000000000001</ele><time>2026-03-22T08:54:29Z</time></trkpt><trkpt lat="44.40243074611146" lon="8.995230609296097"><ele>121.0</ele><time>2026-03-22T08:54:30Z</time></trkpt><trkpt lat="44.40239049898969" lon="8.995313246545608"><ele>121.0</ele><time>2026-03-22T08:54:31Z</time></trkpt><trkpt lat="44.40236261463656" lon="8.995397191814666"><ele>121.0</ele><time>2026-03-22T08:54:32Z</time></trkpt><trkpt lat="44.40232841883061" lon="8.995529858820293"><ele>121.00000000000001</ele><time>2026-03-22T08:54:34Z</time></trkpt><trkpt lat="44.40232366212612" lon="8.995691026980206"><ele>121.0</ele><time>2026-03-22T08:54:36Z</time></trkpt><trkpt lat="44.402348463126245" lon="8.995824478211292"><ele>121.0</ele><time>2026-03-22T08:54:37Z</time></trkpt><trkpt lat="44.402495897721856" lon="8.995713694665305"><ele>121.0</ele><time>2026-03-22T08:54:38Z</time></trkpt><trkpt lat="44.40260113041387" lon="8.99565136765378"><ele>121.0</ele><time>2026-03-22T08:54:40Z</time></trkpt><trkpt lat="44.40265698875562" lon="8.995493975964331"><ele>121.0</ele><time>2026-03-22T08:54:42Z</time></trkpt><trkpt lat="44.40269340181484" lon="8.995418596872755"><ele>121.0</ele><time>2026-03-22T08:54:43Z</time></trkpt><trkpt lat="44.40274384376926" lon="8.995356355772898"><ele>121.0</ele><time>2026-03-22T08:54:44Z</time></trkpt><trkpt lat="44.40283942037132" lon="8.995305474665312"><ele>121.0</ele><time>2026-03-22T08:54:47Z</time></trkpt><trkpt lat="44.40294934907392" lon="8.995317923058563"><ele>121.0</ele><time>2026-03-22T08:54:49Z</time></trkpt><trkpt lat="44.40301412777276" lon="8.995329642777751"><ele>121.0</ele><time>2026-03-22T08:54:50Z</time></trkpt><trkpt lat="44.40315206464281" lon="8.99529690241528"><ele>124.66666666666667</ele><time>2026-03-22T08:54:52Z</time></trkpt><trkpt lat="44.40321595515113" lon="8.995267369349802"><ele>128.33333333333334</ele><time>2026-03-22T08:54:53Z</time></trkpt><trkpt lat="44.40331450872596" lon="8.995261067052503"><ele>132.0</ele><time>2026-03-22T08:54:54Z</time></trkpt><trkpt lat="44.40341298259582" lon="8.995260771016548"><ele>135.66666666666666</ele><time>2026-03-22T08:54:55Z</time></trkpt><trkpt lat="44.40350035660553" lon="8.995257029004252"><ele>139.33333333333331</ele><time>2026-03-22T08:54:56Z</time></trkpt><trkpt lat="44.40359016461843" lon="8.99524854936141"><ele>143.0</ele><time>2026-03-22T08:54:57Z</time></trkpt><trkpt lat="44.403658469810175" lon="8.995233435671693"><ele>143.0</ele><time>2026-03-22T08:54:58Z</time></trkpt><trkpt lat="44.4037361747633" lon="8.995200366411158"><ele>143.0</ele><time>2026-03-22T08:54:59Z</time></trkpt><trkpt lat="44.40382242670429" lon="8.995164423407513"><ele>143.0</ele><time>2026-03-22T08:55:00Z</time></trkpt><trkpt lat="44.40392065863295" lon="8.995062915786225"><ele>143.0</ele><time>2026-03-22T08:55:02Z</time></trkpt><trkpt lat="44.40395832096491" lon="8.994988952541856"><ele>143.0</ele><time>2026-03-22T08:55:03Z</time></trkpt><trkpt lat="44.40397179676406" lon="8.994895437432625"><ele>143.0</ele><time>2026-03-22T08:55:04Z</time></trkpt><trkpt lat="44.4039828492382" lon="8.99480438588953"><ele>144.0</ele><time>2026-03-22T08:55:05Z</time></trkpt><trkpt lat="44.40398674828589" lon="8.994690776479572"><ele>145.0</ele><time>2026-03-22T08:55:06Z</time></trkpt><trkpt lat="44.40398077542465" lon="8.994592891674523"><ele>146.0</ele><time>2026-03-22T08:55:07Z</time></trkpt><trkpt lat="44.4039703520186" lon="8.994495684800842"><ele>147.0</ele><time>2026-03-22T08:55:08Z</time></trkpt><trkpt lat="44.40394834965689" lon="8.99438200158174"><ele>148.0</ele><time>2026-03-22T08:55:09Z</time></trkpt><trkpt lat="44.40392423784092" lon="8.99427960668596"><ele>149.0</ele><time>2026-03-22T08:55:10Z</time></trkpt><trkpt lat="44.403892008792866" lon="8.994169125779765"><ele>150.0</ele><time>2026-03-22T08:55:11Z</time></trkpt><trkpt lat="44.403835156710315" lon="8.994077744933795"><ele>151.0</ele><time>2026-03-22T08:55:12Z</time></trkpt><trkpt lat="44.40380837669974" lon="8.993957243872423"><ele>152.0</ele><time>2026-03-22T08:55:13Z</time></trkpt><trkpt lat="44.40376441817109" lon="8.993843376908172"><ele>153.0</ele><time>2026-03-22T08:55:14.001Z</time></trkpt><trkpt lat="44.40369993428156" lon="8.993741360719776"><ele>154.0</ele><time>2026-03-22T08:55:15.001Z</time></trkpt><trkpt lat="44.40365990464664" lon="8.993638173651203"><ele>151.16666666666669</ele><time>2026-03-22T08:55:16.001Z</time></trkpt><trkpt lat="44.40361847408269" lon="8.993535912525862"><ele>148.33333333333334</ele><time>2026-03-22T08:55:17.001Z</time></trkpt><trkpt lat="44.403574625215576" lon="8.993450555273387"><ele>145.5</ele><time>2026-03-22T08:55:18.001Z</time></trkpt><trkpt lat="44.40352680491605" lon="8.993356681280456"><ele>142.66666666666666</ele><time>2026-03-22T08:55:19.001Z</time></trkpt><trkpt lat="44.40348510973822" lon="8.99327616346166"><ele>139.83333333333331</ele><time>2026-03-22T08:55:20Z</time></trkpt><trkpt lat="44.40344421438001" lon="8.993201448437052"><ele>137.0</ele><time>2026-03-22T08:55:21Z</time></trkpt><trkpt lat="44.40338630463296" lon="8.993134716530486"><ele>137.0</ele><time>2026-03-22T08:55:22Z</time></trkpt><trkpt lat="44.40333005761587" lon="8.993040726038208"><ele>137.0</ele><time>2026-03-22T08:55:23Z</time></trkpt><trkpt lat="44.403281173598224" lon="8.992961735770882"><ele>137.0</ele><time>2026-03-22T08:55:24Z</time></trkpt><trkpt lat="44.403233402205906" lon="8.992874318468195"><ele>137.0</ele><time>2026-03-22T08:55:25Z</time></trkpt><trkpt lat="44.40317790364552" lon="8.992806199788964"><ele>137.0</ele><time>2026-03-22T08:55:26Z</time></trkpt><trkpt lat="44.40313881986099" lon="8.992736867550196"><ele>137.0</ele><time>2026-03-22T08:55:27Z</time></trkpt><trkpt lat="44.40312239793557" lon="8.99259900565459"><ele>137.0</ele><time>2026-03-22T08:55:29Z</time></trkpt><trkpt lat="44.40316251947663" lon="8.992491019628961"><ele>137.0</ele><time>2026-03-22T08:55:31Z</time></trkpt><trkpt lat="44.40321519860021" lon="8.992438915772265"><ele>137.0</ele><time>2026-03-22T08:55:33Z</time></trkpt><trkpt lat="44.40329104798777" lon="8.99252589518591"><ele>137.0</ele><time>2026-03-22T08:55:35Z</time></trkpt><trkpt lat="44.40339547985255" lon="8.99262808656018"><ele>137.0</ele><time>2026-03-22T08:55:37Z</time></trkpt><trkpt lat="44.40345488544251" lon="8.992688124637422"><ele>137.0</ele><time>2026-03-22T08:55:38Z</time></trkpt><trkpt lat="44.403519255621774" lon="8.992754316872752"><ele>137.0</ele><time>2026-03-22T08:55:39Z</time></trkpt><trkpt lat="44.403579369246174" lon="8.99283155566847"><ele>137.0</ele><time>2026-03-22T08:55:40Z</time></trkpt><trkpt lat="44.40364931503476" lon="8.992907633419538"><ele>137.0</ele><time>2026-03-22T08:55:41Z</time></trkpt><trkpt lat="44.4037110508173" lon="8.992986142294209"><ele>137.0</ele><time>2026-03-22T08:55:42Z</time></trkpt><trkpt lat="44.403759506046285" lon="8.993061610582247"><ele>137.0</ele><time>2026-03-22T08:55:43Z</time></trkpt><trkpt lat="44.4038180800228" lon="8.993100006109538"><ele>139.2</ele><time>2026-03-22T08:55:44Z</time></trkpt><trkpt lat="44.403912625137615" lon="8.993208185924052"><ele>141.39999999999998</ele><time>2026-03-22T08:55:46Z</time></trkpt><trkpt lat="44.40394500164597" lon="8.993328275497422"><ele>143.60000000000002</ele><time>2026-03-22T08:55:48Z</time></trkpt><trkpt lat="44.40395779516824" lon="8.993458737929608"><ele>145.8</ele><time>2026-03-22T08:55:50Z</time></trkpt><trkpt lat="44.40395569483447" lon="8.99360574850504"><ele>148.0</ele><time>2026-03-22T08:55:52Z</time></trkpt><trkpt lat="44.40399776139986" lon="8.993766079087493"><ele>148.14285714285714</ele><time>2026-03-22T08:55:54Z</time></trkpt><trkpt lat="44.40403208863443" lon="8.993849891312284"><ele>148.28571428571428</ele><time>2026-03-22T08:55:55Z</time></trkpt><trkpt lat="44.404072480541494" lon="8.993928469756064"><ele>148.42857142857142</ele><time>2026-03-22T08:55:56Z</time></trkpt><trkpt lat="44.40411762038834" lon="8.994017552498972"><ele>148.57142857142856</ele><time>2026-03-22T08:55:57Z</time></trkpt><trkpt lat="44.40415893659968" lon="8.994099089301566"><ele>148.7142857142857</ele><time>2026-03-22T08:55:58Z</time></trkpt><trkpt lat="44.40420922887705" lon="8.994162096925848"><ele>148.85714285714286</ele><time>2026-03-22T08:55:59Z</time></trkpt><trkpt lat="44.404234470157114" lon="8.994243500795253"><ele>149.0</ele><time>2026-03-22T08:56:00Z</time></trkpt><trkpt lat="44.40427436504053" lon="8.994321937860523"><ele>149.0</ele><time>2026-03-22T08:56:01Z</time></trkpt><trkpt lat="44.40431172814985" lon="8.994396834532747"><ele>149.0</ele><time>2026-03-22T08:56:02Z</time></trkpt><trkpt lat="44.404359700998945" lon="8.994492999184551"><ele>149.0</ele><time>2026-03-22T08:56:03Z</time></trkpt><trkpt lat="44.40440451500475" lon="8.994582831475924"><ele>149.0</ele><time>2026-03-22T08:56:04Z</time></trkpt><trkpt lat="44.404463399441816" lon="8.994697107156677"><ele>149.0</ele><time>2026-03-22T08:56:05Z</time></trkpt><trkpt lat="44.40450612352868" lon="8.994784648513479"><ele>149.0</ele><time>2026-03-22T08:56:06Z</time></trkpt><trkpt lat="44.40453333329015" lon="8.994876525803493"><ele>149.0</ele><time>2026-03-22T08:56:07Z</time></trkpt><trkpt lat="44.40456274214246" lon="8.994966548185673"><ele>149.0</ele><time>2026-03-22T08:56:08Z</time></trkpt><trkpt lat="44.404586043173836" lon="8.995062914146924"><ele>149.0</ele><time>2026-03-22T08:56:09Z</time></trkpt><trkpt lat="44.4046172151792" lon="8.995161985714397"><ele>149.0</ele><time>2026-03-22T08:56:10Z</time></trkpt><trkpt lat="44.404637462025065" lon="8.995261319585488"><ele>149.0</ele><time>2026-03-22T08:56:11Z</time></trkpt><trkpt lat="44.40465026189814" lon="8.995406521917895"><ele>149.0</ele><time>2026-03-22T08:56:13Z</time></trkpt><trkpt lat="44.404663176911804" lon="8.995579237247382"><ele>151.2</ele><time>2026-03-22T08:56:15Z</time></trkpt><trkpt lat="44.40463845973972" lon="8.995660650738184"><ele>153.4</ele><time>2026-03-22T08:56:16Z</time></trkpt><trkpt lat="44.40462247663978" lon="8.995820364886614"><ele>155.6</ele><time>2026-03-22T08:56:18Z</time></trkpt><trkpt lat="44.40459207910165" lon="8.99590242508027"><ele>157.8</ele><time>2026-03-22T08:56:19Z</time></trkpt><trkpt lat="44.404514859467724" lon="8.995966315156805"><ele>160.0</ele><time>2026-03-22T08:56:21Z</time></trkpt><trkpt lat="44.4043812374386" lon="8.996001083134312"><ele>161.66666666666669</ele><time>2026-03-22T08:56:23Z</time></trkpt><trkpt lat="44.40430655757135" lon="8.99605948756675"><ele>163.33333333333334</ele><time>2026-03-22T08:56:24Z</time></trkpt><trkpt lat="44.40422631132557" lon="8.996093570745575"><ele>165.0</ele><time>2026-03-22T08:56:25Z</time></trkpt><trkpt lat="44.40414118571308" lon="8.99611784357824"><ele>166.66666666666666</ele><time>2026-03-22T08:56:26Z</time></trkpt><trkpt lat="44.404049275522596" lon="8.996138762104046"><ele>168.33333333333331</ele><time>2026-03-22T08:56:27Z</time></trkpt><trkpt lat="44.40396561568181" lon="8.99616656226773"><ele>170.0</ele><time>2026-03-22T08:56:28Z</time></trkpt><trkpt lat="44.403896678010774" lon="8.996187148321576"><ele>170.0</ele><time>2026-03-22T08:56:29Z</time></trkpt><trkpt lat="44.403830468414" lon="8.996216890157099"><ele>170.0</ele><time>2026-03-22T08:56:30Z</time></trkpt><trkpt lat="44.403746234337085" lon="8.99632104883245"><ele>170.0</ele><time>2026-03-22T08:56:32Z</time></trkpt><trkpt lat="44.403744650450356" lon="8.99643524925948"><ele>170.0</ele><time>2026-03-22T08:56:34Z</time></trkpt><trkpt lat="44.40380653133578" lon="8.996547932373"><ele>170.0</ele><time>2026-03-22T08:56:36Z</time></trkpt><trkpt lat="44.403893571803536" lon="8.996558267365126"><ele>170.0</ele><time>2026-03-22T08:56:38Z</time></trkpt><trkpt lat="44.40398533549334" lon="8.996476537217204"><ele>170.0</ele><time>2026-03-22T08:56:40Z</time></trkpt><trkpt lat="44.40403795883525" lon="8.996411403379273"><ele>170.0</ele><time>2026-03-22T08:56:41Z</time></trkpt><trkpt lat="44.40409285457687" lon="8.996359784773572"><ele>170.0</ele><time>2026-03-22T08:56:42Z</time></trkpt><trkpt lat="44.40419502929723" lon="8.99630209410624"><ele>170.0</ele><time>2026-03-22T08:56:44Z</time></trkpt><trkpt lat="44.4042987325573" lon="8.996279825291353"><ele>170.0</ele><time>2026-03-22T08:56:46Z</time></trkpt><trkpt lat="44.4043698644554" lon="8.996279249463676"><ele>170.0</ele><time>2026-03-22T08:56:47Z</time></trkpt><trkpt lat="44.40444755463372" lon="8.996281273928803"><ele>170.0</ele><time>2026-03-22T08:56:48Z</time></trkpt><trkpt lat="44.40457025997413" lon="8.996329868350397"><ele>170.0</ele><time>2026-03-22T08:56:50Z</time></trkpt><trkpt lat="44.40474882356945" lon="8.996318057548566"><ele>173.4</ele><time>2026-03-22T08:56:52Z</time></trkpt><trkpt lat="44.40482433607512" lon="8.996313243382632"><ele>176.8</ele><time>2026-03-22T08:56:53Z</time></trkpt><trkpt lat="44.40491492316403" lon="8.996323755524836"><ele>180.2</ele><time>2026-03-22T08:56:55Z</time></trkpt><trkpt lat="44.405021576117875" lon="8.996311699468842"><ele>183.6</ele><time>2026-03-22T08:56:57Z</time></trkpt><trkpt lat="44.405076678802644" lon="8.996400770067215"><ele>187.0</ele><time>2026-03-22T08:56:59Z</time></trkpt><trkpt lat="44.40501872378033" lon="8.996521739080924"><ele>187.0</ele><time>2026-03-22T08:57:02Z</time></trkpt><trkpt lat="44.40491211467523" lon="8.996563811314076"><ele>187.0</ele><time>2026-03-22T08:57:04Z</time></trkpt><trkpt lat="44.404846735441346" lon="8.99659089173189"><ele>187.0</ele><time>2026-03-22T08:57:05Z</time></trkpt><trkpt lat="44.40478119639836" lon="8.996616830681003"><ele>187.0</ele><time>2026-03-22T08:57:06Z</time></trkpt><trkpt lat="44.404707661956195" lon="8.996709821619381"><ele>187.0</ele><time>2026-03-22T08:57:08Z</time></trkpt><trkpt lat="44.40471583157941" lon="8.996846642606881"><ele>187.0</ele><time>2026-03-22T08:57:10Z</time></trkpt><trkpt lat="44.40480646758568" lon="8.996952388736329"><ele>187.5</ele><time>2026-03-22T08:57:12Z</time></trkpt><trkpt lat="44.40486818893844" lon="8.996981917966782"><ele>188.0</ele><time>2026-03-22T08:57:13Z</time></trkpt><trkpt lat="44.40493628138619" lon="8.996994980684654"><ele>188.5</ele><time>2026-03-22T08:57:14Z</time></trkpt><trkpt lat="44.40500161687348" lon="8.997011396033157"><ele>189.0</ele><time>2026-03-22T08:57:15Z</time></trkpt><trkpt lat="44.405112106931554" lon="8.997074531694617"><ele>189.5</ele><time>2026-03-22T08:57:17Z</time></trkpt><trkpt lat="44.40517702500578" lon="8.997177500245687"><ele>190.0</ele><time>2026-03-22T08:57:19Z</time></trkpt><trkpt lat="44.40517106010357" lon="8.997273196845285"><ele>190.0</ele><time>2026-03-22T08:57:28Z</time></trkpt><trkpt lat="44.40509409307865" lon="8.99735683725533"><ele>190.0</ele><time>2026-03-22T08:57:30Z</time></trkpt><trkpt lat="44.40501891858213" lon="8.997493938681027"><ele>190.0</ele><time>2026-03-22T08:57:32Z</time></trkpt><trkpt lat="44.40499264793275" lon="8.99757818705069"><ele>190.0</ele><time>2026-03-22T08:57:33Z</time></trkpt><trkpt lat="44.40498514204034" lon="8.997766012825052"><ele>190.0</ele><time>2026-03-22T08:57:35Z</time></trkpt><trkpt lat="44.40500615827428" lon="8.997873601612838"><ele>188.6</ele><time>2026-03-22T08:57:36Z</time></trkpt><trkpt lat="44.405023742550696" lon="8.997972231736153"><ele>187.2</ele><time>2026-03-22T08:57:37Z</time></trkpt><trkpt lat="44.40508159814534" lon="8.998116870566458"><ele>185.8</ele><time>2026-03-22T08:57:39Z</time></trkpt><trkpt lat="44.40520717299987" lon="8.99819520553056"><ele>184.4</ele><time>2026-03-22T08:57:41Z</time></trkpt><trkpt lat="44.405274061211664" lon="8.998257405542885"><ele>183.0</ele><time>2026-03-22T08:57:42Z</time></trkpt><trkpt lat="44.40537074099583" lon="8.998370880826306"><ele>181.2</ele><time>2026-03-22T08:57:44Z</time></trkpt><trkpt lat="44.4054612151687" lon="8.998463845384277"><ele>179.4</ele><time>2026-03-22T08:57:46Z</time></trkpt><trkpt lat="44.40549925664347" lon="8.998633210833056"><ele>177.6</ele><time>2026-03-22T08:57:48Z</time></trkpt><trkpt lat="44.40550808937372" lon="8.99880378860605"><ele>175.79999999999998</ele><time>2026-03-22T08:57:50Z</time></trkpt><trkpt lat="44.405508885568764" lon="8.998897779009708"><ele>174.0</ele><time>2026-03-22T08:57:51Z</time></trkpt><trkpt lat="44.40553240007713" lon="8.999054606888144"><ele>179.5</ele><time>2026-03-22T08:57:53Z</time></trkpt><trkpt lat="44.40555912776692" lon="8.999159688500342"><ele>185.0</ele><time>2026-03-22T08:57:55Z</time></trkpt><trkpt lat="44.40560185613634" lon="8.999244345637376"><ele>190.5</ele><time>2026-03-22T08:57:57Z</time></trkpt><trkpt lat="44.40566866539037" lon="8.999193135253623"><ele>196.0</ele><time>2026-03-22T08:57:59Z</time></trkpt><trkpt lat="44.40566182549571" lon="8.999103448956868"><ele>201.5</ele><time>2026-03-22T08:58:00Z</time></trkpt><trkpt lat="44.40564686404821" lon="8.998973401114363"><ele>207.0</ele><time>2026-03-22T08:58:02Z</time></trkpt><trkpt lat="44.40564846089565" lon="8.998840898392515"><ele>207.16666666666666</ele><time>2026-03-22T08:58:04Z</time></trkpt><trkpt lat="44.405719018664705" lon="8.998732939155024"><ele>207.33333333333331</ele><time>2026-03-22T08:58:06Z</time></trkpt><trkpt lat="44.405780910585975" lon="8.998596761228981"><ele>207.5</ele><time>2026-03-22T08:58:08Z</time></trkpt><trkpt lat="44.405804393829165" lon="8.99849963751529"><ele>207.66666666666666</ele><time>2026-03-22T08:58:09Z</time></trkpt><trkpt lat="44.40580619003172" lon="8.998398237753143"><ele>207.83333333333331</ele><time>2026-03-22T08:58:10Z</time></trkpt><trkpt lat="44.405814901725" lon="8.998303695869255"><ele>208.0</ele><time>2026-03-22T08:58:11Z</time></trkpt><trkpt lat="44.40584961931275" lon="8.998132983220854"><ele>208.0</ele><time>2026-03-22T08:58:13Z</time></trkpt><trkpt lat="44.40584671899944" lon="8.997985179344699"><ele>208.0</ele><time>2026-03-22T08:58:15Z</time></trkpt><trkpt lat="44.405923375231524" lon="8.997887585510771"><ele>208.0</ele><time>2026-03-22T08:58:17Z</time></trkpt><trkpt lat="44.40600216239176" lon="8.997761861898205"><ele>208.0</ele><time>2026-03-22T08:58:19Z</time></trkpt><trkpt lat="44.4060431306955" lon="8.997587456296323"><ele>207.85714285714286</ele><time>2026-03-22T08:58:21Z</time></trkpt><trkpt lat="44.4060687690411" lon="8.997496159291217"><ele>207.71428571428572</ele><time>2026-03-22T08:58:22Z</time></trkpt><trkpt lat="44.40609079010809" lon="8.99740247352448"><ele>207.57142857142858</ele><time>2026-03-22T08:58:23Z</time></trkpt><trkpt lat="44.40612160823086" lon="8.997312784916792"><ele>207.42857142857144</ele><time>2026-03-22T08:58:24Z</time></trkpt><trkpt lat="44.40614499287696" lon="8.997222424897627"><ele>207.28571428571428</ele><time>2026-03-22T08:58:25Z</time></trkpt><trkpt lat="44.40615820371618" lon="8.997125507596627"><ele>207.14285714285717</ele><time>2026-03-22T08:58:26Z</time></trkpt><trkpt lat="44.406139919368286" lon="8.997014656415876"><ele>207.0</ele><time>2026-03-22T08:58:27Z</time></trkpt><trkpt lat="44.406147266940756" lon="8.996908306546525"><ele>207.0</ele><time>2026-03-22T08:58:28Z</time></trkpt><trkpt lat="44.40615326274316" lon="8.996790080926266"><ele>207.0</ele><time>2026-03-22T08:58:29Z</time></trkpt><trkpt lat="44.406164534088845" lon="8.996673282835443"><ele>207.0</ele><time>2026-03-22T08:58:30Z</time></trkpt><trkpt lat="44.40616931710557" lon="8.99655745655953"><ele>207.0</ele><time>2026-03-22T08:58:31Z</time></trkpt><trkpt lat="44.40619043939097" lon="8.996391080999445"><ele>207.0</ele><time>2026-03-22T08:58:33Z</time></trkpt><trkpt lat="44.40619746535424" lon="8.996299345459951"><ele>207.0</ele><time>2026-03-22T08:58:34Z</time></trkpt><trkpt lat="44.40624441009776" lon="8.996166479703943"><ele>207.16666666666666</ele><time>2026-03-22T08:58:36Z</time></trkpt><trkpt lat="44.40630885645053" lon="8.99607966997557"><ele>207.33333333333331</ele><time>2026-03-22T08:58:38Z</time></trkpt><trkpt lat="44.40641256978118" lon="8.996048675535791"><ele>207.5</ele><time>2026-03-22T08:58:40Z</time></trkpt><trkpt lat="44.4064754523485" lon="8.996053798335783"><ele>207.66666666666666</ele><time>2026-03-22T08:58:41Z</time></trkpt><trkpt lat="44.406535899693395" lon="8.996084472061955"><ele>207.83333333333331</ele><time>2026-03-22T08:58:42Z</time></trkpt><trkpt lat="44.4066493553701" lon="8.996119973780873"><ele>208.0</ele><time>2026-03-22T08:58:44Z</time></trkpt><trkpt lat="44.40673667641987" lon="8.996162373614027"><ele>211.66666666666666</ele><time>2026-03-22T08:58:45Z</time></trkpt><trkpt lat="44.40680612363368" lon="8.996195593403032"><ele>215.33333333333331</ele><time>2026-03-22T08:58:46Z</time></trkpt><trkpt lat="44.40687126165604" lon="8.996213912788365"><ele>219.0</ele><time>2026-03-22T08:58:47Z</time></trkpt><trkpt lat="44.406946318086646" lon="8.996208897474087"><ele>222.66666666666669</ele><time>2026-03-22T08:58:48Z</time></trkpt><trkpt lat="44.40701939112132" lon="8.99620755436393"><ele>226.33333333333334</ele><time>2026-03-22T08:58:49Z</time></trkpt><trkpt lat="44.407102747915104" lon="8.996177696965386"><ele>230.0</ele><time>2026-03-22T08:58:50Z</time></trkpt><trkpt lat="44.40717585701409" lon="8.99614680055548"><ele>233.33333333333334</ele><time>2026-03-22T08:58:51Z</time></trkpt><trkpt lat="44.4072722593526" lon="8.996130733037258"><ele>236.66666666666669</ele><time>2026-03-22T08:58:52Z</time></trkpt><trkpt lat="44.40735756520265" lon="8.996110165636145"><ele>240.0</ele><time>2026-03-22T08:58:53Z</time></trkpt><trkpt lat="44.407435577343094" lon="8.996088862007255"><ele>243.33333333333331</ele><time>2026-03-22T08:58:54Z</time></trkpt><trkpt lat="44.40754724584552" lon="8.99608631223814"><ele>246.66666666666666</ele><time>2026-03-22T08:58:56Z</time></trkpt><trkpt lat="44.4076098727856" lon="8.996050688475245"><ele>250.0</ele><time>2026-03-22T08:58:57Z</time></trkpt><trkpt lat="44.4076668334801" lon="8.99600768305386"><ele>250.0</ele><time>2026-03-22T08:58:58Z</time></trkpt><trkpt lat="44.40772822551091" lon="8.995953094695421"><ele>250.0</ele><time>2026-03-22T08:58:59Z</time></trkpt><trkpt lat="44.407784904417795" lon="8.995890649266622"><ele>250.0</ele><time>2026-03-22T08:59:00Z</time></trkpt><trkpt lat="44.407814841686495" lon="8.995799024025686"><ele>250.0</ele><time>2026-03-22T08:59:01Z</time></trkpt><trkpt lat="44.40784674319749" lon="8.99569275397059"><ele>250.0</ele><time>2026-03-22T08:59:02Z</time></trkpt><trkpt lat="44.407880909593324" lon="8.995606205442142"><ele>250.0</ele><time>2026-03-22T08:59:03Z</time></trkpt><trkpt lat="44.4078950881788" lon="8.995516814398364"><ele>250.0</ele><time>2026-03-22T08:59:04Z</time></trkpt><trkpt lat="44.40791962699408" lon="8.995387729208032"><ele>249.2</ele><time>2026-03-22T08:59:06Z</time></trkpt><trkpt lat="44.407973065426994" lon="8.995307662591792"><ele>248.4</ele><time>2026-03-22T08:59:08Z</time></trkpt><trkpt lat="44.40804719162192" lon="8.995284248829574"><ele>247.60000000000002</ele><time>2026-03-22T08:59:10Z</time></trkpt><trkpt lat="44.40809512774402" lon="8.995343925579181"><ele>246.8</ele><time>2026-03-22T08:59:11Z</time></trkpt><trkpt lat="44.40820242006866" lon="8.995411109936255"><ele>246.0</ele><time>2026-03-22T08:59:13Z</time></trkpt><trkpt lat="44.4083000078726" lon="8.995506421955808"><ele>246.0</ele><time>2026-03-22T08:59:15Z</time></trkpt><trkpt lat="44.40838675814487" lon="8.995628284717151"><ele>246.0</ele><time>2026-03-22T08:59:17Z</time></trkpt><trkpt lat="44.40841428170422" lon="8.995720708097616"><ele>246.0</ele><time>2026-03-22T08:59:18Z</time></trkpt><trkpt lat="44.40845139244748" lon="8.995793358609218"><ele>246.0</ele><time>2026-03-22T08:59:19Z</time></trkpt><trkpt lat="44.40849586485735" lon="8.995857334695627"><ele>246.0</ele><time>2026-03-22T08:59:20Z</time></trkpt><trkpt lat="44.408549472683454" lon="8.995912557081923"><ele>246.0</ele><time>2026-03-22T08:59:21Z</time></trkpt><trkpt lat="44.40865447761494" lon="8.99597575242984"><ele>248.5</ele><time>2026-03-22T08:59:23Z</time></trkpt><trkpt lat="44.408717484890275" lon="8.99605803025986"><ele>251.0</ele><time>2026-03-22T08:59:25Z</time></trkpt><trkpt lat="44.40872348504626" lon="8.996152689620072"><ele>253.5</ele><time>2026-03-22T08:59:27Z</time></trkpt><trkpt lat="44.408687905882616" lon="8.99624315593593"><ele>256.0</ele><time>2026-03-22T08:59:29Z</time></trkpt><trkpt lat="44.408626039904796" lon="8.996262256691875"><ele>258.5</ele><time>2026-03-22T08:59:32Z</time></trkpt><trkpt lat="44.40854419619153" lon="8.996168380500935"><ele>261.0</ele><time>2026-03-22T08:59:35Z</time></trkpt><trkpt lat="44.4084731318244" lon="8.996084726275958"><ele>261.0</ele><time>2026-03-22T08:59:37Z</time></trkpt><trkpt lat="44.40838019504438" lon="8.996089149780785"><ele>261.0</ele><time>2026-03-22T08:59:39Z</time></trkpt><trkpt lat="44.40830411550686" lon="8.996210697580839"><ele>261.0</ele><time>2026-03-22T08:59:41Z</time></trkpt><trkpt lat="44.40827561337649" lon="8.996299079352971"><ele>261.0</ele><time>2026-03-22T08:59:42Z</time></trkpt><trkpt lat="44.4082430152253" lon="8.99639037088608"><ele>261.0</ele><time>2026-03-22T08:59:43Z</time></trkpt><trkpt lat="44.40820762282916" lon="8.996486379084285"><ele>261.0</ele><time>2026-03-22T08:59:44Z</time></trkpt><trkpt lat="44.408173749831214" lon="8.996589749964384"><ele>261.0</ele><time>2026-03-22T08:59:45Z</time></trkpt><trkpt lat="44.408144869704905" lon="8.996686900553417"><ele>261.0</ele><time>2026-03-22T08:59:46Z</time></trkpt><trkpt lat="44.40811985016389" lon="8.996771064341512"><ele>261.0</ele><time>2026-03-22T08:59:47Z</time></trkpt><trkpt lat="44.408092563648786" lon="8.996862854117447"><ele>261.0</ele><time>2026-03-22T08:59:48Z</time></trkpt><trkpt lat="44.408057264718984" lon="8.996980452458859"><ele>261.0</ele><time>2026-03-22T08:59:50Z</time></trkpt><trkpt lat="44.40799956848425" lon="8.997122056632946"><ele>261.0</ele><time>2026-03-22T08:59:52Z</time></trkpt><trkpt lat="44.40795477668225" lon="8.997188895794796"><ele>261.0</ele><time>2026-03-22T08:59:53Z</time></trkpt><trkpt lat="44.40790595419915" lon="8.997253525789493"><ele>261.0</ele><time>2026-03-22T08:59:54Z</time></trkpt><trkpt lat="44.40785431402623" lon="8.997316482409486"><ele>261.0</ele><time>2026-03-22T08:59:55Z</time></trkpt><trkpt lat="44.40780966421648" lon="8.997380078091684"><ele>261.0</ele><time>2026-03-22T08:59:56Z</time></trkpt><trkpt lat="44.40774889508057" lon="8.997516892534392"><ele>261.0</ele><time>2026-03-22T08:59:58Z</time></trkpt><trkpt lat="44.407771409282454" lon="8.997659691913446"><ele>261.0</ele><time>2026-03-22T09:00:00Z</time></trkpt><trkpt lat="44.40781154559783" lon="8.997758199869088"><ele>260.40000000000003</ele><time>2026-03-22T09:00:02Z</time></trkpt><trkpt lat="44.40791064879495" lon="8.997876688811886"><ele>259.8</ele><time>2026-03-22T09:00:04Z</time></trkpt><trkpt lat="44.40796539577958" lon="8.997934663029255"><ele>259.20000000000005</ele><time>2026-03-22T09:00:05Z</time></trkpt><trkpt lat="44.40800211221537" lon="8.998015028925586"><ele>258.6</ele><time>2026-03-22T09:00:06Z</time></trkpt><trkpt lat="44.40806407221279" lon="8.99816927714585"><ele>258.0</ele><time>2026-03-22T09:00:08Z</time></trkpt><trkpt lat="44.408094943134806" lon="8.998288182451143"><ele>262.3333333333333</ele><time>2026-03-22T09:00:10Z</time></trkpt><trkpt lat="44.408054966188" lon="8.99841672473659"><ele>266.6666666666667</ele><time>2026-03-22T09:00:12Z</time></trkpt><trkpt lat="44.408046494212456" lon="8.998512987725995"><ele>271.0</ele><time>2026-03-22T09:00:13Z</time></trkpt><trkpt lat="44.408040556543845" lon="8.9986743532257"><ele>275.33333333333337</ele><time>2026-03-22T09:00:15Z</time></trkpt><trkpt lat="44.40805051187088" lon="8.998774208345129"><ele>279.6666666666667</ele><time>2026-03-22T09:00:16Z</time></trkpt><trkpt lat="44.40805310430457" lon="8.998899838378666"><ele>284.0</ele><time>2026-03-22T09:00:18Z</time></trkpt><trkpt lat="44.40804808094514" lon="8.999008667495726"><ele>284.0</ele><time>2026-03-22T09:00:20Z</time></trkpt><trkpt lat="44.408072406043175" lon="8.999096100528241"><ele>284.0</ele><time>2026-03-22T09:00:22Z</time></trkpt><trkpt lat="44.408084204861304" lon="8.999183921242736"><ele>284.0</ele><time>2026-03-22T09:00:27Z</time></trkpt><trkpt lat="44.40815914306807" lon="8.99943973818006"><ele>284.0</ele><time>2026-03-22T09:01:15Z</time></trkpt><trkpt lat="44.408174849871386" lon="8.99953688469848"><ele>284.0</ele><time>2026-03-22T09:01:16Z</time></trkpt><trkpt lat="44.40816122682014" lon="8.999645854136526"><ele>284.6666666666667</ele><time>2026-03-22T09:01:17Z</time></trkpt><trkpt lat="44.40816879660216" lon="8.999825036734958"><ele>285.33333333333337</ele><time>2026-03-22T09:01:19Z</time></trkpt><trkpt lat="44.408170122164165" lon="8.999944305680328"><ele>286.0</ele><time>2026-03-22T09:01:20Z</time></trkpt><trkpt lat="44.40817193884991" lon="9.000042211057215"><ele>286.6666666666667</ele><time>2026-03-22T09:01:21Z</time></trkpt><trkpt lat="44.408180510323355" lon="9.000140810587824"><ele>287.3333333333333</ele><time>2026-03-22T09:01:22Z</time></trkpt><trkpt lat="44.408215301057766" lon="9.000240564361798"><ele>288.0</ele><time>2026-03-22T09:01:23Z</time></trkpt><trkpt lat="44.40826160778793" lon="9.000313492891019"><ele>288.0</ele><time>2026-03-22T09:01:24Z</time></trkpt><trkpt lat="44.40828375211606" lon="9.000467585647588"><ele>288.0</ele><time>2026-03-22T09:01:26Z</time></trkpt><trkpt lat="44.40827997566457" lon="9.000581293075074"><ele>288.0</ele><time>2026-03-22T09:01:28Z</time></trkpt><trkpt lat="44.40825884491283" lon="9.000668030564558"><ele>288.0</ele><time>2026-03-22T09:01:32Z</time></trkpt><trkpt lat="44.40829982188041" lon="9.000762818736117"><ele>288.0</ele><time>2026-03-22T09:01:57Z</time></trkpt><trkpt lat="44.408278003701234" lon="9.000877630796772"><ele>288.0</ele><time>2026-03-22T09:01:59Z</time></trkpt><trkpt lat="44.40826470848263" lon="9.001020229798787"><ele>289.0</ele><time>2026-03-22T09:02:01Z</time></trkpt><trkpt lat="44.40825608459187" lon="9.001110532804136"><ele>290.0</ele><time>2026-03-22T09:02:02Z</time></trkpt><trkpt lat="44.40825371047769" lon="9.001300091928407"><ele>291.0</ele><time>2026-03-22T09:02:04Z</time></trkpt><trkpt lat="44.4082086128052" lon="9.001385819678745"><ele>292.0</ele><time>2026-03-22T09:02:05Z</time></trkpt><trkpt lat="44.408199320593226" lon="9.001489892401192"><ele>293.0</ele><time>2026-03-22T09:02:06Z</time></trkpt><trkpt lat="44.408189834567395" lon="9.00159613600462"><ele>294.0</ele><time>2026-03-22T09:02:07Z</time></trkpt><trkpt lat="44.40817884636996" lon="9.001704754700015"><ele>294.8</ele><time>2026-03-22T09:02:08Z</time></trkpt><trkpt lat="44.40816710068568" lon="9.001815242933617"><ele>295.59999999999997</ele><time>2026-03-22T09:02:09Z</time></trkpt><trkpt lat="44.4081444987905" lon="9.001988476056313"><ele>296.4</ele><time>2026-03-22T09:02:11Z</time></trkpt><trkpt lat="44.40812365393582" lon="9.002149093161867"><ele>297.2</ele><time>2026-03-22T09:02:13Z</time></trkpt><trkpt lat="44.40808536972299" lon="9.002230059242047"><ele>298.0</ele><time>2026-03-22T09:02:14Z</time></trkpt><trkpt lat="44.4080211647376" lon="9.002391853492135"><ele>295.66666666666663</ele><time>2026-03-22T09:02:16Z</time></trkpt><trkpt lat="44.40798084092897" lon="9.002480281422251"><ele>293.3333333333333</ele><time>2026-03-22T09:02:17Z</time></trkpt><trkpt lat="44.40793972626251" lon="9.002577330583796"><ele>291.0</ele><time>2026-03-22T09:02:18Z</time></trkpt><trkpt lat="44.407900769231716" lon="9.00267563502101"><ele>288.6666666666667</ele><time>2026-03-22T09:02:19Z</time></trkpt><trkpt lat="44.40786511777148" lon="9.002779066219823"><ele>286.33333333333337</ele><time>2026-03-22T09:02:20Z</time></trkpt><trkpt lat="44.40785050953666" lon="9.00288859269776"><ele>284.0</ele><time>2026-03-22T09:02:21Z</time></trkpt><trkpt lat="44.407833409075764" lon="9.002988400042685"><ele>284.0</ele><time>2026-03-22T09:02:22Z</time></trkpt><trkpt lat="44.407824331365475" lon="9.003091378288225"><ele>284.0</ele><time>2026-03-22T09:02:23Z</time></trkpt><trkpt lat="44.407807116006076" lon="9.003186005421105"><ele>284.0</ele><time>2026-03-22T09:02:24Z</time></trkpt><trkpt lat="44.407785292398465" lon="9.003280491125128"><ele>284.0</ele><time>2026-03-22T09:02:25Z</time></trkpt><trkpt lat="44.40778992505607" lon="9.00336997558826"><ele>284.0</ele><time>2026-03-22T09:02:26Z</time></trkpt><trkpt lat="44.407816856000835" lon="9.003514194859298"><ele>284.0</ele><time>2026-03-22T09:02:28Z</time></trkpt><trkpt lat="44.407859218955366" lon="9.003588295528933"><ele>285.33333333333337</ele><time>2026-03-22T09:02:29Z</time></trkpt><trkpt lat="44.407957586482205" lon="9.003685264760541"><ele>286.6666666666667</ele><time>2026-03-22T09:02:31Z</time></trkpt><trkpt lat="44.40800785377454" lon="9.003741692544041"><ele>288.0</ele><time>2026-03-22T09:02:32Z</time></trkpt><trkpt lat="44.40805321936858" lon="9.003804682367079"><ele>289.3333333333333</ele><time>2026-03-22T09:02:33Z</time></trkpt><trkpt lat="44.408103786527704" lon="9.00387879512954"><ele>290.66666666666663</ele><time>2026-03-22T09:02:34Z</time></trkpt><trkpt lat="44.40815110093963" lon="9.00394911825589"><ele>292.0</ele><time>2026-03-22T09:02:35Z</time></trkpt><trkpt lat="44.40820397472354" lon="9.00402532632944"><ele>296.5</ele><time>2026-03-22T09:02:36Z</time></trkpt><trkpt lat="44.408240698449184" lon="9.00411284764736"><ele>301.0</ele><time>2026-03-22T09:02:37Z</time></trkpt><trkpt lat="44.40826365170597" lon="9.004195476808391"><ele>305.5</ele><time>2026-03-22T09:02:38Z</time></trkpt><trkpt lat="44.408279824304714" lon="9.004284356725337"><ele>310.0</ele><time>2026-03-22T09:02:39Z</time></trkpt><trkpt lat="44.40829609016508" lon="9.004421011356204"><ele>314.5</ele><time>2026-03-22T09:02:40Z</time></trkpt><trkpt lat="44.40830779041548" lon="9.004536990747358"><ele>319.0</ele><time>2026-03-22T09:02:41Z</time></trkpt><trkpt lat="44.40832825769401" lon="9.004645954678315"><ele>319.0</ele><time>2026-03-22T09:02:42Z</time></trkpt><trkpt lat="44.4083485084766" lon="9.00475596236301"><ele>319.0</ele><time>2026-03-22T09:02:43Z</time></trkpt><trkpt lat="44.40835602160301" lon="9.00487548423519"><ele>319.0</ele><time>2026-03-22T09:02:44Z</time></trkpt><trkpt lat="44.40838486319452" lon="9.004968931768916"><ele>319.0</ele><time>2026-03-22T09:02:45Z</time></trkpt><trkpt lat="44.408413664903016" lon="9.005106643386991"><ele>319.0</ele><time>2026-03-22T09:02:46Z</time></trkpt><trkpt lat="44.40844497828006" lon="9.005206834319086"><ele>319.0</ele><time>2026-03-22T09:02:47Z</time></trkpt><trkpt lat="44.40848011291432" lon="9.005308792772151"><ele>318.5</ele><time>2026-03-22T09:02:48Z</time></trkpt><trkpt lat="44.40851204920012" lon="9.005394825493132"><ele>318.0</ele><time>2026-03-22T09:02:49Z</time></trkpt><trkpt lat="44.408548680019635" lon="9.005476492587736"><ele>317.5</ele><time>2026-03-22T09:02:50Z</time></trkpt><trkpt lat="44.408578895729406" lon="9.005577690186906"><ele>317.0</ele><time>2026-03-22T09:02:51Z</time></trkpt><trkpt lat="44.40862838469894" lon="9.005666361979367"><ele>316.5</ele><time>2026-03-22T09:02:52Z</time></trkpt><trkpt lat="44.408698609740895" lon="9.005741042780292"><ele>316.0</ele><time>2026-03-22T09:02:53Z</time></trkpt><trkpt lat="44.40875099998067" lon="9.005836221899168"><ele>315.8333333333333</ele><time>2026-03-22T09:02:54Z</time></trkpt><trkpt lat="44.40880000117753" lon="9.005929077667782"><ele>315.66666666666663</ele><time>2026-03-22T09:02:55Z</time></trkpt><trkpt lat="44.40884922062351" lon="9.006025113218865"><ele>315.5</ele><time>2026-03-22T09:02:56Z</time></trkpt><trkpt lat="44.408891405829216" lon="9.00611724627937"><ele>315.3333333333333</ele><time>2026-03-22T09:02:57Z</time></trkpt><trkpt lat="44.408907274443195" lon="9.006213215000061"><ele>315.1666666666667</ele><time>2026-03-22T09:02:58Z</time></trkpt><trkpt lat="44.40892236420177" lon="9.006300448116567"><ele>315.0</ele><time>2026-03-22T09:02:59Z</time></trkpt><trkpt lat="44.40891447922641" lon="9.0064771397646"><ele>315.14285714285717</ele><time>2026-03-22T09:03:01Z</time></trkpt><trkpt lat="44.408897708932905" lon="9.006564437653498"><ele>315.2857142857143</ele><time>2026-03-22T09:03:02Z</time></trkpt><trkpt lat="44.408868656426876" lon="9.00664745549543"><ele>315.42857142857144</ele><time>2026-03-22T09:03:03Z</time></trkpt><trkpt lat="44.408835839849885" lon="9.006738189107308"><ele>315.57142857142856</ele><time>2026-03-22T09:03:04Z</time></trkpt><trkpt lat="44.408798691653026" lon="9.006819502907657"><ele>315.7142857142857</ele><time>2026-03-22T09:03:05Z</time></trkpt><trkpt lat="44.40875843071409" lon="9.006913281671029"><ele>315.8571428571429</ele><time>2026-03-22T09:03:06Z</time></trkpt><trkpt lat="44.40871996629385" lon="9.00700583536222"><ele>316.0</ele><time>2026-03-22T09:03:07Z</time></trkpt><trkpt lat="44.40868352184344" lon="9.007089495591877"><ele>316.0</ele><time>2026-03-22T09:03:08Z</time></trkpt><trkpt lat="44.40865204716516" lon="9.007187141140504"><ele>316.0</ele><time>2026-03-22T09:03:09Z</time></trkpt><trkpt lat="44.408621948537196" lon="9.00728895668586"><ele>316.0</ele><time>2026-03-22T09:03:10Z</time></trkpt><trkpt lat="44.408621812498446" lon="9.00741358416321"><ele>316.0</ele><time>2026-03-22T09:03:11Z</time></trkpt><trkpt lat="44.40861490994976" lon="9.007527913747918"><ele>316.0</ele><time>2026-03-22T09:03:12Z</time></trkpt><trkpt lat="44.40860028754118" lon="9.007642972665835"><ele>316.0</ele><time>2026-03-22T09:03:13Z</time></trkpt><trkpt lat="44.40857791893717" lon="9.007744650190164"><ele>318.16666666666663</ele><time>2026-03-22T09:03:14Z</time></trkpt><trkpt lat="44.408554631170894" lon="9.007839625518272"><ele>320.3333333333333</ele><time>2026-03-22T09:03:15Z</time></trkpt><trkpt lat="44.40851005442283" lon="9.00792554366018"><ele>322.5</ele><time>2026-03-22T09:03:16Z</time></trkpt><trkpt lat="44.40845754735688" lon="9.008011498772545"><ele>324.6666666666667</ele><time>2026-03-22T09:03:17Z</time></trkpt><trkpt lat="44.40840562392006" lon="9.00810275407063"><ele>326.83333333333337</ele><time>2026-03-22T09:03:18Z</time></trkpt><trkpt lat="44.40836372093573" lon="9.008200700800868"><ele>329.0</ele><time>2026-03-22T09:03:19Z</time></trkpt><trkpt lat="44.40835043329807" lon="9.008300207821447"><ele>331.1666666666667</ele><time>2026-03-22T09:03:20Z</time></trkpt><trkpt lat="44.40832723613286" lon="9.008391480226104"><ele>333.33333333333337</ele><time>2026-03-22T09:03:21Z</time></trkpt><trkpt lat="44.40832439708635" lon="9.008502738283358"><ele>335.5</ele><time>2026-03-22T09:03:22Z</time></trkpt><trkpt lat="44.408316470450615" lon="9.008622145539729"><ele>337.6666666666667</ele><time>2026-03-22T09:03:23Z</time></trkpt><trkpt lat="44.40828254531308" lon="9.008739202496947"><ele>339.8333333333333</ele><time>2026-03-22T09:03:24Z</time></trkpt><trkpt lat="44.40828641313094" lon="9.008843726646338"><ele>342.0</ele><time>2026-03-22T09:03:25Z</time></trkpt><trkpt lat="44.4082574866163" lon="9.008947665533176"><ele>342.0</ele><time>2026-03-22T09:03:26Z</time></trkpt><trkpt lat="44.40824136263883" lon="9.00908936116422"><ele>342.0</ele><time>2026-03-22T09:03:27Z</time></trkpt><trkpt lat="44.408240457358325" lon="9.009230142440128"><ele>342.0</ele><time>2026-03-22T09:03:28Z</time></trkpt><trkpt lat="44.40823334928138" lon="9.009374350923276"><ele>342.0</ele><time>2026-03-22T09:03:29Z</time></trkpt><trkpt lat="44.408214539829586" lon="9.009526728712602"><ele>342.0</ele><time>2026-03-22T09:03:30Z</time></trkpt><trkpt lat="44.40821440601411" lon="9.009669949941966"><ele>343.8</ele><time>2026-03-22T09:03:31Z</time></trkpt><trkpt lat="44.40821550975504" lon="9.009803617969112"><ele>345.6</ele><time>2026-03-22T09:03:32Z</time></trkpt><trkpt lat="44.40820054131042" lon="9.009940504529542"><ele>347.40000000000003</ele><time>2026-03-22T09:03:33Z</time></trkpt><trkpt lat="44.40817733344238" lon="9.010053115293879"><ele>349.20000000000005</ele><time>2026-03-22T09:03:34Z</time></trkpt><trkpt lat="44.40815580231182" lon="9.01016597058207"><ele>351.0</ele><time>2026-03-22T09:03:35Z</time></trkpt><trkpt lat="44.40810684981703" lon="9.01027035679514"><ele>350.4</ele><time>2026-03-22T09:03:36Z</time></trkpt><trkpt lat="44.40805501132362" lon="9.010415006353604"><ele>349.8</ele><time>2026-03-22T09:03:37Z</time></trkpt><trkpt lat="44.40802136969675" lon="9.010559888192807"><ele>349.2</ele><time>2026-03-22T09:03:38Z</time></trkpt><trkpt lat="44.40797447577701" lon="9.010691874010332"><ele>348.59999999999997</ele><time>2026-03-22T09:03:39Z</time></trkpt><trkpt lat="44.407924100396244" lon="9.010820797980202"><ele>348.0</ele><time>2026-03-22T09:03:40Z</time></trkpt><trkpt lat="44.40788202468646" lon="9.01094366222103"><ele>348.0</ele><time>2026-03-22T09:03:41Z</time></trkpt><trkpt lat="44.407852251838264" lon="9.011047475352775"><ele>348.0</ele><time>2026-03-22T09:03:42Z</time></trkpt><trkpt lat="44.40781480032839" lon="9.011170956622502"><ele>348.0</ele><time>2026-03-22T09:03:43.001Z</time></trkpt><trkpt lat="44.40777731184148" lon="9.01129440186992"><ele>348.0</ele><time>2026-03-22T09:03:44Z</time></trkpt><trkpt lat="44.40774684356966" lon="9.011410352140764"><ele>348.0</ele><time>2026-03-22T09:03:45Z</time></trkpt><trkpt lat="44.40771772764697" lon="9.011526260541082"><ele>348.0</ele><time>2026-03-22T09:03:46Z</time></trkpt><trkpt lat="44.4076881414002" lon="9.01163392967284"><ele>351.5</ele><time>2026-03-22T09:03:47Z</time></trkpt><trkpt lat="44.407654820601095" lon="9.011724707833082"><ele>355.0</ele><time>2026-03-22T09:03:48Z</time></trkpt><trkpt lat="44.40759707044744" lon="9.01182074768716"><ele>358.5</ele><time>2026-03-22T09:03:49Z</time></trkpt><trkpt lat="44.40754562697983" lon="9.011904842488724"><ele>362.0</ele><time>2026-03-22T09:03:50Z</time></trkpt><trkpt lat="44.40748321570308" lon="9.011979657362545"><ele>365.5</ele><time>2026-03-22T09:03:51Z</time></trkpt><trkpt lat="44.40741976047002" lon="9.012032602197765"><ele>369.0</ele><time>2026-03-22T09:03:52Z</time></trkpt><trkpt lat="44.407357212830085" lon="9.012122274374562"><ele>369.0</ele><time>2026-03-22T09:03:53Z</time></trkpt><trkpt lat="44.40730558924633" lon="9.012211891935417"><ele>369.0</ele><time>2026-03-22T09:03:54Z</time></trkpt><trkpt lat="44.40724904175597" lon="9.012310057223234"><ele>369.0</ele><time>2026-03-22T09:03:55Z</time></trkpt><trkpt lat="44.4071926464124" lon="9.012398151889254"><ele>369.0</ele><time>2026-03-22T09:03:56Z</time></trkpt><trkpt lat="44.407145680946655" lon="9.012482671676127"><ele>369.0</ele><time>2026-03-22T09:03:57Z</time></trkpt><trkpt lat="44.40706182165663" lon="9.012522797561521"><ele>369.0</ele><time>2026-03-22T09:03:58Z</time></trkpt><trkpt lat="44.406988299163245" lon="9.012580656797567"><ele>371.0</ele><time>2026-03-22T09:03:59Z</time></trkpt><trkpt lat="44.406923442196295" lon="9.012628774318019"><ele>373.0</ele><time>2026-03-22T09:04:00Z</time></trkpt><trkpt lat="44.40685942797608" lon="9.012668751414061"><ele>375.0</ele><time>2026-03-22T09:04:01Z</time></trkpt><trkpt lat="44.40678508553459" lon="9.012702667966437"><ele>377.0</ele><time>2026-03-22T09:04:02Z</time></trkpt><trkpt lat="44.4067166760499" lon="9.012721318568868"><ele>379.0</ele><time>2026-03-22T09:04:03Z</time></trkpt><trkpt lat="44.406643850457094" lon="9.012737616933977"><ele>381.0</ele><time>2026-03-22T09:04:04Z</time></trkpt><trkpt lat="44.40654952877914" lon="9.012761632131005"><ele>381.0</ele><time>2026-03-22T09:04:05Z</time></trkpt><trkpt lat="44.40647285854795" lon="9.012783921061633"><ele>381.0</ele><time>2026-03-22T09:04:06Z</time></trkpt><trkpt lat="44.406350881302465" lon="9.012816744582508"><ele>381.0</ele><time>2026-03-22T09:04:08Z</time></trkpt><trkpt lat="44.40623721565898" lon="9.012844749173526"><ele>381.0</ele><time>2026-03-22T09:04:10Z</time></trkpt><trkpt lat="44.40617496654434" lon="9.012862172742956"><ele>381.0</ele><time>2026-03-22T09:04:11Z</time></trkpt><trkpt lat="44.40611217180726" lon="9.012894053936085"><ele>381.0</ele><time>2026-03-22T09:04:12Z</time></trkpt><trkpt lat="44.40601422716861" lon="9.012996389735486"><ele>379.6666666666667</ele><time>2026-03-22T09:04:14Z</time></trkpt><trkpt lat="44.40594797532515" lon="9.01304124302359"><ele>378.3333333333333</ele><time>2026-03-22T09:04:15Z</time></trkpt><trkpt lat="44.40589952346369" lon="9.013113463529526"><ele>377.0</ele><time>2026-03-22T09:04:16Z</time></trkpt><trkpt lat="44.405858389298864" lon="9.01322779457324"><ele>375.66666666666663</ele><time>2026-03-22T09:04:17Z</time></trkpt><trkpt lat="44.405793891159064" lon="9.013337186363273"><ele>374.3333333333333</ele><time>2026-03-22T09:04:19Z</time></trkpt><trkpt lat="44.4057496744324" lon="9.013444937108117"><ele>373.0</ele><time>2026-03-22T09:04:21Z</time></trkpt><trkpt lat="44.40570562298515" lon="9.013517303294257"><ele>376.3333333333333</ele><time>2026-03-22T09:04:22Z</time></trkpt><trkpt lat="44.4056805128426" lon="9.013602619315403"><ele>379.66666666666663</ele><time>2026-03-22T09:04:23Z</time></trkpt><trkpt lat="44.40566105987664" lon="9.013777586092688"><ele>383.0</ele><time>2026-03-22T09:04:25Z</time></trkpt><trkpt lat="44.40566303400392" lon="9.013883297894758"><ele>386.3333333333333</ele><time>2026-03-22T09:04:26Z</time></trkpt><trkpt lat="44.40566448802244" lon="9.013987714590824"><ele>389.6666666666667</ele><time>2026-03-22T09:04:27Z</time></trkpt><trkpt lat="44.40566607546122" lon="9.014101712230847"><ele>393.0</ele><time>2026-03-22T09:04:28Z</time></trkpt><trkpt lat="44.40566878341118" lon="9.014206876198232"><ele>395.3333333333333</ele><time>2026-03-22T09:04:29Z</time></trkpt><trkpt lat="44.40567125208418" lon="9.014309719325725"><ele>397.66666666666663</ele><time>2026-03-22T09:04:30Z</time></trkpt><trkpt lat="44.40566916620862" lon="9.014427181878165"><ele>400.0</ele><time>2026-03-22T09:04:31Z</time></trkpt><trkpt lat="44.40566309287707" lon="9.014545799730062"><ele>402.3333333333333</ele><time>2026-03-22T09:04:32Z</time></trkpt><trkpt lat="44.405656441281316" lon="9.014664018312619"><ele>404.66666666666663</ele><time>2026-03-22T09:04:33Z</time></trkpt><trkpt lat="44.40564876069093" lon="9.014778971068356"><ele>407.0</ele><time>2026-03-22T09:04:34Z</time></trkpt><trkpt lat="44.405640059998596" lon="9.014882477219567"><ele>406.99999999999994</ele><time>2026-03-22T09:04:35Z</time></trkpt><trkpt lat="44.4056247328169" lon="9.014985111595673"><ele>407.0</ele><time>2026-03-22T09:04:36Z</time></trkpt><trkpt lat="44.405605629885336" lon="9.01509634113498"><ele>407.0</ele><time>2026-03-22T09:04:37Z</time></trkpt><trkpt lat="44.4055866802077" lon="9.015197981199785"><ele>407.0</ele><time>2026-03-22T09:04:38Z</time></trkpt><trkpt lat="44.405563050696664" lon="9.015303168378768"><ele>406.99999999999994</ele><time>2026-03-22T09:04:39Z</time></trkpt><trkpt lat="44.40553864571117" lon="9.015415690089755"><ele>407.0</ele><time>2026-03-22T09:04:40Z</time></trkpt><trkpt lat="44.40551282547776" lon="9.015530141522358"><ele>403.16666666666663</ele><time>2026-03-22T09:04:41Z</time></trkpt><trkpt lat="44.405488124362265" lon="9.01563935115544"><ele>399.3333333333333</ele><time>2026-03-22T09:04:42Z</time></trkpt><trkpt lat="44.405462894143525" lon="9.015743378259044"><ele>395.5</ele><time>2026-03-22T09:04:43Z</time></trkpt><trkpt lat="44.405438306234295" lon="9.01584269802789"><ele>391.66666666666663</ele><time>2026-03-22T09:04:44Z</time></trkpt><trkpt lat="44.40541242754353" lon="9.015994038203072"><ele>387.8333333333333</ele><time>2026-03-22T09:04:46Z</time></trkpt><trkpt lat="44.40543339593416" lon="9.016117543931589"><ele>384.0</ele><time>2026-03-22T09:04:48Z</time></trkpt><trkpt lat="44.405514653625104" lon="9.016130201423511"><ele>391.4</ele><time>2026-03-22T09:04:50Z</time></trkpt><trkpt lat="44.40557980610648" lon="9.016042190903153"><ele>398.79999999999995</ele><time>2026-03-22T09:04:53Z</time></trkpt><trkpt lat="44.40560429806734" lon="9.015926511242636"><ele>406.20000000000005</ele><time>2026-03-22T09:04:55Z</time></trkpt><trkpt lat="44.405628785639585" lon="9.015781990302244"><ele>413.6</ele><time>2026-03-22T09:04:57Z</time></trkpt><trkpt lat="44.40565541200913" lon="9.015619436970118"><ele>421.0</ele><time>2026-03-22T09:04:59Z</time></trkpt><trkpt lat="44.40565784507175" lon="9.015520982016422"><ele>421.0</ele><time>2026-03-22T09:05:02Z</time></trkpt><trkpt lat="44.40568852402887" lon="9.015413182586933"><ele>421.0</ele><time>2026-03-22T09:06:25Z</time></trkpt><trkpt lat="44.40574521114156" lon="9.015299816884742"><ele>421.0</ele><time>2026-03-22T09:06:27Z</time></trkpt><trkpt lat="44.40580025412963" lon="9.015138537532055"><ele>421.0</ele><time>2026-03-22T09:06:29Z</time></trkpt><trkpt lat="44.40586856415034" lon="9.014981540027309"><ele>421.0</ele><time>2026-03-22T09:06:31Z</time></trkpt><trkpt lat="44.405913011529165" lon="9.0148493155279"><ele>418.6666666666667</ele><time>2026-03-22T09:06:33Z</time></trkpt><trkpt lat="44.40593220675025" lon="9.01468213431472"><ele>416.33333333333337</ele><time>2026-03-22T09:06:35Z</time></trkpt><trkpt lat="44.405956145283945" lon="9.01459402911231"><ele>414.0</ele><time>2026-03-22T09:06:36Z</time></trkpt><trkpt lat="44.40599754221975" lon="9.014462985140293"><ele>411.66666666666663</ele><time>2026-03-22T09:06:38Z</time></trkpt><trkpt lat="44.406023875799825" lon="9.014378215151634"><ele>409.3333333333333</ele><time>2026-03-22T09:06:39Z</time></trkpt><trkpt lat="44.40605485604281" lon="9.014296796324915"><ele>407.0</ele><time>2026-03-22T09:06:40Z</time></trkpt><trkpt lat="44.40611088368467" lon="9.014240650828704"><ele>407.8</ele><time>2026-03-22T09:06:41Z</time></trkpt><trkpt lat="44.40619742332847" lon="9.014123286968365"><ele>408.6</ele><time>2026-03-22T09:06:43Z</time></trkpt><trkpt lat="44.406297209431365" lon="9.014068606856814"><ele>409.40000000000003</ele><time>2026-03-22T09:06:45Z</time></trkpt><trkpt lat="44.40636616269654" lon="9.014056585302791"><ele>410.20000000000005</ele><time>2026-03-22T09:06:46Z</time></trkpt><trkpt lat="44.406479476073756" lon="9.014023636051212"><ele>411.0</ele><time>2026-03-22T09:06:48Z</time></trkpt><trkpt lat="44.40655270560099" lon="9.014010021098716"><ele>411.0</ele><time>2026-03-22T09:06:49Z</time></trkpt><trkpt lat="44.406668330117405" lon="9.014001750679244"><ele>411.0</ele><time>2026-03-22T09:06:51Z</time></trkpt><trkpt lat="44.40679119592836" lon="9.014025275473617"><ele>411.0</ele><time>2026-03-22T09:06:53Z</time></trkpt><trkpt lat="44.406854663806556" lon="9.014073661956164"><ele>411.0</ele><time>2026-03-22T09:06:54Z</time></trkpt><trkpt lat="44.40691757147735" lon="9.01409971533708"><ele>411.0</ele><time>2026-03-22T09:06:55Z</time></trkpt><trkpt lat="44.406990348882374" lon="9.014123257077472"><ele>411.0</ele><time>2026-03-22T09:06:56Z</time></trkpt><trkpt lat="44.40707141156181" lon="9.01413989326694"><ele>411.0</ele><time>2026-03-22T09:06:57Z</time></trkpt><trkpt lat="44.407151724154836" lon="9.014144679177745"><ele>411.0</ele><time>2026-03-22T09:06:58Z</time></trkpt><trkpt lat="44.407228348186" lon="9.01414036297629"><ele>411.0</ele><time>2026-03-22T09:06:59Z</time></trkpt><trkpt lat="44.40729893640294" lon="9.01412548366417"><ele>411.0</ele><time>2026-03-22T09:07:00Z</time></trkpt><trkpt lat="44.40739556731571" lon="9.014095989860742"><ele>411.0</ele><time>2026-03-22T09:07:01Z</time></trkpt><trkpt lat="44.40748998361482" lon="9.014067531933678"><ele>412.0</ele><time>2026-03-22T09:07:02Z</time></trkpt><trkpt lat="44.40759074664889" lon="9.014042190011645"><ele>413.0</ele><time>2026-03-22T09:07:03Z</time></trkpt><trkpt lat="44.407683335035" lon="9.014020800242513"><ele>414.0</ele><time>2026-03-22T09:07:04Z</time></trkpt><trkpt lat="44.40777063884595" lon="9.014000567422286"><ele>415.0</ele><time>2026-03-22T09:07:05Z</time></trkpt><trkpt lat="44.40784645723394" lon="9.013973613000772"><ele>416.0</ele><time>2026-03-22T09:07:06Z</time></trkpt><trkpt lat="44.40793173609307" lon="9.013932808767208"><ele>420.4</ele><time>2026-03-22T09:07:07Z</time></trkpt><trkpt lat="44.40802992858751" lon="9.013918295428628"><ele>424.8</ele><time>2026-03-22T09:07:08Z</time></trkpt><trkpt lat="44.40809508625847" lon="9.01384278376452"><ele>429.19999999999993</ele><time>2026-03-22T09:07:09Z</time></trkpt><trkpt lat="44.4081618280885" lon="9.01378754742553"><ele>433.59999999999997</ele><time>2026-03-22T09:07:10Z</time></trkpt><trkpt lat="44.40825121147082" lon="9.0136709822942"><ele>438.0</ele><time>2026-03-22T09:07:11Z</time></trkpt><trkpt lat="44.4083413336349" lon="9.013619671834132"><ele>438.0</ele><time>2026-03-22T09:07:12Z</time></trkpt><trkpt lat="44.40845288209784" lon="9.013509578867504"><ele>437.99999999999994</ele><time>2026-03-22T09:07:14Z</time></trkpt><trkpt lat="44.40852590932839" lon="9.013456975379597"><ele>437.99999999999994</ele><time>2026-03-22T09:07:15Z</time></trkpt><trkpt lat="44.408659657090936" lon="9.013401672194764"><ele>438.0</ele><time>2026-03-22T09:07:17Z</time></trkpt><trkpt lat="44.408739364299194" lon="9.013385658499171"><ele>438.0</ele><time>2026-03-22T09:07:18Z</time></trkpt><trkpt lat="44.408824296697304" lon="9.013363247460703"><ele>438.8333333333333</ele><time>2026-03-22T09:07:19Z</time></trkpt><trkpt lat="44.4089012979545" lon="9.013351616338312"><ele>439.66666666666663</ele><time>2026-03-22T09:07:20Z</time></trkpt><trkpt lat="44.40896168752643" lon="9.01338308281446"><ele>440.5</ele><time>2026-03-22T09:07:21Z</time></trkpt><trkpt lat="44.40907766113594" lon="9.013483570467029"><ele>441.3333333333333</ele><time>2026-03-22T09:07:23Z</time></trkpt><trkpt lat="44.409160286683516" lon="9.013514484678478"><ele>442.16666666666663</ele><time>2026-03-22T09:07:24Z</time></trkpt><trkpt lat="44.409214858060125" lon="9.013584838111674"><ele>443.0</ele><time>2026-03-22T09:07:25Z</time></trkpt><trkpt lat="44.40930867331273" lon="9.013682088301964"><ele>442.99999999999994</ele><time>2026-03-22T09:07:27Z</time></trkpt><trkpt lat="44.40932753041776" lon="9.013779096668138"><ele>443.0</ele><time>2026-03-22T09:07:28Z</time></trkpt><trkpt lat="44.40936351058477" lon="9.013866511503434"><ele>443.0</ele><time>2026-03-22T09:07:29Z</time></trkpt><trkpt lat="44.409398875351506" lon="9.013944087490762"><ele>443.0</ele><time>2026-03-22T09:07:30Z</time></trkpt><trkpt lat="44.40944256487025" lon="9.014013448083503"><ele>442.99999999999994</ele><time>2026-03-22T09:07:31Z</time></trkpt><trkpt lat="44.409489756205055" lon="9.014076077220626"><ele>443.0</ele><time>2026-03-22T09:07:32Z</time></trkpt><trkpt lat="44.409580639041295" lon="9.014203767599184"><ele>444.2</ele><time>2026-03-22T09:07:34Z</time></trkpt><trkpt lat="44.409664491626664" lon="9.014256900604973"><ele>445.4</ele><time>2026-03-22T09:07:35Z</time></trkpt><trkpt lat="44.40972399597322" lon="9.014324109133417"><ele>446.59999999999997</ele><time>2026-03-22T09:07:36Z</time></trkpt><trkpt lat="44.40978240954415" lon="9.014480594168095"><ele>447.79999999999995</ele><time>2026-03-22T09:07:38Z</time></trkpt><trkpt lat="44.409799535807615" lon="9.014638672211579"><ele>449.0</ele><time>2026-03-22T09:07:40Z</time></trkpt><trkpt lat="44.40974943537835" lon="9.014713295756156"><ele>449.0</ele><time>2026-03-22T09:07:41Z</time></trkpt><trkpt lat="44.40969058375555" lon="9.014815440169539"><ele>449.0</ele><time>2026-03-22T09:07:43Z</time></trkpt><trkpt lat="44.40959752495787" lon="9.014932688254644"><ele>449.0</ele><time>2026-03-22T09:07:45Z</time></trkpt><trkpt lat="44.40954928085117" lon="9.015000632810995"><ele>449.0</ele><time>2026-03-22T09:07:46Z</time></trkpt><trkpt lat="44.40945749497479" lon="9.01512989941491"><ele>449.0</ele><time>2026-03-22T09:07:48Z</time></trkpt><trkpt lat="44.409404830987214" lon="9.015207266207081"><ele>455.4</ele><time>2026-03-22T09:07:49Z</time></trkpt><trkpt lat="44.4093429188756" lon="9.015331653856375"><ele>461.79999999999995</ele><time>2026-03-22T09:07:50Z</time></trkpt><trkpt lat="44.40928137733263" lon="9.01539898077413"><ele>468.20000000000005</ele><time>2026-03-22T09:07:51Z</time></trkpt><trkpt lat="44.40923043656062" lon="9.015490381100609"><ele>474.6</ele><time>2026-03-22T09:07:52Z</time></trkpt><trkpt lat="44.409177704271" lon="9.01559002598256"><ele>481.0</ele><time>2026-03-22T09:07:53Z</time></trkpt><trkpt lat="44.4091225608159" lon="9.01569681343202"><ele>481.0</ele><time>2026-03-22T09:07:54Z</time></trkpt><trkpt lat="44.40907183696289" lon="9.015802232403324"><ele>481.0</ele><time>2026-03-22T09:07:55Z</time></trkpt><trkpt lat="44.409022366738384" lon="9.015911192252164"><ele>481.0</ele><time>2026-03-22T09:07:56Z</time></trkpt><trkpt lat="44.40897523861123" lon="9.016016546309096"><ele>481.0</ele><time>2026-03-22T09:07:57Z</time></trkpt><trkpt lat="44.40892836100802" lon="9.016124002613065"><ele>481.0</ele><time>2026-03-22T09:07:58Z</time></trkpt><trkpt lat="44.40888185084956" lon="9.016232209869273"><ele>480.1666666666667</ele><time>2026-03-22T09:07:59Z</time></trkpt><trkpt lat="44.40884086074564" lon="9.016327574658575"><ele>479.33333333333337</ele><time>2026-03-22T09:08:00Z</time></trkpt><trkpt lat="44.4087983298316" lon="9.016425793751774"><ele>478.5</ele><time>2026-03-22T09:08:01Z</time></trkpt><trkpt lat="44.408752156596016" lon="9.016531627707694"><ele>477.66666666666663</ele><time>2026-03-22T09:08:02Z</time></trkpt><trkpt lat="44.40870586158153" lon="9.01663363949772"><ele>476.8333333333333</ele><time>2026-03-22T09:08:03Z</time></trkpt><trkpt lat="44.40865916620225" lon="9.01673653344568"><ele>476.0</ele><time>2026-03-22T09:08:04Z</time></trkpt><trkpt lat="44.4086131379216" lon="9.016833057396862"><ele>482.6</ele><time>2026-03-22T09:08:05Z</time></trkpt><trkpt lat="44.40851654330295" lon="9.016987330513803"><ele>489.20000000000005</ele><time>2026-03-22T09:08:07Z</time></trkpt><trkpt lat="44.40845776513557" lon="9.01706633889655"><ele>495.79999999999995</ele><time>2026-03-22T09:08:08Z</time></trkpt><trkpt lat="44.40839089780038" lon="9.017147943552901"><ele>502.4</ele><time>2026-03-22T09:08:09Z</time></trkpt><trkpt lat="44.408336760349194" lon="9.01721263011935"><ele>509.0</ele><time>2026-03-22T09:08:10Z</time></trkpt><trkpt lat="44.4082679497674" lon="9.017292672083688"><ele>508.99999999999994</ele><time>2026-03-22T09:08:11Z</time></trkpt><trkpt lat="44.408201697396166" lon="9.01736360661668"><ele>509.0</ele><time>2026-03-22T09:08:12Z</time></trkpt><trkpt lat="44.40813834299322" lon="9.017435222697166"><ele>509.0</ele><time>2026-03-22T09:08:13Z</time></trkpt><trkpt lat="44.40807704813453" lon="9.01753460812843"><ele>509.0</ele><time>2026-03-22T09:08:14Z</time></trkpt><trkpt lat="44.40802724130808" lon="9.01764389051657"><ele>508.99999999999994</ele><time>2026-03-22T09:08:15Z</time></trkpt><trkpt lat="44.40798578485255" lon="9.017758675955456"><ele>509.0</ele><time>2026-03-22T09:08:16Z</time></trkpt><trkpt lat="44.40796087032611" lon="9.017855077312067"><ele>511.4</ele><time>2026-03-22T09:08:17Z</time></trkpt><trkpt lat="44.407899383238046" lon="9.017947039570599"><ele>513.8</ele><time>2026-03-22T09:08:18Z</time></trkpt><trkpt lat="44.407847074770146" lon="9.01805165670633"><ele>516.2</ele><time>2026-03-22T09:08:19Z</time></trkpt><trkpt lat="44.407800077119866" lon="9.018145652098198"><ele>518.6</ele><time>2026-03-22T09:08:20Z</time></trkpt><trkpt lat="44.40774889882463" lon="9.018264793656469"><ele>521.0</ele><time>2026-03-22T09:08:21Z</time></trkpt><trkpt lat="44.40772427244424" lon="9.018388886303851"><ele>521.0</ele><time>2026-03-22T09:08:22Z</time></trkpt><trkpt lat="44.40768705258763" lon="9.018514053098366"><ele>521.0</ele><time>2026-03-22T09:08:23Z</time></trkpt><trkpt lat="44.40763245679435" lon="9.018648285098372"><ele>521.0</ele><time>2026-03-22T09:08:24Z</time></trkpt><trkpt lat="44.40759539452599" lon="9.018763229902959"><ele>521.0</ele><time>2026-03-22T09:08:25Z</time></trkpt><trkpt lat="44.40755445184529" lon="9.018885491475546"><ele>521.0</ele><time>2026-03-22T09:08:26Z</time></trkpt><trkpt lat="44.40750404900417" lon="9.019033835865267"><ele>521.0</ele><time>2026-03-22T09:08:27Z</time></trkpt><trkpt lat="44.40746443790496" lon="9.019145598182096"><ele>521.0</ele><time>2026-03-22T09:08:28Z</time></trkpt><trkpt lat="44.407421550245076" lon="9.019259759871108"><ele>521.0</ele><time>2026-03-22T09:08:29Z</time></trkpt><trkpt lat="44.40738188779177" lon="9.01936072029335"><ele>521.0</ele><time>2026-03-22T09:08:30Z</time></trkpt><trkpt lat="44.407338338126564" lon="9.019450260229538"><ele>521.0</ele><time>2026-03-22T09:08:31Z</time></trkpt><trkpt lat="44.407287784204705" lon="9.019533487944258"><ele>521.0</ele><time>2026-03-22T09:08:32Z</time></trkpt><trkpt lat="44.40724002387513" lon="9.019615400420154"><ele>520.5</ele><time>2026-03-22T09:08:33Z</time></trkpt><trkpt lat="44.407182390492366" lon="9.019714723442473"><ele>520.0</ele><time>2026-03-22T09:08:34Z</time></trkpt><trkpt lat="44.40712038951741" lon="9.019824198483233"><ele>519.5</ele><time>2026-03-22T09:08:35Z</time></trkpt><trkpt lat="44.40706607917492" lon="9.019928082171237"><ele>519.0</ele><time>2026-03-22T09:08:36Z</time></trkpt><trkpt lat="44.4070265155353" lon="9.020021341006109"><ele>518.5</ele><time>2026-03-22T09:08:37Z</time></trkpt><trkpt lat="44.40700229399298" lon="9.020137217853678"><ele>518.0</ele><time>2026-03-22T09:08:38Z</time></trkpt><trkpt lat="44.406955575700636" lon="9.020214354481142"><ele>517.8333333333333</ele><time>2026-03-22T09:08:39Z</time></trkpt><trkpt lat="44.40690104679456" lon="9.020338654985188"><ele>517.6666666666666</ele><time>2026-03-22T09:08:41Z</time></trkpt><trkpt lat="44.40682965771323" lon="9.020427579698007"><ele>517.5</ele><time>2026-03-22T09:08:43Z</time></trkpt><trkpt lat="44.406771738298616" lon="9.020474580785036"><ele>517.3333333333334</ele><time>2026-03-22T09:09:13Z</time></trkpt><trkpt lat="44.40673341232635" lon="9.020583256577424"><ele>517.1666666666667</ele><time>2026-03-22T09:11:29Z</time></trkpt><trkpt lat="44.40673085925923" lon="9.020693065767448"><ele>517.0</ele><time>2026-03-22T09:11:31Z</time></trkpt><trkpt lat="44.40672185027498" lon="9.020871083461053"><ele>518.0</ele><time>2026-03-22T09:11:33Z</time></trkpt><trkpt lat="44.40672915217596" lon="9.020967529125434"><ele>519.0</ele><time>2026-03-22T09:11:34Z</time></trkpt><trkpt lat="44.40672604452346" lon="9.021153631712341"><ele>520.0</ele><time>2026-03-22T09:11:36Z</time></trkpt><trkpt lat="44.40672415513035" lon="9.02126869449314"><ele>521.0</ele><time>2026-03-22T09:11:37Z</time></trkpt><trkpt lat="44.406718761375096" lon="9.021382155469166"><ele>522.0</ele><time>2026-03-22T09:11:38Z</time></trkpt><trkpt lat="44.406721025126" lon="9.0214890149629"><ele>523.0</ele><time>2026-03-22T09:11:39.001Z</time></trkpt><trkpt lat="44.406712665428635" lon="9.021607625599026"><ele>524.6666666666667</ele><time>2026-03-22T09:11:40.001Z</time></trkpt><trkpt lat="44.406695413732116" lon="9.021730341529606"><ele>526.3333333333334</ele><time>2026-03-22T09:11:41.001Z</time></trkpt><trkpt lat="44.40668457489413" lon="9.021854142554085"><ele>528.0</ele><time>2026-03-22T09:11:42.001Z</time></trkpt><trkpt lat="44.406669285013415" lon="9.021966138283915"><ele>529.6666666666666</ele><time>2026-03-22T09:11:43.001Z</time></trkpt><trkpt lat="44.40665687073519" lon="9.02207793076928"><ele>531.3333333333333</ele><time>2026-03-22T09:11:44.001Z</time></trkpt><trkpt lat="44.40663595864427" lon="9.022188365104968"><ele>533.0</ele><time>2026-03-22T09:11:45.001Z</time></trkpt><trkpt lat="44.40659959963852" lon="9.022296582510453"><ele>533.0</ele><time>2026-03-22T09:11:46.001Z</time></trkpt><trkpt lat="44.40658258972908" lon="9.022394814006107"><ele>533.0</ele><time>2026-03-22T09:11:47.001Z</time></trkpt><trkpt lat="44.406548606591514" lon="9.02254031256871"><ele>533.0</ele><time>2026-03-22T09:11:49.001Z</time></trkpt><trkpt lat="44.40652086294563" lon="9.022623380102225"><ele>533.0</ele><time>2026-03-22T09:11:50.001Z</time></trkpt><trkpt lat="44.40648972785099" lon="9.022716771966323"><ele>533.0</ele><time>2026-03-22T09:11:51.001Z</time></trkpt><trkpt lat="44.4064336475934" lon="9.0228857543098"><ele>534.4285714285714</ele><time>2026-03-22T09:11:53.001Z</time></trkpt><trkpt lat="44.406416763378694" lon="9.022982994329602"><ele>535.8571428571428</ele><time>2026-03-22T09:11:54.001Z</time></trkpt><trkpt lat="44.40640580075912" lon="9.023086119815199"><ele>537.2857142857142</ele><time>2026-03-22T09:11:55.001Z</time></trkpt><trkpt lat="44.40640020330979" lon="9.02318882751692"><ele>538.7142857142857</ele><time>2026-03-22T09:11:56.001Z</time></trkpt><trkpt lat="44.40640755881424" lon="9.023281619182493"><ele>540.1428571428571</ele><time>2026-03-22T09:11:57.001Z</time></trkpt><trkpt lat="44.406424416026084" lon="9.023369077607178"><ele>541.5714285714286</ele><time>2026-03-22T09:11:58.001Z</time></trkpt><trkpt lat="44.40645527641264" lon="9.02345144840445"><ele>543.0</ele><time>2026-03-22T09:11:59.001Z</time></trkpt><trkpt lat="44.40654136747384" lon="9.023567041163984"><ele>543.0</ele><time>2026-03-22T09:12:01.001Z</time></trkpt><trkpt lat="44.40660420311184" lon="9.023587037900162"><ele>543.0</ele><time>2026-03-22T09:12:02.001Z</time></trkpt><trkpt lat="44.406695259141735" lon="9.023552533589815"><ele>543.0</ele><time>2026-03-22T09:12:04.001Z</time></trkpt><trkpt lat="44.40676212423387" lon="9.02344345450399"><ele>543.0</ele><time>2026-03-22T09:12:06.001Z</time></trkpt><trkpt lat="44.406792945197374" lon="9.023298987677846"><ele>543.0</ele><time>2026-03-22T09:12:08Z</time></trkpt><trkpt lat="44.40679498152201" lon="9.02314067972728"><ele>543.0</ele><time>2026-03-22T09:12:10Z</time></trkpt><trkpt lat="44.40679106746717" lon="9.02303682355638"><ele>543.0</ele><time>2026-03-22T09:12:11Z</time></trkpt><trkpt lat="44.40678823130356" lon="9.02285836236658"><ele>543.0</ele><time>2026-03-22T09:12:13Z</time></trkpt><trkpt lat="44.40679118587744" lon="9.022766873727"><ele>543.0</ele><time>2026-03-22T09:12:14Z</time></trkpt><trkpt lat="44.406819813669365" lon="9.022661614907527"><ele>543.0</ele><time>2026-03-22T09:12:15Z</time></trkpt><trkpt lat="44.40688123170234" lon="9.022536189506953"><ele>544.5</ele><time>2026-03-22T09:12:17Z</time></trkpt><trkpt lat="44.40698532185112" lon="9.022474418100737"><ele>546.0</ele><time>2026-03-22T09:12:19Z</time></trkpt><trkpt lat="44.407052281015396" lon="9.02245313623405"><ele>547.5</ele><time>2026-03-22T09:12:20Z</time></trkpt><trkpt lat="44.40716797710879" lon="9.022463623372747"><ele>549.0</ele><time>2026-03-22T09:12:22Z</time></trkpt><trkpt lat="44.40723178166493" lon="9.022506548605545"><ele>550.5</ele><time>2026-03-22T09:12:23Z</time></trkpt><trkpt lat="44.407295066161964" lon="9.022547888753463"><ele>552.0</ele><time>2026-03-22T09:12:24Z</time></trkpt><trkpt lat="44.407362232227605" lon="9.022586135736105"><ele>552.0</ele><time>2026-03-22T09:12:25Z</time></trkpt><trkpt lat="44.407415090676494" lon="9.022653085708724"><ele>552.0</ele><time>2026-03-22T09:12:26Z</time></trkpt><trkpt lat="44.40746445920887" lon="9.022721363173115"><ele>552.0</ele><time>2026-03-22T09:12:27Z</time></trkpt><trkpt lat="44.40750406175894" lon="9.022801328530713"><ele>552.0</ele><time>2026-03-22T09:12:28Z</time></trkpt><trkpt lat="44.40753960341044" lon="9.022893067049624"><ele>552.0</ele><time>2026-03-22T09:12:29Z</time></trkpt><trkpt lat="44.407576185832035" lon="9.02299021303608"><ele>552.0</ele><time>2026-03-22T09:12:30Z</time></trkpt><trkpt lat="44.40760567046846" lon="9.02310111881423"><ele>552.0</ele><time>2026-03-22T09:12:31Z</time></trkpt><trkpt lat="44.40764997545876" lon="9.023175150885512"><ele>552.0</ele><time>2026-03-22T09:12:32Z</time></trkpt><trkpt lat="44.40769789934584" lon="9.0232755471881"><ele>552.0</ele><time>2026-03-22T09:12:33Z</time></trkpt><trkpt lat="44.40773413753387" lon="9.02336974081517"><ele>552.0</ele><time>2026-03-22T09:12:34Z</time></trkpt><trkpt lat="44.40777825499037" lon="9.02346129664287"><ele>552.0</ele><time>2026-03-22T09:12:35Z</time></trkpt><trkpt lat="44.407820908841714" lon="9.0235744518865"><ele>552.0</ele><time>2026-03-22T09:12:36Z</time></trkpt><trkpt lat="44.40786630724362" lon="9.023686593122115"><ele>552.0</ele><time>2026-03-22T09:12:37Z</time></trkpt><trkpt lat="44.407917422908476" lon="9.023785064993122"><ele>550.8000000000001</ele><time>2026-03-22T09:12:38Z</time></trkpt><trkpt lat="44.40796998717816" lon="9.023893157194838"><ele>549.6</ele><time>2026-03-22T09:12:39Z</time></trkpt><trkpt lat="44.408026275260305" lon="9.023981368460857"><ele>548.4000000000001</ele><time>2026-03-22T09:12:40Z</time></trkpt><trkpt lat="44.408091574579444" lon="9.024074773089977"><ele>547.2</ele><time>2026-03-22T09:12:41Z</time></trkpt><trkpt lat="44.40815753244964" lon="9.024157676305652"><ele>546.0</ele><time>2026-03-22T09:12:42Z</time></trkpt><trkpt lat="44.40822873879901" lon="9.0242347399571"><ele>550.6666666666666</ele><time>2026-03-22T09:12:43Z</time></trkpt><trkpt lat="44.40829571094687" lon="9.024298939737267"><ele>555.3333333333334</ele><time>2026-03-22T09:12:44Z</time></trkpt><trkpt lat="44.408348131041755" lon="9.024350018660517"><ele>560.0</ele><time>2026-03-22T09:12:45Z</time></trkpt><trkpt lat="44.408394958792336" lon="9.024410762903385"><ele>564.6666666666667</ele><time>2026-03-22T09:12:46Z</time></trkpt><trkpt lat="44.40845311485051" lon="9.024569374805887"><ele>569.3333333333334</ele><time>2026-03-22T09:12:48Z</time></trkpt><trkpt lat="44.4084692043157" lon="9.024658637402405"><ele>574.0</ele><time>2026-03-22T09:12:49Z</time></trkpt><trkpt lat="44.40848130406924" lon="9.02475610955265"><ele>574.0</ele><time>2026-03-22T09:12:50Z</time></trkpt><trkpt lat="44.40850329334209" lon="9.02485786590364"><ele>574.0</ele><time>2026-03-22T09:12:51Z</time></trkpt><trkpt lat="44.408479480875755" lon="9.024953580580652"><ele>574.0</ele><time>2026-03-22T09:12:52Z</time></trkpt><trkpt lat="44.408488270646224" lon="9.025049685349668"><ele>574.0</ele><time>2026-03-22T09:12:53Z</time></trkpt><trkpt lat="44.408512647613655" lon="9.025136802244472"><ele>574.0</ele><time>2026-03-22T09:12:54Z</time></trkpt><trkpt lat="44.40854965617749" lon="9.025246848878709"><ele>574.0</ele><time>2026-03-22T09:12:55Z</time></trkpt><trkpt lat="44.408574383452766" lon="9.02534746818567"><ele>574.0</ele><time>2026-03-22T09:12:56Z</time></trkpt><trkpt lat="44.40862423700098" lon="9.025531322455484"><ele>576.6</ele><time>2026-03-22T09:12:58Z</time></trkpt><trkpt lat="44.40865252607779" lon="9.025627123174026"><ele>579.2</ele><time>2026-03-22T09:12:59Z</time></trkpt><trkpt lat="44.40869018534236" lon="9.025762247236475"><ele>581.8000000000001</ele><time>2026-03-22T09:13:00Z</time></trkpt><trkpt lat="44.40872619594183" lon="9.02590670181716"><ele>584.4</ele><time>2026-03-22T09:13:01Z</time></trkpt><trkpt lat="44.40876069534176" lon="9.026014273227345"><ele>587.0</ele><time>2026-03-22T09:13:02Z</time></trkpt><trkpt lat="44.40880333526093" lon="9.026118890692963"><ele>583.4</ele><time>2026-03-22T09:13:03Z</time></trkpt><trkpt lat="44.408846305006925" lon="9.026253638290527"><ele>579.8000000000001</ele><time>2026-03-22T09:13:04Z</time></trkpt><trkpt lat="44.40891208647112" lon="9.026357110760836"><ele>576.2</ele><time>2026-03-22T09:13:05Z</time></trkpt><trkpt lat="44.408979994567126" lon="9.026440531892463"><ele>572.6</ele><time>2026-03-22T09:13:06Z</time></trkpt><trkpt lat="44.409055369237805" lon="9.026532700942242"><ele>569.0</ele><time>2026-03-22T09:13:07Z</time></trkpt><trkpt lat="44.40911632390812" lon="9.02662372453836"><ele>572.8</ele><time>2026-03-22T09:13:08Z</time></trkpt><trkpt lat="44.40918065615757" lon="9.026732077455383"><ele>576.5999999999999</ele><time>2026-03-22T09:13:09Z</time></trkpt><trkpt lat="44.40924668091056" lon="9.026828113683742"><ele>580.4</ele><time>2026-03-22T09:13:10Z</time></trkpt><trkpt lat="44.40930936080553" lon="9.026918437706067"><ele>584.1999999999999</ele><time>2026-03-22T09:13:11Z</time></trkpt><trkpt lat="44.40937092801039" lon="9.027002985130936"><ele>588.0</ele><time>2026-03-22T09:13:12Z</time></trkpt><trkpt lat="44.40942950921668" lon="9.027097810319702"><ele>588.0</ele><time>2026-03-22T09:13:13Z</time></trkpt><trkpt lat="44.40950084780222" lon="9.027179738490986"><ele>588.0</ele><time>2026-03-22T09:13:14Z</time></trkpt><trkpt lat="44.40955071823033" lon="9.027273067071134"><ele>588.0</ele><time>2026-03-22T09:13:15Z</time></trkpt><trkpt lat="44.409595561944535" lon="9.027369679964915"><ele>588.0</ele><time>2026-03-22T09:13:16Z</time></trkpt><trkpt lat="44.40963223813422" lon="9.027471262712485"><ele>588.0</ele><time>2026-03-22T09:13:17Z</time></trkpt><trkpt lat="44.40967890351599" lon="9.027540034387853"><ele>588.0</ele><time>2026-03-22T09:13:18Z</time></trkpt><trkpt lat="44.409729139773084" lon="9.027604126160506"><ele>589.3333333333334</ele><time>2026-03-22T09:13:19Z</time></trkpt><trkpt lat="44.409845879344665" lon="9.027674609063823"><ele>590.6666666666666</ele><time>2026-03-22T09:13:21Z</time></trkpt><trkpt lat="44.409914575905695" lon="9.027695558638538"><ele>592.0</ele><time>2026-03-22T09:13:22Z</time></trkpt><trkpt lat="44.40998123522111" lon="9.027719222832456"><ele>593.3333333333333</ele><time>2026-03-22T09:13:23Z</time></trkpt><trkpt lat="44.41004877222312" lon="9.027756486721126"><ele>594.6666666666666</ele><time>2026-03-22T09:13:24Z</time></trkpt><trkpt lat="44.410108400751966" lon="9.027806785577594"><ele>596.0</ele><time>2026-03-22T09:13:25Z</time></trkpt><trkpt lat="44.41013941764768" lon="9.027883807983494"><ele>596.0</ele><time>2026-03-22T09:13:26Z</time></trkpt><trkpt lat="44.41017818423977" lon="9.02803380060984"><ele>596.0</ele><time>2026-03-22T09:13:28Z</time></trkpt><trkpt lat="44.410195448086355" lon="9.028121472221772"><ele>596.0</ele><time>2026-03-22T09:13:29Z</time></trkpt><trkpt lat="44.41024248823842" lon="9.028270614309308"><ele>596.0</ele><time>2026-03-22T09:13:31Z</time></trkpt><trkpt lat="44.41028462459191" lon="9.02834194175328"><ele>596.0</ele><time>2026-03-22T09:13:32Z</time></trkpt><trkpt lat="44.4103824390056" lon="9.028408842620879"><ele>594.5</ele><time>2026-03-22T09:13:34Z</time></trkpt><trkpt lat="44.410495306844574" lon="9.02839963071953"><ele>593.0</ele><time>2026-03-22T09:13:36Z</time></trkpt><trkpt lat="44.410571779033376" lon="9.028379952580803"><ele>591.5</ele><time>2026-03-22T09:13:37Z</time></trkpt><trkpt lat="44.41065192245731" lon="9.028350772306233"><ele>590.0</ele><time>2026-03-22T09:13:38Z</time></trkpt><trkpt lat="44.41072912061115" lon="9.028324476810171"><ele>588.5</ele><time>2026-03-22T09:13:39Z</time></trkpt><trkpt lat="44.41080866692924" lon="9.028298597539687"><ele>587.0</ele><time>2026-03-22T09:13:40Z</time></trkpt><trkpt lat="44.410888711152786" lon="9.028260921702532"><ele>587.0</ele><time>2026-03-22T09:13:41Z</time></trkpt><trkpt lat="44.410969673426564" lon="9.028223715617882"><ele>587.0</ele><time>2026-03-22T09:13:42Z</time></trkpt><trkpt lat="44.41105957219535" lon="9.02818170008199"><ele>587.0</ele><time>2026-03-22T09:13:43Z</time></trkpt><trkpt lat="44.411150936777595" lon="9.028141737066356"><ele>587.0</ele><time>2026-03-22T09:13:44Z</time></trkpt><trkpt lat="44.41124421956579" lon="9.028101715591038"><ele>587.0</ele><time>2026-03-22T09:13:45Z</time></trkpt><trkpt lat="44.41133340559838" lon="9.028067430534698"><ele>589.0</ele><time>2026-03-22T09:13:46Z</time></trkpt><trkpt lat="44.41141802020301" lon="9.028051487530648"><ele>591.0</ele><time>2026-03-22T09:13:47Z</time></trkpt><trkpt lat="44.41149678373505" lon="9.028039856211409"><ele>593.0</ele><time>2026-03-22T09:13:48Z</time></trkpt><trkpt lat="44.411577264812884" lon="9.028046011240857"><ele>595.0</ele><time>2026-03-22T09:13:49Z</time></trkpt><trkpt lat="44.411667387098575" lon="9.028054712122783"><ele>597.0</ele><time>2026-03-22T09:13:50Z</time></trkpt><trkpt lat="44.41175617521919" lon="9.028055669588614"><ele>599.0</ele><time>2026-03-22T09:13:51Z</time></trkpt><trkpt lat="44.41184233729784" lon="9.028052024510387"><ele>599.0</ele><time>2026-03-22T09:13:52Z</time></trkpt><trkpt lat="44.41194115793112" lon="9.02804069693686"><ele>599.0</ele><time>2026-03-22T09:13:53Z</time></trkpt><trkpt lat="44.412025603823274" lon="9.028021496284833"><ele>599.0</ele><time>2026-03-22T09:13:54Z</time></trkpt><trkpt lat="44.41211315841015" lon="9.027967387332648"><ele>599.0</ele><time>2026-03-22T09:13:55Z</time></trkpt><trkpt lat="44.412206075886274" lon="9.02792212107637"><ele>599.0</ele><time>2026-03-22T09:13:56Z</time></trkpt><trkpt lat="44.4122936366143" lon="9.027902470991751"><ele>602.2</ele><time>2026-03-22T09:13:57Z</time></trkpt><trkpt lat="44.41236528154208" lon="9.027869558487733"><ele>605.4</ele><time>2026-03-22T09:13:58Z</time></trkpt><trkpt lat="44.41243668097274" lon="9.027834757127362"><ele>608.6</ele><time>2026-03-22T09:13:59Z</time></trkpt><trkpt lat="44.4125577748385" lon="9.027797412609369"><ele>611.8</ele><time>2026-03-22T09:14:01Z</time></trkpt><trkpt lat="44.41266060523452" lon="9.027851045971236"><ele>615.0</ele><time>2026-03-22T09:14:03Z</time></trkpt><trkpt lat="44.41271460117751" lon="9.027955739123405"><ele>615.0</ele><time>2026-03-22T09:14:05Z</time></trkpt><trkpt lat="44.41274187350391" lon="9.02808694841215"><ele>615.0</ele><time>2026-03-22T09:14:07.001Z</time></trkpt><trkpt lat="44.41274435826573" lon="9.028261105431033"><ele>615.0</ele><time>2026-03-22T09:14:09.001Z</time></trkpt><trkpt lat="44.41273628811589" lon="9.02836001566561"><ele>615.0</ele><time>2026-03-22T09:14:10.001Z</time></trkpt><trkpt lat="44.41271690438666" lon="9.028456950678894"><ele>615.0</ele><time>2026-03-22T09:14:11.001Z</time></trkpt><trkpt lat="44.41270417628256" lon="9.02854584657367"><ele>615.0</ele><time>2026-03-22T09:14:12.001Z</time></trkpt><trkpt lat="44.41267925181935" lon="9.028644987337088"><ele>618.4</ele><time>2026-03-22T09:14:13.001Z</time></trkpt><trkpt lat="44.41265245468631" lon="9.028739561786672"><ele>621.8</ele><time>2026-03-22T09:14:14Z</time></trkpt><trkpt lat="44.41260208020342" lon="9.02889884270526"><ele>625.2</ele><time>2026-03-22T09:14:16Z</time></trkpt><trkpt lat="44.41256780405664" lon="9.02900492741384"><ele>628.6</ele><time>2026-03-22T09:14:17Z</time></trkpt><trkpt lat="44.41252870319999" lon="9.029125944286406"><ele>632.0</ele><time>2026-03-22T09:14:18Z</time></trkpt><trkpt lat="44.41248140079632" lon="9.029277409814545"><ele>634.0</ele><time>2026-03-22T09:14:19Z</time></trkpt><trkpt lat="44.412432662756025" lon="9.02943409328957"><ele>636.0</ele><time>2026-03-22T09:14:20Z</time></trkpt><trkpt lat="44.412391987865234" lon="9.029564855218803"><ele>638.0</ele><time>2026-03-22T09:14:21Z</time></trkpt><trkpt lat="44.412359781819" lon="9.029668391388618"><ele>640.0</ele><time>2026-03-22T09:14:22Z</time></trkpt><trkpt lat="44.41231702330521" lon="9.029806235107186"><ele>642.0</ele><time>2026-03-22T09:14:23Z</time></trkpt><trkpt lat="44.41226596332679" lon="9.029970851426292"><ele>642.4000000000001</ele><time>2026-03-22T09:14:24Z</time></trkpt><trkpt lat="44.412240348337" lon="9.03005343368184"><ele>642.8000000000001</ele><time>2026-03-22T09:14:25Z</time></trkpt><trkpt lat="44.41219708248505" lon="9.030192921820776"><ele>643.2</ele><time>2026-03-22T09:14:26Z</time></trkpt><trkpt lat="44.41216571972616" lon="9.030294034703685"><ele>643.6</ele><time>2026-03-22T09:14:27Z</time></trkpt><trkpt lat="44.41211886609436" lon="9.030470168134146"><ele>644.0</ele><time>2026-03-22T09:14:29Z</time></trkpt><trkpt lat="44.41207889644691" lon="9.03060775361345"><ele>650.75</ele><time>2026-03-22T09:14:30Z</time></trkpt><trkpt lat="44.412020754527546" lon="9.030761429762089"><ele>657.5</ele><time>2026-03-22T09:14:31Z</time></trkpt><trkpt lat="44.41197868036163" lon="9.03089753834881"><ele>664.25</ele><time>2026-03-22T09:14:32Z</time></trkpt><trkpt lat="44.41195033992895" lon="9.031026373442266"><ele>671.0</ele><time>2026-03-22T09:14:33Z</time></trkpt><trkpt lat="44.411897744598804" lon="9.031198331636189"><ele>671.0</ele><time>2026-03-22T09:14:34Z</time></trkpt><trkpt lat="44.411842176050065" lon="9.031337293256492"><ele>671.0</ele><time>2026-03-22T09:14:35Z</time></trkpt><trkpt lat="44.411814807565285" lon="9.03145554075505"><ele>671.0</ele><time>2026-03-22T09:14:36Z</time></trkpt><trkpt lat="44.41178392377702" lon="9.031544113816521"><ele>671.0</ele><time>2026-03-22T09:14:37Z</time></trkpt><trkpt lat="44.41175068290897" lon="9.0316404177831"><ele>671.0</ele><time>2026-03-22T09:14:38Z</time></trkpt><trkpt lat="44.41172371781295" lon="9.031769153210162"><ele>671.0</ele><time>2026-03-22T09:14:39Z</time></trkpt><trkpt lat="44.41171684456687" lon="9.031875181458986"><ele>670.0</ele><time>2026-03-22T09:14:40Z</time></trkpt><trkpt lat="44.4117174531156" lon="9.031983686468218"><ele>669.0</ele><time>2026-03-22T09:14:41Z</time></trkpt><trkpt lat="44.411735537369495" lon="9.03210019627606"><ele>668.0</ele><time>2026-03-22T09:14:42Z</time></trkpt><trkpt lat="44.41180854772704" lon="9.032274905138781"><ele>667.0</ele><time>2026-03-22T09:14:44Z</time></trkpt><trkpt lat="44.411859400658834" lon="9.032368976120711"><ele>666.0</ele><time>2026-03-22T09:14:45Z</time></trkpt><trkpt lat="44.41192489086826" lon="9.032455868246556"><ele>667.6666666666666</ele><time>2026-03-22T09:14:46Z</time></trkpt><trkpt lat="44.411979764028516" lon="9.032553255031045"><ele>669.3333333333334</ele><time>2026-03-22T09:14:47Z</time></trkpt><trkpt lat="44.412015648498716" lon="9.032647779216319"><ele>671.0</ele><time>2026-03-22T09:14:48Z</time></trkpt><trkpt lat="44.412073299399" lon="9.032752866806256"><ele>672.6666666666667</ele><time>2026-03-22T09:14:49Z</time></trkpt><trkpt lat="44.41211791215876" lon="9.032836153787855"><ele>674.3333333333334</ele><time>2026-03-22T09:14:50Z</time></trkpt><trkpt lat="44.41217550202612" lon="9.032965628048753"><ele>676.0</ele><time>2026-03-22T09:14:51Z</time></trkpt><trkpt lat="44.412210672551716" lon="9.033049834627533"><ele>673.1999999999999</ele><time>2026-03-22T09:14:52Z</time></trkpt><trkpt lat="44.4122536233902" lon="9.03314768514824"><ele>670.4</ele><time>2026-03-22T09:14:53Z</time></trkpt><trkpt lat="44.412288294068695" lon="9.03325728165423"><ele>667.6</ele><time>2026-03-22T09:14:55Z</time></trkpt><trkpt lat="44.412318324787016" lon="9.033385108116908"><ele>664.8</ele><time>2026-03-22T09:14:57Z</time></trkpt><trkpt lat="44.41232919757751" lon="9.033474336533668"><ele>662.0</ele><time>2026-03-22T09:14:58Z</time></trkpt><trkpt lat="44.41231189004995" lon="9.033654760414878"><ele>662.0</ele><time>2026-03-22T09:14:59Z</time></trkpt><trkpt lat="44.41231322428525" lon="9.033792435238093"><ele>662.0</ele><time>2026-03-22T09:15:00Z</time></trkpt><trkpt lat="44.4123141910751" lon="9.033929762940371"><ele>662.0</ele><time>2026-03-22T09:15:01Z</time></trkpt><trkpt lat="44.41232301225119" lon="9.03407340318102"><ele>662.0</ele><time>2026-03-22T09:15:02Z</time></trkpt><trkpt lat="44.41231805740389" lon="9.034212041788683"><ele>662.0</ele><time>2026-03-22T09:15:03Z</time></trkpt><trkpt lat="44.4123205868832" lon="9.034338621761028"><ele>663.8</ele><time>2026-03-22T09:15:04Z</time></trkpt><trkpt lat="44.41234585732823" lon="9.034479061245865"><ele>665.6</ele><time>2026-03-22T09:15:05Z</time></trkpt><trkpt lat="44.41235432472052" lon="9.034640451292185"><ele>667.4</ele><time>2026-03-22T09:15:06Z</time></trkpt><trkpt lat="44.412363090909764" lon="9.034787211473525"><ele>669.1999999999999</ele><time>2026-03-22T09:15:07Z</time></trkpt><trkpt lat="44.41236840885626" lon="9.034951778980979"><ele>671.0</ele><time>2026-03-22T09:15:08Z</time></trkpt><trkpt lat="44.41238188254222" lon="9.035108449947472"><ele>673.6666666666666</ele><time>2026-03-22T09:15:09Z</time></trkpt><trkpt lat="44.41239399866429" lon="9.035246798023788"><ele>676.3333333333333</ele><time>2026-03-22T09:15:10Z</time></trkpt><trkpt lat="44.41240482866186" lon="9.035377563837306"><ele>679.0</ele><time>2026-03-22T09:15:11Z</time></trkpt><trkpt lat="44.41240766226906" lon="9.035492903759073"><ele>681.6666666666666</ele><time>2026-03-22T09:15:12Z</time></trkpt><trkpt lat="44.41241583123977" lon="9.035597776464686"><ele>684.3333333333334</ele><time>2026-03-22T09:15:13Z</time></trkpt><trkpt lat="44.41243584144457" lon="9.035708766428078"><ele>687.0</ele><time>2026-03-22T09:15:14Z</time></trkpt><trkpt lat="44.41244322141456" lon="9.035828013529803"><ele>689.5</ele><time>2026-03-22T09:15:15Z</time></trkpt><trkpt lat="44.41246381062115" lon="9.035935315165583"><ele>692.0</ele><time>2026-03-22T09:15:16Z</time></trkpt><trkpt lat="44.41250416021684" lon="9.036044883597212"><ele>694.5</ele><time>2026-03-22T09:15:17Z</time></trkpt><trkpt lat="44.41252525072156" lon="9.03614109290443"><ele>697.0</ele><time>2026-03-22T09:15:18Z</time></trkpt><trkpt lat="44.41256325280058" lon="9.0362329442678"><ele>699.5</ele><time>2026-03-22T09:15:19Z</time></trkpt><trkpt lat="44.412637008459356" lon="9.03632981168624"><ele>702.0</ele><time>2026-03-22T09:15:20Z</time></trkpt><trkpt lat="44.41268268953804" lon="9.036436603235195"><ele>702.0</ele><time>2026-03-22T09:15:21Z</time></trkpt><trkpt lat="44.41273703041796" lon="9.036525600034805"><ele>702.0</ele><time>2026-03-22T09:15:22Z</time></trkpt><trkpt lat="44.41280123104331" lon="9.036629134698615"><ele>702.0</ele><time>2026-03-22T09:15:23Z</time></trkpt><trkpt lat="44.412848686071676" lon="9.036727110409894"><ele>702.0</ele><time>2026-03-22T09:15:24Z</time></trkpt><trkpt lat="44.41287808302707" lon="9.03682758078558"><ele>702.0</ele><time>2026-03-22T09:15:25Z</time></trkpt><trkpt lat="44.4129024023588" lon="9.036944910029746"><ele>702.0</ele><time>2026-03-22T09:15:26Z</time></trkpt><trkpt lat="44.41292405975644" lon="9.037045915631085"><ele>705.0</ele><time>2026-03-22T09:15:27Z</time></trkpt><trkpt lat="44.412949449409226" lon="9.03718878876137"><ele>708.0</ele><time>2026-03-22T09:15:28Z</time></trkpt><trkpt lat="44.412977040550196" lon="9.03731802616634"><ele>711.0</ele><time>2026-03-22T09:15:29Z</time></trkpt><trkpt lat="44.41300379267246" lon="9.037455779744292"><ele>714.0</ele><time>2026-03-22T09:15:30Z</time></trkpt><trkpt lat="44.41302688616872" lon="9.03758711049418"><ele>717.0</ele><time>2026-03-22T09:15:31Z</time></trkpt><trkpt lat="44.413062676374736" lon="9.037705485891689"><ele>714.0</ele><time>2026-03-22T09:15:32Z</time></trkpt><trkpt lat="44.41310974439385" lon="9.037827623275982"><ele>711.0</ele><time>2026-03-22T09:15:33Z</time></trkpt><trkpt lat="44.41316957377445" lon="9.037957178370888"><ele>708.0</ele><time>2026-03-22T09:15:34Z</time></trkpt><trkpt lat="44.413230092872666" lon="9.038085824908439"><ele>705.0</ele><time>2026-03-22T09:15:35Z</time></trkpt><trkpt lat="44.413277226624885" lon="9.038189502658303"><ele>702.0</ele><time>2026-03-22T09:15:36Z</time></trkpt><trkpt lat="44.41333676395881" lon="9.038320463966889"><ele>702.0</ele><time>2026-03-22T09:15:37.001Z</time></trkpt><trkpt lat="44.41340546121951" lon="9.038471573783138"><ele>702.0</ele><time>2026-03-22T09:15:38.001Z</time></trkpt><trkpt lat="44.413465678138" lon="9.038604029829548"><ele>702.0</ele><time>2026-03-22T09:15:39.001Z</time></trkpt><trkpt lat="44.41351907955651" lon="9.038721494163882"><ele>702.0</ele><time>2026-03-22T09:15:40.001Z</time></trkpt><trkpt lat="44.4135675860016" lon="9.038827855877559"><ele>702.0</ele><time>2026-03-22T09:15:41.001Z</time></trkpt><trkpt lat="44.41362275426735" lon="9.038918998533177"><ele>702.0</ele><time>2026-03-22T09:15:42.001Z</time></trkpt><trkpt lat="44.41367239432444" lon="9.039029995197007"><ele>702.0</ele><time>2026-03-22T09:15:43.001Z</time></trkpt><trkpt lat="44.41372296839622" lon="9.039141168204871"><ele>702.0</ele><time>2026-03-22T09:15:44.001Z</time></trkpt><trkpt lat="44.41378442202647" lon="9.039249470864203"><ele>702.0</ele><time>2026-03-22T09:15:45.001Z</time></trkpt><trkpt lat="44.41383679734742" lon="9.039367635691644"><ele>702.0</ele><time>2026-03-22T09:15:46.001Z</time></trkpt><trkpt lat="44.41390271176904" lon="9.039466785651808"><ele>699.6</ele><time>2026-03-22T09:15:47.001Z</time></trkpt><trkpt lat="44.41397893154946" lon="9.039547792831977"><ele>697.2</ele><time>2026-03-22T09:15:48.001Z</time></trkpt><trkpt lat="44.41404506484861" lon="9.039653681389728"><ele>694.8</ele><time>2026-03-22T09:15:49.001Z</time></trkpt><trkpt lat="44.41412237562888" lon="9.039760492532366"><ele>692.4</ele><time>2026-03-22T09:15:50.001Z</time></trkpt><trkpt lat="44.41419563550095" lon="9.039859206124278"><ele>690.0</ele><time>2026-03-22T09:15:51.001Z</time></trkpt><trkpt lat="44.41426041733696" lon="9.039958117294942"><ele>694.8333333333334</ele><time>2026-03-22T09:15:52.001Z</time></trkpt><trkpt lat="44.41432955485967" lon="9.040052085459713"><ele>699.6666666666666</ele><time>2026-03-22T09:15:53.001Z</time></trkpt><trkpt lat="44.41439049002223" lon="9.040150105957284"><ele>704.5</ele><time>2026-03-22T09:15:54.001Z</time></trkpt><trkpt lat="44.414446411010054" lon="9.040249745518405"><ele>709.3333333333333</ele><time>2026-03-22T09:15:55.001Z</time></trkpt><trkpt lat="44.41448957721233" lon="9.040344713243572"><ele>714.1666666666666</ele><time>2026-03-22T09:15:56.001Z</time></trkpt><trkpt lat="44.41452537385364" lon="9.040434163303752"><ele>719.0</ele><time>2026-03-22T09:15:57.001Z</time></trkpt><trkpt lat="44.41454669026966" lon="9.040542891427712"><ele>719.0</ele><time>2026-03-22T09:15:58.001Z</time></trkpt><trkpt lat="44.414572998707065" lon="9.040654986581057"><ele>719.0</ele><time>2026-03-22T09:15:59.001Z</time></trkpt><trkpt lat="44.414594714616115" lon="9.040776955125239"><ele>719.0</ele><time>2026-03-22T09:16:00.001Z</time></trkpt><trkpt lat="44.41462020977768" lon="9.040906052030792"><ele>719.0</ele><time>2026-03-22T09:16:01.001Z</time></trkpt><trkpt lat="44.41465810712687" lon="9.041018321416837"><ele>719.0</ele><time>2026-03-22T09:16:02.001Z</time></trkpt><trkpt lat="44.4146881482682" lon="9.041156635787925"><ele>719.5</ele><time>2026-03-22T09:16:03.001Z</time></trkpt><trkpt lat="44.41472908914723" lon="9.041280560551488"><ele>720.0</ele><time>2026-03-22T09:16:04.001Z</time></trkpt><trkpt lat="44.41476644333151" lon="9.041395258692763"><ele>720.5</ele><time>2026-03-22T09:16:05.001Z</time></trkpt><trkpt lat="44.41479781080689" lon="9.041506283725733"><ele>721.0</ele><time>2026-03-22T09:16:06.001Z</time></trkpt><trkpt lat="44.4148517611397" lon="9.041596331374866"><ele>721.5</ele><time>2026-03-22T09:16:07.001Z</time></trkpt><trkpt lat="44.4149039508715" lon="9.041687021975662"><ele>722.0</ele><time>2026-03-22T09:16:08.001Z</time></trkpt><trkpt lat="44.41496998145839" lon="9.041783893176259"><ele>722.0</ele><time>2026-03-22T09:16:09.001Z</time></trkpt><trkpt lat="44.41502388260083" lon="9.041890314015719"><ele>722.0</ele><time>2026-03-22T09:16:10.001Z</time></trkpt><trkpt lat="44.41508957451403" lon="9.04200011399493"><ele>722.0</ele><time>2026-03-22T09:16:11.001Z</time></trkpt><trkpt lat="44.41517559259029" lon="9.042109323779444"><ele>722.0</ele><time>2026-03-22T09:16:12.001Z</time></trkpt><trkpt lat="44.41525047871921" lon="9.042208458268085"><ele>722.0</ele><time>2026-03-22T09:16:13.001Z</time></trkpt><trkpt lat="44.41531214341911" lon="9.042331241962762"><ele>722.0</ele><time>2026-03-22T09:16:14.001Z</time></trkpt><trkpt lat="44.41537980835001" lon="9.042436744072653"><ele>722.0</ele><time>2026-03-22T09:16:15.001Z</time></trkpt><trkpt lat="44.41545231157782" lon="9.04254979010786"><ele>722.0</ele><time>2026-03-22T09:16:16.001Z</time></trkpt><trkpt lat="44.415522419965676" lon="9.042627462326935"><ele>722.0</ele><time>2026-03-22T09:16:17.001Z</time></trkpt><trkpt lat="44.41558925870483" lon="9.042761831272196"><ele>722.0</ele><time>2026-03-22T09:16:18.001Z</time></trkpt><trkpt lat="44.41567456857793" lon="9.042885381844705"><ele>723.0</ele><time>2026-03-22T09:16:19.001Z</time></trkpt><trkpt lat="44.4157505867131" lon="9.042999015896688"><ele>724.0</ele><time>2026-03-22T09:16:20Z</time></trkpt><trkpt lat="44.41582275325141" lon="9.04311671848131"><ele>725.0</ele><time>2026-03-22T09:16:21Z</time></trkpt><trkpt lat="44.41589358300503" lon="9.04322836495"><ele>726.0</ele><time>2026-03-22T09:16:22Z</time></trkpt><trkpt lat="44.41596445640057" lon="9.043333267100019"><ele>727.0</ele><time>2026-03-22T09:16:23Z</time></trkpt><trkpt lat="44.416020919828206" lon="9.043415669279012"><ele>726.6666666666667</ele><time>2026-03-22T09:16:24Z</time></trkpt><trkpt lat="44.41607691956857" lon="9.043502198253565"><ele>726.3333333333334</ele><time>2026-03-22T09:16:25Z</time></trkpt><trkpt lat="44.416134100566" lon="9.043593349762595"><ele>726.0</ele><time>2026-03-22T09:16:26Z</time></trkpt><trkpt lat="44.41619358987844" lon="9.0436812675808"><ele>725.6666666666666</ele><time>2026-03-22T09:16:27Z</time></trkpt><trkpt lat="44.41624559167638" lon="9.043758491782029"><ele>725.3333333333333</ele><time>2026-03-22T09:16:28Z</time></trkpt><trkpt lat="44.416285994329385" lon="9.043829650559795"><ele>725.0</ele><time>2026-03-22T09:16:29Z</time></trkpt><trkpt lat="44.41634875883796" lon="9.043939760161571"><ele>725.0</ele><time>2026-03-22T09:16:31Z</time></trkpt><trkpt lat="44.416431106475294" lon="9.044070789605488"><ele>725.0</ele><time>2026-03-22T09:16:33Z</time></trkpt><trkpt lat="44.41648751660407" lon="9.04417685108043"><ele>725.0</ele><time>2026-03-22T09:16:35Z</time></trkpt><trkpt lat="44.41651808455764" lon="9.044290985752122"><ele>725.0</ele><time>2026-03-22T09:16:37Z</time></trkpt><trkpt lat="44.416407729728135" lon="9.04439646648904"><ele>725.0</ele><time>2026-03-22T09:16:42Z</time></trkpt><trkpt lat="44.41633428922302" lon="9.044423042845198"><ele>727.5</ele><time>2026-03-22T09:16:45Z</time></trkpt><trkpt lat="44.41627731280928" lon="9.044478325666029"><ele>730.0</ele><time>2026-03-22T09:16:48Z</time></trkpt><trkpt lat="44.41621118649815" lon="9.044354074279154"><ele>732.5</ele><time>2026-03-22T09:20:25.001Z</time></trkpt><trkpt lat="44.416182460187756" lon="9.044273512172786"><ele>735.0</ele><time>2026-03-22T09:20:26.001Z</time></trkpt><trkpt lat="44.41614098264658" lon="9.04417506800282"><ele>737.5</ele><time>2026-03-22T09:20:29.001Z</time></trkpt><trkpt lat="44.416106499095676" lon="9.044073688935864"><ele>740.0</ele><time>2026-03-22T09:20:31.999Z</time></trkpt><trkpt lat="44.416083199715565" lon="9.043966043613128"><ele>740.1666666666666</ele><time>2026-03-22T09:20:34.999Z</time></trkpt><trkpt lat="44.41606311237866" lon="9.043867825758598"><ele>740.3333333333333</ele><time>2026-03-22T09:20:38.999Z</time></trkpt><trkpt lat="44.416048566720505" lon="9.043779354165542"><ele>740.5</ele><time>2026-03-22T09:22:02Z</time></trkpt><trkpt lat="44.41596263886334" lon="9.043777659560277"><ele>740.6666666666666</ele><time>2026-03-22T09:22:08Z</time></trkpt><trkpt lat="44.41587669070481" lon="9.043752431549283"><ele>740.8333333333334</ele><time>2026-03-22T09:22:11Z</time></trkpt><trkpt lat="44.41580891205402" lon="9.04369673167832"><ele>741.0</ele><time>2026-03-22T09:22:13Z</time></trkpt><trkpt lat="44.41576152152634" lon="9.043638324616145"><ele>741.0</ele><time>2026-03-22T09:22:15Z</time></trkpt><trkpt lat="44.41570798852381" lon="9.043571418684005"><ele>741.0</ele><time>2026-03-22T09:22:18Z</time></trkpt><trkpt lat="44.41566837010387" lon="9.043492100698705"><ele>741.0</ele><time>2026-03-22T09:22:21Z</time></trkpt><trkpt lat="44.415628532799516" lon="9.043395630049561"><ele>741.0</ele><time>2026-03-22T09:22:23.001Z</time></trkpt><trkpt lat="44.41558491440813" lon="9.04329917230835"><ele>741.0</ele><time>2026-03-22T09:22:25.001Z</time></trkpt><trkpt lat="44.415519331986175" lon="9.043194765176963"><ele>741.0</ele><time>2026-03-22T09:22:27.001Z</time></trkpt><trkpt lat="44.415440678950254" lon="9.043091555613007"><ele>740.8</ele><time>2026-03-22T09:22:29.001Z</time></trkpt><trkpt lat="44.41536117863261" lon="9.042992922313172"><ele>740.5999999999999</ele><time>2026-03-22T09:22:31.001Z</time></trkpt><trkpt lat="44.41530594951952" lon="9.04290772527426"><ele>740.4</ele><time>2026-03-22T09:22:33.001Z</time></trkpt><trkpt lat="44.415218685893926" lon="9.042818690397304"><ele>740.2</ele><time>2026-03-22T09:22:35.001Z</time></trkpt><trkpt lat="44.41515037785044" lon="9.042750198184015"><ele>740.0</ele><time>2026-03-22T09:22:37.001Z</time></trkpt><trkpt lat="44.4150881822489" lon="9.042689259226975"><ele>740.0</ele><time>2026-03-22T09:22:40Z</time></trkpt><trkpt lat="44.41500222026237" lon="9.04263125805566"><ele>740.0</ele><time>2026-03-22T09:22:42Z</time></trkpt><trkpt lat="44.414930969079094" lon="9.042566208274476"><ele>740.0</ele><time>2026-03-22T09:22:44Z</time></trkpt><trkpt lat="44.41485700565579" lon="9.04249798056062"><ele>740.0</ele><time>2026-03-22T09:22:46Z</time></trkpt><trkpt lat="44.41481286720925" lon="9.04243346487232"><ele>740.0</ele><time>2026-03-22T09:22:48Z</time></trkpt><trkpt lat="44.4147474347048" lon="9.042404400680294"><ele>740.0</ele><time>2026-03-22T09:22:51Z</time></trkpt><trkpt lat="44.414694732102795" lon="9.042355308744012"><ele>739.4</ele><time>2026-03-22T09:22:54Z</time></trkpt><trkpt lat="44.41460979612517" lon="9.042292682842085"><ele>738.8</ele><time>2026-03-22T09:23:04Z</time></trkpt><trkpt lat="44.41452543354387" lon="9.042221315542552"><ele>738.2</ele><time>2026-03-22T09:23:07Z</time></trkpt><trkpt lat="44.41444478959914" lon="9.042144742267848"><ele>737.6</ele><time>2026-03-22T09:23:10Z</time></trkpt><trkpt lat="44.414372601088246" lon="9.042078239411168"><ele>737.0</ele><time>2026-03-22T09:23:13Z</time></trkpt><trkpt lat="44.41440657034394" lon="9.042195919407183"><ele>737.0000000000001</ele><time>2026-03-22T09:23:41Z</time></trkpt><trkpt lat="44.41436689805435" lon="9.042113689728318"><ele>737.0</ele><time>2026-03-22T09:24:19.001Z</time></trkpt><trkpt lat="44.414431319406646" lon="9.042160780107338"><ele>737.0</ele><time>2026-03-22T09:26:38.001Z</time></trkpt><trkpt lat="44.41448933035147" lon="9.042206558115359"><ele>737.0</ele><time>2026-03-22T09:26:40.001Z</time></trkpt><trkpt lat="44.41454883879651" lon="9.042246296231138"><ele>737.0</ele><time>2026-03-22T09:26:42.001Z</time></trkpt><trkpt lat="44.41460842274009" lon="9.04230538090807"><ele>737.0000000000001</ele><time>2026-03-22T09:26:45.001Z</time></trkpt><trkpt lat="44.4146822317094" lon="9.042360091454906"><ele>737.0</ele><time>2026-03-22T09:26:49.001Z</time></trkpt><trkpt lat="44.41474792134232" lon="9.042397368113841"><ele>737.4285714285714</ele><time>2026-03-22T09:26:52Z</time></trkpt><trkpt lat="44.41479506719695" lon="9.042474650540328"><ele>737.8571428571429</ele><time>2026-03-22T09:26:55Z</time></trkpt><trkpt lat="44.41485377325385" lon="9.042516527478957"><ele>738.2857142857142</ele><time>2026-03-22T09:26:59Z</time></trkpt><trkpt lat="44.414912946213306" lon="9.042569416603838"><ele>738.7142857142858</ele><time>2026-03-22T09:27:01Z</time></trkpt><trkpt lat="44.414974124289444" lon="9.042622578058404"><ele>739.1428571428571</ele><time>2026-03-22T09:27:03Z</time></trkpt><trkpt lat="44.4150265025328" lon="9.04267431023629"><ele>739.5714285714286</ele><time>2026-03-22T09:27:05Z</time></trkpt><trkpt lat="44.4150833079717" lon="9.042729606743865"><ele>740.0</ele><time>2026-03-22T09:27:07Z</time></trkpt><trkpt lat="44.415149684944375" lon="9.042776902661014"><ele>740.0</ele><time>2026-03-22T09:27:11Z</time></trkpt><trkpt lat="44.41522871109109" lon="9.042852065355973"><ele>740.0</ele><time>2026-03-22T09:27:15Z</time></trkpt><trkpt lat="44.415303296994594" lon="9.042940689598117"><ele>740.0</ele><time>2026-03-22T09:27:18Z</time></trkpt><trkpt lat="44.415378173979306" lon="9.043024450237477"><ele>740.0</ele><time>2026-03-22T09:27:21Z</time></trkpt><trkpt lat="44.415436067379076" lon="9.043097532622504"><ele>740.0</ele><time>2026-03-22T09:27:23Z</time></trkpt><trkpt lat="44.415500195809564" lon="9.043173785188534"><ele>740.1666666666666</ele><time>2026-03-22T09:27:25Z</time></trkpt><trkpt lat="44.415549067992956" lon="9.043244855260243"><ele>740.3333333333333</ele><time>2026-03-22T09:27:27Z</time></trkpt><trkpt lat="44.415606292744584" lon="9.043324188594202"><ele>740.5</ele><time>2026-03-22T09:27:30Z</time></trkpt><trkpt lat="44.41565117403141" lon="9.043398992106518"><ele>740.6666666666666</ele><time>2026-03-22T09:27:33Z</time></trkpt><trkpt lat="44.41568502495184" lon="9.0434753663154"><ele>740.8333333333334</ele><time>2026-03-22T09:27:35Z</time></trkpt><trkpt lat="44.41573928456762" lon="9.043579403458628"><ele>741.0</ele><time>2026-03-22T09:27:38Z</time></trkpt><trkpt lat="44.41579074164878" lon="9.04367557550551"><ele>741.0</ele><time>2026-03-22T09:27:41Z</time></trkpt><trkpt lat="44.41584831252845" lon="9.043733206633927"><ele>741.0</ele><time>2026-03-22T09:27:46Z</time></trkpt><trkpt lat="44.41591743709476" lon="9.043781104591906"><ele>741.0</ele><time>2026-03-22T09:27:49Z</time></trkpt><trkpt lat="44.41600178487983" lon="9.04377035348012"><ele>741.0</ele><time>2026-03-22T09:27:52Z</time></trkpt><trkpt lat="44.41606538359803" lon="9.04374625742515"><ele>741.0</ele><time>2026-03-22T09:27:55Z</time></trkpt><trkpt lat="44.416126091128966" lon="9.043675763292732"><ele>741.0</ele><time>2026-03-22T09:27:59.001Z</time></trkpt><trkpt lat="44.416201038509854" lon="9.043680765418289"><ele>741.0</ele><time>2026-03-22T09:28:22.001Z</time></trkpt><trkpt lat="44.4162501581447" lon="9.043774516518953"><ele>741.0</ele><time>2026-03-22T09:28:24.001Z</time></trkpt><trkpt lat="44.41631990888836" lon="9.043890162606441"><ele>741.0</ele><time>2026-03-22T09:28:26.001Z</time></trkpt><trkpt lat="44.416360586510194" lon="9.043957753415503"><ele>741.0</ele><time>2026-03-22T09:28:27.001Z</time></trkpt><trkpt lat="44.41640230609673" lon="9.044027987811264"><ele>741.0</ele><time>2026-03-22T09:28:28.001Z</time></trkpt><trkpt lat="44.41644366436205" lon="9.044098784401989"><ele>741.0</ele><time>2026-03-22T09:28:29.001Z</time></trkpt><trkpt lat="44.41648430075276" lon="9.044171934079413"><ele>741.3333333333334</ele><time>2026-03-22T09:28:30.001Z</time></trkpt><trkpt lat="44.41652390494928" lon="9.044245949381567"><ele>741.6666666666666</ele><time>2026-03-22T09:28:31.001Z</time></trkpt><trkpt lat="44.416563632584236" lon="9.044320189520942"><ele>742.0</ele><time>2026-03-22T09:28:32.001Z</time></trkpt><trkpt lat="44.41660073816365" lon="9.044392646096613"><ele>742.3333333333333</ele><time>2026-03-22T09:28:33.001Z</time></trkpt><trkpt lat="44.41667732278111" lon="9.04453784065892"><ele>742.6666666666666</ele><time>2026-03-22T09:28:35.001Z</time></trkpt><trkpt lat="44.41672309706587" lon="9.044625049459324"><ele>743.0</ele><time>2026-03-22T09:28:36.001Z</time></trkpt><trkpt lat="44.416766861583795" lon="9.044705202837331"><ele>743.0</ele><time>2026-03-22T09:28:37.001Z</time></trkpt><trkpt lat="44.41680720082449" lon="9.044783849840522"><ele>743.0</ele><time>2026-03-22T09:28:38.001Z</time></trkpt><trkpt lat="44.41685284863256" lon="9.04486806344664"><ele>743.0</ele><time>2026-03-22T09:28:39.001Z</time></trkpt><trkpt lat="44.41689483186326" lon="9.044941428071066"><ele>743.0</ele><time>2026-03-22T09:28:40.001Z</time></trkpt><trkpt lat="44.416931810089416" lon="9.045013702366386"><ele>743.0</ele><time>2026-03-22T09:28:41.001Z</time></trkpt><trkpt lat="44.4169633162091" lon="9.045096501805428"><ele>743.0</ele><time>2026-03-22T09:28:42.001Z</time></trkpt><trkpt lat="44.41700330438794" lon="9.04516552860161"><ele>743.0</ele><time>2026-03-22T09:28:43.001Z</time></trkpt><trkpt lat="44.41704440376425" lon="9.045232568982675"><ele>743.3333333333333</ele><time>2026-03-22T09:28:44.001Z</time></trkpt><trkpt lat="44.41710619913346" lon="9.045370533857561"><ele>743.6666666666666</ele><time>2026-03-22T09:28:46.001Z</time></trkpt><trkpt lat="44.41713949404695" lon="9.045445593018648"><ele>744.0</ele><time>2026-03-22T09:28:47.001Z</time></trkpt><trkpt lat="44.4171965089211" lon="9.045582058534412"><ele>744.3333333333334</ele><time>2026-03-22T09:28:49.001Z</time></trkpt><trkpt lat="44.41722814152769" lon="9.045660470217381"><ele>744.6666666666667</ele><time>2026-03-22T09:28:50.001Z</time></trkpt><trkpt lat="44.41726163021475" lon="9.045748946894582"><ele>745.0</ele><time>2026-03-22T09:28:51.001Z</time></trkpt><trkpt lat="44.417298199785876" lon="9.045846620224532"><ele>746.5</ele><time>2026-03-22T09:28:52.001Z</time></trkpt><trkpt lat="44.41731546855834" lon="9.045945346997398"><ele>748.0</ele><time>2026-03-22T09:28:53.001Z</time></trkpt><trkpt lat="44.417350112744344" lon="9.046045258741872"><ele>749.5</ele><time>2026-03-22T09:28:54.001Z</time></trkpt><trkpt lat="44.41738477998264" lon="9.046145237019058"><ele>751.0</ele><time>2026-03-22T09:28:55.001Z</time></trkpt><trkpt lat="44.417418262994275" lon="9.0462418000576"><ele>752.5</ele><time>2026-03-22T09:28:56Z</time></trkpt><trkpt lat="44.41745086068604" lon="9.046335809913174"><ele>754.0</ele><time>2026-03-22T09:28:57Z</time></trkpt><trkpt lat="44.417485292121704" lon="9.046435108164996"><ele>754.0</ele><time>2026-03-22T09:28:58Z</time></trkpt><trkpt lat="44.41751685056749" lon="9.046528256900409"><ele>754.0</ele><time>2026-03-22T09:28:59Z</time></trkpt><trkpt lat="44.41754555597226" lon="9.046615753719985"><ele>754.0</ele><time>2026-03-22T09:29:00Z</time></trkpt><trkpt lat="44.417576538531634" lon="9.04671274050929"><ele>754.0</ele><time>2026-03-22T09:29:01Z</time></trkpt><trkpt lat="44.417609135368494" lon="9.046818715570051"><ele>754.0</ele><time>2026-03-22T09:29:02Z</time></trkpt><trkpt lat="44.41764312071294" lon="9.046929205063998"><ele>754.0</ele><time>2026-03-22T09:29:03Z</time></trkpt><trkpt lat="44.41766898988132" lon="9.047014059374572"><ele>751.1666666666667</ele><time>2026-03-22T09:29:04Z</time></trkpt><trkpt lat="44.41769674500091" lon="9.047105885008504"><ele>748.3333333333334</ele><time>2026-03-22T09:29:05Z</time></trkpt><trkpt lat="44.417721919994584" lon="9.047189174668008"><ele>745.5</ele><time>2026-03-22T09:29:06Z</time></trkpt><trkpt lat="44.41774811551175" lon="9.047277414181243"><ele>742.6666666666666</ele><time>2026-03-22T09:29:07Z</time></trkpt><trkpt lat="44.41777586517662" lon="9.047374667608018"><ele>739.8333333333333</ele><time>2026-03-22T09:29:08Z</time></trkpt><trkpt lat="44.41780175431385" lon="9.04746540021147"><ele>737.0</ele><time>2026-03-22T09:29:09Z</time></trkpt><trkpt lat="44.41784510919323" lon="9.047617344547955"><ele>734.3333333333333</ele><time>2026-03-22T09:29:11Z</time></trkpt><trkpt lat="44.41787258458519" lon="9.047718212384408"><ele>731.6666666666666</ele><time>2026-03-22T09:29:12Z</time></trkpt><trkpt lat="44.41790776896752" lon="9.047816200516804"><ele>729.0</ele><time>2026-03-22T09:29:13Z</time></trkpt><trkpt lat="44.41790417887168" lon="9.047926227824735"><ele>726.3333333333334</ele><time>2026-03-22T09:29:14Z</time></trkpt><trkpt lat="44.41790603305757" lon="9.048033982137397"><ele>723.6666666666667</ele><time>2026-03-22T09:29:15Z</time></trkpt><trkpt lat="44.41791913129654" lon="9.048150839631791"><ele>721.0</ele><time>2026-03-22T09:29:16Z</time></trkpt><trkpt lat="44.41789617764226" lon="9.048262140703967"><ele>719.4285714285714</ele><time>2026-03-22T09:29:17Z</time></trkpt><trkpt lat="44.41788883332286" lon="9.048367964346705"><ele>717.8571428571429</ele><time>2026-03-22T09:29:18Z</time></trkpt><trkpt lat="44.417881459425494" lon="9.048474214270632"><ele>716.2857142857142</ele><time>2026-03-22T09:29:19Z</time></trkpt><trkpt lat="44.41787436336278" lon="9.048576460830914"><ele>714.7142857142858</ele><time>2026-03-22T09:29:20Z</time></trkpt><trkpt lat="44.41788104140921" lon="9.048672452804329"><ele>713.1428571428571</ele><time>2026-03-22T09:29:21Z</time></trkpt><trkpt lat="44.41786544030066" lon="9.048767281654154"><ele>711.5714285714286</ele><time>2026-03-22T09:29:22Z</time></trkpt><trkpt lat="44.417849070050025" lon="9.0488707352236"><ele>710.0</ele><time>2026-03-22T09:29:23Z</time></trkpt><trkpt lat="44.41782964886136" lon="9.048974801306882"><ele>710.0</ele><time>2026-03-22T09:29:24Z</time></trkpt><trkpt lat="44.41778985506553" lon="9.049069323910004"><ele>710.0</ele><time>2026-03-22T09:29:25Z</time></trkpt><trkpt lat="44.417769544483825" lon="9.049186702837176"><ele>710.0</ele><time>2026-03-22T09:29:26Z</time></trkpt><trkpt lat="44.417739581580825" lon="9.049284137411577"><ele>710.0</ele><time>2026-03-22T09:29:27Z</time></trkpt><trkpt lat="44.41770975070764" lon="9.049370601019975"><ele>710.0</ele><time>2026-03-22T09:29:28Z</time></trkpt><trkpt lat="44.417684992837074" lon="9.049455674259917"><ele>710.0</ele><time>2026-03-22T09:29:29Z</time></trkpt><trkpt lat="44.41765577881911" lon="9.0495641899108"><ele>710.8333333333333</ele><time>2026-03-22T09:29:30Z</time></trkpt><trkpt lat="44.417629778922134" lon="9.049671028587722"><ele>711.6666666666666</ele><time>2026-03-22T09:29:31Z</time></trkpt><trkpt lat="44.41759624433827" lon="9.049775332632443"><ele>712.5</ele><time>2026-03-22T09:29:32Z</time></trkpt><trkpt lat="44.4175595090222" lon="9.049890578029792"><ele>713.3333333333334</ele><time>2026-03-22T09:29:33Z</time></trkpt><trkpt lat="44.41752916149977" lon="9.049999583388592"><ele>714.1666666666667</ele><time>2026-03-22T09:29:34Z</time></trkpt><trkpt lat="44.41748648665182" lon="9.050098286411943"><ele>715.0</ele><time>2026-03-22T09:29:35Z</time></trkpt><trkpt lat="44.417457083146424" lon="9.050214608132704"><ele>718.2</ele><time>2026-03-22T09:29:36Z</time></trkpt><trkpt lat="44.41743327009776" lon="9.050334698554114"><ele>721.4</ele><time>2026-03-22T09:29:37Z</time></trkpt><trkpt lat="44.41741280656213" lon="9.050452022670882"><ele>724.5999999999999</ele><time>2026-03-22T09:29:38Z</time></trkpt><trkpt lat="44.41739295335298" lon="9.050581654374781"><ele>727.8</ele><time>2026-03-22T09:29:39Z</time></trkpt><trkpt lat="44.41737267736209" lon="9.050714046813088"><ele>731.0</ele><time>2026-03-22T09:29:40Z</time></trkpt><trkpt lat="44.41736921597326" lon="9.050847512236858"><ele>732.1666666666666</ele><time>2026-03-22T09:29:41Z</time></trkpt><trkpt lat="44.41733220732866" lon="9.050978296672033"><ele>733.3333333333333</ele><time>2026-03-22T09:29:42Z</time></trkpt><trkpt lat="44.41731302728141" lon="9.05110353311272"><ele>734.5</ele><time>2026-03-22T09:29:43Z</time></trkpt><trkpt lat="44.4172931410337" lon="9.051216480993608"><ele>735.6666666666666</ele><time>2026-03-22T09:29:44Z</time></trkpt><trkpt lat="44.41727268264211" lon="9.051321120477752"><ele>736.8333333333334</ele><time>2026-03-22T09:29:45Z</time></trkpt><trkpt lat="44.4172521912319" lon="9.051441562031812"><ele>738.0</ele><time>2026-03-22T09:29:46Z</time></trkpt><trkpt lat="44.417214876681044" lon="9.051560219842067"><ele>738.8571428571429</ele><time>2026-03-22T09:29:47Z</time></trkpt><trkpt lat="44.41717887192503" lon="9.051663617535349"><ele>739.7142857142857</ele><time>2026-03-22T09:29:48Z</time></trkpt><trkpt lat="44.41714361425956" lon="9.051752038221212"><ele>740.5714285714287</ele><time>2026-03-22T09:29:49Z</time></trkpt><trkpt lat="44.417108485023356" lon="9.051832753281188"><ele>741.4285714285714</ele><time>2026-03-22T09:29:50Z</time></trkpt><trkpt lat="44.4170729610848" lon="9.051912489339326"><ele>742.2857142857143</ele><time>2026-03-22T09:29:51Z</time></trkpt><trkpt lat="44.4170364635628" lon="9.051994546594205"><ele>743.1428571428572</ele><time>2026-03-22T09:29:52Z</time></trkpt><trkpt lat="44.41699725154283" lon="9.05208187060023"><ele>744.0</ele><time>2026-03-22T09:29:53Z</time></trkpt><trkpt lat="44.41694291342613" lon="9.052163552935506"><ele>740.7142857142858</ele><time>2026-03-22T09:29:54Z</time></trkpt><trkpt lat="44.416898961445575" lon="9.05225837452625"><ele>737.4285714285714</ele><time>2026-03-22T09:29:55Z</time></trkpt><trkpt lat="44.416855747618115" lon="9.052351603745834"><ele>734.1428571428571</ele><time>2026-03-22T09:29:56Z</time></trkpt><trkpt lat="44.416815613924726" lon="9.052439985961254"><ele>730.8571428571429</ele><time>2026-03-22T09:29:57.001Z</time></trkpt><trkpt lat="44.416779797246214" lon="9.052520261855179"><ele>727.5714285714286</ele><time>2026-03-22T09:29:58.001Z</time></trkpt><trkpt lat="44.416743528324595" lon="9.052600175902223"><ele>724.2857142857143</ele><time>2026-03-22T09:29:59.001Z</time></trkpt><trkpt lat="44.41670674494199" lon="9.052673812214477"><ele>721.0</ele><time>2026-03-22T09:30:00.001Z</time></trkpt><trkpt lat="44.4166429614363" lon="9.052807006945898"><ele>721.0</ele><time>2026-03-22T09:30:02.001Z</time></trkpt><trkpt lat="44.41658781451468" lon="9.052868479744603"><ele>721.0</ele><time>2026-03-22T09:30:03.001Z</time></trkpt><trkpt lat="44.416530332315325" lon="9.052926976120185"><ele>721.0</ele><time>2026-03-22T09:30:04.001Z</time></trkpt><trkpt lat="44.41646709394846" lon="9.052983513362767"><ele>721.0</ele><time>2026-03-22T09:30:05.001Z</time></trkpt><trkpt lat="44.41639588101865" lon="9.053036330846803"><ele>721.0</ele><time>2026-03-22T09:30:06.001Z</time></trkpt><trkpt lat="44.41632074825274" lon="9.053085092562247"><ele>721.0</ele><time>2026-03-22T09:30:07.001Z</time></trkpt><trkpt lat="44.41625121836363" lon="9.053131454174668"><ele>717.8</ele><time>2026-03-22T09:30:08.001Z</time></trkpt><trkpt lat="44.416199739406316" lon="9.053186591734512"><ele>714.5999999999999</ele><time>2026-03-22T09:30:09.001Z</time></trkpt><trkpt lat="44.416116836273105" lon="9.053305724641518"><ele>711.4</ele><time>2026-03-22T09:30:11.001Z</time></trkpt><trkpt lat="44.41605508983941" lon="9.053457529207034"><ele>708.2</ele><time>2026-03-22T09:30:13.001Z</time></trkpt><trkpt lat="44.41603027483447" lon="9.053553934232873"><ele>705.0</ele><time>2026-03-22T09:30:14.001Z</time></trkpt><trkpt lat="44.41600611183281" lon="9.053656967116826"><ele>705.0</ele><time>2026-03-22T09:30:15.001Z</time></trkpt><trkpt lat="44.415980202937995" lon="9.053774615392328"><ele>705.0</ele><time>2026-03-22T09:30:16.001Z</time></trkpt><trkpt lat="44.41595666472012" lon="9.053894639060465"><ele>705.0</ele><time>2026-03-22T09:30:17.001Z</time></trkpt><trkpt lat="44.41593757982923" lon="9.054017193898511"><ele>705.0</ele><time>2026-03-22T09:30:18.001Z</time></trkpt><trkpt lat="44.415919397022066" lon="9.054138033627284"><ele>705.0</ele><time>2026-03-22T09:30:19.001Z</time></trkpt><trkpt lat="44.41590131148059" lon="9.054259276390203"><ele>705.0</ele><time>2026-03-22T09:30:20.001Z</time></trkpt><trkpt lat="44.41588585744378" lon="9.054370084059084"><ele>708.0</ele><time>2026-03-22T09:30:21.001Z</time></trkpt><trkpt lat="44.41586839168874" lon="9.05448246413787"><ele>711.0</ele><time>2026-03-22T09:30:22.001Z</time></trkpt><trkpt lat="44.415844459630186" lon="9.05458448665682"><ele>714.0</ele><time>2026-03-22T09:30:23.001Z</time></trkpt><trkpt lat="44.41581459658528" lon="9.054675734796879"><ele>717.0</ele><time>2026-03-22T09:30:24.001Z</time></trkpt><trkpt lat="44.415737274355415" lon="9.054812789508178"><ele>720.0</ele><time>2026-03-22T09:30:26.001Z</time></trkpt><trkpt lat="44.415690691406326" lon="9.054872938933162"><ele>723.0</ele><time>2026-03-22T09:30:27.001Z</time></trkpt><trkpt lat="44.41557852816195" lon="9.054937227888642"><ele>725.1666666666666</ele><time>2026-03-22T09:30:29.001Z</time></trkpt><trkpt lat="44.415503196641545" lon="9.054963713444186"><ele>727.3333333333334</ele><time>2026-03-22T09:30:30.001Z</time></trkpt><trkpt lat="44.41543072828454" lon="9.05500165856155"><ele>729.5</ele><time>2026-03-22T09:30:31.001Z</time></trkpt><trkpt lat="44.41535142189887" lon="9.05504758661452"><ele>731.6666666666667</ele><time>2026-03-22T09:30:32.001Z</time></trkpt><trkpt lat="44.41526812316287" lon="9.055095595120376"><ele>733.8333333333334</ele><time>2026-03-22T09:30:33.001Z</time></trkpt><trkpt lat="44.415180552251094" lon="9.055142077198987"><ele>736.0</ele><time>2026-03-22T09:30:34.001Z</time></trkpt><trkpt lat="44.41508831314092" lon="9.055173136290835"><ele>731.3333333333334</ele><time>2026-03-22T09:30:35.001Z</time></trkpt><trkpt lat="44.415005817848446" lon="9.055241531599513"><ele>726.6666666666667</ele><time>2026-03-22T09:30:36.001Z</time></trkpt><trkpt lat="44.41493268494097" lon="9.05530119277275"><ele>722.0</ele><time>2026-03-22T09:30:37.001Z</time></trkpt><trkpt lat="44.414851920413255" lon="9.055359482418046"><ele>717.3333333333334</ele><time>2026-03-22T09:30:38.001Z</time></trkpt><trkpt lat="44.414779014080224" lon="9.055419742022151"><ele>712.6666666666666</ele><time>2026-03-22T09:30:39.001Z</time></trkpt><trkpt lat="44.41471307608769" lon="9.05547585583032"><ele>708.0</ele><time>2026-03-22T09:30:40.001Z</time></trkpt><trkpt lat="44.414660849488605" lon="9.055533113033135"><ele>706.8571428571429</ele><time>2026-03-22T09:30:41.001Z</time></trkpt><trkpt lat="44.414612343171555" lon="9.055596656289326"><ele>705.7142857142857</ele><time>2026-03-22T09:30:42.001Z</time></trkpt><trkpt lat="44.41456999224042" lon="9.055669580048402"><ele>704.5714285714286</ele><time>2026-03-22T09:30:43.001Z</time></trkpt><trkpt lat="44.41453793244604" lon="9.055748870063162"><ele>703.4285714285714</ele><time>2026-03-22T09:30:44.001Z</time></trkpt><trkpt lat="44.414507497437434" lon="9.055834701515357"><ele>702.2857142857142</ele><time>2026-03-22T09:30:45.001Z</time></trkpt><trkpt lat="44.4144853181173" lon="9.055939647916826"><ele>701.1428571428571</ele><time>2026-03-22T09:30:46.001Z</time></trkpt><trkpt lat="44.414458702576866" lon="9.056050626206678"><ele>700.0</ele><time>2026-03-22T09:30:47.001Z</time></trkpt><trkpt lat="44.4144320558039" lon="9.056157391001"><ele>700.0</ele><time>2026-03-22T09:30:48.001Z</time></trkpt><trkpt lat="44.41439851773728" lon="9.056292523260602"><ele>700.0</ele><time>2026-03-22T09:30:49.001Z</time></trkpt><trkpt lat="44.414372051740905" lon="9.056405088390102"><ele>700.0</ele><time>2026-03-22T09:30:50.001Z</time></trkpt><trkpt lat="44.41434584735779" lon="9.056517590575043"><ele>700.0</ele><time>2026-03-22T09:30:51.001Z</time></trkpt><trkpt lat="44.41431850284886" lon="9.056623764258745"><ele>700.0</ele><time>2026-03-22T09:30:52.001Z</time></trkpt><trkpt lat="44.41428783851669" lon="9.056722859195665"><ele>700.0</ele><time>2026-03-22T09:30:53.001Z</time></trkpt><trkpt lat="44.41425553534052" lon="9.05680765786985"><ele>703.0</ele><time>2026-03-22T09:30:54.001Z</time></trkpt><trkpt lat="44.41419031041827" lon="9.056947085839845"><ele>706.0</ele><time>2026-03-22T09:30:56.001Z</time></trkpt><trkpt lat="44.414116110282386" lon="9.057082345315248"><ele>709.0</ele><time>2026-03-22T09:30:58.001Z</time></trkpt><trkpt lat="44.4140484307187" lon="9.057164147401696"><ele>712.0</ele><time>2026-03-22T09:31:00.001Z</time></trkpt><trkpt lat="44.413977222902275" lon="9.057212679762427"><ele>715.0</ele><time>2026-03-22T09:31:03Z</time></trkpt><trkpt lat="44.413915180854474" lon="9.057338115396425"><ele>715.0</ele><time>2026-03-22T09:31:51Z</time></trkpt><trkpt lat="44.41387798587347" lon="9.057411624335858"><ele>715.0</ele><time>2026-03-22T09:31:53Z</time></trkpt><trkpt lat="44.41380373131896" lon="9.057507033903592"><ele>715.0</ele><time>2026-03-22T09:31:55Z</time></trkpt><trkpt lat="44.41377756966155" lon="9.057588713412118"><ele>715.0</ele><time>2026-03-22T09:31:56Z</time></trkpt><trkpt lat="44.413730845944535" lon="9.057663732865668"><ele>715.0</ele><time>2026-03-22T09:31:57Z</time></trkpt><trkpt lat="44.41368888114998" lon="9.057733363547303"><ele>715.0</ele><time>2026-03-22T09:31:58Z</time></trkpt><trkpt lat="44.41362405532429" lon="9.057797653273768"><ele>715.0</ele><time>2026-03-22T09:31:59Z</time></trkpt><trkpt lat="44.41356586119618" lon="9.057877669939755"><ele>714.8</ele><time>2026-03-22T09:32:00Z</time></trkpt><trkpt lat="44.41350490975351" lon="9.057967696285566"><ele>714.6</ele><time>2026-03-22T09:32:01Z</time></trkpt><trkpt lat="44.413445364348284" lon="9.058053235640537"><ele>714.4000000000001</ele><time>2026-03-22T09:32:02Z</time></trkpt><trkpt lat="44.41338207247684" lon="9.05813077786848"><ele>714.2</ele><time>2026-03-22T09:32:03Z</time></trkpt><trkpt lat="44.41329612159596" lon="9.058274411435939"><ele>714.0</ele><time>2026-03-22T09:32:05Z</time></trkpt><trkpt lat="44.41325357959472" lon="9.058366286614602"><ele>714.0</ele><time>2026-03-22T09:32:06Z</time></trkpt><trkpt lat="44.41322388000423" lon="9.058456080496592"><ele>714.0</ele><time>2026-03-22T09:32:07Z</time></trkpt><trkpt lat="44.41320163873629" lon="9.058565844753646"><ele>714.0</ele><time>2026-03-22T09:32:08Z</time></trkpt><trkpt lat="44.413184771889796" lon="9.0586904830683"><ele>714.0</ele><time>2026-03-22T09:32:09Z</time></trkpt><trkpt lat="44.41317407764542" lon="9.05880914035993"><ele>714.0</ele><time>2026-03-22T09:32:10Z</time></trkpt><trkpt lat="44.41316302125514" lon="9.058916476597183"><ele>714.0</ele><time>2026-03-22T09:32:11Z</time></trkpt><trkpt lat="44.41315977445066" lon="9.059020869733697"><ele>714.0</ele><time>2026-03-22T09:32:12Z</time></trkpt><trkpt lat="44.413128706213364" lon="9.059110065540308"><ele>714.0</ele><time>2026-03-22T09:32:13Z</time></trkpt><trkpt lat="44.4130941709011" lon="9.059209669751215"><ele>714.0</ele><time>2026-03-22T09:32:14.001Z</time></trkpt><trkpt lat="44.41304410387557" lon="9.059269063472051"><ele>714.0</ele><time>2026-03-22T09:32:15.001Z</time></trkpt><trkpt lat="44.41299628650831" lon="9.059340406976315"><ele>714.0</ele><time>2026-03-22T09:32:16.001Z</time></trkpt><trkpt lat="44.41293614833369" lon="9.059439819895594"><ele>714.0</ele><time>2026-03-22T09:32:17.001Z</time></trkpt><trkpt lat="44.412877662790436" lon="9.059550015582417"><ele>717.3333333333334</ele><time>2026-03-22T09:32:18.001Z</time></trkpt><trkpt lat="44.412844514901515" lon="9.059636842614108"><ele>720.6666666666666</ele><time>2026-03-22T09:32:19.001Z</time></trkpt><trkpt lat="44.41281605214471" lon="9.059754364693775"><ele>724.0</ele><time>2026-03-22T09:32:20.001Z</time></trkpt><trkpt lat="44.41279621535254" lon="9.059879845264163"><ele>727.3333333333333</ele><time>2026-03-22T09:32:21.001Z</time></trkpt><trkpt lat="44.41278484466086" lon="9.060021506949854"><ele>730.6666666666666</ele><time>2026-03-22T09:32:22.001Z</time></trkpt><trkpt lat="44.41279289694071" lon="9.060152001756837"><ele>734.0</ele><time>2026-03-22T09:32:23.001Z</time></trkpt><trkpt lat="44.4127686864111" lon="9.060292348316972"><ele>736.4000000000001</ele><time>2026-03-22T09:32:24.001Z</time></trkpt><trkpt lat="44.412759201438995" lon="9.06044925370804"><ele>738.8</ele><time>2026-03-22T09:32:25.001Z</time></trkpt><trkpt lat="44.41274989345602" lon="9.06058901240312"><ele>741.2</ele><time>2026-03-22T09:32:26.001Z</time></trkpt><trkpt lat="44.41274132449554" lon="9.06074397330968"><ele>743.5999999999999</ele><time>2026-03-22T09:32:27.001Z</time></trkpt><trkpt lat="44.41274852438683" lon="9.0609012579258"><ele>746.0</ele><time>2026-03-22T09:32:28.001Z</time></trkpt><trkpt lat="44.412729473092824" lon="9.061025325877345"><ele>746.0</ele><time>2026-03-22T09:32:29.001Z</time></trkpt><trkpt lat="44.41272788263676" lon="9.06114050487242"><ele>746.0</ele><time>2026-03-22T09:32:30.001Z</time></trkpt><trkpt lat="44.41273237194407" lon="9.061255938323646"><ele>746.0</ele><time>2026-03-22T09:32:31.001Z</time></trkpt><trkpt lat="44.41274741029032" lon="9.061387236395575"><ele>746.0</ele><time>2026-03-22T09:32:32.001Z</time></trkpt><trkpt lat="44.41276930521973" lon="9.061529746404092"><ele>746.0</ele><time>2026-03-22T09:32:33.001Z</time></trkpt><trkpt lat="44.41279106377573" lon="9.06165612237511"><ele>744.4</ele><time>2026-03-22T09:32:34.001Z</time></trkpt><trkpt lat="44.412814600492446" lon="9.061791515722422"><ele>742.8</ele><time>2026-03-22T09:32:35.001Z</time></trkpt><trkpt lat="44.412840791659704" lon="9.061940795795655"><ele>741.1999999999999</ele><time>2026-03-22T09:32:36.001Z</time></trkpt><trkpt lat="44.41286158749606" lon="9.062061974789067"><ele>739.5999999999999</ele><time>2026-03-22T09:32:37.001Z</time></trkpt><trkpt lat="44.41288360826302" lon="9.062198343152625"><ele>738.0</ele><time>2026-03-22T09:32:38.001Z</time></trkpt><trkpt lat="44.412900976399165" lon="9.062330590218716"><ele>738.4</ele><time>2026-03-22T09:32:39.001Z</time></trkpt><trkpt lat="44.41291171535853" lon="9.062463384451743"><ele>738.8</ele><time>2026-03-22T09:32:40.001Z</time></trkpt><trkpt lat="44.412905284403905" lon="9.06259070458378"><ele>739.2</ele><time>2026-03-22T09:32:41.001Z</time></trkpt><trkpt lat="44.412892514957186" lon="9.062734743681293"><ele>739.6</ele><time>2026-03-22T09:32:42.001Z</time></trkpt><trkpt lat="44.4128783313504" lon="9.062871423355668"><ele>740.0</ele><time>2026-03-22T09:32:43.001Z</time></trkpt><trkpt lat="44.41286216002879" lon="9.063020342952928"><ele>740.0</ele><time>2026-03-22T09:32:44.001Z</time></trkpt><trkpt lat="44.4128468892567" lon="9.063160992065919"><ele>740.0</ele><time>2026-03-22T09:32:45.001Z</time></trkpt><trkpt lat="44.41283173408434" lon="9.06330040979185"><ele>740.0</ele><time>2026-03-22T09:32:46.001Z</time></trkpt><trkpt lat="44.41281443013793" lon="9.063468558397384"><ele>740.0</ele><time>2026-03-22T09:32:47.001Z</time></trkpt><trkpt lat="44.41280024257965" lon="9.063606423614223"><ele>740.0</ele><time>2026-03-22T09:32:48.001Z</time></trkpt><trkpt lat="44.412784968379604" lon="9.063754606689363"><ele>738.6</ele><time>2026-03-22T09:32:49.001Z</time></trkpt><trkpt lat="44.41277159771253" lon="9.063883696995038"><ele>737.2</ele><time>2026-03-22T09:32:50.001Z</time></trkpt><trkpt lat="44.412758872223" lon="9.064006558047264"><ele>735.8</ele><time>2026-03-22T09:32:51.001Z</time></trkpt><trkpt lat="44.41273933813121" lon="9.064142815659372"><ele>734.4</ele><time>2026-03-22T09:32:52.001Z</time></trkpt><trkpt lat="44.41271757065404" lon="9.064266943104137"><ele>733.0</ele><time>2026-03-22T09:32:53.001Z</time></trkpt><trkpt lat="44.41269128799804" lon="9.06438873895532"><ele>731.2</ele><time>2026-03-22T09:32:54.001Z</time></trkpt><trkpt lat="44.41265303527381" lon="9.064498581176208"><ele>729.4</ele><time>2026-03-22T09:32:55.001Z</time></trkpt><trkpt lat="44.41260898921176" lon="9.064604175657694"><ele>727.6</ele><time>2026-03-22T09:32:56.001Z</time></trkpt><trkpt lat="44.4125443459279" lon="9.06471357859981"><ele>725.8000000000001</ele><time>2026-03-22T09:32:57.001Z</time></trkpt><trkpt lat="44.412489518175754" lon="9.064833190099696"><ele>724.0</ele><time>2026-03-22T09:32:58.001Z</time></trkpt><trkpt lat="44.41243268057456" lon="9.064957186083005"><ele>720.2</ele><time>2026-03-22T09:32:59.001Z</time></trkpt><trkpt lat="44.41237862388086" lon="9.065075098220271"><ele>716.4000000000001</ele><time>2026-03-22T09:33:00.001Z</time></trkpt><trkpt lat="44.41232759710945" lon="9.06518633490615"><ele>712.6</ele><time>2026-03-22T09:33:01.001Z</time></trkpt><trkpt lat="44.41227772464306" lon="9.065305801338855"><ele>708.8</ele><time>2026-03-22T09:33:02.001Z</time></trkpt><trkpt lat="44.41223692094808" lon="9.06542658682879"><ele>705.0</ele><time>2026-03-22T09:33:03.001Z</time></trkpt><trkpt lat="44.41220367807374" lon="9.065552128325617"><ele>705.0</ele><time>2026-03-22T09:33:04.001Z</time></trkpt><trkpt lat="44.41218233288292" lon="9.06568100471469"><ele>705.0</ele><time>2026-03-22T09:33:05.001Z</time></trkpt><trkpt lat="44.41216974116854" lon="9.06581099885551"><ele>705.0</ele><time>2026-03-22T09:33:06.001Z</time></trkpt><trkpt lat="44.41216955852136" lon="9.065948462343375"><ele>705.0</ele><time>2026-03-22T09:33:07.001Z</time></trkpt><trkpt lat="44.41217923322096" lon="9.066109226681919"><ele>705.0</ele><time>2026-03-22T09:33:08Z</time></trkpt><trkpt lat="44.412189570215446" lon="9.066253379249147"><ele>701.2</ele><time>2026-03-22T09:33:09Z</time></trkpt><trkpt lat="44.412212392905644" lon="9.066396744735716"><ele>697.4</ele><time>2026-03-22T09:33:10Z</time></trkpt><trkpt lat="44.412210892298845" lon="9.066550506533325"><ele>693.5999999999999</ele><time>2026-03-22T09:33:11Z</time></trkpt><trkpt lat="44.41222067886501" lon="9.066686836066044"><ele>689.8</ele><time>2026-03-22T09:33:12Z</time></trkpt><trkpt lat="44.41223008018576" lon="9.066814511358704"><ele>686.0</ele><time>2026-03-22T09:33:13Z</time></trkpt><trkpt lat="44.412253240876424" lon="9.066941977303538"><ele>685.1666666666666</ele><time>2026-03-22T09:33:14Z</time></trkpt><trkpt lat="44.41225979078553" lon="9.06707429738012"><ele>684.3333333333333</ele><time>2026-03-22T09:33:15Z</time></trkpt><trkpt lat="44.41225768306586" lon="9.067198182387077"><ele>683.5</ele><time>2026-03-22T09:33:16Z</time></trkpt><trkpt lat="44.41223731819792" lon="9.067317654889859"><ele>682.6666666666666</ele><time>2026-03-22T09:33:17Z</time></trkpt><trkpt lat="44.412227164856866" lon="9.067410748416732"><ele>681.8333333333334</ele><time>2026-03-22T09:33:18Z</time></trkpt><trkpt lat="44.41220782432618" lon="9.067513473242622"><ele>681.0</ele><time>2026-03-22T09:33:19Z</time></trkpt><trkpt lat="44.41218887175388" lon="9.067610953484786"><ele>680.4</ele><time>2026-03-22T09:33:20Z</time></trkpt><trkpt lat="44.41216139107453" lon="9.067733586219063"><ele>679.8</ele><time>2026-03-22T09:33:21Z</time></trkpt><trkpt lat="44.412134189859756" lon="9.067856014500567"><ele>679.1999999999999</ele><time>2026-03-22T09:33:22Z</time></trkpt><trkpt lat="44.412107287235564" lon="9.067977098758059"><ele>678.5999999999999</ele><time>2026-03-22T09:33:23Z</time></trkpt><trkpt lat="44.41207911593067" lon="9.068103892854387"><ele>678.0</ele><time>2026-03-22T09:33:24Z</time></trkpt><trkpt lat="44.41206426960935" lon="9.068228389591079"><ele>677.2857142857142</ele><time>2026-03-22T09:33:25Z</time></trkpt><trkpt lat="44.41204217451309" lon="9.068317771270255"><ele>676.5714285714287</ele><time>2026-03-22T09:33:26Z</time></trkpt><trkpt lat="44.41201814471856" lon="9.068403172238515"><ele>675.8571428571429</ele><time>2026-03-22T09:33:28Z</time></trkpt><trkpt lat="44.41197241659386" lon="9.068501834918749"><ele>675.1428571428571</ele><time>2026-03-22T09:33:31Z</time></trkpt><trkpt lat="44.41192183160346" lon="9.06856521548533"><ele>674.4285714285713</ele><time>2026-03-22T09:33:34Z</time></trkpt><trkpt lat="44.411878268804415" lon="9.06864424033004"><ele>673.7142857142858</ele><time>2026-03-22T09:35:11.001Z</time></trkpt><trkpt lat="44.411854597805544" lon="9.068767462713268"><ele>673.0</ele><time>2026-03-22T09:35:13.001Z</time></trkpt><trkpt lat="44.4118274349003" lon="9.068871873769448"><ele>673.0</ele><time>2026-03-22T09:35:15Z</time></trkpt><trkpt lat="44.41179456012343" lon="9.069024172233519"><ele>673.0</ele><time>2026-03-22T09:35:17Z</time></trkpt><trkpt lat="44.411769858157555" lon="9.069161081202594"><ele>673.0</ele><time>2026-03-22T09:35:19Z</time></trkpt><trkpt lat="44.41173894887263" lon="9.069316206282036"><ele>673.0</ele><time>2026-03-22T09:35:21Z</time></trkpt><trkpt lat="44.41173003940118" lon="9.069458060849513"><ele>673.0</ele><time>2026-03-22T09:35:23Z</time></trkpt><trkpt lat="44.411707250147124" lon="9.069559052000475"><ele>673.8333333333334</ele><time>2026-03-22T09:35:27Z</time></trkpt><trkpt lat="44.41167140467006" lon="9.069669155547867"><ele>674.6666666666667</ele><time>2026-03-22T09:35:53Z</time></trkpt><trkpt lat="44.41166298808932" lon="9.069767614727384"><ele>675.5</ele><time>2026-03-22T09:35:56Z</time></trkpt><trkpt lat="44.41165126581765" lon="9.069856158538988"><ele>676.3333333333334</ele><time>2026-03-22T09:35:59Z</time></trkpt><trkpt lat="44.41162663749413" lon="9.069976175725941"><ele>677.1666666666666</ele><time>2026-03-22T09:36:02Z</time></trkpt><trkpt lat="44.411609318354564" lon="9.070064486101321"><ele>678.0</ele><time>2026-03-22T09:36:04Z</time></trkpt><trkpt lat="44.41158638280243" lon="9.07018816544369"><ele>678.1666666666666</ele><time>2026-03-22T09:36:08Z</time></trkpt><trkpt lat="44.4115716243558" lon="9.07028229070494"><ele>678.3333333333334</ele><time>2026-03-22T09:36:11Z</time></trkpt><trkpt lat="44.41159165002408" lon="9.070385582871285"><ele>678.5</ele><time>2026-03-22T09:36:20Z</time></trkpt><trkpt lat="44.41157540705925" lon="9.070503398813083"><ele>678.6666666666667</ele><time>2026-03-22T09:36:22Z</time></trkpt><trkpt lat="44.41153895621407" lon="9.070660903637773"><ele>678.8333333333334</ele><time>2026-03-22T09:36:24Z</time></trkpt><trkpt lat="44.41151522943932" lon="9.070744349217533"><ele>679.0</ele><time>2026-03-22T09:36:25Z</time></trkpt><trkpt lat="44.411448871183765" lon="9.07089646340348"><ele>679.0</ele><time>2026-03-22T09:36:27Z</time></trkpt><trkpt lat="44.41142689983106" lon="9.07099369747852"><ele>679.0</ele><time>2026-03-22T09:36:28Z</time></trkpt><trkpt lat="44.41140689661087" lon="9.071082222114805"><ele>679.0</ele><time>2026-03-22T09:36:29Z</time></trkpt><trkpt lat="44.41138421925215" lon="9.071182580689507"><ele>679.0</ele><time>2026-03-22T09:36:30Z</time></trkpt><trkpt lat="44.41136200948134" lon="9.071279139178214"><ele>679.0</ele><time>2026-03-22T09:36:31Z</time></trkpt><trkpt lat="44.411341444759756" lon="9.071365435655212"><ele>679.0</ele><time>2026-03-22T09:36:32Z</time></trkpt><trkpt lat="44.41131810595624" lon="9.071462498157649"><ele>679.0</ele><time>2026-03-22T09:36:33Z</time></trkpt><trkpt lat="44.41129345124075" lon="9.071557865457363"><ele>684.2</ele><time>2026-03-22T09:36:34Z</time></trkpt><trkpt lat="44.41123628660341" lon="9.071752491786903"><ele>689.4000000000001</ele><time>2026-03-22T09:36:36Z</time></trkpt><trkpt lat="44.41119779903748" lon="9.07185654935787"><ele>694.6</ele><time>2026-03-22T09:36:37Z</time></trkpt><trkpt lat="44.41115605989455" lon="9.071958643930206"><ele>699.8</ele><time>2026-03-22T09:36:38Z</time></trkpt><trkpt lat="44.41111113722294" lon="9.072056399346485"><ele>705.0</ele><time>2026-03-22T09:36:39Z</time></trkpt><trkpt lat="44.41106335598845" lon="9.072154601961625"><ele>705.0</ele><time>2026-03-22T09:36:40Z</time></trkpt><trkpt lat="44.41101344246863" lon="9.07225137011564"><ele>705.0</ele><time>2026-03-22T09:36:41Z</time></trkpt><trkpt lat="44.41095823115787" lon="9.07235611764361"><ele>705.0</ele><time>2026-03-22T09:36:42Z</time></trkpt><trkpt lat="44.410905202966504" lon="9.072456723255355"><ele>705.0</ele><time>2026-03-22T09:36:43Z</time></trkpt><trkpt lat="44.410854235711554" lon="9.072553418886011"><ele>705.0</ele><time>2026-03-22T09:36:44Z</time></trkpt><trkpt lat="44.41080883929221" lon="9.072639545454836"><ele>705.0</ele><time>2026-03-22T09:36:45Z</time></trkpt><trkpt lat="44.41075909017406" lon="9.072734162594493"><ele>705.1666666666666</ele><time>2026-03-22T09:36:46Z</time></trkpt><trkpt lat="44.4107063774495" lon="9.072834483962389"><ele>705.3333333333334</ele><time>2026-03-22T09:36:47Z</time></trkpt><trkpt lat="44.410655883636366" lon="9.072925503275414"><ele>705.5</ele><time>2026-03-22T09:36:48Z</time></trkpt><trkpt lat="44.41059963390149" lon="9.07301697284661"><ele>705.6666666666667</ele><time>2026-03-22T09:36:49.001Z</time></trkpt><trkpt lat="44.41054487915459" lon="9.07310237359098"><ele>705.8333333333334</ele><time>2026-03-22T09:36:50.001Z</time></trkpt><trkpt lat="44.41048325752777" lon="9.073193663218303"><ele>706.0</ele><time>2026-03-22T09:36:51.001Z</time></trkpt><trkpt lat="44.4104172110506" lon="9.073282104293016"><ele>708.1999999999999</ele><time>2026-03-22T09:36:52.001Z</time></trkpt><trkpt lat="44.4103493760408" lon="9.073369720733318"><ele>710.4</ele><time>2026-03-22T09:36:53.001Z</time></trkpt><trkpt lat="44.410279956578336" lon="9.073455903169792"><ele>712.6</ele><time>2026-03-22T09:36:54.001Z</time></trkpt><trkpt lat="44.41021209904583" lon="9.07354061329656"><ele>714.8</ele><time>2026-03-22T09:36:55.001Z</time></trkpt><trkpt lat="44.410142038506464" lon="9.07362958755942"><ele>717.0</ele><time>2026-03-22T09:36:56.001Z</time></trkpt><trkpt lat="44.41007331965434" lon="9.073723994099522"><ele>717.0</ele><time>2026-03-22T09:36:57.001Z</time></trkpt><trkpt lat="44.410011679064965" lon="9.073829842450532"><ele>717.0</ele><time>2026-03-22T09:36:58.001Z</time></trkpt><trkpt lat="44.40995010807964" lon="9.073944540041254"><ele>717.0</ele><time>2026-03-22T09:36:59.001Z</time></trkpt><trkpt lat="44.40989766651006" lon="9.074054338412529"><ele>717.0</ele><time>2026-03-22T09:37:00.001Z</time></trkpt><trkpt lat="44.40985297101582" lon="9.074188793999195"><ele>717.0</ele><time>2026-03-22T09:37:01.001Z</time></trkpt><trkpt lat="44.4098022047597" lon="9.074321598371915"><ele>715.0</ele><time>2026-03-22T09:37:02.001Z</time></trkpt><trkpt lat="44.40974683321812" lon="9.07445431930207"><ele>713.0</ele><time>2026-03-22T09:37:03.001Z</time></trkpt><trkpt lat="44.409695441692264" lon="9.074592891932385"><ele>711.0</ele><time>2026-03-22T09:37:04.001Z</time></trkpt><trkpt lat="44.409632339868836" lon="9.07474015161339"><ele>709.0</ele><time>2026-03-22T09:37:05.001Z</time></trkpt><trkpt lat="44.40957388488031" lon="9.074905482984542"><ele>715.2</ele><time>2026-03-22T09:37:06.001Z</time></trkpt><trkpt lat="44.40950744914657" lon="9.075043138924828"><ele>721.4000000000001</ele><time>2026-03-22T09:37:07.001Z</time></trkpt><trkpt lat="44.40945886113608" lon="9.075169438672248"><ele>727.6</ele><time>2026-03-22T09:37:08.001Z</time></trkpt><trkpt lat="44.40941363247314" lon="9.075287006363338"><ele>733.8</ele><time>2026-03-22T09:37:09.001Z</time></trkpt><trkpt lat="44.409371031481975" lon="9.075397664682612"><ele>740.0</ele><time>2026-03-22T09:37:10.001Z</time></trkpt><trkpt lat="44.40932623764502" lon="9.07551397088628"><ele>740.0</ele><time>2026-03-22T09:37:11.001Z</time></trkpt><trkpt lat="44.40927970155403" lon="9.075634800913575"><ele>740.0</ele><time>2026-03-22T09:37:12.001Z</time></trkpt><trkpt lat="44.40923069853441" lon="9.07576253187099"><ele>740.0</ele><time>2026-03-22T09:37:13.001Z</time></trkpt><trkpt lat="44.40918207890042" lon="9.075891746453642"><ele>740.0</ele><time>2026-03-22T09:37:14.001Z</time></trkpt><trkpt lat="44.40913727638473" lon="9.076019621094597"><ele>740.0</ele><time>2026-03-22T09:37:15.001Z</time></trkpt><trkpt lat="44.409096508824724" lon="9.076149652023053"><ele>736.0</ele><time>2026-03-22T09:37:16.001Z</time></trkpt><trkpt lat="44.40906265471788" lon="9.07627810108906"><ele>732.0</ele><time>2026-03-22T09:37:17.001Z</time></trkpt><trkpt lat="44.40903132023364" lon="9.076403515707634"><ele>728.0</ele><time>2026-03-22T09:37:18.001Z</time></trkpt><trkpt lat="44.40901166249657" lon="9.076528776696788"><ele>724.0</ele><time>2026-03-22T09:37:19.001Z</time></trkpt><trkpt lat="44.40896449628101" lon="9.076658601387312"><ele>720.0</ele><time>2026-03-22T09:37:20Z</time></trkpt><trkpt lat="44.40894947698564" lon="9.076783439894067"><ele>718.1666666666666</ele><time>2026-03-22T09:37:21Z</time></trkpt><trkpt lat="44.40891892234233" lon="9.076915118545108"><ele>716.3333333333334</ele><time>2026-03-22T09:37:22Z</time></trkpt><trkpt lat="44.40888209010279" lon="9.07703636752221"><ele>714.5</ele><time>2026-03-22T09:37:23Z</time></trkpt><trkpt lat="44.40884752764748" lon="9.077138997452892"><ele>712.6666666666667</ele><time>2026-03-22T09:37:24Z</time></trkpt><trkpt lat="44.40881084422017" lon="9.077234463345807"><ele>710.8333333333334</ele><time>2026-03-22T09:37:25Z</time></trkpt><trkpt lat="44.40876667946232" lon="9.077322141995477"><ele>709.0</ele><time>2026-03-22T09:37:26Z</time></trkpt><trkpt lat="44.40871513201251" lon="9.077411594101648"><ele>715.3333333333334</ele><time>2026-03-22T09:37:27Z</time></trkpt><trkpt lat="44.40865939401199" lon="9.077504412424853"><ele>721.6666666666667</ele><time>2026-03-22T09:37:28Z</time></trkpt><trkpt lat="44.40859781118545" lon="9.07759098421126"><ele>728.0</ele><time>2026-03-22T09:37:29Z</time></trkpt><trkpt lat="44.408534409174756" lon="9.07767983465"><ele>734.3333333333334</ele><time>2026-03-22T09:37:30Z</time></trkpt><trkpt lat="44.40848109039339" lon="9.077769832756124"><ele>740.6666666666666</ele><time>2026-03-22T09:37:31Z</time></trkpt><trkpt lat="44.408414745648415" lon="9.07785079491159"><ele>747.0</ele><time>2026-03-22T09:37:32Z</time></trkpt><trkpt lat="44.40836032215905" lon="9.077943322122566"><ele>747.0</ele><time>2026-03-22T09:37:33Z</time></trkpt><trkpt lat="44.408306774424624" lon="9.078042070852085"><ele>747.0</ele><time>2026-03-22T09:37:34Z</time></trkpt><trkpt lat="44.408256707526284" lon="9.078147926038753"><ele>747.0</ele><time>2026-03-22T09:37:35Z</time></trkpt><trkpt lat="44.408216172983785" lon="9.078261613980034"><ele>747.0</ele><time>2026-03-22T09:37:36Z</time></trkpt><trkpt lat="44.408179974457" lon="9.078362359319785"><ele>747.0</ele><time>2026-03-22T09:37:37Z</time></trkpt><trkpt lat="44.40814825033268" lon="9.078447240802776"><ele>747.0</ele><time>2026-03-22T09:37:38Z</time></trkpt><trkpt lat="44.40810965711184" lon="9.07852704552901"><ele>745.6</ele><time>2026-03-22T09:37:39Z</time></trkpt><trkpt lat="44.40802657864078" lon="9.078637752356657"><ele>744.2</ele><time>2026-03-22T09:37:41Z</time></trkpt><trkpt lat="44.40793348083472" lon="9.078717509545651"><ele>742.8</ele><time>2026-03-22T09:37:43Z</time></trkpt><trkpt lat="44.40786916864977" lon="9.078729172834898"><ele>741.4</ele><time>2026-03-22T09:37:44Z</time></trkpt><trkpt lat="44.40774711414501" lon="9.078695820064004"><ele>740.0</ele><time>2026-03-22T09:37:46Z</time></trkpt><trkpt lat="44.407683245412386" lon="9.078660493384229"><ele>739.9999999999999</ele><time>2026-03-22T09:37:47Z</time></trkpt><trkpt lat="44.4076189311233" lon="9.078605567395408"><ele>740.0</ele><time>2026-03-22T09:37:48Z</time></trkpt><trkpt lat="44.40755016035337" lon="9.078552126718705"><ele>740.0</ele><time>2026-03-22T09:37:49Z</time></trkpt><trkpt lat="44.40747849424283" lon="9.07850835962393"><ele>740.0</ele><time>2026-03-22T09:37:50Z</time></trkpt><trkpt lat="44.40740668637474" lon="9.078473514738164"><ele>740.0</ele><time>2026-03-22T09:37:51Z</time></trkpt><trkpt lat="44.40733614732976" lon="9.078458466085841"><ele>739.9999999999999</ele><time>2026-03-22T09:37:52Z</time></trkpt><trkpt lat="44.40726928854139" lon="9.07846987186401"><ele>740.0</ele><time>2026-03-22T09:37:53Z</time></trkpt><trkpt lat="44.40719400705899" lon="9.078489807030154"><ele>741.6</ele><time>2026-03-22T09:37:54Z</time></trkpt><trkpt lat="44.407118262504724" lon="9.078536815967235"><ele>743.2</ele><time>2026-03-22T09:37:55Z</time></trkpt><trkpt lat="44.407041922119035" lon="9.078582060001859"><ele>744.8</ele><time>2026-03-22T09:37:56Z</time></trkpt><trkpt lat="44.406958671240915" lon="9.078640372833108"><ele>746.4</ele><time>2026-03-22T09:37:57Z</time></trkpt><trkpt lat="44.40687000912007" lon="9.07871636500171"><ele>748.0</ele><time>2026-03-22T09:37:58Z</time></trkpt><trkpt lat="44.406782079432816" lon="9.078787588496189"><ele>748.0</ele><time>2026-03-22T09:37:59Z</time></trkpt><trkpt lat="44.40670166976308" lon="9.078858961904308"><ele>748.0</ele><time>2026-03-22T09:38:00Z</time></trkpt><trkpt lat="44.406611838780414" lon="9.078920938704636"><ele>748.0</ele><time>2026-03-22T09:38:01Z</time></trkpt><trkpt lat="44.4065205834533" lon="9.078997913147113"><ele>748.0</ele><time>2026-03-22T09:38:02Z</time></trkpt><trkpt lat="44.40643239587305" lon="9.079061757181984"><ele>748.0</ele><time>2026-03-22T09:38:03Z</time></trkpt><trkpt lat="44.40634198639931" lon="9.079143445683254"><ele>745.8</ele><time>2026-03-22T09:38:04Z</time></trkpt><trkpt lat="44.40624988007394" lon="9.079210289497501"><ele>743.5999999999999</ele><time>2026-03-22T09:38:05Z</time></trkpt><trkpt lat="44.406162803968066" lon="9.07927610821888"><ele>741.4000000000001</ele><time>2026-03-22T09:38:06Z</time></trkpt><trkpt lat="44.40606926080659" lon="9.07934549086216"><ele>739.2</ele><time>2026-03-22T09:38:07Z</time></trkpt><trkpt lat="44.40598168559213" lon="9.079415129066414"><ele>737.0</ele><time>2026-03-22T09:38:08Z</time></trkpt><trkpt lat="44.4059027277672" lon="9.079482342670941"><ele>737.0</ele><time>2026-03-22T09:38:09Z</time></trkpt><trkpt lat="44.405832791882865" lon="9.079545068688995"><ele>737.0</ele><time>2026-03-22T09:38:10Z</time></trkpt><trkpt lat="44.40576113821435" lon="9.079589806838076"><ele>737.0</ele><time>2026-03-22T09:38:11Z</time></trkpt><trkpt lat="44.405697820021246" lon="9.079662618699231"><ele>737.0</ele><time>2026-03-22T09:38:12Z</time></trkpt><trkpt lat="44.40564656234303" lon="9.079722738270204"><ele>737.0</ele><time>2026-03-22T09:38:13Z</time></trkpt><trkpt lat="44.405557501205564" lon="9.079821229954021"><ele>737.0</ele><time>2026-03-22T09:38:15Z</time></trkpt><trkpt lat="44.405495692167285" lon="9.079972422585179"><ele>736.4000000000001</ele><time>2026-03-22T09:38:17Z</time></trkpt><trkpt lat="44.40547409504528" lon="9.080058511617269"><ele>735.8000000000001</ele><time>2026-03-22T09:38:18Z</time></trkpt><trkpt lat="44.40546172335804" lon="9.080235424340959"><ele>735.2</ele><time>2026-03-22T09:38:20Z</time></trkpt><trkpt lat="44.40548883040716" lon="9.080414490890687"><ele>734.6</ele><time>2026-03-22T09:38:22Z</time></trkpt><trkpt lat="44.405523714251515" lon="9.080510904751714"><ele>734.0</ele><time>2026-03-22T09:38:23Z</time></trkpt><trkpt lat="44.4055928043997" lon="9.080653376042774"><ele>733.8333333333333</ele><time>2026-03-22T09:38:25Z</time></trkpt><trkpt lat="44.405643687589" lon="9.080737184547377"><ele>733.6666666666666</ele><time>2026-03-22T09:38:26Z</time></trkpt><trkpt lat="44.405695909986825" lon="9.080819920112766"><ele>733.5</ele><time>2026-03-22T09:38:27Z</time></trkpt><trkpt lat="44.40575011432287" lon="9.080905795493075"><ele>733.3333333333334</ele><time>2026-03-22T09:38:28Z</time></trkpt><trkpt lat="44.40580446076356" lon="9.080991895835753"><ele>733.1666666666667</ele><time>2026-03-22T09:38:29Z</time></trkpt><trkpt lat="44.40585626037416" lon="9.081075909411274"><ele>733.0</ele><time>2026-03-22T09:38:30Z</time></trkpt><trkpt lat="44.405926555161784" lon="9.081155640779846"><ele>733.0</ele><time>2026-03-22T09:38:31Z</time></trkpt><trkpt lat="44.40598577848711" lon="9.081252124008886"><ele>733.0</ele><time>2026-03-22T09:38:32Z</time></trkpt><trkpt lat="44.40604262042952" lon="9.081349338684047"><ele>733.0</ele><time>2026-03-22T09:38:33Z</time></trkpt><trkpt lat="44.40610371936982" lon="9.081454563388569"><ele>733.0</ele><time>2026-03-22T09:38:34Z</time></trkpt><trkpt lat="44.406169650631135" lon="9.081557405627006"><ele>733.0</ele><time>2026-03-22T09:38:35Z</time></trkpt><trkpt lat="44.4062249778656" lon="9.081656821180054"><ele>733.2</ele><time>2026-03-22T09:38:36Z</time></trkpt><trkpt lat="44.40627064464007" lon="9.08174425617033"><ele>733.4</ele><time>2026-03-22T09:38:37Z</time></trkpt><trkpt lat="44.40632399674899" lon="9.081841558793142"><ele>733.6</ele><time>2026-03-22T09:38:38Z</time></trkpt><trkpt lat="44.406379029649585" lon="9.08192847458507"><ele>733.8000000000001</ele><time>2026-03-22T09:38:39Z</time></trkpt><trkpt lat="44.406431207297764" lon="9.082010321742866"><ele>734.0</ele><time>2026-03-22T09:38:40Z</time></trkpt><trkpt lat="44.40652550019153" lon="9.082146907504628"><ele>734.0</ele><time>2026-03-22T09:38:42Z</time></trkpt><trkpt lat="44.40658643782475" lon="9.082204805462284"><ele>734.0</ele><time>2026-03-22T09:38:43Z</time></trkpt><trkpt lat="44.40665106426435" lon="9.082258754680028"><ele>734.0</ele><time>2026-03-22T09:38:44Z</time></trkpt><trkpt lat="44.40672082827065" lon="9.082310311693778"><ele>734.0</ele><time>2026-03-22T09:38:45Z</time></trkpt><trkpt lat="44.40680030931178" lon="9.08236072723338"><ele>734.0</ele><time>2026-03-22T09:38:46Z</time></trkpt><trkpt lat="44.40688053040538" lon="9.08241231423755"><ele>734.0</ele><time>2026-03-22T09:38:47Z</time></trkpt><trkpt lat="44.40697324532328" lon="9.082467473369332"><ele>735.0</ele><time>2026-03-22T09:38:48.001Z</time></trkpt><trkpt lat="44.407056291331074" lon="9.082525324527527"><ele>736.0</ele><time>2026-03-22T09:38:49.001Z</time></trkpt><trkpt lat="44.40713352438299" lon="9.082577568558923"><ele>737.0</ele><time>2026-03-22T09:38:50.001Z</time></trkpt><trkpt lat="44.40721976665797" lon="9.082628383257367"><ele>738.0</ele><time>2026-03-22T09:38:51.001Z</time></trkpt><trkpt lat="44.40730680179135" lon="9.08267852459819"><ele>739.0</ele><time>2026-03-22T09:38:52.001Z</time></trkpt><trkpt lat="44.40738937098002" lon="9.082727212682098"><ele>739.0</ele><time>2026-03-22T09:38:53.001Z</time></trkpt><trkpt lat="44.40747018968228" lon="9.082778251356862"><ele>739.0</ele><time>2026-03-22T09:38:54.001Z</time></trkpt><trkpt lat="44.407555912221994" lon="9.08283388458057"><ele>739.0</ele><time>2026-03-22T09:38:55.001Z</time></trkpt><trkpt lat="44.40763217876779" lon="9.082883502879437"><ele>739.0</ele><time>2026-03-22T09:38:56.001Z</time></trkpt><trkpt lat="44.40771861006208" lon="9.0829376389637"><ele>739.0</ele><time>2026-03-22T09:38:57.001Z</time></trkpt><trkpt lat="44.40779807261868" lon="9.082989254885906"><ele>739.0</ele><time>2026-03-22T09:38:58.001Z</time></trkpt><trkpt lat="44.40786092721882" lon="9.083042864287027"><ele>739.0</ele><time>2026-03-22T09:38:59.001Z</time></trkpt><trkpt lat="44.407922284746796" lon="9.083106486738055"><ele>739.0</ele><time>2026-03-22T09:39:00.001Z</time></trkpt><trkpt lat="44.40797180357545" lon="9.0831793542179"><ele>739.0</ele><time>2026-03-22T09:39:01.001Z</time></trkpt><trkpt lat="44.40801009545562" lon="9.083255303196717"><ele>739.0</ele><time>2026-03-22T09:39:02.001Z</time></trkpt><trkpt lat="44.40804143713799" lon="9.08333929563446"><ele>739.0</ele><time>2026-03-22T09:39:03.001Z</time></trkpt><trkpt lat="44.40806219800051" lon="9.083429131041441"><ele>739.0</ele><time>2026-03-22T09:39:04.001Z</time></trkpt><trkpt lat="44.40807326079499" lon="9.08351921813875"><ele>738.2</ele><time>2026-03-22T09:39:05.001Z</time></trkpt><trkpt lat="44.40808101587534" lon="9.08368500309454"><ele>737.4000000000001</ele><time>2026-03-22T09:39:07.001Z</time></trkpt><trkpt lat="44.40806243485855" lon="9.083780008932099"><ele>736.6</ele><time>2026-03-22T09:39:08.001Z</time></trkpt><trkpt lat="44.408031050968475" lon="9.083883772113296"><ele>735.8</ele><time>2026-03-22T09:39:09.001Z</time></trkpt><trkpt lat="44.40798539364676" lon="9.083991588607752"><ele>735.0</ele><time>2026-03-22T09:39:10.001Z</time></trkpt><trkpt lat="44.40794186355201" lon="9.084107427043293"><ele>739.6</ele><time>2026-03-22T09:39:11.001Z</time></trkpt><trkpt lat="44.40788750692057" lon="9.084225434805711"><ele>744.2</ele><time>2026-03-22T09:39:12.001Z</time></trkpt><trkpt lat="44.40784912443721" lon="9.084363058614443"><ele>748.8</ele><time>2026-03-22T09:39:13.001Z</time></trkpt><trkpt lat="44.40779047067127" lon="9.084500780841461"><ele>753.4</ele><time>2026-03-22T09:39:14.001Z</time></trkpt><trkpt lat="44.407742021117414" lon="9.084641815317939"><ele>758.0</ele><time>2026-03-22T09:39:15.001Z</time></trkpt><trkpt lat="44.40770531200422" lon="9.084785625025914"><ele>758.0</ele><time>2026-03-22T09:39:16.001Z</time></trkpt><trkpt lat="44.407648652997594" lon="9.084913966190726"><ele>758.0</ele><time>2026-03-22T09:39:17.001Z</time></trkpt><trkpt lat="44.40760523972269" lon="9.085039286693437"><ele>758.0</ele><time>2026-03-22T09:39:18.001Z</time></trkpt><trkpt lat="44.407563256996106" lon="9.085158938396779"><ele>758.0</ele><time>2026-03-22T09:39:19.001Z</time></trkpt><trkpt lat="44.40751874660399" lon="9.085285974774235"><ele>758.0</ele><time>2026-03-22T09:39:20.001Z</time></trkpt><trkpt lat="44.40748049437572" lon="9.085398440416249"><ele>755.8</ele><time>2026-03-22T09:39:21.001Z</time></trkpt><trkpt lat="44.40745836794437" lon="9.0855267475674"><ele>753.5999999999999</ele><time>2026-03-22T09:39:22.001Z</time></trkpt><trkpt lat="44.407430123121706" lon="9.085644495104095"><ele>751.4000000000001</ele><time>2026-03-22T09:39:23.001Z</time></trkpt><trkpt lat="44.40741041416425" lon="9.085748253861029"><ele>749.2</ele><time>2026-03-22T09:39:24.001Z</time></trkpt><trkpt lat="44.407394189243405" lon="9.085903270538697"><ele>747.0</ele><time>2026-03-22T09:39:26Z</time></trkpt><trkpt lat="44.407403502365206" lon="9.086014143409678"><ele>745.6666666666666</ele><time>2026-03-22T09:39:27Z</time></trkpt><trkpt lat="44.40742288981514" lon="9.086123978806912"><ele>744.3333333333334</ele><time>2026-03-22T09:39:28Z</time></trkpt><trkpt lat="44.40744722210032" lon="9.08623159680967"><ele>743.0</ele><time>2026-03-22T09:39:29Z</time></trkpt><trkpt lat="44.40746986741795" lon="9.08632548331962"><ele>741.6666666666667</ele><time>2026-03-22T09:39:30Z</time></trkpt><trkpt lat="44.40750224373141" lon="9.086456587282992"><ele>740.3333333333334</ele><time>2026-03-22T09:39:31Z</time></trkpt><trkpt lat="44.40753654280344" lon="9.08659547750299"><ele>739.0</ele><time>2026-03-22T09:39:32Z</time></trkpt><trkpt lat="44.407567302415245" lon="9.08672297353391"><ele>738.4000000000001</ele><time>2026-03-22T09:39:33Z</time></trkpt><trkpt lat="44.40759411483264" lon="9.086852937791095"><ele>737.8</ele><time>2026-03-22T09:39:34Z</time></trkpt><trkpt lat="44.4076147667513" lon="9.0869710312455"><ele>737.2</ele><time>2026-03-22T09:39:35Z</time></trkpt><trkpt lat="44.40764031814854" lon="9.087117534156807"><ele>736.5999999999999</ele><time>2026-03-22T09:39:36Z</time></trkpt><trkpt lat="44.40763531152818" lon="9.087245198799751"><ele>736.0</ele><time>2026-03-22T09:39:37Z</time></trkpt><trkpt lat="44.40761720303656" lon="9.08735930233713"><ele>735.1999999999999</ele><time>2026-03-22T09:39:38Z</time></trkpt><trkpt lat="44.40759523752544" lon="9.087479151070632"><ele>734.4</ele><time>2026-03-22T09:39:39Z</time></trkpt><trkpt lat="44.40756988932182" lon="9.087612861589902"><ele>733.6</ele><time>2026-03-22T09:39:40Z</time></trkpt><trkpt lat="44.40753582411344" lon="9.087763525850573"><ele>732.8</ele><time>2026-03-22T09:39:41Z</time></trkpt><trkpt lat="44.40750771134465" lon="9.08790430455149"><ele>732.0</ele><time>2026-03-22T09:39:42Z</time></trkpt><trkpt lat="44.40748061895046" lon="9.088045937380254"><ele>732.0</ele><time>2026-03-22T09:39:43Z</time></trkpt><trkpt lat="44.407453335287364" lon="9.088187307182832"><ele>732.0</ele><time>2026-03-22T09:39:44Z</time></trkpt><trkpt lat="44.40743599276315" lon="9.08833397869796"><ele>732.0</ele><time>2026-03-22T09:39:45Z</time></trkpt><trkpt lat="44.40740882295246" lon="9.088471444427839"><ele>732.0</ele><time>2026-03-22T09:39:46Z</time></trkpt><trkpt lat="44.407400997369436" lon="9.088622408625271"><ele>732.0</ele><time>2026-03-22T09:39:47Z</time></trkpt><trkpt lat="44.407400313085745" lon="9.088790303893175"><ele>732.8</ele><time>2026-03-22T09:39:48Z</time></trkpt><trkpt lat="44.407413347478375" lon="9.088943314594632"><ele>733.6</ele><time>2026-03-22T09:39:49Z</time></trkpt><trkpt lat="44.4074001221907" lon="9.089082479896861"><ele>734.4</ele><time>2026-03-22T09:39:50Z</time></trkpt><trkpt lat="44.40741343494575" lon="9.089231967624924"><ele>735.1999999999999</ele><time>2026-03-22T09:39:51Z</time></trkpt><trkpt lat="44.407399335583605" lon="9.089406835731852"><ele>736.0</ele><time>2026-03-22T09:39:52Z</time></trkpt><trkpt lat="44.4074103166566" lon="9.089569959125678"><ele>738.0</ele><time>2026-03-22T09:39:53Z</time></trkpt><trkpt lat="44.40739700081296" lon="9.089725844868125"><ele>740.0</ele><time>2026-03-22T09:39:54Z</time></trkpt><trkpt lat="44.407406278962426" lon="9.089882443946884"><ele>742.0</ele><time>2026-03-22T09:39:55Z</time></trkpt><trkpt lat="44.407402515989865" lon="9.090042117394207"><ele>744.0</ele><time>2026-03-22T09:39:56Z</time></trkpt><trkpt lat="44.40739273272169" lon="9.090203489032604"><ele>745.0</ele><time>2026-03-22T09:39:57Z</time></trkpt><trkpt lat="44.40740706630549" lon="9.090330762239397"><ele>746.0</ele><time>2026-03-22T09:39:58Z</time></trkpt><trkpt lat="44.407383517262204" lon="9.090456314283111"><ele>747.0</ele><time>2026-03-22T09:39:59Z</time></trkpt><trkpt lat="44.40739670346323" lon="9.0905830943254"><ele>748.0</ele><time>2026-03-22T09:40:00Z</time></trkpt><trkpt lat="44.40741209037265" lon="9.090715109658795"><ele>749.0</ele><time>2026-03-22T09:40:01Z</time></trkpt><trkpt lat="44.40743361200246" lon="9.090851206784038"><ele>749.4000000000001</ele><time>2026-03-22T09:40:02Z</time></trkpt><trkpt lat="44.4074523610272" lon="9.091000522347093"><ele>749.8</ele><time>2026-03-22T09:40:03Z</time></trkpt><trkpt lat="44.40746849754292" lon="9.091121714551356"><ele>750.2</ele><time>2026-03-22T09:40:04Z</time></trkpt><trkpt lat="44.40748512143461" lon="9.091236498861848"><ele>750.5999999999999</ele><time>2026-03-22T09:40:05Z</time></trkpt><trkpt lat="44.4075068942094" lon="9.091379227001848"><ele>751.0</ele><time>2026-03-22T09:40:06Z</time></trkpt><trkpt lat="44.40753777258422" lon="9.091525143700633"><ele>751.0</ele><time>2026-03-22T09:40:07Z</time></trkpt><trkpt lat="44.40754103104151" lon="9.091646596803397"><ele>751.0</ele><time>2026-03-22T09:40:08Z</time></trkpt><trkpt lat="44.407541928400704" lon="9.091759031147335"><ele>751.0</ele><time>2026-03-22T09:40:09Z</time></trkpt><trkpt lat="44.40753698699908" lon="9.091876275367841"><ele>751.0</ele><time>2026-03-22T09:40:10Z</time></trkpt><trkpt lat="44.40752100098697" lon="9.091980126254184"><ele>751.0</ele><time>2026-03-22T09:40:11Z</time></trkpt><trkpt lat="44.40749458992035" lon="9.092071831164729"><ele>751.0</ele><time>2026-03-22T09:40:12Z</time></trkpt><trkpt lat="44.407457746475295" lon="9.092149747864214"><ele>751.0</ele><time>2026-03-22T09:40:13Z</time></trkpt><trkpt lat="44.40740865978786" lon="9.092211348849167"><ele>751.0</ele><time>2026-03-22T09:40:14Z</time></trkpt><trkpt lat="44.407348164571644" lon="9.092268389748998"><ele>751.0</ele><time>2026-03-22T09:40:15Z</time></trkpt><trkpt lat="44.40727726201775" lon="9.092317808496311"><ele>751.0</ele><time>2026-03-22T09:40:16Z</time></trkpt><trkpt lat="44.40719285575773" lon="9.092355643690452"><ele>751.0</ele><time>2026-03-22T09:40:17Z</time></trkpt><trkpt lat="44.40710497815166" lon="9.092392988960876"><ele>751.0</ele><time>2026-03-22T09:40:18Z</time></trkpt><trkpt lat="44.40701094666081" lon="9.092423693131202"><ele>750.0</ele><time>2026-03-22T09:40:19Z</time></trkpt><trkpt lat="44.40691368176032" lon="9.092462842187174"><ele>749.0</ele><time>2026-03-22T09:40:20Z</time></trkpt><trkpt lat="44.40681513778786" lon="9.092501864814245"><ele>748.0</ele><time>2026-03-22T09:40:21Z</time></trkpt><trkpt lat="44.406721713310546" lon="9.09253391870841"><ele>747.0</ele><time>2026-03-22T09:40:22Z</time></trkpt><trkpt lat="44.40663776619872" lon="9.092549848081681"><ele>746.0</ele><time>2026-03-22T09:40:23Z</time></trkpt><trkpt lat="44.40656215976496" lon="9.09256184027951"><ele>746.0</ele><time>2026-03-22T09:40:24Z</time></trkpt><trkpt lat="44.40648312941652" lon="9.092565547859085"><ele>746.0</ele><time>2026-03-22T09:40:25Z</time></trkpt><trkpt lat="44.40639725196681" lon="9.092557881583597"><ele>746.0</ele><time>2026-03-22T09:40:26Z</time></trkpt><trkpt lat="44.40631736922001" lon="9.092525652487199"><ele>746.0</ele><time>2026-03-22T09:40:27Z</time></trkpt><trkpt lat="44.40624167420486" lon="9.09249840174072"><ele>746.0</ele><time>2026-03-22T09:40:28Z</time></trkpt><trkpt lat="44.40616740636308" lon="9.092442243169568"><ele>746.0</ele><time>2026-03-22T09:40:29Z</time></trkpt><trkpt lat="44.40610408302351" lon="9.092378256598733"><ele>745.6666666666666</ele><time>2026-03-22T09:40:30Z</time></trkpt><trkpt lat="44.40604286790478" lon="9.092316933270014"><ele>745.3333333333333</ele><time>2026-03-22T09:40:31Z</time></trkpt><trkpt lat="44.40599035313865" lon="9.09224532264546"><ele>745.0</ele><time>2026-03-22T09:40:32Z</time></trkpt><trkpt lat="44.40594405863548" lon="9.092165418905957"><ele>744.6666666666666</ele><time>2026-03-22T09:40:33Z</time></trkpt><trkpt lat="44.405900313854296" lon="9.092098558364789"><ele>744.3333333333334</ele><time>2026-03-22T09:40:34Z</time></trkpt><trkpt lat="44.40583282931483" lon="9.091966978165537"><ele>744.0</ele><time>2026-03-22T09:40:35Z</time></trkpt><trkpt lat="44.40577564608838" lon="9.09185704116914"><ele>744.0</ele><time>2026-03-22T09:40:36Z</time></trkpt><trkpt lat="44.405717756886766" lon="9.091752139685854"><ele>744.0</ele><time>2026-03-22T09:40:37Z</time></trkpt><trkpt lat="44.405665196684794" lon="9.09165157268713"><ele>744.0</ele><time>2026-03-22T09:40:38Z</time></trkpt><trkpt lat="44.40560626659618" lon="9.091545293931432"><ele>744.0</ele><time>2026-03-22T09:40:39Z</time></trkpt><trkpt lat="44.40554339487724" lon="9.091448120728723"><ele>744.0</ele><time>2026-03-22T09:40:40Z</time></trkpt><trkpt lat="44.40547780267717" lon="9.09136799618699"><ele>742.1666666666666</ele><time>2026-03-22T09:40:41Z</time></trkpt><trkpt lat="44.40541597488032" lon="9.091308742007822"><ele>740.3333333333334</ele><time>2026-03-22T09:40:42Z</time></trkpt><trkpt lat="44.40535195912546" lon="9.091265454205253"><ele>738.5</ele><time>2026-03-22T09:40:43Z</time></trkpt><trkpt lat="44.40529103007279" lon="9.091230076533341"><ele>736.6666666666667</ele><time>2026-03-22T09:40:44Z</time></trkpt><trkpt lat="44.405188545769605" lon="9.091161286336702"><ele>734.8333333333334</ele><time>2026-03-22T09:40:46Z</time></trkpt><trkpt lat="44.40510570876898" lon="9.091136096709123"><ele>733.0</ele><time>2026-03-22T09:40:48Z</time></trkpt><trkpt lat="44.40503800392831" lon="9.091131745835797"><ele>733.0</ele><time>2026-03-22T09:40:50Z</time></trkpt><trkpt lat="44.40496682883838" lon="9.091134586858281"><ele>733.0</ele><time>2026-03-22T09:40:53Z</time></trkpt><trkpt lat="44.40495350535952" lon="9.090964522647614"><ele>733.0</ele><time>2026-03-22T09:41:10.001Z</time></trkpt><trkpt lat="44.404889426363376" lon="9.091038606685474"><ele>733.0</ele><time>2026-03-22T09:41:43Z</time></trkpt><trkpt lat="44.40482866071264" lon="9.091130659668922"><ele>733.0</ele><time>2026-03-22T09:41:45Z</time></trkpt><trkpt lat="44.40475354918154" lon="9.091233639977233"><ele>733.0</ele><time>2026-03-22T09:41:47Z</time></trkpt><trkpt lat="44.404702225038506" lon="9.091312350385447"><ele>733.0</ele><time>2026-03-22T09:41:49Z</time></trkpt><trkpt lat="44.40467173785399" lon="9.091392984431616"><ele>733.0</ele><time>2026-03-22T09:41:52Z</time></trkpt><trkpt lat="44.404649897705816" lon="9.091505976841297"><ele>733.0</ele><time>2026-03-22T09:41:59Z</time></trkpt><trkpt lat="44.4046049758261" lon="9.091624137577417"><ele>733.0</ele><time>2026-03-22T09:42:01Z</time></trkpt><trkpt lat="44.40455057426281" lon="9.091787698281202"><ele>733.0</ele><time>2026-03-22T09:42:03Z</time></trkpt><trkpt lat="44.404527448800124" lon="9.091894559650475"><ele>731.8</ele><time>2026-03-22T09:42:04Z</time></trkpt><trkpt lat="44.404471656267795" lon="9.092004273163122"><ele>730.5999999999999</ele><time>2026-03-22T09:42:05Z</time></trkpt><trkpt lat="44.40445880889922" lon="9.09211978106687"><ele>729.4000000000001</ele><time>2026-03-22T09:42:06Z</time></trkpt><trkpt lat="44.404445871836046" lon="9.092239125539189"><ele>728.2</ele><time>2026-03-22T09:42:07Z</time></trkpt><trkpt lat="44.40442872419285" lon="9.092369033986964"><ele>727.0</ele><time>2026-03-22T09:42:08Z</time></trkpt><trkpt lat="44.40440744630559" lon="9.092493192933816"><ele>729.1666666666667</ele><time>2026-03-22T09:42:09Z</time></trkpt><trkpt lat="44.40438036419143" lon="9.092617449775123"><ele>731.3333333333334</ele><time>2026-03-22T09:42:10Z</time></trkpt><trkpt lat="44.4043502822245" lon="9.092728303009745"><ele>733.5</ele><time>2026-03-22T09:42:11Z</time></trkpt><trkpt lat="44.404314700605546" lon="9.092826694188636"><ele>735.6666666666666</ele><time>2026-03-22T09:42:12Z</time></trkpt><trkpt lat="44.4042839142316" lon="9.092941883256659"><ele>737.8333333333333</ele><time>2026-03-22T09:42:13Z</time></trkpt><trkpt lat="44.404233043203305" lon="9.093054132628335"><ele>740.0</ele><time>2026-03-22T09:42:14Z</time></trkpt><trkpt lat="44.40416458446826" lon="9.093144602672153"><ele>739.0</ele><time>2026-03-22T09:42:15Z</time></trkpt><trkpt lat="44.404114506832634" lon="9.09326193785669"><ele>738.0</ele><time>2026-03-22T09:42:16Z</time></trkpt><trkpt lat="44.40405973147175" lon="9.093361359164884"><ele>737.0</ele><time>2026-03-22T09:42:17Z</time></trkpt><trkpt lat="44.403988167443146" lon="9.093453756724825"><ele>736.0</ele><time>2026-03-22T09:42:18Z</time></trkpt><trkpt lat="44.40392806042124" lon="9.093560386375612"><ele>735.0</ele><time>2026-03-22T09:42:19Z</time></trkpt><trkpt lat="44.4038739179991" lon="9.093660096936082"><ele>737.8333333333334</ele><time>2026-03-22T09:42:20Z</time></trkpt><trkpt lat="44.40382482738185" lon="9.093758326107544"><ele>740.6666666666666</ele><time>2026-03-22T09:42:21Z</time></trkpt><trkpt lat="44.40379344079795" lon="9.093849742603307"><ele>743.5</ele><time>2026-03-22T09:42:22Z</time></trkpt><trkpt lat="44.403772615500515" lon="9.093952031514593"><ele>746.3333333333333</ele><time>2026-03-22T09:42:23Z</time></trkpt><trkpt lat="44.40376160135475" lon="9.094054968357751"><ele>749.1666666666666</ele><time>2026-03-22T09:42:24Z</time></trkpt><trkpt lat="44.40376815096811" lon="9.094161891219748"><ele>752.0</ele><time>2026-03-22T09:42:25Z</time></trkpt><trkpt lat="44.403784725916566" lon="9.094263245947005"><ele>752.0</ele><time>2026-03-22T09:42:26Z</time></trkpt><trkpt lat="44.4038204013352" lon="9.094353204799289"><ele>752.0</ele><time>2026-03-22T09:42:27Z</time></trkpt><trkpt lat="44.40387194995249" lon="9.094421628155567"><ele>752.0</ele><time>2026-03-22T09:42:28Z</time></trkpt><trkpt lat="44.40392414653039" lon="9.09448570875202"><ele>752.0</ele><time>2026-03-22T09:42:29Z</time></trkpt><trkpt lat="44.40400631134723" lon="9.0945267333859"><ele>752.0</ele><time>2026-03-22T09:42:30Z</time></trkpt><trkpt lat="44.404087370514645" lon="9.094576508824089"><ele>752.0</ele><time>2026-03-22T09:42:31Z</time></trkpt><trkpt lat="44.404175591663254" lon="9.094622427476182"><ele>747.8</ele><time>2026-03-22T09:42:32Z</time></trkpt><trkpt lat="44.40426836748594" lon="9.094669457258542"><ele>743.6</ele><time>2026-03-22T09:42:33Z</time></trkpt><trkpt lat="44.4043556053373" lon="9.094715959453614"><ele>739.4</ele><time>2026-03-22T09:42:34Z</time></trkpt><trkpt lat="44.404447041128215" lon="9.094767925830064"><ele>735.1999999999999</ele><time>2026-03-22T09:42:35Z</time></trkpt><trkpt lat="44.40452707697222" lon="9.094816211055527"><ele>731.0</ele><time>2026-03-22T09:42:36Z</time></trkpt><trkpt lat="44.40460767069183" lon="9.094868042275143"><ele>731.3333333333333</ele><time>2026-03-22T09:42:37Z</time></trkpt><trkpt lat="44.40469033791913" lon="9.094911499764352"><ele>731.6666666666666</ele><time>2026-03-22T09:42:38Z</time></trkpt><trkpt lat="44.40477280787929" lon="9.094964873602343"><ele>732.0</ele><time>2026-03-22T09:42:39Z</time></trkpt><trkpt lat="44.40484543011503" lon="9.095018502217178"><ele>732.3333333333334</ele><time>2026-03-22T09:42:40Z</time></trkpt><trkpt lat="44.40490568150356" lon="9.095074841829463"><ele>732.6666666666667</ele><time>2026-03-22T09:42:41Z</time></trkpt><trkpt lat="44.40496126164003" lon="9.09514048476044"><ele>733.0</ele><time>2026-03-22T09:42:42Z</time></trkpt><trkpt lat="44.40500095746226" lon="9.095224898004762"><ele>733.0</ele><time>2026-03-22T09:42:43Z</time></trkpt><trkpt lat="44.40503195423852" lon="9.09531353723646"><ele>733.0</ele><time>2026-03-22T09:42:44Z</time></trkpt><trkpt lat="44.405045684401465" lon="9.095401085095776"><ele>733.0</ele><time>2026-03-22T09:42:45Z</time></trkpt><trkpt lat="44.40505486173693" lon="9.09549955652804"><ele>733.0</ele><time>2026-03-22T09:42:46Z</time></trkpt><trkpt lat="44.405055538337635" lon="9.09560444326473"><ele>733.0</ele><time>2026-03-22T09:42:47Z</time></trkpt><trkpt lat="44.405048034365414" lon="9.095716019918534"><ele>733.0</ele><time>2026-03-22T09:42:48Z</time></trkpt><trkpt lat="44.40501238967643" lon="9.095834024457524"><ele>733.5</ele><time>2026-03-22T09:42:49Z</time></trkpt><trkpt lat="44.40499529063446" lon="9.095943875886544"><ele>734.0</ele><time>2026-03-22T09:42:50Z</time></trkpt><trkpt lat="44.4049753519017" lon="9.096070359858269"><ele>734.5</ele><time>2026-03-22T09:42:51Z</time></trkpt><trkpt lat="44.404973467850866" lon="9.096188446942525"><ele>735.0</ele><time>2026-03-22T09:42:52Z</time></trkpt><trkpt lat="44.40494167530178" lon="9.096306535685473"><ele>735.5</ele><time>2026-03-22T09:42:53Z</time></trkpt><trkpt lat="44.40495179645756" lon="9.096417395533047"><ele>736.0</ele><time>2026-03-22T09:42:54Z</time></trkpt><trkpt lat="44.40494846250234" lon="9.096515206250421"><ele>737.1666666666667</ele><time>2026-03-22T09:42:55Z</time></trkpt><trkpt lat="44.40495467402406" lon="9.09661796909505"><ele>738.3333333333334</ele><time>2026-03-22T09:42:56Z</time></trkpt><trkpt lat="44.40499896667589" lon="9.096766197561882"><ele>739.5</ele><time>2026-03-22T09:42:58Z</time></trkpt><trkpt lat="44.40505521205744" lon="9.096818554238537"><ele>740.6666666666666</ele><time>2026-03-22T09:42:59Z</time></trkpt><trkpt lat="44.4051146478789" lon="9.09688784021544"><ele>741.8333333333333</ele><time>2026-03-22T09:43:00Z</time></trkpt><trkpt lat="44.405178865050544" lon="9.096936132757461"><ele>743.0</ele><time>2026-03-22T09:43:01Z</time></trkpt><trkpt lat="44.405257975499076" lon="9.096983386963373"><ele>743.0</ele><time>2026-03-22T09:43:02Z</time></trkpt><trkpt lat="44.405334854836845" lon="9.097001816638697"><ele>743.0</ele><time>2026-03-22T09:43:03Z</time></trkpt><trkpt lat="44.40541816110593" lon="9.097028198151378"><ele>743.0</ele><time>2026-03-22T09:43:04Z</time></trkpt><trkpt lat="44.40550435448121" lon="9.097069723570419"><ele>743.0</ele><time>2026-03-22T09:43:05Z</time></trkpt><trkpt lat="44.40559355377696" lon="9.097108810252362"><ele>743.0</ele><time>2026-03-22T09:43:06Z</time></trkpt><trkpt lat="44.405678913248316" lon="9.097146346839345"><ele>743.0</ele><time>2026-03-22T09:43:07Z</time></trkpt><trkpt lat="44.4057698173105" lon="9.097187191248441"><ele>742.8</ele><time>2026-03-22T09:43:08Z</time></trkpt><trkpt lat="44.40583403612094" lon="9.097247258086501"><ele>742.5999999999999</ele><time>2026-03-22T09:43:09Z</time></trkpt><trkpt lat="44.405914633921796" lon="9.097390562802222"><ele>742.4000000000001</ele><time>2026-03-22T09:43:11Z</time></trkpt><trkpt lat="44.4059382868588" lon="9.097565214296678"><ele>742.2</ele><time>2026-03-22T09:43:13Z</time></trkpt><trkpt lat="44.40593821535869" lon="9.097661752267298"><ele>742.0</ele><time>2026-03-22T09:43:14Z</time></trkpt><trkpt lat="44.40592312416695" lon="9.097776325145366"><ele>742.0</ele><time>2026-03-22T09:43:15Z</time></trkpt><trkpt lat="44.40589359422367" lon="9.097880176607134"><ele>742.0</ele><time>2026-03-22T09:43:16Z</time></trkpt><trkpt lat="44.40586047113961" lon="9.0979965412134"><ele>742.0</ele><time>2026-03-22T09:43:17Z</time></trkpt><trkpt lat="44.405838763914915" lon="9.09810559231614"><ele>742.0</ele><time>2026-03-22T09:43:18Z</time></trkpt><trkpt lat="44.40583510691305" lon="9.098207811421672"><ele>742.0</ele><time>2026-03-22T09:43:19Z</time></trkpt><trkpt lat="44.40582191761259" lon="9.09831130431684"><ele>742.0</ele><time>2026-03-22T09:43:20.001Z</time></trkpt><trkpt lat="44.40585395694485" lon="9.098407728305347"><ele>743.1666666666667</ele><time>2026-03-22T09:43:21.001Z</time></trkpt><trkpt lat="44.40587922998664" lon="9.098495443933093"><ele>744.3333333333334</ele><time>2026-03-22T09:43:22.001Z</time></trkpt><trkpt lat="44.40591961196865" lon="9.098575660867981"><ele>745.5</ele><time>2026-03-22T09:43:23.001Z</time></trkpt><trkpt lat="44.40597515038163" lon="9.098649231359257"><ele>746.6666666666666</ele><time>2026-03-22T09:43:24.001Z</time></trkpt><trkpt lat="44.40604426791106" lon="9.098710909391404"><ele>747.8333333333333</ele><time>2026-03-22T09:43:25.001Z</time></trkpt><trkpt lat="44.4061202642326" lon="9.098742978862072"><ele>749.0</ele><time>2026-03-22T09:43:26.001Z</time></trkpt><trkpt lat="44.40620836542115" lon="9.09877710914065"><ele>749.0</ele><time>2026-03-22T09:43:27.001Z</time></trkpt><trkpt lat="44.40628117124269" lon="9.098763897086238"><ele>749.0</ele><time>2026-03-22T09:43:28.001Z</time></trkpt><trkpt lat="44.40636683965479" lon="9.098775389688432"><ele>749.0</ele><time>2026-03-22T09:43:29.001Z</time></trkpt><trkpt lat="44.406456522178374" lon="9.09879279967347"><ele>749.0</ele><time>2026-03-22T09:43:30.001Z</time></trkpt><trkpt lat="44.406544112037494" lon="9.098817637089546"><ele>749.0</ele><time>2026-03-22T09:43:31.001Z</time></trkpt><trkpt lat="44.40663109637163" lon="9.098853412269403"><ele>749.0</ele><time>2026-03-22T09:43:32.001Z</time></trkpt><trkpt lat="44.40670015552968" lon="9.098896342456689"><ele>749.5</ele><time>2026-03-22T09:43:33.001Z</time></trkpt><trkpt lat="44.40675757491786" lon="9.09894743760992"><ele>750.0</ele><time>2026-03-22T09:43:34.001Z</time></trkpt><trkpt lat="44.40680966265536" lon="9.0990191218873"><ele>750.5</ele><time>2026-03-22T09:43:35.001Z</time></trkpt><trkpt lat="44.40686719018727" lon="9.099109651199772"><ele>751.0</ele><time>2026-03-22T09:43:36.001Z</time></trkpt><trkpt lat="44.4068958471829" lon="9.099213058657062"><ele>751.5</ele><time>2026-03-22T09:43:37.001Z</time></trkpt><trkpt lat="44.40693504146256" lon="9.09932997794844"><ele>752.0</ele><time>2026-03-22T09:43:38Z</time></trkpt><trkpt lat="44.40697899028926" lon="9.099454503907296"><ele>752.0</ele><time>2026-03-22T09:43:39Z</time></trkpt><trkpt lat="44.407020507494046" lon="9.099563545200958"><ele>752.0</ele><time>2026-03-22T09:43:40Z</time></trkpt><trkpt lat="44.40706888480549" lon="9.099672640851779"><ele>752.0</ele><time>2026-03-22T09:43:41Z</time></trkpt><trkpt lat="44.4071190592774" lon="9.099756565303693"><ele>752.0</ele><time>2026-03-22T09:43:42Z</time></trkpt><trkpt lat="44.407192256273255" lon="9.09983447154988"><ele>752.0</ele><time>2026-03-22T09:43:43Z</time></trkpt><trkpt lat="44.407260859771576" lon="9.099877849041045"><ele>752.0</ele><time>2026-03-22T09:43:44Z</time></trkpt><trkpt lat="44.4073356875017" lon="9.099883351086804"><ele>749.3333333333333</ele><time>2026-03-22T09:43:45Z</time></trkpt><trkpt lat="44.40740677475189" lon="9.099887313264045"><ele>746.6666666666666</ele><time>2026-03-22T09:43:46Z</time></trkpt><trkpt lat="44.40748323827791" lon="9.099864411457487"><ele>744.0</ele><time>2026-03-22T09:43:47Z</time></trkpt><trkpt lat="44.407568044859396" lon="9.099841470167435"><ele>741.3333333333334</ele><time>2026-03-22T09:43:48Z</time></trkpt><trkpt lat="44.40766083745892" lon="9.099816914476373"><ele>738.6666666666667</ele><time>2026-03-22T09:43:49Z</time></trkpt><trkpt lat="44.40772860178885" lon="9.099789218145862"><ele>736.0</ele><time>2026-03-22T09:43:50Z</time></trkpt><trkpt lat="44.40785283601541" lon="9.099807663429473"><ele>736.0</ele><time>2026-03-22T09:43:52Z</time></trkpt><trkpt lat="44.40791155295068" lon="9.099843141693993"><ele>736.0</ele><time>2026-03-22T09:43:53Z</time></trkpt><trkpt lat="44.40800084798758" lon="9.09996149395408"><ele>736.0</ele><time>2026-03-22T09:43:55Z</time></trkpt><trkpt lat="44.408045209267186" lon="9.100051578371577"><ele>736.0</ele><time>2026-03-22T09:43:56Z</time></trkpt><trkpt lat="44.408087268523715" lon="9.100140410341426"><ele>736.0</ele><time>2026-03-22T09:43:57Z</time></trkpt><trkpt lat="44.40813288513478" lon="9.10024502022945"><ele>736.0</ele><time>2026-03-22T09:43:58Z</time></trkpt><trkpt lat="44.408176934981334" lon="9.100353490545823"><ele>736.1999999999999</ele><time>2026-03-22T09:43:59Z</time></trkpt><trkpt lat="44.4082233146717" lon="9.100471685165457"><ele>736.4</ele><time>2026-03-22T09:44:00Z</time></trkpt><trkpt lat="44.40828174793785" lon="9.100595760504326"><ele>736.6</ele><time>2026-03-22T09:44:01Z</time></trkpt><trkpt lat="44.40831434282596" lon="9.100706018521308"><ele>736.8</ele><time>2026-03-22T09:44:02Z</time></trkpt><trkpt lat="44.40835457688903" lon="9.100826386414308"><ele>737.0</ele><time>2026-03-22T09:44:03Z</time></trkpt><trkpt lat="44.408398413306124" lon="9.100941547784632"><ele>739.5</ele><time>2026-03-22T09:44:04Z</time></trkpt><trkpt lat="44.408454834719386" lon="9.101057742527038"><ele>742.0</ele><time>2026-03-22T09:44:05Z</time></trkpt><trkpt lat="44.408508835491666" lon="9.10116316190063"><ele>744.5</ele><time>2026-03-22T09:44:06Z</time></trkpt><trkpt lat="44.40856261603371" lon="9.101250172085585"><ele>747.0</ele><time>2026-03-22T09:44:07Z</time></trkpt><trkpt lat="44.408619502331916" lon="9.10132323961408"><ele>749.5</ele><time>2026-03-22T09:44:08Z</time></trkpt><trkpt lat="44.408688563426345" lon="9.101367100906026"><ele>752.0</ele><time>2026-03-22T09:44:09Z</time></trkpt><trkpt lat="44.40875611681833" lon="9.101402252455646"><ele>752.0</ele><time>2026-03-22T09:44:10Z</time></trkpt><trkpt lat="44.40882514906433" lon="9.101421988050907"><ele>752.0</ele><time>2026-03-22T09:44:11Z</time></trkpt><trkpt lat="44.40889278316858" lon="9.101420231845783"><ele>752.0</ele><time>2026-03-22T09:44:12Z</time></trkpt><trkpt lat="44.4089659419709" lon="9.101409629602381"><ele>752.0</ele><time>2026-03-22T09:44:13Z</time></trkpt><trkpt lat="44.40903986068494" lon="9.101392040377535"><ele>752.0</ele><time>2026-03-22T09:44:14Z</time></trkpt><trkpt lat="44.409114511988754" lon="9.101373587445579"><ele>752.0</ele><time>2026-03-22T09:44:15Z</time></trkpt><trkpt lat="44.409189206778315" lon="9.101355702880285"><ele>752.0</ele><time>2026-03-22T09:44:16Z</time></trkpt><trkpt lat="44.409265359806255" lon="9.101354919707672"><ele>752.6666666666666</ele><time>2026-03-22T09:44:17Z</time></trkpt><trkpt lat="44.40934615768873" lon="9.101370231654327"><ele>753.3333333333333</ele><time>2026-03-22T09:44:18Z</time></trkpt><trkpt lat="44.409413083614005" lon="9.101395316836445"><ele>754.0</ele><time>2026-03-22T09:44:19Z</time></trkpt><trkpt lat="44.40952205654839" lon="9.101503702061285"><ele>754.6666666666666</ele><time>2026-03-22T09:44:21Z</time></trkpt><trkpt lat="44.40956978347564" lon="9.101573188691411"><ele>755.3333333333334</ele><time>2026-03-22T09:44:22Z</time></trkpt><trkpt lat="44.40959747795557" lon="9.101655194762492"><ele>756.0</ele><time>2026-03-22T09:44:23Z</time></trkpt><trkpt lat="44.409626345685616" lon="9.101757137016426"><ele>756.0</ele><time>2026-03-22T09:44:24Z</time></trkpt><trkpt lat="44.40964452713688" lon="9.101854722520043"><ele>756.0</ele><time>2026-03-22T09:44:25Z</time></trkpt><trkpt lat="44.409622233070316" lon="9.10195745338597"><ele>756.0</ele><time>2026-03-22T09:44:26Z</time></trkpt><trkpt lat="44.40958341452215" lon="9.10210979231881"><ele>756.0</ele><time>2026-03-22T09:44:28Z</time></trkpt><trkpt lat="44.40951559485502" lon="9.10230707936211"><ele>756.0</ele><time>2026-03-22T09:44:30Z</time></trkpt><trkpt lat="44.409475839943035" lon="9.102429902682506"><ele>757.8333333333334</ele><time>2026-03-22T09:44:31Z</time></trkpt><trkpt lat="44.409438850559596" lon="9.102547089356818"><ele>759.6666666666666</ele><time>2026-03-22T09:44:32Z</time></trkpt><trkpt lat="44.40940800456574" lon="9.102652119337073"><ele>761.5</ele><time>2026-03-22T09:44:33Z</time></trkpt><trkpt lat="44.40938662761005" lon="9.102759660985747"><ele>763.3333333333333</ele><time>2026-03-22T09:44:34Z</time></trkpt><trkpt lat="44.409376827024936" lon="9.102875766970604"><ele>765.1666666666666</ele><time>2026-03-22T09:44:35Z</time></trkpt><trkpt lat="44.40938125006942" lon="9.1030046620313"><ele>767.0</ele><time>2026-03-22T09:44:36Z</time></trkpt><trkpt lat="44.40939629395192" lon="9.103138786861361"><ele>768.8</ele><time>2026-03-22T09:44:37Z</time></trkpt><trkpt lat="44.40941112996092" lon="9.103266038999275"><ele>770.6</ele><time>2026-03-22T09:44:38Z</time></trkpt><trkpt lat="44.409428500664156" lon="9.103405008373725"><ele>772.4</ele><time>2026-03-22T09:44:39Z</time></trkpt><trkpt lat="44.40943913455" lon="9.103536111265266"><ele>774.1999999999999</ele><time>2026-03-22T09:44:40Z</time></trkpt><trkpt lat="44.40943811683521" lon="9.103665311272442"><ele>776.0</ele><time>2026-03-22T09:44:41Z</time></trkpt><trkpt lat="44.40943275579202" lon="9.103806377520735"><ele>776.0</ele><time>2026-03-22T09:44:42Z</time></trkpt><trkpt lat="44.40942454474021" lon="9.103962478832777"><ele>776.0</ele><time>2026-03-22T09:44:43Z</time></trkpt><trkpt lat="44.409429127572196" lon="9.104121317047806"><ele>776.0</ele><time>2026-03-22T09:44:44Z</time></trkpt><trkpt lat="44.40942524982313" lon="9.104261471649336"><ele>776.0</ele><time>2026-03-22T09:44:45Z</time></trkpt><trkpt lat="44.40940169582221" lon="9.104391831975434"><ele>776.0</ele><time>2026-03-22T09:44:46Z</time></trkpt><trkpt lat="44.40939472515369" lon="9.1045160097762"><ele>772.8333333333334</ele><time>2026-03-22T09:44:47Z</time></trkpt><trkpt lat="44.40938604184488" lon="9.104633408169553"><ele>769.6666666666667</ele><time>2026-03-22T09:44:48Z</time></trkpt><trkpt lat="44.409375838071156" lon="9.104733074020276"><ele>766.5</ele><time>2026-03-22T09:44:49Z</time></trkpt><trkpt lat="44.40934947123605" lon="9.104848877620615"><ele>763.3333333333334</ele><time>2026-03-22T09:44:50Z</time></trkpt><trkpt lat="44.409318492930815" lon="9.104933961960164"><ele>760.1666666666667</ele><time>2026-03-22T09:44:51Z</time></trkpt><trkpt lat="44.40927421276709" lon="9.105043181596226"><ele>757.0</ele><time>2026-03-22T09:44:52Z</time></trkpt><trkpt lat="44.4092244631572" lon="9.105153425724117"><ele>754.4000000000001</ele><time>2026-03-22T09:44:53Z</time></trkpt><trkpt lat="44.40916788093481" lon="9.105277575017885"><ele>751.8000000000001</ele><time>2026-03-22T09:44:54Z</time></trkpt><trkpt lat="44.40910574627348" lon="9.105414018458466"><ele>749.2</ele><time>2026-03-22T09:44:55Z</time></trkpt><trkpt lat="44.40906390331336" lon="9.105517248525812"><ele>746.6</ele><time>2026-03-22T09:44:56Z</time></trkpt><trkpt lat="44.40902226587555" lon="9.10566023983592"><ele>744.0</ele><time>2026-03-22T09:44:57Z</time></trkpt><trkpt lat="44.40898694535759" lon="9.105802819377363"><ele>739.75</ele><time>2026-03-22T09:44:58Z</time></trkpt><trkpt lat="44.40895365805464" lon="9.105954426693286"><ele>735.5</ele><time>2026-03-22T09:44:59Z</time></trkpt><trkpt lat="44.40891976773313" lon="9.106107100836876"><ele>731.25</ele><time>2026-03-22T09:45:00Z</time></trkpt><trkpt lat="44.408883160928525" lon="9.106268018318353"><ele>727.0</ele><time>2026-03-22T09:45:01Z</time></trkpt><trkpt lat="44.40884943996381" lon="9.106416821326833"><ele>731.8</ele><time>2026-03-22T09:45:02Z</time></trkpt><trkpt lat="44.408817627142184" lon="9.106557204186009"><ele>736.6</ele><time>2026-03-22T09:45:03Z</time></trkpt><trkpt lat="44.40878357407366" lon="9.10670747273625"><ele>741.4</ele><time>2026-03-22T09:45:04Z</time></trkpt><trkpt lat="44.408750436321704" lon="9.106853701972215"><ele>746.1999999999999</ele><time>2026-03-22T09:45:05Z</time></trkpt><trkpt lat="44.40871745474543" lon="9.106997840496154"><ele>751.0</ele><time>2026-03-22T09:45:06Z</time></trkpt><trkpt lat="44.40868784385115" lon="9.107126956563215"><ele>751.0</ele><time>2026-03-22T09:45:07Z</time></trkpt><trkpt lat="44.40866083787229" lon="9.107255197032757"><ele>751.0</ele><time>2026-03-22T09:45:08Z</time></trkpt><trkpt lat="44.40864571147245" lon="9.107385057288724"><ele>751.0</ele><time>2026-03-22T09:45:09Z</time></trkpt><trkpt lat="44.40864999632089" lon="9.107505328461453"><ele>751.0</ele><time>2026-03-22T09:45:10Z</time></trkpt><trkpt lat="44.408664641048276" lon="9.107615632953529"><ele>751.0</ele><time>2026-03-22T09:45:11Z</time></trkpt><trkpt lat="44.4087063368585" lon="9.10770031401945"><ele>751.0</ele><time>2026-03-22T09:45:12Z</time></trkpt><trkpt lat="44.40872965344696" lon="9.107790406647005"><ele>750.0</ele><time>2026-03-22T09:45:13Z</time></trkpt><trkpt lat="44.4087612410732" lon="9.107894266850572"><ele>749.0</ele><time>2026-03-22T09:45:14Z</time></trkpt><trkpt lat="44.40878020823625" lon="9.108010088316501"><ele>748.0</ele><time>2026-03-22T09:45:15Z</time></trkpt><trkpt lat="44.40881099797243" lon="9.108121072975147"><ele>747.0</ele><time>2026-03-22T09:45:16Z</time></trkpt><trkpt lat="44.40888685827544" lon="9.108212985283602"><ele>746.0</ele><time>2026-03-22T09:45:17Z</time></trkpt><trkpt lat="44.40893999715331" lon="9.108296914502752"><ele>745.0</ele><time>2026-03-22T09:45:18Z</time></trkpt><trkpt lat="44.408988067983486" lon="9.108373067281814"><ele>742.1666666666667</ele><time>2026-03-22T09:45:19Z</time></trkpt><trkpt lat="44.409056194352495" lon="9.108460859312972"><ele>739.3333333333334</ele><time>2026-03-22T09:45:20Z</time></trkpt><trkpt lat="44.409130951186285" lon="9.108554470713184"><ele>736.5</ele><time>2026-03-22T09:45:21Z</time></trkpt><trkpt lat="44.40919183487677" lon="9.108632323202409"><ele>733.6666666666666</ele><time>2026-03-22T09:45:22Z</time></trkpt><trkpt lat="44.40923613244561" lon="9.108708756691934"><ele>730.8333333333333</ele><time>2026-03-22T09:45:23Z</time></trkpt><trkpt lat="44.4092809671278" lon="9.108774251854124"><ele>728.0</ele><time>2026-03-22T09:45:24Z</time></trkpt><trkpt lat="44.4093356466578" lon="9.10883856022445"><ele>728.0</ele><time>2026-03-22T09:45:25Z</time></trkpt><trkpt lat="44.40939628970383" lon="9.108898187859872"><ele>728.0</ele><time>2026-03-22T09:45:26Z</time></trkpt><trkpt lat="44.40944336760607" lon="9.108973763379819"><ele>728.0</ele><time>2026-03-22T09:45:27Z</time></trkpt><trkpt lat="44.40949942001866" lon="9.109056213529865"><ele>728.0</ele><time>2026-03-22T09:45:28Z</time></trkpt><trkpt lat="44.40955996187198" lon="9.109106520007725"><ele>728.0</ele><time>2026-03-22T09:45:29Z</time></trkpt><trkpt lat="44.409634469002825" lon="9.109139698793443"><ele>728.0</ele><time>2026-03-22T09:45:30Z</time></trkpt><trkpt lat="44.409704794209986" lon="9.10918542080831"><ele>729.3333333333333</ele><time>2026-03-22T09:45:31Z</time></trkpt><trkpt lat="44.409776986921294" lon="9.109228124039154"><ele>730.6666666666666</ele><time>2026-03-22T09:45:32Z</time></trkpt><trkpt lat="44.4098554116123" lon="9.109273884886818"><ele>732.0</ele><time>2026-03-22T09:45:33Z</time></trkpt><trkpt lat="44.409939329501704" lon="9.109322835502894"><ele>733.3333333333334</ele><time>2026-03-22T09:45:34Z</time></trkpt><trkpt lat="44.41002256279329" lon="9.109371849538686"><ele>734.6666666666667</ele><time>2026-03-22T09:45:35.001Z</time></trkpt><trkpt lat="44.41008875843265" lon="9.109405645033213"><ele>736.0</ele><time>2026-03-22T09:45:36.001Z</time></trkpt><trkpt lat="44.410168893609054" lon="9.109468885278236"><ele>736.0</ele><time>2026-03-22T09:45:37.001Z</time></trkpt><trkpt lat="44.41024887313401" lon="9.109516226044148"><ele>736.0</ele><time>2026-03-22T09:45:38.001Z</time></trkpt><trkpt lat="44.41031928108803" lon="9.10956868919474"><ele>736.0</ele><time>2026-03-22T09:45:39.001Z</time></trkpt><trkpt lat="44.410379775102435" lon="9.109604383902875"><ele>736.0</ele><time>2026-03-22T09:45:40.001Z</time></trkpt><trkpt lat="44.41043813905056" lon="9.10965439744783"><ele>736.0</ele><time>2026-03-22T09:45:41.001Z</time></trkpt><trkpt lat="44.41052174407769" lon="9.109719618644046"><ele>736.0</ele><time>2026-03-22T09:45:43.001Z</time></trkpt><trkpt lat="44.41055146103043" lon="9.109818358075072"><ele>733.1999999999999</ele><time>2026-03-22T09:45:46Z</time></trkpt><trkpt lat="44.410524564848295" lon="9.10970451227747"><ele>730.4</ele><time>2026-03-22T09:46:21Z</time></trkpt><trkpt lat="44.410565921632326" lon="9.10979843767652"><ele>727.6</ele><time>2026-03-22T09:46:45Z</time></trkpt><trkpt lat="44.41063579119966" lon="9.109832326947936"><ele>724.8</ele><time>2026-03-22T09:47:01Z</time></trkpt><trkpt lat="44.41075096804282" lon="9.109878973085884"><ele>722.0</ele><time>2026-03-22T09:47:03Z</time></trkpt><trkpt lat="44.410869391107326" lon="9.109948498929679"><ele>722.0</ele><time>2026-03-22T09:47:05Z</time></trkpt><trkpt lat="44.41093280297193" lon="9.109987118275606"><ele>722.0</ele><time>2026-03-22T09:47:06Z</time></trkpt><trkpt lat="44.41100145710184" lon="9.110035731451827"><ele>722.0</ele><time>2026-03-22T09:47:07Z</time></trkpt><trkpt lat="44.411090249978784" lon="9.110078655190115"><ele>722.0</ele><time>2026-03-22T09:47:08Z</time></trkpt><trkpt lat="44.41117767674098" lon="9.110124283713427"><ele>722.0</ele><time>2026-03-22T09:47:09Z</time></trkpt><trkpt lat="44.41125507272358" lon="9.110174939766528"><ele>722.0</ele><time>2026-03-22T09:47:10Z</time></trkpt><trkpt lat="44.41133606504837" lon="9.110214827057883"><ele>726.1666666666666</ele><time>2026-03-22T09:47:11Z</time></trkpt><trkpt lat="44.41141218831916" lon="9.110254556784048"><ele>730.3333333333333</ele><time>2026-03-22T09:47:12Z</time></trkpt><trkpt lat="44.41148269161228" lon="9.1102952238023"><ele>734.5</ele><time>2026-03-22T09:47:13Z</time></trkpt><trkpt lat="44.411563118357684" lon="9.110354650164647"><ele>738.6666666666666</ele><time>2026-03-22T09:47:14Z</time></trkpt><trkpt lat="44.41163311194856" lon="9.11040669677158"><ele>742.8333333333334</ele><time>2026-03-22T09:47:15Z</time></trkpt><trkpt lat="44.41169538866035" lon="9.110468416766086"><ele>747.0</ele><time>2026-03-22T09:47:16Z</time></trkpt><trkpt lat="44.41175752238366" lon="9.11053425808945"><ele>747.0</ele><time>2026-03-22T09:47:17Z</time></trkpt><trkpt lat="44.411825213007305" lon="9.110623176006662"><ele>747.0</ele><time>2026-03-22T09:47:18Z</time></trkpt><trkpt lat="44.411892226731304" lon="9.110705463287477"><ele>747.0</ele><time>2026-03-22T09:47:19Z</time></trkpt><trkpt lat="44.411957055555284" lon="9.110786077215687"><ele>747.0</ele><time>2026-03-22T09:47:20Z</time></trkpt><trkpt lat="44.41203357520513" lon="9.110886909578195"><ele>747.0</ele><time>2026-03-22T09:47:21Z</time></trkpt><trkpt lat="44.41209682153539" lon="9.110976348702996"><ele>746.5</ele><time>2026-03-22T09:47:22Z</time></trkpt><trkpt lat="44.41215716922681" lon="9.111048842354169"><ele>746.0</ele><time>2026-03-22T09:47:23Z</time></trkpt><trkpt lat="44.41220668492905" lon="9.11114292182212"><ele>745.5</ele><time>2026-03-22T09:47:24Z</time></trkpt><trkpt lat="44.41224979903283" lon="9.111237151034574"><ele>745.0</ele><time>2026-03-22T09:47:25Z</time></trkpt><trkpt lat="44.41229167537877" lon="9.11134144598425"><ele>744.5</ele><time>2026-03-22T09:47:26Z</time></trkpt><trkpt lat="44.41233299901825" lon="9.11144355105557"><ele>744.0</ele><time>2026-03-22T09:47:27Z</time></trkpt><trkpt lat="44.41236567565154" lon="9.111553453694896"><ele>737.4000000000001</ele><time>2026-03-22T09:47:28Z</time></trkpt><trkpt lat="44.41240037908803" lon="9.111669523904709"><ele>730.8</ele><time>2026-03-22T09:47:29Z</time></trkpt><trkpt lat="44.412419269842005" lon="9.111809963883925"><ele>724.2</ele><time>2026-03-22T09:47:30Z</time></trkpt><trkpt lat="44.412438660556475" lon="9.11195067542333"><ele>717.5999999999999</ele><time>2026-03-22T09:47:31Z</time></trkpt><trkpt lat="44.41246897493669" lon="9.112090320614001"><ele>711.0</ele><time>2026-03-22T09:47:32Z</time></trkpt><trkpt lat="44.41249551736396" lon="9.112220189316407"><ele>711.0</ele><time>2026-03-22T09:47:33Z</time></trkpt><trkpt lat="44.41251653013733" lon="9.112354762184754"><ele>711.0</ele><time>2026-03-22T09:47:34Z</time></trkpt><trkpt lat="44.41253562563855" lon="9.112473335101985"><ele>711.0</ele><time>2026-03-22T09:47:35Z</time></trkpt><trkpt lat="44.41255016608984" lon="9.11260751435858"><ele>711.0</ele><time>2026-03-22T09:47:36Z</time></trkpt><trkpt lat="44.41256949623369" lon="9.11273803811963"><ele>711.0</ele><time>2026-03-22T09:47:37Z</time></trkpt><trkpt lat="44.412591243548924" lon="9.11286692429746"><ele>708.6666666666666</ele><time>2026-03-22T09:47:38Z</time></trkpt><trkpt lat="44.4125911658186" lon="9.112983813766919"><ele>706.3333333333334</ele><time>2026-03-22T09:47:39Z</time></trkpt><trkpt lat="44.412595450663005" lon="9.113101399201383"><ele>704.0</ele><time>2026-03-22T09:47:40Z</time></trkpt><trkpt lat="44.41259760503561" lon="9.1132193520781"><ele>701.6666666666667</ele><time>2026-03-22T09:47:41Z</time></trkpt><trkpt lat="44.412584955059266" lon="9.113342064021248"><ele>699.3333333333334</ele><time>2026-03-22T09:47:42Z</time></trkpt><trkpt lat="44.41257695236092" lon="9.11346599763935"><ele>697.0</ele><time>2026-03-22T09:47:43Z</time></trkpt><trkpt lat="44.41257484774932" lon="9.113571739938115"><ele>694.8</ele><time>2026-03-22T09:47:44Z</time></trkpt><trkpt lat="44.412575908958836" lon="9.113687441660238"><ele>692.6</ele><time>2026-03-22T09:47:45Z</time></trkpt><trkpt lat="44.412588817276706" lon="9.113808564047067"><ele>690.4</ele><time>2026-03-22T09:47:46Z</time></trkpt><trkpt lat="44.41261217925519" lon="9.11395070302264"><ele>688.1999999999999</ele><time>2026-03-22T09:47:47Z</time></trkpt><trkpt lat="44.41264411202632" lon="9.114097644602179"><ele>686.0</ele><time>2026-03-22T09:47:48Z</time></trkpt><trkpt lat="44.4126764342816" lon="9.114220185405072"><ele>684.0</ele><time>2026-03-22T09:47:49Z</time></trkpt><trkpt lat="44.412699386987626" lon="9.114360732576325"><ele>682.0</ele><time>2026-03-22T09:47:49.999Z</time></trkpt><trkpt lat="44.412731552774034" lon="9.114525480928483"><ele>680.0</ele><time>2026-03-22T09:47:50.999Z</time></trkpt><trkpt lat="44.41275138381555" lon="9.114661165869764"><ele>678.0</ele><time>2026-03-22T09:47:51.999Z</time></trkpt><trkpt lat="44.41276867635758" lon="9.11481396041665"><ele>676.0</ele><time>2026-03-22T09:47:52.999Z</time></trkpt><trkpt lat="44.41277813294705" lon="9.114995591881776"><ele>673.5999999999999</ele><time>2026-03-22T09:47:53.999Z</time></trkpt><trkpt lat="44.41278742311976" lon="9.11515226901078"><ele>671.2</ele><time>2026-03-22T09:47:55Z</time></trkpt><trkpt lat="44.41280186281033" lon="9.115295021311537"><ele>668.8</ele><time>2026-03-22T09:47:56Z</time></trkpt><trkpt lat="44.41280759237862" lon="9.115427249826674"><ele>666.4000000000001</ele><time>2026-03-22T09:47:57Z</time></trkpt><trkpt lat="44.412812378299485" lon="9.115544317449546"><ele>664.0</ele><time>2026-03-22T09:47:58Z</time></trkpt><trkpt lat="44.412816917573124" lon="9.115648371012847"><ele>662.8333333333334</ele><time>2026-03-22T09:47:59Z</time></trkpt><trkpt lat="44.412807707171325" lon="9.115767973787364"><ele>661.6666666666667</ele><time>2026-03-22T09:48:00Z</time></trkpt><trkpt lat="44.412783212566886" lon="9.115873524159007"><ele>660.5</ele><time>2026-03-22T09:48:01Z</time></trkpt><trkpt lat="44.41273456315496" lon="9.115989174408151"><ele>659.3333333333334</ele><time>2026-03-22T09:48:02Z</time></trkpt><trkpt lat="44.41269982372241" lon="9.116097866511012"><ele>658.1666666666666</ele><time>2026-03-22T09:48:03Z</time></trkpt><trkpt lat="44.412664291793135" lon="9.11622694753485"><ele>657.0</ele><time>2026-03-22T09:48:04Z</time></trkpt><trkpt lat="44.41262867902483" lon="9.116379751441688"><ele>657.0</ele><time>2026-03-22T09:48:05Z</time></trkpt><trkpt lat="44.41260091407595" lon="9.116497119675714"><ele>657.0</ele><time>2026-03-22T09:48:06Z</time></trkpt><trkpt lat="44.412582766000014" lon="9.116635379382826"><ele>657.0</ele><time>2026-03-22T09:48:07Z</time></trkpt><trkpt lat="44.412570896871884" lon="9.116726187218372"><ele>657.0</ele><time>2026-03-22T09:48:08Z</time></trkpt><trkpt lat="44.41255112853247" lon="9.116868155374798"><ele>657.0</ele><time>2026-03-22T09:48:09Z</time></trkpt><trkpt lat="44.412560801390526" lon="9.11697845754954"><ele>657.0</ele><time>2026-03-22T09:48:10Z</time></trkpt><trkpt lat="44.41257535147152" lon="9.117124070363458"><ele>656.4000000000001</ele><time>2026-03-22T09:48:11Z</time></trkpt><trkpt lat="44.41260131553196" lon="9.11726018418954"><ele>655.8000000000001</ele><time>2026-03-22T09:48:12Z</time></trkpt><trkpt lat="44.412623089943445" lon="9.117415012412405"><ele>655.2</ele><time>2026-03-22T09:48:13Z</time></trkpt><trkpt lat="44.41264405910296" lon="9.117555935429502"><ele>654.6</ele><time>2026-03-22T09:48:14Z</time></trkpt><trkpt lat="44.41265504604267" lon="9.11771417019718"><ele>654.0</ele><time>2026-03-22T09:48:15Z</time></trkpt><trkpt lat="44.41265891364503" lon="9.11787009122992"><ele>653.4000000000001</ele><time>2026-03-22T09:48:16Z</time></trkpt><trkpt lat="44.41266516299565" lon="9.11802942500316"><ele>652.8</ele><time>2026-03-22T09:48:17Z</time></trkpt><trkpt lat="44.412671200325896" lon="9.118181907034405"><ele>652.2</ele><time>2026-03-22T09:48:18Z</time></trkpt><trkpt lat="44.412672680779764" lon="9.118340993243903"><ele>651.5999999999999</ele><time>2026-03-22T09:48:19Z</time></trkpt><trkpt lat="44.412671315181214" lon="9.118472837232046"><ele>651.0</ele><time>2026-03-22T09:48:20Z</time></trkpt><trkpt lat="44.412656320093305" lon="9.118617396654502"><ele>649.8</ele><time>2026-03-22T09:48:21Z</time></trkpt><trkpt lat="44.41263820263868" lon="9.118755210130859"><ele>648.5999999999999</ele><time>2026-03-22T09:48:22Z</time></trkpt><trkpt lat="44.4126112070895" lon="9.118870705032448"><ele>647.4</ele><time>2026-03-22T09:48:23Z</time></trkpt><trkpt lat="44.412570257720375" lon="9.11898982728016"><ele>646.2</ele><time>2026-03-22T09:48:24Z</time></trkpt><trkpt lat="44.41252251353757" lon="9.119121849826715"><ele>645.0</ele><time>2026-03-22T09:48:25Z</time></trkpt><trkpt lat="44.41246845237614" lon="9.119263935668124"><ele>644.6</ele><time>2026-03-22T09:48:26Z</time></trkpt><trkpt lat="44.41242520677214" lon="9.119388301078084"><ele>644.2</ele><time>2026-03-22T09:48:27Z</time></trkpt><trkpt lat="44.4123845799794" lon="9.11949140215287"><ele>643.8</ele><time>2026-03-22T09:48:28Z</time></trkpt><trkpt lat="44.412347980291685" lon="9.119636885427326"><ele>643.4</ele><time>2026-03-22T09:48:29Z</time></trkpt><trkpt lat="44.4123202221139" lon="9.119782232528898"><ele>643.0</ele><time>2026-03-22T09:48:30Z</time></trkpt><trkpt lat="44.41229695625097" lon="9.1199239804226"><ele>642.4</ele><time>2026-03-22T09:48:31Z</time></trkpt><trkpt lat="44.41227820567197" lon="9.12006530024393"><ele>641.8</ele><time>2026-03-22T09:48:32Z</time></trkpt><trkpt lat="44.412254662330184" lon="9.12021313955753"><ele>641.2</ele><time>2026-03-22T09:48:33Z</time></trkpt><trkpt lat="44.412225548355735" lon="9.1203633214891"><ele>640.6</ele><time>2026-03-22T09:48:34Z</time></trkpt><trkpt lat="44.412203755923656" lon="9.120494025910348"><ele>640.0</ele><time>2026-03-22T09:48:35Z</time></trkpt><trkpt lat="44.41218430236545" lon="9.120629692328661"><ele>637.4</ele><time>2026-03-22T09:48:36Z</time></trkpt><trkpt lat="44.41216475748272" lon="9.120766542398762"><ele>634.8</ele><time>2026-03-22T09:48:37Z</time></trkpt><trkpt lat="44.41213947453474" lon="9.120900577567971"><ele>632.2</ele><time>2026-03-22T09:48:38Z</time></trkpt><trkpt lat="44.412108780998324" lon="9.121028417162108"><ele>629.6</ele><time>2026-03-22T09:48:39Z</time></trkpt><trkpt lat="44.41207348092427" lon="9.121153278181067"><ele>627.0</ele><time>2026-03-22T09:48:40Z</time></trkpt><trkpt lat="44.41203363757186" lon="9.121270769887541"><ele>624.3333333333334</ele><time>2026-03-22T09:48:41Z</time></trkpt><trkpt lat="44.41199330636392" lon="9.121383723775928"><ele>621.6666666666666</ele><time>2026-03-22T09:48:42Z</time></trkpt><trkpt lat="44.411946746342906" lon="9.121499426042318"><ele>619.0</ele><time>2026-03-22T09:48:43Z</time></trkpt><trkpt lat="44.41190236224209" lon="9.12161208504986"><ele>616.3333333333333</ele><time>2026-03-22T09:48:44Z</time></trkpt><trkpt lat="44.41185829573931" lon="9.121696075537766"><ele>613.6666666666666</ele><time>2026-03-22T09:48:45Z</time></trkpt><trkpt lat="44.411814518435314" lon="9.121797467212355"><ele>611.0</ele><time>2026-03-22T09:48:46Z</time></trkpt><trkpt lat="44.41176485701635" lon="9.121886612836612"><ele>611.0</ele><time>2026-03-22T09:48:47Z</time></trkpt><trkpt lat="44.41171278660992" lon="9.121976143092358"><ele>611.0</ele><time>2026-03-22T09:48:48Z</time></trkpt><trkpt lat="44.411664037542494" lon="9.122067319148366"><ele>611.0</ele><time>2026-03-22T09:48:49Z</time></trkpt><trkpt lat="44.411605301063375" lon="9.122158049509128"><ele>611.0</ele><time>2026-03-22T09:48:50Z</time></trkpt><trkpt lat="44.41153734251007" lon="9.122259251250789"><ele>611.0</ele><time>2026-03-22T09:48:51Z</time></trkpt><trkpt lat="44.41149235187308" lon="9.122352384309872"><ele>611.0</ele><time>2026-03-22T09:48:52Z</time></trkpt><trkpt lat="44.41144736891347" lon="9.122438131776581"><ele>611.6666666666666</ele><time>2026-03-22T09:48:53Z</time></trkpt><trkpt lat="44.41139953135105" lon="9.12253192614522"><ele>612.3333333333333</ele><time>2026-03-22T09:48:54Z</time></trkpt><trkpt lat="44.41135845645494" lon="9.122644182084164"><ele>613.0</ele><time>2026-03-22T09:48:55Z</time></trkpt><trkpt lat="44.41132478168669" lon="9.12275738042793"><ele>613.6666666666666</ele><time>2026-03-22T09:48:56Z</time></trkpt><trkpt lat="44.41128879999764" lon="9.122879484013952"><ele>614.3333333333334</ele><time>2026-03-22T09:48:57Z</time></trkpt><trkpt lat="44.41125096362688" lon="9.122989819383362"><ele>615.0</ele><time>2026-03-22T09:48:58Z</time></trkpt><trkpt lat="44.41121724966295" lon="9.123096410316649"><ele>612.0</ele><time>2026-03-22T09:48:59Z</time></trkpt><trkpt lat="44.41119678173187" lon="9.123181398155221"><ele>609.0</ele><time>2026-03-22T09:49:00Z</time></trkpt><trkpt lat="44.41116103490223" lon="9.123295166484988"><ele>606.0</ele><time>2026-03-22T09:49:01Z</time></trkpt><trkpt lat="44.41113431021893" lon="9.123410882861348"><ele>603.0</ele><time>2026-03-22T09:49:02Z</time></trkpt><trkpt lat="44.41110288934612" lon="9.12353621040381"><ele>600.0</ele><time>2026-03-22T09:49:03Z</time></trkpt><trkpt lat="44.411077154805355" lon="9.123662796178204"><ele>597.0</ele><time>2026-03-22T09:49:04Z</time></trkpt><trkpt lat="44.41105655642005" lon="9.123783270433657"><ele>597.0</ele><time>2026-03-22T09:49:05Z</time></trkpt><trkpt lat="44.41103534272978" lon="9.123905800710439"><ele>597.0</ele><time>2026-03-22T09:49:06Z</time></trkpt><trkpt lat="44.41101295957342" lon="9.124028133824897"><ele>597.0</ele><time>2026-03-22T09:49:07Z</time></trkpt><trkpt lat="44.41098810896905" lon="9.124141325777508"><ele>597.0</ele><time>2026-03-22T09:49:08Z</time></trkpt><trkpt lat="44.41095885941272" lon="9.124256166869399"><ele>597.0</ele><time>2026-03-22T09:49:09Z</time></trkpt><trkpt lat="44.410937207466155" lon="9.124369598516774"><ele>597.0</ele><time>2026-03-22T09:49:10Z</time></trkpt><trkpt lat="44.41091300287759" lon="9.124495405791617"><ele>598.8000000000001</ele><time>2026-03-22T09:49:11Z</time></trkpt><trkpt lat="44.41088169463636" lon="9.12462374336607"><ele>600.6</ele><time>2026-03-22T09:49:12Z</time></trkpt><trkpt lat="44.41085138419154" lon="9.124736917151196"><ele>602.4000000000001</ele><time>2026-03-22T09:49:13Z</time></trkpt><trkpt lat="44.41082549465127" lon="9.124847947288224"><ele>604.2</ele><time>2026-03-22T09:49:14Z</time></trkpt><trkpt lat="44.410788274337854" lon="9.12496980564029"><ele>606.0</ele><time>2026-03-22T09:49:15Z</time></trkpt><trkpt lat="44.410746549601306" lon="9.125084442237943"><ele>606.3333333333334</ele><time>2026-03-22T09:49:16Z</time></trkpt><trkpt lat="44.41070577550657" lon="9.125193023645298"><ele>606.6666666666666</ele><time>2026-03-22T09:49:17Z</time></trkpt><trkpt lat="44.41066439764043" lon="9.12529541577594"><ele>607.0</ele><time>2026-03-22T09:49:18Z</time></trkpt><trkpt lat="44.41061863752047" lon="9.125405049117221"><ele>607.3333333333333</ele><time>2026-03-22T09:49:19Z</time></trkpt><trkpt lat="44.41057407498469" lon="9.125510506169418"><ele>607.6666666666666</ele><time>2026-03-22T09:49:20Z</time></trkpt><trkpt lat="44.410525372952904" lon="9.125620317743163"><ele>608.0</ele><time>2026-03-22T09:49:21Z</time></trkpt><trkpt lat="44.41048399462694" lon="9.12571461908818"><ele>606.6666666666666</ele><time>2026-03-22T09:49:22Z</time></trkpt><trkpt lat="44.4104358707076" lon="9.125822100475972"><ele>605.3333333333333</ele><time>2026-03-22T09:49:23Z</time></trkpt><trkpt lat="44.41038969463383" lon="9.125916536289672"><ele>604.0</ele><time>2026-03-22T09:49:24Z</time></trkpt><trkpt lat="44.41035137709976" lon="9.12600627511259"><ele>602.6666666666666</ele><time>2026-03-22T09:49:25Z</time></trkpt><trkpt lat="44.410307709019534" lon="9.126104964255129"><ele>601.3333333333334</ele><time>2026-03-22T09:49:26Z</time></trkpt><trkpt lat="44.4102596055639" lon="9.126212650966"><ele>600.0</ele><time>2026-03-22T09:49:27Z</time></trkpt><trkpt lat="44.41021451500447" lon="9.126304781193417"><ele>600.0</ele><time>2026-03-22T09:49:28Z</time></trkpt><trkpt lat="44.41015410784712" lon="9.126437713329333"><ele>600.0</ele><time>2026-03-22T09:49:30Z</time></trkpt><trkpt lat="44.41009103887461" lon="9.126481384821508"><ele>600.0</ele><time>2026-03-22T09:49:31Z</time></trkpt><trkpt lat="44.4100503471517" lon="9.126572122604884"><ele>600.0</ele><time>2026-03-22T09:49:32Z</time></trkpt><trkpt lat="44.41000929824951" lon="9.126670854337862"><ele>600.0</ele><time>2026-03-22T09:49:33Z</time></trkpt><trkpt lat="44.409974262781205" lon="9.126771392406205"><ele>600.0</ele><time>2026-03-22T09:49:34Z</time></trkpt><trkpt lat="44.40994085487147" lon="9.126886356516135"><ele>602.2</ele><time>2026-03-22T09:49:35Z</time></trkpt><trkpt lat="44.409954279520775" lon="9.127008982209139"><ele>604.4</ele><time>2026-03-22T09:49:36Z</time></trkpt><trkpt lat="44.409922573758756" lon="9.127119180333521"><ele>606.6</ele><time>2026-03-22T09:49:37Z</time></trkpt><trkpt lat="44.40989364585308" lon="9.127234438528331"><ele>608.8</ele><time>2026-03-22T09:49:38Z</time></trkpt><trkpt lat="44.409866543725016" lon="9.127346894036446"><ele>611.0</ele><time>2026-03-22T09:49:39Z</time></trkpt><trkpt lat="44.40978638464074" lon="9.12744125393452"><ele>611.0</ele><time>2026-03-22T09:49:40Z</time></trkpt><trkpt lat="44.40975909793125" lon="9.127540473667658"><ele>611.0</ele><time>2026-03-22T09:49:41Z</time></trkpt><trkpt lat="44.40972868228304" lon="9.127650317663841"><ele>611.0</ele><time>2026-03-22T09:49:42Z</time></trkpt><trkpt lat="44.40969789687564" lon="9.12776090242119"><ele>611.0</ele><time>2026-03-22T09:49:43Z</time></trkpt><trkpt lat="44.40966565843155" lon="9.127876706717938"><ele>611.0</ele><time>2026-03-22T09:49:44Z</time></trkpt><trkpt lat="44.409633316575864" lon="9.127992882551968"><ele>611.0</ele><time>2026-03-22T09:49:45Z</time></trkpt><trkpt lat="44.409600788147515" lon="9.128109728565098"><ele>608.1666666666666</ele><time>2026-03-22T09:49:46Z</time></trkpt><trkpt lat="44.40956682697433" lon="9.128231721051046"><ele>605.3333333333333</ele><time>2026-03-22T09:49:47Z</time></trkpt><trkpt lat="44.40953471655039" lon="9.12835042930987"><ele>602.5</ele><time>2026-03-22T09:49:48Z</time></trkpt><trkpt lat="44.409503238179184" lon="9.1284690472758"><ele>599.6666666666666</ele><time>2026-03-22T09:49:49Z</time></trkpt><trkpt lat="44.40947748846033" lon="9.128574063877485"><ele>596.8333333333334</ele><time>2026-03-22T09:49:50Z</time></trkpt><trkpt lat="44.40945237171972" lon="9.128676498847836"><ele>594.0</ele><time>2026-03-22T09:49:51Z</time></trkpt><trkpt lat="44.40943513553004" lon="9.128761517550156"><ele>594.0</ele><time>2026-03-22T09:49:52Z</time></trkpt><trkpt lat="44.40941787774624" lon="9.12885942930624"><ele>594.0</ele><time>2026-03-22T09:49:53Z</time></trkpt><trkpt lat="44.409399556134204" lon="9.128980375204158"><ele>594.0</ele><time>2026-03-22T09:49:54Z</time></trkpt><trkpt lat="44.40938717520792" lon="9.129089453287913"><ele>594.0</ele><time>2026-03-22T09:49:55Z</time></trkpt><trkpt lat="44.409377023958214" lon="9.129198312576033"><ele>594.0</ele><time>2026-03-22T09:49:56Z</time></trkpt><trkpt lat="44.409368872877224" lon="9.129315478929643"><ele>594.0</ele><time>2026-03-22T09:49:57Z</time></trkpt><trkpt lat="44.4093637109921" lon="9.12943332221181"><ele>596.2</ele><time>2026-03-22T09:49:58Z</time></trkpt><trkpt lat="44.40935929962386" lon="9.129571437283937"><ele>598.4</ele><time>2026-03-22T09:49:59Z</time></trkpt><trkpt lat="44.40935657119284" lon="9.129687608526998"><ele>600.6</ele><time>2026-03-22T09:50:00Z</time></trkpt><trkpt lat="44.40935394110906" lon="9.129807387276555"><ele>602.8</ele><time>2026-03-22T09:50:01Z</time></trkpt><trkpt lat="44.40935213970919" lon="9.129946945990978"><ele>605.0</ele><time>2026-03-22T09:50:02Z</time></trkpt><trkpt lat="44.40935106959586" lon="9.130081643036585"><ele>605.0</ele><time>2026-03-22T09:50:03Z</time></trkpt><trkpt lat="44.40935016567165" lon="9.130195421230232"><ele>605.0</ele><time>2026-03-22T09:50:04Z</time></trkpt><trkpt lat="44.409349314969994" lon="9.1303024998109"><ele>605.0</ele><time>2026-03-22T09:50:05Z</time></trkpt><trkpt lat="44.409347294296964" lon="9.13043922906046"><ele>605.0</ele><time>2026-03-22T09:50:06Z</time></trkpt><trkpt lat="44.40934505790189" lon="9.130562364387586"><ele>605.0</ele><time>2026-03-22T09:50:07Z</time></trkpt><trkpt lat="44.4093428361322" lon="9.130684694363497"><ele>605.0</ele><time>2026-03-22T09:50:08Z</time></trkpt><trkpt lat="44.40933701035511" lon="9.13080740988967"><ele>604.2</ele><time>2026-03-22T09:50:09Z</time></trkpt><trkpt lat="44.40932384499216" lon="9.130925190489307"><ele>603.4</ele><time>2026-03-22T09:50:10Z</time></trkpt><trkpt lat="44.409295819244" lon="9.131024686332422"><ele>602.6</ele><time>2026-03-22T09:50:11Z</time></trkpt><trkpt lat="44.40925871547059" lon="9.131139059867017"><ele>601.8</ele><time>2026-03-22T09:50:12Z</time></trkpt><trkpt lat="44.40921733548018" lon="9.131264231216283"><ele>601.0</ele><time>2026-03-22T09:50:13Z</time></trkpt><trkpt lat="44.409172792328384" lon="9.131391034429916"><ele>601.0</ele><time>2026-03-22T09:50:14Z</time></trkpt><trkpt lat="44.40913055009065" lon="9.131514645348371"><ele>601.0</ele><time>2026-03-22T09:50:15Z</time></trkpt><trkpt lat="44.40909488578713" lon="9.131643311596203"><ele>601.0</ele><time>2026-03-22T09:50:16Z</time></trkpt><trkpt lat="44.40906613554332" lon="9.131767893912011"><ele>601.0</ele><time>2026-03-22T09:50:17Z</time></trkpt><trkpt lat="44.409038955578445" lon="9.131911300024132"><ele>601.0</ele><time>2026-03-22T09:50:18Z</time></trkpt><trkpt lat="44.40901454231954" lon="9.132057340372091"><ele>598.2</ele><time>2026-03-22T09:50:19Z</time></trkpt><trkpt lat="44.40899750373327" lon="9.132194132627724"><ele>595.4000000000001</ele><time>2026-03-22T09:50:20Z</time></trkpt><trkpt lat="44.40898808409262" lon="9.132333750638164"><ele>592.6</ele><time>2026-03-22T09:50:21Z</time></trkpt><trkpt lat="44.40898733236515" lon="9.132475735638238"><ele>589.8000000000001</ele><time>2026-03-22T09:50:22Z</time></trkpt><trkpt lat="44.40899567326648" lon="9.132621345685434"><ele>587.0</ele><time>2026-03-22T09:50:23Z</time></trkpt><trkpt lat="44.409013302447526" lon="9.132752485945511"><ele>587.0</ele><time>2026-03-22T09:50:24Z</time></trkpt><trkpt lat="44.40904818477128" lon="9.132873248912755"><ele>587.0</ele><time>2026-03-22T09:50:25Z</time></trkpt><trkpt lat="44.40906594244075" lon="9.133006385166299"><ele>587.0</ele><time>2026-03-22T09:50:26Z</time></trkpt><trkpt lat="44.409112246330686" lon="9.13311278494495"><ele>587.0</ele><time>2026-03-22T09:50:27Z</time></trkpt><trkpt lat="44.409131130805115" lon="9.13324608996846"><ele>587.0</ele><time>2026-03-22T09:50:28Z</time></trkpt><trkpt lat="44.40917010518191" lon="9.133393603429967"><ele>587.0</ele><time>2026-03-22T09:50:29Z</time></trkpt><trkpt lat="44.40923497091518" lon="9.133564386611399"><ele>587.0</ele><time>2026-03-22T09:50:30Z</time></trkpt><trkpt lat="44.40926691003619" lon="9.133731098696265"><ele>587.0</ele><time>2026-03-22T09:50:31Z</time></trkpt><trkpt lat="44.409315057033766" lon="9.133869205029738"><ele>587.0</ele><time>2026-03-22T09:50:32Z</time></trkpt><trkpt lat="44.409357171586585" lon="9.13401541321054"><ele>587.4</ele><time>2026-03-22T09:50:33Z</time></trkpt><trkpt lat="44.409395636650096" lon="9.134163586292736"><ele>587.8000000000001</ele><time>2026-03-22T09:50:34Z</time></trkpt><trkpt lat="44.40943072957077" lon="9.134309975476604"><ele>588.2</ele><time>2026-03-22T09:50:35Z</time></trkpt><trkpt lat="44.409471876388935" lon="9.134439710546632"><ele>588.6</ele><time>2026-03-22T09:50:36Z</time></trkpt><trkpt lat="44.409504376812464" lon="9.134561670071578"><ele>589.0</ele><time>2026-03-22T09:50:37Z</time></trkpt><trkpt lat="44.409545086897396" lon="9.134716450103005"><ele>589.0</ele><time>2026-03-22T09:50:38Z</time></trkpt><trkpt lat="44.40959964311469" lon="9.134873023011657"><ele>589.0</ele><time>2026-03-22T09:50:39Z</time></trkpt><trkpt lat="44.40964259632847" lon="9.13502875505285"><ele>589.0</ele><time>2026-03-22T09:50:40Z</time></trkpt><trkpt lat="44.409663586502845" lon="9.135130869935171"><ele>589.0</ele><time>2026-03-22T09:50:41Z</time></trkpt><trkpt lat="44.409723859056534" lon="9.135325650463928"><ele>583.0</ele><time>2026-03-22T09:50:42Z</time></trkpt><trkpt lat="44.40977261431489" lon="9.1354832108663"><ele>577.0</ele><time>2026-03-22T09:50:43Z</time></trkpt><trkpt lat="44.4098092632459" lon="9.135628085034574"><ele>571.0</ele><time>2026-03-22T09:50:44Z</time></trkpt><trkpt lat="44.40985225167766" lon="9.135767258896015"><ele>565.0</ele><time>2026-03-22T09:50:45Z</time></trkpt><trkpt lat="44.40989154885424" lon="9.135892239848609"><ele>559.0</ele><time>2026-03-22T09:50:46Z</time></trkpt><trkpt lat="44.409935354146725" lon="9.136037834556747"><ele>559.0</ele><time>2026-03-22T09:50:47Z</time></trkpt><trkpt lat="44.40999176829154" lon="9.136196007384898"><ele>559.0</ele><time>2026-03-22T09:50:48Z</time></trkpt><trkpt lat="44.410031517609525" lon="9.136316406638205"><ele>559.0</ele><time>2026-03-22T09:50:49Z</time></trkpt><trkpt lat="44.41008007570604" lon="9.136463030555781"><ele>559.0</ele><time>2026-03-22T09:50:50Z</time></trkpt><trkpt lat="44.41011116539853" lon="9.136601951734335"><ele>559.0</ele><time>2026-03-22T09:50:51Z</time></trkpt><trkpt lat="44.410156787541304" lon="9.136732516629372"><ele>559.0</ele><time>2026-03-22T09:50:52Z</time></trkpt><trkpt lat="44.41020569110376" lon="9.136890523752408"><ele>559.0</ele><time>2026-03-22T09:50:53Z</time></trkpt><trkpt lat="44.410250803534964" lon="9.137043813175325"><ele>559.0</ele><time>2026-03-22T09:50:54Z</time></trkpt><trkpt lat="44.4102915305162" lon="9.13717192300297"><ele>559.0</ele><time>2026-03-22T09:50:55Z</time></trkpt><trkpt lat="44.410333665537244" lon="9.137308346425916"><ele>559.0</ele><time>2026-03-22T09:50:56Z</time></trkpt><trkpt lat="44.41037922540138" lon="9.137410744528983"><ele>559.2</ele><time>2026-03-22T09:50:57Z</time></trkpt><trkpt lat="44.41041805736675" lon="9.137525020041222"><ele>559.4</ele><time>2026-03-22T09:50:58Z</time></trkpt><trkpt lat="44.4104465306734" lon="9.137665999599392"><ele>559.6</ele><time>2026-03-22T09:50:59Z</time></trkpt><trkpt lat="44.410480810889375" lon="9.137770852831126"><ele>559.8</ele><time>2026-03-22T09:51:00Z</time></trkpt><trkpt lat="44.41048349997356" lon="9.13788476492594"><ele>560.0</ele><time>2026-03-22T09:51:01Z</time></trkpt><trkpt lat="44.41050436400946" lon="9.138096011741114"><ele>553.5</ele><time>2026-03-22T09:51:02Z</time></trkpt><trkpt lat="44.41051503050015" lon="9.138264397510625"><ele>547.0</ele><time>2026-03-22T09:51:03Z</time></trkpt><trkpt lat="44.410526559048996" lon="9.138432879634673"><ele>540.5</ele><time>2026-03-22T09:51:04Z</time></trkpt><trkpt lat="44.41053648974145" lon="9.138569416242179"><ele>534.0</ele><time>2026-03-22T09:51:05Z</time></trkpt><trkpt lat="44.41056374262781" lon="9.138722546395396"><ele>534.0</ele><time>2026-03-22T09:51:06Z</time></trkpt><trkpt lat="44.41056388632419" lon="9.138885188277007"><ele>534.0</ele><time>2026-03-22T09:51:07Z</time></trkpt><trkpt lat="44.41059024004881" lon="9.139017962886662"><ele>534.0</ele><time>2026-03-22T09:51:08Z</time></trkpt><trkpt lat="44.410609562110025" lon="9.139173505932577"><ele>534.0</ele><time>2026-03-22T09:51:09Z</time></trkpt><trkpt lat="44.41061508936148" lon="9.139326752704108"><ele>534.0</ele><time>2026-03-22T09:51:10Z</time></trkpt><trkpt lat="44.41063644314063" lon="9.139459439027103"><ele>534.6666666666666</ele><time>2026-03-22T09:51:11Z</time></trkpt><trkpt lat="44.410671845291205" lon="9.139584320407522"><ele>535.3333333333334</ele><time>2026-03-22T09:51:12Z</time></trkpt><trkpt lat="44.41071154836715" lon="9.139686102022564"><ele>536.0</ele><time>2026-03-22T09:51:13Z</time></trkpt><trkpt lat="44.410754383343736" lon="9.139778590268282"><ele>536.6666666666667</ele><time>2026-03-22T09:51:14Z</time></trkpt><trkpt lat="44.41080061261296" lon="9.139867748039581"><ele>537.3333333333334</ele><time>2026-03-22T09:51:15Z</time></trkpt><trkpt lat="44.41085119259948" lon="9.139947577632725"><ele>538.0</ele><time>2026-03-22T09:51:16Z</time></trkpt><trkpt lat="44.41091681077648" lon="9.140017952952354"><ele>539.1666666666667</ele><time>2026-03-22T09:51:17Z</time></trkpt><trkpt lat="44.41097731143914" lon="9.140072974880708"><ele>540.3333333333334</ele><time>2026-03-22T09:51:18Z</time></trkpt><trkpt lat="44.4110434895721" lon="9.14011348045384"><ele>541.5</ele><time>2026-03-22T09:51:19Z</time></trkpt><trkpt lat="44.41111968449549" lon="9.140143740460905"><ele>542.6666666666666</ele><time>2026-03-22T09:51:20Z</time></trkpt><trkpt lat="44.411201946261244" lon="9.14018367558511"><ele>543.8333333333333</ele><time>2026-03-22T09:51:21Z</time></trkpt><trkpt lat="44.41128219697811" lon="9.140216336331408"><ele>545.0</ele><time>2026-03-22T09:51:22Z</time></trkpt><trkpt lat="44.41137016558968" lon="9.140256501408643"><ele>540.8333333333333</ele><time>2026-03-22T09:51:23Z</time></trkpt><trkpt lat="44.411437056289735" lon="9.140319198621993"><ele>536.6666666666666</ele><time>2026-03-22T09:51:24Z</time></trkpt><trkpt lat="44.41148839341942" lon="9.140395480908495"><ele>532.5</ele><time>2026-03-22T09:51:25Z</time></trkpt><trkpt lat="44.41150430172356" lon="9.140487661060998"><ele>528.3333333333334</ele><time>2026-03-22T09:51:26Z</time></trkpt><trkpt lat="44.41152480565137" lon="9.140593410717202"><ele>524.1666666666667</ele><time>2026-03-22T09:51:27Z</time></trkpt><trkpt lat="44.41150095272419" lon="9.140687393585383"><ele>520.0</ele><time>2026-03-22T09:51:28Z</time></trkpt><trkpt lat="44.41147366994553" lon="9.140845420312596"><ele>520.0</ele><time>2026-03-22T09:51:30Z</time></trkpt><trkpt lat="44.41145442178324" lon="9.140957960758263"><ele>520.0</ele><time>2026-03-22T09:51:31Z</time></trkpt><trkpt lat="44.41142799050057" lon="9.1411124667644"><ele>520.0</ele><time>2026-03-22T09:51:32Z</time></trkpt><trkpt lat="44.411406110574376" lon="9.141256869137552"><ele>520.0</ele><time>2026-03-22T09:51:33Z</time></trkpt><trkpt lat="44.41138719864042" lon="9.141420801453041"><ele>520.0</ele><time>2026-03-22T09:51:34Z</time></trkpt><trkpt lat="44.41137575160772" lon="9.141551469680499"><ele>518.6666666666667</ele><time>2026-03-22T09:51:35Z</time></trkpt><trkpt lat="44.41136708688432" lon="9.141688636712326"><ele>517.3333333333334</ele><time>2026-03-22T09:51:36Z</time></trkpt><trkpt lat="44.411363055272474" lon="9.141803607165285"><ele>516.0</ele><time>2026-03-22T09:51:37Z</time></trkpt><trkpt lat="44.411357805047594" lon="9.14191537623284"><ele>514.6666666666666</ele><time>2026-03-22T09:51:38Z</time></trkpt><trkpt lat="44.411345082425846" lon="9.142021980700049"><ele>513.3333333333333</ele><time>2026-03-22T09:51:39Z</time></trkpt><trkpt lat="44.41132602213512" lon="9.142130726764098"><ele>512.0</ele><time>2026-03-22T09:51:40Z</time></trkpt><trkpt lat="44.41129873600566" lon="9.142216263549614"><ele>513.5714285714286</ele><time>2026-03-22T09:51:41Z</time></trkpt><trkpt lat="44.41125791748258" lon="9.142302660051964"><ele>515.1428571428571</ele><time>2026-03-22T09:51:42Z</time></trkpt><trkpt lat="44.411203158122355" lon="9.142391702930762"><ele>516.7142857142857</ele><time>2026-03-22T09:51:43Z</time></trkpt><trkpt lat="44.41114578875049" lon="9.142484816435951"><ele>518.2857142857142</ele><time>2026-03-22T09:51:44Z</time></trkpt><trkpt lat="44.411096503071" lon="9.142549521440445"><ele>519.8571428571429</ele><time>2026-03-22T09:51:45Z</time></trkpt><trkpt lat="44.41105785932893" lon="9.142622286062608"><ele>521.4285714285713</ele><time>2026-03-22T09:51:46Z</time></trkpt><trkpt lat="44.4110369393747" lon="9.142710466956675"><ele>523.0</ele><time>2026-03-22T09:51:47Z</time></trkpt><trkpt lat="44.4110458526988" lon="9.142820612481396"><ele>523.0</ele><time>2026-03-22T09:51:48Z</time></trkpt><trkpt lat="44.41108551062006" lon="9.14290957462839"><ele>523.0</ele><time>2026-03-22T09:51:49Z</time></trkpt><trkpt lat="44.41115858450093" lon="9.14293952121042"><ele>523.0</ele><time>2026-03-22T09:51:50Z</time></trkpt><trkpt lat="44.41126442485735" lon="9.14297041341704"><ele>523.0</ele><time>2026-03-22T09:51:52Z</time></trkpt><trkpt lat="44.411360211618764" lon="9.142893230942923"><ele>523.0</ele><time>2026-03-22T09:51:54.001Z</time></trkpt><trkpt lat="44.411373064725325" lon="9.142804806171059"><ele>523.0</ele><time>2026-03-22T09:51:55.001Z</time></trkpt><trkpt lat="44.411412348661315" lon="9.142735919319282"><ele>521.1666666666667</ele><time>2026-03-22T09:51:56.001Z</time></trkpt><trkpt lat="44.411433332026675" lon="9.142637077389008"><ele>519.3333333333334</ele><time>2026-03-22T09:51:57.001Z</time></trkpt><trkpt lat="44.41145963156871" lon="9.142532414879488"><ele>517.5</ele><time>2026-03-22T09:51:58.001Z</time></trkpt><trkpt lat="44.41149704892704" lon="9.142412578775462"><ele>515.6666666666666</ele><time>2026-03-22T09:51:59.001Z</time></trkpt><trkpt lat="44.41153519320162" lon="9.142282349102139"><ele>513.8333333333333</ele><time>2026-03-22T09:52:00.001Z</time></trkpt><trkpt lat="44.41156786695396" lon="9.142154210784026"><ele>512.0</ele><time>2026-03-22T09:52:01.001Z</time></trkpt><trkpt lat="44.41159603889696" lon="9.142044815580128"><ele>512.0</ele><time>2026-03-22T09:52:02Z</time></trkpt><trkpt lat="44.41162709194812" lon="9.141946791840555"><ele>511.99999999999994</ele><time>2026-03-22T09:52:03Z</time></trkpt><trkpt lat="44.41167013782635" lon="9.141864036684307"><ele>512.0</ele><time>2026-03-22T09:52:04Z</time></trkpt><trkpt lat="44.41172639578869" lon="9.141798513334994"><ele>512.0</ele><time>2026-03-22T09:52:05Z</time></trkpt><trkpt lat="44.411791224310925" lon="9.141755907122514"><ele>511.99999999999994</ele><time>2026-03-22T09:52:06Z</time></trkpt><trkpt lat="44.41186262299821" lon="9.141722880379586"><ele>512.0</ele><time>2026-03-22T09:52:07Z</time></trkpt><trkpt lat="44.4119378873833" lon="9.1416967313494"><ele>512.0</ele><time>2026-03-22T09:52:08Z</time></trkpt><trkpt lat="44.41200534937511" lon="9.141661192519702"><ele>511.99999999999994</ele><time>2026-03-22T09:52:09Z</time></trkpt><trkpt lat="44.41207010923121" lon="9.141609319896585"><ele>512.0</ele><time>2026-03-22T09:52:10Z</time></trkpt><trkpt lat="44.41211684621674" lon="9.141543623803376"><ele>512.0</ele><time>2026-03-22T09:52:11Z</time></trkpt><trkpt lat="44.41215596271006" lon="9.141471383435878"><ele>512.0</ele><time>2026-03-22T09:52:12Z</time></trkpt><trkpt lat="44.41217374090648" lon="9.141386485748134"><ele>511.99999999999994</ele><time>2026-03-22T09:52:13Z</time></trkpt><trkpt lat="44.41215716249658" lon="9.141209370759839"><ele>512.0</ele><time>2026-03-22T09:52:15Z</time></trkpt><trkpt lat="44.41213308325286" lon="9.14111725000982"><ele>512.1428571428571</ele><time>2026-03-22T09:52:16Z</time></trkpt><trkpt lat="44.41210742833889" lon="9.14101403883236"><ele>512.2857142857142</ele><time>2026-03-22T09:52:17Z</time></trkpt><trkpt lat="44.412089252428046" lon="9.140910659462751"><ele>512.4285714285714</ele><time>2026-03-22T09:52:18Z</time></trkpt><trkpt lat="44.41208449402668" lon="9.140812435684191"><ele>512.5714285714286</ele><time>2026-03-22T09:52:19Z</time></trkpt><trkpt lat="44.41209407493538" lon="9.140712300263214"><ele>512.7142857142858</ele><time>2026-03-22T09:52:20Z</time></trkpt><trkpt lat="44.412120133316556" lon="9.140619448099576"><ele>512.8571428571429</ele><time>2026-03-22T09:52:21Z</time></trkpt><trkpt lat="44.4121394270683" lon="9.140530170482368"><ele>513.0</ele><time>2026-03-22T09:52:22Z</time></trkpt><trkpt lat="44.41214387269555" lon="9.140375159425458"><ele>513.0</ele><time>2026-03-22T09:52:24Z</time></trkpt><trkpt lat="44.41210662884588" lon="9.140213778378497"><ele>513.0</ele><time>2026-03-22T09:52:26Z</time></trkpt><trkpt lat="44.4120804419952" lon="9.140069014830773"><ele>513.0</ele><time>2026-03-22T09:52:28Z</time></trkpt><trkpt lat="44.41212105387125" lon="9.139949874555617"><ele>513.0</ele><time>2026-03-22T09:52:30Z</time></trkpt><trkpt lat="44.412202638365905" lon="9.13991735434167"><ele>513.0</ele><time>2026-03-22T09:52:32Z</time></trkpt><trkpt lat="44.41228047673429" lon="9.139987715034984"><ele>506.3333333333333</ele><time>2026-03-22T09:52:34Z</time></trkpt><trkpt lat="44.412305446280534" lon="9.140126596150138"><ele>499.66666666666663</ele><time>2026-03-22T09:52:36Z</time></trkpt><trkpt lat="44.41228131345884" lon="9.14022636661692"><ele>493.0</ele><time>2026-03-22T09:52:37Z</time></trkpt><trkpt lat="44.41228491077862" lon="9.140339848238954"><ele>486.3333333333333</ele><time>2026-03-22T09:52:38Z</time></trkpt><trkpt lat="44.41228180234215" lon="9.140458192962347"><ele>479.66666666666663</ele><time>2026-03-22T09:52:39Z</time></trkpt><trkpt lat="44.41228301503417" lon="9.140583786835466"><ele>473.0</ele><time>2026-03-22T09:52:40Z</time></trkpt><trkpt lat="44.412288479443305" lon="9.140707936978785"><ele>473.8333333333333</ele><time>2026-03-22T09:52:41Z</time></trkpt><trkpt lat="44.41229788269536" lon="9.140816230470017"><ele>474.66666666666663</ele><time>2026-03-22T09:52:42Z</time></trkpt><trkpt lat="44.4123205323619" lon="9.140921552613886"><ele>475.5</ele><time>2026-03-22T09:52:43Z</time></trkpt><trkpt lat="44.41235594009158" lon="9.141041448581952"><ele>476.33333333333337</ele><time>2026-03-22T09:52:44Z</time></trkpt><trkpt lat="44.4123888118706" lon="9.141160598513835"><ele>477.1666666666667</ele><time>2026-03-22T09:52:45Z</time></trkpt><trkpt lat="44.41242536113938" lon="9.141267203281537"><ele>478.0</ele><time>2026-03-22T09:52:46Z</time></trkpt><trkpt lat="44.412454060127054" lon="9.141364107971214"><ele>478.00000000000006</ele><time>2026-03-22T09:52:47Z</time></trkpt><trkpt lat="44.41245284876039" lon="9.141478417163757"><ele>478.0</ele><time>2026-03-22T09:52:48Z</time></trkpt><trkpt lat="44.41248155209387" lon="9.141587130761758"><ele>478.0</ele><time>2026-03-22T09:52:49Z</time></trkpt><trkpt lat="44.41249679213958" lon="9.141694707521456"><ele>478.0</ele><time>2026-03-22T09:52:50Z</time></trkpt><trkpt lat="44.41250838133891" lon="9.14180666957682"><ele>478.00000000000006</ele><time>2026-03-22T09:52:51Z</time></trkpt><trkpt lat="44.41252846199921" lon="9.141906642401086"><ele>478.0</ele><time>2026-03-22T09:52:52Z</time></trkpt><trkpt lat="44.41254555638432" lon="9.141993011441112"><ele>477.59999999999997</ele><time>2026-03-22T09:52:53Z</time></trkpt><trkpt lat="44.41259884831813" lon="9.142174258662271"><ele>477.19999999999993</ele><time>2026-03-22T09:52:55Z</time></trkpt><trkpt lat="44.41261947875002" lon="9.142277046183922"><ele>476.8</ele><time>2026-03-22T09:52:56Z</time></trkpt><trkpt lat="44.41264518304036" lon="9.142367005076835"><ele>476.4</ele><time>2026-03-22T09:52:57Z</time></trkpt><trkpt lat="44.41268618280866" lon="9.142529038110471"><ele>476.0</ele><time>2026-03-22T09:52:59Z</time></trkpt><trkpt lat="44.41273660243442" lon="9.142648883255813"><ele>475.20000000000005</ele><time>2026-03-22T09:53:01Z</time></trkpt><trkpt lat="44.41279284017715" lon="9.14273483654656"><ele>474.40000000000003</ele><time>2026-03-22T09:53:03Z</time></trkpt><trkpt lat="44.41286462741223" lon="9.14289861532613"><ele>473.6</ele><time>2026-03-22T09:53:05Z</time></trkpt><trkpt lat="44.412900544064534" lon="9.142992542096033"><ele>472.8</ele><time>2026-03-22T09:53:06Z</time></trkpt><trkpt lat="44.41295103143536" lon="9.143085734592383"><ele>472.0</ele><time>2026-03-22T09:53:07Z</time></trkpt><trkpt lat="44.41300456486667" lon="9.143173679391452"><ele>471.50000000000006</ele><time>2026-03-22T09:53:08Z</time></trkpt><trkpt lat="44.413065282142576" lon="9.143259914885364"><ele>471.0</ele><time>2026-03-22T09:53:09Z</time></trkpt><trkpt lat="44.41311790736108" lon="9.143355352100293"><ele>470.5</ele><time>2026-03-22T09:53:10Z</time></trkpt><trkpt lat="44.41316118142741" lon="9.143452662109166"><ele>470.0</ele><time>2026-03-22T09:53:11Z</time></trkpt><trkpt lat="44.41319940367546" lon="9.143536751435043"><ele>469.50000000000006</ele><time>2026-03-22T09:53:12Z</time></trkpt><trkpt lat="44.41323570293106" lon="9.143628124822895"><ele>469.0</ele><time>2026-03-22T09:53:13Z</time></trkpt><trkpt lat="44.41327294636408" lon="9.143719071706006"><ele>469.00000000000006</ele><time>2026-03-22T09:53:14Z</time></trkpt><trkpt lat="44.41331601784938" lon="9.143815316010295"><ele>469.0</ele><time>2026-03-22T09:53:15Z</time></trkpt><trkpt lat="44.413364349553035" lon="9.143910209693363"><ele>469.0</ele><time>2026-03-22T09:53:16Z</time></trkpt><trkpt lat="44.413416669796206" lon="9.144002357537916"><ele>469.0</ele><time>2026-03-22T09:53:17Z</time></trkpt><trkpt lat="44.4134563736919" lon="9.144091704353196"><ele>469.00000000000006</ele><time>2026-03-22T09:53:18Z</time></trkpt><trkpt lat="44.41349072052783" lon="9.144190923723652"><ele>469.0</ele><time>2026-03-22T09:53:19Z</time></trkpt><trkpt lat="44.41352520698485" lon="9.144281200626303"><ele>467.79999999999995</ele><time>2026-03-22T09:53:20Z</time></trkpt><trkpt lat="44.4136013088492" lon="9.14444801337804"><ele>466.59999999999997</ele><time>2026-03-22T09:53:22Z</time></trkpt><trkpt lat="44.41364918936745" lon="9.144547799344247"><ele>465.4</ele><time>2026-03-22T09:53:23Z</time></trkpt><trkpt lat="44.41369041181113" lon="9.144642053428727"><ele>464.2</ele><time>2026-03-22T09:53:24Z</time></trkpt><trkpt lat="44.413731147368516" lon="9.144748878889157"><ele>463.0</ele><time>2026-03-22T09:53:25Z</time></trkpt><trkpt lat="44.41376846147247" lon="9.144861220658116"><ele>463.83333333333337</ele><time>2026-03-22T09:53:26Z</time></trkpt><trkpt lat="44.413800884767234" lon="9.144963199519859"><ele>464.6666666666667</ele><time>2026-03-22T09:53:27Z</time></trkpt><trkpt lat="44.41383905246582" lon="9.145085455414499"><ele>465.5</ele><time>2026-03-22T09:53:28Z</time></trkpt><trkpt lat="44.41387430659981" lon="9.145199150147572"><ele>466.33333333333337</ele><time>2026-03-22T09:53:29Z</time></trkpt><trkpt lat="44.41390898883922" lon="9.145311000296045"><ele>467.1666666666667</ele><time>2026-03-22T09:53:30Z</time></trkpt><trkpt lat="44.413946148799035" lon="9.14543094483639"><ele>468.0</ele><time>2026-03-22T09:53:31Z</time></trkpt><trkpt lat="44.413983710610985" lon="9.145548844164626"><ele>468.0</ele><time>2026-03-22T09:53:32Z</time></trkpt><trkpt lat="44.41401311467713" lon="9.145641137826908"><ele>468.0</ele><time>2026-03-22T09:53:33Z</time></trkpt><trkpt lat="44.41404512915769" lon="9.145741624999644"><ele>468.0</ele><time>2026-03-22T09:53:34Z</time></trkpt><trkpt lat="44.41407289038524" lon="9.145841983450016"><ele>468.0</ele><time>2026-03-22T09:53:35Z</time></trkpt><trkpt lat="44.41409436334818" lon="9.145946370330469"><ele>468.0</ele><time>2026-03-22T09:53:36Z</time></trkpt><trkpt lat="44.41411374726898" lon="9.146049737720357"><ele>468.0</ele><time>2026-03-22T09:53:37Z</time></trkpt><trkpt lat="44.41413697707576" lon="9.146156781461652"><ele>466.6666666666667</ele><time>2026-03-22T09:53:38Z</time></trkpt><trkpt lat="44.41417308169628" lon="9.14626045756937"><ele>465.33333333333337</ele><time>2026-03-22T09:53:39Z</time></trkpt><trkpt lat="44.414223017442076" lon="9.146350819737055"><ele>464.0</ele><time>2026-03-22T09:53:40Z</time></trkpt><trkpt lat="44.41427255881336" lon="9.146426089539837"><ele>462.6666666666667</ele><time>2026-03-22T09:53:41Z</time></trkpt><trkpt lat="44.41433907045234" lon="9.146508581803948"><ele>461.33333333333337</ele><time>2026-03-22T09:53:42Z</time></trkpt><trkpt lat="44.41439397627062" lon="9.146577241232878"><ele>460.0</ele><time>2026-03-22T09:53:43.001Z</time></trkpt><trkpt lat="44.41444036139229" lon="9.14665374523721"><ele>457.83333333333337</ele><time>2026-03-22T09:53:44.001Z</time></trkpt><trkpt lat="44.414473883128416" lon="9.146740378471044"><ele>455.6666666666667</ele><time>2026-03-22T09:53:45.001Z</time></trkpt><trkpt lat="44.414509306075885" lon="9.146829883499983"><ele>453.5</ele><time>2026-03-22T09:53:46.001Z</time></trkpt><trkpt lat="44.4145309273868" lon="9.14691671845454"><ele>451.33333333333337</ele><time>2026-03-22T09:53:47.001Z</time></trkpt><trkpt lat="44.414567808660706" lon="9.146995536951247"><ele>449.1666666666667</ele><time>2026-03-22T09:53:48.001Z</time></trkpt><trkpt lat="44.41465822923518" lon="9.147085674674779"><ele>447.0</ele><time>2026-03-22T09:53:50.001Z</time></trkpt><trkpt lat="44.41479268236401" lon="9.147103494378639"><ele>451.8333333333333</ele><time>2026-03-22T09:53:52.001Z</time></trkpt><trkpt lat="44.414870212868884" lon="9.147138694567854"><ele>456.66666666666663</ele><time>2026-03-22T09:53:53.001Z</time></trkpt><trkpt lat="44.414945790400715" lon="9.147165966710013"><ele>461.5</ele><time>2026-03-22T09:53:54.001Z</time></trkpt><trkpt lat="44.41502094251169" lon="9.147199210476057"><ele>466.3333333333333</ele><time>2026-03-22T09:53:55.001Z</time></trkpt><trkpt lat="44.41510382929882" lon="9.147233166606965"><ele>471.16666666666663</ele><time>2026-03-22T09:53:56.001Z</time></trkpt><trkpt lat="44.41517468960041" lon="9.147302683674422"><ele>476.0</ele><time>2026-03-22T09:53:57.001Z</time></trkpt><trkpt lat="44.415243458232915" lon="9.147334826004345"><ele>475.99999999999994</ele><time>2026-03-22T09:53:58.001Z</time></trkpt><trkpt lat="44.41531001356392" lon="9.147352909880025"><ele>476.0</ele><time>2026-03-22T09:53:59.001Z</time></trkpt><trkpt lat="44.415401435261856" lon="9.14733481604125"><ele>476.0</ele><time>2026-03-22T09:54:00.001Z</time></trkpt><trkpt lat="44.41550507917866" lon="9.147350880544225"><ele>476.0</ele><time>2026-03-22T09:54:01.001Z</time></trkpt><trkpt lat="44.41559298946221" lon="9.147363694864685"><ele>475.99999999999994</ele><time>2026-03-22T09:54:02.001Z</time></trkpt><trkpt lat="44.41567278302341" lon="9.147336636959418"><ele>476.0</ele><time>2026-03-22T09:54:03.001Z</time></trkpt><trkpt lat="44.41576495656822" lon="9.147361439116224"><ele>471.99999999999994</ele><time>2026-03-22T09:54:04.001Z</time></trkpt><trkpt lat="44.415864883012226" lon="9.147387967133973"><ele>468.0</ele><time>2026-03-22T09:54:05.001Z</time></trkpt><trkpt lat="44.41595252650728" lon="9.14740771216707"><ele>464.0</ele><time>2026-03-22T09:54:06.001Z</time></trkpt><trkpt lat="44.416034491706895" lon="9.147440275317608"><ele>460.0</ele><time>2026-03-22T09:54:07.001Z</time></trkpt><trkpt lat="44.41610859661752" lon="9.147472894150917"><ele>455.99999999999994</ele><time>2026-03-22T09:54:08Z</time></trkpt><trkpt lat="44.416189023860625" lon="9.147518778039425"><ele>452.0</ele><time>2026-03-22T09:54:09Z</time></trkpt><trkpt lat="44.41627359124887" lon="9.147552830433568"><ele>453.3333333333333</ele><time>2026-03-22T09:54:10Z</time></trkpt><trkpt lat="44.416354813927505" lon="9.14759601851413"><ele>454.66666666666663</ele><time>2026-03-22T09:54:11Z</time></trkpt><trkpt lat="44.416431375902896" lon="9.14761752292614"><ele>456.0</ele><time>2026-03-22T09:54:12Z</time></trkpt><trkpt lat="44.416512514025854" lon="9.14766020092112"><ele>457.33333333333337</ele><time>2026-03-22T09:54:13Z</time></trkpt><trkpt lat="44.41658216454615" lon="9.147723188422239"><ele>458.6666666666667</ele><time>2026-03-22T09:54:14Z</time></trkpt><trkpt lat="44.41664671913178" lon="9.147775897414387"><ele>460.0</ele><time>2026-03-22T09:54:15Z</time></trkpt><trkpt lat="44.416739889918844" lon="9.147870532875416"><ele>460.00000000000006</ele><time>2026-03-22T09:54:17Z</time></trkpt><trkpt lat="44.41681467029979" lon="9.147984498835518"><ele>460.0</ele><time>2026-03-22T09:54:19Z</time></trkpt><trkpt lat="44.41688065491036" lon="9.148100329932237"><ele>460.0</ele><time>2026-03-22T09:54:21Z</time></trkpt><trkpt lat="44.41692242727998" lon="9.148168046322647"><ele>460.0</ele><time>2026-03-22T09:54:23Z</time></trkpt><trkpt lat="44.41690125461973" lon="9.148271156805981"><ele>460.00000000000006</ele><time>2026-03-22T09:54:25Z</time></trkpt><trkpt lat="44.41683957851041" lon="9.148306734062208"><ele>460.0</ele><time>2026-03-22T09:54:26Z</time></trkpt><trkpt lat="44.41681298432494" lon="9.148468576068646"><ele>457.50000000000006</ele><time>2026-03-22T09:54:28Z</time></trkpt><trkpt lat="44.41680877175785" lon="9.148589945420714"><ele>455.0</ele><time>2026-03-22T09:54:29Z</time></trkpt><trkpt lat="44.41680904665481" lon="9.148700520541372"><ele>452.5</ele><time>2026-03-22T09:54:30Z</time></trkpt><trkpt lat="44.416814849609125" lon="9.148817536110544"><ele>450.0</ele><time>2026-03-22T09:54:31Z</time></trkpt><trkpt lat="44.416827513001564" lon="9.148929885672052"><ele>447.50000000000006</ele><time>2026-03-22T09:54:32Z</time></trkpt><trkpt lat="44.41684806728769" lon="9.149029807258911"><ele>445.0</ele><time>2026-03-22T09:54:33Z</time></trkpt><trkpt lat="44.41687426445994" lon="9.149121541659504"><ele>443.33333333333337</ele><time>2026-03-22T09:54:34Z</time></trkpt><trkpt lat="44.41691643590429" lon="9.149202243487773"><ele>441.6666666666667</ele><time>2026-03-22T09:54:35Z</time></trkpt><trkpt lat="44.41705498893658" lon="9.149258768182406"><ele>440.0</ele><time>2026-03-22T09:54:37Z</time></trkpt><trkpt lat="44.417126211738115" lon="9.149276125426917"><ele>438.33333333333337</ele><time>2026-03-22T09:54:38Z</time></trkpt><trkpt lat="44.41719263538587" lon="9.149303136697652"><ele>436.6666666666667</ele><time>2026-03-22T09:54:39Z</time></trkpt><trkpt lat="44.41724008476837" lon="9.149379803700125"><ele>435.0</ele><time>2026-03-22T09:54:40Z</time></trkpt><trkpt lat="44.41726974139868" lon="9.149536398996474"><ele>433.0</ele><time>2026-03-22T09:54:42Z</time></trkpt><trkpt lat="44.4172912248611" lon="9.149709833486337"><ele>431.0</ele><time>2026-03-22T09:54:44Z</time></trkpt><trkpt lat="44.41728247114807" lon="9.14985781254117"><ele>429.0</ele><time>2026-03-22T09:54:46Z</time></trkpt><trkpt lat="44.41723571575834" lon="9.149994998248467"><ele>427.0</ele><time>2026-03-22T09:54:48Z</time></trkpt><trkpt lat="44.41718944685772" lon="9.150086649074039"><ele>425.0</ele><time>2026-03-22T09:54:49Z</time></trkpt><trkpt lat="44.417137314569665" lon="9.150180546750622"><ele>424.99999999999994</ele><time>2026-03-22T09:54:50Z</time></trkpt><trkpt lat="44.41709750993444" lon="9.15027418426999"><ele>425.0</ele><time>2026-03-22T09:54:51Z</time></trkpt><trkpt lat="44.417069038824415" lon="9.150395368943538"><ele>425.0</ele><time>2026-03-22T09:54:52Z</time></trkpt><trkpt lat="44.41704801613652" lon="9.150514054286617"><ele>425.0</ele><time>2026-03-22T09:54:53Z</time></trkpt><trkpt lat="44.417034748534" lon="9.15060272915287"><ele>424.99999999999994</ele><time>2026-03-22T09:54:54Z</time></trkpt><trkpt lat="44.417018806889864" lon="9.15071880633025"><ele>425.0</ele><time>2026-03-22T09:54:55Z</time></trkpt><trkpt lat="44.417005438459995" lon="9.150828940215575"><ele>424.66666666666663</ele><time>2026-03-22T09:54:56Z</time></trkpt><trkpt lat="44.416994471314965" lon="9.150936252408169"><ele>424.3333333333333</ele><time>2026-03-22T09:54:57Z</time></trkpt><trkpt lat="44.41698677830433" lon="9.151041794253159"><ele>424.0</ele><time>2026-03-22T09:54:58Z</time></trkpt><trkpt lat="44.41698313453385" lon="9.151141349054685"><ele>423.66666666666663</ele><time>2026-03-22T09:54:59Z</time></trkpt><trkpt lat="44.41698649065961" lon="9.151244575088223"><ele>423.3333333333333</ele><time>2026-03-22T09:55:00Z</time></trkpt><trkpt lat="44.41700390918959" lon="9.151331118114058"><ele>423.0</ele><time>2026-03-22T09:55:01Z</time></trkpt><trkpt lat="44.4170758926606" lon="9.151484538407963"><ele>421.5</ele><time>2026-03-22T09:55:03Z</time></trkpt><trkpt lat="44.4171309710586" lon="9.151544695220586"><ele>420.0</ele><time>2026-03-22T09:55:04Z</time></trkpt><trkpt lat="44.41719772599129" lon="9.151580454177038"><ele>418.5</ele><time>2026-03-22T09:55:05Z</time></trkpt><trkpt lat="44.41728755053532" lon="9.151689215895322"><ele>417.0</ele><time>2026-03-22T09:55:07Z</time></trkpt><trkpt lat="44.417290613754695" lon="9.151797131346873"><ele>415.5</ele><time>2026-03-22T09:55:09Z</time></trkpt><trkpt lat="44.4172492638992" lon="9.151931693991669"><ele>414.0</ele><time>2026-03-22T09:55:11Z</time></trkpt><trkpt lat="44.417220367818686" lon="9.152033289046098"><ele>418.5</ele><time>2026-03-22T09:55:12Z</time></trkpt><trkpt lat="44.41719594755342" lon="9.152124418886714"><ele>423.0</ele><time>2026-03-22T09:55:13Z</time></trkpt><trkpt lat="44.417183087994474" lon="9.152299970880122"><ele>427.5</ele><time>2026-03-22T09:55:15Z</time></trkpt><trkpt lat="44.41719752964802" lon="9.152396714465631"><ele>432.0</ele><time>2026-03-22T09:55:16Z</time></trkpt><trkpt lat="44.41722227577862" lon="9.152487266331526"><ele>436.5</ele><time>2026-03-22T09:55:17Z</time></trkpt><trkpt lat="44.41727346660626" lon="9.152565125070947"><ele>441.0</ele><time>2026-03-22T09:55:18Z</time></trkpt><trkpt lat="44.417315874642334" lon="9.152630533567509"><ele>441.0</ele><time>2026-03-22T09:55:19Z</time></trkpt><trkpt lat="44.417373762662415" lon="9.152684636576232"><ele>441.0</ele><time>2026-03-22T09:55:20Z</time></trkpt><trkpt lat="44.41742800126479" lon="9.152763847002314"><ele>441.0</ele><time>2026-03-22T09:55:21Z</time></trkpt><trkpt lat="44.41746146686661" lon="9.15290063885728"><ele>441.0</ele><time>2026-03-22T09:55:23Z</time></trkpt><trkpt lat="44.417451452515095" lon="9.15304029827174"><ele>441.0</ele><time>2026-03-22T09:55:25Z</time></trkpt><trkpt lat="44.417446867688206" lon="9.15316013841876"><ele>441.0</ele><time>2026-03-22T09:55:26Z</time></trkpt><trkpt lat="44.41742858088071" lon="9.153332718627993"><ele>440.4</ele><time>2026-03-22T09:55:28Z</time></trkpt><trkpt lat="44.41739346796923" lon="9.153477428579285"><ele>439.8</ele><time>2026-03-22T09:55:30Z</time></trkpt><trkpt lat="44.417334834727235" lon="9.153560598016087"><ele>439.19999999999993</ele><time>2026-03-22T09:55:31Z</time></trkpt><trkpt lat="44.41728308842442" lon="9.15362363145905"><ele>438.59999999999997</ele><time>2026-03-22T09:55:32Z</time></trkpt><trkpt lat="44.41718085619961" lon="9.153702450739921"><ele>438.0</ele><time>2026-03-22T09:55:34Z</time></trkpt><trkpt lat="44.41711347515118" lon="9.153782462601367"><ele>433.4</ele><time>2026-03-22T09:55:35Z</time></trkpt><trkpt lat="44.417066984263414" lon="9.153853967976831"><ele>428.79999999999995</ele><time>2026-03-22T09:55:36Z</time></trkpt><trkpt lat="44.41701913112341" lon="9.153958467918168"><ele>424.2</ele><time>2026-03-22T09:55:37Z</time></trkpt><trkpt lat="44.416987264404135" lon="9.15405195609847"><ele>419.6</ele><time>2026-03-22T09:55:38Z</time></trkpt><trkpt lat="44.4169156088875" lon="9.154201678991845"><ele>415.0</ele><time>2026-03-22T09:55:40Z</time></trkpt><trkpt lat="44.41683725809381" lon="9.154316413172"><ele>415.00000000000006</ele><time>2026-03-22T09:55:42Z</time></trkpt><trkpt lat="44.416772020651166" lon="9.154372133717567"><ele>415.0</ele><time>2026-03-22T09:55:43Z</time></trkpt><trkpt lat="44.41672289176753" lon="9.154439714613346"><ele>415.0</ele><time>2026-03-22T09:55:44.001Z</time></trkpt><trkpt lat="44.41665409100776" lon="9.154491099601456"><ele>415.0</ele><time>2026-03-22T09:55:45.001Z</time></trkpt><trkpt lat="44.416589102598124" lon="9.154588633346945"><ele>415.00000000000006</ele><time>2026-03-22T09:55:46.001Z</time></trkpt><trkpt lat="44.416533792449705" lon="9.154695232412307"><ele>415.0</ele><time>2026-03-22T09:55:47.001Z</time></trkpt><trkpt lat="44.41648330253412" lon="9.15479919515174"><ele>416.6666666666667</ele><time>2026-03-22T09:55:48.001Z</time></trkpt><trkpt lat="44.416432050648076" lon="9.15490627185349"><ele>418.33333333333337</ele><time>2026-03-22T09:55:49.001Z</time></trkpt><trkpt lat="44.41638806871049" lon="9.154999212163803"><ele>420.0</ele><time>2026-03-22T09:55:50.001Z</time></trkpt><trkpt lat="44.416339939859355" lon="9.155103598117295"><ele>421.66666666666663</ele><time>2026-03-22T09:55:51.001Z</time></trkpt><trkpt lat="44.41629274107748" lon="9.155204302542748"><ele>423.3333333333333</ele><time>2026-03-22T09:55:52.001Z</time></trkpt><trkpt lat="44.41624467337903" lon="9.155296524186767"><ele>425.0</ele><time>2026-03-22T09:55:53.001Z</time></trkpt><trkpt lat="44.41619266421484" lon="9.15538431755955"><ele>422.16666666666663</ele><time>2026-03-22T09:55:54.001Z</time></trkpt><trkpt lat="44.4161373895007" lon="9.155467292849101"><ele>419.3333333333333</ele><time>2026-03-22T09:55:55.001Z</time></trkpt><trkpt lat="44.41608039272811" lon="9.155549560470405"><ele>416.5</ele><time>2026-03-22T09:55:56.001Z</time></trkpt><trkpt lat="44.41602455099445" lon="9.155630160960294"><ele>413.66666666666663</ele><time>2026-03-22T09:55:57.001Z</time></trkpt><trkpt lat="44.41597105255975" lon="9.155704119131194"><ele>410.8333333333333</ele><time>2026-03-22T09:55:58.001Z</time></trkpt><trkpt lat="44.415927283308875" lon="9.155768647560537"><ele>408.0</ele><time>2026-03-22T09:55:59.001Z</time></trkpt><trkpt lat="44.41587285328075" lon="9.15590960122929"><ele>408.0</ele><time>2026-03-22T09:56:01.001Z</time></trkpt><trkpt lat="44.41590453978643" lon="9.156060697168275"><ele>408.0</ele><time>2026-03-22T09:56:03.001Z</time></trkpt><trkpt lat="44.41593430569649" lon="9.156192132833358"><ele>408.0</ele><time>2026-03-22T09:56:05.001Z</time></trkpt><trkpt lat="44.41604693333241" lon="9.156343972564347"><ele>408.0</ele><time>2026-03-22T09:56:07.001Z</time></trkpt><trkpt lat="44.416115804751854" lon="9.156427289749582"><ele>408.0</ele><time>2026-03-22T09:56:08.001Z</time></trkpt><trkpt lat="44.41616798194336" lon="9.156504049869364"><ele>408.0</ele><time>2026-03-22T09:56:09.001Z</time></trkpt><trkpt lat="44.41620528784036" lon="9.156577322271184"><ele>408.0</ele><time>2026-03-22T09:56:10.001Z</time></trkpt><trkpt lat="44.416226967840714" lon="9.156662614915358"><ele>408.0</ele><time>2026-03-22T09:56:11.001Z</time></trkpt><trkpt lat="44.41624056914753" lon="9.15675655566285"><ele>408.0</ele><time>2026-03-22T09:56:12.001Z</time></trkpt><trkpt lat="44.41625344474735" lon="9.156856710612766"><ele>408.0</ele><time>2026-03-22T09:56:13.001Z</time></trkpt><trkpt lat="44.41625775247203" lon="9.156991953484683"><ele>408.0</ele><time>2026-03-22T09:56:15Z</time></trkpt><trkpt lat="44.41622266962043" lon="9.157139314578686"><ele>406.4</ele><time>2026-03-22T09:56:17Z</time></trkpt><trkpt lat="44.41619226707803" lon="9.157227887571887"><ele>404.79999999999995</ele><time>2026-03-22T09:56:18Z</time></trkpt><trkpt lat="44.41617089916803" lon="9.15738151963211"><ele>403.2</ele><time>2026-03-22T09:56:20Z</time></trkpt><trkpt lat="44.4161923127335" lon="9.15752515378141"><ele>401.6</ele><time>2026-03-22T09:56:22Z</time></trkpt><trkpt lat="44.41624782694232" lon="9.157645417208835"><ele>400.0</ele><time>2026-03-22T09:56:24Z</time></trkpt><trkpt lat="44.4162719989604" lon="9.15776538744253"><ele>400.6</ele><time>2026-03-22T09:56:26Z</time></trkpt><trkpt lat="44.41626781842399" lon="9.157932480305517"><ele>401.2</ele><time>2026-03-22T09:56:28Z</time></trkpt><trkpt lat="44.41625012067014" lon="9.158098927792214"><ele>401.79999999999995</ele><time>2026-03-22T09:56:30Z</time></trkpt><trkpt lat="44.416228206947004" lon="9.1581974702724"><ele>402.4</ele><time>2026-03-22T09:56:31Z</time></trkpt><trkpt lat="44.41617997136718" lon="9.158369838494574"><ele>403.0</ele><time>2026-03-22T09:56:33Z</time></trkpt><trkpt lat="44.416126738016345" lon="9.158419868161953"><ele>403.00000000000006</ele><time>2026-03-22T09:56:34Z</time></trkpt><trkpt lat="44.41607607502491" lon="9.15848107783127"><ele>403.0</ele><time>2026-03-22T09:56:35Z</time></trkpt><trkpt lat="44.41600873858762" lon="9.158499465646953"><ele>403.0</ele><time>2026-03-22T09:56:36Z</time></trkpt><trkpt lat="44.415928291450356" lon="9.158520975629152"><ele>403.0</ele><time>2026-03-22T09:56:37Z</time></trkpt><trkpt lat="44.41584125238143" lon="9.158544215300333"><ele>403.00000000000006</ele><time>2026-03-22T09:56:38Z</time></trkpt><trkpt lat="44.41576300298277" lon="9.15854948114755"><ele>403.0</ele><time>2026-03-22T09:56:39Z</time></trkpt><trkpt lat="44.41568936350428" lon="9.15855993720927"><ele>403.0</ele><time>2026-03-22T09:56:40Z</time></trkpt><trkpt lat="44.415565852458464" lon="9.158592420712356"><ele>403.0</ele><time>2026-03-22T09:56:42Z</time></trkpt><trkpt lat="44.4154816044966" lon="9.1586913178554"><ele>403.0</ele><time>2026-03-22T09:56:44Z</time></trkpt><trkpt lat="44.41544293721562" lon="9.158837587199274"><ele>403.0</ele><time>2026-03-22T09:56:46Z</time></trkpt><trkpt lat="44.41543615301575" lon="9.158930177567877"><ele>403.0</ele><time>2026-03-22T09:56:47Z</time></trkpt><trkpt lat="44.41542128407437" lon="9.159037010718087"><ele>400.2</ele><time>2026-03-22T09:56:48Z</time></trkpt><trkpt lat="44.41539222585735" lon="9.159126815855835"><ele>397.4</ele><time>2026-03-22T09:56:49Z</time></trkpt><trkpt lat="44.415356283597454" lon="9.159285907911576"><ele>394.59999999999997</ele><time>2026-03-22T09:56:51Z</time></trkpt><trkpt lat="44.41524660422476" lon="9.159356703753732"><ele>391.79999999999995</ele><time>2026-03-22T09:56:53Z</time></trkpt><trkpt lat="44.41518169372464" lon="9.159380242001644"><ele>389.0</ele><time>2026-03-22T09:56:54Z</time></trkpt><trkpt lat="44.415111089232276" lon="9.159429672246409"><ele>388.99999999999994</ele><time>2026-03-22T09:56:55Z</time></trkpt><trkpt lat="44.41504296720527" lon="9.159490080643572"><ele>389.0</ele><time>2026-03-22T09:56:56Z</time></trkpt><trkpt lat="44.414970048694556" lon="9.159570655932637"><ele>389.0</ele><time>2026-03-22T09:56:57Z</time></trkpt><trkpt lat="44.414907210166035" lon="9.159640499986743"><ele>389.0</ele><time>2026-03-22T09:56:58Z</time></trkpt><trkpt lat="44.414841008878966" lon="9.159717887120085"><ele>388.99999999999994</ele><time>2026-03-22T09:56:59Z</time></trkpt><trkpt lat="44.414792886730794" lon="9.159777685437472"><ele>389.0</ele><time>2026-03-22T09:57:00Z</time></trkpt><trkpt lat="44.41470944872863" lon="9.159849227389143"><ele>387.4</ele><time>2026-03-22T09:57:01Z</time></trkpt><trkpt lat="44.41460427719202" lon="9.159995366652616"><ele>385.79999999999995</ele><time>2026-03-22T09:57:03Z</time></trkpt><trkpt lat="44.41455033511867" lon="9.16009267134784"><ele>384.20000000000005</ele><time>2026-03-22T09:57:04Z</time></trkpt><trkpt lat="44.41450204115728" lon="9.160193781962002"><ele>382.6</ele><time>2026-03-22T09:57:05Z</time></trkpt><trkpt lat="44.414457831030845" lon="9.160294537075693"><ele>381.0</ele><time>2026-03-22T09:57:06Z</time></trkpt><trkpt lat="44.41441905907948" lon="9.160399719369632"><ele>381.0</ele><time>2026-03-22T09:57:07Z</time></trkpt><trkpt lat="44.41438989360449" lon="9.160504837723218"><ele>381.0</ele><time>2026-03-22T09:57:08Z</time></trkpt><trkpt lat="44.41436993888951" lon="9.16059617413153"><ele>381.0</ele><time>2026-03-22T09:57:09Z</time></trkpt><trkpt lat="44.41435077127391" lon="9.160702830778224"><ele>381.0</ele><time>2026-03-22T09:57:10Z</time></trkpt><trkpt lat="44.414335541693546" lon="9.160833427751756"><ele>381.0</ele><time>2026-03-22T09:57:11Z</time></trkpt><trkpt lat="44.41432250895435" lon="9.160950296981033"><ele>381.0</ele><time>2026-03-22T09:57:12Z</time></trkpt><trkpt lat="44.41430208594407" lon="9.161050046180163"><ele>382.20000000000005</ele><time>2026-03-22T09:57:13Z</time></trkpt><trkpt lat="44.414288408260795" lon="9.161144509457847"><ele>383.40000000000003</ele><time>2026-03-22T09:57:14Z</time></trkpt><trkpt lat="44.41418550586861" lon="9.161256451797462"><ele>384.6</ele><time>2026-03-22T09:57:16Z</time></trkpt><trkpt lat="44.41403510664523" lon="9.161334767019381"><ele>385.8</ele><time>2026-03-22T09:57:18Z</time></trkpt><trkpt lat="44.41396042098973" lon="9.161374604501042"><ele>387.0</ele><time>2026-03-22T09:57:19Z</time></trkpt><trkpt lat="44.41388363768832" lon="9.16141941942989"><ele>385.1666666666667</ele><time>2026-03-22T09:57:20Z</time></trkpt><trkpt lat="44.41380823202932" lon="9.161483973785499"><ele>383.3333333333333</ele><time>2026-03-22T09:57:21Z</time></trkpt><trkpt lat="44.41374476622727" lon="9.16157006315524"><ele>381.5</ele><time>2026-03-22T09:57:22Z</time></trkpt><trkpt lat="44.41368627628634" lon="9.161666727711319"><ele>379.66666666666663</ele><time>2026-03-22T09:57:23Z</time></trkpt><trkpt lat="44.41361836205691" lon="9.161732179968238"><ele>377.8333333333333</ele><time>2026-03-22T09:57:24Z</time></trkpt><trkpt lat="44.413551392837476" lon="9.161791215708615"><ele>376.0</ele><time>2026-03-22T09:57:25Z</time></trkpt><trkpt lat="44.413483896791845" lon="9.161849826685204"><ele>376.0</ele><time>2026-03-22T09:57:26Z</time></trkpt><trkpt lat="44.413423154445326" lon="9.161902071985422"><ele>376.0</ele><time>2026-03-22T09:57:27Z</time></trkpt><trkpt lat="44.41336892096713" lon="9.161984308910673"><ele>376.0</ele><time>2026-03-22T09:57:28Z</time></trkpt><trkpt lat="44.41331547950351" lon="9.162059845342213"><ele>376.0</ele><time>2026-03-22T09:57:29Z</time></trkpt><trkpt lat="44.41326005277618" lon="9.16213320528315"><ele>376.0</ele><time>2026-03-22T09:57:30Z</time></trkpt><trkpt lat="44.41320363234686" lon="9.16221868668158"><ele>376.0</ele><time>2026-03-22T09:57:31Z</time></trkpt><trkpt lat="44.413161886947904" lon="9.162290859860537"><ele>378.20000000000005</ele><time>2026-03-22T09:57:32Z</time></trkpt><trkpt lat="44.4131024475658" lon="9.162449033515184"><ele>380.40000000000003</ele><time>2026-03-22T09:57:34Z</time></trkpt><trkpt lat="44.41310717124931" lon="9.162644375501486"><ele>382.6</ele><time>2026-03-22T09:57:36Z</time></trkpt><trkpt lat="44.41312042333867" lon="9.162734632048586"><ele>384.8</ele><time>2026-03-22T09:57:37Z</time></trkpt><trkpt lat="44.4131478083821" lon="9.162839230517669"><ele>387.0</ele><time>2026-03-22T09:57:38Z</time></trkpt><trkpt lat="44.41317700438306" lon="9.162933874469516"><ele>387.0</ele><time>2026-03-22T09:57:39Z</time></trkpt><trkpt lat="44.41320927936827" lon="9.163043049433577"><ele>387.0</ele><time>2026-03-22T09:57:40Z</time></trkpt><trkpt lat="44.41324230652164" lon="9.16313536959121"><ele>387.0</ele><time>2026-03-22T09:57:41Z</time></trkpt><trkpt lat="44.41330913196995" lon="9.16322892122942"><ele>387.0</ele><time>2026-03-22T09:57:42Z</time></trkpt><trkpt lat="44.413321903772626" lon="9.163349550675848"><ele>387.0</ele><time>2026-03-22T09:57:43Z</time></trkpt><trkpt lat="44.413341635889196" lon="9.163536873978796"><ele>387.20000000000005</ele><time>2026-03-22T09:57:45Z</time></trkpt><trkpt lat="44.41334051797709" lon="9.163630588003207"><ele>387.4</ele><time>2026-03-22T09:57:46Z</time></trkpt><trkpt lat="44.41328130676252" lon="9.16379477387113"><ele>387.6</ele><time>2026-03-22T09:57:48Z</time></trkpt><trkpt lat="44.41322741832909" lon="9.163939822707281"><ele>387.79999999999995</ele><time>2026-03-22T09:57:50Z</time></trkpt><trkpt lat="44.413195594104636" lon="9.164105228061029"><ele>388.0</ele><time>2026-03-22T09:57:52Z</time></trkpt><trkpt lat="44.413131258171255" lon="9.164258046079642"><ele>389.00000000000006</ele><time>2026-03-22T09:57:54Z</time></trkpt><trkpt lat="44.41305345482192" lon="9.164368919649343"><ele>390.0</ele><time>2026-03-22T09:57:56Z</time></trkpt><trkpt lat="44.412989338172196" lon="9.164395944987524"><ele>391.0</ele><time>2026-03-22T09:57:57Z</time></trkpt><trkpt lat="44.412915175781826" lon="9.164409992651125"><ele>392.0</ele><time>2026-03-22T09:57:58Z</time></trkpt><trkpt lat="44.412844733008214" lon="9.164415672674847"><ele>393.00000000000006</ele><time>2026-03-22T09:57:59Z</time></trkpt><trkpt lat="44.41276560777877" lon="9.16442623301577"><ele>394.0</ele><time>2026-03-22T09:58:00Z</time></trkpt><trkpt lat="44.41267932655768" lon="9.164451790271"><ele>388.50000000000006</ele><time>2026-03-22T09:58:01Z</time></trkpt><trkpt lat="44.41260446835922" lon="9.164486055986405"><ele>383.0</ele><time>2026-03-22T09:58:02Z</time></trkpt><trkpt lat="44.41252918473441" lon="9.164533360951344"><ele>377.5</ele><time>2026-03-22T09:58:03Z</time></trkpt><trkpt lat="44.41245484559045" lon="9.16456944060771"><ele>372.0</ele><time>2026-03-22T09:58:04Z</time></trkpt><trkpt lat="44.41238592715971" lon="9.164608716769175"><ele>366.5</ele><time>2026-03-22T09:58:05Z</time></trkpt><trkpt lat="44.412319252543405" lon="9.164637359431422"><ele>361.0</ele><time>2026-03-22T09:58:06Z</time></trkpt><trkpt lat="44.412252145153325" lon="9.164654335214202"><ele>361.0</ele><time>2026-03-22T09:58:07Z</time></trkpt><trkpt lat="44.412179477409694" lon="9.16465168174784"><ele>361.0</ele><time>2026-03-22T09:58:08Z</time></trkpt><trkpt lat="44.412098531253264" lon="9.164656828029997"><ele>361.0</ele><time>2026-03-22T09:58:09Z</time></trkpt><trkpt lat="44.41197697911849" lon="9.164687942184669"><ele>361.0</ele><time>2026-03-22T09:58:11Z</time></trkpt><trkpt lat="44.411875420900074" lon="9.16477659396357"><ele>361.0</ele><time>2026-03-22T09:58:13Z</time></trkpt><trkpt lat="44.41179307128891" lon="9.164829678497496"><ele>360.75</ele><time>2026-03-22T09:58:14.001Z</time></trkpt><trkpt lat="44.41170177322571" lon="9.164938307504181"><ele>360.5</ele><time>2026-03-22T09:58:16.001Z</time></trkpt><trkpt lat="44.41164634634934" lon="9.165098533721592"><ele>360.25</ele><time>2026-03-22T09:58:18.001Z</time></trkpt><trkpt lat="44.41162406234993" lon="9.165259250914078"><ele>360.0</ele><time>2026-03-22T09:58:20Z</time></trkpt><trkpt lat="44.411661351762824" lon="9.165443719813076"><ele>360.0</ele><time>2026-03-22T09:58:22Z</time></trkpt><trkpt lat="44.41169664870864" lon="9.16557974184565"><ele>360.0</ele><time>2026-03-22T09:58:24Z</time></trkpt><trkpt lat="44.41169014871692" lon="9.165734328886929"><ele>360.0</ele><time>2026-03-22T09:58:26Z</time></trkpt><trkpt lat="44.41163571331394" lon="9.165816803292255"><ele>360.0</ele><time>2026-03-22T09:58:28Z</time></trkpt><trkpt lat="44.411517935672094" lon="9.165824196983259"><ele>360.0</ele><time>2026-03-22T09:58:30Z</time></trkpt><trkpt lat="44.41144583757199" lon="9.165811641875333"><ele>361.75</ele><time>2026-03-22T09:58:31Z</time></trkpt><trkpt lat="44.41132828608874" lon="9.165817361119297"><ele>363.5</ele><time>2026-03-22T09:58:33Z</time></trkpt><trkpt lat="44.4112215165539" lon="9.16586865075809"><ele>365.25</ele><time>2026-03-22T09:58:35Z</time></trkpt><trkpt lat="44.41112927749826" lon="9.16597279840838"><ele>367.0</ele><time>2026-03-22T09:58:37Z</time></trkpt><trkpt lat="44.41109194375923" lon="9.166121986761688"><ele>365.16666666666663</ele><time>2026-03-22T09:58:39Z</time></trkpt><trkpt lat="44.411081390549676" lon="9.166212519412165"><ele>363.3333333333333</ele><time>2026-03-22T09:58:40Z</time></trkpt><trkpt lat="44.411106797183514" lon="9.166319874770396"><ele>361.5</ele><time>2026-03-22T09:58:41Z</time></trkpt><trkpt lat="44.41111002674707" lon="9.166461335380738"><ele>359.6666666666667</ele><time>2026-03-22T09:58:43Z</time></trkpt><trkpt lat="44.411048150973365" lon="9.166567200650334"><ele>357.83333333333337</ele><time>2026-03-22T09:58:45Z</time></trkpt><trkpt lat="44.41096683969363" lon="9.166576104879418"><ele>356.0</ele><time>2026-03-22T09:58:48Z</time></trkpt><trkpt lat="44.41093255827444" lon="9.166464786730431"><ele>354.0</ele><time>2026-03-22T09:58:50Z</time></trkpt><trkpt lat="44.41096657646789" lon="9.166321810492494"><ele>352.0</ele><time>2026-03-22T09:58:52Z</time></trkpt><trkpt lat="44.410992280698345" lon="9.166146306103629"><ele>350.0</ele><time>2026-03-22T09:58:54Z</time></trkpt><trkpt lat="44.4110022244189" lon="9.16605086329589"><ele>348.0</ele><time>2026-03-22T09:58:55Z</time></trkpt><trkpt lat="44.411019673119775" lon="9.1659266766585"><ele>346.0</ele><time>2026-03-22T09:58:56Z</time></trkpt><trkpt lat="44.41105464663096" lon="9.165768546481818"><ele>345.4</ele><time>2026-03-22T09:58:58Z</time></trkpt><trkpt lat="44.41112971426998" lon="9.165625245887021"><ele>344.8</ele><time>2026-03-22T09:59:00Z</time></trkpt><trkpt lat="44.411206848078066" lon="9.165535003848822"><ele>344.2</ele><time>2026-03-22T09:59:02Z</time></trkpt><trkpt lat="44.411224188958236" lon="9.16539600064974"><ele>343.59999999999997</ele><time>2026-03-22T09:59:04Z</time></trkpt><trkpt lat="44.41117085413392" lon="9.1652633906835"><ele>343.0</ele><time>2026-03-22T09:59:06Z</time></trkpt><trkpt lat="44.41108506473393" lon="9.165128637645005"><ele>343.0</ele><time>2026-03-22T09:59:08Z</time></trkpt><trkpt lat="44.41102556100999" lon="9.164997163456688"><ele>343.0</ele><time>2026-03-22T09:59:10Z</time></trkpt><trkpt lat="44.41105040899108" lon="9.164843477021558"><ele>343.0</ele><time>2026-03-22T09:59:12Z</time></trkpt><trkpt lat="44.4110715359703" lon="9.164754863982164"><ele>343.0</ele><time>2026-03-22T09:59:13Z</time></trkpt><trkpt lat="44.41110509044503" lon="9.16467713045531"><ele>343.0</ele><time>2026-03-22T09:59:14Z</time></trkpt><trkpt lat="44.41114849704227" lon="9.164599528138105"><ele>343.0</ele><time>2026-03-22T09:59:15Z</time></trkpt><trkpt lat="44.41119629428116" lon="9.164536403799685"><ele>342.0</ele><time>2026-03-22T09:59:16Z</time></trkpt><trkpt lat="44.411301663197754" lon="9.164472040063472"><ele>341.0</ele><time>2026-03-22T09:59:18Z</time></trkpt><trkpt lat="44.41144020676045" lon="9.164470270417128"><ele>340.0</ele><time>2026-03-22T09:59:20Z</time></trkpt><trkpt lat="44.411515261681984" lon="9.164475329727368"><ele>339.0</ele><time>2026-03-22T09:59:21Z</time></trkpt><trkpt lat="44.411598595400385" lon="9.164471117046256"><ele>338.0</ele><time>2026-03-22T09:59:22Z</time></trkpt><trkpt lat="44.411670185695236" lon="9.164466735266327"><ele>338.0</ele><time>2026-03-22T09:59:23Z</time></trkpt><trkpt lat="44.411735193412746" lon="9.164464448412868"><ele>338.0</ele><time>2026-03-22T09:59:24Z</time></trkpt><trkpt lat="44.411856102258724" lon="9.164406033326113"><ele>338.0</ele><time>2026-03-22T09:59:26Z</time></trkpt><trkpt lat="44.41193196672797" lon="9.164330094996924"><ele>338.0</ele><time>2026-03-22T09:59:28Z</time></trkpt><trkpt lat="44.411922431267186" lon="9.164202217584982"><ele>338.0</ele><time>2026-03-22T09:59:30Z</time></trkpt><trkpt lat="44.41185824964106" lon="9.164107731259431"><ele>338.0</ele><time>2026-03-22T09:59:32Z</time></trkpt><trkpt lat="44.41176608041495" lon="9.164122603035295"><ele>338.0</ele><time>2026-03-22T09:59:35Z</time></trkpt><trkpt lat="44.411700656347584" lon="9.164196024535284"><ele>338.0</ele><time>2026-03-22T09:59:56Z</time></trkpt><trkpt lat="44.41164302142562" lon="9.164274259769515"><ele>338.0</ele><time>2026-03-22T09:59:58Z</time></trkpt><trkpt lat="44.41153090534173" lon="9.164340723831737"><ele>338.0</ele><time>2026-03-22T10:00:00Z</time></trkpt><trkpt lat="44.411462829408535" lon="9.164340461987358"><ele>338.0</ele><time>2026-03-22T10:00:01Z</time></trkpt><trkpt lat="44.41139056207153" lon="9.164312495129904"><ele>337.0</ele><time>2026-03-22T10:00:02Z</time></trkpt><trkpt lat="44.41130950091133" lon="9.164296740115173"><ele>336.0</ele><time>2026-03-22T10:00:03Z</time></trkpt><trkpt lat="44.41122311278061" lon="9.164269166335934"><ele>335.0</ele><time>2026-03-22T10:00:04Z</time></trkpt><trkpt lat="44.411149329572815" lon="9.164224474198186"><ele>334.0</ele><time>2026-03-22T10:00:05Z</time></trkpt><trkpt lat="44.411085844729556" lon="9.164169508754155"><ele>333.0</ele><time>2026-03-22T10:00:06Z</time></trkpt><trkpt lat="44.41102973025851" lon="9.164096520473462"><ele>332.0</ele><time>2026-03-22T10:00:07Z</time></trkpt><trkpt lat="44.410975853509804" lon="9.164027505099307"><ele>327.7142857142857</ele><time>2026-03-22T10:00:08Z</time></trkpt><trkpt lat="44.410919775480465" lon="9.163968702630616"><ele>323.42857142857144</ele><time>2026-03-22T10:00:09Z</time></trkpt><trkpt lat="44.410861795774416" lon="9.163929722561988"><ele>319.14285714285717</ele><time>2026-03-22T10:00:10Z</time></trkpt><trkpt lat="44.410801265949885" lon="9.16390015808478"><ele>314.8571428571429</ele><time>2026-03-22T10:00:11Z</time></trkpt><trkpt lat="44.41072144329416" lon="9.163888354618564"><ele>310.57142857142856</ele><time>2026-03-22T10:00:12Z</time></trkpt><trkpt lat="44.41064288272955" lon="9.163904446183787"><ele>306.28571428571433</ele><time>2026-03-22T10:00:13Z</time></trkpt><trkpt lat="44.410567956135324" lon="9.163922435387418"><ele>302.0</ele><time>2026-03-22T10:00:14Z</time></trkpt><trkpt lat="44.41047490767006" lon="9.163947886440628"><ele>300.5</ele><time>2026-03-22T10:00:15Z</time></trkpt><trkpt lat="44.41039651645781" lon="9.163966637198026"><ele>299.0</ele><time>2026-03-22T10:00:16Z</time></trkpt><trkpt lat="44.41032305751509" lon="9.163992668816068"><ele>297.5</ele><time>2026-03-22T10:00:17Z</time></trkpt><trkpt lat="44.41024811150676" lon="9.164023523047902"><ele>296.0</ele><time>2026-03-22T10:00:18Z</time></trkpt><trkpt lat="44.410186201086134" lon="9.164070926082596"><ele>294.5</ele><time>2026-03-22T10:00:19Z</time></trkpt><trkpt lat="44.41011672797313" lon="9.16419327433678"><ele>293.0</ele><time>2026-03-22T10:00:21Z</time></trkpt><trkpt lat="44.41008483698837" lon="9.164358451248143"><ele>296.33333333333337</ele><time>2026-03-22T10:00:23.001Z</time></trkpt><trkpt lat="44.41012794135134" lon="9.164467750836385"><ele>299.6666666666667</ele><time>2026-03-22T10:00:24.001Z</time></trkpt><trkpt lat="44.410122970687354" lon="9.164580309776815"><ele>303.0</ele><time>2026-03-22T10:00:25.001Z</time></trkpt><trkpt lat="44.410130195877464" lon="9.164707409990386"><ele>306.3333333333333</ele><time>2026-03-22T10:00:26Z</time></trkpt><trkpt lat="44.41013639380528" lon="9.16484257881469"><ele>309.66666666666663</ele><time>2026-03-22T10:00:27Z</time></trkpt><trkpt lat="44.41013974711561" lon="9.164963132914675"><ele>313.0</ele><time>2026-03-22T10:00:28Z</time></trkpt><trkpt lat="44.410142114804486" lon="9.165066324926135"><ele>313.8333333333333</ele><time>2026-03-22T10:00:29Z</time></trkpt><trkpt lat="44.41014034713522" lon="9.165187178728488"><ele>314.66666666666663</ele><time>2026-03-22T10:00:30Z</time></trkpt><trkpt lat="44.41013265482565" lon="9.165275957521887"><ele>315.5</ele><time>2026-03-22T10:00:31Z</time></trkpt><trkpt lat="44.410093803590925" lon="9.165403782083684"><ele>316.3333333333333</ele><time>2026-03-22T10:00:33Z</time></trkpt><trkpt lat="44.4100508038835" lon="9.165488855954651"><ele>317.1666666666667</ele><time>2026-03-22T10:00:34Z</time></trkpt><trkpt lat="44.4099784887586" lon="9.16553302562158"><ele>318.0</ele><time>2026-03-22T10:00:35Z</time></trkpt><trkpt lat="44.40990410080964" lon="9.16558746114976"><ele>318.0</ele><time>2026-03-22T10:00:36Z</time></trkpt><trkpt lat="44.40983128319411" lon="9.16565322793932"><ele>318.0</ele><time>2026-03-22T10:00:37Z</time></trkpt><trkpt lat="44.40976337855389" lon="9.165715907298221"><ele>318.0</ele><time>2026-03-22T10:00:38Z</time></trkpt><trkpt lat="44.409695424501386" lon="9.165760727436313"><ele>318.0</ele><time>2026-03-22T10:00:39Z</time></trkpt><trkpt lat="44.409626043696576" lon="9.165790859401797"><ele>318.0</ele><time>2026-03-22T10:00:40Z</time></trkpt><trkpt lat="44.40955646757013" lon="9.165788118302862"><ele>318.0</ele><time>2026-03-22T10:00:41Z</time></trkpt><trkpt lat="44.40948051800439" lon="9.165812819044827"><ele>314.6666666666667</ele><time>2026-03-22T10:00:42Z</time></trkpt><trkpt lat="44.4093772925404" lon="9.165903552990393"><ele>311.3333333333333</ele><time>2026-03-22T10:00:44Z</time></trkpt><trkpt lat="44.40932078137382" lon="9.165956641141022"><ele>308.0</ele><time>2026-03-22T10:00:45Z</time></trkpt><trkpt lat="44.40928404786203" lon="9.16604031886299"><ele>304.66666666666663</ele><time>2026-03-22T10:00:46Z</time></trkpt><trkpt lat="44.409260349685646" lon="9.166135848567906"><ele>301.3333333333333</ele><time>2026-03-22T10:00:47Z</time></trkpt><trkpt lat="44.409236704790146" lon="9.166223627420873"><ele>298.0</ele><time>2026-03-22T10:00:48Z</time></trkpt><trkpt lat="44.40919901952828" lon="9.166298692070416"><ele>298.0</ele><time>2026-03-22T10:00:49Z</time></trkpt><trkpt lat="44.40917246580494" lon="9.166394128485894"><ele>298.0</ele><time>2026-03-22T10:00:50Z</time></trkpt><trkpt lat="44.40914305957088" lon="9.166499817125096"><ele>298.0</ele><time>2026-03-22T10:00:51Z</time></trkpt><trkpt lat="44.40911089497863" lon="9.16661475694353"><ele>298.0</ele><time>2026-03-22T10:00:52Z</time></trkpt><trkpt lat="44.409075254607906" lon="9.16674114044116"><ele>298.0</ele><time>2026-03-22T10:00:53Z</time></trkpt><trkpt lat="44.40904222640282" lon="9.166864328492057"><ele>298.0</ele><time>2026-03-22T10:00:54Z</time></trkpt><trkpt lat="44.40901274039107" lon="9.166974865185024"><ele>299.2857142857143</ele><time>2026-03-22T10:00:55Z</time></trkpt><trkpt lat="44.408986799902934" lon="9.167072875339368"><ele>300.57142857142856</ele><time>2026-03-22T10:00:56Z</time></trkpt><trkpt lat="44.4089676335746" lon="9.167162581320309"><ele>301.85714285714283</ele><time>2026-03-22T10:00:57Z</time></trkpt><trkpt lat="44.40896089469614" lon="9.167265475366033"><ele>303.1428571428571</ele><time>2026-03-22T10:00:58Z</time></trkpt><trkpt lat="44.408971277305824" lon="9.167356128129255"><ele>304.42857142857144</ele><time>2026-03-22T10:00:59Z</time></trkpt><trkpt lat="44.40900459589159" lon="9.167436064815057"><ele>305.71428571428567</ele><time>2026-03-22T10:01:00Z</time></trkpt><trkpt lat="44.40904807346809" lon="9.167500970463946"><ele>307.0</ele><time>2026-03-22T10:01:01Z</time></trkpt><trkpt lat="44.409124381070676" lon="9.167524492161737"><ele>307.0</ele><time>2026-03-22T10:01:02Z</time></trkpt><trkpt lat="44.40924196356529" lon="9.167605071424296"><ele>307.0</ele><time>2026-03-22T10:01:04Z</time></trkpt><trkpt lat="44.40928539836167" lon="9.16766917553832"><ele>307.0</ele><time>2026-03-22T10:01:05Z</time></trkpt><trkpt lat="44.40930953935784" lon="9.167789770323859"><ele>307.0</ele><time>2026-03-22T10:01:07Z</time></trkpt><trkpt lat="44.40926806214375" lon="9.167893343004895"><ele>307.0</ele><time>2026-03-22T10:01:09Z</time></trkpt><trkpt lat="44.40918183672651" lon="9.167951752597054"><ele>307.0</ele><time>2026-03-22T10:01:11Z</time></trkpt><trkpt lat="44.409116738702224" lon="9.167950931167075"><ele>307.0</ele><time>2026-03-22T10:01:12Z</time></trkpt><trkpt lat="44.409049525552796" lon="9.167965587811947"><ele>307.0</ele><time>2026-03-22T10:01:13Z</time></trkpt><trkpt lat="44.408935840102274" lon="9.167990861062455"><ele>307.0</ele><time>2026-03-22T10:01:15Z</time></trkpt><trkpt lat="44.408873582212536" lon="9.168062286716275"><ele>307.0</ele><time>2026-03-22T10:01:16Z</time></trkpt><trkpt lat="44.408825952928694" lon="9.168144750647002"><ele>307.0</ele><time>2026-03-22T10:01:17Z</time></trkpt><trkpt lat="44.40878058653983" lon="9.168243871275042"><ele>302.85714285714283</ele><time>2026-03-22T10:01:18Z</time></trkpt><trkpt lat="44.40873627700646" lon="9.168345104700679"><ele>298.7142857142857</ele><time>2026-03-22T10:01:19Z</time></trkpt><trkpt lat="44.40869511555437" lon="9.168441080944858"><ele>294.57142857142856</ele><time>2026-03-22T10:01:20Z</time></trkpt><trkpt lat="44.40866227275041" lon="9.168524900573747"><ele>290.42857142857144</ele><time>2026-03-22T10:01:21Z</time></trkpt><trkpt lat="44.408634172510936" lon="9.168608533457595"><ele>286.2857142857143</ele><time>2026-03-22T10:01:22Z</time></trkpt><trkpt lat="44.40861715606466" lon="9.168696738673484"><ele>282.1428571428571</ele><time>2026-03-22T10:01:23Z</time></trkpt><trkpt lat="44.408616806159905" lon="9.168793978242034"><ele>278.0</ele><time>2026-03-22T10:01:24Z</time></trkpt><trkpt lat="44.40863443919236" lon="9.168892507282317"><ele>278.0</ele><time>2026-03-22T10:01:25Z</time></trkpt><trkpt lat="44.40866384241523" lon="9.169009786482205"><ele>278.0</ele><time>2026-03-22T10:01:26Z</time></trkpt><trkpt lat="44.40869438605173" lon="9.169114120759987"><ele>278.0</ele><time>2026-03-22T10:01:27Z</time></trkpt><trkpt lat="44.408709803138734" lon="9.16920121471663"><ele>278.0</ele><time>2026-03-22T10:01:28Z</time></trkpt><trkpt lat="44.40867528581487" lon="9.169327966816002"><ele>278.0</ele><time>2026-03-22T10:01:30Z</time></trkpt><trkpt lat="44.4086284773057" lon="9.16939572257558"><ele>278.0</ele><time>2026-03-22T10:01:31Z</time></trkpt><trkpt lat="44.40856114632364" lon="9.169454760279107"><ele>278.33333333333337</ele><time>2026-03-22T10:01:32Z</time></trkpt><trkpt lat="44.4085228949675" lon="9.169553980858261"><ele>278.6666666666667</ele><time>2026-03-22T10:01:33Z</time></trkpt><trkpt lat="44.408467806660475" lon="9.169637502372783"><ele>279.0</ele><time>2026-03-22T10:01:34Z</time></trkpt><trkpt lat="44.40844461860186" lon="9.169747823189194"><ele>279.3333333333333</ele><time>2026-03-22T10:01:35Z</time></trkpt><trkpt lat="44.40840331988331" lon="9.169836256303597"><ele>279.66666666666663</ele><time>2026-03-22T10:01:36Z</time></trkpt><trkpt lat="44.40838441538051" lon="9.169931287494418"><ele>280.0</ele><time>2026-03-22T10:01:37Z</time></trkpt><trkpt lat="44.40838315211275" lon="9.170035515259535"><ele>280.0</ele><time>2026-03-22T10:01:38Z</time></trkpt><trkpt lat="44.408403372269255" lon="9.170154177359862"><ele>280.0</ele><time>2026-03-22T10:01:39Z</time></trkpt><trkpt lat="44.40842895885284" lon="9.170272446569097"><ele>280.0</ele><time>2026-03-22T10:01:40Z</time></trkpt><trkpt lat="44.40845262969966" lon="9.170373357424198"><ele>280.0</ele><time>2026-03-22T10:01:41Z</time></trkpt><trkpt lat="44.408476734307435" lon="9.170468744831654"><ele>280.0</ele><time>2026-03-22T10:01:42Z</time></trkpt><trkpt lat="44.408502186334665" lon="9.170560239102024"><ele>280.0</ele><time>2026-03-22T10:01:43Z</time></trkpt><trkpt lat="44.40854043541585" lon="9.170651391686608"><ele>281.5</ele><time>2026-03-22T10:01:44Z</time></trkpt><trkpt lat="44.40860116714846" lon="9.170729440100219"><ele>283.0</ele><time>2026-03-22T10:01:45Z</time></trkpt><trkpt lat="44.40865787236846" lon="9.17079604442703"><ele>284.5</ele><time>2026-03-22T10:01:46Z</time></trkpt><trkpt lat="44.4086967588832" lon="9.170866932184216"><ele>286.0</ele><time>2026-03-22T10:01:47Z</time></trkpt><trkpt lat="44.40869267532985" lon="9.170978136774846"><ele>287.5</ele><time>2026-03-22T10:01:49Z</time></trkpt><trkpt lat="44.408627081135506" lon="9.171074536087842"><ele>289.0</ele><time>2026-03-22T10:01:51Z</time></trkpt><trkpt lat="44.40851736888946" lon="9.171054917362717"><ele>289.0</ele><time>2026-03-22T10:01:53Z</time></trkpt><trkpt lat="44.40844799420992" lon="9.171018742396711"><ele>289.0</ele><time>2026-03-22T10:01:54Z</time></trkpt><trkpt lat="44.40836745770653" lon="9.170968934790984"><ele>289.0</ele><time>2026-03-22T10:01:55Z</time></trkpt><trkpt lat="44.40828308674535" lon="9.170915190889035"><ele>289.0</ele><time>2026-03-22T10:01:56Z</time></trkpt><trkpt lat="44.40818700038875" lon="9.170882623258937"><ele>289.0</ele><time>2026-03-22T10:01:57Z</time></trkpt><trkpt lat="44.408102047439584" lon="9.170840532268107"><ele>289.0</ele><time>2026-03-22T10:01:58Z</time></trkpt><trkpt lat="44.40801886028859" lon="9.17081115729822"><ele>288.0</ele><time>2026-03-22T10:01:59Z</time></trkpt><trkpt lat="44.40793128069717" lon="9.170774497875325"><ele>287.0</ele><time>2026-03-22T10:02:00Z</time></trkpt><trkpt lat="44.40783995898704" lon="9.170738151985507"><ele>286.0</ele><time>2026-03-22T10:02:01Z</time></trkpt><trkpt lat="44.407754465817725" lon="9.17070516619799"><ele>285.0</ele><time>2026-03-22T10:02:02Z</time></trkpt><trkpt lat="44.40767263814669" lon="9.170674413387427"><ele>284.0</ele><time>2026-03-22T10:02:03Z</time></trkpt><trkpt lat="44.4076027193915" lon="9.17063258271194"><ele>283.0</ele><time>2026-03-22T10:02:04Z</time></trkpt><trkpt lat="44.40754045792472" lon="9.170576258570618"><ele>281.57142857142856</ele><time>2026-03-22T10:02:05Z</time></trkpt><trkpt lat="44.40748024493889" lon="9.170517325104866"><ele>280.14285714285717</ele><time>2026-03-22T10:02:06Z</time></trkpt><trkpt lat="44.4074276550468" lon="9.170436967751167"><ele>278.7142857142857</ele><time>2026-03-22T10:02:07Z</time></trkpt><trkpt lat="44.40736578016655" lon="9.170385534511956"><ele>277.2857142857143</ele><time>2026-03-22T10:02:08Z</time></trkpt><trkpt lat="44.40729954824523" lon="9.1703355646281"><ele>275.8571428571429</ele><time>2026-03-22T10:02:09Z</time></trkpt><trkpt lat="44.40723016849964" lon="9.170303355401407"><ele>274.42857142857144</ele><time>2026-03-22T10:02:10Z</time></trkpt><trkpt lat="44.40716428090631" lon="9.170286788852327"><ele>273.0</ele><time>2026-03-22T10:02:11Z</time></trkpt><trkpt lat="44.40709761698447" lon="9.170281933219401"><ele>273.0</ele><time>2026-03-22T10:02:12Z</time></trkpt><trkpt lat="44.407020727182925" lon="9.170296683270868"><ele>273.0</ele><time>2026-03-22T10:02:13Z</time></trkpt><trkpt lat="44.406939585638156" lon="9.170293162988138"><ele>273.0</ele><time>2026-03-22T10:02:14Z</time></trkpt><trkpt lat="44.406874011202625" lon="9.17033163009907"><ele>273.0</ele><time>2026-03-22T10:02:15Z</time></trkpt><trkpt lat="44.40681204274351" lon="9.170304478921887"><ele>273.0</ele><time>2026-03-22T10:02:16Z</time></trkpt><trkpt lat="44.406740590283704" lon="9.170205278361"><ele>273.0</ele><time>2026-03-22T10:02:18Z</time></trkpt><trkpt lat="44.40673043115504" lon="9.170112806065042"><ele>273.0</ele><time>2026-03-22T10:02:19Z</time></trkpt><trkpt lat="44.406733984354936" lon="9.170021823853634"><ele>273.0</ele><time>2026-03-22T10:02:20Z</time></trkpt><trkpt lat="44.40674905717703" lon="9.16991901316581"><ele>273.0</ele><time>2026-03-22T10:02:21Z</time></trkpt><trkpt lat="44.40676327690202" lon="9.169824199794698"><ele>273.0</ele><time>2026-03-22T10:02:22Z</time></trkpt><trkpt lat="44.40677124331678" lon="9.169720713286123"><ele>273.0</ele><time>2026-03-22T10:02:23Z</time></trkpt><trkpt lat="44.4067239180724" lon="9.16955645413326"><ele>273.0</ele><time>2026-03-22T10:02:25Z</time></trkpt><trkpt lat="44.406671294203846" lon="9.169482139352017"><ele>270.14285714285717</ele><time>2026-03-22T10:02:26Z</time></trkpt><trkpt lat="44.406626905030706" lon="9.169416766912999"><ele>267.2857142857143</ele><time>2026-03-22T10:02:27Z</time></trkpt><trkpt lat="44.40655983461862" lon="9.169379015786339"><ele>264.42857142857144</ele><time>2026-03-22T10:02:28Z</time></trkpt><trkpt lat="44.406487723089526" lon="9.169358210917649"><ele>261.57142857142856</ele><time>2026-03-22T10:02:29Z</time></trkpt><trkpt lat="44.40642095763419" lon="9.169348366328983"><ele>258.7142857142857</ele><time>2026-03-22T10:02:30Z</time></trkpt><trkpt lat="44.40635846967362" lon="9.169366178750613"><ele>255.8571428571429</ele><time>2026-03-22T10:02:31Z</time></trkpt><trkpt lat="44.40628383604897" lon="9.169382651145627"><ele>253.00000000000003</ele><time>2026-03-22T10:02:32Z</time></trkpt><trkpt lat="44.40618849221833" lon="9.169443737704697"><ele>251.33333333333331</ele><time>2026-03-22T10:02:33Z</time></trkpt><trkpt lat="44.40610336331984" lon="9.169498082998528"><ele>249.66666666666666</ele><time>2026-03-22T10:02:34Z</time></trkpt><trkpt lat="44.406028528415405" lon="9.169566675508925"><ele>248.0</ele><time>2026-03-22T10:02:35Z</time></trkpt><trkpt lat="44.405954446432915" lon="9.169609361410064"><ele>246.33333333333331</ele><time>2026-03-22T10:02:36Z</time></trkpt><trkpt lat="44.405880960840875" lon="9.16966018989335"><ele>244.66666666666666</ele><time>2026-03-22T10:02:37Z</time></trkpt><trkpt lat="44.40580009565433" lon="9.169681591708082"><ele>243.0</ele><time>2026-03-22T10:02:38Z</time></trkpt><trkpt lat="44.40572579245207" lon="9.16973580565988"><ele>243.0</ele><time>2026-03-22T10:02:39Z</time></trkpt><trkpt lat="44.405655867518774" lon="9.169805949999748"><ele>243.0</ele><time>2026-03-22T10:02:40Z</time></trkpt><trkpt lat="44.405593466793796" lon="9.169878272210816"><ele>243.0</ele><time>2026-03-22T10:02:41Z</time></trkpt><trkpt lat="44.40550171389418" lon="9.169975544268585"><ele>243.0</ele><time>2026-03-22T10:02:43Z</time></trkpt><trkpt lat="44.405452904257935" lon="9.170041899971293"><ele>243.0</ele><time>2026-03-22T10:02:45Z</time></trkpt><trkpt lat="44.40538698402579" lon="9.170086710986034"><ele>243.0</ele><time>2026-03-22T10:02:48Z</time></trkpt><trkpt lat="44.40536474278153" lon="9.170173428613879"><ele>245.2</ele><time>2026-03-22T10:03:34Z</time></trkpt><trkpt lat="44.40531126289063" lon="9.170264984717685"><ele>247.4</ele><time>2026-03-22T10:03:40Z</time></trkpt><trkpt lat="44.40520500157937" lon="9.170345971059936"><ele>249.59999999999997</ele><time>2026-03-22T10:03:42Z</time></trkpt><trkpt lat="44.40513237690305" lon="9.17040026222171"><ele>251.79999999999998</ele><time>2026-03-22T10:03:43Z</time></trkpt><trkpt lat="44.405059755631584" lon="9.170410707744093"><ele>254.0</ele><time>2026-03-22T10:03:44Z</time></trkpt><trkpt lat="44.40496843229147" lon="9.170465865307152"><ele>254.0</ele><time>2026-03-22T10:03:46Z</time></trkpt><trkpt lat="44.40487611849121" lon="9.170335041666752"><ele>253.99999999999997</ele><time>2026-03-22T10:03:49Z</time></trkpt><trkpt lat="44.40478681819612" lon="9.170235433776602"><ele>253.99999999999997</ele><time>2026-03-22T10:03:50Z</time></trkpt><trkpt lat="44.40473704773766" lon="9.170147498205758"><ele>254.0</ele><time>2026-03-22T10:03:51Z</time></trkpt><trkpt lat="44.404678589742566" lon="9.17005009321954"><ele>254.0</ele><time>2026-03-22T10:03:52Z</time></trkpt><trkpt lat="44.40462991155966" lon="9.16996045211716"><ele>262.4</ele><time>2026-03-22T10:03:53Z</time></trkpt><trkpt lat="44.4045927606017" lon="9.169866512530247"><ele>270.79999999999995</ele><time>2026-03-22T10:03:54Z</time></trkpt><trkpt lat="44.40456345488466" lon="9.169780456238437"><ele>279.20000000000005</ele><time>2026-03-22T10:03:55Z</time></trkpt><trkpt lat="44.404546431501" lon="9.169616446971634"><ele>287.6</ele><time>2026-03-22T10:03:57Z</time></trkpt><trkpt lat="44.40454518543585" lon="9.169518543149946"><ele>296.0</ele><time>2026-03-22T10:03:58Z</time></trkpt><trkpt lat="44.40456674438268" lon="9.169351081831657"><ele>296.0</ele><time>2026-03-22T10:04:00Z</time></trkpt><trkpt lat="44.40456692647668" lon="9.169170634961102"><ele>296.0</ele><time>2026-03-22T10:04:01Z</time></trkpt><trkpt lat="44.40455289107907" lon="9.169024566668737"><ele>296.0</ele><time>2026-03-22T10:04:02Z</time></trkpt><trkpt lat="44.40455317737559" lon="9.168897511574986"><ele>296.0</ele><time>2026-03-22T10:04:03Z</time></trkpt><trkpt lat="44.40455973888172" lon="9.16874242787608"><ele>296.0</ele><time>2026-03-22T10:04:04Z</time></trkpt><trkpt lat="44.40458921332879" lon="9.168629033944498"><ele>293.83333333333337</ele><time>2026-03-22T10:04:05Z</time></trkpt><trkpt lat="44.404601195550384" lon="9.16848938764372"><ele>291.6666666666667</ele><time>2026-03-22T10:04:06Z</time></trkpt><trkpt lat="44.40462389696373" lon="9.168401684955938"><ele>289.5</ele><time>2026-03-22T10:04:07Z</time></trkpt><trkpt lat="44.40461971976853" lon="9.168276745794216"><ele>287.3333333333333</ele><time>2026-03-22T10:04:08Z</time></trkpt><trkpt lat="44.404615181673336" lon="9.168153014342572"><ele>285.16666666666663</ele><time>2026-03-22T10:04:09Z</time></trkpt><trkpt lat="44.40462034218342" lon="9.168037776183324"><ele>283.0</ele><time>2026-03-22T10:04:10Z</time></trkpt><trkpt lat="44.40459033394603" lon="9.167926463556057"><ele>280.0</ele><time>2026-03-22T10:04:11Z</time></trkpt><trkpt lat="44.40455155809229" lon="9.16781136653809"><ele>277.0</ele><time>2026-03-22T10:04:12Z</time></trkpt><trkpt lat="44.404509732626884" lon="9.167682803202649"><ele>274.0</ele><time>2026-03-22T10:04:13Z</time></trkpt><trkpt lat="44.40447124462008" lon="9.167568446789"><ele>271.0</ele><time>2026-03-22T10:04:14Z</time></trkpt><trkpt lat="44.40442278368815" lon="9.167439183011677"><ele>268.0</ele><time>2026-03-22T10:04:15Z</time></trkpt><trkpt lat="44.40438310996425" lon="9.167317061154622"><ele>265.2</ele><time>2026-03-22T10:04:16Z</time></trkpt><trkpt lat="44.40434021455688" lon="9.16719842531353"><ele>262.4</ele><time>2026-03-22T10:04:17Z</time></trkpt><trkpt lat="44.404310011602355" lon="9.167075152888561"><ele>259.59999999999997</ele><time>2026-03-22T10:04:18Z</time></trkpt><trkpt lat="44.40429585030072" lon="9.166954350574088"><ele>256.8</ele><time>2026-03-22T10:04:19Z</time></trkpt><trkpt lat="44.404292012969435" lon="9.1668297603771"><ele>254.0</ele><time>2026-03-22T10:04:20Z</time></trkpt><trkpt lat="44.404282358970846" lon="9.166702313456064"><ele>254.0</ele><time>2026-03-22T10:04:21Z</time></trkpt><trkpt lat="44.404269583328336" lon="9.166567841999068"><ele>253.99999999999997</ele><time>2026-03-22T10:04:22Z</time></trkpt><trkpt lat="44.40425758545332" lon="9.166429736895719"><ele>253.99999999999997</ele><time>2026-03-22T10:04:23Z</time></trkpt><trkpt lat="44.40424308192117" lon="9.166280841831764"><ele>254.0</ele><time>2026-03-22T10:04:24Z</time></trkpt><trkpt lat="44.404226137528156" lon="9.166150971991225"><ele>254.0</ele><time>2026-03-22T10:04:25Z</time></trkpt><trkpt lat="44.404202739222235" lon="9.166024087102834"><ele>251.33333333333334</ele><time>2026-03-22T10:04:26Z</time></trkpt><trkpt lat="44.404191858580475" lon="9.165887199088383"><ele>248.66666666666669</ele><time>2026-03-22T10:04:27Z</time></trkpt><trkpt lat="44.40417179718771" lon="9.16577488115446"><ele>246.0</ele><time>2026-03-22T10:04:28Z</time></trkpt><trkpt lat="44.40415053674532" lon="9.165662672504627"><ele>243.33333333333331</ele><time>2026-03-22T10:04:29Z</time></trkpt><trkpt lat="44.40411586611541" lon="9.165566105198439"><ele>240.66666666666666</ele><time>2026-03-22T10:04:30Z</time></trkpt><trkpt lat="44.40407394475667" lon="9.165498528940823"><ele>238.0</ele><time>2026-03-22T10:04:31Z</time></trkpt><trkpt lat="44.40402374725107" lon="9.165421282784594"><ele>237.83333333333331</ele><time>2026-03-22T10:04:32Z</time></trkpt><trkpt lat="44.403969972732654" lon="9.165350859231342"><ele>237.66666666666666</ele><time>2026-03-22T10:04:33Z</time></trkpt><trkpt lat="44.40391360771673" lon="9.16528859990231"><ele>237.5</ele><time>2026-03-22T10:04:34Z</time></trkpt><trkpt lat="44.403847296520645" lon="9.165218639547652"><ele>237.33333333333331</ele><time>2026-03-22T10:04:35Z</time></trkpt><trkpt lat="44.40377541932226" lon="9.16515701262066"><ele>237.16666666666666</ele><time>2026-03-22T10:04:36Z</time></trkpt><trkpt lat="44.4037023184598" lon="9.165097019291256"><ele>237.0</ele><time>2026-03-22T10:04:37Z</time></trkpt><trkpt lat="44.403633579311574" lon="9.165044168818161"><ele>237.0</ele><time>2026-03-22T10:04:38Z</time></trkpt><trkpt lat="44.40357287756943" lon="9.165003379226636"><ele>237.0</ele><time>2026-03-22T10:04:39Z</time></trkpt><trkpt lat="44.40350961902239" lon="9.164977819145701"><ele>237.0</ele><time>2026-03-22T10:04:40Z</time></trkpt><trkpt lat="44.403453015183764" lon="9.16493210072965"><ele>237.0</ele><time>2026-03-22T10:04:41Z</time></trkpt><trkpt lat="44.403374128017205" lon="9.164909575606533"><ele>237.0</ele><time>2026-03-22T10:04:42Z</time></trkpt><trkpt lat="44.403285057236275" lon="9.16491843605942"><ele>237.0</ele><time>2026-03-22T10:04:43Z</time></trkpt><trkpt lat="44.40319784327293" lon="9.164968184888407"><ele>237.0</ele><time>2026-03-22T10:04:44Z</time></trkpt><trkpt lat="44.40310177563387" lon="9.164973063122737"><ele>237.0</ele><time>2026-03-22T10:04:45Z</time></trkpt><trkpt lat="44.4030030826955" lon="9.164971578451853"><ele>237.0</ele><time>2026-03-22T10:04:46Z</time></trkpt><trkpt lat="44.4029143943793" lon="9.164985636887444"><ele>237.0</ele><time>2026-03-22T10:04:47Z</time></trkpt><trkpt lat="44.402818969356034" lon="9.164979077833362"><ele>237.0</ele><time>2026-03-22T10:04:48Z</time></trkpt><trkpt lat="44.40272797584021" lon="9.165033901217303"><ele>234.6</ele><time>2026-03-22T10:04:49Z</time></trkpt><trkpt lat="44.40264198933762" lon="9.165073420127072"><ele>232.2</ele><time>2026-03-22T10:04:50Z</time></trkpt><trkpt lat="44.40255230901444" lon="9.165101582828273"><ele>229.8</ele><time>2026-03-22T10:04:51Z</time></trkpt><trkpt lat="44.40246272009051" lon="9.165147990065146"><ele>227.4</ele><time>2026-03-22T10:04:52Z</time></trkpt><trkpt lat="44.402377620636074" lon="9.165196054126605"><ele>225.0</ele><time>2026-03-22T10:04:53Z</time></trkpt><trkpt lat="44.402314969040795" lon="9.1652668772028"><ele>225.0</ele><time>2026-03-22T10:04:54Z</time></trkpt><trkpt lat="44.40224874715938" lon="9.165316353844664"><ele>225.0</ele><time>2026-03-22T10:04:55Z</time></trkpt><trkpt lat="44.40218525805011" lon="9.16536176536372"><ele>225.0</ele><time>2026-03-22T10:04:56Z</time></trkpt><trkpt lat="44.40210895026428" lon="9.165425472954263"><ele>225.0</ele><time>2026-03-22T10:04:57Z</time></trkpt><trkpt lat="44.40204031572864" lon="9.165480631408998"><ele>225.0</ele><time>2026-03-22T10:04:58Z</time></trkpt><trkpt lat="44.401963260874794" lon="9.165529349173694"><ele>225.0</ele><time>2026-03-22T10:05:00Z</time></trkpt><trkpt lat="44.40187923520095" lon="9.165544732201374"><ele>225.66666666666666</ele><time>2026-03-22T10:05:01Z</time></trkpt><trkpt lat="44.401782466907854" lon="9.16551872550759"><ele>226.33333333333331</ele><time>2026-03-22T10:05:02Z</time></trkpt><trkpt lat="44.40171847414821" lon="9.165520716158401"><ele>227.0</ele><time>2026-03-22T10:05:03Z</time></trkpt><trkpt lat="44.40160867738426" lon="9.165544164230102"><ele>227.66666666666666</ele><time>2026-03-22T10:05:05Z</time></trkpt><trkpt lat="44.40155636329801" lon="9.165613574382652"><ele>228.33333333333331</ele><time>2026-03-22T10:05:06Z</time></trkpt><trkpt lat="44.40151494697624" lon="9.165700037276093"><ele>229.0</ele><time>2026-03-22T10:05:07Z</time></trkpt><trkpt lat="44.40148559802468" lon="9.16581799889296"><ele>228.99999999999997</ele><time>2026-03-22T10:05:08Z</time></trkpt><trkpt lat="44.40144645120691" lon="9.165922724784908"><ele>229.0</ele><time>2026-03-22T10:05:09Z</time></trkpt><trkpt lat="44.40140414259851" lon="9.166025779505247"><ele>229.0</ele><time>2026-03-22T10:05:10Z</time></trkpt><trkpt lat="44.40135546064117" lon="9.166098228999868"><ele>229.0</ele><time>2026-03-22T10:05:11Z</time></trkpt><trkpt lat="44.401294322725875" lon="9.166142433460971"><ele>228.99999999999997</ele><time>2026-03-22T10:05:12Z</time></trkpt><trkpt lat="44.401231081639615" lon="9.16617553450944"><ele>229.0</ele><time>2026-03-22T10:05:13Z</time></trkpt><trkpt lat="44.40115119869055" lon="9.16617988576715"><ele>226.28571428571428</ele><time>2026-03-22T10:05:14Z</time></trkpt><trkpt lat="44.40107092662128" lon="9.166210189906668"><ele>223.57142857142858</ele><time>2026-03-22T10:05:15Z</time></trkpt><trkpt lat="44.401003818603876" lon="9.166243481355126"><ele>220.85714285714286</ele><time>2026-03-22T10:05:16Z</time></trkpt><trkpt lat="44.400944898045445" lon="9.166295962394448"><ele>218.14285714285714</ele><time>2026-03-22T10:05:17Z</time></trkpt><trkpt lat="44.400885143632564" lon="9.166347388137256"><ele>215.42857142857144</ele><time>2026-03-22T10:05:18Z</time></trkpt><trkpt lat="44.400830376910406" lon="9.166425999260067"><ele>212.71428571428572</ele><time>2026-03-22T10:05:19Z</time></trkpt><trkpt lat="44.400764287389215" lon="9.166459641972692"><ele>210.0</ele><time>2026-03-22T10:05:20Z</time></trkpt><trkpt lat="44.4006846337344" lon="9.166477503855615"><ele>210.0</ele><time>2026-03-22T10:05:21Z</time></trkpt><trkpt lat="44.4006075048877" lon="9.166480954378335"><ele>210.0</ele><time>2026-03-22T10:05:22Z</time></trkpt><trkpt lat="44.40052442338316" lon="9.166472144518004"><ele>210.0</ele><time>2026-03-22T10:05:23Z</time></trkpt><trkpt lat="44.40044027148379" lon="9.166464094760649"><ele>210.0</ele><time>2026-03-22T10:05:24Z</time></trkpt><trkpt lat="44.40035783809231" lon="9.16646023415434"><ele>210.0</ele><time>2026-03-22T10:05:25Z</time></trkpt><trkpt lat="44.40028317502451" lon="9.16646181699019"><ele>210.0</ele><time>2026-03-22T10:05:26Z</time></trkpt><trkpt lat="44.400211532172555" lon="9.166481927802245"><ele>210.57142857142858</ele><time>2026-03-22T10:05:27Z</time></trkpt><trkpt lat="44.40013936145168" lon="9.16649521195286"><ele>211.14285714285714</ele><time>2026-03-22T10:05:28Z</time></trkpt><trkpt lat="44.40007554005732" lon="9.166524180175003"><ele>211.71428571428572</ele><time>2026-03-22T10:05:29Z</time></trkpt><trkpt lat="44.4000243593403" lon="9.166576843137582"><ele>212.28571428571428</ele><time>2026-03-22T10:05:30Z</time></trkpt><trkpt lat="44.399966116275955" lon="9.166644378698319"><ele>212.85714285714286</ele><time>2026-03-22T10:05:31Z</time></trkpt><trkpt lat="44.39994548055394" lon="9.166759190059777"><ele>213.42857142857144</ele><time>2026-03-22T10:05:32Z</time></trkpt><trkpt lat="44.39990750552949" lon="9.166865858634548"><ele>214.0</ele><time>2026-03-22T10:05:33Z</time></trkpt><trkpt lat="44.399869845227066" lon="9.166953757509512"><ele>213.99999999999997</ele><time>2026-03-22T10:05:34Z</time></trkpt><trkpt lat="44.399832301465594" lon="9.1670492795239"><ele>214.0</ele><time>2026-03-22T10:05:35Z</time></trkpt><trkpt lat="44.399800808675394" lon="9.167148221338394"><ele>214.0</ele><time>2026-03-22T10:05:36Z</time></trkpt><trkpt lat="44.39977399622389" lon="9.167258144206873"><ele>214.0</ele><time>2026-03-22T10:05:37Z</time></trkpt><trkpt lat="44.399746171295334" lon="9.167366808807005"><ele>213.99999999999997</ele><time>2026-03-22T10:05:38Z</time></trkpt><trkpt lat="44.399725592810896" lon="9.167463563729006"><ele>214.0</ele><time>2026-03-22T10:05:39Z</time></trkpt><trkpt lat="44.39970982319536" lon="9.167563288348498"><ele>211.66666666666666</ele><time>2026-03-22T10:05:40Z</time></trkpt><trkpt lat="44.39968751490782" lon="9.167669654869517"><ele>209.33333333333331</ele><time>2026-03-22T10:05:41Z</time></trkpt><trkpt lat="44.39968323455564" lon="9.167786551500138"><ele>207.0</ele><time>2026-03-22T10:05:42Z</time></trkpt><trkpt lat="44.39967964397193" lon="9.167914048604949"><ele>204.66666666666669</ele><time>2026-03-22T10:05:43Z</time></trkpt><trkpt lat="44.39966060953783" lon="9.168037448167329"><ele>202.33333333333334</ele><time>2026-03-22T10:05:44Z</time></trkpt><trkpt lat="44.39965719886878" lon="9.168160453891888"><ele>200.0</ele><time>2026-03-22T10:05:45Z</time></trkpt><trkpt lat="44.39965469519201" lon="9.168277209689474"><ele>200.00000000000003</ele><time>2026-03-22T10:05:46Z</time></trkpt><trkpt lat="44.39965290661809" lon="9.168396526478714"><ele>200.0</ele><time>2026-03-22T10:05:47Z</time></trkpt><trkpt lat="44.39965023051052" lon="9.168493443871098"><ele>200.0</ele><time>2026-03-22T10:05:48Z</time></trkpt><trkpt lat="44.39964028759174" lon="9.168591533074206"><ele>200.0</ele><time>2026-03-22T10:05:49Z</time></trkpt><trkpt lat="44.39962175537831" lon="9.168682949469876"><ele>200.00000000000003</ele><time>2026-03-22T10:05:50Z</time></trkpt><trkpt lat="44.39954570336703" lon="9.168845960825063"><ele>200.0</ele><time>2026-03-22T10:05:52Z</time></trkpt><trkpt lat="44.399481059526416" lon="9.168930028729115"><ele>200.00000000000003</ele><time>2026-03-22T10:05:53Z</time></trkpt><trkpt lat="44.39940979750622" lon="9.169013241665818"><ele>200.0</ele><time>2026-03-22T10:05:54Z</time></trkpt><trkpt lat="44.39934037420133" lon="9.169093988539851"><ele>200.0</ele><time>2026-03-22T10:05:55Z</time></trkpt><trkpt lat="44.39926175033128" lon="9.16913685474782"><ele>200.0</ele><time>2026-03-22T10:05:56Z</time></trkpt><trkpt lat="44.39919639169254" lon="9.169172941675916"><ele>200.00000000000003</ele><time>2026-03-22T10:05:57Z</time></trkpt><trkpt lat="44.39912803188346" lon="9.169217470792491"><ele>200.0</ele><time>2026-03-22T10:05:58Z</time></trkpt><trkpt lat="44.39905935640498" lon="9.169253619677438"><ele>203.0</ele><time>2026-03-22T10:05:59Z</time></trkpt><trkpt lat="44.39900217429559" lon="9.169291340900465"><ele>206.0</ele><time>2026-03-22T10:06:00Z</time></trkpt><trkpt lat="44.39890327189434" lon="9.169352792780682"><ele>209.0</ele><time>2026-03-22T10:06:02Z</time></trkpt><trkpt lat="44.39886110717833" lon="9.169452937936274"><ele>212.0</ele><time>2026-03-22T10:06:04Z</time></trkpt><trkpt lat="44.398854057895406" lon="9.169639169905798"><ele>215.0</ele><time>2026-03-22T10:06:06Z</time></trkpt><trkpt lat="44.39885271042477" lon="9.169749520343759"><ele>216.16666666666669</ele><time>2026-03-22T10:06:07Z</time></trkpt><trkpt lat="44.39885255190069" lon="9.169874186461174"><ele>217.33333333333334</ele><time>2026-03-22T10:06:08Z</time></trkpt><trkpt lat="44.39885411520716" lon="9.17000093962711"><ele>218.5</ele><time>2026-03-22T10:06:09Z</time></trkpt><trkpt lat="44.398856489714085" lon="9.170134224561506"><ele>219.66666666666669</ele><time>2026-03-22T10:06:10Z</time></trkpt><trkpt lat="44.398860537378084" lon="9.170242967249052"><ele>220.83333333333334</ele><time>2026-03-22T10:06:11Z</time></trkpt><trkpt lat="44.398876360968" lon="9.170346094984732"><ele>222.0</ele><time>2026-03-22T10:06:12Z</time></trkpt><trkpt lat="44.398901083686106" lon="9.170433382723335"><ele>222.0</ele><time>2026-03-22T10:06:13Z</time></trkpt><trkpt lat="44.39892130430621" lon="9.170516965280093"><ele>222.0</ele><time>2026-03-22T10:06:14Z</time></trkpt><trkpt lat="44.39894285770767" lon="9.170606056272488"><ele>222.0</ele><time>2026-03-22T10:06:15Z</time></trkpt><trkpt lat="44.398962005899314" lon="9.170692158726903"><ele>222.0</ele><time>2026-03-22T10:06:16Z</time></trkpt><trkpt lat="44.39896639758433" lon="9.170850148519593"><ele>222.0</ele><time>2026-03-22T10:06:18Z</time></trkpt><trkpt lat="44.398891644227355" lon="9.170939442758906"><ele>222.0</ele><time>2026-03-22T10:06:20Z</time></trkpt><trkpt lat="44.398791301821845" lon="9.171031904839264"><ele>216.16666666666666</ele><time>2026-03-22T10:06:22Z</time></trkpt><trkpt lat="44.39872226947974" lon="9.171085465482726"><ele>210.33333333333334</ele><time>2026-03-22T10:06:23Z</time></trkpt><trkpt lat="44.39865815496464" lon="9.171150898606014"><ele>204.5</ele><time>2026-03-22T10:06:24Z</time></trkpt><trkpt lat="44.39859571427393" lon="9.171204313923216"><ele>198.66666666666669</ele><time>2026-03-22T10:06:25Z</time></trkpt><trkpt lat="44.398545237614165" lon="9.171286522269456"><ele>192.83333333333334</ele><time>2026-03-22T10:06:26Z</time></trkpt><trkpt lat="44.398500036361966" lon="9.17138120687638"><ele>187.0</ele><time>2026-03-22T10:06:27Z</time></trkpt><trkpt lat="44.39846064053483" lon="9.171488901470978"><ele>188.33333333333334</ele><time>2026-03-22T10:06:28Z</time></trkpt><trkpt lat="44.398432465676606" lon="9.171604046759892"><ele>189.66666666666669</ele><time>2026-03-22T10:06:29Z</time></trkpt><trkpt lat="44.398379394849705" lon="9.171711931368172"><ele>191.0</ele><time>2026-03-22T10:06:30Z</time></trkpt><trkpt lat="44.39835139619497" lon="9.171809594929606"><ele>192.33333333333334</ele><time>2026-03-22T10:06:31Z</time></trkpt><trkpt lat="44.39833446684987" lon="9.171910615278197"><ele>193.66666666666666</ele><time>2026-03-22T10:06:32Z</time></trkpt><trkpt lat="44.39830906547043" lon="9.172015990813868"><ele>195.0</ele><time>2026-03-22T10:06:33Z</time></trkpt><trkpt lat="44.398306069400604" lon="9.172140179411208"><ele>195.0</ele><time>2026-03-22T10:06:34Z</time></trkpt><trkpt lat="44.39829959536638" lon="9.172269154002393"><ele>195.0</ele><time>2026-03-22T10:06:35Z</time></trkpt><trkpt lat="44.39829520099327" lon="9.172391836218182"><ele>195.0</ele><time>2026-03-22T10:06:36Z</time></trkpt><trkpt lat="44.39828721986471" lon="9.172492413101741"><ele>195.0</ele><time>2026-03-22T10:06:37Z</time></trkpt><trkpt lat="44.39826761981052" lon="9.17257845843415"><ele>195.0</ele><time>2026-03-22T10:06:38Z</time></trkpt><trkpt lat="44.39825047761035" lon="9.172664852107518"><ele>195.0</ele><time>2026-03-22T10:06:39Z</time></trkpt><trkpt lat="44.39819816720496" lon="9.17276412379944"><ele>195.83333333333334</ele><time>2026-03-22T10:06:40Z</time></trkpt><trkpt lat="44.39815311102679" lon="9.172849222477343"><ele>196.66666666666669</ele><time>2026-03-22T10:06:41Z</time></trkpt><trkpt lat="44.39811789647828" lon="9.172925259655063"><ele>197.5</ele><time>2026-03-22T10:06:42Z</time></trkpt><trkpt lat="44.39808460566243" lon="9.173090896715442"><ele>198.33333333333334</ele><time>2026-03-22T10:06:44Z</time></trkpt><trkpt lat="44.398089299300096" lon="9.17318038538548"><ele>199.16666666666669</ele><time>2026-03-22T10:06:45Z</time></trkpt><trkpt lat="44.398101812000064" lon="9.173276683381477"><ele>200.0</ele><time>2026-03-22T10:06:46Z</time></trkpt><trkpt lat="44.398124640974714" lon="9.17338097025703"><ele>200.16666666666669</ele><time>2026-03-22T10:06:47Z</time></trkpt><trkpt lat="44.3981446991861" lon="9.173487513286917"><ele>200.33333333333334</ele><time>2026-03-22T10:06:48Z</time></trkpt><trkpt lat="44.39815831981463" lon="9.173600187135035"><ele>200.5</ele><time>2026-03-22T10:06:49Z</time></trkpt><trkpt lat="44.39816382265994" lon="9.173718875895645"><ele>200.66666666666669</ele><time>2026-03-22T10:06:50Z</time></trkpt><trkpt lat="44.39815775809111" lon="9.173831287932696"><ele>200.83333333333334</ele><time>2026-03-22T10:06:51Z</time></trkpt><trkpt lat="44.398149915087785" lon="9.173943050700842"><ele>201.0</ele><time>2026-03-22T10:06:52Z</time></trkpt><trkpt lat="44.39814267434607" lon="9.174035093031906"><ele>202.0</ele><time>2026-03-22T10:06:53Z</time></trkpt><trkpt lat="44.398130232502766" lon="9.174135105648963"><ele>203.0</ele><time>2026-03-22T10:06:54Z</time></trkpt><trkpt lat="44.39811630569713" lon="9.174258958432008"><ele>204.0</ele><time>2026-03-22T10:06:55Z</time></trkpt><trkpt lat="44.39808921680918" lon="9.174354713919437"><ele>205.0</ele><time>2026-03-22T10:06:56Z</time></trkpt><trkpt lat="44.3980530367601" lon="9.174443793415751"><ele>206.0</ele><time>2026-03-22T10:06:57Z</time></trkpt><trkpt lat="44.39800875220847" lon="9.174519291074022"><ele>207.0</ele><time>2026-03-22T10:06:58Z</time></trkpt><trkpt lat="44.397960933389385" lon="9.17458284030946"><ele>208.0</ele><time>2026-03-22T10:06:59Z</time></trkpt><trkpt lat="44.39790358050742" lon="9.17462036134944"><ele>204.83333333333331</ele><time>2026-03-22T10:07:00Z</time></trkpt><trkpt lat="44.39782947781724" lon="9.174649159950674"><ele>201.66666666666666</ele><time>2026-03-22T10:07:01Z</time></trkpt><trkpt lat="44.39775431937129" lon="9.174678655657067"><ele>198.5</ele><time>2026-03-22T10:07:02Z</time></trkpt><trkpt lat="44.39768356039104" lon="9.17468596456246"><ele>195.33333333333331</ele><time>2026-03-22T10:07:03Z</time></trkpt><trkpt lat="44.397617465914294" lon="9.174723408733044"><ele>192.16666666666666</ele><time>2026-03-22T10:07:04Z</time></trkpt><trkpt lat="44.39754315473925" lon="9.174795861048647"><ele>189.0</ele><time>2026-03-22T10:07:05Z</time></trkpt><trkpt lat="44.397487629248545" lon="9.174871258021023"><ele>189.0</ele><time>2026-03-22T10:07:06Z</time></trkpt><trkpt lat="44.39743952326398" lon="9.174952466772755"><ele>189.0</ele><time>2026-03-22T10:07:07Z</time></trkpt><trkpt lat="44.39739037921566" lon="9.175033279319377"><ele>189.0</ele><time>2026-03-22T10:07:08Z</time></trkpt><trkpt lat="44.397338690396325" lon="9.175096724727378"><ele>189.0</ele><time>2026-03-22T10:07:09Z</time></trkpt><trkpt lat="44.39724089626573" lon="9.175174145953427"><ele>189.0</ele><time>2026-03-22T10:07:11Z</time></trkpt><trkpt lat="44.39716727022324" lon="9.175186144714099"><ele>189.0</ele><time>2026-03-22T10:07:12Z</time></trkpt><trkpt lat="44.39704157690322" lon="9.175122139157397"><ele>192.5</ele><time>2026-03-22T10:07:14Z</time></trkpt><trkpt lat="44.39697875794863" lon="9.175068979371746"><ele>196.0</ele><time>2026-03-22T10:07:15Z</time></trkpt><trkpt lat="44.39692687094904" lon="9.17500518570087"><ele>199.5</ele><time>2026-03-22T10:07:16Z</time></trkpt><trkpt lat="44.39687836567123" lon="9.17482814528819"><ele>203.0</ele><time>2026-03-22T10:07:18Z</time></trkpt><trkpt lat="44.39685862850343" lon="9.174726508873267"><ele>206.5</ele><time>2026-03-22T10:07:19Z</time></trkpt><trkpt lat="44.3968619631928" lon="9.174606672876028"><ele>210.0</ele><time>2026-03-22T10:07:20Z</time></trkpt><trkpt lat="44.39687394292875" lon="9.174487262877273"><ele>210.0</ele><time>2026-03-22T10:07:21Z</time></trkpt><trkpt lat="44.39687894457034" lon="9.174362768387795"><ele>210.0</ele><time>2026-03-22T10:07:22Z</time></trkpt><trkpt lat="44.39688512940552" lon="9.174230616926842"><ele>210.0</ele><time>2026-03-22T10:07:23Z</time></trkpt><trkpt lat="44.39689492157093" lon="9.174113929345287"><ele>210.0</ele><time>2026-03-22T10:07:24Z</time></trkpt><trkpt lat="44.396903554592825" lon="9.173981272096404"><ele>210.0</ele><time>2026-03-22T10:07:25Z</time></trkpt><trkpt lat="44.39691746390323" lon="9.173867919643863"><ele>210.0</ele><time>2026-03-22T10:07:26Z</time></trkpt><trkpt lat="44.39692327659982" lon="9.173745954839047"><ele>208.5</ele><time>2026-03-22T10:07:27Z</time></trkpt><trkpt lat="44.39694278786135" lon="9.173626411752583"><ele>207.0</ele><time>2026-03-22T10:07:28Z</time></trkpt><trkpt lat="44.396973310345004" lon="9.17350385910535"><ele>205.5</ele><time>2026-03-22T10:07:29Z</time></trkpt><trkpt lat="44.39700203758917" lon="9.173389933371375"><ele>204.0</ele><time>2026-03-22T10:07:30Z</time></trkpt><trkpt lat="44.39702085853016" lon="9.173272699464981"><ele>202.5</ele><time>2026-03-22T10:07:31Z</time></trkpt><trkpt lat="44.3970272398279" lon="9.173157916153208"><ele>201.0</ele><time>2026-03-22T10:07:32Z</time></trkpt><trkpt lat="44.397018743936755" lon="9.173032228702574"><ele>200.4</ele><time>2026-03-22T10:07:33Z</time></trkpt><trkpt lat="44.396999249970804" lon="9.172901295964943"><ele>199.8</ele><time>2026-03-22T10:07:34Z</time></trkpt><trkpt lat="44.39697809471207" lon="9.172763078831709"><ele>199.20000000000002</ele><time>2026-03-22T10:07:35Z</time></trkpt><trkpt lat="44.396948389347266" lon="9.172629239689192"><ele>198.60000000000002</ele><time>2026-03-22T10:07:36Z</time></trkpt><trkpt lat="44.396925585101584" lon="9.172489524493812"><ele>198.0</ele><time>2026-03-22T10:07:37Z</time></trkpt><trkpt lat="44.396900660055344" lon="9.17234449198647"><ele>196.0</ele><time>2026-03-22T10:07:38Z</time></trkpt><trkpt lat="44.39687705923936" lon="9.172195208875097"><ele>194.0</ele><time>2026-03-22T10:07:39Z</time></trkpt><trkpt lat="44.39685728913527" lon="9.172040898745605"><ele>192.0</ele><time>2026-03-22T10:07:40Z</time></trkpt><trkpt lat="44.39683480851561" lon="9.171893305998157"><ele>190.0</ele><time>2026-03-22T10:07:41Z</time></trkpt><trkpt lat="44.396814132064435" lon="9.171751297313817"><ele>188.0</ele><time>2026-03-22T10:07:42Z</time></trkpt><trkpt lat="44.39679820196339" lon="9.171597399047297"><ele>183.8</ele><time>2026-03-22T10:07:43Z</time></trkpt><trkpt lat="44.39676992201918" lon="9.171459960828475"><ele>179.60000000000002</ele><time>2026-03-22T10:07:44Z</time></trkpt><trkpt lat="44.396751322999954" lon="9.171321343640889"><ele>175.39999999999998</ele><time>2026-03-22T10:07:45Z</time></trkpt><trkpt lat="44.396729973330146" lon="9.17117069811662"><ele>171.2</ele><time>2026-03-22T10:07:46Z</time></trkpt><trkpt lat="44.396702199145274" lon="9.171021447571814"><ele>167.0</ele><time>2026-03-22T10:07:47Z</time></trkpt><trkpt lat="44.39666848726449" lon="9.170869218335234"><ele>167.0</ele><time>2026-03-22T10:07:48Z</time></trkpt><trkpt lat="44.39663987701231" lon="9.17072741680675"><ele>167.0</ele><time>2026-03-22T10:07:49Z</time></trkpt><trkpt lat="44.39660888343787" lon="9.170606068143718"><ele>167.0</ele><time>2026-03-22T10:07:50Z</time></trkpt><trkpt lat="44.396575950627906" lon="9.170471575218926"><ele>167.0</ele><time>2026-03-22T10:07:51Z</time></trkpt><trkpt lat="44.39654849970908" lon="9.170305380997998"><ele>167.0</ele><time>2026-03-22T10:07:52Z</time></trkpt><trkpt lat="44.39651335771825" lon="9.170169462059981"><ele>164.16666666666666</ele><time>2026-03-22T10:07:53Z</time></trkpt><trkpt lat="44.396488119412794" lon="9.170044198783792"><ele>161.33333333333331</ele><time>2026-03-22T10:07:54Z</time></trkpt><trkpt lat="44.396466982728256" lon="9.169923086553922"><ele>158.5</ele><time>2026-03-22T10:07:55Z</time></trkpt><trkpt lat="44.39643605029528" lon="9.169822671849031"><ele>155.66666666666666</ele><time>2026-03-22T10:07:56Z</time></trkpt><trkpt lat="44.39640868209682" lon="9.169705002816688"><ele>152.83333333333334</ele><time>2026-03-22T10:07:57Z</time></trkpt><trkpt lat="44.396363375764764" lon="9.16960718890173"><ele>150.0</ele><time>2026-03-22T10:07:58Z</time></trkpt><trkpt lat="44.39632062407034" lon="9.169523598250837"><ele>150.0</ele><time>2026-03-22T10:07:59Z</time></trkpt><trkpt lat="44.39627239622953" lon="9.169432939741423"><ele>150.0</ele><time>2026-03-22T10:08:00Z</time></trkpt><trkpt lat="44.39621194704216" lon="9.169363311330473"><ele>150.0</ele><time>2026-03-22T10:08:01Z</time></trkpt><trkpt lat="44.3961566353679" lon="9.169276958980328"><ele>150.0</ele><time>2026-03-22T10:08:02Z</time></trkpt><trkpt lat="44.39608694183879" lon="9.169219438031712"><ele>150.0</ele><time>2026-03-22T10:08:03Z</time></trkpt><trkpt lat="44.396013761591554" lon="9.169172115263072"><ele>150.0</ele><time>2026-03-22T10:08:04Z</time></trkpt><trkpt lat="44.39593634534415" lon="9.169144730234182"><ele>150.0</ele><time>2026-03-22T10:08:05Z</time></trkpt><trkpt lat="44.39586758481298" lon="9.16910468017472"><ele>150.0</ele><time>2026-03-22T10:08:06Z</time></trkpt><trkpt lat="44.39579599478053" lon="9.16906590304185"><ele>150.0</ele><time>2026-03-22T10:08:07Z</time></trkpt><trkpt lat="44.39572176205137" lon="9.169024988381398"><ele>150.0</ele><time>2026-03-22T10:08:08Z</time></trkpt><trkpt lat="44.3956407172431" lon="9.169021879139954"><ele>150.0</ele><time>2026-03-22T10:08:09Z</time></trkpt><trkpt lat="44.39556215401838" lon="9.16903721419853"><ele>150.0</ele><time>2026-03-22T10:08:10Z</time></trkpt><trkpt lat="44.395482137625244" lon="9.169073117772609"><ele>149.5</ele><time>2026-03-22T10:08:11Z</time></trkpt><trkpt lat="44.39540491993851" lon="9.169121431422417"><ele>149.0</ele><time>2026-03-22T10:08:12Z</time></trkpt><trkpt lat="44.39533838932425" lon="9.169202171456568"><ele>148.5</ele><time>2026-03-22T10:08:13Z</time></trkpt><trkpt lat="44.39527590858203" lon="9.16923403508071"><ele>148.0</ele><time>2026-03-22T10:08:14Z</time></trkpt><trkpt lat="44.395210901443" lon="9.169249761304677"><ele>147.5</ele><time>2026-03-22T10:08:15Z</time></trkpt><trkpt lat="44.39512166525605" lon="9.169240874281623"><ele>147.0</ele><time>2026-03-22T10:08:16Z</time></trkpt><trkpt lat="44.39502805180717" lon="9.169223120517131"><ele>147.0</ele><time>2026-03-22T10:08:17Z</time></trkpt><trkpt lat="44.39493705169254" lon="9.169211404270467"><ele>147.0</ele><time>2026-03-22T10:08:18Z</time></trkpt><trkpt lat="44.39484976549524" lon="9.169198607605724"><ele>147.0</ele><time>2026-03-22T10:08:19Z</time></trkpt><trkpt lat="44.39475432552804" lon="9.169193928131232"><ele>147.0</ele><time>2026-03-22T10:08:20Z</time></trkpt><trkpt lat="44.39465934760547" lon="9.169194784642032"><ele>147.0</ele><time>2026-03-22T10:08:21Z</time></trkpt><trkpt lat="44.39456649287969" lon="9.169183730643029"><ele>146.6</ele><time>2026-03-22T10:08:22Z</time></trkpt><trkpt lat="44.394460815740835" lon="9.169172275188561"><ele>146.2</ele><time>2026-03-22T10:08:23Z</time></trkpt><trkpt lat="44.394365949600804" lon="9.169143898652733"><ele>145.8</ele><time>2026-03-22T10:08:24Z</time></trkpt><trkpt lat="44.394266780536604" lon="9.169115062882502"><ele>145.4</ele><time>2026-03-22T10:08:25Z</time></trkpt><trkpt lat="44.394183324112475" lon="9.169090832621125"><ele>145.0</ele><time>2026-03-22T10:08:26Z</time></trkpt><trkpt lat="44.3940903977789" lon="9.16906279599499"><ele>145.0</ele><time>2026-03-22T10:08:27Z</time></trkpt><trkpt lat="44.39400451216695" lon="9.169038803338589"><ele>145.0</ele><time>2026-03-22T10:08:28Z</time></trkpt><trkpt lat="44.39392100552774" lon="9.169018625951999"><ele>145.0</ele><time>2026-03-22T10:08:29Z</time></trkpt><trkpt lat="44.3938301825025" lon="9.169004027101005"><ele>145.0</ele><time>2026-03-22T10:08:30Z</time></trkpt><trkpt lat="44.39374368488505" lon="9.16899438288261"><ele>145.0</ele><time>2026-03-22T10:08:31Z</time></trkpt><trkpt lat="44.393660904082125" lon="9.168989941706037"><ele>145.0</ele><time>2026-03-22T10:08:32Z</time></trkpt><trkpt lat="44.39357492432024" lon="9.168993323852195"><ele>142.16666666666669</ele><time>2026-03-22T10:08:33Z</time></trkpt><trkpt lat="44.393484867562194" lon="9.169007871346933"><ele>139.33333333333334</ele><time>2026-03-22T10:08:34Z</time></trkpt><trkpt lat="44.39339737032403" lon="9.169020250291544"><ele>136.5</ele><time>2026-03-22T10:08:35Z</time></trkpt><trkpt lat="44.39331561978317" lon="9.16902036152242"><ele>133.66666666666666</ele><time>2026-03-22T10:08:36Z</time></trkpt><trkpt lat="44.39324099883773" lon="9.16900801451319"><ele>130.83333333333331</ele><time>2026-03-22T10:08:37Z</time></trkpt><trkpt lat="44.393170743590844" lon="9.168973745436103"><ele>128.0</ele><time>2026-03-22T10:08:38Z</time></trkpt><trkpt lat="44.39309673274275" lon="9.16888037618276"><ele>128.0</ele><time>2026-03-22T10:08:40Z</time></trkpt><trkpt lat="44.39306777508755" lon="9.168772750496714"><ele>128.0</ele><time>2026-03-22T10:08:42Z</time></trkpt><trkpt lat="44.393118546735536" lon="9.168570698759195"><ele>128.0</ele><time>2026-03-22T10:08:44Z</time></trkpt><trkpt lat="44.39311303778586" lon="9.168411999500428"><ele>128.0</ele><time>2026-03-22T10:08:45Z</time></trkpt><trkpt lat="44.3931241737847" lon="9.168277580195268"><ele>128.0</ele><time>2026-03-22T10:08:46Z</time></trkpt><trkpt lat="44.39313107677131" lon="9.168175448745162"><ele>125.0</ele><time>2026-03-22T10:08:47Z</time></trkpt><trkpt lat="44.39314556688147" lon="9.168081642827167"><ele>122.00000000000001</ele><time>2026-03-22T10:08:48Z</time></trkpt><trkpt lat="44.393162581589586" lon="9.167947564959968"><ele>119.00000000000001</ele><time>2026-03-22T10:08:49Z</time></trkpt><trkpt lat="44.393182322338944" lon="9.167816257147994"><ele>116.0</ele><time>2026-03-22T10:08:50Z</time></trkpt><trkpt lat="44.39317918686922" lon="9.167706612475898"><ele>113.0</ele><time>2026-03-22T10:08:51Z</time></trkpt><trkpt lat="44.393177973628674" lon="9.167544974342496"><ele>113.0</ele><time>2026-03-22T10:08:53Z</time></trkpt><trkpt lat="44.3931622111391" lon="9.167457975142852"><ele>113.00000000000001</ele><time>2026-03-22T10:08:54Z</time></trkpt><trkpt lat="44.393128505812506" lon="9.167380156867322"><ele>113.00000000000001</ele><time>2026-03-22T10:08:55Z</time></trkpt><trkpt lat="44.39303793826738" lon="9.16726766624874"><ele>113.0</ele><time>2026-03-22T10:08:57Z</time></trkpt><trkpt lat="44.39291171187749" lon="9.167221266427466"><ele>113.0</ele><time>2026-03-22T10:08:59Z</time></trkpt><trkpt lat="44.39284232354829" lon="9.167216552622177"><ele>111.0</ele><time>2026-03-22T10:09:00Z</time></trkpt><trkpt lat="44.392752734013015" lon="9.16721012680022"><ele>109.00000000000001</ele><time>2026-03-22T10:09:01Z</time></trkpt><trkpt lat="44.39266768350669" lon="9.167171984584353"><ele>107.0</ele><time>2026-03-22T10:09:02Z</time></trkpt><trkpt lat="44.392574763489534" lon="9.167155511541944"><ele>105.0</ele><time>2026-03-22T10:09:03Z</time></trkpt><trkpt lat="44.392484936494945" lon="9.167141450226106"><ele>103.0</ele><time>2026-03-22T10:09:04Z</time></trkpt><trkpt lat="44.392394391610175" lon="9.167132198411101"><ele>103.0</ele><time>2026-03-22T10:09:05Z</time></trkpt><trkpt lat="44.392310480565776" lon="9.167087149829413"><ele>103.0</ele><time>2026-03-22T10:09:06Z</time></trkpt><trkpt lat="44.392234292954846" lon="9.16705464660988"><ele>103.0</ele><time>2026-03-22T10:09:07Z</time></trkpt><trkpt lat="44.392155790805795" lon="9.166987871228818"><ele>103.0</ele><time>2026-03-22T10:09:08Z</time></trkpt><trkpt lat="44.39207898884832" lon="9.166916121864658"><ele>103.0</ele><time>2026-03-22T10:09:09Z</time></trkpt><trkpt lat="44.39199892051785" lon="9.166838317830246"><ele>103.0</ele><time>2026-03-22T10:09:10Z</time></trkpt><trkpt lat="44.39191776276439" lon="9.16672032849538"><ele>103.0</ele><time>2026-03-22T10:09:11Z</time></trkpt><trkpt lat="44.3918509631141" lon="9.166645433792814"><ele>103.0</ele><time>2026-03-22T10:09:12Z</time></trkpt><trkpt lat="44.39180534259804" lon="9.166551903875725"><ele>103.0</ele><time>2026-03-22T10:09:13Z</time></trkpt><trkpt lat="44.39175638346216" lon="9.166438523731026"><ele>103.0</ele><time>2026-03-22T10:09:14Z</time></trkpt><trkpt lat="44.39171218539933" lon="9.166315620293428"><ele>103.00000000000001</ele><time>2026-03-22T10:09:15Z</time></trkpt><trkpt lat="44.39165710928527" lon="9.166233909269513"><ele>103.0</ele><time>2026-03-22T10:09:16Z</time></trkpt><trkpt lat="44.39160691857952" lon="9.166144436960263"><ele>103.0</ele><time>2026-03-22T10:09:17Z</time></trkpt><trkpt lat="44.391560079061726" lon="9.166051830772819"><ele>103.0</ele><time>2026-03-22T10:09:18Z</time></trkpt><trkpt lat="44.39151044000006" lon="9.165963933068126"><ele>103.00000000000001</ele><time>2026-03-22T10:09:19Z</time></trkpt><trkpt lat="44.3914689117535" lon="9.165867577143251"><ele>103.0</ele><time>2026-03-22T10:09:20Z</time></trkpt><trkpt lat="44.391418396046596" lon="9.165778881103979"><ele>103.0</ele><time>2026-03-22T10:09:21Z</time></trkpt><trkpt lat="44.391365246714024" lon="9.165705994531033"><ele>103.0</ele><time>2026-03-22T10:09:22Z</time></trkpt><trkpt lat="44.39131727496444" lon="9.165645949091997"><ele>103.0</ele><time>2026-03-22T10:09:23Z</time></trkpt><trkpt lat="44.39122457150542" lon="9.165569557691624"><ele>103.0</ele><time>2026-03-22T10:09:25Z</time></trkpt><trkpt lat="44.3911305008826" lon="9.165509749514259"><ele>103.0</ele><time>2026-03-22T10:09:27Z</time></trkpt><trkpt lat="44.39101799235683" lon="9.165602291254896"><ele>102.33333333333334</ele><time>2026-03-22T10:09:28Z</time></trkpt><trkpt lat="44.390932004809294" lon="9.165626949697"><ele>101.66666666666667</ele><time>2026-03-22T10:09:29Z</time></trkpt><trkpt lat="44.3908401647398" lon="9.16565273063415"><ele>101.0</ele><time>2026-03-22T10:09:30Z</time></trkpt><trkpt lat="44.39074243354064" lon="9.16566370363732"><ele>100.33333333333334</ele><time>2026-03-22T10:09:31Z</time></trkpt><trkpt lat="44.390655620193584" lon="9.165668377206615"><ele>99.66666666666667</ele><time>2026-03-22T10:09:32Z</time></trkpt><trkpt lat="44.39057657136939" lon="9.165654661915507"><ele>99.0</ele><time>2026-03-22T10:09:33Z</time></trkpt><trkpt lat="44.39050441224358" lon="9.165605321125788"><ele>99.0</ele><time>2026-03-22T10:09:34Z</time></trkpt><trkpt lat="44.39041817688923" lon="9.165555317512363"><ele>99.0</ele><time>2026-03-22T10:09:35Z</time></trkpt><trkpt lat="44.39034021816206" lon="9.165518699198216"><ele>99.0</ele><time>2026-03-22T10:09:36Z</time></trkpt><trkpt lat="44.39025994389955" lon="9.165476240510959"><ele>99.0</ele><time>2026-03-22T10:09:37Z</time></trkpt><trkpt lat="44.39018946296067" lon="9.165417253006948"><ele>99.0</ele><time>2026-03-22T10:09:38Z</time></trkpt><trkpt lat="44.390109340230964" lon="9.16535587737753"><ele>99.0</ele><time>2026-03-22T10:09:39Z</time></trkpt><trkpt lat="44.39001712826552" lon="9.165272332890424"><ele>99.0</ele><time>2026-03-22T10:09:40Z</time></trkpt><trkpt lat="44.38992507363402" lon="9.165172171838742"><ele>99.0</ele><time>2026-03-22T10:09:41Z</time></trkpt><trkpt lat="44.389846548373754" lon="9.16510240245705"><ele>99.0</ele><time>2026-03-22T10:09:42Z</time></trkpt><trkpt lat="44.3897864733204" lon="9.165043984647124"><ele>99.0</ele><time>2026-03-22T10:09:43Z</time></trkpt><trkpt lat="44.38972803036987" lon="9.164958998920126"><ele>99.0</ele><time>2026-03-22T10:09:44Z</time></trkpt><trkpt lat="44.3896820530253" lon="9.164840523731158"><ele>97.0</ele><time>2026-03-22T10:09:45Z</time></trkpt><trkpt lat="44.389620804752795" lon="9.164738293506543"><ele>95.0</ele><time>2026-03-22T10:09:46Z</time></trkpt><trkpt lat="44.38956892372097" lon="9.164633173266084"><ele>93.0</ele><time>2026-03-22T10:09:47Z</time></trkpt><trkpt lat="44.389504727023784" lon="9.164550646648578"><ele>91.0</ele><time>2026-03-22T10:09:48Z</time></trkpt><trkpt lat="44.38942569828285" lon="9.164476371176454"><ele>89.0</ele><time>2026-03-22T10:09:49Z</time></trkpt><trkpt lat="44.38933722370212" lon="9.164414299997205"><ele>89.0</ele><time>2026-03-22T10:09:50Z</time></trkpt><trkpt lat="44.389252474450586" lon="9.164350660297554"><ele>89.0</ele><time>2026-03-22T10:09:51Z</time></trkpt><trkpt lat="44.389169285922435" lon="9.16430289358162"><ele>89.0</ele><time>2026-03-22T10:09:52Z</time></trkpt><trkpt lat="44.38908577461" lon="9.164270184719317"><ele>89.0</ele><time>2026-03-22T10:09:53Z</time></trkpt><trkpt lat="44.38899394958195" lon="9.164246580271092"><ele>89.0</ele><time>2026-03-22T10:09:54Z</time></trkpt><trkpt lat="44.388899364884985" lon="9.164221226682054"><ele>90.0</ele><time>2026-03-22T10:09:55Z</time></trkpt><trkpt lat="44.3888131669985" lon="9.16420252079928"><ele>91.0</ele><time>2026-03-22T10:09:56Z</time></trkpt><trkpt lat="44.38872870138956" lon="9.164154743021728"><ele>92.0</ele><time>2026-03-22T10:09:57Z</time></trkpt><trkpt lat="44.388644616311126" lon="9.164136815835244"><ele>93.0</ele><time>2026-03-22T10:09:58Z</time></trkpt><trkpt lat="44.38856386446079" lon="9.164130065143897"><ele>94.0</ele><time>2026-03-22T10:09:59Z</time></trkpt><trkpt lat="44.388479939540176" lon="9.16411704850397"><ele>95.0</ele><time>2026-03-22T10:10:00Z</time></trkpt><trkpt lat="44.38840758818141" lon="9.164098168167516"><ele>95.0</ele><time>2026-03-22T10:10:01Z</time></trkpt><trkpt lat="44.3883248368481" lon="9.164084633418126"><ele>95.0</ele><time>2026-03-22T10:10:02Z</time></trkpt><trkpt lat="44.38823949242629" lon="9.164068910511931"><ele>95.0</ele><time>2026-03-22T10:10:03Z</time></trkpt><trkpt lat="44.38815601532941" lon="9.16405727701542"><ele>95.0</ele><time>2026-03-22T10:10:04Z</time></trkpt><trkpt lat="44.3880775099809" lon="9.164046904223559"><ele>95.0</ele><time>2026-03-22T10:10:05Z</time></trkpt><trkpt lat="44.38799622511548" lon="9.16403731948227"><ele>95.0</ele><time>2026-03-22T10:10:06Z</time></trkpt><trkpt lat="44.38791432077259" lon="9.164029493068075"><ele>94.16666666666667</ele><time>2026-03-22T10:10:07Z</time></trkpt><trkpt lat="44.387844916446504" lon="9.164035686334053"><ele>93.33333333333334</ele><time>2026-03-22T10:10:08Z</time></trkpt><trkpt lat="44.387783335810184" lon="9.164060626226568"><ele>92.5</ele><time>2026-03-22T10:10:09Z</time></trkpt><trkpt lat="44.38771284853531" lon="9.164081128234947"><ele>91.66666666666667</ele><time>2026-03-22T10:10:10Z</time></trkpt><trkpt lat="44.387635379756325" lon="9.1641444565849"><ele>90.83333333333333</ele><time>2026-03-22T10:10:11Z</time></trkpt><trkpt lat="44.38757686851008" lon="9.16423607674889"><ele>90.0</ele><time>2026-03-22T10:10:12Z</time></trkpt><trkpt lat="44.387510582129345" lon="9.164305402170116"><ele>90.0</ele><time>2026-03-22T10:10:13Z</time></trkpt><trkpt lat="44.38744290233431" lon="9.1643446976817"><ele>90.0</ele><time>2026-03-22T10:10:14Z</time></trkpt><trkpt lat="44.38737271038134" lon="9.164419069122726"><ele>90.0</ele><time>2026-03-22T10:10:15Z</time></trkpt><trkpt lat="44.387303496691345" lon="9.164463549801532"><ele>90.0</ele><time>2026-03-22T10:10:16Z</time></trkpt><trkpt lat="44.38724054874992" lon="9.164488904515727"><ele>90.0</ele><time>2026-03-22T10:10:17Z</time></trkpt><trkpt lat="44.38717911233403" lon="9.164468293392966"><ele>90.0</ele><time>2026-03-22T10:10:18Z</time></trkpt><trkpt lat="44.38705842845435" lon="9.164403172345436"><ele>89.2</ele><time>2026-03-22T10:10:20Z</time></trkpt><trkpt lat="44.38696725374131" lon="9.164376474594905"><ele>88.4</ele><time>2026-03-22T10:10:21Z</time></trkpt><trkpt lat="44.38687010491658" lon="9.16433752501629"><ele>87.6</ele><time>2026-03-22T10:10:22Z</time></trkpt><trkpt lat="44.38677589852518" lon="9.164311466605785"><ele>86.8</ele><time>2026-03-22T10:10:23Z</time></trkpt><trkpt lat="44.38668409261851" lon="9.164301064963894"><ele>86.0</ele><time>2026-03-22T10:10:24Z</time></trkpt><trkpt lat="44.38660695592852" lon="9.164274699304618"><ele>86.0</ele><time>2026-03-22T10:10:25Z</time></trkpt><trkpt lat="44.386535569463184" lon="9.164229441054944"><ele>86.0</ele><time>2026-03-22T10:10:26Z</time></trkpt><trkpt lat="44.38647027711248" lon="9.164176255513528"><ele>86.0</ele><time>2026-03-22T10:10:27Z</time></trkpt><trkpt lat="44.38640505555358" lon="9.164098856943195"><ele>86.0</ele><time>2026-03-22T10:10:28Z</time></trkpt><trkpt lat="44.38633960308743" lon="9.164045953788122"><ele>86.0</ele><time>2026-03-22T10:10:29Z</time></trkpt><trkpt lat="44.38627358851287" lon="9.163999919767825"><ele>86.0</ele><time>2026-03-22T10:10:30Z</time></trkpt><trkpt lat="44.38620808145283" lon="9.163962518539341"><ele>83.6</ele><time>2026-03-22T10:10:31Z</time></trkpt><trkpt lat="44.386094887617524" lon="9.163956788765981"><ele>81.19999999999999</ele><time>2026-03-22T10:10:33Z</time></trkpt><trkpt lat="44.38602948661214" lon="9.163951420450797"><ele>78.80000000000001</ele><time>2026-03-22T10:10:34Z</time></trkpt><trkpt lat="44.3859129271246" lon="9.164057306214524"><ele>76.4</ele><time>2026-03-22T10:10:36Z</time></trkpt><trkpt lat="44.38585571999473" lon="9.164137771711365"><ele>74.0</ele><time>2026-03-22T10:10:37Z</time></trkpt><trkpt lat="44.38579844223077" lon="9.164217526399776"><ele>74.0</ele><time>2026-03-22T10:10:38Z</time></trkpt><trkpt lat="44.38573075136723" lon="9.164311780497796"><ele>74.0</ele><time>2026-03-22T10:10:39Z</time></trkpt><trkpt lat="44.385669475997" lon="9.16439991947669"><ele>74.0</ele><time>2026-03-22T10:10:40Z</time></trkpt><trkpt lat="44.38560846915059" lon="9.16449001568051"><ele>74.0</ele><time>2026-03-22T10:10:41Z</time></trkpt><trkpt lat="44.385553793200124" lon="9.164566103596181"><ele>74.0</ele><time>2026-03-22T10:10:42Z</time></trkpt><trkpt lat="44.38549824403967" lon="9.164633681506514"><ele>74.0</ele><time>2026-03-22T10:10:43Z</time></trkpt><trkpt lat="44.38544413740679" lon="9.164698983598504"><ele>71.16666666666667</ele><time>2026-03-22T10:10:44Z</time></trkpt><trkpt lat="44.385373402893876" lon="9.164708022549489"><ele>68.33333333333334</ele><time>2026-03-22T10:10:45Z</time></trkpt><trkpt lat="44.38529898568216" lon="9.164684684833585"><ele>65.5</ele><time>2026-03-22T10:10:46Z</time></trkpt><trkpt lat="44.38521465878182" lon="9.164661866412409"><ele>62.66666666666667</ele><time>2026-03-22T10:10:47Z</time></trkpt><trkpt lat="44.38511485655024" lon="9.16464900929563"><ele>59.833333333333336</ele><time>2026-03-22T10:10:48Z</time></trkpt><trkpt lat="44.385024600395425" lon="9.164646749012817"><ele>57.0</ele><time>2026-03-22T10:10:49Z</time></trkpt><trkpt lat="44.384929732017326" lon="9.164624622777287"><ele>57.0</ele><time>2026-03-22T10:10:50Z</time></trkpt><trkpt lat="44.38483730490982" lon="9.164597683938924"><ele>57.0</ele><time>2026-03-22T10:10:51Z</time></trkpt><trkpt lat="44.38474768096843" lon="9.164568093749498"><ele>57.0</ele><time>2026-03-22T10:10:52Z</time></trkpt><trkpt lat="44.38465553592114" lon="9.164539474405776"><ele>57.0</ele><time>2026-03-22T10:10:53Z</time></trkpt><trkpt lat="44.38457741839731" lon="9.1644881206253"><ele>57.0</ele><time>2026-03-22T10:10:54Z</time></trkpt><trkpt lat="44.384512427751915" lon="9.16445605332231"><ele>57.0</ele><time>2026-03-22T10:10:55Z</time></trkpt><trkpt lat="44.38444798334676" lon="9.164417281397347"><ele>57.833333333333336</ele><time>2026-03-22T10:10:56Z</time></trkpt><trkpt lat="44.38438320843489" lon="9.16438567489827"><ele>58.66666666666667</ele><time>2026-03-22T10:10:57Z</time></trkpt><trkpt lat="44.384311752531154" lon="9.164358367543617"><ele>59.5</ele><time>2026-03-22T10:10:58Z</time></trkpt><trkpt lat="44.384243810714004" lon="9.16433957770043"><ele>60.333333333333336</ele><time>2026-03-22T10:10:59Z</time></trkpt><trkpt lat="44.38412108371685" lon="9.164337916642467"><ele>61.16666666666667</ele><time>2026-03-22T10:11:01Z</time></trkpt><trkpt lat="44.384060546905715" lon="9.16437325297026"><ele>62.0</ele><time>2026-03-22T10:11:02Z</time></trkpt><trkpt lat="44.3839662694534" lon="9.164503889635757"><ele>62.00000000000001</ele><time>2026-03-22T10:11:04Z</time></trkpt><trkpt lat="44.383911836588474" lon="9.164593474485798"><ele>62.0</ele><time>2026-03-22T10:11:05Z</time></trkpt><trkpt lat="44.38385302751315" lon="9.164694056397341"><ele>62.0</ele><time>2026-03-22T10:11:06Z</time></trkpt><trkpt lat="44.38380043537839" lon="9.164787029273695"><ele>62.0</ele><time>2026-03-22T10:11:07Z</time></trkpt><trkpt lat="44.383749572531435" lon="9.164886488794446"><ele>62.00000000000001</ele><time>2026-03-22T10:11:08Z</time></trkpt><trkpt lat="44.38370225857783" lon="9.165009672970971"><ele>62.0</ele><time>2026-03-22T10:11:09Z</time></trkpt><trkpt lat="44.38366390937065" lon="9.16514736806817"><ele>62.6</ele><time>2026-03-22T10:11:10Z</time></trkpt><trkpt lat="44.38363511887892" lon="9.165263932372234"><ele>63.2</ele><time>2026-03-22T10:11:11Z</time></trkpt><trkpt lat="44.38359813669233" lon="9.165396113217982"><ele>63.8</ele><time>2026-03-22T10:11:12Z</time></trkpt><trkpt lat="44.383558593950895" lon="9.165510446505529"><ele>64.4</ele><time>2026-03-22T10:11:13Z</time></trkpt><trkpt lat="44.38351059632602" lon="9.165643035451973"><ele>65.0</ele><time>2026-03-22T10:11:14Z</time></trkpt><trkpt lat="44.38347231161041" lon="9.165779169437398"><ele>66.2</ele><time>2026-03-22T10:11:15Z</time></trkpt><trkpt lat="44.383441616636475" lon="9.16591009717903"><ele>67.4</ele><time>2026-03-22T10:11:16Z</time></trkpt><trkpt lat="44.383414030901115" lon="9.166035782763982"><ele>68.6</ele><time>2026-03-22T10:11:17Z</time></trkpt><trkpt lat="44.38338604596159" lon="9.166167268545253"><ele>69.8</ele><time>2026-03-22T10:11:18Z</time></trkpt><trkpt lat="44.38336145921908" lon="9.166286669548471"><ele>71.0</ele><time>2026-03-22T10:11:19Z</time></trkpt><trkpt lat="44.38333885166283" lon="9.166402721679983"><ele>71.0</ele><time>2026-03-22T10:11:20Z</time></trkpt><trkpt lat="44.38331667264755" lon="9.16651169495692"><ele>71.0</ele><time>2026-03-22T10:11:21Z</time></trkpt><trkpt lat="44.38330467644496" lon="9.166605551370145"><ele>71.0</ele><time>2026-03-22T10:11:22Z</time></trkpt><trkpt lat="44.383199005314" lon="9.166677678970157"><ele>71.0</ele><time>2026-03-22T10:11:24Z</time></trkpt><trkpt lat="44.38308235928474" lon="9.16667631125164"><ele>71.0</ele><time>2026-03-22T10:11:26Z</time></trkpt><trkpt lat="44.38298872295594" lon="9.166589634918129"><ele>76.6</ele><time>2026-03-22T10:11:28Z</time></trkpt><trkpt lat="44.38296034722013" lon="9.166437467780783"><ele>82.19999999999999</ele><time>2026-03-22T10:11:30Z</time></trkpt><trkpt lat="44.38298047500003" lon="9.166311823134581"><ele>87.80000000000001</ele><time>2026-03-22T10:11:32Z</time></trkpt><trkpt lat="44.3829614969771" lon="9.16610307862692"><ele>93.4</ele><time>2026-03-22T10:11:34Z</time></trkpt><trkpt lat="44.38294490320966" lon="9.165974119784504"><ele>99.0</ele><time>2026-03-22T10:11:35Z</time></trkpt><trkpt lat="44.38294743389673" lon="9.165848443472417"><ele>99.0</ele><time>2026-03-22T10:11:36Z</time></trkpt><trkpt lat="44.3829784446464" lon="9.165731933019744"><ele>99.0</ele><time>2026-03-22T10:11:37Z</time></trkpt><trkpt lat="44.38299239899818" lon="9.165625892710297"><ele>99.0</ele><time>2026-03-22T10:11:38Z</time></trkpt><trkpt lat="44.383012518093885" lon="9.165508962682086"><ele>99.0</ele><time>2026-03-22T10:11:39Z</time></trkpt><trkpt lat="44.3830348940511" lon="9.165355291433128"><ele>99.0</ele><time>2026-03-22T10:11:40Z</time></trkpt><trkpt lat="44.38305028858137" lon="9.165231322481912"><ele>92.8</ele><time>2026-03-22T10:11:41Z</time></trkpt><trkpt lat="44.38307215732063" lon="9.165115208027489"><ele>86.60000000000001</ele><time>2026-03-22T10:11:42Z</time></trkpt><trkpt lat="44.383088051082396" lon="9.165002887547889"><ele>80.4</ele><time>2026-03-22T10:11:43Z</time></trkpt><trkpt lat="44.383112493217666" lon="9.164905371910434"><ele>74.2</ele><time>2026-03-22T10:11:44Z</time></trkpt><trkpt lat="44.38316030272982" lon="9.164705182824568"><ele>68.0</ele><time>2026-03-22T10:11:46Z</time></trkpt><trkpt lat="44.383182481549404" lon="9.164610954992924"><ele>68.0</ele><time>2026-03-22T10:11:47Z</time></trkpt><trkpt lat="44.38323112504904" lon="9.164540127164297"><ele>68.0</ele><time>2026-03-22T10:11:49Z</time></trkpt><trkpt lat="44.38325351481473" lon="9.16440334625907"><ele>68.0</ele><time>2026-03-22T10:11:51Z</time></trkpt><trkpt lat="44.383253023466395" lon="9.164285938967616"><ele>68.0</ele><time>2026-03-22T10:16:19Z</time></trkpt><trkpt lat="44.38329130636446" lon="9.164196780511388"><ele>68.0</ele><time>2026-03-22T10:16:21Z</time></trkpt><trkpt lat="44.38331785189905" lon="9.16408572034826"><ele>68.0</ele><time>2026-03-22T10:16:23Z</time></trkpt><trkpt lat="44.383352616171905" lon="9.163928055808958"><ele>68.83333333333334</ele><time>2026-03-22T10:16:25Z</time></trkpt><trkpt lat="44.383380685302434" lon="9.163815422383738"><ele>69.66666666666667</ele><time>2026-03-22T10:16:26Z</time></trkpt><trkpt lat="44.383417763655586" lon="9.163716163934172"><ele>70.5</ele><time>2026-03-22T10:16:27Z</time></trkpt><trkpt lat="44.38343740952132" lon="9.16360313585201"><ele>71.33333333333333</ele><time>2026-03-22T10:16:28Z</time></trkpt><trkpt lat="44.38346733348309" lon="9.163497537891756"><ele>72.16666666666666</ele><time>2026-03-22T10:16:29Z</time></trkpt><trkpt lat="44.38348943877047" lon="9.163386938436702"><ele>73.0</ele><time>2026-03-22T10:16:30Z</time></trkpt><trkpt lat="44.38351680939954" lon="9.16328159642895"><ele>73.0</ele><time>2026-03-22T10:16:31Z</time></trkpt><trkpt lat="44.38353908472624" lon="9.163184188335558"><ele>73.0</ele><time>2026-03-22T10:16:32Z</time></trkpt><trkpt lat="44.38357156932126" lon="9.163027736701308"><ele>73.0</ele><time>2026-03-22T10:16:34Z</time></trkpt><trkpt lat="44.38358589854163" lon="9.162926507819943"><ele>73.0</ele><time>2026-03-22T10:16:35Z</time></trkpt><trkpt lat="44.38358380272977" lon="9.162810185713687"><ele>73.0</ele><time>2026-03-22T10:16:36Z</time></trkpt><trkpt lat="44.38357286271737" lon="9.16271291285301"><ele>73.0</ele><time>2026-03-22T10:16:37Z</time></trkpt><trkpt lat="44.383559983983105" lon="9.162613701196458"><ele>73.0</ele><time>2026-03-22T10:16:38Z</time></trkpt><trkpt lat="44.38353433365924" lon="9.162512896573814"><ele>73.0</ele><time>2026-03-22T10:16:39Z</time></trkpt><trkpt lat="44.38351243206867" lon="9.16241022535654"><ele>73.0</ele><time>2026-03-22T10:16:40Z</time></trkpt><trkpt lat="44.383485820330094" lon="9.162296242172124"><ele>73.0</ele><time>2026-03-22T10:16:41Z</time></trkpt><trkpt lat="44.383463858292394" lon="9.162182321846423"><ele>73.0</ele><time>2026-03-22T10:16:42Z</time></trkpt><trkpt lat="44.38342739877638" lon="9.162074599999885"><ele>73.0</ele><time>2026-03-22T10:16:43Z</time></trkpt><trkpt lat="44.383404097695085" lon="9.16197099532187"><ele>70.33333333333333</ele><time>2026-03-22T10:16:44Z</time></trkpt><trkpt lat="44.38338589695829" lon="9.161863556317893"><ele>67.66666666666666</ele><time>2026-03-22T10:16:45Z</time></trkpt><trkpt lat="44.38336327998222" lon="9.161768560377226"><ele>65.0</ele><time>2026-03-22T10:16:46Z</time></trkpt><trkpt lat="44.383341109022474" lon="9.16164418651054"><ele>62.33333333333333</ele><time>2026-03-22T10:16:47Z</time></trkpt><trkpt lat="44.38331140870827" lon="9.161539976136831"><ele>59.666666666666664</ele><time>2026-03-22T10:16:48Z</time></trkpt><trkpt lat="44.383254176883945" lon="9.161463528021574"><ele>57.0</ele><time>2026-03-22T10:16:49Z</time></trkpt><trkpt lat="44.38321767284163" lon="9.161313351631232"><ele>56.0</ele><time>2026-03-22T10:16:50Z</time></trkpt><trkpt lat="44.3831753816581" lon="9.161190535042333"><ele>55.0</ele><time>2026-03-22T10:16:51Z</time></trkpt><trkpt lat="44.383137562630594" lon="9.161083626423473"><ele>54.0</ele><time>2026-03-22T10:16:52Z</time></trkpt><trkpt lat="44.383094925156506" lon="9.160990105132573"><ele>53.0</ele><time>2026-03-22T10:16:53Z</time></trkpt><trkpt lat="44.38305388074678" lon="9.160908375741808"><ele>52.0</ele><time>2026-03-22T10:16:54Z</time></trkpt><trkpt lat="44.38301135686352" lon="9.160824242990962"><ele>51.0</ele><time>2026-03-22T10:16:55Z</time></trkpt><trkpt lat="44.38297127352238" lon="9.160737395665535"><ele>48.333333333333336</ele><time>2026-03-22T10:16:56Z</time></trkpt><trkpt lat="44.382925957069205" lon="9.160649668820511"><ele>45.666666666666664</ele><time>2026-03-22T10:16:57Z</time></trkpt><trkpt lat="44.38287912845955" lon="9.160578181040787"><ele>43.0</ele><time>2026-03-22T10:16:58Z</time></trkpt><trkpt lat="44.3827886465567" lon="9.160466408456672"><ele>40.33333333333333</ele><time>2026-03-22T10:17:00Z</time></trkpt><trkpt lat="44.382702356509455" lon="9.160451354107572"><ele>37.666666666666664</ele><time>2026-03-22T10:17:01Z</time></trkpt><trkpt lat="44.382632996244446" lon="9.16042373553273"><ele>35.0</ele><time>2026-03-22T10:17:02Z</time></trkpt><trkpt lat="44.38254919179057" lon="9.160415911541982"><ele>35.0</ele><time>2026-03-22T10:17:03Z</time></trkpt><trkpt lat="44.38246053339732" lon="9.160409210076557"><ele>35.0</ele><time>2026-03-22T10:17:04Z</time></trkpt><trkpt lat="44.38237664573448" lon="9.160397335205626"><ele>35.0</ele><time>2026-03-22T10:17:05Z</time></trkpt><trkpt lat="44.382294141454096" lon="9.160390743039173"><ele>35.0</ele><time>2026-03-22T10:17:06Z</time></trkpt><trkpt lat="44.382196233999686" lon="9.160399695013211"><ele>35.0</ele><time>2026-03-22T10:17:07Z</time></trkpt><trkpt lat="44.38210336541743" lon="9.160406265738379"><ele>35.0</ele><time>2026-03-22T10:17:08Z</time></trkpt><trkpt lat="44.382021671475705" lon="9.16039775660644"><ele>34.6</ele><time>2026-03-22T10:17:09Z</time></trkpt><trkpt lat="44.38194603915772" lon="9.160420504493716"><ele>34.2</ele><time>2026-03-22T10:17:10Z</time></trkpt><trkpt lat="44.3818130562727" lon="9.160485717181812"><ele>33.8</ele><time>2026-03-22T10:17:12Z</time></trkpt><trkpt lat="44.38174685299209" lon="9.160574729400256"><ele>33.4</ele><time>2026-03-22T10:17:13Z</time></trkpt><trkpt lat="44.38168354392674" lon="9.160670587883324"><ele>33.0</ele><time>2026-03-22T10:17:14Z</time></trkpt><trkpt lat="44.381631070388835" lon="9.160746516914513"><ele>35.166666666666664</ele><time>2026-03-22T10:17:15Z</time></trkpt><trkpt lat="44.38156900763411" lon="9.160832776291588"><ele>37.333333333333336</ele><time>2026-03-22T10:17:16Z</time></trkpt><trkpt lat="44.381491319118865" lon="9.160896841883886"><ele>39.5</ele><time>2026-03-22T10:17:17Z</time></trkpt><trkpt lat="44.38142638462372" lon="9.160938053230709"><ele>41.66666666666667</ele><time>2026-03-22T10:17:18Z</time></trkpt><trkpt lat="44.381367156386176" lon="9.160977758007924"><ele>43.833333333333336</ele><time>2026-03-22T10:17:19Z</time></trkpt><trkpt lat="44.38130355599045" lon="9.16100523220132"><ele>46.0</ele><time>2026-03-22T10:17:20Z</time></trkpt><trkpt lat="44.38120851217475" lon="9.160967126850329"><ele>46.833333333333336</ele><time>2026-03-22T10:17:22Z</time></trkpt><trkpt lat="44.38117055999262" lon="9.160853366518106"><ele>47.66666666666667</ele><time>2026-03-22T10:17:24Z</time></trkpt><trkpt lat="44.38122006865637" lon="9.160719862405905"><ele>48.5</ele><time>2026-03-22T10:17:26Z</time></trkpt><trkpt lat="44.381271727425414" lon="9.16064311185456"><ele>49.333333333333336</ele><time>2026-03-22T10:17:27Z</time></trkpt><trkpt lat="44.38131356563376" lon="9.160559549986655"><ele>50.166666666666664</ele><time>2026-03-22T10:17:28Z</time></trkpt><trkpt lat="44.38135826479371" lon="9.1604843877196"><ele>51.0</ele><time>2026-03-22T10:17:29Z</time></trkpt><trkpt lat="44.381388436942395" lon="9.16038047145826"><ele>48.0</ele><time>2026-03-22T10:17:30Z</time></trkpt><trkpt lat="44.381418787750476" lon="9.160269819589098"><ele>45.0</ele><time>2026-03-22T10:17:31Z</time></trkpt><trkpt lat="44.38144540580995" lon="9.160159897593552"><ele>42.0</ele><time>2026-03-22T10:17:32Z</time></trkpt><trkpt lat="44.38146445412103" lon="9.160051388840733"><ele>39.0</ele><time>2026-03-22T10:17:33Z</time></trkpt><trkpt lat="44.38147936001954" lon="9.159949646980388"><ele>36.0</ele><time>2026-03-22T10:17:34Z</time></trkpt><trkpt lat="44.38148851060012" lon="9.159840124472288"><ele>33.0</ele><time>2026-03-22T10:17:35Z</time></trkpt><trkpt lat="44.38147890812321" lon="9.159734433876867"><ele>32.4</ele><time>2026-03-22T10:17:36Z</time></trkpt><trkpt lat="44.381461829040624" lon="9.159608003272329"><ele>31.799999999999997</ele><time>2026-03-22T10:17:37Z</time></trkpt><trkpt lat="44.3814361262364" lon="9.15949540290772"><ele>31.2</ele><time>2026-03-22T10:17:38Z</time></trkpt><trkpt lat="44.38139773833989" lon="9.159269880382599"><ele>30.6</ele><time>2026-03-22T10:17:40Z</time></trkpt><trkpt lat="44.38136250334663" lon="9.159131370853244"><ele>30.0</ele><time>2026-03-22T10:17:41Z</time></trkpt><trkpt lat="44.381337050526795" lon="9.159000089924389"><ele>38.0</ele><time>2026-03-22T10:17:42Z</time></trkpt><trkpt lat="44.38132297313451" lon="9.158847541247985"><ele>46.0</ele><time>2026-03-22T10:17:43Z</time></trkpt><trkpt lat="44.38129442707939" lon="9.158735797894263"><ele>54.0</ele><time>2026-03-22T10:17:44Z</time></trkpt><trkpt lat="44.38127546742689" lon="9.158599312880979"><ele>62.0</ele><time>2026-03-22T10:17:45Z</time></trkpt><trkpt lat="44.381271305282084" lon="9.158480484333959"><ele>70.0</ele><time>2026-03-22T10:17:46Z</time></trkpt><trkpt lat="44.381261257365985" lon="9.158340851763539"><ele>67.0</ele><time>2026-03-22T10:17:47Z</time></trkpt><trkpt lat="44.38125511619551" lon="9.158199135617775"><ele>64.0</ele><time>2026-03-22T10:17:48Z</time></trkpt><trkpt lat="44.38125292135497" lon="9.15806262684963"><ele>61.0</ele><time>2026-03-22T10:17:49Z</time></trkpt><trkpt lat="44.381254793273065" lon="9.157914364841012"><ele>58.0</ele><time>2026-03-22T10:17:50Z</time></trkpt><trkpt lat="44.381254321207365" lon="9.1577954839174"><ele>55.0</ele><time>2026-03-22T10:17:51Z</time></trkpt><trkpt lat="44.381255955200125" lon="9.157664679374992"><ele>54.99999999999999</ele><time>2026-03-22T10:17:52Z</time></trkpt><trkpt lat="44.38126535449557" lon="9.157534795642873"><ele>55.0</ele><time>2026-03-22T10:17:53Z</time></trkpt><trkpt lat="44.38125446304035" lon="9.157412402952623"><ele>55.0</ele><time>2026-03-22T10:17:54Z</time></trkpt><trkpt lat="44.381251504421776" lon="9.157286387304033"><ele>55.0</ele><time>2026-03-22T10:17:55Z</time></trkpt><trkpt lat="44.38125067592832" lon="9.157179087690912"><ele>54.99999999999999</ele><time>2026-03-22T10:17:56Z</time></trkpt><trkpt lat="44.381230316775934" lon="9.157079292318228"><ele>55.0</ele><time>2026-03-22T10:17:57Z</time></trkpt><trkpt lat="44.38118785902292" lon="9.156999155260877"><ele>51.83333333333333</ele><time>2026-03-22T10:17:58Z</time></trkpt><trkpt lat="44.38113883836998" lon="9.156901023542744"><ele>48.666666666666664</ele><time>2026-03-22T10:17:59Z</time></trkpt><trkpt lat="44.38109740224613" lon="9.156825686535345"><ele>45.5</ele><time>2026-03-22T10:18:00Z</time></trkpt><trkpt lat="44.381045293263284" lon="9.156753675281015"><ele>42.33333333333333</ele><time>2026-03-22T10:18:01Z</time></trkpt><trkpt lat="44.381004315905244" lon="9.156667624960253"><ele>39.166666666666664</ele><time>2026-03-22T10:18:03Z</time></trkpt><trkpt lat="44.380918532561374" lon="9.15662839441342"><ele>36.0</ele><time>2026-03-22T10:18:25Z</time></trkpt><trkpt lat="44.38083992606335" lon="9.15653409296862"><ele>34.833333333333336</ele><time>2026-03-22T10:18:27Z</time></trkpt><trkpt lat="44.38077812849222" lon="9.156464874003163"><ele>33.666666666666664</ele><time>2026-03-22T10:18:28Z</time></trkpt><trkpt lat="44.38072055538316" lon="9.156392363444906"><ele>32.5</ele><time>2026-03-22T10:18:29Z</time></trkpt><trkpt lat="44.38065455360806" lon="9.15635264886887"><ele>31.333333333333332</ele><time>2026-03-22T10:18:30Z</time></trkpt><trkpt lat="44.38058860714781" lon="9.156319922951887"><ele>30.166666666666664</ele><time>2026-03-22T10:18:31Z</time></trkpt><trkpt lat="44.38050911833643" lon="9.15627559688375"><ele>29.0</ele><time>2026-03-22T10:18:32Z</time></trkpt><trkpt lat="44.38042810632366" lon="9.156239013802816"><ele>28.666666666666664</ele><time>2026-03-22T10:18:33Z</time></trkpt><trkpt lat="44.38035188104138" lon="9.15621817306429"><ele>28.333333333333332</ele><time>2026-03-22T10:18:34Z</time></trkpt><trkpt lat="44.38027728687609" lon="9.156220358769547"><ele>28.0</ele><time>2026-03-22T10:18:35Z</time></trkpt><trkpt lat="44.38019175178107" lon="9.1562277737286"><ele>27.666666666666664</ele><time>2026-03-22T10:18:36Z</time></trkpt><trkpt lat="44.380095599135736" lon="9.156223683438778"><ele>27.333333333333332</ele><time>2026-03-22T10:18:37Z</time></trkpt><trkpt lat="44.37999711367907" lon="9.156220471011475"><ele>27.0</ele><time>2026-03-22T10:18:38Z</time></trkpt><trkpt lat="44.37990493552525" lon="9.156185499424272"><ele>27.0</ele><time>2026-03-22T10:18:39Z</time></trkpt><trkpt lat="44.379816733829216" lon="9.156159105796947"><ele>27.0</ele><time>2026-03-22T10:18:40Z</time></trkpt><trkpt lat="44.379732438299115" lon="9.156133619011555"><ele>27.0</ele><time>2026-03-22T10:18:41Z</time></trkpt><trkpt lat="44.3796507922734" lon="9.156092601274212"><ele>27.0</ele><time>2026-03-22T10:18:42Z</time></trkpt><trkpt lat="44.37958350490048" lon="9.156042762900972"><ele>27.0</ele><time>2026-03-22T10:18:43Z</time></trkpt><trkpt lat="44.37952338504947" lon="9.155967404020219"><ele>27.0</ele><time>2026-03-22T10:18:44Z</time></trkpt><trkpt lat="44.37942221127658" lon="9.155843728820171"><ele>28.8</ele><time>2026-03-22T10:18:46Z</time></trkpt><trkpt lat="44.379328284755516" lon="9.155742528750725"><ele>30.6</ele><time>2026-03-22T10:18:47Z</time></trkpt><trkpt lat="44.379254854525286" lon="9.155636862243707"><ele>32.400000000000006</ele><time>2026-03-22T10:18:48Z</time></trkpt><trkpt lat="44.37919319062885" lon="9.155540800569627"><ele>34.2</ele><time>2026-03-22T10:18:49Z</time></trkpt><trkpt lat="44.37913618357185" lon="9.155437627775461"><ele>36.0</ele><time>2026-03-22T10:18:50Z</time></trkpt><trkpt lat="44.37907991842082" lon="9.155334472510422"><ele>36.0</ele><time>2026-03-22T10:18:51Z</time></trkpt><trkpt lat="44.37903460388248" lon="9.155246385741625"><ele>36.0</ele><time>2026-03-22T10:18:52Z</time></trkpt><trkpt lat="44.37900584347858" lon="9.155151695910934"><ele>36.0</ele><time>2026-03-22T10:18:53Z</time></trkpt><trkpt lat="44.378981063390114" lon="9.15505246455305"><ele>36.0</ele><time>2026-03-22T10:18:54Z</time></trkpt><trkpt lat="44.37896065365055" lon="9.154936664133027"><ele>36.0</ele><time>2026-03-22T10:18:55Z</time></trkpt><trkpt lat="44.37893652190347" lon="9.154790795301125"><ele>36.0</ele><time>2026-03-22T10:18:56Z</time></trkpt><trkpt lat="44.3789036071543" lon="9.154664351598948"><ele>36.8</ele><time>2026-03-22T10:18:57Z</time></trkpt><trkpt lat="44.37887963846123" lon="9.154516375640181"><ele>37.6</ele><time>2026-03-22T10:18:58Z</time></trkpt><trkpt lat="44.37885140915302" lon="9.154364591095547"><ele>38.4</ele><time>2026-03-22T10:18:59Z</time></trkpt><trkpt lat="44.37883530340024" lon="9.154224556157425"><ele>39.2</ele><time>2026-03-22T10:19:00Z</time></trkpt><trkpt lat="44.37881021685126" lon="9.154081039639705"><ele>40.0</ele><time>2026-03-22T10:19:01Z</time></trkpt><trkpt lat="44.378758244470376" lon="9.153947095866993"><ele>40.0</ele><time>2026-03-22T10:19:02Z</time></trkpt><trkpt lat="44.37873060760834" lon="9.153805163149624"><ele>40.0</ele><time>2026-03-22T10:19:03Z</time></trkpt><trkpt lat="44.378710053145596" lon="9.153682262217611"><ele>40.0</ele><time>2026-03-22T10:19:04Z</time></trkpt><trkpt lat="44.3786871223345" lon="9.153565854118774"><ele>40.0</ele><time>2026-03-22T10:19:05Z</time></trkpt><trkpt lat="44.37867268121206" lon="9.153444011683119"><ele>40.0</ele><time>2026-03-22T10:19:06Z</time></trkpt><trkpt lat="44.378650341100645" lon="9.153343297926645"><ele>40.0</ele><time>2026-03-22T10:19:07Z</time></trkpt><trkpt lat="44.37861748634396" lon="9.153261775817272"><ele>36.833333333333336</ele><time>2026-03-22T10:19:08Z</time></trkpt><trkpt lat="44.37857234715453" lon="9.153171141892106"><ele>33.66666666666667</ele><time>2026-03-22T10:19:09Z</time></trkpt><trkpt lat="44.37852044677342" lon="9.153093710029177"><ele>30.5</ele><time>2026-03-22T10:19:10Z</time></trkpt><trkpt lat="44.378469189778635" lon="9.153031242858463"><ele>27.333333333333336</ele><time>2026-03-22T10:19:11Z</time></trkpt><trkpt lat="44.37839537996675" lon="9.152990711855617"><ele>24.166666666666668</ele><time>2026-03-22T10:19:12Z</time></trkpt><trkpt lat="44.3783191655743" lon="9.152949529472604"><ele>21.0</ele><time>2026-03-22T10:19:13Z</time></trkpt><trkpt lat="44.37823184509642" lon="9.152902929615262"><ele>21.0</ele><time>2026-03-22T10:19:14Z</time></trkpt><trkpt lat="44.37815607836921" lon="9.15285527879678"><ele>21.0</ele><time>2026-03-22T10:19:15Z</time></trkpt><trkpt lat="44.378080566372255" lon="9.152829253623658"><ele>21.0</ele><time>2026-03-22T10:19:16Z</time></trkpt><trkpt lat="44.378004403165214" lon="9.152806528152738"><ele>21.0</ele><time>2026-03-22T10:19:17Z</time></trkpt><trkpt lat="44.3779373790648" lon="9.152774598840407"><ele>21.0</ele><time>2026-03-22T10:19:18Z</time></trkpt><trkpt lat="44.377860835844814" lon="9.152752919461575"><ele>21.0</ele><time>2026-03-22T10:19:19Z</time></trkpt><trkpt lat="44.37777093633598" lon="9.152773793323442"><ele>21.333333333333332</ele><time>2026-03-22T10:19:20Z</time></trkpt><trkpt lat="44.37769681934219" lon="9.152796126320325"><ele>21.666666666666668</ele><time>2026-03-22T10:19:21Z</time></trkpt><trkpt lat="44.37761209783665" lon="9.152816713534426"><ele>22.0</ele><time>2026-03-22T10:19:22Z</time></trkpt><trkpt lat="44.377525831772516" lon="9.152832720834365"><ele>22.333333333333336</ele><time>2026-03-22T10:19:23Z</time></trkpt><trkpt lat="44.377444005114796" lon="9.152833189008623"><ele>22.666666666666668</ele><time>2026-03-22T10:19:24Z</time></trkpt><trkpt lat="44.377349509679306" lon="9.152850586387526"><ele>23.0</ele><time>2026-03-22T10:19:25Z</time></trkpt><trkpt lat="44.377265588459586" lon="9.152868719214624"><ele>22.599999999999998</ele><time>2026-03-22T10:19:26Z</time></trkpt><trkpt lat="44.377176960447976" lon="9.152886485745277"><ele>22.2</ele><time>2026-03-22T10:19:27Z</time></trkpt><trkpt lat="44.37709825262883" lon="9.152900184043093"><ele>21.8</ele><time>2026-03-22T10:19:28Z</time></trkpt><trkpt lat="44.37698529435908" lon="9.152910654869299"><ele>21.4</ele><time>2026-03-22T10:19:29Z</time></trkpt><trkpt lat="44.3768985878047" lon="9.152925439057164"><ele>21.0</ele><time>2026-03-22T10:19:30Z</time></trkpt><trkpt lat="44.37680578271823" lon="9.152964226098495"><ele>21.0</ele><time>2026-03-22T10:19:31Z</time></trkpt><trkpt lat="44.376726025344624" lon="9.152974661330262"><ele>21.0</ele><time>2026-03-22T10:19:32Z</time></trkpt><trkpt lat="44.37664572446447" lon="9.152968554401536"><ele>21.0</ele><time>2026-03-22T10:19:33Z</time></trkpt><trkpt lat="44.37655651025637" lon="9.15298309760044"><ele>21.0</ele><time>2026-03-22T10:19:34Z</time></trkpt><trkpt lat="44.3764540835996" lon="9.153003785837477"><ele>21.0</ele><time>2026-03-22T10:19:35Z</time></trkpt><trkpt lat="44.376352838206614" lon="9.15302800303132"><ele>19.75</ele><time>2026-03-22T10:19:36Z</time></trkpt><trkpt lat="44.37626458772013" lon="9.153053815555763"><ele>18.5</ele><time>2026-03-22T10:19:37Z</time></trkpt><trkpt lat="44.37612209124729" lon="9.153105662382643"><ele>17.25</ele><time>2026-03-22T10:19:39Z</time></trkpt><trkpt lat="44.37602534123712" lon="9.153168210687285"><ele>16.0</ele><time>2026-03-22T10:19:40Z</time></trkpt><trkpt lat="44.37592294785447" lon="9.153208415062727"><ele>17.200000000000003</ele><time>2026-03-22T10:19:41Z</time></trkpt><trkpt lat="44.37583125663706" lon="9.153260066100183"><ele>18.400000000000002</ele><time>2026-03-22T10:19:42Z</time></trkpt><trkpt lat="44.37574222728569" lon="9.153307422496272"><ele>19.6</ele><time>2026-03-22T10:19:43Z</time></trkpt><trkpt lat="44.37565791267284" lon="9.153365718646192"><ele>20.8</ele><time>2026-03-22T10:19:44Z</time></trkpt><trkpt lat="44.375564835825806" lon="9.153389930488109"><ele>22.0</ele><time>2026-03-22T10:19:45Z</time></trkpt><trkpt lat="44.375482070270216" lon="9.153398707507055"><ele>22.0</ele><time>2026-03-22T10:19:46Z</time></trkpt><trkpt lat="44.375381651038616" lon="9.15342016112759"><ele>22.0</ele><time>2026-03-22T10:19:47Z</time></trkpt><trkpt lat="44.37528158252175" lon="9.153447081599383"><ele>22.0</ele><time>2026-03-22T10:19:48Z</time></trkpt><trkpt lat="44.37517897929426" lon="9.153463877173012"><ele>22.0</ele><time>2026-03-22T10:19:49Z</time></trkpt><trkpt lat="44.37507639259507" lon="9.153479934432145"><ele>22.0</ele><time>2026-03-22T10:19:50Z</time></trkpt><trkpt lat="44.37498252880941" lon="9.15348656056331"><ele>22.0</ele><time>2026-03-22T10:19:51Z</time></trkpt><trkpt lat="44.374888856847" lon="9.153495137825644"><ele>22.0</ele><time>2026-03-22T10:19:52Z</time></trkpt><trkpt lat="44.3747976881658" lon="9.153499776907811"><ele>22.0</ele><time>2026-03-22T10:19:53Z</time></trkpt><trkpt lat="44.374704665278635" lon="9.153481618207405"><ele>22.0</ele><time>2026-03-22T10:19:54Z</time></trkpt><trkpt lat="44.37461601486594" lon="9.153446899063274"><ele>22.0</ele><time>2026-03-22T10:19:55Z</time></trkpt><trkpt lat="44.37451938296429" lon="9.153407633191453"><ele>21.8</ele><time>2026-03-22T10:19:56Z</time></trkpt><trkpt lat="44.3744219331917" lon="9.1533494320266"><ele>21.6</ele><time>2026-03-22T10:19:57Z</time></trkpt><trkpt lat="44.37432693749907" lon="9.153302967277492"><ele>21.400000000000002</ele><time>2026-03-22T10:19:58Z</time></trkpt><trkpt lat="44.374236204014366" lon="9.153255793186505"><ele>21.200000000000003</ele><time>2026-03-22T10:19:59Z</time></trkpt><trkpt lat="44.37415025573109" lon="9.153202095396948"><ele>21.0</ele><time>2026-03-22T10:20:00Z</time></trkpt><trkpt lat="44.3740676651672" lon="9.153138131281455"><ele>21.0</ele><time>2026-03-22T10:20:01Z</time></trkpt><trkpt lat="44.37398516183324" lon="9.153065466799188"><ele>21.0</ele><time>2026-03-22T10:20:02Z</time></trkpt><trkpt lat="44.373912153445964" lon="9.152988189144324"><ele>21.0</ele><time>2026-03-22T10:20:03Z</time></trkpt><trkpt lat="44.373845183750966" lon="9.152907840405637"><ele>21.0</ele><time>2026-03-22T10:20:04Z</time></trkpt><trkpt lat="44.37378274074003" lon="9.152813311166039"><ele>21.0</ele><time>2026-03-22T10:20:05Z</time></trkpt><trkpt lat="44.37372698979211" lon="9.152722876233403"><ele>22.6</ele><time>2026-03-22T10:20:06Z</time></trkpt><trkpt lat="44.37367797715673" lon="9.152633320896829"><ele>24.200000000000003</ele><time>2026-03-22T10:20:07Z</time></trkpt><trkpt lat="44.37363091041353" lon="9.15252330419154"><ele>25.799999999999997</ele><time>2026-03-22T10:20:08Z</time></trkpt><trkpt lat="44.3735843083433" lon="9.152413388844549"><ele>27.4</ele><time>2026-03-22T10:20:09Z</time></trkpt><trkpt lat="44.37353837075979" lon="9.152289825791348"><ele>29.0</ele><time>2026-03-22T10:20:10Z</time></trkpt><trkpt lat="44.37349377123812" lon="9.152166209301901"><ele>29.0</ele><time>2026-03-22T10:20:11Z</time></trkpt><trkpt lat="44.373450375231755" lon="9.152019450194748"><ele>29.0</ele><time>2026-03-22T10:20:12Z</time></trkpt><trkpt lat="44.37340636909241" lon="9.151902954723193"><ele>29.0</ele><time>2026-03-22T10:20:13Z</time></trkpt><trkpt lat="44.37337061348796" lon="9.151758443127841"><ele>29.0</ele><time>2026-03-22T10:20:14Z</time></trkpt><trkpt lat="44.37333915484738" lon="9.151626893234612"><ele>29.0</ele><time>2026-03-22T10:20:15Z</time></trkpt><trkpt lat="44.37329274536178" lon="9.151501960451894"><ele>28.2</ele><time>2026-03-22T10:20:16Z</time></trkpt><trkpt lat="44.373263772246766" lon="9.151399548003747"><ele>27.4</ele><time>2026-03-22T10:20:17Z</time></trkpt><trkpt lat="44.37321540232532" lon="9.15124191508372"><ele>26.6</ele><time>2026-03-22T10:20:18Z</time></trkpt><trkpt lat="44.37316592822623" lon="9.151107485394176"><ele>25.8</ele><time>2026-03-22T10:20:19Z</time></trkpt><trkpt lat="44.3731350964599" lon="9.150987684562097"><ele>25.0</ele><time>2026-03-22T10:20:20Z</time></trkpt><trkpt lat="44.37309836112837" lon="9.150878646289655"><ele>25.000000000000004</ele><time>2026-03-22T10:20:21Z</time></trkpt><trkpt lat="44.3730531101622" lon="9.150803073143098"><ele>25.0</ele><time>2026-03-22T10:20:22Z</time></trkpt><trkpt lat="44.37299708836316" lon="9.150734056427334"><ele>25.0</ele><time>2026-03-22T10:20:23Z</time></trkpt><trkpt lat="44.37292852772337" lon="9.15066094051655"><ele>25.0</ele><time>2026-03-22T10:20:24Z</time></trkpt><trkpt lat="44.37284676723697" lon="9.150598830009073"><ele>25.000000000000004</ele><time>2026-03-22T10:20:25Z</time></trkpt><trkpt lat="44.37277397020412" lon="9.150547770391343"><ele>25.0</ele><time>2026-03-22T10:20:26Z</time></trkpt><trkpt lat="44.37269433169256" lon="9.150461227637626"><ele>23.166666666666668</ele><time>2026-03-22T10:20:27Z</time></trkpt><trkpt lat="44.37262704732978" lon="9.150397777396945"><ele>21.333333333333336</ele><time>2026-03-22T10:20:28Z</time></trkpt><trkpt lat="44.37256085578283" lon="9.15034998329271"><ele>19.5</ele><time>2026-03-22T10:20:29Z</time></trkpt><trkpt lat="44.37248048653452" lon="9.150301586653754"><ele>17.666666666666668</ele><time>2026-03-22T10:20:30Z</time></trkpt><trkpt lat="44.37239501236208" lon="9.150248048963157"><ele>15.833333333333336</ele><time>2026-03-22T10:20:31Z</time></trkpt><trkpt lat="44.37230663855087" lon="9.150195294144245"><ele>14.0</ele><time>2026-03-22T10:20:32Z</time></trkpt><trkpt lat="44.37221863943477" lon="9.150138921964416"><ele>13.799999999999999</ele><time>2026-03-22T10:20:33Z</time></trkpt><trkpt lat="44.37212186407737" lon="9.150104947039557"><ele>13.599999999999998</ele><time>2026-03-22T10:20:34Z</time></trkpt><trkpt lat="44.37203279644811" lon="9.150067610283031"><ele>13.4</ele><time>2026-03-22T10:20:35Z</time></trkpt><trkpt lat="44.37192800875598" lon="9.150050862691021"><ele>13.2</ele><time>2026-03-22T10:20:36Z</time></trkpt><trkpt lat="44.37183099674555" lon="9.150014874635898"><ele>13.0</ele><time>2026-03-22T10:20:37Z</time></trkpt><trkpt lat="44.371728018893705" lon="9.149981892436589"><ele>13.0</ele><time>2026-03-22T10:20:38Z</time></trkpt><trkpt lat="44.37164439555247" lon="9.149968831087934"><ele>13.0</ele><time>2026-03-22T10:20:39Z</time></trkpt><trkpt lat="44.37155792029296" lon="9.149933202446284"><ele>13.0</ele><time>2026-03-22T10:20:40Z</time></trkpt><trkpt lat="44.37145968476914" lon="9.149937158372072"><ele>13.0</ele><time>2026-03-22T10:20:41Z</time></trkpt><trkpt lat="44.37136917844179" lon="9.14993968899128"><ele>13.0</ele><time>2026-03-22T10:20:42Z</time></trkpt><trkpt lat="44.37126854066996" lon="9.149947022673652"><ele>13.0</ele><time>2026-03-22T10:20:43Z</time></trkpt><trkpt lat="44.37117255576229" lon="9.149965043399845"><ele>13.0</ele><time>2026-03-22T10:20:44Z</time></trkpt><trkpt lat="44.37107025875785" lon="9.149996001783853"><ele>13.0</ele><time>2026-03-22T10:20:45Z</time></trkpt><trkpt lat="44.370974185799184" lon="9.150052079269399"><ele>13.0</ele><time>2026-03-22T10:20:46Z</time></trkpt><trkpt lat="44.370872633563366" lon="9.1500644362947"><ele>13.0</ele><time>2026-03-22T10:20:47Z</time></trkpt><trkpt lat="44.370769498500145" lon="9.150097475525481"><ele>13.0</ele><time>2026-03-22T10:20:48Z</time></trkpt><trkpt lat="44.37066873149946" lon="9.150125274384184"><ele>13.0</ele><time>2026-03-22T10:20:49Z</time></trkpt><trkpt lat="44.370568832575145" lon="9.150143619913308"><ele>13.0</ele><time>2026-03-22T10:20:50Z</time></trkpt><trkpt lat="44.37046852455631" lon="9.150155648224363"><ele>13.0</ele><time>2026-03-22T10:20:51Z</time></trkpt><trkpt lat="44.37037470647938" lon="9.150151617020299"><ele>13.0</ele><time>2026-03-22T10:20:52Z</time></trkpt><trkpt lat="44.37027017376825" lon="9.15014265718297"><ele>12.4</ele><time>2026-03-22T10:20:53Z</time></trkpt><trkpt lat="44.37016709944071" lon="9.15013649392411"><ele>11.8</ele><time>2026-03-22T10:20:54Z</time></trkpt><trkpt lat="44.370063180362614" lon="9.150128077676813"><ele>11.2</ele><time>2026-03-22T10:20:55Z</time></trkpt><trkpt lat="44.36995871246205" lon="9.150117038529425"><ele>10.6</ele><time>2026-03-22T10:20:56Z</time></trkpt><trkpt lat="44.36985475009394" lon="9.150100853755346"><ele>10.0</ele><time>2026-03-22T10:20:57Z</time></trkpt><trkpt lat="44.36975329714886" lon="9.150085470166234"><ele>10.4</ele><time>2026-03-22T10:20:58Z</time></trkpt><trkpt lat="44.369651132535544" lon="9.150073063742509"><ele>10.8</ele><time>2026-03-22T10:20:59Z</time></trkpt><trkpt lat="44.369551797117516" lon="9.150059618956067"><ele>11.2</ele><time>2026-03-22T10:21:00Z</time></trkpt><trkpt lat="44.369458748486245" lon="9.150042119650811"><ele>11.6</ele><time>2026-03-22T10:21:01Z</time></trkpt><trkpt lat="44.3693690805948" lon="9.150025590915641"><ele>12.0</ele><time>2026-03-22T10:21:02Z</time></trkpt><trkpt lat="44.369280240591905" lon="9.149999885622776"><ele>11.999999999999998</ele><time>2026-03-22T10:21:03Z</time></trkpt><trkpt lat="44.369206749918305" lon="9.149973516417095"><ele>12.0</ele><time>2026-03-22T10:21:04Z</time></trkpt><trkpt lat="44.36914023345459" lon="9.14993550429397"><ele>12.0</ele><time>2026-03-22T10:21:05Z</time></trkpt><trkpt lat="44.369084282561715" lon="9.14988671461356"><ele>12.0</ele><time>2026-03-22T10:21:06Z</time></trkpt><trkpt lat="44.36902892500827" lon="9.14982176224809"><ele>12.0</ele><time>2026-03-22T10:21:07Z</time></trkpt><trkpt lat="44.36898179984877" lon="9.149751329023005"><ele>11.999999999999998</ele><time>2026-03-22T10:21:08Z</time></trkpt><trkpt lat="44.368943996153874" lon="9.149676816405163"><ele>12.0</ele><time>2026-03-22T10:21:09Z</time></trkpt><trkpt lat="44.36889689560917" lon="9.149513916099453"><ele>11.666666666666666</ele><time>2026-03-22T10:21:11Z</time></trkpt><trkpt lat="44.36888553939557" lon="9.149421087514641"><ele>11.333333333333334</ele><time>2026-03-22T10:21:12Z</time></trkpt><trkpt lat="44.36887269095045" lon="9.149303318553587"><ele>11.0</ele><time>2026-03-22T10:21:13Z</time></trkpt><trkpt lat="44.36885201850001" lon="9.149195696126815"><ele>10.666666666666668</ele><time>2026-03-22T10:21:14Z</time></trkpt><trkpt lat="44.368823863789686" lon="9.149081547442622"><ele>10.333333333333334</ele><time>2026-03-22T10:21:15Z</time></trkpt><trkpt lat="44.36878816532207" lon="9.148964698779002"><ele>10.0</ele><time>2026-03-22T10:21:16Z</time></trkpt><trkpt lat="44.368746859526574" lon="9.148856023318961"><ele>10.0</ele><time>2026-03-22T10:21:17Z</time></trkpt><trkpt lat="44.36869487971405" lon="9.14875005193378"><ele>10.0</ele><time>2026-03-22T10:21:18Z</time></trkpt><trkpt lat="44.36864463237715" lon="9.148637991917264"><ele>10.0</ele><time>2026-03-22T10:21:19Z</time></trkpt><trkpt lat="44.368584622081315" lon="9.148530552932352"><ele>10.0</ele><time>2026-03-22T10:21:20Z</time></trkpt><trkpt lat="44.36853466602821" lon="9.14843155199181"><ele>10.0</ele><time>2026-03-22T10:21:21Z</time></trkpt><trkpt lat="44.36848691608487" lon="9.148338286804542"><ele>10.0</ele><time>2026-03-22T10:21:22Z</time></trkpt><trkpt lat="44.36843848250801" lon="9.148234355717882"><ele>10.0</ele><time>2026-03-22T10:21:23Z</time></trkpt><trkpt lat="44.368383854299026" lon="9.14813207737921"><ele>10.0</ele><time>2026-03-22T10:21:24Z</time></trkpt><trkpt lat="44.368327814779605" lon="9.148026125863657"><ele>10.0</ele><time>2026-03-22T10:21:25Z</time></trkpt><trkpt lat="44.36828168429602" lon="9.147931041722122"><ele>10.0</ele><time>2026-03-22T10:21:26Z</time></trkpt><trkpt lat="44.368242813426086" lon="9.147851311539648"><ele>10.0</ele><time>2026-03-22T10:21:27Z</time></trkpt><trkpt lat="44.368201274435364" lon="9.147769265891473"><ele>9.833333333333334</ele><time>2026-03-22T10:21:28Z</time></trkpt><trkpt lat="44.36815799377344" lon="9.147688744850715"><ele>9.666666666666668</ele><time>2026-03-22T10:21:29Z</time></trkpt><trkpt lat="44.36812123915575" lon="9.147611156462766"><ele>9.5</ele><time>2026-03-22T10:21:30Z</time></trkpt><trkpt lat="44.36808260700083" lon="9.1475270864006"><ele>9.333333333333334</ele><time>2026-03-22T10:21:31Z</time></trkpt><trkpt lat="44.36804136361973" lon="9.147438803737279"><ele>9.166666666666666</ele><time>2026-03-22T10:21:32Z</time></trkpt><trkpt lat="44.367996336916846" lon="9.147341425392483"><ele>9.0</ele><time>2026-03-22T10:21:33Z</time></trkpt><trkpt lat="44.36794865986083" lon="9.14724888079096"><ele>9.0</ele><time>2026-03-22T10:21:34Z</time></trkpt><trkpt lat="44.36790383489071" lon="9.147161795365184"><ele>9.0</ele><time>2026-03-22T10:21:35Z</time></trkpt><trkpt lat="44.36785198449575" lon="9.147069570474908"><ele>9.0</ele><time>2026-03-22T10:21:36Z</time></trkpt><trkpt lat="44.367794507353956" lon="9.146974817258448"><ele>9.0</ele><time>2026-03-22T10:21:37Z</time></trkpt><trkpt lat="44.36773521605809" lon="9.146886909865465"><ele>9.0</ele><time>2026-03-22T10:21:38Z</time></trkpt><trkpt lat="44.36766422118063" lon="9.146811089937037"><ele>9.0</ele><time>2026-03-22T10:21:39Z</time></trkpt><trkpt lat="44.36758820198338" lon="9.14674082179288"><ele>9.0</ele><time>2026-03-22T10:21:40Z</time></trkpt><trkpt lat="44.36752225227641" lon="9.146684127110206"><ele>9.0</ele><time>2026-03-22T10:21:41Z</time></trkpt><trkpt lat="44.367448116995696" lon="9.146632358414731"><ele>9.0</ele><time>2026-03-22T10:21:42Z</time></trkpt><trkpt lat="44.367377038032444" lon="9.146593224423025"><ele>9.0</ele><time>2026-03-22T10:21:43Z</time></trkpt><trkpt lat="44.367309617987665" lon="9.146577847242988"><ele>9.0</ele><time>2026-03-22T10:21:44Z</time></trkpt><trkpt lat="44.36723423529875" lon="9.146546434434828"><ele>9.0</ele><time>2026-03-22T10:21:45Z</time></trkpt><trkpt lat="44.36715551802288" lon="9.146523093168867"><ele>8.666666666666666</ele><time>2026-03-22T10:21:46Z</time></trkpt><trkpt lat="44.3670806446721" lon="9.14651517952493"><ele>8.333333333333334</ele><time>2026-03-22T10:21:47Z</time></trkpt><trkpt lat="44.367001876216676" lon="9.146513515871483"><ele>8.0</ele><time>2026-03-22T10:21:48Z</time></trkpt><trkpt lat="44.366924986283706" lon="9.14652485536522"><ele>7.666666666666667</ele><time>2026-03-22T10:21:49Z</time></trkpt><trkpt lat="44.366850457734316" lon="9.146530511418115"><ele>7.333333333333334</ele><time>2026-03-22T10:21:50Z</time></trkpt><trkpt lat="44.36678358983255" lon="9.146521888110573"><ele>7.0</ele><time>2026-03-22T10:21:51Z</time></trkpt><trkpt lat="44.36670547090585" lon="9.146548117241988"><ele>7.000000000000001</ele><time>2026-03-22T10:21:52Z</time></trkpt><trkpt lat="44.36662118716315" lon="9.146561583499475"><ele>7.0</ele><time>2026-03-22T10:21:53Z</time></trkpt><trkpt lat="44.36654348476366" lon="9.146579932543654"><ele>7.0</ele><time>2026-03-22T10:21:54Z</time></trkpt><trkpt lat="44.366471546652214" lon="9.146601180211873"><ele>7.0</ele><time>2026-03-22T10:21:55Z</time></trkpt><trkpt lat="44.36637500913577" lon="9.146608494281686"><ele>7.000000000000001</ele><time>2026-03-22T10:21:57Z</time></trkpt><trkpt lat="44.36628933057918" lon="9.14661768367728"><ele>7.0</ele><time>2026-03-22T10:21:59Z</time></trkpt><trkpt lat="44.36608402529939" lon="9.146653089952865"><ele>7.000000000000001</ele><time>2026-03-22T10:22:08Z</time></trkpt><trkpt lat="44.366010829547484" lon="9.146663936998529"><ele>7.0</ele><time>2026-03-22T10:22:09Z</time></trkpt><trkpt lat="44.36592921727915" lon="9.146690450856541"><ele>7.0</ele><time>2026-03-22T10:22:10Z</time></trkpt><trkpt lat="44.36583627783556" lon="9.146699480062043"><ele>7.0</ele><time>2026-03-22T10:22:11Z</time></trkpt><trkpt lat="44.36574288616967" lon="9.14670614997054"><ele>7.000000000000001</ele><time>2026-03-22T10:22:12Z</time></trkpt><trkpt lat="44.36566094949819" lon="9.146727324875146"><ele>7.0</ele><time>2026-03-22T10:22:13Z</time></trkpt><trkpt lat="44.36556212919327" lon="9.146745633052538"><ele>7.166666666666667</ele><time>2026-03-22T10:22:14Z</time></trkpt><trkpt lat="44.36546542183679" lon="9.146760250681048"><ele>7.333333333333334</ele><time>2026-03-22T10:22:15Z</time></trkpt><trkpt lat="44.3653738238666" lon="9.146772184016157"><ele>7.5</ele><time>2026-03-22T10:22:16Z</time></trkpt><trkpt lat="44.36529976424155" lon="9.146793336150997"><ele>7.666666666666666</ele><time>2026-03-22T10:22:17Z</time></trkpt><trkpt lat="44.365216616903055" lon="9.146805505155612"><ele>7.833333333333333</ele><time>2026-03-22T10:22:18Z</time></trkpt><trkpt lat="44.36513590327501" lon="9.146816707297052"><ele>8.0</ele><time>2026-03-22T10:22:19Z</time></trkpt><trkpt lat="44.3650601539342" lon="9.14682162578965"><ele>8.0</ele><time>2026-03-22T10:22:20Z</time></trkpt><trkpt lat="44.36498962237404" lon="9.146816401923765"><ele>8.0</ele><time>2026-03-22T10:22:21Z</time></trkpt><trkpt lat="44.36486395362007" lon="9.146805056762705"><ele>8.0</ele><time>2026-03-22T10:22:23Z</time></trkpt><trkpt lat="44.36478596492285" lon="9.146797943183358"><ele>8.0</ele><time>2026-03-22T10:22:24Z</time></trkpt><trkpt lat="44.36468545328775" lon="9.146718716760521"><ele>8.0</ele><time>2026-03-22T10:22:26Z</time></trkpt><trkpt lat="44.3646296826517" lon="9.146672945687074"><ele>7.833333333333333</ele><time>2026-03-22T10:22:27Z</time></trkpt><trkpt lat="44.36456929471659" lon="9.146622956318279"><ele>7.666666666666666</ele><time>2026-03-22T10:22:28Z</time></trkpt><trkpt lat="44.36448390805197" lon="9.146517634989786"><ele>7.5</ele><time>2026-03-22T10:22:30Z</time></trkpt><trkpt lat="44.36438898976584" lon="9.146425328964272"><ele>7.333333333333334</ele><time>2026-03-22T10:22:32Z</time></trkpt><trkpt lat="44.36434202124416" lon="9.146355943818469"><ele>7.166666666666667</ele><time>2026-03-22T10:22:33Z</time></trkpt><trkpt lat="44.36429638368133" lon="9.146282649491614"><ele>7.0</ele><time>2026-03-22T10:22:34Z</time></trkpt><trkpt lat="44.364249688754434" lon="9.146222800301063"><ele>7.000000000000001</ele><time>2026-03-22T10:22:35Z</time></trkpt><trkpt lat="44.36419161556647" lon="9.146138848048608"><ele>7.0</ele><time>2026-03-22T10:22:36Z</time></trkpt><trkpt lat="44.36414485510714" lon="9.146060117874777"><ele>7.0</ele><time>2026-03-22T10:22:37Z</time></trkpt><trkpt lat="44.36408900781314" lon="9.145982952029813"><ele>7.0</ele><time>2026-03-22T10:22:38Z</time></trkpt><trkpt lat="44.364033484779576" lon="9.145910073846455"><ele>7.000000000000001</ele><time>2026-03-22T10:22:39Z</time></trkpt><trkpt lat="44.363985026366116" lon="9.145830189017671"><ele>7.0</ele><time>2026-03-22T10:22:40Z</time></trkpt><trkpt lat="44.36392949465309" lon="9.14574667042332"><ele>7.166666666666667</ele><time>2026-03-22T10:22:41Z</time></trkpt><trkpt lat="44.363871707628654" lon="9.145699527967174"><ele>7.333333333333334</ele><time>2026-03-22T10:22:42Z</time></trkpt><trkpt lat="44.36384044632077" lon="9.145603766381766"><ele>7.5</ele><time>2026-03-22T10:22:43Z</time></trkpt><trkpt lat="44.36379304992801" lon="9.145511211967037"><ele>7.666666666666666</ele><time>2026-03-22T10:22:45Z</time></trkpt><trkpt lat="44.36373158502144" lon="9.145451511681143"><ele>7.833333333333333</ele><time>2026-03-22T10:22:46Z</time></trkpt><trkpt lat="44.363653209321726" lon="9.145355165548768"><ele>8.0</ele><time>2026-03-22T10:22:48Z</time></trkpt><trkpt lat="44.36359808624717" lon="9.14523930013502"><ele>7.999999999999999</ele><time>2026-03-22T10:22:50Z</time></trkpt><trkpt lat="44.36354263135806" lon="9.145163540955949"><ele>8.0</ele><time>2026-03-22T10:22:52Z</time></trkpt><trkpt lat="44.36350004345054" lon="9.14507546916638"><ele>8.0</ele><time>2026-03-22T10:22:59Z</time></trkpt><trkpt lat="44.3634186356971" lon="9.14497020236064"><ele>8.0</ele><time>2026-03-22T10:23:04Z</time></trkpt><trkpt lat="44.36334498805694" lon="9.144903708872818"><ele>7.999999999999999</ele><time>2026-03-22T10:23:06Z</time></trkpt><trkpt lat="44.36327476061514" lon="9.14484710470425"><ele>8.0</ele><time>2026-03-22T10:23:08Z</time></trkpt><trkpt lat="44.36316607512894" lon="9.144807053999479"><ele>7.833333333333333</ele><time>2026-03-22T10:23:10Z</time></trkpt><trkpt lat="44.3630691805759" lon="9.144732665699092"><ele>7.666666666666666</ele><time>2026-03-22T10:23:12Z</time></trkpt><trkpt lat="44.36299056747745" lon="9.144678842743877"><ele>7.5</ele><time>2026-03-22T10:23:14Z</time></trkpt><trkpt lat="44.36291909162674" lon="9.144623713054699"><ele>7.333333333333334</ele><time>2026-03-22T10:23:17Z</time></trkpt><trkpt lat="44.362841323099865" lon="9.144615031789046"><ele>7.166666666666667</ele><time>2026-03-22T10:23:19Z</time></trkpt><trkpt lat="44.36280351216662" lon="9.144539277286928"><ele>7.0</ele><time>2026-03-22T10:23:21Z</time></trkpt><trkpt lat="44.36276335014464" lon="9.144467496408074"><ele>7.3999999999999995</ele><time>2026-03-22T10:23:22Z</time></trkpt><trkpt lat="44.36268581379854" lon="9.144331086593713"><ele>7.799999999999999</ele><time>2026-03-22T10:23:24Z</time></trkpt><trkpt lat="44.36279235414809" lon="9.144266791681053"><ele>8.2</ele><time>2026-03-22T10:23:25Z</time></trkpt><trkpt lat="44.36282744737014" lon="9.144181518127764"><ele>8.6</ele><time>2026-03-22T10:23:26Z</time></trkpt><trkpt lat="44.362875299146594" lon="9.144032865933687"><ele>9.0</ele><time>2026-03-22T10:23:28Z</time></trkpt><trkpt lat="44.36291997641533" lon="9.143870335778011"><ele>8.8</ele><time>2026-03-22T10:23:30Z</time></trkpt><trkpt lat="44.36294575336627" lon="9.14370544448801"><ele>8.600000000000001</ele><time>2026-03-22T10:23:32Z</time></trkpt><trkpt lat="44.362949425088004" lon="9.143588826962093"><ele>8.4</ele><time>2026-03-22T10:23:34Z</time></trkpt><trkpt lat="44.362931457619936" lon="9.14348460651681"><ele>8.200000000000001</ele><time>2026-03-22T10:23:36Z</time></trkpt><trkpt lat="44.36290870071947" lon="9.14338648486537"><ele>8.0</ele><time>2026-03-22T10:23:38Z</time></trkpt><trkpt lat="44.36293718226181" lon="9.143206648071136"><ele>7.999999999999999</ele><time>2026-03-22T10:23:40Z</time></trkpt><trkpt lat="44.36289285690228" lon="9.143068739288335"><ele>8.0</ele><time>2026-03-22T10:23:42Z</time></trkpt><trkpt lat="44.36288130181982" lon="9.14293239335011"><ele>8.0</ele><time>2026-03-22T10:23:44Z</time></trkpt><trkpt lat="44.36284039748999" lon="9.142836945548977"><ele>8.0</ele><time>2026-03-22T10:23:45Z</time></trkpt><trkpt lat="44.3628335284714" lon="9.142732327725131"><ele>7.999999999999999</ele><time>2026-03-22T10:23:46Z</time></trkpt><trkpt lat="44.362815364797164" lon="9.142624642740383"><ele>8.0</ele><time>2026-03-22T10:23:47Z</time></trkpt><trkpt lat="44.36279793381772" lon="9.142505821528253"><ele>7.999999999999999</ele><time>2026-03-22T10:23:48Z</time></trkpt><trkpt lat="44.36278147586397" lon="9.142398275996632"><ele>8.0</ele><time>2026-03-22T10:23:49Z</time></trkpt><trkpt lat="44.36276449213406" lon="9.14229338629892"><ele>8.0</ele><time>2026-03-22T10:23:50Z</time></trkpt><trkpt lat="44.36274490096124" lon="9.142187539334142"><ele>8.0</ele><time>2026-03-22T10:23:51Z</time></trkpt><trkpt lat="44.36272650780195" lon="9.142099081739731"><ele>7.999999999999999</ele><time>2026-03-22T10:23:52Z</time></trkpt><trkpt lat="44.36268646604781" lon="9.141953956467782"><ele>8.0</ele><time>2026-03-22T10:23:54Z</time></trkpt><trkpt lat="44.36265351428724" lon="9.141858363211728"><ele>8.333333333333332</ele><time>2026-03-22T10:23:56Z</time></trkpt><trkpt lat="44.3626098621592" lon="9.14174022067922"><ele>8.666666666666666</ele><time>2026-03-22T10:23:58Z</time></trkpt><trkpt lat="44.36258086159443" lon="9.14166102523163"><ele>9.0</ele><time>2026-03-22T10:23:59Z</time></trkpt><trkpt lat="44.362549619846725" lon="9.141576122220883"><ele>9.333333333333334</ele><time>2026-03-22T10:24:00Z</time></trkpt><trkpt lat="44.36259084392791" lon="9.141405829563189"><ele>9.666666666666668</ele><time>2026-03-22T10:24:01Z</time></trkpt><trkpt lat="44.36256388588196" lon="9.14129646337188"><ele>10.0</ele><time>2026-03-22T10:24:02Z</time></trkpt><trkpt lat="44.36254891484123" lon="9.141188211064838"><ele>10.666666666666668</ele><time>2026-03-22T10:24:03Z</time></trkpt><trkpt lat="44.362511248218816" lon="9.14108727745036"><ele>11.333333333333334</ele><time>2026-03-22T10:24:04Z</time></trkpt><trkpt lat="44.362460778580314" lon="9.14098359809849"><ele>12.0</ele><time>2026-03-22T10:24:05Z</time></trkpt><trkpt lat="44.362400012246475" lon="9.14088555050482"><ele>12.666666666666668</ele><time>2026-03-22T10:24:06Z</time></trkpt><trkpt lat="44.36234489452004" lon="9.140794571400885"><ele>13.333333333333334</ele><time>2026-03-22T10:24:07Z</time></trkpt><trkpt lat="44.36228047933094" lon="9.1406917235479"><ele>14.0</ele><time>2026-03-22T10:24:08Z</time></trkpt><trkpt lat="44.362242715764296" lon="9.140593125916848"><ele>14.000000000000002</ele><time>2026-03-22T10:24:09Z</time></trkpt><trkpt lat="44.36219749847749" lon="9.140486643612793"><ele>14.0</ele><time>2026-03-22T10:24:10Z</time></trkpt><trkpt lat="44.362143331934625" lon="9.14038421075586"><ele>14.0</ele><time>2026-03-22T10:24:11Z</time></trkpt><trkpt lat="44.362094776839115" lon="9.140290344969426"><ele>14.0</ele><time>2026-03-22T10:24:12Z</time></trkpt><trkpt lat="44.362048890871804" lon="9.140191300702641"><ele>14.000000000000002</ele><time>2026-03-22T10:24:13Z</time></trkpt><trkpt lat="44.36200206374625" lon="9.14010024450037"><ele>14.0</ele><time>2026-03-22T10:24:14Z</time></trkpt><trkpt lat="44.36195289683681" lon="9.140002979007596"><ele>14.000000000000002</ele><time>2026-03-22T10:24:15Z</time></trkpt><trkpt lat="44.3619078643477" lon="9.139919965208307"><ele>14.0</ele><time>2026-03-22T10:24:16Z</time></trkpt><trkpt lat="44.36185373859804" lon="9.139842620303458"><ele>14.0</ele><time>2026-03-22T10:24:17Z</time></trkpt><trkpt lat="44.361791206385156" lon="9.13976649379877"><ele>14.0</ele><time>2026-03-22T10:24:18Z</time></trkpt><trkpt lat="44.361724225073694" lon="9.139698557919433"><ele>14.000000000000002</ele><time>2026-03-22T10:24:19Z</time></trkpt><trkpt lat="44.36165034362278" lon="9.139629340622207"><ele>14.0</ele><time>2026-03-22T10:24:20Z</time></trkpt><trkpt lat="44.361570486182025" lon="9.139560496795433"><ele>13.399999999999999</ele><time>2026-03-22T10:24:21Z</time></trkpt><trkpt lat="44.36149137056779" lon="9.139478546020722"><ele>12.799999999999999</ele><time>2026-03-22T10:24:22Z</time></trkpt><trkpt lat="44.3614164701697" lon="9.139406216568565"><ele>12.2</ele><time>2026-03-22T10:24:23Z</time></trkpt><trkpt lat="44.36134452166348" lon="9.139325938741697"><ele>11.600000000000001</ele><time>2026-03-22T10:24:24Z</time></trkpt><trkpt lat="44.361272614751755" lon="9.139246543716501"><ele>11.0</ele><time>2026-03-22T10:24:25Z</time></trkpt><trkpt lat="44.36120133982658" lon="9.13916242393217"><ele>11.0</ele><time>2026-03-22T10:24:26Z</time></trkpt><trkpt lat="44.36113481356073" lon="9.139067906472663"><ele>11.0</ele><time>2026-03-22T10:24:27Z</time></trkpt><trkpt lat="44.36107903475498" lon="9.138965182345604"><ele>11.0</ele><time>2026-03-22T10:24:28Z</time></trkpt><trkpt lat="44.361023643974505" lon="9.138858486863839"><ele>11.0</ele><time>2026-03-22T10:24:29Z</time></trkpt><trkpt lat="44.36097260079199" lon="9.138743314764914"><ele>11.0</ele><time>2026-03-22T10:24:30Z</time></trkpt><trkpt lat="44.36094132250985" lon="9.138635171533618"><ele>13.333333333333332</ele><time>2026-03-22T10:24:31Z</time></trkpt><trkpt lat="44.36091109675138" lon="9.13851752966724"><ele>15.666666666666668</ele><time>2026-03-22T10:24:32Z</time></trkpt><trkpt lat="44.36087906838945" lon="9.13840128944485"><ele>18.0</ele><time>2026-03-22T10:24:33Z</time></trkpt><trkpt lat="44.360856030201234" lon="9.138287366837007"><ele>20.333333333333336</ele><time>2026-03-22T10:24:34Z</time></trkpt><trkpt lat="44.36084029073471" lon="9.13817102178759"><ele>22.666666666666668</ele><time>2026-03-22T10:24:35Z</time></trkpt><trkpt lat="44.36083404477721" lon="9.138057211921419"><ele>25.0</ele><time>2026-03-22T10:24:36Z</time></trkpt><trkpt lat="44.360842002552154" lon="9.137936962263948"><ele>25.500000000000004</ele><time>2026-03-22T10:24:37Z</time></trkpt><trkpt lat="44.360849353202674" lon="9.137826691447849"><ele>26.0</ele><time>2026-03-22T10:24:38Z</time></trkpt><trkpt lat="44.36085231372002" lon="9.137728031252568"><ele>26.5</ele><time>2026-03-22T10:24:39Z</time></trkpt><trkpt lat="44.360860778657134" lon="9.137601168092436"><ele>27.0</ele><time>2026-03-22T10:24:40Z</time></trkpt><trkpt lat="44.36091407777299" lon="9.13749186046589"><ele>27.500000000000004</ele><time>2026-03-22T10:24:41Z</time></trkpt><trkpt lat="44.36094437679911" lon="9.137369085306208"><ele>28.0</ele><time>2026-03-22T10:24:42Z</time></trkpt><trkpt lat="44.36096833458354" lon="9.137247226055777"><ele>26.599999999999998</ele><time>2026-03-22T10:24:43Z</time></trkpt><trkpt lat="44.3609945580666" lon="9.137117267620214"><ele>25.199999999999996</ele><time>2026-03-22T10:24:44Z</time></trkpt><trkpt lat="44.36101760891031" lon="9.136986558659137"><ele>23.8</ele><time>2026-03-22T10:24:45Z</time></trkpt><trkpt lat="44.36104203463637" lon="9.136868150099726"><ele>22.4</ele><time>2026-03-22T10:24:46Z</time></trkpt><trkpt lat="44.36106964019074" lon="9.13675459239542"><ele>21.0</ele><time>2026-03-22T10:24:47Z</time></trkpt><trkpt lat="44.36110977393915" lon="9.136649180835425"><ele>22.333333333333332</ele><time>2026-03-22T10:24:48Z</time></trkpt><trkpt lat="44.36115738483599" lon="9.136552398208913"><ele>23.666666666666664</ele><time>2026-03-22T10:24:49Z</time></trkpt><trkpt lat="44.361203077316596" lon="9.136483776741478"><ele>25.0</ele><time>2026-03-22T10:24:50Z</time></trkpt><trkpt lat="44.361258802092344" lon="9.136411783217948"><ele>26.333333333333332</ele><time>2026-03-22T10:24:51Z</time></trkpt><trkpt lat="44.36131724163681" lon="9.136346702259045"><ele>27.666666666666664</ele><time>2026-03-22T10:24:52Z</time></trkpt><trkpt lat="44.361393220406434" lon="9.136293771424343"><ele>29.0</ele><time>2026-03-22T10:24:53Z</time></trkpt><trkpt lat="44.36146584098307" lon="9.136233107271515"><ele>29.0</ele><time>2026-03-22T10:24:54Z</time></trkpt><trkpt lat="44.36154085522056" lon="9.136195613194753"><ele>29.0</ele><time>2026-03-22T10:24:55Z</time></trkpt><trkpt lat="44.36161034921528" lon="9.136108602463228"><ele>29.0</ele><time>2026-03-22T10:24:56Z</time></trkpt><trkpt lat="44.36169543865369" lon="9.136051091012341"><ele>29.0</ele><time>2026-03-22T10:24:57Z</time></trkpt><trkpt lat="44.361779529632166" lon="9.13599503060028"><ele>29.0</ele><time>2026-03-22T10:24:58Z</time></trkpt><trkpt lat="44.36186686258628" lon="9.13593359256748"><ele>29.0</ele><time>2026-03-22T10:24:59Z</time></trkpt><trkpt lat="44.36194492727095" lon="9.13586720536779"><ele>29.0</ele><time>2026-03-22T10:25:00Z</time></trkpt><trkpt lat="44.362020799613674" lon="9.135801171286444"><ele>29.0</ele><time>2026-03-22T10:25:01Z</time></trkpt><trkpt lat="44.362096912534206" lon="9.135725254363441"><ele>29.0</ele><time>2026-03-22T10:25:02Z</time></trkpt><trkpt lat="44.36216440003386" lon="9.13563378848026"><ele>29.0</ele><time>2026-03-22T10:25:03Z</time></trkpt><trkpt lat="44.362227636381036" lon="9.135527395877928"><ele>30.999999999999996</ele><time>2026-03-22T10:25:04Z</time></trkpt><trkpt lat="44.36228538642018" lon="9.135420632585596"><ele>33.0</ele><time>2026-03-22T10:25:05Z</time></trkpt><trkpt lat="44.362318328692844" lon="9.135325624945347"><ele>35.0</ele><time>2026-03-22T10:25:06Z</time></trkpt><trkpt lat="44.36234653668083" lon="9.135218681330334"><ele>37.0</ele><time>2026-03-22T10:25:07Z</time></trkpt><trkpt lat="44.36236578922743" lon="9.135104828595997"><ele>39.0</ele><time>2026-03-22T10:25:08Z</time></trkpt><trkpt lat="44.36237711535251" lon="9.134968229435792"><ele>41.0</ele><time>2026-03-22T10:25:09Z</time></trkpt><trkpt lat="44.36237685552122" lon="9.134856554150259"><ele>42.8</ele><time>2026-03-22T10:25:10Z</time></trkpt><trkpt lat="44.36238064862288" lon="9.134722234579913"><ele>44.599999999999994</ele><time>2026-03-22T10:25:11Z</time></trkpt><trkpt lat="44.36236237179316" lon="9.13460020943689"><ele>46.4</ele><time>2026-03-22T10:25:12Z</time></trkpt><trkpt lat="44.36232668109778" lon="9.134476774315676"><ele>48.2</ele><time>2026-03-22T10:25:13Z</time></trkpt><trkpt lat="44.362285430931486" lon="9.13435201414604"><ele>50.0</ele><time>2026-03-22T10:25:14Z</time></trkpt><trkpt lat="44.36224343555325" lon="9.134220174398918"><ele>50.0</ele><time>2026-03-22T10:25:15Z</time></trkpt><trkpt lat="44.362201594301624" lon="9.134083098513473"><ele>50.0</ele><time>2026-03-22T10:25:16Z</time></trkpt><trkpt lat="44.36217008056628" lon="9.133939396162374"><ele>50.0</ele><time>2026-03-22T10:25:17Z</time></trkpt><trkpt lat="44.36214435184482" lon="9.133797108692542"><ele>50.0</ele><time>2026-03-22T10:25:18Z</time></trkpt><trkpt lat="44.362127899145264" lon="9.133664753377463"><ele>50.0</ele><time>2026-03-22T10:25:19Z</time></trkpt><trkpt lat="44.362107229792365" lon="9.133542484377111"><ele>45.0</ele><time>2026-03-22T10:25:20Z</time></trkpt><trkpt lat="44.362095866011835" lon="9.133408307636794"><ele>40.0</ele><time>2026-03-22T10:25:21Z</time></trkpt><trkpt lat="44.36210117620206" lon="9.133262479270426"><ele>35.0</ele><time>2026-03-22T10:25:22Z</time></trkpt><trkpt lat="44.36209181068846" lon="9.133129441325083"><ele>30.0</ele><time>2026-03-22T10:25:23Z</time></trkpt><trkpt lat="44.36208794692086" lon="9.132982722008437"><ele>25.0</ele><time>2026-03-22T10:25:24Z</time></trkpt><trkpt lat="44.36207679677944" lon="9.132853643945456"><ele>24.4</ele><time>2026-03-22T10:25:25Z</time></trkpt><trkpt lat="44.362069017359524" lon="9.132722582663854"><ele>23.8</ele><time>2026-03-22T10:25:26Z</time></trkpt><trkpt lat="44.362065585812736" lon="9.13260570144766"><ele>23.200000000000003</ele><time>2026-03-22T10:25:27Z</time></trkpt><trkpt lat="44.362067756552285" lon="9.132489091290868"><ele>22.6</ele><time>2026-03-22T10:25:28Z</time></trkpt><trkpt lat="44.36207385868139" lon="9.132356783709339"><ele>22.0</ele><time>2026-03-22T10:25:29Z</time></trkpt><trkpt lat="44.36208252924675" lon="9.132218948510506"><ele>21.0</ele><time>2026-03-22T10:25:30Z</time></trkpt><trkpt lat="44.362102224397255" lon="9.132080599665898"><ele>20.0</ele><time>2026-03-22T10:25:31Z</time></trkpt><trkpt lat="44.36212339518683" lon="9.131966053591576"><ele>19.0</ele><time>2026-03-22T10:25:32Z</time></trkpt><trkpt lat="44.362137220557365" lon="9.131821850844382"><ele>18.0</ele><time>2026-03-22T10:25:33Z</time></trkpt><trkpt lat="44.36214550555391" lon="9.131680195863682"><ele>17.0</ele><time>2026-03-22T10:25:34Z</time></trkpt><trkpt lat="44.362159263413986" lon="9.13154620208049"><ele>16.833333333333336</ele><time>2026-03-22T10:25:35Z</time></trkpt><trkpt lat="44.36217397193238" lon="9.131423434825631"><ele>16.666666666666668</ele><time>2026-03-22T10:25:36Z</time></trkpt><trkpt lat="44.362190676252496" lon="9.131309435700116"><ele>16.5</ele><time>2026-03-22T10:25:37Z</time></trkpt><trkpt lat="44.36221046700535" lon="9.131194811166743"><ele>16.333333333333332</ele><time>2026-03-22T10:25:38Z</time></trkpt><trkpt lat="44.36223800136338" lon="9.13109115791778"><ele>16.166666666666664</ele><time>2026-03-22T10:25:39Z</time></trkpt><trkpt lat="44.362268439019516" lon="9.130993496786298"><ele>16.0</ele><time>2026-03-22T10:25:40Z</time></trkpt><trkpt lat="44.362312523568974" lon="9.13088904463744"><ele>16.2</ele><time>2026-03-22T10:25:41Z</time></trkpt><trkpt lat="44.36236402059494" lon="9.130783566533859"><ele>16.400000000000002</ele><time>2026-03-22T10:25:42Z</time></trkpt><trkpt lat="44.3624215914122" lon="9.13067414676173"><ele>16.6</ele><time>2026-03-22T10:25:43Z</time></trkpt><trkpt lat="44.3624744796606" lon="9.130555919651398"><ele>16.8</ele><time>2026-03-22T10:25:44Z</time></trkpt><trkpt lat="44.36254262072135" lon="9.130432424250882"><ele>17.0</ele><time>2026-03-22T10:25:45Z</time></trkpt><trkpt lat="44.36259406813649" lon="9.130318063479072"><ele>17.0</ele><time>2026-03-22T10:25:46Z</time></trkpt><trkpt lat="44.362634082860644" lon="9.130197280420129"><ele>17.0</ele><time>2026-03-22T10:25:47Z</time></trkpt><trkpt lat="44.36268599634449" lon="9.130067027647971"><ele>17.0</ele><time>2026-03-22T10:25:48Z</time></trkpt><trkpt lat="44.36273954288296" lon="9.129951318028722"><ele>17.0</ele><time>2026-03-22T10:25:49Z</time></trkpt><trkpt lat="44.362794308946484" lon="9.12982857856938"><ele>17.0</ele><time>2026-03-22T10:25:50Z</time></trkpt><trkpt lat="44.36284410190235" lon="9.129711358397087"><ele>17.0</ele><time>2026-03-22T10:25:51Z</time></trkpt><trkpt lat="44.36289268879185" lon="9.129588966446901"><ele>17.0</ele><time>2026-03-22T10:25:52Z</time></trkpt><trkpt lat="44.36293394788867" lon="9.129468264331614"><ele>17.0</ele><time>2026-03-22T10:25:53Z</time></trkpt><trkpt lat="44.36295535810563" lon="9.129357551159526"><ele>17.0</ele><time>2026-03-22T10:25:54Z</time></trkpt><trkpt lat="44.362968598952975" lon="9.129241379297097"><ele>17.0</ele><time>2026-03-22T10:25:55Z</time></trkpt><trkpt lat="44.362978014278006" lon="9.129118700440912"><ele>17.5</ele><time>2026-03-22T10:25:56Z</time></trkpt><trkpt lat="44.36298464178523" lon="9.128989579921194"><ele>18.0</ele><time>2026-03-22T10:25:57Z</time></trkpt><trkpt lat="44.362992300790665" lon="9.128860888596243"><ele>18.5</ele><time>2026-03-22T10:25:58Z</time></trkpt><trkpt lat="44.362998589478394" lon="9.128741774334934"><ele>19.0</ele><time>2026-03-22T10:25:59Z</time></trkpt><trkpt lat="44.362997523142916" lon="9.12862562838506"><ele>19.5</ele><time>2026-03-22T10:26:00Z</time></trkpt><trkpt lat="44.363009249073016" lon="9.128532780832641"><ele>20.0</ele><time>2026-03-22T10:26:01Z</time></trkpt><trkpt lat="44.363030947309916" lon="9.128384612547098"><ele>23.166666666666668</ele><time>2026-03-22T10:26:03Z</time></trkpt><trkpt lat="44.36306046052175" lon="9.128293710005995"><ele>26.333333333333336</ele><time>2026-03-22T10:26:04Z</time></trkpt><trkpt lat="44.36309055523764" lon="9.128211449014564"><ele>29.5</ele><time>2026-03-22T10:26:05Z</time></trkpt><trkpt lat="44.36312642402894" lon="9.128131352512778"><ele>32.666666666666664</ele><time>2026-03-22T10:26:06Z</time></trkpt><trkpt lat="44.36316678993259" lon="9.128032629531374"><ele>35.833333333333336</ele><time>2026-03-22T10:26:07Z</time></trkpt><trkpt lat="44.36322072423111" lon="9.127945983157437"><ele>39.0</ele><time>2026-03-22T10:26:08Z</time></trkpt><trkpt lat="44.36327372511768" lon="9.127845401788203"><ele>39.0</ele><time>2026-03-22T10:26:09Z</time></trkpt><trkpt lat="44.3633277096581" lon="9.127730404018441"><ele>39.0</ele><time>2026-03-22T10:26:10Z</time></trkpt><trkpt lat="44.36338391939096" lon="9.127615303760386"><ele>39.0</ele><time>2026-03-22T10:26:11Z</time></trkpt><trkpt lat="44.36343839331457" lon="9.127516541841104"><ele>39.0</ele><time>2026-03-22T10:26:12Z</time></trkpt><trkpt lat="44.36349502827061" lon="9.127412484347174"><ele>39.0</ele><time>2026-03-22T10:26:13Z</time></trkpt><trkpt lat="44.36355120328048" lon="9.127309873451395"><ele>37.666666666666664</ele><time>2026-03-22T10:26:14Z</time></trkpt><trkpt lat="44.36360470848615" lon="9.127203805495117"><ele>36.333333333333336</ele><time>2026-03-22T10:26:15Z</time></trkpt><trkpt lat="44.363645244925486" lon="9.127109972783874"><ele>35.0</ele><time>2026-03-22T10:26:16Z</time></trkpt><trkpt lat="44.363669638246186" lon="9.12700274436574"><ele>33.66666666666667</ele><time>2026-03-22T10:26:17Z</time></trkpt><trkpt lat="44.36368912051248" lon="9.12689795915801"><ele>32.333333333333336</ele><time>2026-03-22T10:26:18Z</time></trkpt><trkpt lat="44.363688901810164" lon="9.126784805876838"><ele>31.0</ele><time>2026-03-22T10:26:19Z</time></trkpt><trkpt lat="44.36367642860312" lon="9.126671733104805"><ele>31.000000000000004</ele><time>2026-03-22T10:26:20Z</time></trkpt><trkpt lat="44.363641260940625" lon="9.126574630021247"><ele>31.0</ele><time>2026-03-22T10:26:21Z</time></trkpt><trkpt lat="44.36360989196725" lon="9.126439457663228"><ele>31.0</ele><time>2026-03-22T10:26:22Z</time></trkpt><trkpt lat="44.36358294161476" lon="9.126306867150765"><ele>31.0</ele><time>2026-03-22T10:26:23Z</time></trkpt><trkpt lat="44.36355903326839" lon="9.126195662837613"><ele>31.000000000000004</ele><time>2026-03-22T10:26:24Z</time></trkpt><trkpt lat="44.36355515143191" lon="9.126095958603381"><ele>31.0</ele><time>2026-03-22T10:26:25Z</time></trkpt><trkpt lat="44.363562277273374" lon="9.125998728119939"><ele>31.166666666666668</ele><time>2026-03-22T10:26:26Z</time></trkpt><trkpt lat="44.36357405051662" lon="9.125888054085902"><ele>31.333333333333336</ele><time>2026-03-22T10:26:27Z</time></trkpt><trkpt lat="44.363600657131315" lon="9.125778091386081"><ele>31.5</ele><time>2026-03-22T10:26:28Z</time></trkpt><trkpt lat="44.36362226188906" lon="9.12568157594109"><ele>31.666666666666664</ele><time>2026-03-22T10:26:29Z</time></trkpt><trkpt lat="44.3636849911831" lon="9.12553795829887"><ele>31.833333333333332</ele><time>2026-03-22T10:26:31Z</time></trkpt><trkpt lat="44.36373415162783" lon="9.12548161358003"><ele>32.0</ele><time>2026-03-22T10:26:32Z</time></trkpt><trkpt lat="44.363803391902806" lon="9.125433873082699"><ele>35.166666666666664</ele><time>2026-03-22T10:26:33Z</time></trkpt><trkpt lat="44.36387410427355" lon="9.125383668976983"><ele>38.33333333333333</ele><time>2026-03-22T10:26:34Z</time></trkpt><trkpt lat="44.36394593481632" lon="9.125320665147473"><ele>41.5</ele><time>2026-03-22T10:26:35Z</time></trkpt><trkpt lat="44.36400888332179" lon="9.125243402080866"><ele>44.666666666666664</ele><time>2026-03-22T10:26:36Z</time></trkpt><trkpt lat="44.36407542579758" lon="9.125157373641462"><ele>47.833333333333336</ele><time>2026-03-22T10:26:37Z</time></trkpt><trkpt lat="44.36413872529213" lon="9.125067346421607"><ele>51.0</ele><time>2026-03-22T10:26:38Z</time></trkpt><trkpt lat="44.364193692016826" lon="9.124964118388936"><ele>46.599999999999994</ele><time>2026-03-22T10:26:39Z</time></trkpt><trkpt lat="44.36425222113623" lon="9.1248461396776"><ele>42.199999999999996</ele><time>2026-03-22T10:26:40Z</time></trkpt><trkpt lat="44.364290065113096" lon="9.124717468566269"><ele>37.8</ele><time>2026-03-22T10:26:41Z</time></trkpt><trkpt lat="44.36433938006383" lon="9.124598792690445"><ele>33.4</ele><time>2026-03-22T10:26:42Z</time></trkpt><trkpt lat="44.36439039482971" lon="9.12447211134237"><ele>29.0</ele><time>2026-03-22T10:26:43Z</time></trkpt><trkpt lat="44.36443976899923" lon="9.1243456497038"><ele>28.999999999999996</ele><time>2026-03-22T10:26:44Z</time></trkpt><trkpt lat="44.364486614569934" lon="9.124229660950627"><ele>29.0</ele><time>2026-03-22T10:26:45Z</time></trkpt><trkpt lat="44.36454114716948" lon="9.12413228649684"><ele>29.0</ele><time>2026-03-22T10:26:46Z</time></trkpt><trkpt lat="44.36460387833684" lon="9.124055374414421"><ele>29.0</ele><time>2026-03-22T10:26:47Z</time></trkpt><trkpt lat="44.36467202260595" lon="9.123978589854442"><ele>28.999999999999996</ele><time>2026-03-22T10:26:48Z</time></trkpt><trkpt lat="44.36475253517319" lon="9.123909622726018"><ele>29.0</ele><time>2026-03-22T10:26:49Z</time></trkpt><trkpt lat="44.36484174220792" lon="9.123884993995974"><ele>33.4</ele><time>2026-03-22T10:26:50Z</time></trkpt><trkpt lat="44.364923036083816" lon="9.123826420119647"><ele>37.8</ele><time>2026-03-22T10:26:51Z</time></trkpt><trkpt lat="44.3650116502208" lon="9.123767610963078"><ele>42.199999999999996</ele><time>2026-03-22T10:26:52Z</time></trkpt><trkpt lat="44.36510247767778" lon="9.123679715558682"><ele>46.599999999999994</ele><time>2026-03-22T10:26:53Z</time></trkpt><trkpt lat="44.36519484378791" lon="9.123604391411607"><ele>51.0</ele><time>2026-03-22T10:26:54Z</time></trkpt><trkpt lat="44.36527525344783" lon="9.123520272469769"><ele>51.0</ele><time>2026-03-22T10:26:55Z</time></trkpt><trkpt lat="44.36535781299492" lon="9.12344455460184"><ele>51.0</ele><time>2026-03-22T10:26:56Z</time></trkpt><trkpt lat="44.36543103320557" lon="9.123371506858154"><ele>51.0</ele><time>2026-03-22T10:26:57Z</time></trkpt><trkpt lat="44.365507878845776" lon="9.123310862029784"><ele>51.0</ele><time>2026-03-22T10:26:58Z</time></trkpt><trkpt lat="44.36556048883129" lon="9.12322504967785"><ele>51.0</ele><time>2026-03-22T10:26:59Z</time></trkpt><trkpt lat="44.365587652029305" lon="9.12314264784657"><ele>51.0</ele><time>2026-03-22T10:27:00Z</time></trkpt><trkpt lat="44.36560620093177" lon="9.123047539001238"><ele>54.5</ele><time>2026-03-22T10:27:01Z</time></trkpt><trkpt lat="44.36562433558611" lon="9.122941228632497"><ele>58.0</ele><time>2026-03-22T10:27:02Z</time></trkpt><trkpt lat="44.36561988499317" lon="9.122826618037697"><ele>61.5</ele><time>2026-03-22T10:27:03Z</time></trkpt><trkpt lat="44.3656221797498" lon="9.122705996226802"><ele>65.0</ele><time>2026-03-22T10:27:04Z</time></trkpt><trkpt lat="44.365617849141536" lon="9.122579305765242"><ele>68.5</ele><time>2026-03-22T10:27:05Z</time></trkpt><trkpt lat="44.365622251086" lon="9.122457496530435"><ele>72.0</ele><time>2026-03-22T10:27:06Z</time></trkpt><trkpt lat="44.36562148561112" lon="9.122328625448665"><ele>72.0</ele><time>2026-03-22T10:27:07Z</time></trkpt><trkpt lat="44.36562562578013" lon="9.122185011425032"><ele>72.0</ele><time>2026-03-22T10:27:08Z</time></trkpt><trkpt lat="44.36562386017931" lon="9.122047920975803"><ele>72.0</ele><time>2026-03-22T10:27:09Z</time></trkpt><trkpt lat="44.365628032591" lon="9.1218995431803"><ele>72.0</ele><time>2026-03-22T10:27:10Z</time></trkpt><trkpt lat="44.36564600255503" lon="9.121770419565387"><ele>72.0</ele><time>2026-03-22T10:27:11Z</time></trkpt><trkpt lat="44.365646822857954" lon="9.121650342417873"><ele>71.00000000000001</ele><time>2026-03-22T10:27:12Z</time></trkpt><trkpt lat="44.36565770776375" lon="9.121555714585025"><ele>70.0</ele><time>2026-03-22T10:27:13Z</time></trkpt><trkpt lat="44.36567086578887" lon="9.121468608386268"><ele>69.0</ele><time>2026-03-22T10:27:14Z</time></trkpt><trkpt lat="44.36570594204697" lon="9.121389304808126"><ele>68.0</ele><time>2026-03-22T10:27:15Z</time></trkpt><trkpt lat="44.365755811136395" lon="9.121321913605975"><ele>67.0</ele><time>2026-03-22T10:27:16Z</time></trkpt><trkpt lat="44.36580132613219" lon="9.121250962418435"><ele>66.00000000000001</ele><time>2026-03-22T10:27:17Z</time></trkpt><trkpt lat="44.36585593890215" lon="9.121184105120241"><ele>65.0</ele><time>2026-03-22T10:27:18Z</time></trkpt><trkpt lat="44.365910344811034" lon="9.121095428971127"><ele>65.0</ele><time>2026-03-22T10:27:19Z</time></trkpt><trkpt lat="44.36595985358045" lon="9.121004358145408"><ele>65.0</ele><time>2026-03-22T10:27:20Z</time></trkpt><trkpt lat="44.36599973961897" lon="9.120913683380756"><ele>65.0</ele><time>2026-03-22T10:27:21Z</time></trkpt><trkpt lat="44.36603380531423" lon="9.120809782224429"><ele>65.0</ele><time>2026-03-22T10:27:22Z</time></trkpt><trkpt lat="44.36605352049281" lon="9.120710330210953"><ele>65.0</ele><time>2026-03-22T10:27:23Z</time></trkpt><trkpt lat="44.36606632469488" lon="9.120604267820688"><ele>65.0</ele><time>2026-03-22T10:27:24Z</time></trkpt><trkpt lat="44.36606589866732" lon="9.12049196183162"><ele>66.6</ele><time>2026-03-22T10:27:25Z</time></trkpt><trkpt lat="44.3660514460101" lon="9.120364450451087"><ele>68.2</ele><time>2026-03-22T10:27:26Z</time></trkpt><trkpt lat="44.36605829887551" lon="9.120232942366188"><ele>69.8</ele><time>2026-03-22T10:27:27Z</time></trkpt><trkpt lat="44.36607431456932" lon="9.120109210228808"><ele>71.4</ele><time>2026-03-22T10:27:28Z</time></trkpt><trkpt lat="44.36608258988118" lon="9.119990098342075"><ele>73.0</ele><time>2026-03-22T10:27:29Z</time></trkpt><trkpt lat="44.36611008605029" lon="9.119862154355507"><ele>68.0</ele><time>2026-03-22T10:27:30Z</time></trkpt><trkpt lat="44.36613369487952" lon="9.119720834630302"><ele>63.0</ele><time>2026-03-22T10:27:31Z</time></trkpt><trkpt lat="44.36615411123594" lon="9.119571130627095"><ele>58.0</ele><time>2026-03-22T10:27:32Z</time></trkpt><trkpt lat="44.36617417143845" lon="9.11942742546151"><ele>53.0</ele><time>2026-03-22T10:27:33Z</time></trkpt><trkpt lat="44.36619385493666" lon="9.119295997666507"><ele>48.0</ele><time>2026-03-22T10:27:34Z</time></trkpt><trkpt lat="44.36621811589225" lon="9.119172616413527"><ele>44.5</ele><time>2026-03-22T10:27:35Z</time></trkpt><trkpt lat="44.366239734367824" lon="9.119040324502082"><ele>41.0</ele><time>2026-03-22T10:27:36Z</time></trkpt><trkpt lat="44.366258149722476" lon="9.1189155669732"><ele>37.5</ele><time>2026-03-22T10:27:37Z</time></trkpt><trkpt lat="44.3662798011802" lon="9.118811584647625"><ele>34.0</ele><time>2026-03-22T10:27:38Z</time></trkpt><trkpt lat="44.366314139249454" lon="9.118711860794862"><ele>30.5</ele><time>2026-03-22T10:27:39Z</time></trkpt><trkpt lat="44.366356415362716" lon="9.118606982266234"><ele>27.0</ele><time>2026-03-22T10:27:40Z</time></trkpt><trkpt lat="44.366407913247315" lon="9.118508442874049"><ele>34.666666666666664</ele><time>2026-03-22T10:27:41Z</time></trkpt><trkpt lat="44.36646383661662" lon="9.118412680555496"><ele>42.33333333333333</ele><time>2026-03-22T10:27:42Z</time></trkpt><trkpt lat="44.366510760337604" lon="9.118307988539032"><ele>50.0</ele><time>2026-03-22T10:27:43Z</time></trkpt><trkpt lat="44.366557138896724" lon="9.118203889668807"><ele>57.666666666666664</ele><time>2026-03-22T10:27:44Z</time></trkpt><trkpt lat="44.36660260790618" lon="9.118106538912329"><ele>65.33333333333333</ele><time>2026-03-22T10:27:45Z</time></trkpt><trkpt lat="44.36664003532276" lon="9.118017416468803"><ele>73.0</ele><time>2026-03-22T10:27:46Z</time></trkpt><trkpt lat="44.36666363028064" lon="9.117933134008249"><ele>73.0</ele><time>2026-03-22T10:27:47Z</time></trkpt><trkpt lat="44.366676422796154" lon="9.11783582135248"><ele>73.0</ele><time>2026-03-22T10:27:48Z</time></trkpt><trkpt lat="44.36666319585959" lon="9.117707261619312"><ele>73.0</ele><time>2026-03-22T10:27:49Z</time></trkpt><trkpt lat="44.366650479979015" lon="9.117580562860757"><ele>73.0</ele><time>2026-03-22T10:27:50Z</time></trkpt><trkpt lat="44.366650079974974" lon="9.117455027040235"><ele>73.0</ele><time>2026-03-22T10:27:51Z</time></trkpt><trkpt lat="44.36663769677249" lon="9.117352857534557"><ele>73.0</ele><time>2026-03-22T10:27:52Z</time></trkpt><trkpt lat="44.36664454383475" lon="9.117224513334612"><ele>70.71428571428571</ele><time>2026-03-22T10:27:53Z</time></trkpt><trkpt lat="44.366655262283736" lon="9.117130755723796"><ele>68.42857142857143</ele><time>2026-03-22T10:27:54Z</time></trkpt><trkpt lat="44.366671756342406" lon="9.117041094777871"><ele>66.14285714285714</ele><time>2026-03-22T10:27:55Z</time></trkpt><trkpt lat="44.36672311217474" lon="9.116974517760164"><ele>63.857142857142854</ele><time>2026-03-22T10:27:56Z</time></trkpt><trkpt lat="44.36677344566917" lon="9.11690256947875"><ele>61.57142857142857</ele><time>2026-03-22T10:27:57Z</time></trkpt><trkpt lat="44.366820839668264" lon="9.116831196878264"><ele>59.285714285714285</ele><time>2026-03-22T10:27:58Z</time></trkpt><trkpt lat="44.366884268141256" lon="9.116751962187024"><ele>57.0</ele><time>2026-03-22T10:27:59Z</time></trkpt><trkpt lat="44.36693477366835" lon="9.116675055238238"><ele>54.400000000000006</ele><time>2026-03-22T10:28:00Z</time></trkpt><trkpt lat="44.36697813059538" lon="9.116557154337553"><ele>51.800000000000004</ele><time>2026-03-22T10:28:01Z</time></trkpt><trkpt lat="44.36701877757085" lon="9.116438325961163"><ele>49.2</ele><time>2026-03-22T10:28:02Z</time></trkpt><trkpt lat="44.36706300351247" lon="9.116316239881764"><ele>46.6</ele><time>2026-03-22T10:28:03Z</time></trkpt><trkpt lat="44.36710913821249" lon="9.116178240752298"><ele>44.0</ele><time>2026-03-22T10:28:04Z</time></trkpt><trkpt lat="44.367150382408475" lon="9.116049309885167"><ele>44.0</ele><time>2026-03-22T10:28:05Z</time></trkpt><trkpt lat="44.36719217374405" lon="9.115921500302203"><ele>44.0</ele><time>2026-03-22T10:28:06Z</time></trkpt><trkpt lat="44.36724037430278" lon="9.11583275532545"><ele>44.0</ele><time>2026-03-22T10:28:07Z</time></trkpt><trkpt lat="44.36728413451009" lon="9.115725114184391"><ele>44.0</ele><time>2026-03-22T10:28:08Z</time></trkpt><trkpt lat="44.367333678816635" lon="9.115618497637993"><ele>44.0</ele><time>2026-03-22T10:28:09Z</time></trkpt><trkpt lat="44.36737586940784" lon="9.115521935968832"><ele>44.0</ele><time>2026-03-22T10:28:10Z</time></trkpt><trkpt lat="44.36744896237176" lon="9.115386787220054"><ele>48.5</ele><time>2026-03-22T10:28:12Z</time></trkpt><trkpt lat="44.367494106208234" lon="9.115325395630908"><ele>53.0</ele><time>2026-03-22T10:28:13Z</time></trkpt><trkpt lat="44.3676051069149" lon="9.115261259810579"><ele>57.5</ele><time>2026-03-22T10:28:14Z</time></trkpt><trkpt lat="44.36768802654743" lon="9.115196000260543"><ele>62.0</ele><time>2026-03-22T10:28:15Z</time></trkpt><trkpt lat="44.3677539222469" lon="9.115117782882391"><ele>66.5</ele><time>2026-03-22T10:28:16Z</time></trkpt><trkpt lat="44.36780782777184" lon="9.115035404311651"><ele>71.0</ele><time>2026-03-22T10:28:17Z</time></trkpt><trkpt lat="44.367847101058885" lon="9.114934957144316"><ele>68.5</ele><time>2026-03-22T10:28:18Z</time></trkpt><trkpt lat="44.36786570790633" lon="9.11484244018517"><ele>66.0</ele><time>2026-03-22T10:28:19Z</time></trkpt><trkpt lat="44.367886586579004" lon="9.114731343118997"><ele>63.5</ele><time>2026-03-22T10:28:20Z</time></trkpt><trkpt lat="44.36790207279992" lon="9.11459857020132"><ele>61.0</ele><time>2026-03-22T10:28:21Z</time></trkpt><trkpt lat="44.36791477486415" lon="9.114472539222213"><ele>58.50000000000001</ele><time>2026-03-22T10:28:22Z</time></trkpt><trkpt lat="44.36792390551825" lon="9.114326506377038"><ele>56.0</ele><time>2026-03-22T10:28:23Z</time></trkpt><trkpt lat="44.36793443298684" lon="9.114195071834102"><ele>56.0</ele><time>2026-03-22T10:28:24Z</time></trkpt><trkpt lat="44.36794755253008" lon="9.114075095737133"><ele>55.99999999999999</ele><time>2026-03-22T10:28:25Z</time></trkpt><trkpt lat="44.36794943772077" lon="9.113933542204396"><ele>55.99999999999999</ele><time>2026-03-22T10:28:26Z</time></trkpt><trkpt lat="44.36800737069837" lon="9.11378699142418"><ele>56.0</ele><time>2026-03-22T10:28:27Z</time></trkpt><trkpt lat="44.36803810044947" lon="9.113630343012977"><ele>56.0</ele><time>2026-03-22T10:28:28Z</time></trkpt><trkpt lat="44.36807822418274" lon="9.113477333258578"><ele>60.8</ele><time>2026-03-22T10:28:29Z</time></trkpt><trkpt lat="44.368103593894894" lon="9.11332735422738"><ele>65.6</ele><time>2026-03-22T10:28:30Z</time></trkpt><trkpt lat="44.36813228742031" lon="9.113182879537383"><ele>70.4</ele><time>2026-03-22T10:28:31Z</time></trkpt><trkpt lat="44.368158023987476" lon="9.11303386117819"><ele>75.2</ele><time>2026-03-22T10:28:32Z</time></trkpt><trkpt lat="44.368186909516496" lon="9.112889357890937"><ele>80.0</ele><time>2026-03-22T10:28:33Z</time></trkpt><trkpt lat="44.3682088524837" lon="9.112727761740024"><ele>80.0</ele><time>2026-03-22T10:28:34Z</time></trkpt><trkpt lat="44.36823974024883" lon="9.112563345925906"><ele>80.0</ele><time>2026-03-22T10:28:35Z</time></trkpt><trkpt lat="44.3682672952235" lon="9.112413308527985"><ele>80.0</ele><time>2026-03-22T10:28:36Z</time></trkpt><trkpt lat="44.368295651693124" lon="9.112257478762453"><ele>80.0</ele><time>2026-03-22T10:28:37Z</time></trkpt><trkpt lat="44.36832012612036" lon="9.112102696990933"><ele>75.0</ele><time>2026-03-22T10:28:38Z</time></trkpt><trkpt lat="44.368345382631546" lon="9.111970439325882"><ele>70.0</ele><time>2026-03-22T10:28:39Z</time></trkpt><trkpt lat="44.36838117469358" lon="9.111848455149854"><ele>65.0</ele><time>2026-03-22T10:28:40Z</time></trkpt><trkpt lat="44.368410274864225" lon="9.111702739172827"><ele>60.0</ele><time>2026-03-22T10:28:41Z</time></trkpt><trkpt lat="44.36843647132403" lon="9.111553568111988"><ele>55.0</ele><time>2026-03-22T10:28:42Z</time></trkpt><trkpt lat="44.36845885078792" lon="9.111392384598476"><ele>53.6</ele><time>2026-03-22T10:28:43Z</time></trkpt><trkpt lat="44.36848410463002" lon="9.111240793481976"><ele>52.2</ele><time>2026-03-22T10:28:44Z</time></trkpt><trkpt lat="44.36851686640418" lon="9.11110120362053"><ele>50.8</ele><time>2026-03-22T10:28:45Z</time></trkpt><trkpt lat="44.368548294151324" lon="9.110967377777971"><ele>49.4</ele><time>2026-03-22T10:28:46Z</time></trkpt><trkpt lat="44.36856830918044" lon="9.110832492235424"><ele>48.0</ele><time>2026-03-22T10:28:47Z</time></trkpt><trkpt lat="44.36859037039271" lon="9.11070424285551"><ele>46.0</ele><time>2026-03-22T10:28:48Z</time></trkpt><trkpt lat="44.368616043520696" lon="9.110580777365223"><ele>44.0</ele><time>2026-03-22T10:28:49Z</time></trkpt><trkpt lat="44.36865745815218" lon="9.11047224850684"><ele>42.0</ele><time>2026-03-22T10:28:50Z</time></trkpt><trkpt lat="44.368700371648245" lon="9.11037878652947"><ele>40.0</ele><time>2026-03-22T10:28:51Z</time></trkpt><trkpt lat="44.3687437648411" lon="9.110300460345673"><ele>38.0</ele><time>2026-03-22T10:28:52Z</time></trkpt><trkpt lat="44.36879672829896" lon="9.110231666599955"><ele>36.0</ele><time>2026-03-22T10:28:53Z</time></trkpt><trkpt lat="44.36885388408207" lon="9.110193533264562"><ele>40.166666666666664</ele><time>2026-03-22T10:28:54Z</time></trkpt><trkpt lat="44.36891473203776" lon="9.110129091725526"><ele>44.33333333333333</ele><time>2026-03-22T10:28:55Z</time></trkpt><trkpt lat="44.368972573981154" lon="9.110057002488839"><ele>48.5</ele><time>2026-03-22T10:28:56Z</time></trkpt><trkpt lat="44.36902253979257" lon="9.10995914166287"><ele>52.666666666666664</ele><time>2026-03-22T10:28:57Z</time></trkpt><trkpt lat="44.36906425704234" lon="9.109851855804811"><ele>56.83333333333333</ele><time>2026-03-22T10:28:58Z</time></trkpt><trkpt lat="44.369094805522465" lon="9.109738712319704"><ele>61.0</ele><time>2026-03-22T10:28:59Z</time></trkpt><trkpt lat="44.36910891495594" lon="9.109609007698618"><ele>61.0</ele><time>2026-03-22T10:29:00Z</time></trkpt><trkpt lat="44.36912469392595" lon="9.1094760376812"><ele>60.99999999999999</ele><time>2026-03-22T10:29:01Z</time></trkpt><trkpt lat="44.369142112758205" lon="9.109345147400285"><ele>60.99999999999999</ele><time>2026-03-22T10:29:02Z</time></trkpt><trkpt lat="44.36917167022342" lon="9.109210021537333"><ele>61.0</ele><time>2026-03-22T10:29:03Z</time></trkpt><trkpt lat="44.369187696151776" lon="9.109069891508552"><ele>61.0</ele><time>2026-03-22T10:29:04Z</time></trkpt><trkpt lat="44.3692173727904" lon="9.108941422251846"><ele>58.4</ele><time>2026-03-22T10:29:05Z</time></trkpt><trkpt lat="44.369249507641136" lon="9.108830142527344"><ele>55.8</ele><time>2026-03-22T10:29:06Z</time></trkpt><trkpt lat="44.36929264454709" lon="9.10872333658652"><ele>53.199999999999996</ele><time>2026-03-22T10:29:07Z</time></trkpt><trkpt lat="44.36934682219031" lon="9.108610766798092"><ele>50.599999999999994</ele><time>2026-03-22T10:29:08Z</time></trkpt><trkpt lat="44.36939126959665" lon="9.108488543951816"><ele>48.0</ele><time>2026-03-22T10:29:09Z</time></trkpt><trkpt lat="44.369452578928" lon="9.108357967197252"><ele>45.666666666666664</ele><time>2026-03-22T10:29:10Z</time></trkpt><trkpt lat="44.36949888729688" lon="9.108237561378127"><ele>43.333333333333336</ele><time>2026-03-22T10:29:11Z</time></trkpt><trkpt lat="44.36954170282884" lon="9.108123056451012"><ele>41.0</ele><time>2026-03-22T10:29:12Z</time></trkpt><trkpt lat="44.369583412906834" lon="9.108016375584807"><ele>38.66666666666667</ele><time>2026-03-22T10:29:13Z</time></trkpt><trkpt lat="44.36962581819432" lon="9.107912264260294"><ele>36.333333333333336</ele><time>2026-03-22T10:29:14Z</time></trkpt><trkpt lat="44.36965647350985" lon="9.107808489250646"><ele>34.0</ele><time>2026-03-22T10:29:15Z</time></trkpt><trkpt lat="44.36967868555956" lon="9.107698755838676"><ele>37.0</ele><time>2026-03-22T10:29:16Z</time></trkpt><trkpt lat="44.36969713357396" lon="9.107595812866611"><ele>40.0</ele><time>2026-03-22T10:29:17Z</time></trkpt><trkpt lat="44.369717397892295" lon="9.107485189807967"><ele>43.0</ele><time>2026-03-22T10:29:18Z</time></trkpt><trkpt lat="44.36973872145459" lon="9.107351116665749"><ele>46.0</ele><time>2026-03-22T10:29:19Z</time></trkpt><trkpt lat="44.36976235834948" lon="9.107216922660621"><ele>49.0</ele><time>2026-03-22T10:29:20Z</time></trkpt><trkpt lat="44.369789220221556" lon="9.107089191284478"><ele>49.0</ele><time>2026-03-22T10:29:21Z</time></trkpt><trkpt lat="44.36980885343773" lon="9.106966925077122"><ele>49.0</ele><time>2026-03-22T10:29:22Z</time></trkpt><trkpt lat="44.36983610169605" lon="9.106852357202621"><ele>49.0</ele><time>2026-03-22T10:29:23Z</time></trkpt><trkpt lat="44.36986297231085" lon="9.106728189973806"><ele>49.0</ele><time>2026-03-22T10:29:24Z</time></trkpt><trkpt lat="44.369898129479886" lon="9.106615112447644"><ele>49.0</ele><time>2026-03-22T10:29:25Z</time></trkpt><trkpt lat="44.36993363602989" lon="9.106448052302976"><ele>46.83333333333333</ele><time>2026-03-22T10:29:26Z</time></trkpt><trkpt lat="44.36997408261875" lon="9.10636278762582"><ele>44.666666666666664</ele><time>2026-03-22T10:29:27Z</time></trkpt><trkpt lat="44.37003173347586" lon="9.106259636169463"><ele>42.5</ele><time>2026-03-22T10:29:28Z</time></trkpt><trkpt lat="44.370093492661525" lon="9.106159438713885"><ele>40.33333333333333</ele><time>2026-03-22T10:29:29Z</time></trkpt><trkpt lat="44.37015126352005" lon="9.10606462262243"><ele>38.166666666666664</ele><time>2026-03-22T10:29:30Z</time></trkpt><trkpt lat="44.370201678488705" lon="9.10595649598633"><ele>36.0</ele><time>2026-03-22T10:29:31Z</time></trkpt><trkpt lat="44.37024882272743" lon="9.105880703975757"><ele>36.0</ele><time>2026-03-22T10:29:32Z</time></trkpt><trkpt lat="44.37028944209671" lon="9.105800965228935"><ele>36.0</ele><time>2026-03-22T10:29:33Z</time></trkpt><trkpt lat="44.37036167748169" lon="9.105744091433053"><ele>36.0</ele><time>2026-03-22T10:29:34Z</time></trkpt><trkpt lat="44.37041918755355" lon="9.10558419713985"><ele>36.0</ele><time>2026-03-22T10:29:36Z</time></trkpt><trkpt lat="44.37045544674503" lon="9.105507574966694"><ele>36.0</ele><time>2026-03-22T10:29:37Z</time></trkpt><trkpt lat="44.370525121487645" lon="9.105377538973908"><ele>35.666666666666664</ele><time>2026-03-22T10:29:39Z</time></trkpt><trkpt lat="44.37057983988921" lon="9.105273796119825"><ele>35.333333333333336</ele><time>2026-03-22T10:29:41Z</time></trkpt><trkpt lat="44.37063100500813" lon="9.105199518055423"><ele>35.0</ele><time>2026-03-22T10:29:44Z</time></trkpt><trkpt lat="44.37070476365909" lon="9.105079158052456"><ele>34.66666666666667</ele><time>2026-03-22T10:29:55Z</time></trkpt><trkpt lat="44.37075148233886" lon="9.105005839784354"><ele>34.333333333333336</ele><time>2026-03-22T10:29:56Z</time></trkpt><trkpt lat="44.37080685843406" lon="9.104927059289254"><ele>34.0</ele><time>2026-03-22T10:29:57Z</time></trkpt><trkpt lat="44.37086977102474" lon="9.104868427653686"><ele>28.8</ele><time>2026-03-22T10:29:58Z</time></trkpt><trkpt lat="44.3709444107235" lon="9.104821726747243"><ele>23.599999999999998</ele><time>2026-03-22T10:29:59Z</time></trkpt><trkpt lat="44.37103395241191" lon="9.104772637575616"><ele>18.4</ele><time>2026-03-22T10:30:00Z</time></trkpt><trkpt lat="44.37113010511671" lon="9.10473252535185"><ele>13.2</ele><time>2026-03-22T10:30:01Z</time></trkpt><trkpt lat="44.37121922359631" lon="9.104697213676253"><ele>8.0</ele><time>2026-03-22T10:30:02Z</time></trkpt><trkpt lat="44.371309799564415" lon="9.104644245329641"><ele>10.2</ele><time>2026-03-22T10:30:03Z</time></trkpt><trkpt lat="44.37139678547425" lon="9.104574326851338"><ele>12.4</ele><time>2026-03-22T10:30:04Z</time></trkpt><trkpt lat="44.371489586999935" lon="9.104476936924145"><ele>14.599999999999998</ele><time>2026-03-22T10:30:05Z</time></trkpt><trkpt lat="44.37157581508293" lon="9.104383797235258"><ele>16.8</ele><time>2026-03-22T10:30:06Z</time></trkpt><trkpt lat="44.37165662641135" lon="9.10427791293879"><ele>19.0</ele><time>2026-03-22T10:30:07Z</time></trkpt><trkpt lat="44.37173588524014" lon="9.104165826154277"><ele>16.5</ele><time>2026-03-22T10:30:08Z</time></trkpt><trkpt lat="44.371813121540875" lon="9.104051470212895"><ele>14.0</ele><time>2026-03-22T10:30:09Z</time></trkpt><trkpt lat="44.371885437288306" lon="9.103926649630463"><ele>11.5</ele><time>2026-03-22T10:30:10Z</time></trkpt><trkpt lat="44.37196930197352" lon="9.103800661075296"><ele>9.0</ele><time>2026-03-22T10:30:11Z</time></trkpt><trkpt lat="44.372054121213424" lon="9.103676767067778"><ele>9.0</ele><time>2026-03-22T10:30:12Z</time></trkpt><trkpt lat="44.372133832533265" lon="9.103559501875335"><ele>9.0</ele><time>2026-03-22T10:30:13Z</time></trkpt><trkpt lat="44.37220260384821" lon="9.103449894937338"><ele>9.0</ele><time>2026-03-22T10:30:14Z</time></trkpt><trkpt lat="44.372270965419496" lon="9.103347747922655"><ele>9.0</ele><time>2026-03-22T10:30:15Z</time></trkpt><trkpt lat="44.37232213378312" lon="9.103255824003378"><ele>9.0</ele><time>2026-03-22T10:30:16Z</time></trkpt><trkpt lat="44.372361790961705" lon="9.103153984518922"><ele>14.5</ele><time>2026-03-22T10:30:17Z</time></trkpt><trkpt lat="44.37238569536258" lon="9.103049660301396"><ele>20.0</ele><time>2026-03-22T10:30:18Z</time></trkpt><trkpt lat="44.372385451206604" lon="9.102960642434459"><ele>25.5</ele><time>2026-03-22T10:30:19Z</time></trkpt><trkpt lat="44.37236865320216" lon="9.10287452461532"><ele>31.0</ele><time>2026-03-22T10:30:20Z</time></trkpt><trkpt lat="44.37235255050374" lon="9.102761842078884"><ele>36.5</ele><time>2026-03-22T10:30:21Z</time></trkpt><trkpt lat="44.37232669330869" lon="9.102647744293984"><ele>42.0</ele><time>2026-03-22T10:30:22Z</time></trkpt><trkpt lat="44.372290794325906" lon="9.102532873968604"><ele>42.0</ele><time>2026-03-22T10:30:23Z</time></trkpt><trkpt lat="44.372245187376066" lon="9.102423742226707"><ele>42.0</ele><time>2026-03-22T10:30:24Z</time></trkpt><trkpt lat="44.37220930185486" lon="9.10229334540576"><ele>42.0</ele><time>2026-03-22T10:30:25Z</time></trkpt><trkpt lat="44.37218056401885" lon="9.102205557637582"><ele>42.0</ele><time>2026-03-22T10:30:26Z</time></trkpt><trkpt lat="44.372122669924664" lon="9.102040667150185"><ele>42.0</ele><time>2026-03-22T10:30:28Z</time></trkpt><trkpt lat="44.372082309962025" lon="9.101911538132896"><ele>37.800000000000004</ele><time>2026-03-22T10:30:30Z</time></trkpt><trkpt lat="44.372039159573745" lon="9.101799278055685"><ele>33.6</ele><time>2026-03-22T10:30:32Z</time></trkpt><trkpt lat="44.37200053104893" lon="9.101693752573446"><ele>29.400000000000002</ele><time>2026-03-22T10:30:34Z</time></trkpt><trkpt lat="44.37194002023601" lon="9.101539827506864"><ele>25.200000000000003</ele><time>2026-03-22T10:30:36Z</time></trkpt><trkpt lat="44.37191487990455" lon="9.101377198013218"><ele>21.0</ele><time>2026-03-22T10:30:38Z</time></trkpt><trkpt lat="44.371903471822854" lon="9.101283427108719"><ele>21.0</ele><time>2026-03-22T10:30:39Z</time></trkpt><trkpt lat="44.37191029687232" lon="9.101186489922968"><ele>21.0</ele><time>2026-03-22T10:30:40Z</time></trkpt><trkpt lat="44.37191950678511" lon="9.101097238127476"><ele>21.0</ele><time>2026-03-22T10:30:41Z</time></trkpt><trkpt lat="44.37196205373" lon="9.100941023315986"><ele>21.0</ele><time>2026-03-22T10:30:43Z</time></trkpt><trkpt lat="44.37201100054515" lon="9.100880316009386"><ele>21.0</ele><time>2026-03-22T10:30:44Z</time></trkpt><trkpt lat="44.37205630890994" lon="9.100786518429535"><ele>21.0</ele><time>2026-03-22T10:30:45Z</time></trkpt><trkpt lat="44.37210160687501" lon="9.100715552345498"><ele>20.833333333333332</ele><time>2026-03-22T10:30:46Z</time></trkpt><trkpt lat="44.372145081366895" lon="9.100631702518204"><ele>20.666666666666668</ele><time>2026-03-22T10:30:47Z</time></trkpt><trkpt lat="44.37216869390661" lon="9.100545581893494"><ele>20.5</ele><time>2026-03-22T10:30:48Z</time></trkpt><trkpt lat="44.37220804359342" lon="9.100424511930074"><ele>20.333333333333336</ele><time>2026-03-22T10:30:50Z</time></trkpt><trkpt lat="44.37222052419288" lon="9.100336830283583"><ele>20.166666666666668</ele><time>2026-03-22T10:30:51Z</time></trkpt><trkpt lat="44.37222763434568" lon="9.100173379954382"><ele>20.0</ele><time>2026-03-22T10:30:53Z</time></trkpt><trkpt lat="44.37222458336964" lon="9.10006719181914"><ele>25.6</ele><time>2026-03-22T10:30:54Z</time></trkpt><trkpt lat="44.37222570124049" lon="9.099956371804424"><ele>31.2</ele><time>2026-03-22T10:30:55Z</time></trkpt><trkpt lat="44.37223264928291" lon="9.099818073300547"><ele>36.8</ele><time>2026-03-22T10:30:56Z</time></trkpt><trkpt lat="44.37222925414499" lon="9.099668933372552"><ele>42.4</ele><time>2026-03-22T10:30:57Z</time></trkpt><trkpt lat="44.37223156811866" lon="9.099531296457423"><ele>48.0</ele><time>2026-03-22T10:30:58Z</time></trkpt><trkpt lat="44.372226516537346" lon="9.09938296909321"><ele>48.2</ele><time>2026-03-22T10:30:59Z</time></trkpt><trkpt lat="44.37222880383629" lon="9.099245984690198"><ele>48.4</ele><time>2026-03-22T10:31:00Z</time></trkpt><trkpt lat="44.372235716333506" lon="9.099097822512748"><ele>48.6</ele><time>2026-03-22T10:31:01Z</time></trkpt><trkpt lat="44.372247215509695" lon="9.098951576600204"><ele>48.800000000000004</ele><time>2026-03-22T10:31:02Z</time></trkpt><trkpt lat="44.37225523453687" lon="9.098800531418378"><ele>49.0</ele><time>2026-03-22T10:31:03Z</time></trkpt><trkpt lat="44.37226443733352" lon="9.098648499690267"><ele>49.0</ele><time>2026-03-22T10:31:04Z</time></trkpt><trkpt lat="44.372274068707824" lon="9.09849591151495"><ele>49.0</ele><time>2026-03-22T10:31:05Z</time></trkpt><trkpt lat="44.37228478409363" lon="9.098338380530823"><ele>49.0</ele><time>2026-03-22T10:31:06Z</time></trkpt><trkpt lat="44.37229731918982" lon="9.098211203808379"><ele>49.0</ele><time>2026-03-22T10:31:07Z</time></trkpt><trkpt lat="44.37231769210739" lon="9.098087158512309"><ele>49.0</ele><time>2026-03-22T10:31:08Z</time></trkpt><trkpt lat="44.372342249209915" lon="9.097967401954511"><ele>48.666666666666664</ele><time>2026-03-22T10:31:09Z</time></trkpt><trkpt lat="44.372378456944276" lon="9.097846225313361"><ele>48.33333333333333</ele><time>2026-03-22T10:31:10Z</time></trkpt><trkpt lat="44.37241484056423" lon="9.097726226504154"><ele>48.0</ele><time>2026-03-22T10:31:11Z</time></trkpt><trkpt lat="44.37246904401228" lon="9.097624604498868"><ele>47.666666666666664</ele><time>2026-03-22T10:31:12Z</time></trkpt><trkpt lat="44.37252333028362" lon="9.097541925198454"><ele>47.33333333333333</ele><time>2026-03-22T10:31:13Z</time></trkpt><trkpt lat="44.37256007381435" lon="9.097424886682177"><ele>47.0</ele><time>2026-03-22T10:31:14Z</time></trkpt><trkpt lat="44.37260627341259" lon="9.097317158543133"><ele>46.2</ele><time>2026-03-22T10:31:15Z</time></trkpt><trkpt lat="44.37263753120799" lon="9.097220039051534"><ele>45.400000000000006</ele><time>2026-03-22T10:31:16Z</time></trkpt><trkpt lat="44.372660459696505" lon="9.097103418891706"><ele>44.599999999999994</ele><time>2026-03-22T10:31:17Z</time></trkpt><trkpt lat="44.372678306147925" lon="9.096975972662332"><ele>43.8</ele><time>2026-03-22T10:31:18Z</time></trkpt><trkpt lat="44.37268923929261" lon="9.096834121057695"><ele>43.0</ele><time>2026-03-22T10:31:19Z</time></trkpt><trkpt lat="44.37270397539642" lon="9.096687034300583"><ele>42.199999999999996</ele><time>2026-03-22T10:31:20Z</time></trkpt><trkpt lat="44.37270708593467" lon="9.09654390246735"><ele>41.4</ele><time>2026-03-22T10:31:21Z</time></trkpt><trkpt lat="44.372720103067124" lon="9.096403998191224"><ele>40.599999999999994</ele><time>2026-03-22T10:31:22Z</time></trkpt><trkpt lat="44.37273357786564" lon="9.096263485474912"><ele>39.8</ele><time>2026-03-22T10:31:23Z</time></trkpt><trkpt lat="44.37274434709797" lon="9.096124551122985"><ele>39.0</ele><time>2026-03-22T10:31:24Z</time></trkpt><trkpt lat="44.372762239847695" lon="9.095996783973588"><ele>39.0</ele><time>2026-03-22T10:31:25Z</time></trkpt><trkpt lat="44.3727661439059" lon="9.095887227962411"><ele>39.0</ele><time>2026-03-22T10:31:26Z</time></trkpt><trkpt lat="44.372754289716454" lon="9.095779491271497"><ele>39.0</ele><time>2026-03-22T10:31:27Z</time></trkpt><trkpt lat="44.37272864432272" lon="9.09568044950211"><ele>39.0</ele><time>2026-03-22T10:31:28Z</time></trkpt><trkpt lat="44.37269177976822" lon="9.095579019464218"><ele>39.0</ele><time>2026-03-22T10:31:29Z</time></trkpt><trkpt lat="44.372633530599614" lon="9.095453683919763"><ele>39.0</ele><time>2026-03-22T10:31:30Z</time></trkpt><trkpt lat="44.37258232225209" lon="9.095328940697405"><ele>41.4</ele><time>2026-03-22T10:31:31Z</time></trkpt><trkpt lat="44.372533122474614" lon="9.09519688487873"><ele>43.8</ele><time>2026-03-22T10:31:32Z</time></trkpt><trkpt lat="44.37248220509427" lon="9.095057926369329"><ele>46.199999999999996</ele><time>2026-03-22T10:31:33Z</time></trkpt><trkpt lat="44.37243709209553" lon="9.094920464851029"><ele>48.599999999999994</ele><time>2026-03-22T10:31:34Z</time></trkpt><trkpt lat="44.37239223966633" lon="9.094778188293201"><ele>51.0</ele><time>2026-03-22T10:31:35Z</time></trkpt><trkpt lat="44.37234737237027" lon="9.094637194167007"><ele>51.8</ele><time>2026-03-22T10:31:36Z</time></trkpt><trkpt lat="44.372323456386255" lon="9.094506421016275"><ele>52.599999999999994</ele><time>2026-03-22T10:31:37Z</time></trkpt><trkpt lat="44.37229826798773" lon="9.094369907822257"><ele>53.4</ele><time>2026-03-22T10:31:38Z</time></trkpt><trkpt lat="44.3722777702565" lon="9.094242324320263"><ele>54.2</ele><time>2026-03-22T10:31:39Z</time></trkpt><trkpt lat="44.372259354904635" lon="9.09410600021073"><ele>55.0</ele><time>2026-03-22T10:31:40Z</time></trkpt><trkpt lat="44.37223615021354" lon="9.093963769633625"><ele>54.99999999999999</ele><time>2026-03-22T10:31:41Z</time></trkpt><trkpt lat="44.372208996018216" lon="9.093856688978308"><ele>55.0</ele><time>2026-03-22T10:31:42Z</time></trkpt><trkpt lat="44.372192204696155" lon="9.093744378249305"><ele>55.0</ele><time>2026-03-22T10:31:43Z</time></trkpt><trkpt lat="44.37217928838339" lon="9.093643987880181"><ele>55.0</ele><time>2026-03-22T10:31:44Z</time></trkpt><trkpt lat="44.37217541610938" lon="9.093551481856423"><ele>54.99999999999999</ele><time>2026-03-22T10:31:45Z</time></trkpt><trkpt lat="44.372210122086194" lon="9.093462972752974"><ele>55.0</ele><time>2026-03-22T10:31:46Z</time></trkpt><trkpt lat="44.37228934019749" lon="9.093319019713858"><ele>53.166666666666664</ele><time>2026-03-22T10:31:48Z</time></trkpt><trkpt lat="44.37236848990536" lon="9.093235671512277"><ele>51.33333333333333</ele><time>2026-03-22T10:31:49Z</time></trkpt><trkpt lat="44.37243296925289" lon="9.09317010535664"><ele>49.5</ele><time>2026-03-22T10:31:50Z</time></trkpt><trkpt lat="44.37248206717717" lon="9.093109931282722"><ele>47.666666666666664</ele><time>2026-03-22T10:31:51Z</time></trkpt><trkpt lat="44.37252422788167" lon="9.0930293742374"><ele>45.83333333333333</ele><time>2026-03-22T10:31:52Z</time></trkpt><trkpt lat="44.372576809623666" lon="9.092877464137729"><ele>44.0</ele><time>2026-03-22T10:31:54Z</time></trkpt><trkpt lat="44.372578986330325" lon="9.092744485635807"><ele>44.0</ele><time>2026-03-22T10:31:55Z</time></trkpt><trkpt lat="44.372597709840576" lon="9.09260894199586"><ele>44.0</ele><time>2026-03-22T10:31:56Z</time></trkpt><trkpt lat="44.37260101429007" lon="9.0924586831885"><ele>44.0</ele><time>2026-03-22T10:31:57Z</time></trkpt><trkpt lat="44.372613899536034" lon="9.092315058313844"><ele>44.0</ele><time>2026-03-22T10:31:58Z</time></trkpt><trkpt lat="44.372627075315854" lon="9.092177881916513"><ele>44.0</ele><time>2026-03-22T10:31:59Z</time></trkpt><trkpt lat="44.3726416069035" lon="9.09204409092474"><ele>42.800000000000004</ele><time>2026-03-22T10:32:00Z</time></trkpt><trkpt lat="44.37267631703207" lon="9.091921056855178"><ele>41.6</ele><time>2026-03-22T10:32:01Z</time></trkpt><trkpt lat="44.37270473723055" lon="9.09178489081989"><ele>40.4</ele><time>2026-03-22T10:32:02Z</time></trkpt><trkpt lat="44.37273793776684" lon="9.09164644702949"><ele>39.2</ele><time>2026-03-22T10:32:03Z</time></trkpt><trkpt lat="44.372776690988644" lon="9.091511955396314"><ele>38.0</ele><time>2026-03-22T10:32:04Z</time></trkpt><trkpt lat="44.37282627354274" lon="9.091387183853417"><ele>37.6</ele><time>2026-03-22T10:32:05Z</time></trkpt><trkpt lat="44.37287039702489" lon="9.091261896668676"><ele>37.199999999999996</ele><time>2026-03-22T10:32:06Z</time></trkpt><trkpt lat="44.372902580829845" lon="9.091129627852402"><ele>36.8</ele><time>2026-03-22T10:32:07Z</time></trkpt><trkpt lat="44.372921621545956" lon="9.0909954750925"><ele>36.4</ele><time>2026-03-22T10:32:08Z</time></trkpt><trkpt lat="44.37292846189427" lon="9.090873369374917"><ele>36.0</ele><time>2026-03-22T10:32:09Z</time></trkpt><trkpt lat="44.372929635155614" lon="9.090732098640487"><ele>34.2</ele><time>2026-03-22T10:32:10Z</time></trkpt><trkpt lat="44.37290362841543" lon="9.09058373717157"><ele>32.400000000000006</ele><time>2026-03-22T10:32:11Z</time></trkpt><trkpt lat="44.3729053651151" lon="9.090444665391463"><ele>30.6</ele><time>2026-03-22T10:32:12Z</time></trkpt><trkpt lat="44.372918509327455" lon="9.090319484458067"><ele>28.8</ele><time>2026-03-22T10:32:13Z</time></trkpt><trkpt lat="44.37294907613569" lon="9.09018606259288"><ele>27.0</ele><time>2026-03-22T10:32:14Z</time></trkpt><trkpt lat="44.37297190602964" lon="9.090059097833302"><ele>27.0</ele><time>2026-03-22T10:32:15Z</time></trkpt><trkpt lat="44.37300502590021" lon="9.089943067981805"><ele>27.000000000000004</ele><time>2026-03-22T10:32:16Z</time></trkpt><trkpt lat="44.373056381614234" lon="9.089817372724324"><ele>27.000000000000004</ele><time>2026-03-22T10:32:17Z</time></trkpt><trkpt lat="44.373108552935825" lon="9.08969156319498"><ele>27.0</ele><time>2026-03-22T10:32:18Z</time></trkpt><trkpt lat="44.37315685436088" lon="9.089560397125544"><ele>27.0</ele><time>2026-03-22T10:32:19Z</time></trkpt><trkpt lat="44.37320718850139" lon="9.089422363232663"><ele>29.6</ele><time>2026-03-22T10:32:20Z</time></trkpt><trkpt lat="44.37325631567977" lon="9.08929617400496"><ele>32.2</ele><time>2026-03-22T10:32:21Z</time></trkpt><trkpt lat="44.373309827904926" lon="9.089180074848606"><ele>34.8</ele><time>2026-03-22T10:32:22Z</time></trkpt><trkpt lat="44.373357388639434" lon="9.089049990634877"><ele>37.4</ele><time>2026-03-22T10:32:23Z</time></trkpt><trkpt lat="44.373423851955835" lon="9.088935406716686"><ele>40.0</ele><time>2026-03-22T10:32:24Z</time></trkpt><trkpt lat="44.373479513755406" lon="9.088814937708342"><ele>40.0</ele><time>2026-03-22T10:32:25Z</time></trkpt><trkpt lat="44.373527445406054" lon="9.088693995454358"><ele>40.0</ele><time>2026-03-22T10:32:26Z</time></trkpt><trkpt lat="44.37357108881159" lon="9.08858236475486"><ele>40.0</ele><time>2026-03-22T10:32:27Z</time></trkpt><trkpt lat="44.37360535475853" lon="9.088470142415797"><ele>40.0</ele><time>2026-03-22T10:32:28Z</time></trkpt><trkpt lat="44.3736235240037" lon="9.088359899928967"><ele>40.0</ele><time>2026-03-22T10:32:29Z</time></trkpt><trkpt lat="44.37363135478235" lon="9.088259725541366"><ele>40.0</ele><time>2026-03-22T10:32:30Z</time></trkpt><trkpt lat="44.373618909502056" lon="9.088157740133864"><ele>40.6</ele><time>2026-03-22T10:32:31Z</time></trkpt><trkpt lat="44.373602826760994" lon="9.088067600507522"><ele>41.2</ele><time>2026-03-22T10:32:32Z</time></trkpt><trkpt lat="44.37353695795985" lon="9.087915016278282"><ele>41.8</ele><time>2026-03-22T10:32:34Z</time></trkpt><trkpt lat="44.37346519927776" lon="9.087837265693933"><ele>42.4</ele><time>2026-03-22T10:32:35Z</time></trkpt><trkpt lat="44.37339454132258" lon="9.087765416756927"><ele>43.0</ele><time>2026-03-22T10:32:36Z</time></trkpt><trkpt lat="44.37332858915111" lon="9.087680422414433"><ele>43.0</ele><time>2026-03-22T10:32:37Z</time></trkpt><trkpt lat="44.373277049267635" lon="9.08757828668933"><ele>43.0</ele><time>2026-03-22T10:32:38Z</time></trkpt><trkpt lat="44.37324909908903" lon="9.087493487609452"><ele>43.0</ele><time>2026-03-22T10:32:39Z</time></trkpt><trkpt lat="44.37324949476452" lon="9.087399275780523"><ele>43.0</ele><time>2026-03-22T10:32:40Z</time></trkpt><trkpt lat="44.37323925958487" lon="9.08729221107183"><ele>43.0</ele><time>2026-03-22T10:32:41Z</time></trkpt><trkpt lat="44.37323496034056" lon="9.087175963118515"><ele>43.0</ele><time>2026-03-22T10:32:42Z</time></trkpt><trkpt lat="44.373244780262304" lon="9.08705823340328"><ele>43.16666666666667</ele><time>2026-03-22T10:32:43Z</time></trkpt><trkpt lat="44.373262632048174" lon="9.086939730207984"><ele>43.333333333333336</ele><time>2026-03-22T10:32:44Z</time></trkpt><trkpt lat="44.37329157748181" lon="9.086835997303522"><ele>43.5</ele><time>2026-03-22T10:32:45Z</time></trkpt><trkpt lat="44.37333581678433" lon="9.086742555583053"><ele>43.666666666666664</ele><time>2026-03-22T10:32:46Z</time></trkpt><trkpt lat="44.373385169577205" lon="9.086641476151907"><ele>43.83333333333333</ele><time>2026-03-22T10:32:47Z</time></trkpt><trkpt lat="44.3734436543144" lon="9.086537607695345"><ele>44.0</ele><time>2026-03-22T10:32:48Z</time></trkpt><trkpt lat="44.37350692596719" lon="9.086428135128275"><ele>42.6</ele><time>2026-03-22T10:32:49Z</time></trkpt><trkpt lat="44.37356939044495" lon="9.086313128607982"><ele>41.2</ele><time>2026-03-22T10:32:50Z</time></trkpt><trkpt lat="44.37362953757789" lon="9.086181387819938"><ele>39.800000000000004</ele><time>2026-03-22T10:32:51Z</time></trkpt><trkpt lat="44.373703688133425" lon="9.08604960232963"><ele>38.400000000000006</ele><time>2026-03-22T10:32:52Z</time></trkpt><trkpt lat="44.37377722520039" lon="9.085937011873925"><ele>37.0</ele><time>2026-03-22T10:32:53Z</time></trkpt><trkpt lat="44.37383468435766" lon="9.08582576301539"><ele>37.333333333333336</ele><time>2026-03-22T10:32:54Z</time></trkpt><trkpt lat="44.37389089782291" lon="9.085727265277885"><ele>37.66666666666667</ele><time>2026-03-22T10:32:55Z</time></trkpt><trkpt lat="44.37396063675231" lon="9.085633314892863"><ele>38.0</ele><time>2026-03-22T10:32:56Z</time></trkpt><trkpt lat="44.37402672853426" lon="9.085512890348195"><ele>38.333333333333336</ele><time>2026-03-22T10:32:57Z</time></trkpt><trkpt lat="44.37408380781765" lon="9.085440679475216"><ele>38.666666666666664</ele><time>2026-03-22T10:32:58Z</time></trkpt><trkpt lat="44.374144056080816" lon="9.085380141215257"><ele>39.0</ele><time>2026-03-22T10:32:59Z</time></trkpt><trkpt lat="44.37420192688421" lon="9.08532372780329"><ele>39.0</ele><time>2026-03-22T10:33:00Z</time></trkpt><trkpt lat="44.37427056732669" lon="9.085279023753538"><ele>39.0</ele><time>2026-03-22T10:33:01Z</time></trkpt><trkpt lat="44.374349386636545" lon="9.085245259427362"><ele>39.0</ele><time>2026-03-22T10:33:02Z</time></trkpt><trkpt lat="44.37442354912082" lon="9.085215684779849"><ele>39.0</ele><time>2026-03-22T10:33:03Z</time></trkpt><trkpt lat="44.37449608885885" lon="9.085195950777475"><ele>39.0</ele><time>2026-03-22T10:33:04Z</time></trkpt><trkpt lat="44.37456244278181" lon="9.085172381780877"><ele>39.0</ele><time>2026-03-22T10:33:05Z</time></trkpt><trkpt lat="44.37462150075443" lon="9.085138911155335"><ele>39.0</ele><time>2026-03-22T10:33:06Z</time></trkpt><trkpt lat="44.37474097776864" lon="9.084975363578335"><ele>39.2</ele><time>2026-03-22T10:33:08Z</time></trkpt><trkpt lat="44.37479983639376" lon="9.084872297710666"><ele>39.4</ele><time>2026-03-22T10:33:09Z</time></trkpt><trkpt lat="44.374857166449466" lon="9.08476395817409"><ele>39.6</ele><time>2026-03-22T10:33:10Z</time></trkpt><trkpt lat="44.37491554703645" lon="9.08466112884297"><ele>39.8</ele><time>2026-03-22T10:33:11Z</time></trkpt><trkpt lat="44.37497783991573" lon="9.084572027371188"><ele>40.0</ele><time>2026-03-22T10:33:12Z</time></trkpt><trkpt lat="44.37503988705071" lon="9.0845072515428"><ele>40.0</ele><time>2026-03-22T10:33:13Z</time></trkpt><trkpt lat="44.37510678383521" lon="9.084429920644219"><ele>40.0</ele><time>2026-03-22T10:33:14Z</time></trkpt><trkpt lat="44.375176579310924" lon="9.084361957339638"><ele>40.0</ele><time>2026-03-22T10:33:15Z</time></trkpt><trkpt lat="44.37525123347949" lon="9.084283706722152"><ele>40.0</ele><time>2026-03-22T10:33:16Z</time></trkpt><trkpt lat="44.375321806744125" lon="9.084187218363324"><ele>40.0</ele><time>2026-03-22T10:33:17Z</time></trkpt><trkpt lat="44.37539463545906" lon="9.08410751895654"><ele>37.6</ele><time>2026-03-22T10:33:18Z</time></trkpt><trkpt lat="44.37545921224715" lon="9.084017955068584"><ele>35.2</ele><time>2026-03-22T10:33:19Z</time></trkpt><trkpt lat="44.37551301398137" lon="9.083928226916955"><ele>32.8</ele><time>2026-03-22T10:33:20Z</time></trkpt><trkpt lat="44.375563741666504" lon="9.083808943449819"><ele>30.4</ele><time>2026-03-22T10:33:21Z</time></trkpt><trkpt lat="44.375610013170295" lon="9.083686533210964"><ele>28.0</ele><time>2026-03-22T10:33:22Z</time></trkpt><trkpt lat="44.37565102200434" lon="9.083571426320688"><ele>28.799999999999997</ele><time>2026-03-22T10:33:23Z</time></trkpt><trkpt lat="44.37568713978829" lon="9.083448130809883"><ele>29.599999999999998</ele><time>2026-03-22T10:33:24Z</time></trkpt><trkpt lat="44.37571861874902" lon="9.083323615842778"><ele>30.400000000000002</ele><time>2026-03-22T10:33:25Z</time></trkpt><trkpt lat="44.37575406741061" lon="9.083212148770139"><ele>31.200000000000003</ele><time>2026-03-22T10:33:26Z</time></trkpt><trkpt lat="44.37578560850343" lon="9.083095463828"><ele>32.0</ele><time>2026-03-22T10:33:27Z</time></trkpt><trkpt lat="44.37582160015282" lon="9.08298199158033"><ele>32.0</ele><time>2026-03-22T10:33:28Z</time></trkpt><trkpt lat="44.37585232150599" lon="9.082857946660694"><ele>32.0</ele><time>2026-03-22T10:33:29Z</time></trkpt><trkpt lat="44.375894421907404" lon="9.082742317173885"><ele>32.0</ele><time>2026-03-22T10:33:30Z</time></trkpt><trkpt lat="44.375928453807155" lon="9.082617100796593"><ele>32.0</ele><time>2026-03-22T10:33:31Z</time></trkpt><trkpt lat="44.37596684438683" lon="9.082486621251192"><ele>32.0</ele><time>2026-03-22T10:33:32Z</time></trkpt><trkpt lat="44.37600738066747" lon="9.082381094272947"><ele>30.499999999999996</ele><time>2026-03-22T10:33:33Z</time></trkpt><trkpt lat="44.376035837076856" lon="9.082268422149763"><ele>29.0</ele><time>2026-03-22T10:33:34Z</time></trkpt><trkpt lat="44.37606838440255" lon="9.08214992011089"><ele>27.5</ele><time>2026-03-22T10:33:35Z</time></trkpt><trkpt lat="44.376098951816516" lon="9.082051996801365"><ele>26.0</ele><time>2026-03-22T10:33:36Z</time></trkpt><trkpt lat="44.37612976868821" lon="9.081942566246461"><ele>24.5</ele><time>2026-03-22T10:33:37Z</time></trkpt><trkpt lat="44.376159534624136" lon="9.081822350664803"><ele>23.0</ele><time>2026-03-22T10:33:38Z</time></trkpt><trkpt lat="44.376192144177416" lon="9.081695261839817"><ele>22.0</ele><time>2026-03-22T10:33:39Z</time></trkpt><trkpt lat="44.37622595188674" lon="9.081578550105483"><ele>21.0</ele><time>2026-03-22T10:33:40Z</time></trkpt><trkpt lat="44.37625370404525" lon="9.081468119903036"><ele>20.0</ele><time>2026-03-22T10:33:41Z</time></trkpt><trkpt lat="44.37629675687524" lon="9.08137197896183"><ele>19.0</ele><time>2026-03-22T10:33:42Z</time></trkpt><trkpt lat="44.37635015130442" lon="9.081314631002293"><ele>18.0</ele><time>2026-03-22T10:33:43Z</time></trkpt><trkpt lat="44.37641067351645" lon="9.081246839735172"><ele>17.0</ele><time>2026-03-22T10:33:44Z</time></trkpt><trkpt lat="44.376479627237835" lon="9.081169780969894"><ele>20.6</ele><time>2026-03-22T10:33:45Z</time></trkpt><trkpt lat="44.37655938143343" lon="9.081098096949798"><ele>24.2</ele><time>2026-03-22T10:33:46Z</time></trkpt><trkpt lat="44.37663513389133" lon="9.081024178817804"><ele>27.8</ele><time>2026-03-22T10:33:47Z</time></trkpt><trkpt lat="44.37670758921149" lon="9.080940539676448"><ele>31.4</ele><time>2026-03-22T10:33:48Z</time></trkpt><trkpt lat="44.37677157138895" lon="9.08085311741053"><ele>35.0</ele><time>2026-03-22T10:33:49Z</time></trkpt><trkpt lat="44.376828959463815" lon="9.080746910809882"><ele>35.0</ele><time>2026-03-22T10:33:50Z</time></trkpt><trkpt lat="44.37688086966344" lon="9.080638814590769"><ele>35.0</ele><time>2026-03-22T10:33:51Z</time></trkpt><trkpt lat="44.376933190195615" lon="9.08052162437602"><ele>35.0</ele><time>2026-03-22T10:33:52Z</time></trkpt><trkpt lat="44.37698971959548" lon="9.080402905227153"><ele>35.0</ele><time>2026-03-22T10:33:53Z</time></trkpt><trkpt lat="44.37704816554934" lon="9.08028007791063"><ele>35.0</ele><time>2026-03-22T10:33:54Z</time></trkpt><trkpt lat="44.37712652992764" lon="9.080176832320674"><ele>35.0</ele><time>2026-03-22T10:33:55Z</time></trkpt><trkpt lat="44.377180990398685" lon="9.080062030654423"><ele>35.0</ele><time>2026-03-22T10:33:56Z</time></trkpt><trkpt lat="44.37722877012878" lon="9.079954777275809"><ele>35.0</ele><time>2026-03-22T10:33:57Z</time></trkpt><trkpt lat="44.37727195691008" lon="9.079842946507975"><ele>35.0</ele><time>2026-03-22T10:33:58Z</time></trkpt><trkpt lat="44.37730361610507" lon="9.079742494900175"><ele>35.0</ele><time>2026-03-22T10:33:59Z</time></trkpt><trkpt lat="44.377310785596194" lon="9.079625900442155"><ele>35.0</ele><time>2026-03-22T10:34:00Z</time></trkpt><trkpt lat="44.377324992107184" lon="9.079516578953891"><ele>37.666666666666664</ele><time>2026-03-22T10:34:01Z</time></trkpt><trkpt lat="44.377333589344865" lon="9.07940034452749"><ele>40.33333333333333</ele><time>2026-03-22T10:34:02Z</time></trkpt><trkpt lat="44.3773345704846" lon="9.079285025827721"><ele>43.0</ele><time>2026-03-22T10:34:03Z</time></trkpt><trkpt lat="44.37733982273454" lon="9.07918049361755"><ele>45.666666666666664</ele><time>2026-03-22T10:34:04Z</time></trkpt><trkpt lat="44.37734695002364" lon="9.079070445062714"><ele>48.333333333333336</ele><time>2026-03-22T10:34:05Z</time></trkpt><trkpt lat="44.37735476944853" lon="9.07896922609301"><ele>51.0</ele><time>2026-03-22T10:34:06Z</time></trkpt><trkpt lat="44.37735750100806" lon="9.078881137345245"><ele>51.0</ele><time>2026-03-22T10:34:07Z</time></trkpt><trkpt lat="44.37736921444206" lon="9.078729730225916"><ele>51.0</ele><time>2026-03-22T10:34:09Z</time></trkpt><trkpt lat="44.37737009013856" lon="9.078624878974617"><ele>51.0</ele><time>2026-03-22T10:34:11Z</time></trkpt><trkpt lat="44.377410594868145" lon="9.078541073318405"><ele>51.0</ele><time>2026-03-22T10:34:23Z</time></trkpt><trkpt lat="44.37740730504319" lon="9.07843028253952"><ele>51.0</ele><time>2026-03-22T10:34:25Z</time></trkpt><trkpt lat="44.377411300385226" lon="9.07829349783836"><ele>51.0</ele><time>2026-03-22T10:34:27Z</time></trkpt><trkpt lat="44.37740315238895" lon="9.078170443863687"><ele>49.5</ele><time>2026-03-22T10:34:29Z</time></trkpt><trkpt lat="44.37742473308994" lon="9.078040679174947"><ele>48.0</ele><time>2026-03-22T10:34:31Z</time></trkpt><trkpt lat="44.37745160910428" lon="9.077944196242052"><ele>46.5</ele><time>2026-03-22T10:34:34Z</time></trkpt><trkpt lat="44.37748101274425" lon="9.07783281838814"><ele>45.0</ele><time>2026-03-22T10:34:36Z</time></trkpt><trkpt lat="44.37749671895909" lon="9.077744180170152"><ele>43.5</ele><time>2026-03-22T10:34:37Z</time></trkpt><trkpt lat="44.37751616709852" lon="9.077660207955532"><ele>42.0</ele><time>2026-03-22T10:34:38Z</time></trkpt><trkpt lat="44.377530110822555" lon="9.077556287444956"><ele>40.833333333333336</ele><time>2026-03-22T10:34:39Z</time></trkpt><trkpt lat="44.37756278579708" lon="9.077373985331244"><ele>39.666666666666664</ele><time>2026-03-22T10:34:41Z</time></trkpt><trkpt lat="44.37758292263745" lon="9.077280815252221"><ele>38.5</ele><time>2026-03-22T10:34:42Z</time></trkpt><trkpt lat="44.37760124575887" lon="9.077180250153718"><ele>37.33333333333333</ele><time>2026-03-22T10:34:43Z</time></trkpt><trkpt lat="44.37762229337472" lon="9.07707840244614"><ele>36.166666666666664</ele><time>2026-03-22T10:34:44Z</time></trkpt><trkpt lat="44.377661661310945" lon="9.07697498925235"><ele>35.0</ele><time>2026-03-22T10:34:45Z</time></trkpt><trkpt lat="44.377683316072584" lon="9.076853070903896"><ele>35.0</ele><time>2026-03-22T10:34:46Z</time></trkpt><trkpt lat="44.377702245875845" lon="9.07672589482183"><ele>35.0</ele><time>2026-03-22T10:34:47Z</time></trkpt><trkpt lat="44.377723785222514" lon="9.076595902446018"><ele>35.0</ele><time>2026-03-22T10:34:48Z</time></trkpt><trkpt lat="44.37774944508395" lon="9.076495953484974"><ele>35.0</ele><time>2026-03-22T10:34:49Z</time></trkpt><trkpt lat="44.3777755160245" lon="9.076388651198684"><ele>35.0</ele><time>2026-03-22T10:34:50Z</time></trkpt><trkpt lat="44.37779683525839" lon="9.076275909945199"><ele>35.0</ele><time>2026-03-22T10:34:51Z</time></trkpt><trkpt lat="44.37781987191082" lon="9.076166315140847"><ele>35.33333333333333</ele><time>2026-03-22T10:34:52Z</time></trkpt><trkpt lat="44.37784012814407" lon="9.07605946690734"><ele>35.666666666666664</ele><time>2026-03-22T10:34:53Z</time></trkpt><trkpt lat="44.37786240984755" lon="9.075948342967434"><ele>36.0</ele><time>2026-03-22T10:34:54Z</time></trkpt><trkpt lat="44.37787989092125" lon="9.075840807838926"><ele>36.333333333333336</ele><time>2026-03-22T10:34:55Z</time></trkpt><trkpt lat="44.377903448162975" lon="9.075711850311132"><ele>36.66666666666667</ele><time>2026-03-22T10:34:56Z</time></trkpt><trkpt lat="44.37793333966831" lon="9.07560213762033"><ele>37.0</ele><time>2026-03-22T10:34:57Z</time></trkpt><trkpt lat="44.3779526396428" lon="9.075473735418715"><ele>36.333333333333336</ele><time>2026-03-22T10:34:58Z</time></trkpt><trkpt lat="44.37797899586626" lon="9.075357254249345"><ele>35.66666666666667</ele><time>2026-03-22T10:34:59Z</time></trkpt><trkpt lat="44.37800474292144" lon="9.075251069208258"><ele>35.0</ele><time>2026-03-22T10:35:00Z</time></trkpt><trkpt lat="44.378030383642994" lon="9.075144725355111"><ele>34.333333333333336</ele><time>2026-03-22T10:35:01Z</time></trkpt><trkpt lat="44.37806147643375" lon="9.07502713161286"><ele>33.666666666666664</ele><time>2026-03-22T10:35:02Z</time></trkpt><trkpt lat="44.37808744621246" lon="9.07490873199534"><ele>33.0</ele><time>2026-03-22T10:35:03Z</time></trkpt><trkpt lat="44.378112514567746" lon="9.074799447394355"><ele>34.333333333333336</ele><time>2026-03-22T10:35:04Z</time></trkpt><trkpt lat="44.378137779727524" lon="9.074691858349418"><ele>35.666666666666664</ele><time>2026-03-22T10:35:05Z</time></trkpt><trkpt lat="44.378162425319" lon="9.074573785432822"><ele>37.0</ele><time>2026-03-22T10:35:06Z</time></trkpt><trkpt lat="44.378191071707015" lon="9.074459348690773"><ele>38.33333333333333</ele><time>2026-03-22T10:35:07Z</time></trkpt><trkpt lat="44.37821652595269" lon="9.074341346440663"><ele>39.666666666666664</ele><time>2026-03-22T10:35:08Z</time></trkpt><trkpt lat="44.37824017058088" lon="9.074208879909614"><ele>41.0</ele><time>2026-03-22T10:35:09Z</time></trkpt><trkpt lat="44.37826306517399" lon="9.074079147670295"><ele>41.0</ele><time>2026-03-22T10:35:10Z</time></trkpt><trkpt lat="44.37828652367307" lon="9.073969571060882"><ele>41.0</ele><time>2026-03-22T10:35:11Z</time></trkpt><trkpt lat="44.37830571091895" lon="9.073836912917601"><ele>41.0</ele><time>2026-03-22T10:35:12Z</time></trkpt><trkpt lat="44.37833918891602" lon="9.07369180674345"><ele>41.0</ele><time>2026-03-22T10:35:13Z</time></trkpt><trkpt lat="44.37837387222779" lon="9.073547211325431"><ele>41.0</ele><time>2026-03-22T10:35:14Z</time></trkpt><trkpt lat="44.378407934834165" lon="9.073407006485812"><ele>40.199999999999996</ele><time>2026-03-22T10:35:15Z</time></trkpt><trkpt lat="44.37844107179214" lon="9.073262319412803"><ele>39.4</ele><time>2026-03-22T10:35:16Z</time></trkpt><trkpt lat="44.37847233724001" lon="9.07311249122115"><ele>38.6</ele><time>2026-03-22T10:35:17Z</time></trkpt><trkpt lat="44.37849993185432" lon="9.072986498547316"><ele>37.8</ele><time>2026-03-22T10:35:18Z</time></trkpt><trkpt lat="44.37852749338514" lon="9.07285839310452"><ele>37.0</ele><time>2026-03-22T10:35:19Z</time></trkpt><trkpt lat="44.37855246676301" lon="9.072728371106585"><ele>37.0</ele><time>2026-03-22T10:35:20Z</time></trkpt><trkpt lat="44.378569790503796" lon="9.072599925187548"><ele>37.0</ele><time>2026-03-22T10:35:21Z</time></trkpt><trkpt lat="44.378579415156004" lon="9.072483253205585"><ele>37.0</ele><time>2026-03-22T10:35:22Z</time></trkpt><trkpt lat="44.37859354113789" lon="9.072335612697643"><ele>37.0</ele><time>2026-03-22T10:35:23Z</time></trkpt><trkpt lat="44.37860480942194" lon="9.07217724960941"><ele>37.0</ele><time>2026-03-22T10:35:24Z</time></trkpt><trkpt lat="44.37860569183182" lon="9.072031792929813"><ele>36.6</ele><time>2026-03-22T10:35:25Z</time></trkpt><trkpt lat="44.37860234780212" lon="9.07187492725039"><ele>36.2</ele><time>2026-03-22T10:35:26Z</time></trkpt><trkpt lat="44.37860444778722" lon="9.071718207321227"><ele>35.8</ele><time>2026-03-22T10:35:27Z</time></trkpt><trkpt lat="44.37861752164862" lon="9.071570794388522"><ele>35.4</ele><time>2026-03-22T10:35:28Z</time></trkpt><trkpt lat="44.37862858865779" lon="9.071415141499044"><ele>35.0</ele><time>2026-03-22T10:35:29Z</time></trkpt><trkpt lat="44.37865222280725" lon="9.071274369482662"><ele>35.4</ele><time>2026-03-22T10:35:30Z</time></trkpt><trkpt lat="44.378679273070624" lon="9.071142421423854"><ele>35.8</ele><time>2026-03-22T10:35:31Z</time></trkpt><trkpt lat="44.37871253414589" lon="9.071032702041657"><ele>36.2</ele><time>2026-03-22T10:35:32Z</time></trkpt><trkpt lat="44.37875253118214" lon="9.07090015369883"><ele>36.6</ele><time>2026-03-22T10:35:33Z</time></trkpt><trkpt lat="44.37879980426772" lon="9.070779028122466"><ele>37.0</ele><time>2026-03-22T10:35:34Z</time></trkpt><trkpt lat="44.37885307077518" lon="9.070661279531517"><ele>37.0</ele><time>2026-03-22T10:35:35Z</time></trkpt><trkpt lat="44.37891441309351" lon="9.070541193587465"><ele>37.0</ele><time>2026-03-22T10:35:36Z</time></trkpt><trkpt lat="44.378982731062536" lon="9.070443413866226"><ele>37.0</ele><time>2026-03-22T10:35:37Z</time></trkpt><trkpt lat="44.37905464937763" lon="9.070342233502364"><ele>37.0</ele><time>2026-03-22T10:35:38Z</time></trkpt><trkpt lat="44.37913516930093" lon="9.070249909326515"><ele>37.0</ele><time>2026-03-22T10:35:39Z</time></trkpt><trkpt lat="44.379218980675425" lon="9.070161813173659"><ele>37.0</ele><time>2026-03-22T10:35:40Z</time></trkpt><trkpt lat="44.37930659417578" lon="9.070067711513811"><ele>37.0</ele><time>2026-03-22T10:35:41Z</time></trkpt><trkpt lat="44.379379575398836" lon="9.069991289018601"><ele>37.0</ele><time>2026-03-22T10:35:42Z</time></trkpt><trkpt lat="44.37945883406386" lon="9.069892669835767"><ele>37.0</ele><time>2026-03-22T10:35:43Z</time></trkpt><trkpt lat="44.379530213038095" lon="9.069776170248373"><ele>37.0</ele><time>2026-03-22T10:35:44Z</time></trkpt><trkpt lat="44.379593077646604" lon="9.069656819607152"><ele>35.800000000000004</ele><time>2026-03-22T10:35:45Z</time></trkpt><trkpt lat="44.379656084794014" lon="9.069543744760713"><ele>34.6</ele><time>2026-03-22T10:35:46Z</time></trkpt><trkpt lat="44.37971740921895" lon="9.069431906658627"><ele>33.400000000000006</ele><time>2026-03-22T10:35:47Z</time></trkpt><trkpt lat="44.379784671682344" lon="9.06933413658985"><ele>32.2</ele><time>2026-03-22T10:35:48Z</time></trkpt><trkpt lat="44.37985252940788" lon="9.069238460081348"><ele>31.0</ele><time>2026-03-22T10:35:49Z</time></trkpt><trkpt lat="44.37992888150576" lon="9.069154886597435"><ele>27.8</ele><time>2026-03-22T10:35:50Z</time></trkpt><trkpt lat="44.38001201456407" lon="9.06907130158496"><ele>24.6</ele><time>2026-03-22T10:35:51Z</time></trkpt><trkpt lat="44.38009768071982" lon="9.068993320447372"><ele>21.4</ele><time>2026-03-22T10:35:52Z</time></trkpt><trkpt lat="44.380182457388216" lon="9.068906938676136"><ele>18.2</ele><time>2026-03-22T10:35:53Z</time></trkpt><trkpt lat="44.38026271640725" lon="9.068815452537143"><ele>15.0</ele><time>2026-03-22T10:35:54Z</time></trkpt><trkpt lat="44.38032610544132" lon="9.068700658630624"><ele>15.0</ele><time>2026-03-22T10:35:55Z</time></trkpt><trkpt lat="44.38037850675956" lon="9.06857532305271"><ele>15.0</ele><time>2026-03-22T10:35:56Z</time></trkpt><trkpt lat="44.380420596188095" lon="9.068445464269791"><ele>15.0</ele><time>2026-03-22T10:35:57Z</time></trkpt><trkpt lat="44.38045066821315" lon="9.068314250674891"><ele>15.0</ele><time>2026-03-22T10:35:58Z</time></trkpt><trkpt lat="44.38046797437668" lon="9.068179904704378"><ele>15.0</ele><time>2026-03-22T10:35:59Z</time></trkpt><trkpt lat="44.38048389428155" lon="9.06805749137307"><ele>17.5</ele><time>2026-03-22T10:36:00Z</time></trkpt><trkpt lat="44.3804794426247" lon="9.067951988911574"><ele>20.0</ele><time>2026-03-22T10:36:01Z</time></trkpt><trkpt lat="44.380454538254995" lon="9.06783699250906"><ele>22.5</ele><time>2026-03-22T10:36:02Z</time></trkpt><trkpt lat="44.38042615917675" lon="9.067746824350214"><ele>25.0</ele><time>2026-03-22T10:36:03Z</time></trkpt><trkpt lat="44.38039579065381" lon="9.067647569256078"><ele>27.5</ele><time>2026-03-22T10:36:04Z</time></trkpt><trkpt lat="44.380359201189535" lon="9.067551504256418"><ele>30.0</ele><time>2026-03-22T10:36:05Z</time></trkpt><trkpt lat="44.38031346312427" lon="9.067454603126777"><ele>34.6</ele><time>2026-03-22T10:36:06Z</time></trkpt><trkpt lat="44.38025435631861" lon="9.067354697352785"><ele>39.2</ele><time>2026-03-22T10:36:07Z</time></trkpt><trkpt lat="44.380197695919485" lon="9.067254657902962"><ele>43.8</ele><time>2026-03-22T10:36:08Z</time></trkpt><trkpt lat="44.380136003688584" lon="9.067147995200056"><ele>48.4</ele><time>2026-03-22T10:36:09Z</time></trkpt><trkpt lat="44.38007658375754" lon="9.067046538140733"><ele>53.0</ele><time>2026-03-22T10:36:10Z</time></trkpt><trkpt lat="44.3800156543731" lon="9.066945010982796"><ele>53.0</ele><time>2026-03-22T10:36:11.017Z</time></trkpt><trkpt lat="44.37995474058608" lon="9.066840480982096"><ele>53.0</ele><time>2026-03-22T10:36:12.016Z</time></trkpt><trkpt lat="44.37988805787198" lon="9.066722939546102"><ele>53.0</ele><time>2026-03-22T10:36:13.018Z</time></trkpt><trkpt lat="44.3798149429729" lon="9.066592800694186"><ele>53.0</ele><time>2026-03-22T10:36:14.016Z</time></trkpt><trkpt lat="44.37974935080037" lon="9.066478082069397"><ele>53.0</ele><time>2026-03-22T10:36:15.013Z</time></trkpt><trkpt lat="44.379685917312514" lon="9.066367228513325"><ele>46.333333333333336</ele><time>2026-03-22T10:36:16.015Z</time></trkpt><trkpt lat="44.379605545052385" lon="9.06622481972409"><ele>39.66666666666667</ele><time>2026-03-22T10:36:17.02Z</time></trkpt><trkpt lat="44.37944109645312" lon="9.065929165292868"><ele>33.0</ele><time>2026-03-22T10:36:18.013Z</time></trkpt><trkpt lat="44.37936360325501" lon="9.065837424038081"><ele>32.857142857142854</ele><time>2026-03-22T10:36:20Z</time></trkpt><trkpt lat="44.379335196496875" lon="9.065757848752039"><ele>32.714285714285715</ele><time>2026-03-22T10:36:21Z</time></trkpt><trkpt lat="44.37935225763006" lon="9.065663448415979"><ele>32.57142857142857</ele><time>2026-03-22T10:36:24Z</time></trkpt><trkpt lat="44.379348988377146" lon="9.065572900706718"><ele>32.42857142857143</ele><time>2026-03-22T10:36:39Z</time></trkpt><trkpt lat="44.37934028897523" lon="9.065455725719255"><ele>32.285714285714285</ele><time>2026-03-22T10:36:41Z</time></trkpt><trkpt lat="44.37934743299997" lon="9.065368048871727"><ele>32.14285714285714</ele><time>2026-03-22T10:36:43Z</time></trkpt><trkpt lat="44.3793350375878" lon="9.065223206696514"><ele>32.0</ele><time>2026-03-22T10:36:45Z</time></trkpt><trkpt lat="44.379326938817925" lon="9.065046401144919"><ele>32.0</ele><time>2026-03-22T10:36:47Z</time></trkpt><trkpt lat="44.379312641200805" lon="9.064876006058595"><ele>32.0</ele><time>2026-03-22T10:36:49Z</time></trkpt><trkpt lat="44.37930439167022" lon="9.064710991885216"><ele>32.0</ele><time>2026-03-22T10:36:51Z</time></trkpt><trkpt lat="44.3793005672555" lon="9.064523759838053"><ele>32.0</ele><time>2026-03-22T10:36:53Z</time></trkpt><trkpt lat="44.37929915420002" lon="9.064405623437855"><ele>31.999999999999996</ele><time>2026-03-22T10:36:54Z</time></trkpt><trkpt lat="44.379295957431786" lon="9.064296713371956"><ele>32.0</ele><time>2026-03-22T10:36:55Z</time></trkpt><trkpt lat="44.37930601201102" lon="9.064198584209462"><ele>32.0</ele><time>2026-03-22T10:36:56Z</time></trkpt><trkpt lat="44.379315096362305" lon="9.06409561197872"><ele>32.0</ele><time>2026-03-22T10:36:57Z</time></trkpt><trkpt lat="44.37933214501272" lon="9.063977992267187"><ele>31.999999999999996</ele><time>2026-03-22T10:36:58Z</time></trkpt><trkpt lat="44.37934525109076" lon="9.063853764854244"><ele>32.0</ele><time>2026-03-22T10:36:59Z</time></trkpt><trkpt lat="44.37936510705967" lon="9.063725718518826"><ele>31.8</ele><time>2026-03-22T10:37:00Z</time></trkpt><trkpt lat="44.37938002048771" lon="9.063600227742306"><ele>31.6</ele><time>2026-03-22T10:37:01Z</time></trkpt><trkpt lat="44.37939986111344" lon="9.063459591481875"><ele>31.400000000000002</ele><time>2026-03-22T10:37:02Z</time></trkpt><trkpt lat="44.37941942886001" lon="9.063315936871039"><ele>31.200000000000003</ele><time>2026-03-22T10:37:03Z</time></trkpt><trkpt lat="44.379435244573784" lon="9.063171391594247"><ele>31.0</ele><time>2026-03-22T10:37:04Z</time></trkpt><trkpt lat="44.37945525480793" lon="9.06304270729847"><ele>30.000000000000004</ele><time>2026-03-22T10:37:05Z</time></trkpt><trkpt lat="44.37947363305565" lon="9.062917085327612"><ele>29.0</ele><time>2026-03-22T10:37:06Z</time></trkpt><trkpt lat="44.37950154454553" lon="9.062804807636148"><ele>28.0</ele><time>2026-03-22T10:37:07Z</time></trkpt><trkpt lat="44.37952131946878" lon="9.062684410022243"><ele>27.0</ele><time>2026-03-22T10:37:08Z</time></trkpt><trkpt lat="44.37955247190992" lon="9.062573092013714"><ele>26.000000000000004</ele><time>2026-03-22T10:37:09Z</time></trkpt><trkpt lat="44.37958953305169" lon="9.062466895112516"><ele>25.0</ele><time>2026-03-22T10:37:10Z</time></trkpt><trkpt lat="44.37963056349452" lon="9.062365692159974"><ele>27.500000000000004</ele><time>2026-03-22T10:37:11Z</time></trkpt><trkpt lat="44.379690040304475" lon="9.062261090839998"><ele>30.0</ele><time>2026-03-22T10:37:12Z</time></trkpt><trkpt lat="44.379750709843336" lon="9.062181121548507"><ele>32.5</ele><time>2026-03-22T10:37:13Z</time></trkpt><trkpt lat="44.379789192345584" lon="9.062093374052427"><ele>35.0</ele><time>2026-03-22T10:37:14Z</time></trkpt><trkpt lat="44.3798435977565" lon="9.061997572012245"><ele>37.5</ele><time>2026-03-22T10:37:15Z</time></trkpt><trkpt lat="44.37990317178483" lon="9.061928987054927"><ele>40.0</ele><time>2026-03-22T10:37:16Z</time></trkpt><trkpt lat="44.37997860515833" lon="9.061819097063365"><ele>40.0</ele><time>2026-03-22T10:37:17Z</time></trkpt><trkpt lat="44.38002488255998" lon="9.061732086635594"><ele>40.0</ele><time>2026-03-22T10:37:18Z</time></trkpt><trkpt lat="44.38006134974507" lon="9.061653168853073"><ele>40.0</ele><time>2026-03-22T10:37:19Z</time></trkpt><trkpt lat="44.38010927677115" lon="9.061505682215035"><ele>40.0</ele><time>2026-03-22T10:37:21Z</time></trkpt><trkpt lat="44.38013596835327" lon="9.061397080842736"><ele>40.0</ele><time>2026-03-22T10:37:23Z</time></trkpt><trkpt lat="44.38018768432155" lon="9.061316846861718"><ele>40.0</ele><time>2026-03-22T10:38:14Z</time></trkpt><trkpt lat="44.38020553490371" lon="9.061207001261566"><ele>39.4</ele><time>2026-03-22T10:38:16Z</time></trkpt><trkpt lat="44.38021902058424" lon="9.061083361041197"><ele>38.8</ele><time>2026-03-22T10:38:18Z</time></trkpt><trkpt lat="44.38024359818188" lon="9.060932989758811"><ele>38.2</ele><time>2026-03-22T10:38:20Z</time></trkpt><trkpt lat="44.38027379496034" lon="9.060777421060509"><ele>37.6</ele><time>2026-03-22T10:38:22Z</time></trkpt><trkpt lat="44.3803046866184" lon="9.060619540778708"><ele>37.0</ele><time>2026-03-22T10:38:24Z</time></trkpt><trkpt lat="44.38032781579973" lon="9.06044725957313"><ele>37.0</ele><time>2026-03-22T10:38:26Z</time></trkpt><trkpt lat="44.38033881541497" lon="9.06027023897162"><ele>37.0</ele><time>2026-03-22T10:38:28Z</time></trkpt><trkpt lat="44.38033970229895" lon="9.060164024162681"><ele>37.0</ele><time>2026-03-22T10:38:29Z</time></trkpt><trkpt lat="44.38033956033387" lon="9.060071374207403"><ele>37.0</ele><time>2026-03-22T10:38:30Z</time></trkpt><trkpt lat="44.380340611865506" lon="9.059911883767876"><ele>37.0</ele><time>2026-03-22T10:38:32Z</time></trkpt><trkpt lat="44.38033928433555" lon="9.059818929055615"><ele>36.16666666666667</ele><time>2026-03-22T10:38:33Z</time></trkpt><trkpt lat="44.380342125315764" lon="9.05972437089134"><ele>35.333333333333336</ele><time>2026-03-22T10:38:34Z</time></trkpt><trkpt lat="44.380341237272894" lon="9.059614976615464"><ele>34.5</ele><time>2026-03-22T10:38:35Z</time></trkpt><trkpt lat="44.38034044164654" lon="9.059501544102044"><ele>33.666666666666664</ele><time>2026-03-22T10:38:36Z</time></trkpt><trkpt lat="44.380347105473795" lon="9.05938317998557"><ele>32.83333333333333</ele><time>2026-03-22T10:38:37Z</time></trkpt><trkpt lat="44.380355336530016" lon="9.05926689234304"><ele>32.0</ele><time>2026-03-22T10:38:38Z</time></trkpt><trkpt lat="44.3803774668449" lon="9.059160902860393"><ele>29.0</ele><time>2026-03-22T10:38:39Z</time></trkpt><trkpt lat="44.3804032694087" lon="9.059023576875258"><ele>26.000000000000004</ele><time>2026-03-22T10:38:40Z</time></trkpt><trkpt lat="44.38043736069865" lon="9.058894077112706"><ele>23.0</ele><time>2026-03-22T10:38:41Z</time></trkpt><trkpt lat="44.380469210721934" lon="9.058744341942358"><ele>20.0</ele><time>2026-03-22T10:38:42Z</time></trkpt><trkpt lat="44.38051719685434" lon="9.058622676095654"><ele>17.0</ele><time>2026-03-22T10:38:43Z</time></trkpt><trkpt lat="44.380536096029864" lon="9.058465567390424"><ele>24.4</ele><time>2026-03-22T10:38:44Z</time></trkpt><trkpt lat="44.3805556619592" lon="9.058329626866719"><ele>31.8</ele><time>2026-03-22T10:38:45Z</time></trkpt><trkpt lat="44.380572698981766" lon="9.058200225233747"><ele>39.2</ele><time>2026-03-22T10:38:46Z</time></trkpt><trkpt lat="44.38057840326105" lon="9.05805686492249"><ele>46.6</ele><time>2026-03-22T10:38:47Z</time></trkpt><trkpt lat="44.380595443891536" lon="9.057895218753906"><ele>54.0</ele><time>2026-03-22T10:38:48Z</time></trkpt><trkpt lat="44.380594469234474" lon="9.057776632014436"><ele>54.0</ele><time>2026-03-22T10:38:49Z</time></trkpt><trkpt lat="44.38059512326716" lon="9.057664520033132"><ele>54.0</ele><time>2026-03-22T10:38:50Z</time></trkpt><trkpt lat="44.380601962869726" lon="9.057570232342067"><ele>54.0</ele><time>2026-03-22T10:38:51Z</time></trkpt><trkpt lat="44.38060116540032" lon="9.057438592777533"><ele>54.0</ele><time>2026-03-22T10:38:53Z</time></trkpt><trkpt lat="44.38060019185934" lon="9.057316583263333"><ele>54.0</ele><time>2026-03-22T10:38:55Z</time></trkpt><trkpt lat="44.3805941548741" lon="9.057174758223587"><ele>54.0</ele><time>2026-03-22T10:38:57Z</time></trkpt><trkpt lat="44.38060510133175" lon="9.056986624981503"><ele>51.400000000000006</ele><time>2026-03-22T10:38:59Z</time></trkpt><trkpt lat="44.380606632730604" lon="9.056814330028205"><ele>48.800000000000004</ele><time>2026-03-22T10:39:01Z</time></trkpt><trkpt lat="44.38059588054359" lon="9.056706935183481"><ele>46.2</ele><time>2026-03-22T10:39:02Z</time></trkpt><trkpt lat="44.38062667793746" lon="9.056577267769777"><ele>43.599999999999994</ele><time>2026-03-22T10:39:04Z</time></trkpt><trkpt lat="44.38066700470255" lon="9.056462916746296"><ele>41.0</ele><time>2026-03-22T10:39:05Z</time></trkpt><trkpt lat="44.380705083269035" lon="9.056365686112263"><ele>39.57142857142857</ele><time>2026-03-22T10:39:06Z</time></trkpt><trkpt lat="44.38075382322804" lon="9.056283846983064"><ele>38.14285714285714</ele><time>2026-03-22T10:39:07Z</time></trkpt><trkpt lat="44.380812214453066" lon="9.056231579666193"><ele>36.714285714285715</ele><time>2026-03-22T10:39:08Z</time></trkpt><trkpt lat="44.38088015143323" lon="9.056207746123244"><ele>35.285714285714285</ele><time>2026-03-22T10:39:09Z</time></trkpt><trkpt lat="44.38094955538296" lon="9.056152801433406"><ele>33.85714285714286</ele><time>2026-03-22T10:39:10Z</time></trkpt><trkpt lat="44.38101359393083" lon="9.056097494092143"><ele>32.42857142857143</ele><time>2026-03-22T10:39:11Z</time></trkpt><trkpt lat="44.38108034708861" lon="9.056041980924638"><ele>31.0</ele><time>2026-03-22T10:39:12Z</time></trkpt><trkpt lat="44.38113500534166" lon="9.05597381495306"><ele>31.000000000000004</ele><time>2026-03-22T10:39:13Z</time></trkpt><trkpt lat="44.381182100049315" lon="9.055878507827282"><ele>31.0</ele><time>2026-03-22T10:39:14Z</time></trkpt><trkpt lat="44.381219146329826" lon="9.055789103948928"><ele>31.0</ele><time>2026-03-22T10:39:15Z</time></trkpt><trkpt lat="44.38124561356413" lon="9.055692373748427"><ele>31.0</ele><time>2026-03-22T10:39:16Z</time></trkpt><trkpt lat="44.381254421124794" lon="9.05557236909182"><ele>31.000000000000004</ele><time>2026-03-22T10:39:17Z</time></trkpt><trkpt lat="44.38125296599106" lon="9.055467434464179"><ele>31.0</ele><time>2026-03-22T10:39:18Z</time></trkpt><trkpt lat="44.38124691946604" lon="9.055379658149892"><ele>31.666666666666668</ele><time>2026-03-22T10:39:19Z</time></trkpt><trkpt lat="44.38124441878159" lon="9.055288990055857"><ele>32.333333333333336</ele><time>2026-03-22T10:39:20Z</time></trkpt><trkpt lat="44.381177365859315" lon="9.055206695580583"><ele>33.0</ele><time>2026-03-22T10:39:21Z</time></trkpt><trkpt lat="44.38112475730769" lon="9.0551187393379"><ele>33.666666666666664</ele><time>2026-03-22T10:39:22Z</time></trkpt><trkpt lat="44.381071718928084" lon="9.055047293747482"><ele>34.33333333333333</ele><time>2026-03-22T10:39:23Z</time></trkpt><trkpt lat="44.38102266821039" lon="9.05497061660459"><ele>35.0</ele><time>2026-03-22T10:39:24Z</time></trkpt><trkpt lat="44.38098992203697" lon="9.054841559726167"><ele>35.5</ele><time>2026-03-22T10:39:25Z</time></trkpt><trkpt lat="44.38096869196761" lon="9.054722611658816"><ele>36.0</ele><time>2026-03-22T10:39:26Z</time></trkpt><trkpt lat="44.380960281124715" lon="9.054604124461765"><ele>36.5</ele><time>2026-03-22T10:39:27Z</time></trkpt><trkpt lat="44.38095917690365" lon="9.054482513283727"><ele>37.0</ele><time>2026-03-22T10:39:28Z</time></trkpt><trkpt lat="44.38097846667728" lon="9.054378521774675"><ele>37.5</ele><time>2026-03-22T10:39:29Z</time></trkpt><trkpt lat="44.3810022651261" lon="9.054275336946725"><ele>38.0</ele><time>2026-03-22T10:39:30Z</time></trkpt><trkpt lat="44.381033891271166" lon="9.054180121857653"><ele>38.666666666666664</ele><time>2026-03-22T10:39:31Z</time></trkpt><trkpt lat="44.38107579906359" lon="9.054068915096595"><ele>39.33333333333333</ele><time>2026-03-22T10:39:32Z</time></trkpt><trkpt lat="44.38113166380485" lon="9.05399065187958"><ele>40.0</ele><time>2026-03-22T10:39:33Z</time></trkpt><trkpt lat="44.381181578590216" lon="9.053912053309432"><ele>40.666666666666664</ele><time>2026-03-22T10:39:34Z</time></trkpt><trkpt lat="44.38123800824025" lon="9.05386721064844"><ele>41.333333333333336</ele><time>2026-03-22T10:39:35Z</time></trkpt><trkpt lat="44.3813117931655" lon="9.05382992897637"><ele>42.0</ele><time>2026-03-22T10:39:36Z</time></trkpt><trkpt lat="44.38138805326166" lon="9.053808581903722"><ele>42.0</ele><time>2026-03-22T10:39:37Z</time></trkpt><trkpt lat="44.3814810646319" lon="9.053801322577144"><ele>42.0</ele><time>2026-03-22T10:39:38Z</time></trkpt><trkpt lat="44.38157523174651" lon="9.053787150653621"><ele>42.0</ele><time>2026-03-22T10:39:39Z</time></trkpt><trkpt lat="44.381661745108914" lon="9.05376786201334"><ele>42.0</ele><time>2026-03-22T10:39:40Z</time></trkpt><trkpt lat="44.38175129756516" lon="9.05373137160385"><ele>42.0</ele><time>2026-03-22T10:39:41Z</time></trkpt><trkpt lat="44.38184294367346" lon="9.05368564785564"><ele>42.0</ele><time>2026-03-22T10:39:42Z</time></trkpt><trkpt lat="44.381922757588484" lon="9.053623618336005"><ele>42.0</ele><time>2026-03-22T10:39:43Z</time></trkpt><trkpt lat="44.38199771722409" lon="9.053546132038074"><ele>42.0</ele><time>2026-03-22T10:39:44Z</time></trkpt><trkpt lat="44.38206236700489" lon="9.05346284678386"><ele>42.0</ele><time>2026-03-22T10:39:45Z</time></trkpt><trkpt lat="44.38212166093544" lon="9.053353732932436"><ele>42.0</ele><time>2026-03-22T10:39:46Z</time></trkpt><trkpt lat="44.382180101673576" lon="9.053228513333348"><ele>44.400000000000006</ele><time>2026-03-22T10:39:47Z</time></trkpt><trkpt lat="44.38223196485612" lon="9.053096601794667"><ele>46.800000000000004</ele><time>2026-03-22T10:39:48Z</time></trkpt><trkpt lat="44.382283964712364" lon="9.05297234568817"><ele>49.2</ele><time>2026-03-22T10:39:49Z</time></trkpt><trkpt lat="44.382334039171226" lon="9.052862055027601"><ele>51.6</ele><time>2026-03-22T10:39:50Z</time></trkpt><trkpt lat="44.38239919258624" lon="9.052728439441065"><ele>54.0</ele><time>2026-03-22T10:39:51Z</time></trkpt><trkpt lat="44.38245255654374" lon="9.05260260959149"><ele>54.0</ele><time>2026-03-22T10:39:52Z</time></trkpt><trkpt lat="44.382512476539844" lon="9.052466303542182"><ele>54.0</ele><time>2026-03-22T10:39:53Z</time></trkpt><trkpt lat="44.382567938757894" lon="9.052327807791054"><ele>54.0</ele><time>2026-03-22T10:39:54Z</time></trkpt><trkpt lat="44.38262096241383" lon="9.052195340706024"><ele>54.0</ele><time>2026-03-22T10:39:55Z</time></trkpt><trkpt lat="44.38267496942206" lon="9.052053544312534"><ele>53.2</ele><time>2026-03-22T10:39:56Z</time></trkpt><trkpt lat="44.38273389857685" lon="9.051915307241979"><ele>52.400000000000006</ele><time>2026-03-22T10:39:57Z</time></trkpt><trkpt lat="44.38278681583792" lon="9.051783401575205"><ele>51.6</ele><time>2026-03-22T10:39:58Z</time></trkpt><trkpt lat="44.382847613864364" lon="9.051652566485279"><ele>50.8</ele><time>2026-03-22T10:39:59Z</time></trkpt><trkpt lat="44.382894971745124" lon="9.051529898850056"><ele>50.0</ele><time>2026-03-22T10:40:00Z</time></trkpt><trkpt lat="44.382942338525304" lon="9.051408594292651"><ele>49.8</ele><time>2026-03-22T10:40:01Z</time></trkpt><trkpt lat="44.3829883420395" lon="9.051309306798228"><ele>49.6</ele><time>2026-03-22T10:40:02Z</time></trkpt><trkpt lat="44.38303772345568" lon="9.051193945602575"><ele>49.400000000000006</ele><time>2026-03-22T10:40:03Z</time></trkpt><trkpt lat="44.383089133263596" lon="9.05107746908904"><ele>49.2</ele><time>2026-03-22T10:40:04Z</time></trkpt><trkpt lat="44.38313818551932" lon="9.0509503085745"><ele>49.0</ele><time>2026-03-22T10:40:05Z</time></trkpt><trkpt lat="44.38318753748676" lon="9.050834893418617"><ele>52.49999999999999</ele><time>2026-03-22T10:40:06Z</time></trkpt><trkpt lat="44.38322569828406" lon="9.0507124804516"><ele>56.0</ele><time>2026-03-22T10:40:07Z</time></trkpt><trkpt lat="44.38326562037129" lon="9.050599157075952"><ele>59.5</ele><time>2026-03-22T10:40:08Z</time></trkpt><trkpt lat="44.383290826348095" lon="9.050482366291833"><ele>63.0</ele><time>2026-03-22T10:40:09Z</time></trkpt><trkpt lat="44.3833089362035" lon="9.050362382837918"><ele>66.5</ele><time>2026-03-22T10:40:10Z</time></trkpt><trkpt lat="44.38331946295164" lon="9.05024798838499"><ele>70.0</ele><time>2026-03-22T10:40:11Z</time></trkpt><trkpt lat="44.383321597211804" lon="9.050127956736691"><ele>70.0</ele><time>2026-03-22T10:40:12Z</time></trkpt><trkpt lat="44.38331389935697" lon="9.05000713652444"><ele>70.0</ele><time>2026-03-22T10:40:13Z</time></trkpt><trkpt lat="44.38330450797753" lon="9.049879050315525"><ele>70.0</ele><time>2026-03-22T10:40:14Z</time></trkpt><trkpt lat="44.383291368320705" lon="9.049751296960677"><ele>70.0</ele><time>2026-03-22T10:40:15Z</time></trkpt><trkpt lat="44.383272595586334" lon="9.049617971138934"><ele>70.0</ele><time>2026-03-22T10:40:16Z</time></trkpt><trkpt lat="44.383259123755444" lon="9.049480975230308"><ele>70.4</ele><time>2026-03-22T10:40:17Z</time></trkpt><trkpt lat="44.38325702977326" lon="9.049342239190064"><ele>70.8</ele><time>2026-03-22T10:40:18Z</time></trkpt><trkpt lat="44.38325614599927" lon="9.049213342198026"><ele>71.2</ele><time>2026-03-22T10:40:19Z</time></trkpt><trkpt lat="44.38326653921204" lon="9.049086038537174"><ele>71.6</ele><time>2026-03-22T10:40:20Z</time></trkpt><trkpt lat="44.38328330890676" lon="9.048960846819185"><ele>72.0</ele><time>2026-03-22T10:40:21Z</time></trkpt><trkpt lat="44.38330496207182" lon="9.048840050449623"><ele>72.0</ele><time>2026-03-22T10:40:22Z</time></trkpt><trkpt lat="44.38333746327149" lon="9.048721324373991"><ele>72.0</ele><time>2026-03-22T10:40:23Z</time></trkpt><trkpt lat="44.38337320514253" lon="9.048597966361148"><ele>72.0</ele><time>2026-03-22T10:40:24Z</time></trkpt><trkpt lat="44.383407083402574" lon="9.04847430676133"><ele>72.0</ele><time>2026-03-22T10:40:25Z</time></trkpt><trkpt lat="44.383442898967814" lon="9.04834359551474"><ele>72.0</ele><time>2026-03-22T10:40:26Z</time></trkpt><trkpt lat="44.3834792269271" lon="9.048212046425293"><ele>72.0</ele><time>2026-03-22T10:40:27Z</time></trkpt><trkpt lat="44.383515427855116" lon="9.048079830473698"><ele>72.0</ele><time>2026-03-22T10:40:28Z</time></trkpt><trkpt lat="44.38355163427079" lon="9.04795032382516"><ele>72.0</ele><time>2026-03-22T10:40:29Z</time></trkpt><trkpt lat="44.38358385530883" lon="9.047823367387835"><ele>72.0</ele><time>2026-03-22T10:40:30Z</time></trkpt><trkpt lat="44.383612440914156" lon="9.04769505065376"><ele>72.0</ele><time>2026-03-22T10:40:31Z</time></trkpt><trkpt lat="44.38363772099778" lon="9.04756653331024"><ele>71.5</ele><time>2026-03-22T10:40:32Z</time></trkpt><trkpt lat="44.3836611036373" lon="9.047455438738977"><ele>71.0</ele><time>2026-03-22T10:40:33Z</time></trkpt><trkpt lat="44.38368594367025" lon="9.04734598865713"><ele>70.5</ele><time>2026-03-22T10:40:34Z</time></trkpt><trkpt lat="44.38370848272889" lon="9.047218037552124"><ele>70.0</ele><time>2026-03-22T10:40:35Z</time></trkpt><trkpt lat="44.38373023155197" lon="9.047095197667304"><ele>69.5</ele><time>2026-03-22T10:40:36Z</time></trkpt><trkpt lat="44.383748021628804" lon="9.046982336704827"><ele>69.0</ele><time>2026-03-22T10:40:37Z</time></trkpt><trkpt lat="44.383767223446426" lon="9.04687580650584"><ele>69.0</ele><time>2026-03-22T10:40:38Z</time></trkpt><trkpt lat="44.38378169743884" lon="9.046761884507692"><ele>69.0</ele><time>2026-03-22T10:40:39Z</time></trkpt><trkpt lat="44.38380376238673" lon="9.04664509903263"><ele>69.0</ele><time>2026-03-22T10:40:40Z</time></trkpt><trkpt lat="44.38381980239852" lon="9.046516428096806"><ele>69.0</ele><time>2026-03-22T10:40:41Z</time></trkpt><trkpt lat="44.38383300142693" lon="9.046398532702243"><ele>69.0</ele><time>2026-03-22T10:40:42Z</time></trkpt><trkpt lat="44.38384515590191" lon="9.046274703378632"><ele>69.0</ele><time>2026-03-22T10:40:43Z</time></trkpt><trkpt lat="44.38386295243271" lon="9.046147179260867"><ele>69.16666666666667</ele><time>2026-03-22T10:40:44Z</time></trkpt><trkpt lat="44.383880653000546" lon="9.046038443514313"><ele>69.33333333333333</ele><time>2026-03-22T10:40:45Z</time></trkpt><trkpt lat="44.38390236462019" lon="9.045942549399475"><ele>69.5</ele><time>2026-03-22T10:40:46Z</time></trkpt><trkpt lat="44.383930011050495" lon="9.045833808362174"><ele>69.66666666666666</ele><time>2026-03-22T10:40:47Z</time></trkpt><trkpt lat="44.38395894397003" lon="9.045720575802674"><ele>69.83333333333333</ele><time>2026-03-22T10:40:48Z</time></trkpt><trkpt lat="44.383993618892184" lon="9.045615996944708"><ele>70.0</ele><time>2026-03-22T10:40:49Z</time></trkpt><trkpt lat="44.38403254286829" lon="9.045516946744868"><ele>70.0</ele><time>2026-03-22T10:40:50Z</time></trkpt><trkpt lat="44.38407432825834" lon="9.045402170699667"><ele>70.0</ele><time>2026-03-22T10:40:51Z</time></trkpt><trkpt lat="44.38411441687555" lon="9.045290750087437"><ele>70.0</ele><time>2026-03-22T10:40:52Z</time></trkpt><trkpt lat="44.384152856666695" lon="9.045192216991177"><ele>70.0</ele><time>2026-03-22T10:40:53Z</time></trkpt><trkpt lat="44.38419660032223" lon="9.045087970068787"><ele>70.0</ele><time>2026-03-22T10:40:54Z</time></trkpt><trkpt lat="44.38424252657648" lon="9.044969994855673"><ele>70.0</ele><time>2026-03-22T10:40:55Z</time></trkpt><trkpt lat="44.38428429663133" lon="9.044856232998589"><ele>68.0</ele><time>2026-03-22T10:40:56Z</time></trkpt><trkpt lat="44.38433161314907" lon="9.044736010982225"><ele>66.0</ele><time>2026-03-22T10:40:57Z</time></trkpt><trkpt lat="44.38437677906906" lon="9.044614882717848"><ele>64.0</ele><time>2026-03-22T10:40:58Z</time></trkpt><trkpt lat="44.38441592534637" lon="9.04449557438514"><ele>62.0</ele><time>2026-03-22T10:40:59Z</time></trkpt><trkpt lat="44.38445446125188" lon="9.04440041886085"><ele>60.0</ele><time>2026-03-22T10:41:00Z</time></trkpt><trkpt lat="44.38449155690355" lon="9.044290021725384"><ele>60.0</ele><time>2026-03-22T10:41:01Z</time></trkpt><trkpt lat="44.38452920000176" lon="9.044177015953059"><ele>60.0</ele><time>2026-03-22T10:41:02Z</time></trkpt><trkpt lat="44.384561024368764" lon="9.044079683110247"><ele>60.0</ele><time>2026-03-22T10:41:03Z</time></trkpt><trkpt lat="44.38460000794143" lon="9.04399486639863"><ele>60.0</ele><time>2026-03-22T10:41:04Z</time></trkpt><trkpt lat="44.384648412220145" lon="9.043910163211747"><ele>60.0</ele><time>2026-03-22T10:41:05Z</time></trkpt><trkpt lat="44.38469930130517" lon="9.043829477495095"><ele>60.0</ele><time>2026-03-22T10:41:06Z</time></trkpt><trkpt lat="44.38475007031835" lon="9.043747784644568"><ele>60.0</ele><time>2026-03-22T10:41:07Z</time></trkpt><trkpt lat="44.38480379833623" lon="9.043673695771831"><ele>60.0</ele><time>2026-03-22T10:41:08Z</time></trkpt><trkpt lat="44.38485883327531" lon="9.043594572871644"><ele>60.0</ele><time>2026-03-22T10:41:09Z</time></trkpt><trkpt lat="44.38491244036358" lon="9.043503998139704"><ele>60.0</ele><time>2026-03-22T10:41:10Z</time></trkpt><trkpt lat="44.38496297655778" lon="9.043409728136435"><ele>60.0</ele><time>2026-03-22T10:41:11Z</time></trkpt><trkpt lat="44.385002879894216" lon="9.043296736811058"><ele>60.0</ele><time>2026-03-22T10:41:12Z</time></trkpt><trkpt lat="44.38504476529877" lon="9.04318385865931"><ele>60.0</ele><time>2026-03-22T10:41:13Z</time></trkpt><trkpt lat="44.38509057554473" lon="9.043051770308587"><ele>60.0</ele><time>2026-03-22T10:41:14Z</time></trkpt><trkpt lat="44.3851373979639" lon="9.042930506538466"><ele>60.0</ele><time>2026-03-22T10:41:15Z</time></trkpt><trkpt lat="44.38518446917388" lon="9.042809787758808"><ele>60.0</ele><time>2026-03-22T10:41:16Z</time></trkpt><trkpt lat="44.38523018640132" lon="9.042691677056984"><ele>60.0</ele><time>2026-03-22T10:41:17Z</time></trkpt><trkpt lat="44.38527258130703" lon="9.042575986907755"><ele>60.0</ele><time>2026-03-22T10:41:18Z</time></trkpt><trkpt lat="44.38531226911124" lon="9.042470457728838"><ele>60.0</ele><time>2026-03-22T10:41:19Z</time></trkpt><trkpt lat="44.38535448751453" lon="9.042352802779272"><ele>60.0</ele><time>2026-03-22T10:41:20Z</time></trkpt><trkpt lat="44.38539424599923" lon="9.042231243754234"><ele>60.0</ele><time>2026-03-22T10:41:21Z</time></trkpt><trkpt lat="44.38542430453349" lon="9.042130793125946"><ele>60.0</ele><time>2026-03-22T10:41:22Z</time></trkpt><trkpt lat="44.38544980739396" lon="9.042013043085046"><ele>60.0</ele><time>2026-03-22T10:41:23Z</time></trkpt><trkpt lat="44.38547426479613" lon="9.041899271544144"><ele>58.8</ele><time>2026-03-22T10:41:24Z</time></trkpt><trkpt lat="44.385498961396586" lon="9.041779229751299"><ele>57.6</ele><time>2026-03-22T10:41:25Z</time></trkpt><trkpt lat="44.385515679882" lon="9.04164989264747"><ele>56.400000000000006</ele><time>2026-03-22T10:41:26Z</time></trkpt><trkpt lat="44.38552731654872" lon="9.04151646848675"><ele>55.2</ele><time>2026-03-22T10:41:27Z</time></trkpt><trkpt lat="44.38553737227796" lon="9.041390086921227"><ele>54.0</ele><time>2026-03-22T10:41:28Z</time></trkpt><trkpt lat="44.38554066276539" lon="9.041272442361134"><ele>53.0</ele><time>2026-03-22T10:41:29Z</time></trkpt><trkpt lat="44.38553644504474" lon="9.041145451969543"><ele>52.0</ele><time>2026-03-22T10:41:30Z</time></trkpt><trkpt lat="44.38553730928205" lon="9.041024565053396"><ele>51.0</ele><time>2026-03-22T10:41:31Z</time></trkpt><trkpt lat="44.38554262196226" lon="9.04088828113205"><ele>50.0</ele><time>2026-03-22T10:41:32Z</time></trkpt><trkpt lat="44.3855293861644" lon="9.040765100515095"><ele>49.0</ele><time>2026-03-22T10:41:33Z</time></trkpt><trkpt lat="44.38551221521943" lon="9.04066088797596"><ele>48.0</ele><time>2026-03-22T10:41:34Z</time></trkpt><trkpt lat="44.3854915825173" lon="9.040558141083602"><ele>48.0</ele><time>2026-03-22T10:41:35Z</time></trkpt><trkpt lat="44.385460361792745" lon="9.040433469313442"><ele>48.0</ele><time>2026-03-22T10:41:36Z</time></trkpt><trkpt lat="44.38542833243755" lon="9.040295018629315"><ele>48.0</ele><time>2026-03-22T10:41:37Z</time></trkpt><trkpt lat="44.38540534975049" lon="9.040176192944083"><ele>48.0</ele><time>2026-03-22T10:41:38Z</time></trkpt><trkpt lat="44.38537777261165" lon="9.040054493564277"><ele>48.0</ele><time>2026-03-22T10:41:39Z</time></trkpt><trkpt lat="44.385338548755065" lon="9.039926012962642"><ele>48.0</ele><time>2026-03-22T10:41:40Z</time></trkpt><trkpt lat="44.38530550120828" lon="9.039801244356603"><ele>48.0</ele><time>2026-03-22T10:41:41Z</time></trkpt><trkpt lat="44.38528963908198" lon="9.039695555917309"><ele>48.0</ele><time>2026-03-22T10:41:42Z</time></trkpt><trkpt lat="44.385290336198985" lon="9.03953414827803"><ele>48.0</ele><time>2026-03-22T10:41:43Z</time></trkpt><trkpt lat="44.385249956819926" lon="9.039411785270735"><ele>48.0</ele><time>2026-03-22T10:41:44Z</time></trkpt><trkpt lat="44.3852208814761" lon="9.039325136926543"><ele>48.0</ele><time>2026-03-22T10:41:45Z</time></trkpt><trkpt lat="44.385184907105405" lon="9.039219278794995"><ele>48.0</ele><time>2026-03-22T10:41:46Z</time></trkpt><trkpt lat="44.38516182852227" lon="9.039122856255547"><ele>48.0</ele><time>2026-03-22T10:41:47Z</time></trkpt><trkpt lat="44.38512981968943" lon="9.038954353647732"><ele>48.0</ele><time>2026-03-22T10:41:49Z</time></trkpt><trkpt lat="44.38511153483761" lon="9.038864509518755"><ele>48.0</ele><time>2026-03-22T10:41:50Z</time></trkpt><trkpt lat="44.385102048992046" lon="9.038760268693867"><ele>48.0</ele><time>2026-03-22T10:41:51Z</time></trkpt><trkpt lat="44.38509534265373" lon="9.038653298064123"><ele>47.5</ele><time>2026-03-22T10:41:52Z</time></trkpt><trkpt lat="44.38510144256796" lon="9.038529478114356"><ele>47.0</ele><time>2026-03-22T10:41:53Z</time></trkpt><trkpt lat="44.38511186797676" lon="9.038419694462924"><ele>46.5</ele><time>2026-03-22T10:41:54Z</time></trkpt><trkpt lat="44.38514715078191" lon="9.038309344499893"><ele>46.0</ele><time>2026-03-22T10:41:55Z</time></trkpt><trkpt lat="44.38514280708013" lon="9.0381918879518"><ele>45.5</ele><time>2026-03-22T10:41:56Z</time></trkpt><trkpt lat="44.385157148057175" lon="9.038062032814627"><ele>45.0</ele><time>2026-03-22T10:41:57Z</time></trkpt><trkpt lat="44.38516951222998" lon="9.037934876799111"><ele>44.0</ele><time>2026-03-22T10:41:58Z</time></trkpt><trkpt lat="44.38518141988756" lon="9.037818003649805"><ele>43.0</ele><time>2026-03-22T10:41:59Z</time></trkpt><trkpt lat="44.38518827278948" lon="9.037699466760087"><ele>42.0</ele><time>2026-03-22T10:42:00Z</time></trkpt><trkpt lat="44.385202421415364" lon="9.037574693008187"><ele>41.0</ele><time>2026-03-22T10:42:01Z</time></trkpt><trkpt lat="44.38522126384304" lon="9.037451206349814"><ele>40.0</ele><time>2026-03-22T10:42:02Z</time></trkpt><trkpt lat="44.385243936025724" lon="9.03733346757147"><ele>39.0</ele><time>2026-03-22T10:42:03Z</time></trkpt><trkpt lat="44.385249635792" lon="9.037201369607304"><ele>38.666666666666664</ele><time>2026-03-22T10:42:04Z</time></trkpt><trkpt lat="44.38529472198663" lon="9.037090133473448"><ele>38.333333333333336</ele><time>2026-03-22T10:42:05Z</time></trkpt><trkpt lat="44.38530948023592" lon="9.036980367041474"><ele>38.0</ele><time>2026-03-22T10:42:06Z</time></trkpt><trkpt lat="44.38531183982311" lon="9.036854918032425"><ele>37.66666666666667</ele><time>2026-03-22T10:42:07Z</time></trkpt><trkpt lat="44.38533362906923" lon="9.036738788694711"><ele>37.333333333333336</ele><time>2026-03-22T10:42:08Z</time></trkpt><trkpt lat="44.38535871908211" lon="9.036612013014306"><ele>37.0</ele><time>2026-03-22T10:42:09Z</time></trkpt><trkpt lat="44.38539584007717" lon="9.03648104671795"><ele>35.800000000000004</ele><time>2026-03-22T10:42:10Z</time></trkpt><trkpt lat="44.385426011302684" lon="9.03634441673564"><ele>34.6</ele><time>2026-03-22T10:42:11Z</time></trkpt><trkpt lat="44.38546715490085" lon="9.036226466243798"><ele>33.400000000000006</ele><time>2026-03-22T10:42:12Z</time></trkpt><trkpt lat="44.38551186637216" lon="9.03611000147126"><ele>32.2</ele><time>2026-03-22T10:42:13Z</time></trkpt><trkpt lat="44.385547552441224" lon="9.0359946462088"><ele>31.0</ele><time>2026-03-22T10:42:14Z</time></trkpt><trkpt lat="44.38556810220214" lon="9.035847566199925"><ele>32.333333333333336</ele><time>2026-03-22T10:42:15Z</time></trkpt><trkpt lat="44.38557733732321" lon="9.035712730041046"><ele>33.66666666666667</ele><time>2026-03-22T10:42:16Z</time></trkpt><trkpt lat="44.38560202847099" lon="9.035600075552042"><ele>35.0</ele><time>2026-03-22T10:42:17Z</time></trkpt><trkpt lat="44.38561131885012" lon="9.035479577080359"><ele>36.333333333333336</ele><time>2026-03-22T10:42:18Z</time></trkpt><trkpt lat="44.38562317390192" lon="9.035362718057677"><ele>37.666666666666664</ele><time>2026-03-22T10:42:19Z</time></trkpt><trkpt lat="44.385626083695115" lon="9.035240644538135"><ele>39.0</ele><time>2026-03-22T10:42:20Z</time></trkpt><trkpt lat="44.38563398966029" lon="9.03513213699917"><ele>39.0</ele><time>2026-03-22T10:42:21Z</time></trkpt><trkpt lat="44.38565021077797" lon="9.035008411142902"><ele>39.0</ele><time>2026-03-22T10:42:22Z</time></trkpt><trkpt lat="44.38567009574007" lon="9.034886560749216"><ele>39.0</ele><time>2026-03-22T10:42:23Z</time></trkpt><trkpt lat="44.385692595778366" lon="9.034776421328218"><ele>39.0</ele><time>2026-03-22T10:42:24Z</time></trkpt><trkpt lat="44.38571274747121" lon="9.034661852697324"><ele>39.0</ele><time>2026-03-22T10:42:25Z</time></trkpt><trkpt lat="44.38573971433948" lon="9.034553534548852"><ele>39.0</ele><time>2026-03-22T10:42:26Z</time></trkpt><trkpt lat="44.38577249063951" lon="9.034448063335805"><ele>36.6</ele><time>2026-03-22T10:42:27Z</time></trkpt><trkpt lat="44.38579834716523" lon="9.034324632673576"><ele>34.2</ele><time>2026-03-22T10:42:28Z</time></trkpt><trkpt lat="44.38580564555141" lon="9.034191471928594"><ele>31.800000000000004</ele><time>2026-03-22T10:42:29Z</time></trkpt><trkpt lat="44.385833015257475" lon="9.034070415414106"><ele>29.400000000000002</ele><time>2026-03-22T10:42:30Z</time></trkpt><trkpt lat="44.38586011927172" lon="9.033938922164745"><ele>27.0</ele><time>2026-03-22T10:42:31Z</time></trkpt><trkpt lat="44.385886864452026" lon="9.033812478773898"><ele>26.333333333333332</ele><time>2026-03-22T10:42:32Z</time></trkpt><trkpt lat="44.385911979791096" lon="9.033680767255616"><ele>25.666666666666668</ele><time>2026-03-22T10:42:33Z</time></trkpt><trkpt lat="44.38591790613453" lon="9.033561341039206"><ele>25.0</ele><time>2026-03-22T10:42:34Z</time></trkpt><trkpt lat="44.38591933665432" lon="9.033454507479929"><ele>24.333333333333336</ele><time>2026-03-22T10:42:35Z</time></trkpt><trkpt lat="44.38591260241471" lon="9.03334451779578"><ele>23.666666666666668</ele><time>2026-03-22T10:42:36Z</time></trkpt><trkpt lat="44.38589228115383" lon="9.033237531505959"><ele>23.0</ele><time>2026-03-22T10:42:37Z</time></trkpt><trkpt lat="44.385863407384456" lon="9.033130417207218"><ele>22.0</ele><time>2026-03-22T10:42:38Z</time></trkpt><trkpt lat="44.38582939663709" lon="9.033025221356985"><ele>21.0</ele><time>2026-03-22T10:42:39Z</time></trkpt><trkpt lat="44.38578108993883" lon="9.032938304226871"><ele>20.0</ele><time>2026-03-22T10:42:40Z</time></trkpt><trkpt lat="44.385717495207096" lon="9.032852321363116"><ele>19.0</ele><time>2026-03-22T10:42:41Z</time></trkpt><trkpt lat="44.385658989580804" lon="9.032771969174263"><ele>18.0</ele><time>2026-03-22T10:42:42Z</time></trkpt><trkpt lat="44.3855860570769" lon="9.03271396719894"><ele>17.0</ele><time>2026-03-22T10:42:43Z</time></trkpt><trkpt lat="44.385511253205074" lon="9.03266268114897"><ele>17.0</ele><time>2026-03-22T10:42:44Z</time></trkpt><trkpt lat="44.38542994605629" lon="9.032612991681503"><ele>17.0</ele><time>2026-03-22T10:42:45Z</time></trkpt><trkpt lat="44.3853409221865" lon="9.032571351425664"><ele>17.0</ele><time>2026-03-22T10:42:46Z</time></trkpt><trkpt lat="44.38524597409815" lon="9.032542450496848"><ele>17.0</ele><time>2026-03-22T10:42:47Z</time></trkpt><trkpt lat="44.38514079517168" lon="9.032501608866967"><ele>17.0</ele><time>2026-03-22T10:42:48Z</time></trkpt><trkpt lat="44.38503879953656" lon="9.032450782839511"><ele>16.8</ele><time>2026-03-22T10:42:49Z</time></trkpt><trkpt lat="44.38492842808777" lon="9.032390599772704"><ele>16.6</ele><time>2026-03-22T10:42:50Z</time></trkpt><trkpt lat="44.38483549878496" lon="9.032330331544594"><ele>16.400000000000002</ele><time>2026-03-22T10:42:51Z</time></trkpt><trkpt lat="44.384760053232284" lon="9.032269474530077"><ele>16.2</ele><time>2026-03-22T10:42:52Z</time></trkpt><trkpt lat="44.38469533317292" lon="9.032198003613022"><ele>16.0</ele><time>2026-03-22T10:42:53Z</time></trkpt><trkpt lat="44.384632554743014" lon="9.032116206322256"><ele>16.0</ele><time>2026-03-22T10:42:54Z</time></trkpt><trkpt lat="44.38457791985811" lon="9.032002068740676"><ele>16.0</ele><time>2026-03-22T10:42:55Z</time></trkpt><trkpt lat="44.38452914154572" lon="9.031892861975512"><ele>16.0</ele><time>2026-03-22T10:42:56Z</time></trkpt><trkpt lat="44.38450198367725" lon="9.031788556471401"><ele>16.0</ele><time>2026-03-22T10:42:57Z</time></trkpt><trkpt lat="44.38448515855559" lon="9.03166639790141"><ele>16.0</ele><time>2026-03-22T10:42:58Z</time></trkpt><trkpt lat="44.384472030802456" lon="9.031530131607015"><ele>17.0</ele><time>2026-03-22T10:42:59Z</time></trkpt><trkpt lat="44.38446086306347" lon="9.031409942145283"><ele>18.0</ele><time>2026-03-22T10:43:00Z</time></trkpt><trkpt lat="44.384459882601064" lon="9.031269113818068"><ele>19.0</ele><time>2026-03-22T10:43:01Z</time></trkpt><trkpt lat="44.384458112526445" lon="9.031122788246453"><ele>20.0</ele><time>2026-03-22T10:43:02Z</time></trkpt><trkpt lat="44.38444747199149" lon="9.030994201222738"><ele>21.0</ele><time>2026-03-22T10:43:03Z</time></trkpt><trkpt lat="44.38444050695023" lon="9.030849220683047"><ele>22.5</ele><time>2026-03-22T10:43:04Z</time></trkpt><trkpt lat="44.384432287748524" lon="9.030696335671069"><ele>24.0</ele><time>2026-03-22T10:43:05Z</time></trkpt><trkpt lat="44.384413209367025" lon="9.030538171106175"><ele>25.5</ele><time>2026-03-22T10:43:06Z</time></trkpt><trkpt lat="44.38438466936759" lon="9.030385349142168"><ele>27.0</ele><time>2026-03-22T10:43:07Z</time></trkpt><trkpt lat="44.3843673580246" lon="9.030223595072702"><ele>27.0</ele><time>2026-03-22T10:43:08Z</time></trkpt><trkpt lat="44.384346523586224" lon="9.030057764100498"><ele>27.0</ele><time>2026-03-22T10:43:09Z</time></trkpt><trkpt lat="44.384325165316426" lon="9.029888530652524"><ele>27.0</ele><time>2026-03-22T10:43:10Z</time></trkpt><trkpt lat="44.38427065657381" lon="9.029718290776925"><ele>27.0</ele><time>2026-03-22T10:43:11Z</time></trkpt><trkpt lat="44.3842516387821" lon="9.029536705097879"><ele>27.75</ele><time>2026-03-22T10:43:12Z</time></trkpt><trkpt lat="44.38423222500078" lon="9.029367614748553"><ele>28.5</ele><time>2026-03-22T10:43:13Z</time></trkpt><trkpt lat="44.38420700774981" lon="9.029199875110058"><ele>29.25</ele><time>2026-03-22T10:43:14Z</time></trkpt><trkpt lat="44.38418301045878" lon="9.029043434674412"><ele>30.0</ele><time>2026-03-22T10:43:15Z</time></trkpt><trkpt lat="44.38416207031116" lon="9.02888839223142"><ele>30.4</ele><time>2026-03-22T10:43:16Z</time></trkpt><trkpt lat="44.38415233175502" lon="9.028729947787191"><ele>30.8</ele><time>2026-03-22T10:43:17Z</time></trkpt><trkpt lat="44.38414691081695" lon="9.028593689795397"><ele>31.200000000000003</ele><time>2026-03-22T10:43:18Z</time></trkpt><trkpt lat="44.384149006582994" lon="9.028446089241669"><ele>31.6</ele><time>2026-03-22T10:43:19Z</time></trkpt><trkpt lat="44.38415987021458" lon="9.02830401457045"><ele>32.0</ele><time>2026-03-22T10:43:20Z</time></trkpt><trkpt lat="44.384175731667305" lon="9.028177219677493"><ele>32.166666666666664</ele><time>2026-03-22T10:43:21Z</time></trkpt><trkpt lat="44.384190256357385" lon="9.028080273514574"><ele>32.33333333333333</ele><time>2026-03-22T10:43:22Z</time></trkpt><trkpt lat="44.38422374149858" lon="9.02792882398883"><ele>32.5</ele><time>2026-03-22T10:43:24Z</time></trkpt><trkpt lat="44.384247745722185" lon="9.027836425464786"><ele>32.666666666666664</ele><time>2026-03-22T10:43:26Z</time></trkpt><trkpt lat="44.38427417439653" lon="9.027742182907057"><ele>32.833333333333336</ele><time>2026-03-22T10:43:47Z</time></trkpt><trkpt lat="44.384324506156446" lon="9.027652999280985"><ele>33.0</ele><time>2026-03-22T10:44:07Z</time></trkpt><trkpt lat="44.38435680716129" lon="9.02757078283653"><ele>32.6</ele><time>2026-03-22T10:44:09Z</time></trkpt><trkpt lat="44.38440237907744" lon="9.027416000064"><ele>32.199999999999996</ele><time>2026-03-22T10:44:11Z</time></trkpt><trkpt lat="44.38443613128911" lon="9.027299422245202"><ele>31.8</ele><time>2026-03-22T10:44:12Z</time></trkpt><trkpt lat="44.384468523513696" lon="9.027211797743822"><ele>31.4</ele><time>2026-03-22T10:44:13Z</time></trkpt><trkpt lat="44.38449851492306" lon="9.02709338554538"><ele>31.0</ele><time>2026-03-22T10:44:14Z</time></trkpt><trkpt lat="44.3845346193886" lon="9.026968514944981"><ele>31.0</ele><time>2026-03-22T10:44:15Z</time></trkpt><trkpt lat="44.38453150044734" lon="9.026824117563086"><ele>31.0</ele><time>2026-03-22T10:44:16Z</time></trkpt><trkpt lat="44.38456638788811" lon="9.026698387740407"><ele>31.0</ele><time>2026-03-22T10:44:17Z</time></trkpt><trkpt lat="44.38460462918257" lon="9.026560570741166"><ele>31.0</ele><time>2026-03-22T10:44:18Z</time></trkpt><trkpt lat="44.38464178512704" lon="9.026427169570878"><ele>31.0</ele><time>2026-03-22T10:44:19Z</time></trkpt><trkpt lat="44.3846805721326" lon="9.026288548510571"><ele>33.0</ele><time>2026-03-22T10:44:20Z</time></trkpt><trkpt lat="44.38471953240741" lon="9.026149308249968"><ele>35.0</ele><time>2026-03-22T10:44:21Z</time></trkpt><trkpt lat="44.384758003606535" lon="9.026011815714636"><ele>37.0</ele><time>2026-03-22T10:44:22Z</time></trkpt><trkpt lat="44.38479464648293" lon="9.025880857528946"><ele>39.0</ele><time>2026-03-22T10:44:23Z</time></trkpt><trkpt lat="44.38483199982495" lon="9.025747360152177"><ele>41.0</ele><time>2026-03-22T10:44:24Z</time></trkpt><trkpt lat="44.384869550414095" lon="9.025613157891389"><ele>41.0</ele><time>2026-03-22T10:44:25Z</time></trkpt><trkpt lat="44.38490828758387" lon="9.02547471483618"><ele>41.0</ele><time>2026-03-22T10:44:26Z</time></trkpt><trkpt lat="44.38494976576834" lon="9.025326475606786"><ele>41.0</ele><time>2026-03-22T10:44:27Z</time></trkpt><trkpt lat="44.384989278503674" lon="9.02518528495093"><ele>41.0</ele><time>2026-03-22T10:44:28Z</time></trkpt><trkpt lat="44.38502194941428" lon="9.02506928629394"><ele>41.0</ele><time>2026-03-22T10:44:29Z</time></trkpt><trkpt lat="44.385065706600905" lon="9.024913925391951"><ele>40.199999999999996</ele><time>2026-03-22T10:44:30Z</time></trkpt><trkpt lat="44.38510459427283" lon="9.024775854588187"><ele>39.4</ele><time>2026-03-22T10:44:31Z</time></trkpt><trkpt lat="44.38513899057161" lon="9.024653730492252"><ele>38.6</ele><time>2026-03-22T10:44:32Z</time></trkpt><trkpt lat="44.38517526497134" lon="9.024524937303399"><ele>37.8</ele><time>2026-03-22T10:44:33Z</time></trkpt><trkpt lat="44.38521067175238" lon="9.024397329101037"><ele>37.0</ele><time>2026-03-22T10:44:34Z</time></trkpt><trkpt lat="44.385245305089136" lon="9.024264457330773"><ele>36.0</ele><time>2026-03-22T10:44:35Z</time></trkpt><trkpt lat="44.38527722879429" lon="9.024135172661541"><ele>35.0</ele><time>2026-03-22T10:44:36Z</time></trkpt><trkpt lat="44.38529553269229" lon="9.024005148986213"><ele>34.0</ele><time>2026-03-22T10:44:37Z</time></trkpt><trkpt lat="44.38529340106033" lon="9.023863681216794"><ele>33.0</ele><time>2026-03-22T10:44:38Z</time></trkpt><trkpt lat="44.38530743513423" lon="9.023705139464626"><ele>32.0</ele><time>2026-03-22T10:44:39Z</time></trkpt><trkpt lat="44.38532288282716" lon="9.023563178266237"><ele>31.999999999999996</ele><time>2026-03-22T10:44:40Z</time></trkpt><trkpt lat="44.385332975247145" lon="9.023434640700149"><ele>32.0</ele><time>2026-03-22T10:44:41Z</time></trkpt><trkpt lat="44.38533748877589" lon="9.023294933078581"><ele>32.0</ele><time>2026-03-22T10:44:42Z</time></trkpt><trkpt lat="44.385351588593046" lon="9.023157743993059"><ele>32.0</ele><time>2026-03-22T10:44:43Z</time></trkpt><trkpt lat="44.38534662715748" lon="9.023064842538762"><ele>31.999999999999996</ele><time>2026-03-22T10:44:44Z</time></trkpt><trkpt lat="44.38535363424679" lon="9.022963819478903"><ele>32.0</ele><time>2026-03-22T10:44:45Z</time></trkpt><trkpt lat="44.38536065482386" lon="9.022855848061122"><ele>31.8</ele><time>2026-03-22T10:44:46Z</time></trkpt><trkpt lat="44.38538092350228" lon="9.022674318177824"><ele>31.6</ele><time>2026-03-22T10:44:48Z</time></trkpt><trkpt lat="44.385409110238854" lon="9.022550650320634"><ele>31.400000000000002</ele><time>2026-03-22T10:44:50Z</time></trkpt><trkpt lat="44.38542855996002" lon="9.022454715103219"><ele>31.200000000000003</ele><time>2026-03-22T10:44:52Z</time></trkpt><trkpt lat="44.385448272081966" lon="9.022317028361025"><ele>31.0</ele><time>2026-03-22T10:45:28Z</time></trkpt><trkpt lat="44.3854824197544" lon="9.022185655761225"><ele>31.0</ele><time>2026-03-22T10:45:30Z</time></trkpt><trkpt lat="44.38553287772603" lon="9.022031773913138"><ele>31.0</ele><time>2026-03-22T10:45:32Z</time></trkpt><trkpt lat="44.38556845032025" lon="9.021929312125081"><ele>31.0</ele><time>2026-03-22T10:45:33Z</time></trkpt><trkpt lat="44.38560200278155" lon="9.02183729081764"><ele>31.0</ele><time>2026-03-22T10:45:34Z</time></trkpt><trkpt lat="44.38564613932259" lon="9.021716508263026"><ele>31.0</ele><time>2026-03-22T10:45:35Z</time></trkpt><trkpt lat="44.385685038895694" lon="9.021610056592404"><ele>30.200000000000003</ele><time>2026-03-22T10:45:36Z</time></trkpt><trkpt lat="44.38575487900156" lon="9.021506920876503"><ele>29.400000000000002</ele><time>2026-03-22T10:45:37Z</time></trkpt><trkpt lat="44.38579423311451" lon="9.021377722853222"><ele>28.6</ele><time>2026-03-22T10:45:38Z</time></trkpt><trkpt lat="44.38584310427618" lon="9.02125604922999"><ele>27.8</ele><time>2026-03-22T10:45:39Z</time></trkpt><trkpt lat="44.38587850605011" lon="9.021145332003753"><ele>27.0</ele><time>2026-03-22T10:45:40Z</time></trkpt><trkpt lat="44.38589483697093" lon="9.021031540851954"><ele>27.0</ele><time>2026-03-22T10:45:41Z</time></trkpt><trkpt lat="44.38594222552928" lon="9.0209018969345"><ele>27.000000000000004</ele><time>2026-03-22T10:45:42Z</time></trkpt><trkpt lat="44.386005485556495" lon="9.020768588781937"><ele>27.000000000000004</ele><time>2026-03-22T10:45:43Z</time></trkpt><trkpt lat="44.38603949212196" lon="9.02061556359721"><ele>27.0</ele><time>2026-03-22T10:45:44Z</time></trkpt><trkpt lat="44.38607674019292" lon="9.020490793914986"><ele>27.0</ele><time>2026-03-22T10:45:45Z</time></trkpt><trkpt lat="44.38610914547778" lon="9.020361655644619"><ele>26.8</ele><time>2026-03-22T10:45:46Z</time></trkpt><trkpt lat="44.38613796664374" lon="9.020231698164514"><ele>26.6</ele><time>2026-03-22T10:45:47Z</time></trkpt><trkpt lat="44.38617165786341" lon="9.020082616354506"><ele>26.400000000000002</ele><time>2026-03-22T10:45:48Z</time></trkpt><trkpt lat="44.38619242551934" lon="9.019968454098299"><ele>26.200000000000003</ele><time>2026-03-22T10:45:49Z</time></trkpt><trkpt lat="44.38622997761212" lon="9.019829244029085"><ele>26.0</ele><time>2026-03-22T10:45:50Z</time></trkpt><trkpt lat="44.386244202381356" lon="9.019717499109351"><ele>25.999999999999996</ele><time>2026-03-22T10:45:51Z</time></trkpt><trkpt lat="44.38626867863109" lon="9.019598514719469"><ele>26.0</ele><time>2026-03-22T10:45:52Z</time></trkpt><trkpt lat="44.386291311101786" lon="9.019488493000894"><ele>26.0</ele><time>2026-03-22T10:45:53Z</time></trkpt><trkpt lat="44.386312873311425" lon="9.019383674281741"><ele>26.0</ele><time>2026-03-22T10:45:54Z</time></trkpt><trkpt lat="44.38633680528455" lon="9.0192673354408"><ele>25.999999999999996</ele><time>2026-03-22T10:45:55Z</time></trkpt><trkpt lat="44.3863610695363" lon="9.019149381837547"><ele>26.0</ele><time>2026-03-22T10:45:56Z</time></trkpt><trkpt lat="44.38638844684228" lon="9.019041971745434"><ele>26.333333333333332</ele><time>2026-03-22T10:45:57Z</time></trkpt><trkpt lat="44.38641681588322" lon="9.018953855186176"><ele>26.666666666666664</ele><time>2026-03-22T10:45:58Z</time></trkpt><trkpt lat="44.38645518479906" lon="9.01885847860745"><ele>27.0</ele><time>2026-03-22T10:45:59Z</time></trkpt><trkpt lat="44.38649701794756" lon="9.018734211992648"><ele>27.333333333333336</ele><time>2026-03-22T10:46:00Z</time></trkpt><trkpt lat="44.38654016138772" lon="9.018629146707557"><ele>27.666666666666668</ele><time>2026-03-22T10:46:01Z</time></trkpt><trkpt lat="44.38659160158261" lon="9.018519757875008"><ele>28.0</ele><time>2026-03-22T10:46:02Z</time></trkpt><trkpt lat="44.386643882400335" lon="9.018463862980742"><ele>28.000000000000004</ele><time>2026-03-22T10:46:03Z</time></trkpt><trkpt lat="44.3866947078888" lon="9.018373881114655"><ele>28.0</ele><time>2026-03-22T10:46:04Z</time></trkpt><trkpt lat="44.3867448958634" lon="9.018272875379454"><ele>28.0</ele><time>2026-03-22T10:46:05Z</time></trkpt><trkpt lat="44.38679149232421" lon="9.018187634057556"><ele>28.0</ele><time>2026-03-22T10:46:06Z</time></trkpt><trkpt lat="44.386841747645136" lon="9.018094912434933"><ele>28.000000000000004</ele><time>2026-03-22T10:46:07Z</time></trkpt><trkpt lat="44.38689730935425" lon="9.017991415960278"><ele>28.0</ele><time>2026-03-22T10:46:08Z</time></trkpt><trkpt lat="44.38695268787002" lon="9.017885668529596"><ele>27.599999999999998</ele><time>2026-03-22T10:46:09Z</time></trkpt><trkpt lat="44.386991406601155" lon="9.017760359924605"><ele>27.199999999999996</ele><time>2026-03-22T10:46:10Z</time></trkpt><trkpt lat="44.38704567990604" lon="9.017652059593567"><ele>26.8</ele><time>2026-03-22T10:46:11Z</time></trkpt><trkpt lat="44.38710487552842" lon="9.017533936305671"><ele>26.4</ele><time>2026-03-22T10:46:12Z</time></trkpt><trkpt lat="44.38716774445848" lon="9.01741977092016"><ele>26.0</ele><time>2026-03-22T10:46:13Z</time></trkpt><trkpt lat="44.387229744198436" lon="9.017310736059466"><ele>27.200000000000003</ele><time>2026-03-22T10:46:14Z</time></trkpt><trkpt lat="44.38729510477334" lon="9.017204390170969"><ele>28.400000000000002</ele><time>2026-03-22T10:46:15Z</time></trkpt><trkpt lat="44.38736124556232" lon="9.017098765210372"><ele>29.6</ele><time>2026-03-22T10:46:16Z</time></trkpt><trkpt lat="44.38742795664052" lon="9.01699222957126"><ele>30.8</ele><time>2026-03-22T10:46:17Z</time></trkpt><trkpt lat="44.387495014309806" lon="9.016885140416765"><ele>32.0</ele><time>2026-03-22T10:46:18Z</time></trkpt><trkpt lat="44.387561863915785" lon="9.016778528005952"><ele>32.0</ele><time>2026-03-22T10:46:19Z</time></trkpt><trkpt lat="44.387629966469625" lon="9.016669958733882"><ele>32.0</ele><time>2026-03-22T10:46:20Z</time></trkpt><trkpt lat="44.387697188134865" lon="9.016563312217752"><ele>32.0</ele><time>2026-03-22T10:46:21Z</time></trkpt><trkpt lat="44.38776365117291" lon="9.01645805233529"><ele>32.0</ele><time>2026-03-22T10:46:22Z</time></trkpt><trkpt lat="44.38783124584942" lon="9.016351000229943"><ele>32.0</ele><time>2026-03-22T10:46:23Z</time></trkpt><trkpt lat="44.38791218246479" lon="9.01624453649148"><ele>31.8</ele><time>2026-03-22T10:46:24Z</time></trkpt><trkpt lat="44.387984104866185" lon="9.01613537408209"><ele>31.6</ele><time>2026-03-22T10:46:25Z</time></trkpt><trkpt lat="44.38805277793378" lon="9.016026007482294"><ele>31.400000000000002</ele><time>2026-03-22T10:46:26Z</time></trkpt><trkpt lat="44.388125491095145" lon="9.015910349027134"><ele>31.200000000000003</ele><time>2026-03-22T10:46:27Z</time></trkpt><trkpt lat="44.38820029945609" lon="9.015797100820453"><ele>31.0</ele><time>2026-03-22T10:46:28Z</time></trkpt><trkpt lat="44.388275667397224" lon="9.015677095059509"><ele>31.0</ele><time>2026-03-22T10:46:29Z</time></trkpt><trkpt lat="44.388338949165124" lon="9.01555242219371"><ele>31.0</ele><time>2026-03-22T10:46:30Z</time></trkpt><trkpt lat="44.38841581219363" lon="9.015434889386505"><ele>31.0</ele><time>2026-03-22T10:46:31Z</time></trkpt><trkpt lat="44.3884918656828" lon="9.015318195423335"><ele>31.0</ele><time>2026-03-22T10:46:32Z</time></trkpt><trkpt lat="44.38856290208971" lon="9.015187604047949"><ele>31.0</ele><time>2026-03-22T10:46:33Z</time></trkpt><trkpt lat="44.388641657803355" lon="9.015065307130504"><ele>31.0</ele><time>2026-03-22T10:46:34Z</time></trkpt><trkpt lat="44.388719951022296" lon="9.014938092979783"><ele>31.0</ele><time>2026-03-22T10:46:35Z</time></trkpt><trkpt lat="44.38879665523499" lon="9.014811831059985"><ele>31.0</ele><time>2026-03-22T10:46:36Z</time></trkpt><trkpt lat="44.388871104799364" lon="9.014680150191026"><ele>32.0</ele><time>2026-03-22T10:46:37Z</time></trkpt><trkpt lat="44.388945344730395" lon="9.014550388147432"><ele>33.0</ele><time>2026-03-22T10:46:38Z</time></trkpt><trkpt lat="44.38902180846755" lon="9.01443616935395"><ele>34.0</ele><time>2026-03-22T10:46:39Z</time></trkpt><trkpt lat="44.389051815851694" lon="9.014290697493895"><ele>35.0</ele><time>2026-03-22T10:46:40Z</time></trkpt><trkpt lat="44.38910271737975" lon="9.014195198703622"><ele>36.0</ele><time>2026-03-22T10:46:41Z</time></trkpt><trkpt lat="44.389155300269685" lon="9.014099282245311"><ele>37.4</ele><time>2026-03-22T10:46:42Z</time></trkpt><trkpt lat="44.38921154909675" lon="9.01400341160933"><ele>38.8</ele><time>2026-03-22T10:46:43Z</time></trkpt><trkpt lat="44.38926346107117" lon="9.013914666793127"><ele>40.199999999999996</ele><time>2026-03-22T10:46:44Z</time></trkpt><trkpt lat="44.38932453905664" lon="9.013818334504734"><ele>41.6</ele><time>2026-03-22T10:46:45Z</time></trkpt><trkpt lat="44.38937450745271" lon="9.013712487676854"><ele>43.0</ele><time>2026-03-22T10:46:46Z</time></trkpt><trkpt lat="44.389439216125105" lon="9.013610064469171"><ele>43.0</ele><time>2026-03-22T10:46:47Z</time></trkpt><trkpt lat="44.3895015295633" lon="9.013506736559572"><ele>43.0</ele><time>2026-03-22T10:46:48Z</time></trkpt><trkpt lat="44.38956062281049" lon="9.013403420645187"><ele>43.0</ele><time>2026-03-22T10:46:49Z</time></trkpt><trkpt lat="44.389620897161876" lon="9.013300275608323"><ele>43.0</ele><time>2026-03-22T10:46:50Z</time></trkpt><trkpt lat="44.38968095960841" lon="9.01319143492544"><ele>43.0</ele><time>2026-03-22T10:46:51Z</time></trkpt><trkpt lat="44.38973616161298" lon="9.013097448963114"><ele>44.0</ele><time>2026-03-22T10:46:52Z</time></trkpt><trkpt lat="44.38978670193187" lon="9.013009339770676"><ele>45.0</ele><time>2026-03-22T10:46:53Z</time></trkpt><trkpt lat="44.38980468446529" lon="9.012906529298588"><ele>46.0</ele><time>2026-03-22T10:46:54Z</time></trkpt><trkpt lat="44.38984648483235" lon="9.01282802449424"><ele>47.0</ele><time>2026-03-22T10:46:55Z</time></trkpt><trkpt lat="44.38989059198036" lon="9.012745187312923"><ele>47.99999999999999</ele><time>2026-03-22T10:46:56Z</time></trkpt><trkpt lat="44.3899670636797" lon="9.01264032733858"><ele>49.0</ele><time>2026-03-22T10:46:58Z</time></trkpt><trkpt lat="44.39002615265924" lon="9.012503073532141"><ele>48.49999999999999</ele><time>2026-03-22T10:47:00Z</time></trkpt><trkpt lat="44.390083108580484" lon="9.012410468840079"><ele>48.0</ele><time>2026-03-22T10:47:02Z</time></trkpt><trkpt lat="44.390123067916086" lon="9.012330529045231"><ele>47.5</ele><time>2026-03-22T10:47:05Z</time></trkpt><trkpt lat="44.390159326918145" lon="9.012250132684658"><ele>47.0</ele><time>2026-03-22T10:47:24Z</time></trkpt><trkpt lat="44.39020866723921" lon="9.012164529755282"><ele>46.5</ele><time>2026-03-22T10:47:26Z</time></trkpt><trkpt lat="44.390295987167825" lon="9.012026311767643"><ele>46.0</ele><time>2026-03-22T10:47:28Z</time></trkpt><trkpt lat="44.39034120389266" lon="9.011957769815112"><ele>46.0</ele><time>2026-03-22T10:47:29Z</time></trkpt><trkpt lat="44.39041175073389" lon="9.011854769177035"><ele>46.0</ele><time>2026-03-22T10:47:31Z</time></trkpt><trkpt lat="44.39046078573899" lon="9.011790746558273"><ele>46.0</ele><time>2026-03-22T10:47:32Z</time></trkpt><trkpt lat="44.390511648021395" lon="9.011726894129245"><ele>46.0</ele><time>2026-03-22T10:47:33Z</time></trkpt><trkpt lat="44.39056939391858" lon="9.011657710732367"><ele>46.0</ele><time>2026-03-22T10:47:34Z</time></trkpt><trkpt lat="44.39064856105872" lon="9.01158932743039"><ele>46.0</ele><time>2026-03-22T10:47:35Z</time></trkpt><trkpt lat="44.39071298592554" lon="9.011492420611285"><ele>46.8</ele><time>2026-03-22T10:47:36Z</time></trkpt><trkpt lat="44.39078687075324" lon="9.011415110532916"><ele>47.599999999999994</ele><time>2026-03-22T10:47:37Z</time></trkpt><trkpt lat="44.390862959982" lon="9.011335076551042"><ele>48.4</ele><time>2026-03-22T10:47:38Z</time></trkpt><trkpt lat="44.39093960330102" lon="9.011249862445002"><ele>49.2</ele><time>2026-03-22T10:47:39Z</time></trkpt><trkpt lat="44.39101533713347" lon="9.011165974089282"><ele>50.0</ele><time>2026-03-22T10:47:40Z</time></trkpt><trkpt lat="44.3910833820127" lon="9.011090642644287"><ele>50.0</ele><time>2026-03-22T10:47:41Z</time></trkpt><trkpt lat="44.391155091653644" lon="9.011012771426882"><ele>50.0</ele><time>2026-03-22T10:47:42Z</time></trkpt><trkpt lat="44.39123446733792" lon="9.010929618450307"><ele>50.0</ele><time>2026-03-22T10:47:43Z</time></trkpt><trkpt lat="44.391309665126855" lon="9.01085084321522"><ele>50.0</ele><time>2026-03-22T10:47:44Z</time></trkpt><trkpt lat="44.39140266387566" lon="9.01079739946268"><ele>50.0</ele><time>2026-03-22T10:47:45Z</time></trkpt><trkpt lat="44.3914765455969" lon="9.010710223087735"><ele>48.8</ele><time>2026-03-22T10:47:46Z</time></trkpt><trkpt lat="44.3915453777508" lon="9.010619138291192"><ele>47.6</ele><time>2026-03-22T10:47:47Z</time></trkpt><trkpt lat="44.391613404211405" lon="9.01050929150941"><ele>46.400000000000006</ele><time>2026-03-22T10:47:48Z</time></trkpt><trkpt lat="44.39168566500175" lon="9.010407718637248"><ele>45.2</ele><time>2026-03-22T10:47:49Z</time></trkpt><trkpt lat="44.39175167407045" lon="9.010291388508135"><ele>44.0</ele><time>2026-03-22T10:47:50Z</time></trkpt><trkpt lat="44.39178900185989" lon="9.010146863327074"><ele>44.0</ele><time>2026-03-22T10:47:51Z</time></trkpt><trkpt lat="44.39184698739923" lon="9.010032047009245"><ele>44.0</ele><time>2026-03-22T10:47:52Z</time></trkpt><trkpt lat="44.391907004972744" lon="9.00991285532465"><ele>44.0</ele><time>2026-03-22T10:47:53Z</time></trkpt><trkpt lat="44.3919696871978" lon="9.009786215350193"><ele>44.0</ele><time>2026-03-22T10:47:54Z</time></trkpt><trkpt lat="44.39203497294048" lon="9.009654489603754"><ele>44.0</ele><time>2026-03-22T10:47:55Z</time></trkpt><trkpt lat="44.39209501001494" lon="9.009533266883242"><ele>44.83333333333333</ele><time>2026-03-22T10:47:56Z</time></trkpt><trkpt lat="44.392146160010284" lon="9.009429490283347"><ele>45.666666666666664</ele><time>2026-03-22T10:47:57Z</time></trkpt><trkpt lat="44.39219243714368" lon="9.009335958661103"><ele>46.5</ele><time>2026-03-22T10:47:58Z</time></trkpt><trkpt lat="44.392234938040914" lon="9.00924971531233"><ele>47.33333333333333</ele><time>2026-03-22T10:47:59Z</time></trkpt><trkpt lat="44.3922737204078" lon="9.009171017668002"><ele>48.166666666666664</ele><time>2026-03-22T10:48:00Z</time></trkpt><trkpt lat="44.39232494945511" lon="9.009067063060025"><ele>49.0</ele><time>2026-03-22T10:48:02Z</time></trkpt><trkpt lat="44.39237017559608" lon="9.008975827456393"><ele>50.33333333333333</ele><time>2026-03-22T10:48:35Z</time></trkpt><trkpt lat="44.392428881254325" lon="9.00886257966071"><ele>51.666666666666664</ele><time>2026-03-22T10:48:37Z</time></trkpt><trkpt lat="44.39246758789461" lon="9.008787911453648"><ele>53.0</ele><time>2026-03-22T10:48:38Z</time></trkpt><trkpt lat="44.392514766728866" lon="9.008701160689517"><ele>54.33333333333333</ele><time>2026-03-22T10:48:39Z</time></trkpt><trkpt lat="44.39256618272183" lon="9.008606586516692"><ele>55.666666666666664</ele><time>2026-03-22T10:48:40Z</time></trkpt><trkpt lat="44.39264644661434" lon="9.008522786935565"><ele>57.0</ele><time>2026-03-22T10:48:41Z</time></trkpt><trkpt lat="44.392711375753656" lon="9.008410523024668"><ele>56.2</ele><time>2026-03-22T10:48:42Z</time></trkpt><trkpt lat="44.39277658287661" lon="9.008294508856155"><ele>55.400000000000006</ele><time>2026-03-22T10:48:43Z</time></trkpt><trkpt lat="44.39284684613631" lon="9.00817180918625"><ele>54.599999999999994</ele><time>2026-03-22T10:48:44Z</time></trkpt><trkpt lat="44.39291857426548" lon="9.008050044075711"><ele>53.8</ele><time>2026-03-22T10:48:45Z</time></trkpt><trkpt lat="44.39299090355338" lon="9.0079364395994"><ele>53.0</ele><time>2026-03-22T10:48:46Z</time></trkpt><trkpt lat="44.39303388496026" lon="9.007812744438253"><ele>55.5</ele><time>2026-03-22T10:48:47Z</time></trkpt><trkpt lat="44.393114507525276" lon="9.007673675471356"><ele>58.0</ele><time>2026-03-22T10:48:48Z</time></trkpt><trkpt lat="44.39320682304228" lon="9.007565031049804"><ele>60.5</ele><time>2026-03-22T10:48:49Z</time></trkpt><trkpt lat="44.39328334721935" lon="9.007436425631056"><ele>63.0</ele><time>2026-03-22T10:48:50Z</time></trkpt><trkpt lat="44.39335319561127" lon="9.007302968455596"><ele>64.0</ele><time>2026-03-22T10:48:51Z</time></trkpt><trkpt lat="44.39342380029224" lon="9.007175963863407"><ele>65.0</ele><time>2026-03-22T10:48:52Z</time></trkpt><trkpt lat="44.39350090578202" lon="9.007042733363965"><ele>66.0</ele><time>2026-03-22T10:48:53Z</time></trkpt><trkpt lat="44.39357317259416" lon="9.006915151310345"><ele>67.0</ele><time>2026-03-22T10:48:54Z</time></trkpt><trkpt lat="44.393650461405045" lon="9.006788684561101"><ele>65.25</ele><time>2026-03-22T10:48:55Z</time></trkpt><trkpt lat="44.393717326897665" lon="9.006649888041407"><ele>63.5</ele><time>2026-03-22T10:48:56Z</time></trkpt><trkpt lat="44.393793617187896" lon="9.006509704041509"><ele>61.75</ele><time>2026-03-22T10:48:57Z</time></trkpt><trkpt lat="44.39387480952382" lon="9.006372506338908"><ele>60.0</ele><time>2026-03-22T10:48:58Z</time></trkpt><trkpt lat="44.393954138248056" lon="9.006222171635047"><ele>60.0</ele><time>2026-03-22T10:48:59Z</time></trkpt><trkpt lat="44.39403521607142" lon="9.006075984648025"><ele>60.0</ele><time>2026-03-22T10:49:00Z</time></trkpt><trkpt lat="44.39412215925679" lon="9.005942465139729"><ele>60.0</ele><time>2026-03-22T10:49:01Z</time></trkpt><trkpt lat="44.39419075820216" lon="9.00579243151667"><ele>60.0</ele><time>2026-03-22T10:49:02Z</time></trkpt><trkpt lat="44.39426444053668" lon="9.005656145442478"><ele>57.0</ele><time>2026-03-22T10:49:03Z</time></trkpt><trkpt lat="44.394337062313475" lon="9.005502859284432"><ele>54.0</ele><time>2026-03-22T10:49:04Z</time></trkpt><trkpt lat="44.39440802137949" lon="9.005361236826412"><ele>51.0</ele><time>2026-03-22T10:49:05Z</time></trkpt><trkpt lat="44.39447126477844" lon="9.005210091662576"><ele>48.0</ele><time>2026-03-22T10:49:06Z</time></trkpt><trkpt lat="44.39453250250426" lon="9.005052175138662"><ele>48.75</ele><time>2026-03-22T10:49:07Z</time></trkpt><trkpt lat="44.394587917706374" lon="9.004894715672803"><ele>49.5</ele><time>2026-03-22T10:49:08Z</time></trkpt><trkpt lat="44.39463418130118" lon="9.004733973291641"><ele>50.25</ele><time>2026-03-22T10:49:09Z</time></trkpt><trkpt lat="44.394675109453104" lon="9.004566647962017"><ele>51.0</ele><time>2026-03-22T10:49:10Z</time></trkpt><trkpt lat="44.39471716232635" lon="9.004397347822222"><ele>51.0</ele><time>2026-03-22T10:49:11Z</time></trkpt><trkpt lat="44.39475207225115" lon="9.004235206895528"><ele>51.0</ele><time>2026-03-22T10:49:12Z</time></trkpt><trkpt lat="44.39478919220018" lon="9.004068115211613"><ele>51.0</ele><time>2026-03-22T10:49:13Z</time></trkpt><trkpt lat="44.39482830627244" lon="9.003901972534866"><ele>51.0</ele><time>2026-03-22T10:49:14Z</time></trkpt><trkpt lat="44.39485422344425" lon="9.003737827231975"><ele>52.5</ele><time>2026-03-22T10:49:15Z</time></trkpt><trkpt lat="44.394872120498746" lon="9.003571000184595"><ele>54.0</ele><time>2026-03-22T10:49:16Z</time></trkpt><trkpt lat="44.39488895841954" lon="9.003404508685101"><ele>55.5</ele><time>2026-03-22T10:49:17Z</time></trkpt><trkpt lat="44.39490374458444" lon="9.003230894491113"><ele>57.0</ele><time>2026-03-22T10:49:18Z</time></trkpt><trkpt lat="44.39492207861937" lon="9.003046331775286"><ele>57.0</ele><time>2026-03-22T10:49:19Z</time></trkpt><trkpt lat="44.39494303304002" lon="9.002878430766282"><ele>57.0</ele><time>2026-03-22T10:49:20Z</time></trkpt><trkpt lat="44.394946949671976" lon="9.002721268919927"><ele>57.0</ele><time>2026-03-22T10:49:21Z</time></trkpt><trkpt lat="44.39495724269647" lon="9.002571385547489"><ele>57.0</ele><time>2026-03-22T10:49:22Z</time></trkpt><trkpt lat="44.39496388746481" lon="9.002422283007233"><ele>57.0</ele><time>2026-03-22T10:49:23Z</time></trkpt><trkpt lat="44.39495434060638" lon="9.002291178035899"><ele>56.0</ele><time>2026-03-22T10:49:24Z</time></trkpt><trkpt lat="44.39494589601484" lon="9.002188703529297"><ele>55.0</ele><time>2026-03-22T10:49:25Z</time></trkpt><trkpt lat="44.39491663902062" lon="9.002064170115878"><ele>54.0</ele><time>2026-03-22T10:49:26Z</time></trkpt><trkpt lat="44.39486920303802" lon="9.0019329079263"><ele>53.0</ele><time>2026-03-22T10:49:27Z</time></trkpt><trkpt lat="44.39482168227606" lon="9.001811290229037"><ele>52.0</ele><time>2026-03-22T10:49:28Z</time></trkpt><trkpt lat="44.39477360628365" lon="9.001697483125866"><ele>52.166666666666664</ele><time>2026-03-22T10:49:29Z</time></trkpt><trkpt lat="44.39471248348091" lon="9.001585003711332"><ele>52.33333333333333</ele><time>2026-03-22T10:49:30Z</time></trkpt><trkpt lat="44.394657689987596" lon="9.001485215174522"><ele>52.5</ele><time>2026-03-22T10:49:31Z</time></trkpt><trkpt lat="44.39460714238755" lon="9.001389939295024"><ele>52.66666666666667</ele><time>2026-03-22T10:49:32Z</time></trkpt><trkpt lat="44.394560777296164" lon="9.001296094894661"><ele>52.833333333333336</ele><time>2026-03-22T10:49:33Z</time></trkpt><trkpt lat="44.39451771731234" lon="9.001208285257555"><ele>53.0</ele><time>2026-03-22T10:49:34Z</time></trkpt><trkpt lat="44.394464498496156" lon="9.001089177528936"><ele>51.75</ele><time>2026-03-22T10:49:36Z</time></trkpt><trkpt lat="44.394435584953456" lon="9.000985818801123"><ele>50.5</ele><time>2026-03-22T10:49:38Z</time></trkpt><trkpt lat="44.394364113555085" lon="9.000736262103137"><ele>49.25</ele><time>2026-03-22T10:50:09Z</time></trkpt><trkpt lat="44.394339403666336" lon="9.000618894119937"><ele>48.0</ele><time>2026-03-22T10:50:10Z</time></trkpt><trkpt lat="44.394294512549244" lon="9.00049674942604"><ele>48.0</ele><time>2026-03-22T10:50:11Z</time></trkpt><trkpt lat="44.39428343695452" lon="9.000374314964887"><ele>48.0</ele><time>2026-03-22T10:50:12Z</time></trkpt><trkpt lat="44.3942584222968" lon="9.00022679764648"><ele>48.0</ele><time>2026-03-22T10:50:13Z</time></trkpt><trkpt lat="44.394221988635906" lon="9.000077135296795"><ele>48.0</ele><time>2026-03-22T10:50:14Z</time></trkpt><trkpt lat="44.394204974270544" lon="8.99993601282083"><ele>48.0</ele><time>2026-03-22T10:50:15Z</time></trkpt><trkpt lat="44.39419430384237" lon="8.999777524540162"><ele>48.0</ele><time>2026-03-22T10:50:16Z</time></trkpt><trkpt lat="44.39419347531415" lon="8.999604476898266"><ele>48.0</ele><time>2026-03-22T10:50:17Z</time></trkpt><trkpt lat="44.39419899052549" lon="8.999461721410665"><ele>48.0</ele><time>2026-03-22T10:50:18Z</time></trkpt><trkpt lat="44.394212364783186" lon="8.999317624844593"><ele>48.0</ele><time>2026-03-22T10:50:19Z</time></trkpt><trkpt lat="44.39423114518804" lon="8.999173263029153"><ele>48.0</ele><time>2026-03-22T10:50:20Z</time></trkpt><trkpt lat="44.39424982659495" lon="8.999029413594025"><ele>46.4</ele><time>2026-03-22T10:50:21Z</time></trkpt><trkpt lat="44.394270253760034" lon="8.998887524704292"><ele>44.8</ele><time>2026-03-22T10:50:22Z</time></trkpt><trkpt lat="44.39429305298636" lon="8.998739161628148"><ele>43.2</ele><time>2026-03-22T10:50:23Z</time></trkpt><trkpt lat="44.39431574780026" lon="8.99859250553993"><ele>41.6</ele><time>2026-03-22T10:50:24Z</time></trkpt><trkpt lat="44.39433734708969" lon="8.998444875486594"><ele>40.0</ele><time>2026-03-22T10:50:25Z</time></trkpt><trkpt lat="44.39437469889993" lon="8.998302289202785"><ele>39.6</ele><time>2026-03-22T10:50:26Z</time></trkpt><trkpt lat="44.39438793127243" lon="8.998153362813053"><ele>39.2</ele><time>2026-03-22T10:50:27Z</time></trkpt><trkpt lat="44.394407014916574" lon="8.998002865153053"><ele>38.8</ele><time>2026-03-22T10:50:28Z</time></trkpt><trkpt lat="44.394430739223345" lon="8.997864331212549"><ele>38.4</ele><time>2026-03-22T10:50:29Z</time></trkpt><trkpt lat="44.394451343624965" lon="8.997716653265764"><ele>38.0</ele><time>2026-03-22T10:50:30Z</time></trkpt><trkpt lat="44.39447542240833" lon="8.997565272111862"><ele>39.5</ele><time>2026-03-22T10:50:31Z</time></trkpt><trkpt lat="44.394499141096595" lon="8.99742086409836"><ele>41.0</ele><time>2026-03-22T10:50:32Z</time></trkpt><trkpt lat="44.39452056508222" lon="8.997257242625054"><ele>42.5</ele><time>2026-03-22T10:50:33Z</time></trkpt><trkpt lat="44.39454126133169" lon="8.997099568059562"><ele>44.0</ele><time>2026-03-22T10:50:34Z</time></trkpt><trkpt lat="44.394563885616776" lon="8.996933332987702"><ele>44.0</ele><time>2026-03-22T10:50:35Z</time></trkpt><trkpt lat="44.39458768374264" lon="8.996767549423579"><ele>44.0</ele><time>2026-03-22T10:50:36Z</time></trkpt><trkpt lat="44.39460983549904" lon="8.996601991991742"><ele>44.0</ele><time>2026-03-22T10:50:37Z</time></trkpt><trkpt lat="44.39463797505207" lon="8.99643458473673"><ele>44.0</ele><time>2026-03-22T10:50:38Z</time></trkpt><trkpt lat="44.39466480262852" lon="8.996262468930157"><ele>46.75</ele><time>2026-03-22T10:50:39Z</time></trkpt><trkpt lat="44.394689780562594" lon="8.996099228695856"><ele>49.5</ele><time>2026-03-22T10:50:40Z</time></trkpt><trkpt lat="44.39470148041832" lon="8.99591684739814"><ele>52.25</ele><time>2026-03-22T10:50:41Z</time></trkpt><trkpt lat="44.3947257532361" lon="8.995744473878707"><ele>55.0</ele><time>2026-03-22T10:50:42Z</time></trkpt><trkpt lat="44.394762859468095" lon="8.995574309257853"><ele>55.0</ele><time>2026-03-22T10:50:43Z</time></trkpt><trkpt lat="44.394792907805225" lon="8.995404378524054"><ele>55.0</ele><time>2026-03-22T10:50:44Z</time></trkpt><trkpt lat="44.39481568407569" lon="8.995228311933637"><ele>55.0</ele><time>2026-03-22T10:50:45Z</time></trkpt><trkpt lat="44.394839224329885" lon="8.995070940201296"><ele>55.0</ele><time>2026-03-22T10:50:46Z</time></trkpt><trkpt lat="44.39485716380943" lon="8.994914549192591"><ele>55.0</ele><time>2026-03-22T10:50:47Z</time></trkpt><trkpt lat="44.39488282205048" lon="8.994767595871778"><ele>55.0</ele><time>2026-03-22T10:50:48Z</time></trkpt><trkpt lat="44.39491376816131" lon="8.994622575402413"><ele>55.0</ele><time>2026-03-22T10:50:49Z</time></trkpt><trkpt lat="44.394944368009064" lon="8.9944811474263"><ele>55.0</ele><time>2026-03-22T10:50:50Z</time></trkpt><trkpt lat="44.39499321295251" lon="8.99435184862012"><ele>55.0</ele><time>2026-03-22T10:50:51Z</time></trkpt><trkpt lat="44.39504970345402" lon="8.994229819809698"><ele>54.2</ele><time>2026-03-22T10:50:52Z</time></trkpt><trkpt lat="44.3951017171997" lon="8.994110848235955"><ele>53.4</ele><time>2026-03-22T10:50:53Z</time></trkpt><trkpt lat="44.39516761952737" lon="8.993992781895484"><ele>52.599999999999994</ele><time>2026-03-22T10:50:54Z</time></trkpt><trkpt lat="44.395238518886636" lon="8.993892347643733"><ele>51.8</ele><time>2026-03-22T10:50:55Z</time></trkpt><trkpt lat="44.395319326752634" lon="8.993799081496826"><ele>51.0</ele><time>2026-03-22T10:50:56Z</time></trkpt><trkpt lat="44.39540761720782" lon="8.993709345487728"><ele>51.0</ele><time>2026-03-22T10:50:57Z</time></trkpt><trkpt lat="44.39549871026888" lon="8.993639664777968"><ele>51.0</ele><time>2026-03-22T10:50:58Z</time></trkpt><trkpt lat="44.39559278328456" lon="8.993572854042217"><ele>51.0</ele><time>2026-03-22T10:50:59Z</time></trkpt><trkpt lat="44.39568761723571" lon="8.993521368304105"><ele>51.0</ele><time>2026-03-22T10:51:00Z</time></trkpt><trkpt lat="44.39577466958603" lon="8.993485546172515"><ele>51.0</ele><time>2026-03-22T10:51:01Z</time></trkpt><trkpt lat="44.39587402672182" lon="8.993468939204577"><ele>51.0</ele><time>2026-03-22T10:51:02Z</time></trkpt><trkpt lat="44.395974756584835" lon="8.993467444085121"><ele>51.0</ele><time>2026-03-22T10:51:03Z</time></trkpt><trkpt lat="44.39607620291029" lon="8.993477203500111"><ele>51.0</ele><time>2026-03-22T10:51:04Z</time></trkpt><trkpt lat="44.39619360110514" lon="8.993492244002212"><ele>51.0</ele><time>2026-03-22T10:51:05Z</time></trkpt><trkpt lat="44.39630734758303" lon="8.993505042043424"><ele>51.0</ele><time>2026-03-22T10:51:06Z</time></trkpt><trkpt lat="44.396424544668875" lon="8.993523577443888"><ele>51.5</ele><time>2026-03-22T10:51:07Z</time></trkpt><trkpt lat="44.3965382129199" lon="8.99353895197365"><ele>52.0</ele><time>2026-03-22T10:51:08Z</time></trkpt><trkpt lat="44.39665454633693" lon="8.993558349733236"><ele>52.5</ele><time>2026-03-22T10:51:09Z</time></trkpt><trkpt lat="44.396773434761926" lon="8.993580246343987"><ele>53.0</ele><time>2026-03-22T10:51:10Z</time></trkpt><trkpt lat="44.396896781258725" lon="8.993607420550763"><ele>53.0</ele><time>2026-03-22T10:51:11Z</time></trkpt><trkpt lat="44.397018627236115" lon="8.993621084409334"><ele>53.0</ele><time>2026-03-22T10:51:12Z</time></trkpt><trkpt lat="44.39714117092668" lon="8.993638366585802"><ele>53.0</ele><time>2026-03-22T10:51:13Z</time></trkpt><trkpt lat="44.397266167731786" lon="8.993652166495728"><ele>53.0</ele><time>2026-03-22T10:51:14Z</time></trkpt><trkpt lat="44.39739307702209" lon="8.993670041519236"><ele>52.0</ele><time>2026-03-22T10:51:15Z</time></trkpt><trkpt lat="44.397513935411745" lon="8.993690704937945"><ele>51.0</ele><time>2026-03-22T10:51:16Z</time></trkpt><trkpt lat="44.39762957922697" lon="8.993705099081172"><ele>50.0</ele><time>2026-03-22T10:51:17Z</time></trkpt><trkpt lat="44.397744214591306" lon="8.99371212324654"><ele>49.0</ele><time>2026-03-22T10:51:18Z</time></trkpt><trkpt lat="44.39785026084592" lon="8.993715595049528"><ele>49.0</ele><time>2026-03-22T10:51:19Z</time></trkpt><trkpt lat="44.397956429772194" lon="8.993718202304217"><ele>49.0</ele><time>2026-03-22T10:51:20Z</time></trkpt><trkpt lat="44.398060841373415" lon="8.993693249145569"><ele>49.0</ele><time>2026-03-22T10:51:21Z</time></trkpt><trkpt lat="44.398158568407766" lon="8.99364949363424"><ele>49.0</ele><time>2026-03-22T10:51:22Z</time></trkpt><trkpt lat="44.398251279178474" lon="8.993590558310315"><ele>49.0</ele><time>2026-03-22T10:51:23Z</time></trkpt><trkpt lat="44.39834795112492" lon="8.99352160974502"><ele>49.400000000000006</ele><time>2026-03-22T10:51:24Z</time></trkpt><trkpt lat="44.39843626846788" lon="8.993440715935524"><ele>49.8</ele><time>2026-03-22T10:51:25Z</time></trkpt><trkpt lat="44.39851328575136" lon="8.993353029078317"><ele>50.2</ele><time>2026-03-22T10:51:26Z</time></trkpt><trkpt lat="44.398579243994305" lon="8.993256180805512"><ele>50.599999999999994</ele><time>2026-03-22T10:51:27Z</time></trkpt><trkpt lat="44.398640373199505" lon="8.993144553185067"><ele>51.0</ele><time>2026-03-22T10:51:28Z</time></trkpt><trkpt lat="44.39868792548955" lon="8.993019912129485"><ele>48.599999999999994</ele><time>2026-03-22T10:51:29Z</time></trkpt><trkpt lat="44.398729651258606" lon="8.992895452997145"><ele>46.199999999999996</ele><time>2026-03-22T10:51:30Z</time></trkpt><trkpt lat="44.39876244698537" lon="8.992771465606559"><ele>43.8</ele><time>2026-03-22T10:51:31Z</time></trkpt><trkpt lat="44.39878531145316" lon="8.99264639155946"><ele>41.4</ele><time>2026-03-22T10:51:32Z</time></trkpt><trkpt lat="44.39879841680605" lon="8.9925089086768"><ele>39.0</ele><time>2026-03-22T10:51:33Z</time></trkpt><trkpt lat="44.39880765682695" lon="8.99235803681091"><ele>39.75</ele><time>2026-03-22T10:51:34Z</time></trkpt><trkpt lat="44.39881632643199" lon="8.99220379516161"><ele>40.5</ele><time>2026-03-22T10:51:35Z</time></trkpt><trkpt lat="44.39882762894383" lon="8.992045222237051"><ele>41.25</ele><time>2026-03-22T10:51:36Z</time></trkpt><trkpt lat="44.398838488638624" lon="8.99188483360537"><ele>42.0</ele><time>2026-03-22T10:51:37Z</time></trkpt><trkpt lat="44.398848379509616" lon="8.991722552769271"><ele>42.75</ele><time>2026-03-22T10:51:38Z</time></trkpt><trkpt lat="44.39885674563444" lon="8.991561143012929"><ele>43.5</ele><time>2026-03-22T10:51:39Z</time></trkpt><trkpt lat="44.398866788658694" lon="8.99138911647146"><ele>44.25</ele><time>2026-03-22T10:51:40Z</time></trkpt><trkpt lat="44.39887680465177" lon="8.991215413021848"><ele>45.0</ele><time>2026-03-22T10:51:41Z</time></trkpt><trkpt lat="44.39887945044537" lon="8.991059697079066"><ele>45.0</ele><time>2026-03-22T10:51:42Z</time></trkpt><trkpt lat="44.398885912362594" lon="8.990908240193342"><ele>45.0</ele><time>2026-03-22T10:51:43Z</time></trkpt><trkpt lat="44.39890400639198" lon="8.99075630035257"><ele>45.0</ele><time>2026-03-22T10:51:44Z</time></trkpt><trkpt lat="44.398934516660894" lon="8.990607988784939"><ele>45.0</ele><time>2026-03-22T10:51:45Z</time></trkpt><trkpt lat="44.398973788179475" lon="8.990452475115676"><ele>45.0</ele><time>2026-03-22T10:51:46Z</time></trkpt><trkpt lat="44.39902305837535" lon="8.990297760373155"><ele>44.75</ele><time>2026-03-22T10:51:47Z</time></trkpt><trkpt lat="44.39907828919434" lon="8.990159008205145"><ele>44.5</ele><time>2026-03-22T10:51:48Z</time></trkpt><trkpt lat="44.39914273140717" lon="8.990029629545553"><ele>44.25</ele><time>2026-03-22T10:51:49Z</time></trkpt><trkpt lat="44.39920879083562" lon="8.989902547723906"><ele>44.0</ele><time>2026-03-22T10:51:50Z</time></trkpt><trkpt lat="44.39928024908626" lon="8.989775184759996"><ele>43.0</ele><time>2026-03-22T10:51:51Z</time></trkpt><trkpt lat="44.399355850956084" lon="8.989659716199602"><ele>42.0</ele><time>2026-03-22T10:51:52Z</time></trkpt><trkpt lat="44.39943392396733" lon="8.989539176781332"><ele>41.0</ele><time>2026-03-22T10:51:53Z</time></trkpt><trkpt lat="44.39951062087783" lon="8.989421309980363"><ele>40.0</ele><time>2026-03-22T10:51:54Z</time></trkpt><trkpt lat="44.399582415766034" lon="8.989306311925903"><ele>40.0</ele><time>2026-03-22T10:51:55Z</time></trkpt><trkpt lat="44.399653027212054" lon="8.989190303122799"><ele>40.0</ele><time>2026-03-22T10:51:56Z</time></trkpt><trkpt lat="44.3997225396841" lon="8.989080363917637"><ele>40.0</ele><time>2026-03-22T10:51:57Z</time></trkpt><trkpt lat="44.39979218278519" lon="8.98896262009324"><ele>40.0</ele><time>2026-03-22T10:51:58Z</time></trkpt><trkpt lat="44.39986508264812" lon="8.988849378443698"><ele>40.0</ele><time>2026-03-22T10:51:59Z</time></trkpt><trkpt lat="44.399940186870765" lon="8.98873557207645"><ele>39.0</ele><time>2026-03-22T10:52:00Z</time></trkpt><trkpt lat="44.40001088397996" lon="8.988628058582993"><ele>38.0</ele><time>2026-03-22T10:52:01Z</time></trkpt><trkpt lat="44.40008675754706" lon="8.98853941241301"><ele>37.0</ele><time>2026-03-22T10:52:02Z</time></trkpt><trkpt lat="44.40016390494148" lon="8.988456211272116"><ele>36.0</ele><time>2026-03-22T10:52:03Z</time></trkpt><trkpt lat="44.40023426684381" lon="8.988371212783742"><ele>35.0</ele><time>2026-03-22T10:52:04Z</time></trkpt><trkpt lat="44.40033135512902" lon="8.98833026594175"><ele>35.0</ele><time>2026-03-22T10:52:05Z</time></trkpt><trkpt lat="44.40041716846207" lon="8.988243202965343"><ele>35.0</ele><time>2026-03-22T10:52:06Z</time></trkpt><trkpt lat="44.400514740507205" lon="8.98819434093616"><ele>35.0</ele><time>2026-03-22T10:52:07Z</time></trkpt><trkpt lat="44.40061643627787" lon="8.988151215759553"><ele>35.0</ele><time>2026-03-22T10:52:08Z</time></trkpt><trkpt lat="44.40071652753415" lon="8.988084119350786"><ele>35.0</ele><time>2026-03-22T10:52:09Z</time></trkpt><trkpt lat="44.40082047552334" lon="8.988047607835195"><ele>36.6</ele><time>2026-03-22T10:52:10Z</time></trkpt><trkpt lat="44.40093146080095" lon="8.98801524878681"><ele>38.2</ele><time>2026-03-22T10:52:11Z</time></trkpt><trkpt lat="44.40103662987483" lon="8.987965750974185"><ele>39.8</ele><time>2026-03-22T10:52:12Z</time></trkpt><trkpt lat="44.401137713103275" lon="8.987909652661743"><ele>41.4</ele><time>2026-03-22T10:52:13Z</time></trkpt><trkpt lat="44.401239985368406" lon="8.987875890778561"><ele>43.0</ele><time>2026-03-22T10:52:14Z</time></trkpt><trkpt lat="44.4013206949724" lon="8.987813964908593"><ele>43.4</ele><time>2026-03-22T10:52:15Z</time></trkpt><trkpt lat="44.40139785817544" lon="8.987751772994011"><ele>43.8</ele><time>2026-03-22T10:52:16Z</time></trkpt><trkpt lat="44.40147522453986" lon="8.987671374656545"><ele>44.2</ele><time>2026-03-22T10:52:17Z</time></trkpt><trkpt lat="44.40154720328292" lon="8.987575352371165"><ele>44.6</ele><time>2026-03-22T10:52:18Z</time></trkpt><trkpt lat="44.40160745231826" lon="8.987482969275645"><ele>45.0</ele><time>2026-03-22T10:52:19Z</time></trkpt><trkpt lat="44.4016619693453" lon="8.987380193700757"><ele>42.0</ele><time>2026-03-22T10:52:20Z</time></trkpt><trkpt lat="44.40171710247648" lon="8.98727205239896"><ele>39.0</ele><time>2026-03-22T10:52:21Z</time></trkpt><trkpt lat="44.40176873965855" lon="8.987147549894416"><ele>36.0</ele><time>2026-03-22T10:52:22Z</time></trkpt><trkpt lat="44.401806419885624" lon="8.987008328756039"><ele>33.0</ele><time>2026-03-22T10:52:23Z</time></trkpt><trkpt lat="44.401857282377115" lon="8.986880163835178"><ele>30.0</ele><time>2026-03-22T10:52:24Z</time></trkpt><trkpt lat="44.401911315992145" lon="8.986745354217266"><ele>27.75</ele><time>2026-03-22T10:52:25Z</time></trkpt><trkpt lat="44.401972883952624" lon="8.986612917428861"><ele>25.5</ele><time>2026-03-22T10:52:26Z</time></trkpt><trkpt lat="44.40202715523376" lon="8.98647249918428"><ele>23.25</ele><time>2026-03-22T10:52:27Z</time></trkpt><trkpt lat="44.402085364937065" lon="8.98633702332932"><ele>21.0</ele><time>2026-03-22T10:52:28Z</time></trkpt><trkpt lat="44.402139961439325" lon="8.986191109077218"><ele>21.0</ele><time>2026-03-22T10:52:29Z</time></trkpt><trkpt lat="44.40219357773453" lon="8.986051263724166"><ele>21.0</ele><time>2026-03-22T10:52:30Z</time></trkpt><trkpt lat="44.40225097583999" lon="8.985919198796948"><ele>21.0</ele><time>2026-03-22T10:52:31Z</time></trkpt><trkpt lat="44.402299828882725" lon="8.985800575131908"><ele>21.0</ele><time>2026-03-22T10:52:32Z</time></trkpt><trkpt lat="44.40234922280978" lon="8.985689189139965"><ele>21.0</ele><time>2026-03-22T10:52:33Z</time></trkpt><trkpt lat="44.402398541737384" lon="8.985572793975237"><ele>23.0</ele><time>2026-03-22T10:52:34Z</time></trkpt><trkpt lat="44.40245013901231" lon="8.98545005802956"><ele>25.0</ele><time>2026-03-22T10:52:35Z</time></trkpt><trkpt lat="44.40250569652603" lon="8.98533390522628"><ele>27.0</ele><time>2026-03-22T10:52:36Z</time></trkpt><trkpt lat="44.40256030474092" lon="8.98521503443667"><ele>29.0</ele><time>2026-03-22T10:52:37Z</time></trkpt><trkpt lat="44.40261418814013" lon="8.985091907978601"><ele>31.0</ele><time>2026-03-22T10:52:38Z</time></trkpt><trkpt lat="44.402666637254335" lon="8.98496638084779"><ele>32.4</ele><time>2026-03-22T10:52:39Z</time></trkpt><trkpt lat="44.402718536483235" lon="8.984840370852911"><ele>33.8</ele><time>2026-03-22T10:52:40Z</time></trkpt><trkpt lat="44.402757767779775" lon="8.984712388034477"><ele>35.199999999999996</ele><time>2026-03-22T10:52:41Z</time></trkpt><trkpt lat="44.4028045974616" lon="8.984592057679016"><ele>36.6</ele><time>2026-03-22T10:52:42Z</time></trkpt><trkpt lat="44.4028604971354" lon="8.984492225495242"><ele>38.0</ele><time>2026-03-22T10:52:43Z</time></trkpt><trkpt lat="44.40289592132165" lon="8.984389910582324"><ele>38.0</ele><time>2026-03-22T10:52:44Z</time></trkpt><trkpt lat="44.40293334099409" lon="8.984299951299764"><ele>38.0</ele><time>2026-03-22T10:52:45Z</time></trkpt><trkpt lat="44.40296720341672" lon="8.98420754805576"><ele>38.0</ele><time>2026-03-22T10:52:46Z</time></trkpt><trkpt lat="44.403018755092944" lon="8.98407736133335"><ele>38.0</ele><time>2026-03-22T10:52:48Z</time></trkpt><trkpt lat="44.40305616748022" lon="8.983997061129221"><ele>38.0</ele><time>2026-03-22T10:52:50Z</time></trkpt><trkpt lat="44.4030908850973" lon="8.983898512352567"><ele>38.0</ele><time>2026-03-22T10:52:52Z</time></trkpt><trkpt lat="44.40314767963239" lon="8.983756844081778"><ele>39.33333333333333</ele><time>2026-03-22T10:52:54Z</time></trkpt><trkpt lat="44.403194779899756" lon="8.983672017381172"><ele>40.666666666666664</ele><time>2026-03-22T10:52:55Z</time></trkpt><trkpt lat="44.403242685728706" lon="8.9835900834664"><ele>42.0</ele><time>2026-03-22T10:52:56Z</time></trkpt><trkpt lat="44.40329516833519" lon="8.98349736089756"><ele>43.333333333333336</ele><time>2026-03-22T10:52:57Z</time></trkpt><trkpt lat="44.40335923107117" lon="8.983403403081677"><ele>44.66666666666667</ele><time>2026-03-22T10:52:58Z</time></trkpt><trkpt lat="44.40341592341919" lon="8.983321950590442"><ele>46.0</ele><time>2026-03-22T10:52:59Z</time></trkpt><trkpt lat="44.403480760361106" lon="8.983231720184751"><ele>47.0</ele><time>2026-03-22T10:53:00Z</time></trkpt><trkpt lat="44.403547775360245" lon="8.983141571756633"><ele>48.0</ele><time>2026-03-22T10:53:01Z</time></trkpt><trkpt lat="44.40361595295493" lon="8.983055396280959"><ele>49.0</ele><time>2026-03-22T10:53:02Z</time></trkpt><trkpt lat="44.403689835465336" lon="8.9829692994199"><ele>50.0</ele><time>2026-03-22T10:53:03Z</time></trkpt><trkpt lat="44.40376622266844" lon="8.982898052280667"><ele>51.0</ele><time>2026-03-22T10:53:04Z</time></trkpt><trkpt lat="44.403837211095514" lon="8.982796455745762"><ele>50.4</ele><time>2026-03-22T10:53:05Z</time></trkpt><trkpt lat="44.40392221405513" lon="8.982714393015778"><ele>49.8</ele><time>2026-03-22T10:53:06Z</time></trkpt><trkpt lat="44.403990507120284" lon="8.982648716436653"><ele>49.199999999999996</ele><time>2026-03-22T10:53:07Z</time></trkpt><trkpt lat="44.404060774708974" lon="8.982582034351472"><ele>48.599999999999994</ele><time>2026-03-22T10:53:08Z</time></trkpt><trkpt lat="44.40413664148252" lon="8.982509121645519"><ele>48.0</ele><time>2026-03-22T10:53:09Z</time></trkpt><trkpt lat="44.404218570634775" lon="8.982446306560742"><ele>48.0</ele><time>2026-03-22T10:53:10Z</time></trkpt><trkpt lat="44.404298076116746" lon="8.98237957866415"><ele>48.0</ele><time>2026-03-22T10:53:11Z</time></trkpt><trkpt lat="44.404374161855856" lon="8.982305884914627"><ele>48.0</ele><time>2026-03-22T10:53:12Z</time></trkpt><trkpt lat="44.404439871833226" lon="8.982215702179465"><ele>48.0</ele><time>2026-03-22T10:53:13Z</time></trkpt><trkpt lat="44.40451975533995" lon="8.982136315631948"><ele>48.0</ele><time>2026-03-22T10:53:14Z</time></trkpt><trkpt lat="44.404599586630816" lon="8.982056980934292"><ele>48.833333333333336</ele><time>2026-03-22T10:53:15Z</time></trkpt><trkpt lat="44.40467193184377" lon="8.981985963189974"><ele>49.66666666666667</ele><time>2026-03-22T10:53:16Z</time></trkpt><trkpt lat="44.404754089759244" lon="8.981917863023874"><ele>50.5</ele><time>2026-03-22T10:53:17Z</time></trkpt><trkpt lat="44.40482876117578" lon="8.981845271076264"><ele>51.333333333333336</ele><time>2026-03-22T10:53:18Z</time></trkpt><trkpt lat="44.404880891722655" lon="8.981758764213128"><ele>52.16666666666667</ele><time>2026-03-22T10:53:19Z</time></trkpt><trkpt lat="44.40493356233477" lon="8.981694998403755"><ele>53.0</ele><time>2026-03-22T10:53:20Z</time></trkpt><trkpt lat="44.40499571030051" lon="8.981663745003349"><ele>53.0</ele><time>2026-03-22T10:53:21Z</time></trkpt><trkpt lat="44.40508597857516" lon="8.981575623171674"><ele>53.0</ele><time>2026-03-22T10:53:23Z</time></trkpt><trkpt lat="44.405147285642414" lon="8.981501523239887"><ele>53.0</ele><time>2026-03-22T10:53:25Z</time></trkpt><trkpt lat="44.40525994591654" lon="8.98142083784895"><ele>53.0</ele><time>2026-03-22T10:53:27Z</time></trkpt><trkpt lat="44.40530935232951" lon="8.981364390916234"><ele>53.0</ele><time>2026-03-22T10:53:28Z</time></trkpt><trkpt lat="44.40538832750957" lon="8.981293009176207"><ele>56.0</ele><time>2026-03-22T10:53:30Z</time></trkpt><trkpt lat="44.405567767680836" lon="8.981057211980238"><ele>59.0</ele><time>2026-03-22T10:54:08Z</time></trkpt><trkpt lat="44.405642116541394" lon="8.980999761809569"><ele>62.0</ele><time>2026-03-22T10:54:09Z</time></trkpt><trkpt lat="44.405713145582446" lon="8.980939538850441"><ele>65.0</ele><time>2026-03-22T10:54:10Z</time></trkpt><trkpt lat="44.40578681642005" lon="8.980874515426233"><ele>63.2</ele><time>2026-03-22T10:54:11Z</time></trkpt><trkpt lat="44.405865774501336" lon="8.980806968126494"><ele>61.4</ele><time>2026-03-22T10:54:12Z</time></trkpt><trkpt lat="44.405938591686144" lon="8.980720236559419"><ele>59.599999999999994</ele><time>2026-03-22T10:54:13Z</time></trkpt><trkpt lat="44.40603065488983" lon="8.980636615857561"><ele>57.8</ele><time>2026-03-22T10:54:14Z</time></trkpt><trkpt lat="44.406116640050946" lon="8.980581185833048"><ele>56.0</ele><time>2026-03-22T10:54:15Z</time></trkpt><trkpt lat="44.4061971021706" lon="8.980503567598744"><ele>56.0</ele><time>2026-03-22T10:54:16Z</time></trkpt><trkpt lat="44.406275430099846" lon="8.980448964051508"><ele>55.99999999999999</ele><time>2026-03-22T10:54:17Z</time></trkpt><trkpt lat="44.40635799637421" lon="8.980353450335842"><ele>55.99999999999999</ele><time>2026-03-22T10:54:18Z</time></trkpt><trkpt lat="44.4064375077526" lon="8.980285660392557"><ele>56.0</ele><time>2026-03-22T10:54:19Z</time></trkpt><trkpt lat="44.40651483309134" lon="8.980197642509848"><ele>56.0</ele><time>2026-03-22T10:54:20Z</time></trkpt><trkpt lat="44.40658983826612" lon="8.980107906714691"><ele>56.4</ele><time>2026-03-22T10:54:21Z</time></trkpt><trkpt lat="44.40666931788531" lon="8.979993290316925"><ele>56.8</ele><time>2026-03-22T10:54:22Z</time></trkpt><trkpt lat="44.40674183111362" lon="8.979925113502611"><ele>57.199999999999996</ele><time>2026-03-22T10:54:23Z</time></trkpt><trkpt lat="44.406812113484854" lon="8.979843141108315"><ele>57.599999999999994</ele><time>2026-03-22T10:54:24Z</time></trkpt><trkpt lat="44.40688096086843" lon="8.979735401113313"><ele>58.0</ele><time>2026-03-22T10:54:25Z</time></trkpt><trkpt lat="44.4069363253666" lon="8.979637453069891"><ele>58.0</ele><time>2026-03-22T10:54:26Z</time></trkpt><trkpt lat="44.406995235415316" lon="8.97954848286506"><ele>58.0</ele><time>2026-03-22T10:54:27Z</time></trkpt><trkpt lat="44.40705867792645" lon="8.979449402871824"><ele>58.0</ele><time>2026-03-22T10:54:28Z</time></trkpt><trkpt lat="44.40712165795414" lon="8.979347503610569"><ele>58.0</ele><time>2026-03-22T10:54:29Z</time></trkpt><trkpt lat="44.40718092480588" lon="8.979246054705966"><ele>58.0</ele><time>2026-03-22T10:54:30Z</time></trkpt><trkpt lat="44.40724806121427" lon="8.979135304829457"><ele>58.8</ele><time>2026-03-22T10:54:31Z</time></trkpt><trkpt lat="44.40731123361189" lon="8.979015976612843"><ele>59.599999999999994</ele><time>2026-03-22T10:54:32Z</time></trkpt><trkpt lat="44.40737062667767" lon="8.978894098515784"><ele>60.400000000000006</ele><time>2026-03-22T10:54:33Z</time></trkpt><trkpt lat="44.40743326189229" lon="8.978782711832602"><ele>61.2</ele><time>2026-03-22T10:54:34Z</time></trkpt><trkpt lat="44.40748431772991" lon="8.978655461328435"><ele>62.0</ele><time>2026-03-22T10:54:35Z</time></trkpt><trkpt lat="44.407538724366354" lon="8.978532432923359"><ele>62.0</ele><time>2026-03-22T10:54:36Z</time></trkpt><trkpt lat="44.40758949763195" lon="8.978410683352667"><ele>62.0</ele><time>2026-03-22T10:54:37Z</time></trkpt><trkpt lat="44.4076409700396" lon="8.978294636882962"><ele>62.0</ele><time>2026-03-22T10:54:38Z</time></trkpt><trkpt lat="44.40769352999497" lon="8.978173693148793"><ele>62.0</ele><time>2026-03-22T10:54:39Z</time></trkpt><trkpt lat="44.407743150476385" lon="8.97804985351701"><ele>62.0</ele><time>2026-03-22T10:54:40Z</time></trkpt><trkpt lat="44.40779337542873" lon="8.977927926179577"><ele>62.2</ele><time>2026-03-22T10:54:41Z</time></trkpt><trkpt lat="44.407841724205724" lon="8.977807185327018"><ele>62.400000000000006</ele><time>2026-03-22T10:54:42Z</time></trkpt><trkpt lat="44.40786159391477" lon="8.977669630389316"><ele>62.599999999999994</ele><time>2026-03-22T10:54:43Z</time></trkpt><trkpt lat="44.407890290744916" lon="8.977547570660903"><ele>62.8</ele><time>2026-03-22T10:54:44Z</time></trkpt><trkpt lat="44.40791753896986" lon="8.977414152640067"><ele>63.0</ele><time>2026-03-22T10:54:45Z</time></trkpt><trkpt lat="44.40794013417163" lon="8.977277168131295"><ele>65.2</ele><time>2026-03-22T10:54:46Z</time></trkpt><trkpt lat="44.40795844186189" lon="8.977131107361313"><ele>67.4</ele><time>2026-03-22T10:54:47Z</time></trkpt><trkpt lat="44.40797151154376" lon="8.97698184412673"><ele>69.60000000000001</ele><time>2026-03-22T10:54:48Z</time></trkpt><trkpt lat="44.4079785080414" lon="8.97683775762458"><ele>71.8</ele><time>2026-03-22T10:54:49Z</time></trkpt><trkpt lat="44.407980981186846" lon="8.976693627517317"><ele>74.0</ele><time>2026-03-22T10:54:50Z</time></trkpt><trkpt lat="44.4079788520087" lon="8.976553244771212"><ele>75.4</ele><time>2026-03-22T10:54:51Z</time></trkpt><trkpt lat="44.40798178976522" lon="8.976415874814064"><ele>76.80000000000001</ele><time>2026-03-22T10:54:52Z</time></trkpt><trkpt lat="44.40794389438072" lon="8.976289898417766"><ele>78.19999999999999</ele><time>2026-03-22T10:54:53Z</time></trkpt><trkpt lat="44.407913567988544" lon="8.976184568691316"><ele>79.6</ele><time>2026-03-22T10:54:54Z</time></trkpt><trkpt lat="44.407882594970694" lon="8.976063625698178"><ele>81.0</ele><time>2026-03-22T10:54:55Z</time></trkpt><trkpt lat="44.407844533746236" lon="8.975944650517402"><ele>80.42857142857143</ele><time>2026-03-22T10:54:56Z</time></trkpt><trkpt lat="44.40781141826719" lon="8.97583439436252"><ele>79.85714285714286</ele><time>2026-03-22T10:54:57Z</time></trkpt><trkpt lat="44.40777600107259" lon="8.97573058878888"><ele>79.28571428571428</ele><time>2026-03-22T10:54:58Z</time></trkpt><trkpt lat="44.407742681037696" lon="8.975639231407426"><ele>78.71428571428572</ele><time>2026-03-22T10:54:59Z</time></trkpt><trkpt lat="44.40771255321919" lon="8.975560117248088"><ele>78.14285714285714</ele><time>2026-03-22T10:55:00Z</time></trkpt><trkpt lat="44.40767904764494" lon="8.975478880184381"><ele>77.57142857142857</ele><time>2026-03-22T10:55:01Z</time></trkpt><trkpt lat="44.4076469168337" lon="8.975398057188713"><ele>77.0</ele><time>2026-03-22T10:55:02Z</time></trkpt><trkpt lat="44.407630117664354" lon="8.975259707898958"><ele>77.0</ele><time>2026-03-22T10:55:04Z</time></trkpt><trkpt lat="44.407587733973365" lon="8.975146402708212"><ele>77.0</ele><time>2026-03-22T10:55:07Z</time></trkpt><trkpt lat="44.407544539790024" lon="8.975010387070853"><ele>77.0</ele><time>2026-03-22T10:55:09Z</time></trkpt><trkpt lat="44.40751206941841" lon="8.974910711158891"><ele>77.0</ele><time>2026-03-22T10:55:10Z</time></trkpt><trkpt lat="44.407482426421815" lon="8.974802625883013"><ele>77.0</ele><time>2026-03-22T10:55:11Z</time></trkpt><trkpt lat="44.407447829787145" lon="8.974699483034582"><ele>77.0</ele><time>2026-03-22T10:55:12Z</time></trkpt><trkpt lat="44.407412229178824" lon="8.974578544998792"><ele>75.4</ele><time>2026-03-22T10:55:13Z</time></trkpt><trkpt lat="44.40737930860422" lon="8.974456313544145"><ele>73.80000000000001</ele><time>2026-03-22T10:55:14Z</time></trkpt><trkpt lat="44.4073373722461" lon="8.974330759457237"><ele>72.2</ele><time>2026-03-22T10:55:15Z</time></trkpt><trkpt lat="44.40729943363247" lon="8.974205608986326"><ele>70.60000000000001</ele><time>2026-03-22T10:55:16Z</time></trkpt><trkpt lat="44.407266713280556" lon="8.974069294260843"><ele>69.0</ele><time>2026-03-22T10:55:17Z</time></trkpt><trkpt lat="44.40723571843226" lon="8.973924546517297"><ele>69.0</ele><time>2026-03-22T10:55:18Z</time></trkpt><trkpt lat="44.407204967880595" lon="8.973788991311576"><ele>69.0</ele><time>2026-03-22T10:55:19Z</time></trkpt><trkpt lat="44.40716578307992" lon="8.97364696556827"><ele>69.0</ele><time>2026-03-22T10:55:20Z</time></trkpt><trkpt lat="44.40712936986727" lon="8.973494113737603"><ele>69.0</ele><time>2026-03-22T10:55:21Z</time></trkpt><trkpt lat="44.407081478248934" lon="8.973344082261287"><ele>69.0</ele><time>2026-03-22T10:55:22Z</time></trkpt><trkpt lat="44.40703568345314" lon="8.973204023273912"><ele>70.25</ele><time>2026-03-22T10:55:23Z</time></trkpt><trkpt lat="44.40700194510928" lon="8.973053840837585"><ele>71.5</ele><time>2026-03-22T10:55:24Z</time></trkpt><trkpt lat="44.40695786473455" lon="8.972899537968212"><ele>72.75</ele><time>2026-03-22T10:55:25Z</time></trkpt><trkpt lat="44.40691356390879" lon="8.972748924044831"><ele>74.0</ele><time>2026-03-22T10:55:26Z</time></trkpt><trkpt lat="44.40688007522809" lon="8.97259085362333"><ele>73.5</ele><time>2026-03-22T10:55:27Z</time></trkpt><trkpt lat="44.40684762994037" lon="8.9724388753757"><ele>73.0</ele><time>2026-03-22T10:55:28Z</time></trkpt><trkpt lat="44.406798532366906" lon="8.97230747821894"><ele>72.5</ele><time>2026-03-22T10:55:29Z</time></trkpt><trkpt lat="44.40676111317044" lon="8.972157476088277"><ele>72.0</ele><time>2026-03-22T10:55:30Z</time></trkpt><trkpt lat="44.40671506458536" lon="8.971998375026098"><ele>72.0</ele><time>2026-03-22T10:55:31Z</time></trkpt><trkpt lat="44.40666860640326" lon="8.971844740934324"><ele>72.0</ele><time>2026-03-22T10:55:32Z</time></trkpt><trkpt lat="44.406623995838764" lon="8.9716945801364"><ele>72.0</ele><time>2026-03-22T10:55:33Z</time></trkpt><trkpt lat="44.40658727029428" lon="8.971546710806498"><ele>72.0</ele><time>2026-03-22T10:55:34Z</time></trkpt><trkpt lat="44.406553499257456" lon="8.971403844916429"><ele>71.4</ele><time>2026-03-22T10:55:35Z</time></trkpt><trkpt lat="44.4065085553413" lon="8.971274365154715"><ele>70.80000000000001</ele><time>2026-03-22T10:55:36Z</time></trkpt><trkpt lat="44.40645838856311" lon="8.971158761172143"><ele>70.2</ele><time>2026-03-22T10:55:37Z</time></trkpt><trkpt lat="44.406397252261115" lon="8.97104935683796"><ele>69.60000000000001</ele><time>2026-03-22T10:55:38Z</time></trkpt><trkpt lat="44.40633894056765" lon="8.97092623830895"><ele>69.0</ele><time>2026-03-22T10:55:39Z</time></trkpt><trkpt lat="44.406278780042484" lon="8.970810198277945"><ele>69.0</ele><time>2026-03-22T10:55:40Z</time></trkpt><trkpt lat="44.40621375349214" lon="8.970685966202899"><ele>69.0</ele><time>2026-03-22T10:55:41Z</time></trkpt><trkpt lat="44.40614233224274" lon="8.970549463119974"><ele>69.0</ele><time>2026-03-22T10:55:42Z</time></trkpt><trkpt lat="44.40606948049021" lon="8.970408612769235"><ele>69.0</ele><time>2026-03-22T10:55:43Z</time></trkpt><trkpt lat="44.405995331271896" lon="8.97026787202137"><ele>69.0</ele><time>2026-03-22T10:55:44Z</time></trkpt><trkpt lat="44.40591611201888" lon="8.97012740219413"><ele>69.0</ele><time>2026-03-22T10:55:45Z</time></trkpt><trkpt lat="44.40584493391853" lon="8.969995409411611"><ele>69.0</ele><time>2026-03-22T10:55:46Z</time></trkpt><trkpt lat="44.40577325075089" lon="8.96986373236795"><ele>69.0</ele><time>2026-03-22T10:55:47Z</time></trkpt><trkpt lat="44.40570019574169" lon="8.969717358764145"><ele>69.0</ele><time>2026-03-22T10:55:48Z</time></trkpt><trkpt lat="44.405629139877355" lon="8.969585618330965"><ele>69.0</ele><time>2026-03-22T10:55:49Z</time></trkpt><trkpt lat="44.40555651542645" lon="8.969446628827557"><ele>69.0</ele><time>2026-03-22T10:55:50Z</time></trkpt><trkpt lat="44.40548873448114" lon="8.969316598017905"><ele>69.0</ele><time>2026-03-22T10:55:51Z</time></trkpt><trkpt lat="44.4054290513453" lon="8.969189259274868"><ele>68.8</ele><time>2026-03-22T10:55:52Z</time></trkpt><trkpt lat="44.40537375854072" lon="8.969056475921708"><ele>68.60000000000001</ele><time>2026-03-22T10:55:53Z</time></trkpt><trkpt lat="44.40532590841243" lon="8.968915764933865"><ele>68.4</ele><time>2026-03-22T10:55:54Z</time></trkpt><trkpt lat="44.40528108295127" lon="8.968773303508884"><ele>68.2</ele><time>2026-03-22T10:55:55Z</time></trkpt><trkpt lat="44.40523748200925" lon="8.9686296872263"><ele>68.0</ele><time>2026-03-22T10:55:56Z</time></trkpt><trkpt lat="44.40520685651397" lon="8.968481722649752"><ele>65.0</ele><time>2026-03-22T10:55:57Z</time></trkpt><trkpt lat="44.405179835918545" lon="8.968322949041207"><ele>62.0</ele><time>2026-03-22T10:55:58Z</time></trkpt><trkpt lat="44.405158936640944" lon="8.968157083198637"><ele>59.0</ele><time>2026-03-22T10:55:59Z</time></trkpt><trkpt lat="44.40514044720021" lon="8.967994823892031"><ele>56.0</ele><time>2026-03-22T10:56:00Z</time></trkpt><trkpt lat="44.40512081102674" lon="8.967825156128784"><ele>56.0</ele><time>2026-03-22T10:56:01Z</time></trkpt><trkpt lat="44.405096970033505" lon="8.967660733510296"><ele>56.0</ele><time>2026-03-22T10:56:02Z</time></trkpt><trkpt lat="44.405061243056835" lon="8.967492767699808"><ele>56.0</ele><time>2026-03-22T10:56:03Z</time></trkpt><trkpt lat="44.405032741174686" lon="8.967338201603388"><ele>56.0</ele><time>2026-03-22T10:56:04Z</time></trkpt><trkpt lat="44.405004278134506" lon="8.967177713307205"><ele>55.599999999999994</ele><time>2026-03-22T10:56:05Z</time></trkpt><trkpt lat="44.40497437116569" lon="8.96702640437997"><ele>55.199999999999996</ele><time>2026-03-22T10:56:06Z</time></trkpt><trkpt lat="44.40494954508423" lon="8.966882714885328"><ele>54.800000000000004</ele><time>2026-03-22T10:56:07Z</time></trkpt><trkpt lat="44.40492290532671" lon="8.966755107413096"><ele>54.400000000000006</ele><time>2026-03-22T10:56:08Z</time></trkpt><trkpt lat="44.40489240367352" lon="8.966623415570725"><ele>54.0</ele><time>2026-03-22T10:56:09Z</time></trkpt><trkpt lat="44.404853779561016" lon="8.96649899737524"><ele>52.833333333333336</ele><time>2026-03-22T10:56:10Z</time></trkpt><trkpt lat="44.40483510382586" lon="8.966382260119696"><ele>51.666666666666664</ele><time>2026-03-22T10:56:11Z</time></trkpt><trkpt lat="44.40482097407894" lon="8.966278162331538"><ele>50.5</ele><time>2026-03-22T10:56:12Z</time></trkpt><trkpt lat="44.404803622717694" lon="8.966182886073698"><ele>49.33333333333333</ele><time>2026-03-22T10:56:13Z</time></trkpt><trkpt lat="44.404780274538844" lon="8.966036126428108"><ele>48.166666666666664</ele><time>2026-03-22T10:56:15Z</time></trkpt><trkpt lat="44.40476095431115" lon="8.965949075348774"><ele>47.0</ele><time>2026-03-22T10:56:17Z</time></trkpt><trkpt lat="44.40475175477919" lon="8.96581459940927"><ele>47.0</ele><time>2026-03-22T10:56:56Z</time></trkpt><trkpt lat="44.40473263718993" lon="8.965680665403506"><ele>47.0</ele><time>2026-03-22T10:56:58Z</time></trkpt><trkpt lat="44.40470477747268" lon="8.965544092657298"><ele>47.0</ele><time>2026-03-22T10:57:00Z</time></trkpt><trkpt lat="44.40468044700503" lon="8.96545451684575"><ele>47.0</ele><time>2026-03-22T10:57:01Z</time></trkpt><trkpt lat="44.404667745591155" lon="8.965268135590458"><ele>47.0</ele><time>2026-03-22T10:57:03Z</time></trkpt><trkpt lat="44.40467728737954" lon="8.96514768780169"><ele>45.4</ele><time>2026-03-22T10:57:04Z</time></trkpt><trkpt lat="44.404694253018526" lon="8.965004156330037"><ele>43.800000000000004</ele><time>2026-03-22T10:57:05Z</time></trkpt><trkpt lat="44.40468423110089" lon="8.964843885398812"><ele>42.2</ele><time>2026-03-22T10:57:06Z</time></trkpt><trkpt lat="44.40468661825594" lon="8.964720735384232"><ele>40.6</ele><time>2026-03-22T10:57:07Z</time></trkpt><trkpt lat="44.40469331609222" lon="8.964611022480467"><ele>39.0</ele><time>2026-03-22T10:57:08Z</time></trkpt><trkpt lat="44.40470273756538" lon="8.964477570805123"><ele>39.0</ele><time>2026-03-22T10:57:09Z</time></trkpt><trkpt lat="44.40469947453406" lon="8.964310160774408"><ele>39.0</ele><time>2026-03-22T10:57:10Z</time></trkpt><trkpt lat="44.4047026538135" lon="8.964188240753996"><ele>39.0</ele><time>2026-03-22T10:57:11Z</time></trkpt><trkpt lat="44.404692862917" lon="8.964049222163549"><ele>39.0</ele><time>2026-03-22T10:57:12Z</time></trkpt><trkpt lat="44.40469110092365" lon="8.963905775560306"><ele>39.0</ele><time>2026-03-22T10:57:13Z</time></trkpt><trkpt lat="44.40469637399908" lon="8.96374324828116"><ele>36.6</ele><time>2026-03-22T10:57:14Z</time></trkpt><trkpt lat="44.40469370411935" lon="8.963591972882593"><ele>34.2</ele><time>2026-03-22T10:57:15Z</time></trkpt><trkpt lat="44.404693926706464" lon="8.963439611809674"><ele>31.800000000000004</ele><time>2026-03-22T10:57:16Z</time></trkpt><trkpt lat="44.404695803854125" lon="8.963285248960457"><ele>29.400000000000002</ele><time>2026-03-22T10:57:17Z</time></trkpt><trkpt lat="44.404699714189455" lon="8.963129090892174"><ele>27.0</ele><time>2026-03-22T10:57:18Z</time></trkpt><trkpt lat="44.40470522968242" lon="8.962977848477175"><ele>26.0</ele><time>2026-03-22T10:57:19Z</time></trkpt><trkpt lat="44.40471427783507" lon="8.962817945015287"><ele>25.000000000000004</ele><time>2026-03-22T10:57:20Z</time></trkpt><trkpt lat="44.40470225810121" lon="8.962677004188"><ele>24.0</ele><time>2026-03-22T10:57:21Z</time></trkpt><trkpt lat="44.40470908048112" lon="8.962526000753355"><ele>23.0</ele><time>2026-03-22T10:57:22Z</time></trkpt><trkpt lat="44.40471168787" lon="8.962383872923462"><ele>22.0</ele><time>2026-03-22T10:57:23Z</time></trkpt><trkpt lat="44.404709300434476" lon="8.96223465259048"><ele>21.400000000000002</ele><time>2026-03-22T10:57:24Z</time></trkpt><trkpt lat="44.404710641532375" lon="8.962096221840975"><ele>20.8</ele><time>2026-03-22T10:57:25Z</time></trkpt><trkpt lat="44.40471119821386" lon="8.961955332467733"><ele>20.2</ele><time>2026-03-22T10:57:26Z</time></trkpt><trkpt lat="44.40470652988363" lon="8.961819058630843"><ele>19.6</ele><time>2026-03-22T10:57:27Z</time></trkpt><trkpt lat="44.40471089148494" lon="8.961687213425746"><ele>19.0</ele><time>2026-03-22T10:57:28Z</time></trkpt><trkpt lat="44.4047146478756" lon="8.961545493369254"><ele>18.8</ele><time>2026-03-22T10:57:29Z</time></trkpt><trkpt lat="44.40471642394651" lon="8.961404905639414"><ele>18.599999999999998</ele><time>2026-03-22T10:57:30Z</time></trkpt><trkpt lat="44.40471670754131" lon="8.961259145539687"><ele>18.4</ele><time>2026-03-22T10:57:31Z</time></trkpt><trkpt lat="44.404717999622044" lon="8.961116992380367"><ele>18.2</ele><time>2026-03-22T10:57:32Z</time></trkpt><trkpt lat="44.40472032432601" lon="8.960984711950369"><ele>18.0</ele><time>2026-03-22T10:57:33Z</time></trkpt><trkpt lat="44.40472134573706" lon="8.96085769070306"><ele>17.5</ele><time>2026-03-22T10:57:34Z</time></trkpt><trkpt lat="44.404719075005524" lon="8.96073581395657"><ele>17.0</ele><time>2026-03-22T10:57:35Z</time></trkpt><trkpt lat="44.40472172138751" lon="8.960616408910644"><ele>16.5</ele><time>2026-03-22T10:57:36Z</time></trkpt><trkpt lat="44.404727567663855" lon="8.960504306713831"><ele>16.0</ele><time>2026-03-22T10:57:37Z</time></trkpt><trkpt lat="44.404730624945564" lon="8.960390584348318"><ele>15.5</ele><time>2026-03-22T10:57:38Z</time></trkpt><trkpt lat="44.40473723594355" lon="8.960278487987923"><ele>15.0</ele><time>2026-03-22T10:57:39Z</time></trkpt><trkpt lat="44.40473914056452" lon="8.960177745268817"><ele>15.0</ele><time>2026-03-22T10:57:40Z</time></trkpt><trkpt lat="44.404741077654876" lon="8.960081959650871"><ele>15.0</ele><time>2026-03-22T10:57:41Z</time></trkpt><trkpt lat="44.404743704705254" lon="8.959961668293404"><ele>15.0</ele><time>2026-03-22T10:57:43Z</time></trkpt><trkpt lat="44.40474891233673" lon="8.959866001435472"><ele>15.0</ele><time>2026-03-22T10:57:56Z</time></trkpt><trkpt lat="44.40475560301531" lon="8.959717668564208"><ele>15.0</ele><time>2026-03-22T10:57:59Z</time></trkpt><trkpt lat="44.40476389594857" lon="8.95951974583153"><ele>15.333333333333334</ele><time>2026-03-22T10:58:01Z</time></trkpt><trkpt lat="44.40476325659286" lon="8.959339198561288"><ele>15.666666666666668</ele><time>2026-03-22T10:58:03Z</time></trkpt><trkpt lat="44.404764780247966" lon="8.959234974471485"><ele>16.0</ele><time>2026-03-22T10:58:04Z</time></trkpt><trkpt lat="44.404763954869075" lon="8.959138955658041"><ele>16.333333333333336</ele><time>2026-03-22T10:58:05Z</time></trkpt><trkpt lat="44.404767800416266" lon="8.959024772414958"><ele>16.666666666666668</ele><time>2026-03-22T10:58:06Z</time></trkpt><trkpt lat="44.40476908675657" lon="8.958898737596785"><ele>17.0</ele><time>2026-03-22T10:58:07Z</time></trkpt><trkpt lat="44.40477543532567" lon="8.958762254238966"><ele>17.0</ele><time>2026-03-22T10:58:08Z</time></trkpt><trkpt lat="44.40476672593646" lon="8.958667964016179"><ele>17.0</ele><time>2026-03-22T10:58:09Z</time></trkpt><trkpt lat="44.404775148354915" lon="8.95853819940005"><ele>17.0</ele><time>2026-03-22T10:58:10Z</time></trkpt><trkpt lat="44.4047710980164" lon="8.958408223015152"><ele>17.0</ele><time>2026-03-22T10:58:11Z</time></trkpt><trkpt lat="44.40477726065154" lon="8.958261023308753"><ele>17.0</ele><time>2026-03-22T10:58:12Z</time></trkpt><trkpt lat="44.40477682656272" lon="8.958125341131938"><ele>16.6</ele><time>2026-03-22T10:58:13Z</time></trkpt><trkpt lat="44.40478130165157" lon="8.957983905666696"><ele>16.2</ele><time>2026-03-22T10:58:14Z</time></trkpt><trkpt lat="44.40478902585665" lon="8.957845279217624"><ele>15.8</ele><time>2026-03-22T10:58:15Z</time></trkpt><trkpt lat="44.404826386849216" lon="8.957733273808651"><ele>15.4</ele><time>2026-03-22T10:58:16Z</time></trkpt><trkpt lat="44.40481568219476" lon="8.95760171387114"><ele>15.0</ele><time>2026-03-22T10:58:17Z</time></trkpt><trkpt lat="44.4048158260048" lon="8.957468003384585"><ele>15.0</ele><time>2026-03-22T10:58:18Z</time></trkpt><trkpt lat="44.404812381719545" lon="8.957339523573461"><ele>15.0</ele><time>2026-03-22T10:58:19Z</time></trkpt><trkpt lat="44.40480335600752" lon="8.957215388855083"><ele>15.0</ele><time>2026-03-22T10:58:20Z</time></trkpt><trkpt lat="44.40480736105548" lon="8.957071979951383"><ele>15.0</ele><time>2026-03-22T10:58:21Z</time></trkpt><trkpt lat="44.404808343047115" lon="8.956918792579849"><ele>15.0</ele><time>2026-03-22T10:58:22Z</time></trkpt><trkpt lat="44.40480994803541" lon="8.956766722715109"><ele>14.8</ele><time>2026-03-22T10:58:23Z</time></trkpt><trkpt lat="44.40481532233183" lon="8.956619987579584"><ele>14.6</ele><time>2026-03-22T10:58:24Z</time></trkpt><trkpt lat="44.40480920106162" lon="8.956498833879246"><ele>14.399999999999999</ele><time>2026-03-22T10:58:25Z</time></trkpt><trkpt lat="44.404805346343416" lon="8.956359235719365"><ele>14.2</ele><time>2026-03-22T10:58:26Z</time></trkpt><trkpt lat="44.404806809556476" lon="8.956227323480583"><ele>14.0</ele><time>2026-03-22T10:58:27Z</time></trkpt><trkpt lat="44.40480642314826" lon="8.9560884256156"><ele>14.0</ele><time>2026-03-22T10:58:28Z</time></trkpt><trkpt lat="44.40480722692385" lon="8.955938626502462"><ele>13.999999999999998</ele><time>2026-03-22T10:58:29Z</time></trkpt><trkpt lat="44.40480426611516" lon="8.955777103697919"><ele>13.999999999999998</ele><time>2026-03-22T10:58:30Z</time></trkpt><trkpt lat="44.40480464135852" lon="8.955636974906845"><ele>14.0</ele><time>2026-03-22T10:58:31Z</time></trkpt><trkpt lat="44.40481335442805" lon="8.955490388795068"><ele>14.0</ele><time>2026-03-22T10:58:32Z</time></trkpt><trkpt lat="44.40481501255624" lon="8.95533966355925"><ele>14.0</ele><time>2026-03-22T10:58:33Z</time></trkpt><trkpt lat="44.40481142512837" lon="8.95519471084342"><ele>13.999999999999998</ele><time>2026-03-22T10:58:34Z</time></trkpt><trkpt lat="44.404816067139784" lon="8.955030339335297"><ele>13.999999999999998</ele><time>2026-03-22T10:58:35Z</time></trkpt><trkpt lat="44.40483192752612" lon="8.954901412900995"><ele>14.0</ele><time>2026-03-22T10:58:36Z</time></trkpt><trkpt lat="44.40482669447008" lon="8.954759055459993"><ele>14.0</ele><time>2026-03-22T10:58:37Z</time></trkpt><trkpt lat="44.404820957302846" lon="8.954609980888048"><ele>13.799999999999999</ele><time>2026-03-22T10:58:38Z</time></trkpt><trkpt lat="44.40481887598836" lon="8.954452645375412"><ele>13.599999999999998</ele><time>2026-03-22T10:58:39Z</time></trkpt><trkpt lat="44.404821802920054" lon="8.954295190971806"><ele>13.4</ele><time>2026-03-22T10:58:40Z</time></trkpt><trkpt lat="44.40482457981756" lon="8.954140149720699"><ele>13.2</ele><time>2026-03-22T10:58:41Z</time></trkpt><trkpt lat="44.40482285544685" lon="8.95401734124203"><ele>13.0</ele><time>2026-03-22T10:58:42Z</time></trkpt><trkpt lat="44.40482585217424" lon="8.953867375827395"><ele>12.600000000000001</ele><time>2026-03-22T10:58:43Z</time></trkpt><trkpt lat="44.40481988654947" lon="8.95370892297116"><ele>12.200000000000001</ele><time>2026-03-22T10:58:44Z</time></trkpt><trkpt lat="44.40481814760249" lon="8.953578103913145"><ele>11.8</ele><time>2026-03-22T10:58:45Z</time></trkpt><trkpt lat="44.40481659855048" lon="8.953455661659284"><ele>11.4</ele><time>2026-03-22T10:58:46Z</time></trkpt><trkpt lat="44.404818978763124" lon="8.953329886675421"><ele>11.0</ele><time>2026-03-22T10:58:47Z</time></trkpt><trkpt lat="44.40481859561267" lon="8.953209849382857"><ele>11.0</ele><time>2026-03-22T10:58:48Z</time></trkpt><trkpt lat="44.40482240458449" lon="8.953070301050952"><ele>11.0</ele><time>2026-03-22T10:58:49Z</time></trkpt><trkpt lat="44.40482886845969" lon="8.952956892211441"><ele>11.0</ele><time>2026-03-22T10:58:50Z</time></trkpt><trkpt lat="44.40484092646017" lon="8.95283389409667"><ele>11.0</ele><time>2026-03-22T10:58:51Z</time></trkpt><trkpt lat="44.40485088047" lon="8.952707181730187"><ele>11.0</ele><time>2026-03-22T10:58:52Z</time></trkpt><trkpt lat="44.40485620619234" lon="8.952584398108984"><ele>11.0</ele><time>2026-03-22T10:58:53Z</time></trkpt><trkpt lat="44.40486951512909" lon="8.952425769740996"><ele>11.0</ele><time>2026-03-22T10:58:54Z</time></trkpt><trkpt lat="44.40488028267333" lon="8.952305187927847"><ele>11.0</ele><time>2026-03-22T10:58:55Z</time></trkpt><trkpt lat="44.40489256111446" lon="8.952167685631713"><ele>11.0</ele><time>2026-03-22T10:58:56Z</time></trkpt><trkpt lat="44.40490490407764" lon="8.95202946380963"><ele>11.0</ele><time>2026-03-22T10:58:57Z</time></trkpt><trkpt lat="44.40491932982692" lon="8.95192188190125"><ele>11.0</ele><time>2026-03-22T10:58:58Z</time></trkpt><trkpt lat="44.40494312404861" lon="8.95175924748621"><ele>10.833333333333332</ele><time>2026-03-22T10:59:00Z</time></trkpt><trkpt lat="44.404958951833" lon="8.951671668474836"><ele>10.666666666666666</ele><time>2026-03-22T10:59:01Z</time></trkpt><trkpt lat="44.40498208420524" lon="8.951562003998706"><ele>10.5</ele><time>2026-03-22T10:59:02Z</time></trkpt><trkpt lat="44.40500944377467" lon="8.951442277453737"><ele>10.333333333333334</ele><time>2026-03-22T10:59:03Z</time></trkpt><trkpt lat="44.405034379730864" lon="8.95133338458006"><ele>10.166666666666668</ele><time>2026-03-22T10:59:04Z</time></trkpt><trkpt lat="44.40506591256164" lon="8.95119808482328"><ele>10.0</ele><time>2026-03-22T10:59:05Z</time></trkpt><trkpt lat="44.405098544796466" lon="8.951061275155952"><ele>10.0</ele><time>2026-03-22T10:59:06Z</time></trkpt><trkpt lat="44.405131512028724" lon="8.950930748486638"><ele>10.0</ele><time>2026-03-22T10:59:07Z</time></trkpt><trkpt lat="44.40516573659245" lon="8.95079524359661"><ele>10.0</ele><time>2026-03-22T10:59:08Z</time></trkpt><trkpt lat="44.405198641488184" lon="8.950670571146075"><ele>10.0</ele><time>2026-03-22T10:59:09Z</time></trkpt><trkpt lat="44.40522644322661" lon="8.950565564475786"><ele>10.0</ele><time>2026-03-22T10:59:10Z</time></trkpt><trkpt lat="44.405251530724016" lon="8.950470809287243"><ele>10.0</ele><time>2026-03-22T10:59:11Z</time></trkpt><trkpt lat="44.40527875794148" lon="8.95036797252843"><ele>10.0</ele><time>2026-03-22T10:59:12Z</time></trkpt><trkpt lat="44.405305617095564" lon="8.950266294577398"><ele>10.0</ele><time>2026-03-22T10:59:13Z</time></trkpt><trkpt lat="44.4053292823825" lon="8.950179727806276"><ele>10.0</ele><time>2026-03-22T10:59:14Z</time></trkpt><trkpt lat="44.4053699477677" lon="8.950030975283374"><ele>10.0</ele><time>2026-03-22T10:59:16Z</time></trkpt><trkpt lat="44.405404846993946" lon="8.949903315137187"><ele>10.0</ele><time>2026-03-22T10:59:18Z</time></trkpt><trkpt lat="44.40544233495856" lon="8.949816122090253"><ele>10.0</ele><time>2026-03-22T10:59:26Z</time></trkpt><trkpt lat="44.40545941012503" lon="8.949717302435737"><ele>10.0</ele><time>2026-03-22T10:59:51Z</time></trkpt><trkpt lat="44.405477905077205" lon="8.949630674186666"><ele>10.0</ele><time>2026-03-22T10:59:53Z</time></trkpt><trkpt lat="44.40551163290565" lon="8.949491045509566"><ele>10.0</ele><time>2026-03-22T10:59:55Z</time></trkpt><trkpt lat="44.40552857931438" lon="8.9493686940728"><ele>10.0</ele><time>2026-03-22T10:59:57Z</time></trkpt><trkpt lat="44.40554872049684" lon="8.94927270980964"><ele>10.0</ele><time>2026-03-22T10:59:58Z</time></trkpt><trkpt lat="44.40556776121155" lon="8.949181969958737"><ele>10.0</ele><time>2026-03-22T10:59:59Z</time></trkpt><trkpt lat="44.40559963027507" lon="8.949030099162059"><ele>10.0</ele><time>2026-03-22T11:00:01Z</time></trkpt><trkpt lat="44.40564786104512" lon="8.948944440070905"><ele>10.0</ele><time>2026-03-22T11:00:03Z</time></trkpt><trkpt lat="44.40566841583418" lon="8.948845842145907"><ele>10.0</ele><time>2026-03-22T11:00:05Z</time></trkpt><trkpt lat="44.405709701518376" lon="8.948588908920442"><ele>10.0</ele><time>2026-03-22T11:00:17Z</time></trkpt><trkpt lat="44.40573189965772" lon="8.948459364801053"><ele>10.0</ele><time>2026-03-22T11:00:19Z</time></trkpt><trkpt lat="44.405733752632834" lon="8.948307966544563"><ele>9.8</ele><time>2026-03-22T11:00:21Z</time></trkpt><trkpt lat="44.40571281442005" lon="8.948127995607795"><ele>9.6</ele><time>2026-03-22T11:00:23Z</time></trkpt><trkpt lat="44.40569165866711" lon="8.948040750282445"><ele>9.4</ele><time>2026-03-22T11:00:24Z</time></trkpt><trkpt lat="44.405643649205146" lon="8.947886868314793"><ele>9.2</ele><time>2026-03-22T11:00:26Z</time></trkpt><trkpt lat="44.4055897188086" lon="8.947820492689713"><ele>9.0</ele><time>2026-03-22T11:00:27Z</time></trkpt><trkpt lat="44.40554189995883" lon="8.947727707707"><ele>9.0</ele><time>2026-03-22T11:00:28Z</time></trkpt><trkpt lat="44.40549225368598" lon="8.947631378562098"><ele>9.0</ele><time>2026-03-22T11:00:29Z</time></trkpt><trkpt lat="44.40544630954187" lon="8.9475422333613"><ele>9.0</ele><time>2026-03-22T11:00:30Z</time></trkpt><trkpt lat="44.40538911876379" lon="8.947431266250685"><ele>9.0</ele><time>2026-03-22T11:00:32Z</time></trkpt><trkpt lat="44.40541843330181" lon="8.947281390529039"><ele>9.0</ele><time>2026-03-22T11:00:33Z</time></trkpt><trkpt lat="44.40545603468754" lon="8.947150646255237"><ele>9.0</ele><time>2026-03-22T11:00:35Z</time></trkpt><trkpt lat="44.4054750252546" lon="8.947005391031189"><ele>9.0</ele><time>2026-03-22T11:00:37Z</time></trkpt><trkpt lat="44.40549910919901" lon="8.946887485866174"><ele>9.0</ele><time>2026-03-22T11:00:39Z</time></trkpt><trkpt lat="44.40552672763221" lon="8.946797210920854"><ele>9.0</ele><time>2026-03-22T11:00:41Z</time></trkpt><trkpt lat="44.40556817579794" lon="8.946700946500725"><ele>9.0</ele><time>2026-03-22T11:00:44Z</time></trkpt><trkpt lat="44.40565283462289" lon="8.9464217547186"><ele>8.8</ele><time>2026-03-22T11:00:59Z</time></trkpt><trkpt lat="44.405709842547736" lon="8.946346571805204"><ele>8.600000000000001</ele><time>2026-03-22T11:01:01Z</time></trkpt><trkpt lat="44.40572145579288" lon="8.946211967196867"><ele>8.4</ele><time>2026-03-22T11:01:03Z</time></trkpt><trkpt lat="44.40575178363058" lon="8.94604709121218"><ele>8.200000000000001</ele><time>2026-03-22T11:01:05Z</time></trkpt><trkpt lat="44.40574998715965" lon="8.945887754944325"><ele>8.0</ele><time>2026-03-22T11:01:07Z</time></trkpt><trkpt lat="44.40579249784874" lon="8.945720614709689"><ele>9.0</ele><time>2026-03-22T11:01:09Z</time></trkpt><trkpt lat="44.40582763712129" lon="8.945582351952753"><ele>10.0</ele><time>2026-03-22T11:01:11Z</time></trkpt><trkpt lat="44.40586153517781" lon="8.945450079123727"><ele>11.0</ele><time>2026-03-22T11:01:13Z</time></trkpt><trkpt lat="44.4058864072416" lon="8.94535692334836"><ele>12.0</ele><time>2026-03-22T11:01:15Z</time></trkpt><trkpt lat="44.40590768031888" lon="8.945271272467265"><ele>13.000000000000002</ele><time>2026-03-22T11:01:27Z</time></trkpt><trkpt lat="44.40595746433546" lon="8.945194807970406"><ele>14.0</ele><time>2026-03-22T11:01:48Z</time></trkpt><trkpt lat="44.40613305215342" lon="8.945123981902288"><ele>14.0</ele><time>2026-03-22T11:01:53Z</time></trkpt><trkpt lat="44.4063291773309" lon="8.945278945370182"><ele>13.999999999999998</ele><time>2026-03-22T11:01:56Z</time></trkpt><trkpt lat="44.40639564285652" lon="8.945317047114582"><ele>13.999999999999998</ele><time>2026-03-22T11:01:57Z</time></trkpt><trkpt lat="44.40646162825391" lon="8.945354872936681"><ele>14.0</ele><time>2026-03-22T11:01:58Z</time></trkpt><trkpt lat="44.40652558103407" lon="8.945391533379777"><ele>14.0</ele><time>2026-03-22T11:01:59Z</time></trkpt><trkpt lat="44.406583367249354" lon="8.945460790797798"><ele>14.0</ele><time>2026-03-22T11:02:01Z</time></trkpt><trkpt lat="44.40663468109569" lon="8.945532304751465"><ele>13.999999999999998</ele><time>2026-03-22T11:02:04Z</time></trkpt><trkpt lat="44.406673414707754" lon="8.945617410083969"><ele>13.999999999999998</ele><time>2026-03-22T11:02:09Z</time></trkpt><trkpt lat="44.40687003580589" lon="8.945728704720734"><ele>14.0</ele><time>2026-03-22T11:02:50Z</time></trkpt><trkpt lat="44.406934579971235" lon="8.945760226416033"><ele>14.0</ele><time>2026-03-22T11:02:51Z</time></trkpt><trkpt lat="44.407054197062244" lon="8.945723689041019"><ele>14.0</ele><time>2026-03-22T11:02:53Z</time></trkpt><trkpt lat="44.40709550555572" lon="8.945609796001497"><ele>13.999999999999998</ele><time>2026-03-22T11:02:54Z</time></trkpt><trkpt lat="44.407165702515634" lon="8.945559848778796"><ele>13.999999999999998</ele><time>2026-03-22T11:02:55Z</time></trkpt><trkpt lat="44.40724849243542" lon="8.945500941263028"><ele>14.0</ele><time>2026-03-22T11:02:56Z</time></trkpt><trkpt lat="44.40733261574574" lon="8.945441191631007"><ele>14.0</ele><time>2026-03-22T11:02:57Z</time></trkpt><trkpt lat="44.40742703440533" lon="8.945376304710372"><ele>13.6</ele><time>2026-03-22T11:02:58Z</time></trkpt><trkpt lat="44.4075218272117" lon="8.945318279213105"><ele>13.2</ele><time>2026-03-22T11:02:59Z</time></trkpt><trkpt lat="44.40761541131947" lon="8.94525962022106"><ele>12.799999999999999</ele><time>2026-03-22T11:03:00Z</time></trkpt><trkpt lat="44.407709501975866" lon="8.945194364205387"><ele>12.399999999999999</ele><time>2026-03-22T11:03:01Z</time></trkpt><trkpt lat="44.40779797101383" lon="8.945132658414801"><ele>12.0</ele><time>2026-03-22T11:03:02Z</time></trkpt><trkpt lat="44.40788610754165" lon="8.94507118449425"><ele>12.399999999999999</ele><time>2026-03-22T11:03:03Z</time></trkpt><trkpt lat="44.407980170977595" lon="8.94500567765457"><ele>12.799999999999999</ele><time>2026-03-22T11:03:04Z</time></trkpt><trkpt lat="44.408072456236646" lon="8.944941419031128"><ele>13.2</ele><time>2026-03-22T11:03:05Z</time></trkpt><trkpt lat="44.40816725842572" lon="8.944874421638831"><ele>13.6</ele><time>2026-03-22T11:03:06Z</time></trkpt><trkpt lat="44.408274087991664" lon="8.944818636630831"><ele>14.0</ele><time>2026-03-22T11:03:07Z</time></trkpt><trkpt lat="44.40835563300587" lon="8.944741295884146"><ele>14.0</ele><time>2026-03-22T11:03:08Z</time></trkpt><trkpt lat="44.40844288578304" lon="8.9446789737143"><ele>13.999999999999998</ele><time>2026-03-22T11:03:09Z</time></trkpt><trkpt lat="44.40853477540674" lon="8.944620010304307"><ele>13.999999999999998</ele><time>2026-03-22T11:03:10Z</time></trkpt><trkpt lat="44.408619066960185" lon="8.944563954728695"><ele>14.0</ele><time>2026-03-22T11:03:11Z</time></trkpt><trkpt lat="44.40870958921686" lon="8.94450596761996"><ele>14.0</ele><time>2026-03-22T11:03:12Z</time></trkpt><trkpt lat="44.408796231844484" lon="8.944447731438105"><ele>14.666666666666668</ele><time>2026-03-22T11:03:13Z</time></trkpt><trkpt lat="44.40887383021855" lon="8.944389351397673"><ele>15.333333333333334</ele><time>2026-03-22T11:03:14Z</time></trkpt><trkpt lat="44.40895027465021" lon="8.94433332262438"><ele>16.0</ele><time>2026-03-22T11:03:15Z</time></trkpt><trkpt lat="44.40901790682908" lon="8.944275357110058"><ele>16.666666666666668</ele><time>2026-03-22T11:03:16Z</time></trkpt><trkpt lat="44.409059052575266" lon="8.94419393954283"><ele>17.333333333333332</ele><time>2026-03-22T11:03:17Z</time></trkpt><trkpt lat="44.409098402300216" lon="8.944123589919732"><ele>18.0</ele><time>2026-03-22T11:03:18Z</time></trkpt><trkpt lat="44.40913137046778" lon="8.94399139290722"><ele>18.2</ele><time>2026-03-22T11:03:20Z</time></trkpt><trkpt lat="44.409148331010016" lon="8.943885123683547"><ele>18.4</ele><time>2026-03-22T11:03:22Z</time></trkpt><trkpt lat="44.409167080387185" lon="8.943790926648347"><ele>18.599999999999998</ele><time>2026-03-22T11:03:24Z</time></trkpt><trkpt lat="44.40937679926429" lon="8.943848344079369"><ele>18.8</ele><time>2026-03-22T11:03:26Z</time></trkpt><trkpt lat="44.409434511743505" lon="8.943884705083985"><ele>19.0</ele><time>2026-03-22T11:03:27Z</time></trkpt><trkpt lat="44.409539553165494" lon="8.943939250331148"><ele>19.0</ele><time>2026-03-22T11:03:29Z</time></trkpt><trkpt lat="44.40960550378116" lon="8.943968543606138"><ele>19.0</ele><time>2026-03-22T11:03:30Z</time></trkpt><trkpt lat="44.409741430664845" lon="8.944014327086483"><ele>19.0</ele><time>2026-03-22T11:03:32Z</time></trkpt><trkpt lat="44.409820136364495" lon="8.94404077342378"><ele>19.0</ele><time>2026-03-22T11:03:33Z</time></trkpt><trkpt lat="44.40989203380312" lon="8.944065135109623"><ele>19.0</ele><time>2026-03-22T11:03:34Z</time></trkpt><trkpt lat="44.4099685821149" lon="8.944080175375426"><ele>19.0</ele><time>2026-03-22T11:03:35Z</time></trkpt><trkpt lat="44.41004122830473" lon="8.944085716763148"><ele>22.0</ele><time>2026-03-22T11:03:36Z</time></trkpt><trkpt lat="44.41013611392211" lon="8.944048177634178"><ele>25.0</ele><time>2026-03-22T11:03:37Z</time></trkpt><trkpt lat="44.4102144777822" lon="8.944092801325743"><ele>28.0</ele><time>2026-03-22T11:03:38Z</time></trkpt><trkpt lat="44.41031604467999" lon="8.944139011517965"><ele>31.0</ele><time>2026-03-22T11:03:40Z</time></trkpt><trkpt lat="44.41041511396026" lon="8.944178667554416"><ele>34.0</ele><time>2026-03-22T11:03:42Z</time></trkpt><trkpt lat="44.410578326899376" lon="8.94425129934855"><ele>36.16666666666667</ele><time>2026-03-22T11:03:44Z</time></trkpt><trkpt lat="44.41066347316327" lon="8.944294357873863"><ele>38.333333333333336</ele><time>2026-03-22T11:03:45Z</time></trkpt><trkpt lat="44.41076217687846" lon="8.944347863418944"><ele>40.5</ele><time>2026-03-22T11:03:46Z</time></trkpt><trkpt lat="44.41084150354573" lon="8.944411879914657"><ele>42.666666666666664</ele><time>2026-03-22T11:03:47Z</time></trkpt><trkpt lat="44.41089549631434" lon="8.944469205191455"><ele>44.83333333333333</ele><time>2026-03-22T11:03:48Z</time></trkpt><trkpt lat="44.41096726023769" lon="8.944514607338025"><ele>47.0</ele><time>2026-03-22T11:03:49Z</time></trkpt><trkpt lat="44.41101529275143" lon="8.944598016644116"><ele>47.0</ele><time>2026-03-22T11:03:51Z</time></trkpt><trkpt lat="44.41100008750848" lon="8.94468973631452"><ele>47.0</ele><time>2026-03-22T11:03:52Z</time></trkpt><trkpt lat="44.41091471120949" lon="8.944673684165684"><ele>47.0</ele><time>2026-03-22T11:03:53Z</time></trkpt><trkpt lat="44.410834064902915" lon="8.944636166375046"><ele>47.0</ele><time>2026-03-22T11:03:57Z</time></trkpt><trkpt lat="44.41075783098676" lon="8.94462910333776"><ele>47.0</ele><time>2026-03-22T11:03:58Z</time></trkpt><trkpt lat="44.41069186189716" lon="8.944622991358758"><ele>47.0</ele><time>2026-03-22T11:03:59Z</time></trkpt><trkpt lat="44.410613837319126" lon="8.944615762434513"><ele>45.166666666666664</ele><time>2026-03-22T11:04:00Z</time></trkpt><trkpt lat="44.41049083034926" lon="8.94460185885268"><ele>43.33333333333333</ele><time>2026-03-22T11:04:02Z</time></trkpt><trkpt lat="44.41041618733012" lon="8.944610221957602"><ele>41.5</ele><time>2026-03-22T11:04:03Z</time></trkpt><trkpt lat="44.41034162120309" lon="8.94460574886025"><ele>39.666666666666664</ele><time>2026-03-22T11:04:04Z</time></trkpt><trkpt lat="44.41027429960559" lon="8.944630020349345"><ele>37.833333333333336</ele><time>2026-03-22T11:04:05Z</time></trkpt><trkpt lat="44.41019929252522" lon="8.944720120889814"><ele>36.0</ele><time>2026-03-22T11:04:07Z</time></trkpt><trkpt lat="44.410200969997405" lon="8.944847223097407"><ele>36.0</ele><time>2026-03-22T11:04:09Z</time></trkpt><trkpt lat="44.41013534359277" lon="8.944766750881097"><ele>36.0</ele><time>2026-03-22T11:04:11Z</time></trkpt><trkpt lat="44.410306620056254" lon="8.944945344527989"><ele>36.0</ele><time>2026-03-22T11:04:13Z</time></trkpt><trkpt lat="44.41041889563167" lon="8.944956201671275"><ele>36.0</ele><time>2026-03-22T11:04:15Z</time></trkpt><trkpt lat="44.41053967650628" lon="8.94496633312087"><ele>37.833333333333336</ele><time>2026-03-22T11:04:17Z</time></trkpt><trkpt lat="44.41062831806636" lon="8.944972822872659"><ele>39.666666666666664</ele><time>2026-03-22T11:04:18Z</time></trkpt><trkpt lat="44.41071100418569" lon="8.944978203865618"><ele>41.5</ele><time>2026-03-22T11:04:19Z</time></trkpt><trkpt lat="44.41079422257083" lon="8.94498361949261"><ele>43.33333333333333</ele><time>2026-03-22T11:04:20Z</time></trkpt><trkpt lat="44.410868377195584" lon="8.944988445290594"><ele>45.166666666666664</ele><time>2026-03-22T11:04:21Z</time></trkpt><trkpt lat="44.41096282699042" lon="8.944994886703316"><ele>47.0</ele><time>2026-03-22T11:04:22Z</time></trkpt><trkpt lat="44.41105155113894" lon="8.945001162623754"><ele>47.0</ele><time>2026-03-22T11:04:23Z</time></trkpt><trkpt lat="44.41120369108607" lon="8.944961959819857"><ele>47.0</ele><time>2026-03-22T11:04:26Z</time></trkpt><trkpt lat="44.41123673334156" lon="8.944844917283032"><ele>47.0</ele><time>2026-03-22T11:04:29Z</time></trkpt><trkpt lat="44.4112340157312" lon="8.944754717447324"><ele>47.0</ele><time>2026-03-22T11:04:31Z</time></trkpt><trkpt lat="44.4112480349327" lon="8.94466239825122"><ele>47.0</ele><time>2026-03-22T11:04:32Z</time></trkpt><trkpt lat="44.411263453099274" lon="8.944560865528931"><ele>47.0</ele><time>2026-03-22T11:04:33Z</time></trkpt><trkpt lat="44.41128154546975" lon="8.944460012887776"><ele>47.0</ele><time>2026-03-22T11:04:34Z</time></trkpt><trkpt lat="44.41129064881423" lon="8.944370873423166"><ele>47.0</ele><time>2026-03-22T11:04:35Z</time></trkpt><trkpt lat="44.411277419680545" lon="8.94424518152034"><ele>47.0</ele><time>2026-03-22T11:04:37Z</time></trkpt><trkpt lat="44.411236879756814" lon="8.944124328629306"><ele>47.0</ele><time>2026-03-22T11:04:40Z</time></trkpt><trkpt lat="44.411127323723115" lon="8.944042365916166"><ele>47.0</ele><time>2026-03-22T11:04:42Z</time></trkpt><trkpt lat="44.41100039908877" lon="8.943976750019052"><ele>46.33333333333333</ele><time>2026-03-22T11:04:44Z</time></trkpt><trkpt lat="44.41091635402642" lon="8.943924325021921"><ele>45.666666666666664</ele><time>2026-03-22T11:04:45Z</time></trkpt><trkpt lat="44.41084161719987" lon="8.943877983644889"><ele>45.0</ele><time>2026-03-22T11:04:46Z</time></trkpt><trkpt lat="44.41076462390842" lon="8.94383122689425"><ele>44.333333333333336</ele><time>2026-03-22T11:04:47Z</time></trkpt><trkpt lat="44.410687959929604" lon="8.943784014261366"><ele>43.66666666666667</ele><time>2026-03-22T11:04:48Z</time></trkpt><trkpt lat="44.41062090292209" lon="8.943742865157644"><ele>43.0</ele><time>2026-03-22T11:04:49Z</time></trkpt><trkpt lat="44.41055869746743" lon="8.943705449129048"><ele>43.4</ele><time>2026-03-22T11:04:50Z</time></trkpt><trkpt lat="44.410448873190695" lon="8.943638956259974"><ele>43.8</ele><time>2026-03-22T11:04:52Z</time></trkpt><trkpt lat="44.41039089121569" lon="8.943577711745975"><ele>44.2</ele><time>2026-03-22T11:04:53Z</time></trkpt><trkpt lat="44.41035195080126" lon="8.94348854521982"><ele>44.6</ele><time>2026-03-22T11:04:54Z</time></trkpt><trkpt lat="44.4103522970147" lon="8.943352208268058"><ele>45.0</ele><time>2026-03-22T11:04:55Z</time></trkpt><trkpt lat="44.41035254116703" lon="8.943182674138916"><ele>45.0</ele><time>2026-03-22T11:04:57Z</time></trkpt><trkpt lat="44.410353678720426" lon="8.943070604554828"><ele>45.0</ele><time>2026-03-22T11:04:58Z</time></trkpt><trkpt lat="44.410355196996235" lon="8.942895276115182"><ele>45.0</ele><time>2026-03-22T11:05:00Z</time></trkpt><trkpt lat="44.41037172717286" lon="8.942748602113259"><ele>45.0</ele><time>2026-03-22T11:05:02Z</time></trkpt><trkpt lat="44.410376021825016" lon="8.942652908905606"><ele>45.0</ele><time>2026-03-22T11:05:04Z</time></trkpt><trkpt lat="44.41038304173681" lon="8.942556396586477"><ele>45.0</ele><time>2026-03-22T11:05:07Z</time></trkpt><trkpt lat="44.41038986717157" lon="8.942453126664274"><ele>44.8</ele><time>2026-03-22T11:05:11Z</time></trkpt><trkpt lat="44.41039564088393" lon="8.942337252096811"><ele>44.6</ele><time>2026-03-22T11:05:18Z</time></trkpt><trkpt lat="44.410418742023424" lon="8.942243913959878"><ele>44.400000000000006</ele><time>2026-03-22T11:05:20Z</time></trkpt><trkpt lat="44.410417057486804" lon="8.942097954925956"><ele>44.2</ele><time>2026-03-22T11:05:22Z</time></trkpt><trkpt lat="44.410401432541356" lon="8.94195443592463"><ele>44.0</ele><time>2026-03-22T11:05:24Z</time></trkpt><trkpt lat="44.41036534263432" lon="8.941794266944934"><ele>44.0</ele><time>2026-03-22T11:05:26Z</time></trkpt><trkpt lat="44.41036640709926" lon="8.941667577981065"><ele>44.0</ele><time>2026-03-22T11:05:28Z</time></trkpt><trkpt lat="44.41042155490007" lon="8.94153314280348"><ele>44.0</ele><time>2026-03-22T11:05:30Z</time></trkpt><trkpt lat="44.41047718802825" lon="8.941474629738778"><ele>44.0</ele><time>2026-03-22T11:05:31Z</time></trkpt><trkpt lat="44.41058642521897" lon="8.941385903432383"><ele>44.0</ele><time>2026-03-22T11:05:33Z</time></trkpt><trkpt lat="44.41064194881827" lon="8.941328293101675"><ele>46.666666666666664</ele><time>2026-03-22T11:05:34Z</time></trkpt><trkpt lat="44.4106717162254" lon="8.941247009479596"><ele>49.33333333333333</ele><time>2026-03-22T11:05:35Z</time></trkpt><trkpt lat="44.410766940966965" lon="8.94119210844384"><ele>52.0</ele><time>2026-03-22T11:05:37Z</time></trkpt><trkpt lat="44.41082436492946" lon="8.941150058967143"><ele>54.666666666666664</ele><time>2026-03-22T11:05:39Z</time></trkpt><trkpt lat="44.410876280491394" lon="8.941091331674443"><ele>57.333333333333336</ele><time>2026-03-22T11:05:43Z</time></trkpt><trkpt lat="44.41094884404027" lon="8.940987368931637"><ele>60.0</ele><time>2026-03-22T11:05:49Z</time></trkpt><trkpt lat="44.411034737249445" lon="8.940928855451114"><ele>60.0</ele><time>2026-03-22T11:05:51Z</time></trkpt><trkpt lat="44.41110920098373" lon="8.940883036929954"><ele>60.0</ele><time>2026-03-22T11:05:54Z</time></trkpt><trkpt lat="44.411192208308044" lon="8.940837597215614"><ele>60.0</ele><time>2026-03-22T11:05:56Z</time></trkpt><trkpt lat="44.41127613547303" lon="8.940871296627641"><ele>60.0</ele><time>2026-03-22T11:05:59Z</time></trkpt><trkpt lat="44.411350051405" lon="8.94099341102636"><ele>60.0</ele><time>2026-03-22T11:06:01Z</time></trkpt><trkpt lat="44.411382416054266" lon="8.941076641048797"><ele>60.0</ele><time>2026-03-22T11:06:02Z</time></trkpt><trkpt lat="44.41140882836443" lon="8.94115970099454"><ele>61.5</ele><time>2026-03-22T11:06:03Z</time></trkpt><trkpt lat="44.4113748820047" lon="8.94127566854949"><ele>63.0</ele><time>2026-03-22T11:06:04Z</time></trkpt><trkpt lat="44.411410742525526" lon="8.941358695613124"><ele>64.5</ele><time>2026-03-22T11:06:05Z</time></trkpt><trkpt lat="44.411455227778006" lon="8.941424880049102"><ele>66.0</ele><time>2026-03-22T11:06:06Z</time></trkpt><trkpt lat="44.411512668792724" lon="8.941559989207231"><ele>67.5</ele><time>2026-03-22T11:06:08Z</time></trkpt><trkpt lat="44.41153422651865" lon="8.941644595658301"><ele>69.0</ele><time>2026-03-22T11:06:09Z</time></trkpt><trkpt lat="44.41159757465235" lon="8.941790100883834"><ele>69.83333333333333</ele><time>2026-03-22T11:06:11Z</time></trkpt><trkpt lat="44.41166064768059" lon="8.941935559461399"><ele>70.66666666666667</ele><time>2026-03-22T11:06:13Z</time></trkpt><trkpt lat="44.41169869304079" lon="8.942023299360622"><ele>71.5</ele><time>2026-03-22T11:06:14Z</time></trkpt><trkpt lat="44.411745746165174" lon="8.942088871450713"><ele>72.33333333333334</ele><time>2026-03-22T11:06:15Z</time></trkpt><trkpt lat="44.41177448456597" lon="8.942198089438575"><ele>73.16666666666667</ele><time>2026-03-22T11:06:16Z</time></trkpt><trkpt lat="44.41181833239806" lon="8.942299209759735"><ele>74.0</ele><time>2026-03-22T11:06:17Z</time></trkpt><trkpt lat="44.41186087288255" lon="8.942396149098734"><ele>74.0</ele><time>2026-03-22T11:06:18Z</time></trkpt><trkpt lat="44.411896451897036" lon="8.942479828329963"><ele>74.0</ele><time>2026-03-22T11:06:19Z</time></trkpt><trkpt lat="44.41194021736941" lon="8.942577024225043"><ele>74.0</ele><time>2026-03-22T11:06:20Z</time></trkpt><trkpt lat="44.411982455058215" lon="8.942674035704359"><ele>74.0</ele><time>2026-03-22T11:06:21Z</time></trkpt><trkpt lat="44.412027995836496" lon="8.942777589290715"><ele>74.0</ele><time>2026-03-22T11:06:22Z</time></trkpt><trkpt lat="44.41207121851627" lon="8.942880353035145"><ele>74.0</ele><time>2026-03-22T11:06:23Z</time></trkpt><trkpt lat="44.412113918096324" lon="8.94297607548384"><ele>74.66666666666667</ele><time>2026-03-22T11:06:24Z</time></trkpt><trkpt lat="44.412163122082546" lon="8.943072947972048"><ele>75.33333333333334</ele><time>2026-03-22T11:06:25Z</time></trkpt><trkpt lat="44.41220408409035" lon="8.943159039652455"><ele>76.0</ele><time>2026-03-22T11:06:26Z</time></trkpt><trkpt lat="44.41224950676885" lon="8.943266008440068"><ele>76.66666666666667</ele><time>2026-03-22T11:06:27Z</time></trkpt><trkpt lat="44.41230167222752" lon="8.943373891731685"><ele>77.33333333333333</ele><time>2026-03-22T11:06:28Z</time></trkpt><trkpt lat="44.41233569362673" lon="8.943480286399966"><ele>78.0</ele><time>2026-03-22T11:06:29Z</time></trkpt><trkpt lat="44.41239097398422" lon="8.943580971528611"><ele>78.16666666666667</ele><time>2026-03-22T11:06:30Z</time></trkpt><trkpt lat="44.41242976026662" lon="8.943682609846258"><ele>78.33333333333333</ele><time>2026-03-22T11:06:31Z</time></trkpt><trkpt lat="44.412482593906034" lon="8.943791385139807"><ele>78.5</ele><time>2026-03-22T11:06:32Z</time></trkpt><trkpt lat="44.41252573758249" lon="8.943904932516888"><ele>78.66666666666666</ele><time>2026-03-22T11:06:33Z</time></trkpt><trkpt lat="44.41257081473798" lon="8.944008665840359"><ele>78.83333333333333</ele><time>2026-03-22T11:06:34Z</time></trkpt><trkpt lat="44.41260958542293" lon="8.94409788645772"><ele>79.0</ele><time>2026-03-22T11:06:35Z</time></trkpt><trkpt lat="44.412650089071164" lon="8.944191095067817"><ele>77.66666666666666</ele><time>2026-03-22T11:06:36Z</time></trkpt><trkpt lat="44.41269814254958" lon="8.944277372513984"><ele>76.33333333333333</ele><time>2026-03-22T11:06:37Z</time></trkpt><trkpt lat="44.412747878220586" lon="8.94437785086642"><ele>75.0</ele><time>2026-03-22T11:06:38Z</time></trkpt><trkpt lat="44.412779278292334" lon="8.94448925568912"><ele>73.66666666666667</ele><time>2026-03-22T11:06:39Z</time></trkpt><trkpt lat="44.412824728912966" lon="8.944594236639517"><ele>72.33333333333334</ele><time>2026-03-22T11:06:40Z</time></trkpt><trkpt lat="44.412880191672215" lon="8.944682581408706"><ele>71.0</ele><time>2026-03-22T11:06:41Z</time></trkpt><trkpt lat="44.412911844912664" lon="8.944796363362164"><ele>71.0</ele><time>2026-03-22T11:06:42Z</time></trkpt><trkpt lat="44.41294671996033" lon="8.94487848209542"><ele>71.0</ele><time>2026-03-22T11:06:43Z</time></trkpt><trkpt lat="44.41299005485753" lon="8.944980521013605"><ele>71.0</ele><time>2026-03-22T11:06:44Z</time></trkpt><trkpt lat="44.41303099060889" lon="8.94507691068157"><ele>71.0</ele><time>2026-03-22T11:06:45Z</time></trkpt><trkpt lat="44.41308111345052" lon="8.945149412779934"><ele>71.0</ele><time>2026-03-22T11:06:46Z</time></trkpt><trkpt lat="44.41311680961826" lon="8.945279299325048"><ele>71.0</ele><time>2026-03-22T11:06:47Z</time></trkpt><trkpt lat="44.41314950121648" lon="8.945356621139478"><ele>73.19999999999999</ele><time>2026-03-22T11:06:48Z</time></trkpt><trkpt lat="44.41319376292227" lon="8.945461308415643"><ele>75.39999999999999</ele><time>2026-03-22T11:06:49Z</time></trkpt><trkpt lat="44.413235705189706" lon="8.945560509752173"><ele>77.6</ele><time>2026-03-22T11:06:50Z</time></trkpt><trkpt lat="44.41327516365003" lon="8.945653836590141"><ele>79.8</ele><time>2026-03-22T11:06:51Z</time></trkpt><trkpt lat="44.4133136177387" lon="8.945744801765306"><ele>82.0</ele><time>2026-03-22T11:06:52Z</time></trkpt><trkpt lat="44.41338188380302" lon="8.94590616602519"><ele>82.25</ele><time>2026-03-22T11:06:54Z</time></trkpt><trkpt lat="44.41341590817401" lon="8.945986500925871"><ele>82.5</ele><time>2026-03-22T11:06:55Z</time></trkpt><trkpt lat="44.41346078105252" lon="8.946092450059488"><ele>82.75</ele><time>2026-03-22T11:06:57Z</time></trkpt><trkpt lat="44.41368600494037" lon="8.946176395693648"><ele>83.0</ele><time>2026-03-22T11:07:42Z</time></trkpt><trkpt lat="44.41372756401525" lon="8.946271748220937"><ele>83.0</ele><time>2026-03-22T11:07:44Z</time></trkpt><trkpt lat="44.4137296889477" lon="8.946401379488336"><ele>83.0</ele><time>2026-03-22T11:07:46Z</time></trkpt><trkpt lat="44.41371721578007" lon="8.946530615165393"><ele>83.0</ele><time>2026-03-22T11:07:48Z</time></trkpt><trkpt lat="44.413683275429484" lon="8.946625292766011"><ele>83.0</ele><time>2026-03-22T11:07:49Z</time></trkpt><trkpt lat="44.41365902231378" lon="8.94673296281154"><ele>83.0</ele><time>2026-03-22T11:07:50Z</time></trkpt><trkpt lat="44.41354042248606" lon="8.946713295246031"><ele>84.4</ele><time>2026-03-22T11:07:51Z</time></trkpt><trkpt lat="44.41347105357741" lon="8.946858059945368"><ele>85.80000000000001</ele><time>2026-03-22T11:07:53Z</time></trkpt><trkpt lat="44.413427322543214" lon="8.946951041424144"><ele>87.2</ele><time>2026-03-22T11:07:54Z</time></trkpt><trkpt lat="44.41337741505068" lon="8.947037873898351"><ele>88.6</ele><time>2026-03-22T11:07:55Z</time></trkpt><trkpt lat="44.413276238106455" lon="8.947137559943567"><ele>90.0</ele><time>2026-03-22T11:07:57Z</time></trkpt><trkpt lat="44.413215725435585" lon="8.94725359098978"><ele>90.0</ele><time>2026-03-22T11:07:59Z</time></trkpt><trkpt lat="44.41314990418182" lon="8.947240269245611"><ele>90.0</ele><time>2026-03-22T11:08:01Z</time></trkpt><trkpt lat="44.413089935551035" lon="8.94719485252064"><ele>90.0</ele><time>2026-03-22T11:08:03Z</time></trkpt><trkpt lat="44.41301282264937" lon="8.94722533438305"><ele>90.0</ele><time>2026-03-22T11:08:05Z</time></trkpt><trkpt lat="44.412933746986134" lon="8.947276700957623"><ele>90.0</ele><time>2026-03-22T11:08:07Z</time></trkpt><trkpt lat="44.41289922806277" lon="8.94736169944848"><ele>90.0</ele><time>2026-03-22T11:08:08Z</time></trkpt><trkpt lat="44.41283705417969" lon="8.947485912489055"><ele>88.66666666666667</ele><time>2026-03-22T11:08:10Z</time></trkpt><trkpt lat="44.41278996770701" lon="8.94761843812025"><ele>87.33333333333333</ele><time>2026-03-22T11:08:12Z</time></trkpt><trkpt lat="44.41275785620749" lon="8.947718769519838"><ele>86.0</ele><time>2026-03-22T11:08:18Z</time></trkpt><trkpt lat="44.41277371522998" lon="8.9478307153718"><ele>84.66666666666666</ele><time>2026-03-22T11:08:21Z</time></trkpt><trkpt lat="44.41271832624108" lon="8.947938267441744"><ele>83.33333333333333</ele><time>2026-03-22T11:08:24Z</time></trkpt><trkpt lat="44.41267043241157" lon="8.948002882247906"><ele>82.0</ele><time>2026-03-22T11:08:28Z</time></trkpt><trkpt lat="44.41273322707027" lon="8.948062156445957"><ele>82.0</ele><time>2026-03-22T11:08:31Z</time></trkpt><trkpt lat="44.41296090439534" lon="8.94810945939221"><ele>82.0</ele><time>2026-03-22T11:08:37Z</time></trkpt><trkpt lat="44.41300937314299" lon="8.948189077965452"><ele>82.0</ele><time>2026-03-22T11:08:39Z</time></trkpt><trkpt lat="44.41306690832273" lon="8.94836828187461"><ele>82.0</ele><time>2026-03-22T11:08:41Z</time></trkpt><trkpt lat="44.41309249659211" lon="8.948450550578615"><ele>80.83333333333333</ele><time>2026-03-22T11:08:42Z</time></trkpt><trkpt lat="44.41311432080453" lon="8.948603250086501"><ele>79.66666666666666</ele><time>2026-03-22T11:08:44Z</time></trkpt><trkpt lat="44.413165286700874" lon="8.94873462735571"><ele>78.5</ele><time>2026-03-22T11:08:46Z</time></trkpt><trkpt lat="44.41320874389672" lon="8.948804646594397"><ele>77.33333333333333</ele><time>2026-03-22T11:08:48Z</time></trkpt><trkpt lat="44.413271881700105" lon="8.948812325987115"><ele>76.16666666666667</ele><time>2026-03-22T11:08:49Z</time></trkpt><trkpt lat="44.413364127488705" lon="8.948771421988225"><ele>75.0</ele><time>2026-03-22T11:08:51Z</time></trkpt><trkpt lat="44.41345967507213" lon="8.948654694907999"><ele>75.0</ele><time>2026-03-22T11:08:53Z</time></trkpt><trkpt lat="44.41349312848163" lon="8.948530080780953"><ele>75.0</ele><time>2026-03-22T11:08:55Z</time></trkpt><trkpt lat="44.41351042130205" lon="8.948408217519658"><ele>75.0</ele><time>2026-03-22T11:08:56Z</time></trkpt><trkpt lat="44.41352587810944" lon="8.948286307105802"><ele>75.0</ele><time>2026-03-22T11:08:57Z</time></trkpt><trkpt lat="44.413583939422146" lon="8.948160796228908"><ele>75.0</ele><time>2026-03-22T11:08:59Z</time></trkpt><trkpt lat="44.41363515863718" lon="8.948105136317366"><ele>75.0</ele><time>2026-03-22T11:09:00Z</time></trkpt><trkpt lat="44.41372674537934" lon="8.948172334157887"><ele>80.66666666666667</ele><time>2026-03-22T11:09:01Z</time></trkpt><trkpt lat="44.413924505580795" lon="8.94816594155715"><ele>86.33333333333334</ele><time>2026-03-22T11:09:05Z</time></trkpt><trkpt lat="44.41405753844808" lon="8.94815487259225"><ele>92.0</ele><time>2026-03-22T11:09:07Z</time></trkpt><trkpt lat="44.41417935436326" lon="8.948188570015683"><ele>92.0</ele><time>2026-03-22T11:09:09Z</time></trkpt><trkpt lat="44.414251934939486" lon="8.948222745205545"><ele>92.0</ele><time>2026-03-22T11:09:10Z</time></trkpt><trkpt lat="44.414299674171275" lon="8.948307273312864"><ele>92.0</ele><time>2026-03-22T11:09:12Z</time></trkpt><trkpt lat="44.414347818392265" lon="8.948380931829965"><ele>92.0</ele><time>2026-03-22T11:09:13Z</time></trkpt><trkpt lat="44.41443706414677" lon="8.948446372831365"><ele>92.0</ele><time>2026-03-22T11:09:15Z</time></trkpt><trkpt lat="44.41450627694198" lon="8.948525200926476"><ele>92.0</ele><time>2026-03-22T11:09:17Z</time></trkpt><trkpt lat="44.41458570234849" lon="8.94842777929751"><ele>92.0</ele><time>2026-03-22T11:09:19Z</time></trkpt><trkpt lat="44.414600850342985" lon="8.948322996745393"><ele>92.0</ele><time>2026-03-22T11:09:21Z</time></trkpt><trkpt lat="44.41465428011006" lon="8.94819772761289"><ele>92.0</ele><time>2026-03-22T11:09:23Z</time></trkpt><trkpt lat="44.41470846496897" lon="8.948053484753022"><ele>92.0</ele><time>2026-03-22T11:09:25Z</time></trkpt><trkpt lat="44.4147481155123" lon="8.947973817704284"><ele>92.0</ele><time>2026-03-22T11:09:26Z</time></trkpt><trkpt lat="44.41478771881413" lon="8.947803953638529"><ele>92.75</ele><time>2026-03-22T11:09:28Z</time></trkpt><trkpt lat="44.41480134201784" lon="8.94765359221329"><ele>93.5</ele><time>2026-03-22T11:09:30Z</time></trkpt><trkpt lat="44.41493656884743" lon="8.947598945756202"><ele>94.25</ele><time>2026-03-22T11:09:32Z</time></trkpt><trkpt lat="44.415035539258525" lon="8.947516073156857"><ele>95.0</ele><time>2026-03-22T11:09:34Z</time></trkpt><trkpt lat="44.41512366157521" lon="8.947411259083303"><ele>95.0</ele><time>2026-03-22T11:09:36Z</time></trkpt><trkpt lat="44.41521767514921" lon="8.947326537215973"><ele>95.0</ele><time>2026-03-22T11:09:38Z</time></trkpt><trkpt lat="44.41532158930706" lon="8.947237726554231"><ele>95.0</ele><time>2026-03-22T11:09:40Z</time></trkpt><trkpt lat="44.41542993507457" lon="8.947245103758156"><ele>95.0</ele><time>2026-03-22T11:09:42Z</time></trkpt><trkpt lat="44.415524619344616" lon="8.94722542701107"><ele>95.0</ele><time>2026-03-22T11:09:44Z</time></trkpt><trkpt lat="44.41565443655399" lon="8.947190228547383"><ele>94.6</ele><time>2026-03-22T11:09:46Z</time></trkpt><trkpt lat="44.41576407640186" lon="8.947122049565953"><ele>94.2</ele><time>2026-03-22T11:09:48Z</time></trkpt><trkpt lat="44.415850879759574" lon="8.947053263441456"><ele>93.80000000000001</ele><time>2026-03-22T11:09:50Z</time></trkpt><trkpt lat="44.41589144638326" lon="8.946924491732606"><ele>93.4</ele><time>2026-03-22T11:09:52Z</time></trkpt><trkpt lat="44.41592890205373" lon="8.94684750160089"><ele>93.0</ele><time>2026-03-22T11:09:53Z</time></trkpt><trkpt lat="44.41599406888916" lon="8.946784712772027"><ele>95.2</ele><time>2026-03-22T11:09:54Z</time></trkpt><trkpt lat="44.416105075081035" lon="8.946670997989704"><ele>97.4</ele><time>2026-03-22T11:09:56Z</time></trkpt><trkpt lat="44.416170565024714" lon="8.946603910161784"><ele>99.60000000000001</ele><time>2026-03-22T11:09:57Z</time></trkpt><trkpt lat="44.41624481327368" lon="8.946526802664177"><ele>101.80000000000001</ele><time>2026-03-22T11:09:58Z</time></trkpt><trkpt lat="44.41631518244776" lon="8.946452228814906"><ele>104.0</ele><time>2026-03-22T11:09:59Z</time></trkpt><trkpt lat="44.41637842703283" lon="8.946386030602238"><ele>104.0</ele><time>2026-03-22T11:10:00Z</time></trkpt><trkpt lat="44.41643480741659" lon="8.946334756381377"><ele>104.0</ele><time>2026-03-22T11:10:01Z</time></trkpt><trkpt lat="44.4165226020662" lon="8.946293476811931"><ele>104.0</ele><time>2026-03-22T11:10:02Z</time></trkpt><trkpt lat="44.416608498232854" lon="8.946255858425893"><ele>104.0</ele><time>2026-03-22T11:10:03Z</time></trkpt><trkpt lat="44.41674806178682" lon="8.946161888865177"><ele>104.0</ele><time>2026-03-22T11:10:05Z</time></trkpt><trkpt lat="44.416831302149625" lon="8.94609719977655"><ele>103.99999999999999</ele><time>2026-03-22T11:10:07Z</time></trkpt><trkpt lat="44.41682110891786" lon="8.945969867858631"><ele>104.0</ele><time>2026-03-22T11:10:11Z</time></trkpt><trkpt lat="44.4167854868314" lon="8.945844585950395"><ele>104.0</ele><time>2026-03-22T11:10:14Z</time></trkpt><trkpt lat="44.41674143861689" lon="8.945725263553891"><ele>104.0</ele><time>2026-03-22T11:10:16Z</time></trkpt><trkpt lat="44.41675407862732" lon="8.945601165488155"><ele>103.99999999999999</ele><time>2026-03-22T11:10:18Z</time></trkpt><trkpt lat="44.41674323041588" lon="8.945501599168178"><ele>104.0</ele><time>2026-03-22T11:10:20Z</time></trkpt><trkpt lat="44.416738944056824" lon="8.94540269418634"><ele>110.5</ele><time>2026-03-22T11:10:21Z</time></trkpt><trkpt lat="44.41674911814895" lon="8.945308503634314"><ele>117.0</ele><time>2026-03-22T11:10:22Z</time></trkpt><trkpt lat="44.41675558237225" lon="8.94508366228671"><ele>123.5</ele><time>2026-03-22T11:10:24Z</time></trkpt><trkpt lat="44.41674662568162" lon="8.944923359108003"><ele>130.0</ele><time>2026-03-22T11:10:25Z</time></trkpt><trkpt lat="44.41675255206126" lon="8.944769630911106"><ele>131.4</ele><time>2026-03-22T11:10:26Z</time></trkpt><trkpt lat="44.41674872670006" lon="8.944679465788743"><ele>132.8</ele><time>2026-03-22T11:10:27Z</time></trkpt><trkpt lat="44.41675883041972" lon="8.944493523874756"><ele>134.2</ele><time>2026-03-22T11:10:29Z</time></trkpt><trkpt lat="44.4167551194518" lon="8.944358232391608"><ele>135.6</ele><time>2026-03-22T11:10:30Z</time></trkpt><trkpt lat="44.41677792303211" lon="8.9442384907235"><ele>137.0</ele><time>2026-03-22T11:10:31Z</time></trkpt><trkpt lat="44.416772757823594" lon="8.944137780433952"><ele>138.66666666666666</ele><time>2026-03-22T11:10:32Z</time></trkpt><trkpt lat="44.416797011247596" lon="8.944011284293676"><ele>140.33333333333331</ele><time>2026-03-22T11:10:33Z</time></trkpt><trkpt lat="44.416830829177904" lon="8.943902542620325"><ele>142.0</ele><time>2026-03-22T11:10:34Z</time></trkpt><trkpt lat="44.416877412502515" lon="8.943763768151685"><ele>143.66666666666666</ele><time>2026-03-22T11:10:36Z</time></trkpt><trkpt lat="44.41695156181648" lon="8.943725325444673"><ele>145.33333333333334</ele><time>2026-03-22T11:10:37Z</time></trkpt><trkpt lat="44.417019288581024" lon="8.943664222610204"><ele>147.0</ele><time>2026-03-22T11:10:39Z</time></trkpt><trkpt lat="44.417108189619455" lon="8.943645500136753"><ele>144.83333333333334</ele><time>2026-03-22T11:10:40Z</time></trkpt><trkpt lat="44.417207261319234" lon="8.943637452373169"><ele>142.66666666666666</ele><time>2026-03-22T11:10:41Z</time></trkpt><trkpt lat="44.4172987398083" lon="8.94364070717671"><ele>140.5</ele><time>2026-03-22T11:10:43Z</time></trkpt><trkpt lat="44.41734562454766" lon="8.943705444139109"><ele>138.33333333333331</ele><time>2026-03-22T11:10:44Z</time></trkpt><trkpt lat="44.41739765487272" lon="8.943756156313581"><ele>136.16666666666666</ele><time>2026-03-22T11:10:45Z</time></trkpt><trkpt lat="44.417467851316104" lon="8.9438196012227"><ele>134.0</ele><time>2026-03-22T11:10:46Z</time></trkpt><trkpt lat="44.41752817342056" lon="8.943869833680116"><ele>134.0</ele><time>2026-03-22T11:10:47Z</time></trkpt><trkpt lat="44.41760294860364" lon="8.943919318543005"><ele>134.0</ele><time>2026-03-22T11:10:48Z</time></trkpt><trkpt lat="44.41768327316724" lon="8.94394369983395"><ele>134.0</ele><time>2026-03-22T11:10:49Z</time></trkpt><trkpt lat="44.41774675889246" lon="8.943941857210552"><ele>134.0</ele><time>2026-03-22T11:10:50Z</time></trkpt><trkpt lat="44.41783196947403" lon="8.943940813924593"><ele>134.0</ele><time>2026-03-22T11:10:52Z</time></trkpt><trkpt lat="44.417930036842314" lon="8.943914997108264"><ele>134.0</ele><time>2026-03-22T11:10:54Z</time></trkpt><trkpt lat="44.418030248618614" lon="8.94384980017945"><ele>132.0</ele><time>2026-03-22T11:10:55Z</time></trkpt><trkpt lat="44.418104714306544" lon="8.943806475797814"><ele>130.0</ele><time>2026-03-22T11:10:56Z</time></trkpt><trkpt lat="44.41819639643409" lon="8.943755973244699"><ele>128.0</ele><time>2026-03-22T11:10:57Z</time></trkpt><trkpt lat="44.418278105885946" lon="8.943698791676299"><ele>126.0</ele><time>2026-03-22T11:10:58Z</time></trkpt><trkpt lat="44.4183800261319" lon="8.943648795947885"><ele>124.0</ele><time>2026-03-22T11:11:00Z</time></trkpt><trkpt lat="44.41847883911003" lon="8.943597199803872"><ele>124.0</ele><time>2026-03-22T11:11:01Z</time></trkpt><trkpt lat="44.418573764327334" lon="8.943547633714143"><ele>124.0</ele><time>2026-03-22T11:11:02Z</time></trkpt><trkpt lat="44.41867691820402" lon="8.943519132054222"><ele>124.0</ele><time>2026-03-22T11:11:03Z</time></trkpt><trkpt lat="44.41876562523662" lon="8.94346514968844"><ele>124.0</ele><time>2026-03-22T11:11:04Z</time></trkpt><trkpt lat="44.41885172195692" lon="8.943417334456662"><ele>124.0</ele><time>2026-03-22T11:11:05Z</time></trkpt><trkpt lat="44.41894489506217" lon="8.94337434312481"><ele>129.2</ele><time>2026-03-22T11:11:06Z</time></trkpt><trkpt lat="44.41903667597549" lon="8.943312313524064"><ele>134.4</ele><time>2026-03-22T11:11:07Z</time></trkpt><trkpt lat="44.41912872313968" lon="8.943249216144793"><ele>139.6</ele><time>2026-03-22T11:11:08Z</time></trkpt><trkpt lat="44.41920509187312" lon="8.943184854088056"><ele>144.8</ele><time>2026-03-22T11:11:09Z</time></trkpt><trkpt lat="44.41928232663262" lon="8.943094402145187"><ele>150.0</ele><time>2026-03-22T11:11:10Z</time></trkpt><trkpt lat="44.419343307496185" lon="8.943049707746038"><ele>150.0</ele><time>2026-03-22T11:11:11Z</time></trkpt><trkpt lat="44.41941564992834" lon="8.9429992945099"><ele>150.0</ele><time>2026-03-22T11:11:12Z</time></trkpt><trkpt lat="44.41949900344058" lon="8.942952923817266"><ele>150.0</ele><time>2026-03-22T11:11:13Z</time></trkpt><trkpt lat="44.41959192771816" lon="8.942936246490893"><ele>150.0</ele><time>2026-03-22T11:11:14Z</time></trkpt><trkpt lat="44.41966778013257" lon="8.942906526019824"><ele>150.0</ele><time>2026-03-22T11:11:15Z</time></trkpt><trkpt lat="44.41975880420624" lon="8.942876852300914"><ele>150.0</ele><time>2026-03-22T11:11:16Z</time></trkpt><trkpt lat="44.41984738697581" lon="8.942861225249699"><ele>150.33333333333334</ele><time>2026-03-22T11:11:17Z</time></trkpt><trkpt lat="44.419926950679994" lon="8.942860532890979"><ele>150.66666666666666</ele><time>2026-03-22T11:11:18Z</time></trkpt><trkpt lat="44.41999651052494" lon="8.94287327341341"><ele>151.0</ele><time>2026-03-22T11:11:19Z</time></trkpt><trkpt lat="44.420083588774105" lon="8.942874057758111"><ele>151.33333333333331</ele><time>2026-03-22T11:11:20Z</time></trkpt><trkpt lat="44.4201953700991" lon="8.942822697637457"><ele>151.66666666666666</ele><time>2026-03-22T11:11:22Z</time></trkpt><trkpt lat="44.42021421487464" lon="8.942714148769024"><ele>152.0</ele><time>2026-03-22T11:11:23Z</time></trkpt><trkpt lat="44.42017121533539" lon="8.942637324285124"><ele>152.0</ele><time>2026-03-22T11:11:25Z</time></trkpt><trkpt lat="44.42014431411906" lon="8.942538401064473"><ele>152.0</ele><time>2026-03-22T11:11:28Z</time></trkpt><trkpt lat="44.42006967926595" lon="8.942489133111495"><ele>152.0</ele><time>2026-03-22T11:11:31Z</time></trkpt><trkpt lat="44.41993097072541" lon="8.942500938283452"><ele>152.0</ele><time>2026-03-22T11:11:33Z</time></trkpt><trkpt lat="44.4198598236166" lon="8.942529323179667"><ele>152.0</ele><time>2026-03-22T11:11:34Z</time></trkpt><trkpt lat="44.41973286754942" lon="8.942579837449886"><ele>152.0</ele><time>2026-03-22T11:11:36Z</time></trkpt><trkpt lat="44.41966034576067" lon="8.942609256139574"><ele>152.0</ele><time>2026-03-22T11:11:37Z</time></trkpt><trkpt lat="44.419557335865875" lon="8.942651042469986"><ele>152.0</ele><time>2026-03-22T11:11:38Z</time></trkpt><trkpt lat="44.41948166236482" lon="8.942688588905954"><ele>152.0</ele><time>2026-03-22T11:11:39Z</time></trkpt><trkpt lat="44.41939554123534" lon="8.942725947011734"><ele>152.0</ele><time>2026-03-22T11:11:40Z</time></trkpt><trkpt lat="44.41931546376111" lon="8.94276565992769"><ele>152.0</ele><time>2026-03-22T11:11:41Z</time></trkpt><trkpt lat="44.41923855328614" lon="8.942798815172058"><ele>151.66666666666666</ele><time>2026-03-22T11:11:42Z</time></trkpt><trkpt lat="44.41916228199625" lon="8.942806031755666"><ele>151.33333333333331</ele><time>2026-03-22T11:11:43Z</time></trkpt><trkpt lat="44.41909545123484" lon="8.942849434774377"><ele>151.0</ele><time>2026-03-22T11:11:44Z</time></trkpt><trkpt lat="44.419028901138745" lon="8.942832464116467"><ele>150.66666666666666</ele><time>2026-03-22T11:11:45Z</time></trkpt><trkpt lat="44.41894372382089" lon="8.942845094370481"><ele>150.33333333333334</ele><time>2026-03-22T11:11:46Z</time></trkpt><trkpt lat="44.41886091024607" lon="8.94283393732346"><ele>150.0</ele><time>2026-03-22T11:11:47Z</time></trkpt><trkpt lat="44.418792833260376" lon="8.942859087806395"><ele>151.8</ele><time>2026-03-22T11:11:48Z</time></trkpt><trkpt lat="44.41870276398045" lon="8.942850288348385"><ele>153.6</ele><time>2026-03-22T11:11:49Z</time></trkpt><trkpt lat="44.418615812877675" lon="8.942873033727858"><ele>155.4</ele><time>2026-03-22T11:11:50Z</time></trkpt><trkpt lat="44.41855345100729" lon="8.94290272686948"><ele>157.2</ele><time>2026-03-22T11:11:51Z</time></trkpt><trkpt lat="44.41847529461191" lon="8.942910145360232"><ele>159.0</ele><time>2026-03-22T11:11:52Z</time></trkpt><trkpt lat="44.418335506962585" lon="8.942967598256653"><ele>159.0</ele><time>2026-03-22T11:11:53Z</time></trkpt><trkpt lat="44.418268844253504" lon="8.942971146351836"><ele>159.0</ele><time>2026-03-22T11:11:54Z</time></trkpt><trkpt lat="44.41820482822335" lon="8.942956305708556"><ele>159.0</ele><time>2026-03-22T11:11:55Z</time></trkpt><trkpt lat="44.41812308097834" lon="8.94294315243977"><ele>159.0</ele><time>2026-03-22T11:11:56Z</time></trkpt><trkpt lat="44.41804152401979" lon="8.942968081398043"><ele>159.0</ele><time>2026-03-22T11:11:57Z</time></trkpt><trkpt lat="44.4179599108163" lon="8.942970147271433"><ele>159.0</ele><time>2026-03-22T11:11:58Z</time></trkpt><trkpt lat="44.417876433076756" lon="8.942945947778522"><ele>158.0</ele><time>2026-03-22T11:11:59Z</time></trkpt><trkpt lat="44.41781032567731" lon="8.942872181515593"><ele>157.0</ele><time>2026-03-22T11:12:00Z</time></trkpt><trkpt lat="44.41771785062736" lon="8.942807662938465"><ele>156.0</ele><time>2026-03-22T11:12:01Z</time></trkpt><trkpt lat="44.417646638044715" lon="8.942607516983164"><ele>155.0</ele><time>2026-03-22T11:12:02Z</time></trkpt><trkpt lat="44.417567009069614" lon="8.942509321221397"><ele>159.6</ele><time>2026-03-22T11:12:03Z</time></trkpt><trkpt lat="44.41750538248132" lon="8.94242948184977"><ele>164.2</ele><time>2026-03-22T11:12:04Z</time></trkpt><trkpt lat="44.417430922688816" lon="8.942294198612899"><ele>168.8</ele><time>2026-03-22T11:12:06Z</time></trkpt><trkpt lat="44.41737176164244" lon="8.942161082552907"><ele>173.4</ele><time>2026-03-22T11:12:08Z</time></trkpt><trkpt lat="44.417360620953204" lon="8.942061035425471"><ele>178.0</ele><time>2026-03-22T11:12:09Z</time></trkpt><trkpt lat="44.41733442403464" lon="8.94192185787168"><ele>178.0</ele><time>2026-03-22T11:12:11Z</time></trkpt><trkpt lat="44.41737524917571" lon="8.941781326406296"><ele>178.0</ele><time>2026-03-22T11:12:12Z</time></trkpt><trkpt lat="44.41740993915253" lon="8.941607478620378"><ele>178.0</ele><time>2026-03-22T11:12:14Z</time></trkpt><trkpt lat="44.41748039016103" lon="8.94149364275019"><ele>178.0</ele><time>2026-03-22T11:12:16Z</time></trkpt><trkpt lat="44.41764717720064" lon="8.941473145834403"><ele>178.8</ele><time>2026-03-22T11:12:19Z</time></trkpt><trkpt lat="44.417714329972206" lon="8.941448648560332"><ele>179.60000000000002</ele><time>2026-03-22T11:12:20Z</time></trkpt><trkpt lat="44.41783933583512" lon="8.941434230853918"><ele>180.39999999999998</ele><time>2026-03-22T11:12:22Z</time></trkpt><trkpt lat="44.41794031598112" lon="8.941420905379468"><ele>181.2</ele><time>2026-03-22T11:12:23Z</time></trkpt><trkpt lat="44.41800704836589" lon="8.941402263207989"><ele>182.0</ele><time>2026-03-22T11:12:24Z</time></trkpt><trkpt lat="44.41810278632918" lon="8.94134539783034"><ele>183.5</ele><time>2026-03-22T11:12:26Z</time></trkpt><trkpt lat="44.4181364845147" lon="8.941255284088037"><ele>185.0</ele><time>2026-03-22T11:12:27Z</time></trkpt><trkpt lat="44.41819732368277" lon="8.941088046500479"><ele>186.5</ele><time>2026-03-22T11:12:29Z</time></trkpt><trkpt lat="44.41823885681553" lon="8.9408928024289"><ele>188.0</ele><time>2026-03-22T11:12:31Z</time></trkpt><trkpt lat="44.41829688115874" lon="8.940775376673814"><ele>188.0</ele><time>2026-03-22T11:12:33Z</time></trkpt><trkpt lat="44.41838569360222" lon="8.940728975048092"><ele>188.0</ele><time>2026-03-22T11:12:35Z</time></trkpt><trkpt lat="44.41856767234384" lon="8.94074846014059"><ele>188.0</ele><time>2026-03-22T11:12:38Z</time></trkpt><trkpt lat="44.41863651569465" lon="8.940747383136019"><ele>188.0</ele><time>2026-03-22T11:12:39Z</time></trkpt><trkpt lat="44.41872812808401" lon="8.94074193822652"><ele>188.0</ele><time>2026-03-22T11:12:40Z</time></trkpt><trkpt lat="44.418816624688326" lon="8.940747105934362"><ele>190.66666666666666</ele><time>2026-03-22T11:12:41Z</time></trkpt><trkpt lat="44.41893915211958" lon="8.940725613070928"><ele>193.33333333333331</ele><time>2026-03-22T11:12:43Z</time></trkpt><trkpt lat="44.41898917133861" lon="8.94067073845957"><ele>196.0</ele><time>2026-03-22T11:12:44Z</time></trkpt><trkpt lat="44.419040175457006" lon="8.940610237703638"><ele>198.66666666666666</ele><time>2026-03-22T11:12:45Z</time></trkpt><trkpt lat="44.41909359758466" lon="8.940525033435607"><ele>201.33333333333334</ele><time>2026-03-22T11:12:46Z</time></trkpt><trkpt lat="44.419133637410724" lon="8.940445915125242"><ele>204.0</ele><time>2026-03-22T11:12:47Z</time></trkpt><trkpt lat="44.4191751020773" lon="8.940363475650418"><ele>204.0</ele><time>2026-03-22T11:12:48Z</time></trkpt><trkpt lat="44.41920470776449" lon="8.940273257075479"><ele>204.0</ele><time>2026-03-22T11:12:49Z</time></trkpt><trkpt lat="44.419229488951714" lon="8.940176286028205"><ele>204.0</ele><time>2026-03-22T11:12:50Z</time></trkpt><trkpt lat="44.41925031576636" lon="8.940062598574755"><ele>204.0</ele><time>2026-03-22T11:12:51Z</time></trkpt><trkpt lat="44.41926339918701" lon="8.939898436147956"><ele>204.0</ele><time>2026-03-22T11:12:52Z</time></trkpt><trkpt lat="44.41927369068015" lon="8.939772243482686"><ele>204.0</ele><time>2026-03-22T11:12:53Z</time></trkpt><trkpt lat="44.419323822614665" lon="8.939712862520334"><ele>205.79999999999998</ele><time>2026-03-22T11:12:54Z</time></trkpt><trkpt lat="44.419374125720545" lon="8.939575739125802"><ele>207.6</ele><time>2026-03-22T11:12:56Z</time></trkpt><trkpt lat="44.419456165159566" lon="8.939479126041322"><ele>209.4</ele><time>2026-03-22T11:12:58Z</time></trkpt><trkpt lat="44.41957371618176" lon="8.939469497895436"><ele>211.2</ele><time>2026-03-22T11:13:00Z</time></trkpt><trkpt lat="44.41963739044459" lon="8.939452580829618"><ele>213.0</ele><time>2026-03-22T11:13:01Z</time></trkpt><trkpt lat="44.41971348204156" lon="8.939439130903112"><ele>213.0</ele><time>2026-03-22T11:13:02Z</time></trkpt><trkpt lat="44.419797636527214" lon="8.939434263616864"><ele>213.0</ele><time>2026-03-22T11:13:03Z</time></trkpt><trkpt lat="44.41988535578729" lon="8.939423296459951"><ele>213.0</ele><time>2026-03-22T11:13:04Z</time></trkpt><trkpt lat="44.41995945819383" lon="8.93938731120257"><ele>213.0</ele><time>2026-03-22T11:13:05Z</time></trkpt><trkpt lat="44.42002850387265" lon="8.939370534482732"><ele>213.0</ele><time>2026-03-22T11:13:06Z</time></trkpt><trkpt lat="44.420098752648954" lon="8.93933454928507"><ele>213.0</ele><time>2026-03-22T11:13:08Z</time></trkpt><trkpt lat="44.420186906099964" lon="8.939278438642638"><ele>210.33333333333334</ele><time>2026-03-22T11:13:10Z</time></trkpt><trkpt lat="44.420212341957594" lon="8.939150254735393"><ele>207.66666666666669</ele><time>2026-03-22T11:13:11Z</time></trkpt><trkpt lat="44.420241113124526" lon="8.93903601751739"><ele>205.0</ele><time>2026-03-22T11:13:12Z</time></trkpt><trkpt lat="44.420261456237924" lon="8.938936134949937"><ele>202.33333333333334</ele><time>2026-03-22T11:13:13Z</time></trkpt><trkpt lat="44.42026004964463" lon="8.938825491997557"><ele>199.66666666666669</ele><time>2026-03-22T11:13:14Z</time></trkpt><trkpt lat="44.42025659617917" lon="8.938717555352158"><ele>197.0</ele><time>2026-03-22T11:13:15Z</time></trkpt><trkpt lat="44.42023086605646" lon="8.938555595207609"><ele>197.0</ele><time>2026-03-22T11:13:17Z</time></trkpt><trkpt lat="44.420213907800424" lon="8.938440982397628"><ele>197.0</ele><time>2026-03-22T11:13:18Z</time></trkpt><trkpt lat="44.420204566263884" lon="8.938270529108143"><ele>197.0</ele><time>2026-03-22T11:13:20Z</time></trkpt><trkpt lat="44.420225445525126" lon="8.938106319829128"><ele>197.0</ele><time>2026-03-22T11:13:22Z</time></trkpt><trkpt lat="44.420287316652455" lon="8.937968056111078"><ele>197.0</ele><time>2026-03-22T11:13:24Z</time></trkpt><trkpt lat="44.4203972090573" lon="8.937922112428287"><ele>200.8</ele><time>2026-03-22T11:13:26Z</time></trkpt><trkpt lat="44.42049930657198" lon="8.937869804734207"><ele>204.6</ele><time>2026-03-22T11:13:28Z</time></trkpt><trkpt lat="44.42063938861327" lon="8.937922867772391"><ele>208.40000000000003</ele><time>2026-03-22T11:13:31Z</time></trkpt><trkpt lat="44.42071331301652" lon="8.937941326769952"><ele>212.20000000000002</ele><time>2026-03-22T11:13:32Z</time></trkpt><trkpt lat="44.42078000808064" lon="8.937972951181589"><ele>216.0</ele><time>2026-03-22T11:13:33Z</time></trkpt><trkpt lat="44.4208527819871" lon="8.938002250968934"><ele>216.0</ele><time>2026-03-22T11:13:34Z</time></trkpt><trkpt lat="44.42093426946922" lon="8.938022306656173"><ele>216.0</ele><time>2026-03-22T11:13:35Z</time></trkpt><trkpt lat="44.421010169615435" lon="8.938039858493307"><ele>216.0</ele><time>2026-03-22T11:13:36Z</time></trkpt><trkpt lat="44.42108678881289" lon="8.938038496679262"><ele>216.0</ele><time>2026-03-22T11:13:37Z</time></trkpt><trkpt lat="44.421164863186156" lon="8.938028944925044"><ele>216.0</ele><time>2026-03-22T11:13:38Z</time></trkpt><trkpt lat="44.421241900720716" lon="8.938004746162159"><ele>216.0</ele><time>2026-03-22T11:13:39Z</time></trkpt><trkpt lat="44.42134464280084" lon="8.937907501077945"><ele>215.83333333333334</ele><time>2026-03-22T11:13:41Z</time></trkpt><trkpt lat="44.42140561017282" lon="8.937802356513746"><ele>215.66666666666669</ele><time>2026-03-22T11:13:44Z</time></trkpt><trkpt lat="44.42144645273303" lon="8.93772809878235"><ele>215.5</ele><time>2026-03-22T11:13:45Z</time></trkpt><trkpt lat="44.42151137023562" lon="8.937567953414597"><ele>215.33333333333334</ele><time>2026-03-22T11:13:47Z</time></trkpt><trkpt lat="44.4215435131699" lon="8.937478543668943"><ele>215.16666666666669</ele><time>2026-03-22T11:13:48Z</time></trkpt><trkpt lat="44.42157551133647" lon="8.937387140193742"><ele>215.0</ele><time>2026-03-22T11:13:49Z</time></trkpt><trkpt lat="44.42161291288297" lon="8.937289382389162"><ele>215.00000000000003</ele><time>2026-03-22T11:13:50Z</time></trkpt><trkpt lat="44.4216610566682" lon="8.937208735627891"><ele>215.0</ele><time>2026-03-22T11:13:51Z</time></trkpt><trkpt lat="44.42170581557388" lon="8.937140055334442"><ele>215.0</ele><time>2026-03-22T11:13:52Z</time></trkpt><trkpt lat="44.42175781170123" lon="8.937073322845208"><ele>215.0</ele><time>2026-03-22T11:13:53Z</time></trkpt><trkpt lat="44.42181447032655" lon="8.93699935464742"><ele>215.00000000000003</ele><time>2026-03-22T11:13:54Z</time></trkpt><trkpt lat="44.421879050236555" lon="8.936895722247002"><ele>215.0</ele><time>2026-03-22T11:13:56Z</time></trkpt><trkpt lat="44.421901642262945" lon="8.936764663898515"><ele>213.8</ele><time>2026-03-22T11:13:58Z</time></trkpt><trkpt lat="44.42187453252077" lon="8.93658151457888"><ele>212.6</ele><time>2026-03-22T11:14:00Z</time></trkpt><trkpt lat="44.42185861479132" lon="8.936463067313623"><ele>211.39999999999998</ele><time>2026-03-22T11:14:01Z</time></trkpt><trkpt lat="44.42184056728039" lon="8.936328771664606"><ele>210.2</ele><time>2026-03-22T11:14:02Z</time></trkpt><trkpt lat="44.4218242607102" lon="8.936207431195703"><ele>209.0</ele><time>2026-03-22T11:14:03Z</time></trkpt><trkpt lat="44.42180807731366" lon="8.936088764851721"><ele>209.0</ele><time>2026-03-22T11:14:04Z</time></trkpt><trkpt lat="44.4217945128878" lon="8.935965089671518"><ele>209.0</ele><time>2026-03-22T11:14:05Z</time></trkpt><trkpt lat="44.42178761433966" lon="8.935860121676772"><ele>209.0</ele><time>2026-03-22T11:14:06Z</time></trkpt><trkpt lat="44.42179525718846" lon="8.935730890678109"><ele>209.0</ele><time>2026-03-22T11:14:08Z</time></trkpt><trkpt lat="44.42181910604566" lon="8.935594355156194"><ele>209.0</ele><time>2026-03-22T11:14:10Z</time></trkpt><trkpt lat="44.42186200230368" lon="8.935476522771493"><ele>210.39999999999998</ele><time>2026-03-22T11:14:12Z</time></trkpt><trkpt lat="44.42192791024105" lon="8.935384577219304"><ele>211.8</ele><time>2026-03-22T11:14:14Z</time></trkpt><trkpt lat="44.42201623757176" lon="8.935351998136085"><ele>213.20000000000002</ele><time>2026-03-22T11:14:16Z</time></trkpt><trkpt lat="44.42214726362982" lon="8.93536324073516"><ele>214.60000000000002</ele><time>2026-03-22T11:14:19Z</time></trkpt><trkpt lat="44.4222523545737" lon="8.93544320899751"><ele>216.0</ele><time>2026-03-22T11:14:21Z</time></trkpt><trkpt lat="44.422319769610816" lon="8.935478512239795"><ele>218.5</ele><time>2026-03-22T11:14:22Z</time></trkpt><trkpt lat="44.42238404892704" lon="8.935513703472381"><ele>221.0</ele><time>2026-03-22T11:14:23Z</time></trkpt><trkpt lat="44.422459771752926" lon="8.935560469362418"><ele>223.5</ele><time>2026-03-22T11:14:24Z</time></trkpt><trkpt lat="44.42253750839288" lon="8.935598081191996"><ele>226.0</ele><time>2026-03-22T11:14:25Z</time></trkpt><trkpt lat="44.42261721116589" lon="8.935637751579945"><ele>228.5</ele><time>2026-03-22T11:14:26Z</time></trkpt><trkpt lat="44.42268540285028" lon="8.935697853483973"><ele>231.0</ele><time>2026-03-22T11:14:27Z</time></trkpt><trkpt lat="44.42274970751087" lon="8.935725439807923"><ele>231.0</ele><time>2026-03-22T11:14:28Z</time></trkpt><trkpt lat="44.422902069134985" lon="8.935690840115253"><ele>231.0</ele><time>2026-03-22T11:14:32Z</time></trkpt><trkpt lat="44.42297068019072" lon="8.935525618314022"><ele>231.0</ele><time>2026-03-22T11:14:34Z</time></trkpt><trkpt lat="44.42301516745004" lon="8.935441075136467"><ele>231.0</ele><time>2026-03-22T11:14:35Z</time></trkpt><trkpt lat="44.42308155014755" lon="8.935312582230031"><ele>231.5</ele><time>2026-03-22T11:14:37Z</time></trkpt><trkpt lat="44.423105177313765" lon="8.935177199443249"><ele>232.0</ele><time>2026-03-22T11:14:39Z</time></trkpt><trkpt lat="44.423119530031684" lon="8.93507796554079"><ele>232.5</ele><time>2026-03-22T11:14:40Z</time></trkpt><trkpt lat="44.42313841733339" lon="8.934971599395178"><ele>233.0</ele><time>2026-03-22T11:14:41Z</time></trkpt><trkpt lat="44.423157155396574" lon="8.934870365361958"><ele>233.5</ele><time>2026-03-22T11:14:42Z</time></trkpt><trkpt lat="44.42317530979813" lon="8.934772285203"><ele>234.0</ele><time>2026-03-22T11:14:43Z</time></trkpt><trkpt lat="44.4232059415439" lon="8.934614123351011"><ele>234.0</ele><time>2026-03-22T11:14:45Z</time></trkpt><trkpt lat="44.42324495714789" lon="8.934483526258328"><ele>233.99999999999997</ele><time>2026-03-22T11:14:47Z</time></trkpt><trkpt lat="44.4233309050927" lon="8.934425980089795"><ele>233.99999999999997</ele><time>2026-03-22T11:14:49Z</time></trkpt><trkpt lat="44.423439727097964" lon="8.934340623870387"><ele>234.0</ele><time>2026-03-22T11:14:51Z</time></trkpt><trkpt lat="44.42354491321933" lon="8.934318971855497"><ele>234.0</ele><time>2026-03-22T11:14:53Z</time></trkpt><trkpt lat="44.42366931198641" lon="8.934339498969955"><ele>234.0</ele><time>2026-03-22T11:14:55Z</time></trkpt><trkpt lat="44.42373850045374" lon="8.934361125251913"><ele>234.0</ele><time>2026-03-22T11:14:56Z</time></trkpt><trkpt lat="44.423808171543016" lon="8.9343752161648"><ele>234.0</ele><time>2026-03-22T11:14:57Z</time></trkpt><trkpt lat="44.42389296245351" lon="8.93440594625476"><ele>234.0</ele><time>2026-03-22T11:14:58Z</time></trkpt><trkpt lat="44.423975792250296" lon="8.934418651577293"><ele>234.0</ele><time>2026-03-22T11:14:59Z</time></trkpt><trkpt lat="44.42404709972009" lon="8.93443913247543"><ele>234.0</ele><time>2026-03-22T11:15:00Z</time></trkpt><trkpt lat="44.42415922376726" lon="8.934390599905782"><ele>233.33333333333334</ele><time>2026-03-22T11:15:02Z</time></trkpt><trkpt lat="44.424222662650195" lon="8.934330903487933"><ele>232.66666666666669</ele><time>2026-03-22T11:15:03Z</time></trkpt><trkpt lat="44.424302646386465" lon="8.934298153581677"><ele>232.0</ele><time>2026-03-22T11:15:04Z</time></trkpt><trkpt lat="44.424356559130985" lon="8.93422587173218"><ele>231.33333333333334</ele><time>2026-03-22T11:15:05Z</time></trkpt><trkpt lat="44.424417657995654" lon="8.934165439753592"><ele>230.66666666666669</ele><time>2026-03-22T11:15:06Z</time></trkpt><trkpt lat="44.42446811437504" lon="8.934103969722667"><ele>230.0</ele><time>2026-03-22T11:15:07Z</time></trkpt><trkpt lat="44.42452198997663" lon="8.934033343379578"><ele>230.0</ele><time>2026-03-22T11:15:08Z</time></trkpt><trkpt lat="44.424576465449285" lon="8.933958082172309"><ele>230.0</ele><time>2026-03-22T11:15:09Z</time></trkpt><trkpt lat="44.42461794408065" lon="8.933884970689899"><ele>230.0</ele><time>2026-03-22T11:15:10Z</time></trkpt><trkpt lat="44.4246793532676" lon="8.93375813558367"><ele>230.0</ele><time>2026-03-22T11:15:12Z</time></trkpt><trkpt lat="44.42470137981899" lon="8.933633098793875"><ele>230.0</ele><time>2026-03-22T11:15:14Z</time></trkpt><trkpt lat="44.424691546626455" lon="8.933448791500068"><ele>233.16666666666669</ele><time>2026-03-22T11:15:16Z</time></trkpt><trkpt lat="44.424689204966505" lon="8.93332072896882"><ele>236.33333333333334</ele><time>2026-03-22T11:15:17Z</time></trkpt><trkpt lat="44.42468719219071" lon="8.93321065364863"><ele>239.5</ele><time>2026-03-22T11:15:18Z</time></trkpt><trkpt lat="44.424700908807736" lon="8.933085605517524"><ele>242.66666666666669</ele><time>2026-03-22T11:15:19Z</time></trkpt><trkpt lat="44.424696973767674" lon="8.932963903864785"><ele>245.83333333333334</ele><time>2026-03-22T11:15:20Z</time></trkpt><trkpt lat="44.42468797626976" lon="8.932845746314463"><ele>249.0</ele><time>2026-03-22T11:15:21Z</time></trkpt><trkpt lat="44.42468145237138" lon="8.93271831467265"><ele>249.0</ele><time>2026-03-22T11:15:22Z</time></trkpt><trkpt lat="44.42467894069918" lon="8.932591830640048"><ele>249.0</ele><time>2026-03-22T11:15:23Z</time></trkpt><trkpt lat="44.42467557396145" lon="8.932483361122992"><ele>249.0</ele><time>2026-03-22T11:15:24Z</time></trkpt><trkpt lat="44.42467767056779" lon="8.932372198869865"><ele>249.0</ele><time>2026-03-22T11:15:25Z</time></trkpt><trkpt lat="44.42465883262161" lon="8.932266305942255"><ele>249.0</ele><time>2026-03-22T11:15:26Z</time></trkpt><trkpt lat="44.42465525380118" lon="8.932165250916745"><ele>249.0</ele><time>2026-03-22T11:15:27Z</time></trkpt><trkpt lat="44.424655071327365" lon="8.932072379891071"><ele>247.0</ele><time>2026-03-22T11:15:28Z</time></trkpt><trkpt lat="44.424658541091816" lon="8.931978987650158"><ele>244.99999999999997</ele><time>2026-03-22T11:15:29Z</time></trkpt><trkpt lat="44.42468769134805" lon="8.931866313895165"><ele>242.99999999999997</ele><time>2026-03-22T11:15:31Z</time></trkpt><trkpt lat="44.424748866129384" lon="8.931765960539211"><ele>241.0</ele><time>2026-03-22T11:15:33Z</time></trkpt><trkpt lat="44.4248300018175" lon="8.931695315770549"><ele>239.0</ele><time>2026-03-22T11:15:35Z</time></trkpt><trkpt lat="44.424980968347974" lon="8.931650705194935"><ele>239.50000000000003</ele><time>2026-03-22T11:15:38Z</time></trkpt><trkpt lat="44.425049816243934" lon="8.931614972541547"><ele>240.0</ele><time>2026-03-22T11:15:39Z</time></trkpt><trkpt lat="44.42513980654718" lon="8.931587070041816"><ele>240.5</ele><time>2026-03-22T11:15:40Z</time></trkpt><trkpt lat="44.42522846063635" lon="8.931550673163937"><ele>241.0</ele><time>2026-03-22T11:15:41Z</time></trkpt><trkpt lat="44.42531882389053" lon="8.9315117815969"><ele>241.50000000000003</ele><time>2026-03-22T11:15:42Z</time></trkpt><trkpt lat="44.42540245969759" lon="8.931475186127546"><ele>242.0</ele><time>2026-03-22T11:15:43Z</time></trkpt><trkpt lat="44.42550322969185" lon="8.93143109342488"><ele>242.0</ele><time>2026-03-22T11:15:44Z</time></trkpt><trkpt lat="44.425599451140016" lon="8.931392012348626"><ele>242.0</ele><time>2026-03-22T11:15:45Z</time></trkpt><trkpt lat="44.425682984307905" lon="8.931353649344636"><ele>242.0</ele><time>2026-03-22T11:15:46Z</time></trkpt><trkpt lat="44.42577483718676" lon="8.931328792689143"><ele>242.0</ele><time>2026-03-22T11:15:47Z</time></trkpt><trkpt lat="44.42587113372229" lon="8.931288083816234"><ele>242.0</ele><time>2026-03-22T11:15:48Z</time></trkpt><trkpt lat="44.42594797541672" lon="8.931261338819812"><ele>242.00000000000003</ele><time>2026-03-22T11:15:49Z</time></trkpt><trkpt lat="44.42603507566152" lon="8.931206783715673"><ele>242.0</ele><time>2026-03-22T11:15:50Z</time></trkpt><trkpt lat="44.42612311867298" lon="8.93118572955025"><ele>242.0</ele><time>2026-03-22T11:15:51Z</time></trkpt><trkpt lat="44.426208159054404" lon="8.931151305492376"><ele>242.0</ele><time>2026-03-22T11:15:52Z</time></trkpt><trkpt lat="44.426267641283" lon="8.931119781950883"><ele>242.00000000000003</ele><time>2026-03-22T11:15:53Z</time></trkpt><trkpt lat="44.42634875117182" lon="8.93108107895694"><ele>242.0</ele><time>2026-03-22T11:15:54Z</time></trkpt><trkpt lat="44.42644075816626" lon="8.931013212071033"><ele>240.66666666666669</ele><time>2026-03-22T11:15:56Z</time></trkpt><trkpt lat="44.426457498052045" lon="8.930886510811987"><ele>239.33333333333334</ele><time>2026-03-22T11:15:58Z</time></trkpt><trkpt lat="44.426434425319684" lon="8.930802112533847"><ele>238.0</ele><time>2026-03-22T11:15:59Z</time></trkpt><trkpt lat="44.42641000610019" lon="8.930630195126819"><ele>236.66666666666669</ele><time>2026-03-22T11:16:01Z</time></trkpt><trkpt lat="44.4263808886688" lon="8.93054654080602"><ele>235.33333333333334</ele><time>2026-03-22T11:16:02Z</time></trkpt><trkpt lat="44.42636260140237" lon="8.930435544232473"><ele>234.0</ele><time>2026-03-22T11:16:03Z</time></trkpt><trkpt lat="44.42634949733841" lon="8.93032355019552"><ele>234.0</ele><time>2026-03-22T11:16:04Z</time></trkpt><trkpt lat="44.42633794532641" lon="8.930234574551859"><ele>234.0</ele><time>2026-03-22T11:16:05Z</time></trkpt><trkpt lat="44.426293024926935" lon="8.930097541943976"><ele>234.0</ele><time>2026-03-22T11:16:07Z</time></trkpt><trkpt lat="44.42622217560044" lon="8.930028943654301"><ele>234.0</ele><time>2026-03-22T11:16:09Z</time></trkpt><trkpt lat="44.426157557200625" lon="8.929967479254184"><ele>234.0</ele><time>2026-03-22T11:16:10Z</time></trkpt><trkpt lat="44.426093941756086" lon="8.929904667719523"><ele>234.0</ele><time>2026-03-22T11:16:11Z</time></trkpt><trkpt lat="44.42603292338133" lon="8.929845034562076"><ele>229.33333333333334</ele><time>2026-03-22T11:16:12Z</time></trkpt><trkpt lat="44.42598032066818" lon="8.929794702699585"><ele>224.66666666666669</ele><time>2026-03-22T11:16:13Z</time></trkpt><trkpt lat="44.42592764692438" lon="8.929745520728245"><ele>220.0</ele><time>2026-03-22T11:16:14Z</time></trkpt><trkpt lat="44.425833546943174" lon="8.929669688420056"><ele>215.33333333333334</ele><time>2026-03-22T11:16:16Z</time></trkpt><trkpt lat="44.42575727148617" lon="8.929592563628372"><ele>210.66666666666669</ele><time>2026-03-22T11:16:18Z</time></trkpt><trkpt lat="44.42573220125855" lon="8.929472544478429"><ele>206.0</ele><time>2026-03-22T11:16:20Z</time></trkpt><trkpt lat="44.42576649462985" lon="8.92937115229664"><ele>206.0</ele><time>2026-03-22T11:16:23Z</time></trkpt><trkpt lat="44.42585172060442" lon="8.929357350009703"><ele>206.0</ele><time>2026-03-22T11:16:24Z</time></trkpt><trkpt lat="44.42602210566975" lon="8.929332035413072"><ele>206.0</ele><time>2026-03-22T11:16:27Z</time></trkpt><trkpt lat="44.42608534418937" lon="8.929313728373069"><ele>206.0</ele><time>2026-03-22T11:16:28Z</time></trkpt><trkpt lat="44.42618100692782" lon="8.929286877277242"><ele>206.0</ele><time>2026-03-22T11:16:29Z</time></trkpt><trkpt lat="44.426252166824696" lon="8.929229071176614"><ele>208.20000000000002</ele><time>2026-03-22T11:16:30Z</time></trkpt><trkpt lat="44.426369536072684" lon="8.929210744927284"><ele>210.4</ele><time>2026-03-22T11:16:31Z</time></trkpt><trkpt lat="44.42646650447558" lon="8.929187100036165"><ele>212.6</ele><time>2026-03-22T11:16:32Z</time></trkpt><trkpt lat="44.42654697276285" lon="8.929164073295812"><ele>214.8</ele><time>2026-03-22T11:16:33Z</time></trkpt><trkpt lat="44.42662768572566" lon="8.929144738287023"><ele>217.0</ele><time>2026-03-22T11:16:34Z</time></trkpt><trkpt lat="44.42677277599636" lon="8.929101170190808"><ele>216.99999999999997</ele><time>2026-03-22T11:16:36Z</time></trkpt><trkpt lat="44.42683259040867" lon="8.929059923525672"><ele>217.0</ele><time>2026-03-22T11:16:37Z</time></trkpt><trkpt lat="44.42689313024576" lon="8.929022473294687"><ele>217.0</ele><time>2026-03-22T11:16:38Z</time></trkpt><trkpt lat="44.42694647398109" lon="8.928962863773386"><ele>217.0</ele><time>2026-03-22T11:16:39Z</time></trkpt><trkpt lat="44.42697982006063" lon="8.928881939704548"><ele>216.99999999999997</ele><time>2026-03-22T11:16:40Z</time></trkpt><trkpt lat="44.426990546535514" lon="8.92873876517189"><ele>217.0</ele><time>2026-03-22T11:16:42Z</time></trkpt><trkpt lat="44.42693171595958" lon="8.92861533382894"><ele>216.99999999999997</ele><time>2026-03-22T11:16:45Z</time></trkpt><trkpt lat="44.42688638155651" lon="8.928520414005908"><ele>217.0</ele><time>2026-03-22T11:16:46Z</time></trkpt><trkpt lat="44.426857031399166" lon="8.928422357541006"><ele>217.0</ele><time>2026-03-22T11:16:47Z</time></trkpt><trkpt lat="44.42679815331386" lon="8.928318208020354"><ele>217.0</ele><time>2026-03-22T11:16:48Z</time></trkpt><trkpt lat="44.426741132280846" lon="8.92825281687295"><ele>216.99999999999997</ele><time>2026-03-22T11:16:49Z</time></trkpt><trkpt lat="44.426673176334454" lon="8.928111657481354"><ele>217.0</ele><time>2026-03-22T11:16:51Z</time></trkpt><trkpt lat="44.426605497288406" lon="8.92799490783511"><ele>217.49999999999997</ele><time>2026-03-22T11:16:52Z</time></trkpt><trkpt lat="44.42655827963022" lon="8.92789733821999"><ele>218.0</ele><time>2026-03-22T11:16:53Z</time></trkpt><trkpt lat="44.42652007011986" lon="8.927787732250259"><ele>218.5</ele><time>2026-03-22T11:16:54Z</time></trkpt><trkpt lat="44.426466718059224" lon="8.927698967979603"><ele>219.0</ele><time>2026-03-22T11:16:55Z</time></trkpt><trkpt lat="44.4264141576734" lon="8.92760069271312"><ele>219.49999999999997</ele><time>2026-03-22T11:16:56Z</time></trkpt><trkpt lat="44.426370358133134" lon="8.927505935532182"><ele>220.0</ele><time>2026-03-22T11:16:57Z</time></trkpt><trkpt lat="44.42632540718602" lon="8.927418836386252"><ele>215.49999999999997</ele><time>2026-03-22T11:16:58Z</time></trkpt><trkpt lat="44.426266271115885" lon="8.927328674531124"><ele>211.0</ele><time>2026-03-22T11:16:59Z</time></trkpt><trkpt lat="44.42620263535284" lon="8.927235527382411"><ele>206.5</ele><time>2026-03-22T11:17:00Z</time></trkpt><trkpt lat="44.42615422343358" lon="8.927121426700689"><ele>202.0</ele><time>2026-03-22T11:17:01Z</time></trkpt><trkpt lat="44.42608985047596" lon="8.927037928492373"><ele>197.49999999999997</ele><time>2026-03-22T11:17:02Z</time></trkpt><trkpt lat="44.42604878507313" lon="8.926932506773246"><ele>193.0</ele><time>2026-03-22T11:17:03Z</time></trkpt><trkpt lat="44.42595042476011" lon="8.9268595643224"><ele>193.0</ele><time>2026-03-22T11:17:04Z</time></trkpt><trkpt lat="44.42591465899523" lon="8.926764127559666"><ele>193.0</ele><time>2026-03-22T11:17:05Z</time></trkpt><trkpt lat="44.42584178298219" lon="8.926640579190845"><ele>193.0</ele><time>2026-03-22T11:17:07Z</time></trkpt><trkpt lat="44.42578935467729" lon="8.926548641717423"><ele>193.0</ele><time>2026-03-22T11:17:08Z</time></trkpt><trkpt lat="44.425740401548396" lon="8.926462798188133"><ele>193.0</ele><time>2026-03-22T11:17:09Z</time></trkpt><trkpt lat="44.425664499537426" lon="8.926329697572966"><ele>193.60000000000002</ele><time>2026-03-22T11:17:11Z</time></trkpt><trkpt lat="44.42561836567305" lon="8.926248797682295"><ele>194.20000000000002</ele><time>2026-03-22T11:17:12Z</time></trkpt><trkpt lat="44.425542513340154" lon="8.926115784170966"><ele>194.8</ele><time>2026-03-22T11:17:14Z</time></trkpt><trkpt lat="44.42545902941689" lon="8.92600475945404"><ele>195.4</ele><time>2026-03-22T11:17:16Z</time></trkpt><trkpt lat="44.425405520391315" lon="8.925912710939212"><ele>196.0</ele><time>2026-03-22T11:17:18Z</time></trkpt><trkpt lat="44.4253935746878" lon="8.925793615532294"><ele>195.99999999999997</ele><time>2026-03-22T11:17:20Z</time></trkpt><trkpt lat="44.42529776207623" lon="8.925662501382396"><ele>196.0</ele><time>2026-03-22T11:17:22Z</time></trkpt><trkpt lat="44.42525060925703" lon="8.92558688703275"><ele>196.0</ele><time>2026-03-22T11:17:23Z</time></trkpt><trkpt lat="44.42522085577298" lon="8.925502849036425"><ele>196.0</ele><time>2026-03-22T11:17:24Z</time></trkpt><trkpt lat="44.42517193474545" lon="8.925415938512542"><ele>195.99999999999997</ele><time>2026-03-22T11:17:25Z</time></trkpt><trkpt lat="44.42512731085592" lon="8.925325699239366"><ele>196.0</ele><time>2026-03-22T11:17:26Z</time></trkpt><trkpt lat="44.42508533571363" lon="8.925254882390348"><ele>195.99999999999997</ele><time>2026-03-22T11:17:27Z</time></trkpt><trkpt lat="44.42504319055983" lon="8.925179185532484"><ele>196.0</ele><time>2026-03-22T11:17:28Z</time></trkpt><trkpt lat="44.42497449972621" lon="8.925068784601363"><ele>196.0</ele><time>2026-03-22T11:17:30Z</time></trkpt><trkpt lat="44.42490639503235" lon="8.92494365630048"><ele>196.0</ele><time>2026-03-22T11:17:32Z</time></trkpt><trkpt lat="44.42486032266061" lon="8.92485626817753"><ele>195.99999999999997</ele><time>2026-03-22T11:17:33Z</time></trkpt><trkpt lat="44.42481184990757" lon="8.924791541352748"><ele>196.0</ele><time>2026-03-22T11:17:34Z</time></trkpt><trkpt lat="44.424749310532185" lon="8.924692217165274"><ele>198.5</ele><time>2026-03-22T11:17:36Z</time></trkpt><trkpt lat="44.42470843621242" lon="8.924620451267955"><ele>201.0</ele><time>2026-03-22T11:17:39Z</time></trkpt><trkpt lat="44.42487900680141" lon="8.924434677468513"><ele>203.5</ele><time>2026-03-22T11:17:50Z</time></trkpt><trkpt lat="44.42499433259391" lon="8.92446944728798"><ele>206.0</ele><time>2026-03-22T11:17:52Z</time></trkpt><trkpt lat="44.42506483463671" lon="8.924495817082"><ele>206.0</ele><time>2026-03-22T11:17:53Z</time></trkpt><trkpt lat="44.42513035853243" lon="8.924551253986454"><ele>206.0</ele><time>2026-03-22T11:17:54Z</time></trkpt><trkpt lat="44.425195991652274" lon="8.924572899549384"><ele>206.0</ele><time>2026-03-22T11:17:55Z</time></trkpt><trkpt lat="44.42528615631739" lon="8.924592145740256"><ele>206.0</ele><time>2026-03-22T11:17:56Z</time></trkpt><trkpt lat="44.42542841266138" lon="8.924649365721653"><ele>206.0</ele><time>2026-03-22T11:17:57Z</time></trkpt><trkpt lat="44.42553183837067" lon="8.92471053057875"><ele>206.20000000000002</ele><time>2026-03-22T11:17:58Z</time></trkpt><trkpt lat="44.425620338653616" lon="8.92474557734348"><ele>206.4</ele><time>2026-03-22T11:17:59Z</time></trkpt><trkpt lat="44.425719537542186" lon="8.924784860981728"><ele>206.6</ele><time>2026-03-22T11:18:00Z</time></trkpt><trkpt lat="44.42582106983768" lon="8.924802975625878"><ele>206.8</ele><time>2026-03-22T11:18:01Z</time></trkpt><trkpt lat="44.425929539521775" lon="8.924849957410585"><ele>207.0</ele><time>2026-03-22T11:18:02Z</time></trkpt><trkpt lat="44.42601312630244" lon="8.924901229895717"><ele>207.0</ele><time>2026-03-22T11:18:03Z</time></trkpt><trkpt lat="44.426110153668446" lon="8.924939776372065"><ele>207.0</ele><time>2026-03-22T11:18:04Z</time></trkpt><trkpt lat="44.42619828227287" lon="8.92497505765178"><ele>207.0</ele><time>2026-03-22T11:18:05Z</time></trkpt><trkpt lat="44.42629712159187" lon="8.925014802519597"><ele>207.0</ele><time>2026-03-22T11:18:06Z</time></trkpt><trkpt lat="44.42640508392455" lon="8.925025480003406"><ele>207.0</ele><time>2026-03-22T11:18:07Z</time></trkpt><trkpt lat="44.426484607281196" lon="8.925036916611795"><ele>209.5</ele><time>2026-03-22T11:18:08Z</time></trkpt><trkpt lat="44.42653796100941" lon="8.925083881769009"><ele>212.0</ele><time>2026-03-22T11:18:09Z</time></trkpt><trkpt lat="44.42664184890501" lon="8.925121511857501"><ele>214.5</ele><time>2026-03-22T11:18:10Z</time></trkpt><trkpt lat="44.42672679329951" lon="8.925154799458413"><ele>217.0</ele><time>2026-03-22T11:18:11Z</time></trkpt><trkpt lat="44.426807652232704" lon="8.925176217681873"><ele>219.5</ele><time>2026-03-22T11:18:12Z</time></trkpt><trkpt lat="44.426902924683205" lon="8.925189646940362"><ele>222.0</ele><time>2026-03-22T11:18:13Z</time></trkpt><trkpt lat="44.4269659391546" lon="8.925232839445671"><ele>221.0</ele><time>2026-03-22T11:18:14Z</time></trkpt><trkpt lat="44.427365957351846" lon="8.925236024273289"><ele>220.0</ele><time>2026-03-22T11:18:17Z</time></trkpt><trkpt lat="44.42747872937995" lon="8.925240914385181"><ele>220.0</ele><time>2026-03-22T11:18:18Z</time></trkpt><trkpt lat="44.427580564631526" lon="8.92524805437246"><ele>220.0</ele><time>2026-03-22T11:18:19Z</time></trkpt><trkpt lat="44.427682268118694" lon="8.925251685530998"><ele>220.0</ele><time>2026-03-22T11:18:20Z</time></trkpt><trkpt lat="44.42777561309967" lon="8.925249731367451"><ele>220.0</ele><time>2026-03-22T11:18:21Z</time></trkpt><trkpt lat="44.42786632695075" lon="8.925260906212037"><ele>220.0</ele><time>2026-03-22T11:18:22Z</time></trkpt><trkpt lat="44.42795443319208" lon="8.925292216660852"><ele>218.6</ele><time>2026-03-22T11:18:23Z</time></trkpt><trkpt lat="44.42804671530228" lon="8.925290225445051"><ele>217.2</ele><time>2026-03-22T11:18:24Z</time></trkpt><trkpt lat="44.42813989078002" lon="8.925282764005582"><ele>215.8</ele><time>2026-03-22T11:18:25Z</time></trkpt><trkpt lat="44.42822149554898" lon="8.925278436235248"><ele>214.4</ele><time>2026-03-22T11:18:26Z</time></trkpt><trkpt lat="44.428309473072474" lon="8.92521585361189"><ele>213.0</ele><time>2026-03-22T11:18:27Z</time></trkpt><trkpt lat="44.4283902257723" lon="8.925174435874123"><ele>213.0</ele><time>2026-03-22T11:18:28Z</time></trkpt><trkpt lat="44.42847372792519" lon="8.925125062885769"><ele>213.0</ele><time>2026-03-22T11:18:29Z</time></trkpt><trkpt lat="44.428546183741126" lon="8.925074723448754"><ele>213.0</ele><time>2026-03-22T11:18:30Z</time></trkpt><trkpt lat="44.42861921827048" lon="8.925021526903247"><ele>213.0</ele><time>2026-03-22T11:18:31Z</time></trkpt><trkpt lat="44.428685292616784" lon="8.924973400859557"><ele>213.0</ele><time>2026-03-22T11:18:32Z</time></trkpt><trkpt lat="44.42875936953748" lon="8.924860567557712"><ele>213.0</ele><time>2026-03-22T11:18:34Z</time></trkpt><trkpt lat="44.42877427580124" lon="8.924750110380998"><ele>210.4</ele><time>2026-03-22T11:18:36Z</time></trkpt><trkpt lat="44.428764213328606" lon="8.92461354667651"><ele>207.8</ele><time>2026-03-22T11:18:38Z</time></trkpt><trkpt lat="44.42871751872658" lon="8.924470120650241"><ele>205.2</ele><time>2026-03-22T11:18:40Z</time></trkpt><trkpt lat="44.42868707709202" lon="8.924347476884437"><ele>202.6</ele><time>2026-03-22T11:18:42Z</time></trkpt><trkpt lat="44.42863554249676" lon="8.924274643843754"><ele>200.0</ele><time>2026-03-22T11:18:44Z</time></trkpt><trkpt lat="44.42855268439663" lon="8.92425935881372"><ele>197.8</ele><time>2026-03-22T11:18:47Z</time></trkpt><trkpt lat="44.428476250179656" lon="8.924226013880164"><ele>195.6</ele><time>2026-03-22T11:18:49Z</time></trkpt><trkpt lat="44.42836566565374" lon="8.924221254280416"><ele>193.39999999999998</ele><time>2026-03-22T11:18:51Z</time></trkpt><trkpt lat="44.42828215490845" lon="8.924202984996075"><ele>191.2</ele><time>2026-03-22T11:18:53Z</time></trkpt><trkpt lat="44.42816623873303" lon="8.92413729579711"><ele>189.0</ele><time>2026-03-22T11:18:55Z</time></trkpt><trkpt lat="44.42810592556581" lon="8.924062935177853"><ele>189.0</ele><time>2026-03-22T11:18:56Z</time></trkpt><trkpt lat="44.4280545662992" lon="8.924010781729649"><ele>189.0</ele><time>2026-03-22T11:18:57Z</time></trkpt><trkpt lat="44.428014500792735" lon="8.923936854101346"><ele>189.0</ele><time>2026-03-22T11:18:58Z</time></trkpt><trkpt lat="44.42796023146429" lon="8.923847460862927"><ele>189.0</ele><time>2026-03-22T11:18:59Z</time></trkpt><trkpt lat="44.4278976744387" lon="8.923746284718685"><ele>189.0</ele><time>2026-03-22T11:19:00Z</time></trkpt><trkpt lat="44.427852766552" lon="8.923648686378195"><ele>189.0</ele><time>2026-03-22T11:19:01Z</time></trkpt><trkpt lat="44.42780093946712" lon="8.9235410435175"><ele>187.33333333333334</ele><time>2026-03-22T11:19:02Z</time></trkpt><trkpt lat="44.427752567037366" lon="8.923448256448294"><ele>185.66666666666666</ele><time>2026-03-22T11:19:03Z</time></trkpt><trkpt lat="44.42771744897083" lon="8.923363141608053"><ele>184.0</ele><time>2026-03-22T11:19:04Z</time></trkpt><trkpt lat="44.42763494455746" lon="8.92320737078244"><ele>182.33333333333331</ele><time>2026-03-22T11:19:06Z</time></trkpt><trkpt lat="44.42759989541159" lon="8.923133721934065"><ele>180.66666666666666</ele><time>2026-03-22T11:19:07Z</time></trkpt><trkpt lat="44.42756411749682" lon="8.92305889996551"><ele>179.0</ele><time>2026-03-22T11:19:08Z</time></trkpt><trkpt lat="44.427527399657265" lon="8.922980252873984"><ele>178.66666666666666</ele><time>2026-03-22T11:19:09Z</time></trkpt><trkpt lat="44.42745862852949" lon="8.922832899049109"><ele>178.33333333333331</ele><time>2026-03-22T11:19:11Z</time></trkpt><trkpt lat="44.42741814434241" lon="8.922745100205145"><ele>178.0</ele><time>2026-03-22T11:19:12Z</time></trkpt><trkpt lat="44.427376773959914" lon="8.922655379315417"><ele>177.66666666666666</ele><time>2026-03-22T11:19:13Z</time></trkpt><trkpt lat="44.427341745547565" lon="8.922577415173762"><ele>177.33333333333334</ele><time>2026-03-22T11:19:14Z</time></trkpt><trkpt lat="44.427298534782764" lon="8.922485700701959"><ele>177.0</ele><time>2026-03-22T11:19:15Z</time></trkpt><trkpt lat="44.427256233827016" lon="8.922393961814594"><ele>177.66666666666666</ele><time>2026-03-22T11:19:16Z</time></trkpt><trkpt lat="44.42721839762492" lon="8.922311905637615"><ele>178.33333333333334</ele><time>2026-03-22T11:19:17Z</time></trkpt><trkpt lat="44.4271765442661" lon="8.922221137436551"><ele>179.0</ele><time>2026-03-22T11:19:18Z</time></trkpt><trkpt lat="44.4271312339134" lon="8.922122871962475"><ele>179.66666666666669</ele><time>2026-03-22T11:19:19Z</time></trkpt><trkpt lat="44.427085483981465" lon="8.922023653141839"><ele>180.33333333333334</ele><time>2026-03-22T11:19:20Z</time></trkpt><trkpt lat="44.42705190163933" lon="8.921918216255335"><ele>181.0</ele><time>2026-03-22T11:19:21Z</time></trkpt><trkpt lat="44.427006402997" lon="8.921812249834078"><ele>179.0</ele><time>2026-03-22T11:19:22Z</time></trkpt><trkpt lat="44.42695304400017" lon="8.921712809084246"><ele>177.0</ele><time>2026-03-22T11:19:23Z</time></trkpt><trkpt lat="44.426902125537744" lon="8.921602546773567"><ele>175.0</ele><time>2026-03-22T11:19:24Z</time></trkpt><trkpt lat="44.426852658717436" lon="8.9215162933911"><ele>173.0</ele><time>2026-03-22T11:19:25Z</time></trkpt><trkpt lat="44.426806127319054" lon="8.921412002429584"><ele>171.0</ele><time>2026-03-22T11:19:26Z</time></trkpt><trkpt lat="44.42676263488703" lon="8.921308993718506"><ele>169.0</ele><time>2026-03-22T11:19:27Z</time></trkpt><trkpt lat="44.42671164077336" lon="8.921205667392451"><ele>169.0</ele><time>2026-03-22T11:19:28Z</time></trkpt><trkpt lat="44.426663343873855" lon="8.921103723824924"><ele>169.0</ele><time>2026-03-22T11:19:29Z</time></trkpt><trkpt lat="44.42661851792811" lon="8.920998073629583"><ele>169.0</ele><time>2026-03-22T11:19:30Z</time></trkpt><trkpt lat="44.42656310302899" lon="8.92089937773148"><ele>169.0</ele><time>2026-03-22T11:19:31Z</time></trkpt><trkpt lat="44.42652048557005" lon="8.92079367347071"><ele>169.0</ele><time>2026-03-22T11:19:32Z</time></trkpt><trkpt lat="44.4264793314005" lon="8.920693996508657"><ele>169.0</ele><time>2026-03-22T11:19:33Z</time></trkpt><trkpt lat="44.42643863129912" lon="8.920599178650214"><ele>167.5</ele><time>2026-03-22T11:19:34Z</time></trkpt><trkpt lat="44.42639835154951" lon="8.920508596600287"><ele>166.0</ele><time>2026-03-22T11:19:35Z</time></trkpt><trkpt lat="44.426355236190346" lon="8.92041508643762"><ele>164.5</ele><time>2026-03-22T11:19:36Z</time></trkpt><trkpt lat="44.426318950455475" lon="8.920324199669459"><ele>163.0</ele><time>2026-03-22T11:19:37Z</time></trkpt><trkpt lat="44.42625228917109" lon="8.9201753293014"><ele>161.5</ele><time>2026-03-22T11:19:39Z</time></trkpt><trkpt lat="44.42618400397793" lon="8.920096197966897"><ele>160.0</ele><time>2026-03-22T11:19:41Z</time></trkpt><trkpt lat="44.426106010116904" lon="8.920107372026143"><ele>157.33333333333334</ele><time>2026-03-22T11:19:43Z</time></trkpt><trkpt lat="44.426020218358595" lon="8.92017786216048"><ele>154.66666666666669</ele><time>2026-03-22T11:19:45Z</time></trkpt><trkpt lat="44.42600141628904" lon="8.920311382595154"><ele>152.0</ele><time>2026-03-22T11:19:47Z</time></trkpt><trkpt lat="44.42601163399889" lon="8.920441901572358"><ele>149.33333333333334</ele><time>2026-03-22T11:19:49Z</time></trkpt><trkpt lat="44.426026094805174" lon="8.920550727665146"><ele>146.66666666666666</ele><time>2026-03-22T11:19:50Z</time></trkpt><trkpt lat="44.42604138526746" lon="8.920649055675645"><ele>144.0</ele><time>2026-03-22T11:19:51Z</time></trkpt><trkpt lat="44.42605671698617" lon="8.92074738821006"><ele>144.0</ele><time>2026-03-22T11:19:52Z</time></trkpt><trkpt lat="44.42607343012501" lon="8.92085458065949"><ele>144.0</ele><time>2026-03-22T11:19:53Z</time></trkpt><trkpt lat="44.42608540404437" lon="8.920957780835476"><ele>144.0</ele><time>2026-03-22T11:19:54Z</time></trkpt><trkpt lat="44.4260930592877" lon="8.921051305624905"><ele>144.0</ele><time>2026-03-22T11:19:55Z</time></trkpt><trkpt lat="44.42610671032914" lon="8.92121808069991"><ele>144.0</ele><time>2026-03-22T11:19:57Z</time></trkpt><trkpt lat="44.42609839650811" lon="8.921333451287822"><ele>144.0</ele><time>2026-03-22T11:19:59Z</time></trkpt><trkpt lat="44.42600746345145" lon="8.921380368845345"><ele>144.0</ele><time>2026-03-22T11:20:02Z</time></trkpt><trkpt lat="44.42590764449917" lon="8.921336025953758"><ele>144.0</ele><time>2026-03-22T11:20:04Z</time></trkpt><trkpt lat="44.425850674733155" lon="8.921259765979665"><ele>144.0</ele><time>2026-03-22T11:20:06Z</time></trkpt><trkpt lat="44.42581295409053" lon="8.921144771442098"><ele>144.0</ele><time>2026-03-22T11:20:08Z</time></trkpt><trkpt lat="44.42577954031576" lon="8.921067899791803"><ele>144.0</ele><time>2026-03-22T11:20:09Z</time></trkpt><trkpt lat="44.4258025762071" lon="8.920975882609461"><ele>144.0</ele><time>2026-03-22T11:20:10Z</time></trkpt><trkpt lat="44.42579571735342" lon="8.92088169423798"><ele>144.0</ele><time>2026-03-22T11:20:11Z</time></trkpt><trkpt lat="44.42578422567818" lon="8.920663539132534"><ele>144.0</ele><time>2026-03-22T11:20:12Z</time></trkpt><trkpt lat="44.42575880365068" lon="8.920526527924553"><ele>144.0</ele><time>2026-03-22T11:20:13Z</time></trkpt><trkpt lat="44.425737591957585" lon="8.92039402965586"><ele>144.0</ele><time>2026-03-22T11:20:14Z</time></trkpt><trkpt lat="44.42572322177238" lon="8.920289278528617"><ele>144.0</ele><time>2026-03-22T11:20:15Z</time></trkpt><trkpt lat="44.42571039877202" lon="8.920160648515555"><ele>144.83333333333334</ele><time>2026-03-22T11:20:16Z</time></trkpt><trkpt lat="44.425700290215836" lon="8.920037627680776"><ele>145.66666666666666</ele><time>2026-03-22T11:20:17Z</time></trkpt><trkpt lat="44.4256929655683" lon="8.919943105514283"><ele>146.5</ele><time>2026-03-22T11:20:18Z</time></trkpt><trkpt lat="44.425687553519374" lon="8.919848264293606"><ele>147.33333333333331</ele><time>2026-03-22T11:20:19Z</time></trkpt><trkpt lat="44.425681776100944" lon="8.919735249106763"><ele>148.16666666666666</ele><time>2026-03-22T11:20:20Z</time></trkpt><trkpt lat="44.42567718799449" lon="8.91963239393041"><ele>149.0</ele><time>2026-03-22T11:20:21Z</time></trkpt><trkpt lat="44.42567293299142" lon="8.919506169926708"><ele>149.0</ele><time>2026-03-22T11:20:22Z</time></trkpt><trkpt lat="44.42568109327778" lon="8.91940540737383"><ele>149.0</ele><time>2026-03-22T11:20:23Z</time></trkpt><trkpt lat="44.42566178436064" lon="8.919278906108742"><ele>149.0</ele><time>2026-03-22T11:20:25Z</time></trkpt><trkpt lat="44.42556918059432" lon="8.919214908062862"><ele>149.0</ele><time>2026-03-22T11:20:27Z</time></trkpt><trkpt lat="44.425483201542434" lon="8.919196162015478"><ele>149.0</ele><time>2026-03-22T11:20:29Z</time></trkpt><trkpt lat="44.425380609250254" lon="8.919190100346706"><ele>144.83333333333331</ele><time>2026-03-22T11:20:31Z</time></trkpt><trkpt lat="44.42531264584807" lon="8.919281241698734"><ele>140.66666666666666</ele><time>2026-03-22T11:20:33Z</time></trkpt><trkpt lat="44.425298051751575" lon="8.91939800941856"><ele>136.5</ele><time>2026-03-22T11:20:34Z</time></trkpt><trkpt lat="44.4253195027103" lon="8.919533758813003"><ele>132.33333333333334</ele><time>2026-03-22T11:20:36Z</time></trkpt><trkpt lat="44.42534468527811" lon="8.91962100054817"><ele>128.16666666666669</ele><time>2026-03-22T11:20:37Z</time></trkpt><trkpt lat="44.42537083137329" lon="8.919728276434032"><ele>124.0</ele><time>2026-03-22T11:20:38Z</time></trkpt><trkpt lat="44.42539154367856" lon="8.919818775700548"><ele>124.0</ele><time>2026-03-22T11:20:39Z</time></trkpt><trkpt lat="44.4254112936864" lon="8.919921519904605"><ele>124.0</ele><time>2026-03-22T11:20:40Z</time></trkpt><trkpt lat="44.42542763826625" lon="8.92013965356209"><ele>124.0</ele><time>2026-03-22T11:20:42Z</time></trkpt><trkpt lat="44.42543536617412" lon="8.920255942391588"><ele>124.0</ele><time>2026-03-22T11:20:43Z</time></trkpt><trkpt lat="44.42544622546942" lon="8.920371378639514"><ele>124.0</ele><time>2026-03-22T11:20:44Z</time></trkpt><trkpt lat="44.42546022217901" lon="8.920467803423485"><ele>126.66666666666667</ele><time>2026-03-22T11:20:45Z</time></trkpt><trkpt lat="44.42548122414479" lon="8.920561372084652"><ele>129.33333333333334</ele><time>2026-03-22T11:20:46Z</time></trkpt><trkpt lat="44.425511491931054" lon="8.920652334135172"><ele>132.0</ele><time>2026-03-22T11:20:47Z</time></trkpt><trkpt lat="44.42550501265479" lon="8.920750697797555"><ele>134.66666666666666</ele><time>2026-03-22T11:20:48Z</time></trkpt><trkpt lat="44.42550652925742" lon="8.92092012117902"><ele>137.33333333333331</ele><time>2026-03-22T11:20:50Z</time></trkpt><trkpt lat="44.42552754298906" lon="8.921068523699319"><ele>140.0</ele><time>2026-03-22T11:20:52Z</time></trkpt><trkpt lat="44.42548904101564" lon="8.921174047771578"><ele>141.8</ele><time>2026-03-22T11:20:54Z</time></trkpt><trkpt lat="44.425446875827106" lon="8.921249855516802"><ele>143.6</ele><time>2026-03-22T11:20:55Z</time></trkpt><trkpt lat="44.4254282069055" lon="8.921352606368124"><ele>145.4</ele><time>2026-03-22T11:20:56Z</time></trkpt><trkpt lat="44.42538600576164" lon="8.921436057291343"><ele>147.2</ele><time>2026-03-22T11:20:57Z</time></trkpt><trkpt lat="44.42539226735841" lon="8.921640901400997"><ele>149.0</ele><time>2026-03-22T11:20:59Z</time></trkpt><trkpt lat="44.42540463156236" lon="8.92178408233128"><ele>147.2</ele><time>2026-03-22T11:21:01Z</time></trkpt><trkpt lat="44.42551811886943" lon="8.921846207140888"><ele>145.4</ele><time>2026-03-22T11:21:04Z</time></trkpt><trkpt lat="44.42560354810061" lon="8.921999247457865"><ele>143.6</ele><time>2026-03-22T11:21:08Z</time></trkpt><trkpt lat="44.42565214600154" lon="8.922055415401259"><ele>141.8</ele><time>2026-03-22T11:21:09Z</time></trkpt><trkpt lat="44.425730532181554" lon="8.922167629175947"><ele>140.0</ele><time>2026-03-22T11:21:11Z</time></trkpt><trkpt lat="44.425798783813335" lon="8.922261290510278"><ele>140.0</ele><time>2026-03-22T11:21:13Z</time></trkpt><trkpt lat="44.425922799835256" lon="8.92237748940569"><ele>140.0</ele><time>2026-03-22T11:21:15Z</time></trkpt><trkpt lat="44.42598586536154" lon="8.922443862549672"><ele>140.0</ele><time>2026-03-22T11:21:16Z</time></trkpt><trkpt lat="44.4260321144187" lon="8.922542070086816"><ele>140.0</ele><time>2026-03-22T11:21:17Z</time></trkpt><trkpt lat="44.4260833301491" lon="8.922604823363534"><ele>140.0</ele><time>2026-03-22T11:21:18Z</time></trkpt><trkpt lat="44.42612996975928" lon="8.922692312053538"><ele>142.0</ele><time>2026-03-22T11:21:19Z</time></trkpt><trkpt lat="44.42618166365081" lon="8.922760061921558"><ele>144.0</ele><time>2026-03-22T11:21:20Z</time></trkpt><trkpt lat="44.42620943230781" lon="8.922861280453033"><ele>146.0</ele><time>2026-03-22T11:21:21Z</time></trkpt><trkpt lat="44.4262455872953" lon="8.922945588446954"><ele>148.0</ele><time>2026-03-22T11:21:22Z</time></trkpt><trkpt lat="44.42628443297168" lon="8.923039288809155"><ele>150.0</ele><time>2026-03-22T11:21:23Z</time></trkpt><trkpt lat="44.42633500314762" lon="8.923177031806091"><ele>152.0</ele><time>2026-03-22T11:21:25Z</time></trkpt><trkpt lat="44.42638662002063" lon="8.923324836838889"><ele>157.75</ele><time>2026-03-22T11:21:27Z</time></trkpt><trkpt lat="44.42651986076774" lon="8.923433331678712"><ele>163.5</ele><time>2026-03-22T11:21:30Z</time></trkpt><trkpt lat="44.42657892339603" lon="8.923581833405136"><ele>169.25</ele><time>2026-03-22T11:21:32Z</time></trkpt><trkpt lat="44.42660158232073" lon="8.923664696454669"><ele>175.0</ele><time>2026-03-22T11:21:33Z</time></trkpt><trkpt lat="44.42669697917336" lon="8.923746739069838"><ele>175.0</ele><time>2026-03-22T11:21:35Z</time></trkpt><trkpt lat="44.426756630997204" lon="8.923791349349276"><ele>175.0</ele><time>2026-03-22T11:21:36Z</time></trkpt><trkpt lat="44.42687360261275" lon="8.923848624821844"><ele>175.0</ele><time>2026-03-22T11:21:38Z</time></trkpt><trkpt lat="44.426958692324746" lon="8.923913043003752"><ele>175.0</ele><time>2026-03-22T11:21:40Z</time></trkpt><trkpt lat="44.4270442354369" lon="8.923956668373886"><ele>175.0</ele><time>2026-03-22T11:21:43Z</time></trkpt><trkpt lat="44.42697624801053" lon="8.924143385782902"><ele>175.66666666666669</ele><time>2026-03-22T11:21:44Z</time></trkpt><trkpt lat="44.42700588924691" lon="8.9242314711971"><ele>176.33333333333334</ele><time>2026-03-22T11:21:46Z</time></trkpt><trkpt lat="44.4270709599192" lon="8.924233646567535"><ele>177.0</ele><time>2026-03-22T11:21:47Z</time></trkpt><trkpt lat="44.427151879867075" lon="8.924174375799739"><ele>177.66666666666666</ele><time>2026-03-22T11:21:51Z</time></trkpt><trkpt lat="44.4271947482561" lon="8.924089044105916"><ele>178.33333333333331</ele><time>2026-03-22T11:21:53Z</time></trkpt><trkpt lat="44.42717725487061" lon="8.92399477563351"><ele>179.0</ele><time>2026-03-22T11:21:55Z</time></trkpt><trkpt lat="44.427151178927396" lon="8.92386668009317"><ele>178.33333333333331</ele><time>2026-03-22T11:21:57Z</time></trkpt><trkpt lat="44.4270884116963" lon="8.923805462220633"><ele>177.66666666666666</ele><time>2026-03-22T11:21:58Z</time></trkpt><trkpt lat="44.42708090620465" lon="8.923702215048415"><ele>177.0</ele><time>2026-03-22T11:21:59Z</time></trkpt><trkpt lat="44.427060823021556" lon="8.923613725024689"><ele>176.33333333333334</ele><time>2026-03-22T11:22:00Z</time></trkpt><trkpt lat="44.427006088863926" lon="8.92348729481798"><ele>175.66666666666669</ele><time>2026-03-22T11:22:02Z</time></trkpt><trkpt lat="44.42694991986745" lon="8.923443508997842"><ele>175.0</ele><time>2026-03-22T11:22:03Z</time></trkpt><trkpt lat="44.426916647083836" lon="8.923296350122829"><ele>175.33333333333334</ele><time>2026-03-22T11:22:05Z</time></trkpt><trkpt lat="44.426901890079506" lon="8.92320891986855"><ele>175.66666666666669</ele><time>2026-03-22T11:22:07Z</time></trkpt><trkpt lat="44.427055396333984" lon="8.923248220446274"><ele>176.0</ele><time>2026-03-22T11:22:20Z</time></trkpt><trkpt lat="44.42709957944653" lon="8.923317503837948"><ele>176.33333333333334</ele><time>2026-03-22T11:22:26Z</time></trkpt><trkpt lat="44.42716339319685" lon="8.923326738360002"><ele>176.66666666666666</ele><time>2026-03-22T11:23:06Z</time></trkpt><trkpt lat="44.427225152551806" lon="8.923421534432551"><ele>177.0</ele><time>2026-03-22T11:23:09Z</time></trkpt><trkpt lat="44.42730036170083" lon="8.923509907608233"><ele>177.33333333333334</ele><time>2026-03-22T11:23:11Z</time></trkpt><trkpt lat="44.427357243871974" lon="8.923555786633539"><ele>177.66666666666666</ele><time>2026-03-22T11:23:12Z</time></trkpt><trkpt lat="44.427404038357324" lon="8.923618351329765"><ele>178.0</ele><time>2026-03-22T11:23:13Z</time></trkpt><trkpt lat="44.427475828317235" lon="8.923711230161171"><ele>178.33333333333331</ele><time>2026-03-22T11:23:15Z</time></trkpt><trkpt lat="44.427531671718604" lon="8.923758148695805"><ele>178.66666666666666</ele><time>2026-03-22T11:23:16Z</time></trkpt><trkpt lat="44.4276128717318" lon="8.923845775764596"><ele>179.0</ele><time>2026-03-22T11:23:18Z</time></trkpt><trkpt lat="44.427676438475345" lon="8.923948308187452"><ele>179.0</ele><time>2026-03-22T11:23:21Z</time></trkpt><trkpt lat="44.42774329534194" lon="8.924017327727702"><ele>179.0</ele><time>2026-03-22T11:23:23Z</time></trkpt></trkseg></trk></gpx>